<?xml version="1.0" encoding="UTF-8" standalone="no" ?>
<gpx xmlns="http://www.topografix.com/GPX/1/1" xmlns:xsi="http://www.w3.org/2001/XMLSchema-instance" xsi:schemaLocation="http://www.topografix.com/GPX/1/1 http://www.topografix.com/GPX/1/1/gpx.xsd" version="1.1" creator="VisuGPX - https://www.visugpx.com">
  <metadata>
    <name>83-D+ Cavalaire </name>
    <desc><![CDATA[83-D+ Cavalaire : Des sables de Bonporteau aux hauteurs de Malatra 
2024-02-04]]></desc>
  </metadata>
  <trk>
    <name><![CDATA[CAVALAIRE- Des sables de Bonporteau aux hauteurs de Malatra 2024-02-04-01]]></name>
    <trkseg>
      <trkpt lat="43.16661" lon="6.51976">
        <ele>80.2</ele>
        <time>2024-02-04T08:21:33Z</time>
      </trkpt>
      <trkpt lat="43.16662" lon="6.51977">
        <ele>80.2</ele>
        <time>2024-02-04T08:21:34Z</time>
      </trkpt>
      <trkpt lat="43.16662" lon="6.51977">
        <ele>80.3</ele>
        <time>2024-02-04T08:21:35Z</time>
      </trkpt>
      <trkpt lat="43.16662" lon="6.51978">
        <ele>80.4</ele>
        <time>2024-02-04T08:21:36Z</time>
      </trkpt>
      <trkpt lat="43.16663" lon="6.51979">
        <ele>80.5</ele>
        <time>2024-02-04T08:21:37Z</time>
      </trkpt>
      <trkpt lat="43.16663" lon="6.5198">
        <ele>80.5</ele>
        <time>2024-02-04T08:21:38Z</time>
      </trkpt>
      <trkpt lat="43.16664" lon="6.5198">
        <ele>80.5</ele>
        <time>2024-02-04T08:21:39Z</time>
      </trkpt>
      <trkpt lat="43.16664" lon="6.51981">
        <ele>80.4</ele>
        <time>2024-02-04T08:21:40Z</time>
      </trkpt>
      <trkpt lat="43.16665" lon="6.51982">
        <ele>80.4</ele>
        <time>2024-02-04T08:21:41Z</time>
      </trkpt>
      <trkpt lat="43.16667" lon="6.51984">
        <ele>80.4</ele>
        <time>2024-02-04T08:21:42Z</time>
      </trkpt>
      <trkpt lat="43.16668" lon="6.51985">
        <ele>80.5</ele>
        <time>2024-02-04T08:21:43Z</time>
      </trkpt>
      <trkpt lat="43.1667" lon="6.51986">
        <ele>80.4</ele>
        <time>2024-02-04T08:21:44Z</time>
      </trkpt>
      <trkpt lat="43.16671" lon="6.51987">
        <ele>80.4</ele>
        <time>2024-02-04T08:21:45Z</time>
      </trkpt>
      <trkpt lat="43.16671" lon="6.51988">
        <ele>80.3</ele>
        <time>2024-02-04T08:21:46Z</time>
      </trkpt>
      <trkpt lat="43.16671" lon="6.51989">
        <ele>80.3</ele>
        <time>2024-02-04T08:21:47Z</time>
      </trkpt>
      <trkpt lat="43.16671" lon="6.5199">
        <ele>80.3</ele>
        <time>2024-02-04T08:21:48Z</time>
      </trkpt>
      <trkpt lat="43.16671" lon="6.51991">
        <ele>80.4</ele>
        <time>2024-02-04T08:21:49Z</time>
      </trkpt>
      <trkpt lat="43.16671" lon="6.51993">
        <ele>80.3</ele>
        <time>2024-02-04T08:21:50Z</time>
      </trkpt>
      <trkpt lat="43.16672" lon="6.51994">
        <ele>80.1</ele>
        <time>2024-02-04T08:21:51Z</time>
      </trkpt>
      <trkpt lat="43.16673" lon="6.51995">
        <ele>80.1</ele>
        <time>2024-02-04T08:21:52Z</time>
      </trkpt>
      <trkpt lat="43.16675" lon="6.51997">
        <ele>80.1</ele>
        <time>2024-02-04T08:21:53Z</time>
      </trkpt>
      <trkpt lat="43.16674" lon="6.51999">
        <ele>80</ele>
        <time>2024-02-04T08:21:54Z</time>
      </trkpt>
      <trkpt lat="43.16674" lon="6.52">
        <ele>80</ele>
        <time>2024-02-04T08:21:55Z</time>
      </trkpt>
      <trkpt lat="43.16674" lon="6.52001">
        <ele>81.9</ele>
        <time>2024-02-04T08:21:56Z</time>
      </trkpt>
      <trkpt lat="43.16675" lon="6.52003">
        <ele>81.6</ele>
        <time>2024-02-04T08:21:57Z</time>
      </trkpt>
      <trkpt lat="43.16679" lon="6.52003">
        <ele>81.3</ele>
        <time>2024-02-04T08:21:58Z</time>
      </trkpt>
      <trkpt lat="43.16679" lon="6.52004">
        <ele>81.1</ele>
        <time>2024-02-04T08:21:59Z</time>
      </trkpt>
      <trkpt lat="43.16679" lon="6.52005">
        <ele>80.9</ele>
        <time>2024-02-04T08:22:00Z</time>
      </trkpt>
      <trkpt lat="43.1668" lon="6.52005">
        <ele>80.8</ele>
        <time>2024-02-04T08:22:01Z</time>
      </trkpt>
      <trkpt lat="43.16681" lon="6.52007">
        <ele>80.7</ele>
        <time>2024-02-04T08:22:02Z</time>
      </trkpt>
      <trkpt lat="43.16681" lon="6.52008">
        <ele>80.5</ele>
        <time>2024-02-04T08:22:03Z</time>
      </trkpt>
      <trkpt lat="43.16687" lon="6.52008">
        <ele>80.9</ele>
        <time>2024-02-04T08:22:04Z</time>
      </trkpt>
      <trkpt lat="43.16687" lon="6.52009">
        <ele>80</ele>
        <time>2024-02-04T08:22:05Z</time>
      </trkpt>
      <trkpt lat="43.16687" lon="6.5201">
        <ele>78.9</ele>
        <time>2024-02-04T08:22:06Z</time>
      </trkpt>
      <trkpt lat="43.16686" lon="6.52012">
        <ele>79.2</ele>
        <time>2024-02-04T08:22:07Z</time>
      </trkpt>
      <trkpt lat="43.16687" lon="6.52014">
        <ele>79.3</ele>
        <time>2024-02-04T08:22:08Z</time>
      </trkpt>
      <trkpt lat="43.16688" lon="6.52014">
        <ele>79.5</ele>
        <time>2024-02-04T08:22:09Z</time>
      </trkpt>
      <trkpt lat="43.16687" lon="6.52016">
        <ele>79.7</ele>
        <time>2024-02-04T08:22:10Z</time>
      </trkpt>
      <trkpt lat="43.16688" lon="6.52016">
        <ele>79.7</ele>
        <time>2024-02-04T08:22:11Z</time>
      </trkpt>
      <trkpt lat="43.16689" lon="6.52017">
        <ele>79.8</ele>
        <time>2024-02-04T08:22:12Z</time>
      </trkpt>
      <trkpt lat="43.1669" lon="6.52019">
        <ele>79.8</ele>
        <time>2024-02-04T08:22:13Z</time>
      </trkpt>
      <trkpt lat="43.1669" lon="6.52021">
        <ele>79.8</ele>
        <time>2024-02-04T08:22:14Z</time>
      </trkpt>
      <trkpt lat="43.1669" lon="6.52022">
        <ele>79.8</ele>
        <time>2024-02-04T08:22:15Z</time>
      </trkpt>
      <trkpt lat="43.1669" lon="6.52023">
        <ele>79.8</ele>
        <time>2024-02-04T08:22:16Z</time>
      </trkpt>
      <trkpt lat="43.1669" lon="6.52024">
        <ele>79.9</ele>
        <time>2024-02-04T08:22:17Z</time>
      </trkpt>
      <trkpt lat="43.16691" lon="6.52025">
        <ele>80</ele>
        <time>2024-02-04T08:22:18Z</time>
      </trkpt>
      <trkpt lat="43.16694" lon="6.52026">
        <ele>80</ele>
        <time>2024-02-04T08:22:19Z</time>
      </trkpt>
      <trkpt lat="43.16695" lon="6.52027">
        <ele>80</ele>
        <time>2024-02-04T08:22:20Z</time>
      </trkpt>
      <trkpt lat="43.16695" lon="6.52029">
        <ele>80</ele>
        <time>2024-02-04T08:22:21Z</time>
      </trkpt>
      <trkpt lat="43.16695" lon="6.5203">
        <ele>80</ele>
        <time>2024-02-04T08:22:22Z</time>
      </trkpt>
      <trkpt lat="43.16696" lon="6.52031">
        <ele>80.1</ele>
        <time>2024-02-04T08:22:23Z</time>
      </trkpt>
      <trkpt lat="43.16697" lon="6.52032">
        <ele>80.1</ele>
        <time>2024-02-04T08:22:24Z</time>
      </trkpt>
      <trkpt lat="43.16696" lon="6.52034">
        <ele>80.1</ele>
        <time>2024-02-04T08:22:25Z</time>
      </trkpt>
      <trkpt lat="43.16696" lon="6.52034">
        <ele>80.1</ele>
        <time>2024-02-04T08:22:26Z</time>
      </trkpt>
      <trkpt lat="43.16696" lon="6.52036">
        <ele>80.1</ele>
        <time>2024-02-04T08:22:27Z</time>
      </trkpt>
      <trkpt lat="43.16696" lon="6.52037">
        <ele>80.1</ele>
        <time>2024-02-04T08:22:28Z</time>
      </trkpt>
      <trkpt lat="43.16697" lon="6.52038">
        <ele>80.1</ele>
        <time>2024-02-04T08:22:29Z</time>
      </trkpt>
      <trkpt lat="43.16697" lon="6.5204">
        <ele>80.1</ele>
        <time>2024-02-04T08:22:30Z</time>
      </trkpt>
      <trkpt lat="43.16697" lon="6.52042">
        <ele>80.2</ele>
        <time>2024-02-04T08:22:31Z</time>
      </trkpt>
      <trkpt lat="43.16698" lon="6.52043">
        <ele>80.1</ele>
        <time>2024-02-04T08:22:32Z</time>
      </trkpt>
      <trkpt lat="43.16698" lon="6.52044">
        <ele>80.1</ele>
        <time>2024-02-04T08:22:33Z</time>
      </trkpt>
      <trkpt lat="43.16698" lon="6.52045">
        <ele>80.1</ele>
        <time>2024-02-04T08:22:34Z</time>
      </trkpt>
      <trkpt lat="43.16699" lon="6.52046">
        <ele>80.1</ele>
        <time>2024-02-04T08:22:35Z</time>
      </trkpt>
      <trkpt lat="43.16699" lon="6.52047">
        <ele>80</ele>
        <time>2024-02-04T08:22:36Z</time>
      </trkpt>
      <trkpt lat="43.167" lon="6.52048">
        <ele>80</ele>
        <time>2024-02-04T08:22:37Z</time>
      </trkpt>
      <trkpt lat="43.16701" lon="6.5205">
        <ele>80</ele>
        <time>2024-02-04T08:22:38Z</time>
      </trkpt>
      <trkpt lat="43.16703" lon="6.52051">
        <ele>79.9</ele>
        <time>2024-02-04T08:22:39Z</time>
      </trkpt>
      <trkpt lat="43.16703" lon="6.52052">
        <ele>79.8</ele>
        <time>2024-02-04T08:22:40Z</time>
      </trkpt>
      <trkpt lat="43.16703" lon="6.52053">
        <ele>79.8</ele>
        <time>2024-02-04T08:22:41Z</time>
      </trkpt>
      <trkpt lat="43.16702" lon="6.52053">
        <ele>79.8</ele>
        <time>2024-02-04T08:22:42Z</time>
      </trkpt>
      <trkpt lat="43.16703" lon="6.52054">
        <ele>79.8</ele>
        <time>2024-02-04T08:22:43Z</time>
      </trkpt>
      <trkpt lat="43.16702" lon="6.52055">
        <ele>79.8</ele>
        <time>2024-02-04T08:22:44Z</time>
      </trkpt>
      <trkpt lat="43.16701" lon="6.52056">
        <ele>79.8</ele>
        <time>2024-02-04T08:22:45Z</time>
      </trkpt>
      <trkpt lat="43.16702" lon="6.52056">
        <ele>79.8</ele>
        <time>2024-02-04T08:22:46Z</time>
      </trkpt>
      <trkpt lat="43.16702" lon="6.52056">
        <ele>79.9</ele>
        <time>2024-02-04T08:22:47Z</time>
      </trkpt>
      <trkpt lat="43.16703" lon="6.52056">
        <ele>79.9</ele>
        <time>2024-02-04T08:22:48Z</time>
      </trkpt>
      <trkpt lat="43.16703" lon="6.52056">
        <ele>79.9</ele>
        <time>2024-02-04T08:22:49Z</time>
      </trkpt>
      <trkpt lat="43.16704" lon="6.52056">
        <ele>79.9</ele>
        <time>2024-02-04T08:22:50Z</time>
      </trkpt>
      <trkpt lat="43.16704" lon="6.52056">
        <ele>79.9</ele>
        <time>2024-02-04T08:22:51Z</time>
      </trkpt>
      <trkpt lat="43.16704" lon="6.52056">
        <ele>79.8</ele>
        <time>2024-02-04T08:22:52Z</time>
      </trkpt>
      <trkpt lat="43.16704" lon="6.52057">
        <ele>79.8</ele>
        <time>2024-02-04T08:22:53Z</time>
      </trkpt>
      <trkpt lat="43.16703" lon="6.52058">
        <ele>79.8</ele>
        <time>2024-02-04T08:22:54Z</time>
      </trkpt>
      <trkpt lat="43.16704" lon="6.52058">
        <ele>79.8</ele>
        <time>2024-02-04T08:22:55Z</time>
      </trkpt>
      <trkpt lat="43.16704" lon="6.52058">
        <ele>79.9</ele>
        <time>2024-02-04T08:22:56Z</time>
      </trkpt>
      <trkpt lat="43.16704" lon="6.52058">
        <ele>79.9</ele>
        <time>2024-02-04T08:22:57Z</time>
      </trkpt>
      <trkpt lat="43.16704" lon="6.52058">
        <ele>79.9</ele>
        <time>2024-02-04T08:22:58Z</time>
      </trkpt>
      <trkpt lat="43.16704" lon="6.52059">
        <ele>79.9</ele>
        <time>2024-02-04T08:22:59Z</time>
      </trkpt>
      <trkpt lat="43.16704" lon="6.52059">
        <ele>79.9</ele>
        <time>2024-02-04T08:23:00Z</time>
      </trkpt>
      <trkpt lat="43.16705" lon="6.52059">
        <ele>79.9</ele>
        <time>2024-02-04T08:23:01Z</time>
      </trkpt>
      <trkpt lat="43.16705" lon="6.52059">
        <ele>79.9</ele>
        <time>2024-02-04T08:23:02Z</time>
      </trkpt>
      <trkpt lat="43.16705" lon="6.52059">
        <ele>79.8</ele>
        <time>2024-02-04T08:23:03Z</time>
      </trkpt>
      <trkpt lat="43.16705" lon="6.52059">
        <ele>79.7</ele>
        <time>2024-02-04T08:23:04Z</time>
      </trkpt>
      <trkpt lat="43.16706" lon="6.52059">
        <ele>79.7</ele>
        <time>2024-02-04T08:23:05Z</time>
      </trkpt>
      <trkpt lat="43.16706" lon="6.52059">
        <ele>79.7</ele>
        <time>2024-02-04T08:23:06Z</time>
      </trkpt>
      <trkpt lat="43.16707" lon="6.52059">
        <ele>79.7</ele>
        <time>2024-02-04T08:23:07Z</time>
      </trkpt>
      <trkpt lat="43.16707" lon="6.52059">
        <ele>79.7</ele>
        <time>2024-02-04T08:23:08Z</time>
      </trkpt>
      <trkpt lat="43.16707" lon="6.52059">
        <ele>79.7</ele>
        <time>2024-02-04T08:23:09Z</time>
      </trkpt>
      <trkpt lat="43.16707" lon="6.52059">
        <ele>79.7</ele>
        <time>2024-02-04T08:23:10Z</time>
      </trkpt>
      <trkpt lat="43.16708" lon="6.52059">
        <ele>79.7</ele>
        <time>2024-02-04T08:23:11Z</time>
      </trkpt>
      <trkpt lat="43.16708" lon="6.52059">
        <ele>79.7</ele>
        <time>2024-02-04T08:23:12Z</time>
      </trkpt>
      <trkpt lat="43.16708" lon="6.52059">
        <ele>79.7</ele>
        <time>2024-02-04T08:23:13Z</time>
      </trkpt>
      <trkpt lat="43.16708" lon="6.52059">
        <ele>79.8</ele>
        <time>2024-02-04T08:23:14Z</time>
      </trkpt>
      <trkpt lat="43.16708" lon="6.52059">
        <ele>79.7</ele>
        <time>2024-02-04T08:23:15Z</time>
      </trkpt>
      <trkpt lat="43.16708" lon="6.52059">
        <ele>79.7</ele>
        <time>2024-02-04T08:23:16Z</time>
      </trkpt>
      <trkpt lat="43.16709" lon="6.52058">
        <ele>79.7</ele>
        <time>2024-02-04T08:23:17Z</time>
      </trkpt>
      <trkpt lat="43.16708" lon="6.52057">
        <ele>79.6</ele>
        <time>2024-02-04T08:23:18Z</time>
      </trkpt>
      <trkpt lat="43.16707" lon="6.52056">
        <ele>79.5</ele>
        <time>2024-02-04T08:23:19Z</time>
      </trkpt>
      <trkpt lat="43.16708" lon="6.52056">
        <ele>79.5</ele>
        <time>2024-02-04T08:23:20Z</time>
      </trkpt>
      <trkpt lat="43.16707" lon="6.52055">
        <ele>79.5</ele>
        <time>2024-02-04T08:23:21Z</time>
      </trkpt>
      <trkpt lat="43.16707" lon="6.52054">
        <ele>79.6</ele>
        <time>2024-02-04T08:23:22Z</time>
      </trkpt>
      <trkpt lat="43.16707" lon="6.52054">
        <ele>79.5</ele>
        <time>2024-02-04T08:23:23Z</time>
      </trkpt>
      <trkpt lat="43.16708" lon="6.52055">
        <ele>79.4</ele>
        <time>2024-02-04T08:23:24Z</time>
      </trkpt>
      <trkpt lat="43.16706" lon="6.52055">
        <ele>79.4</ele>
        <time>2024-02-04T08:23:25Z</time>
      </trkpt>
      <trkpt lat="43.16706" lon="6.52055">
        <ele>79.3</ele>
        <time>2024-02-04T08:23:26Z</time>
      </trkpt>
      <trkpt lat="43.16702" lon="6.52056">
        <ele>79.2</ele>
        <time>2024-02-04T08:23:27Z</time>
      </trkpt>
      <trkpt lat="43.16701" lon="6.52056">
        <ele>79.1</ele>
        <time>2024-02-04T08:23:28Z</time>
      </trkpt>
      <trkpt lat="43.167" lon="6.52055">
        <ele>79</ele>
        <time>2024-02-04T08:23:29Z</time>
      </trkpt>
      <trkpt lat="43.16699" lon="6.52055">
        <ele>79</ele>
        <time>2024-02-04T08:23:30Z</time>
      </trkpt>
      <trkpt lat="43.16699" lon="6.52055">
        <ele>78.9</ele>
        <time>2024-02-04T08:23:31Z</time>
      </trkpt>
      <trkpt lat="43.16698" lon="6.52055">
        <ele>78.9</ele>
        <time>2024-02-04T08:23:32Z</time>
      </trkpt>
      <trkpt lat="43.16697" lon="6.52054">
        <ele>78.7</ele>
        <time>2024-02-04T08:23:33Z</time>
      </trkpt>
      <trkpt lat="43.16698" lon="6.52054">
        <ele>78.6</ele>
        <time>2024-02-04T08:23:34Z</time>
      </trkpt>
      <trkpt lat="43.16697" lon="6.52053">
        <ele>78.4</ele>
        <time>2024-02-04T08:23:35Z</time>
      </trkpt>
      <trkpt lat="43.16695" lon="6.52053">
        <ele>78.3</ele>
        <time>2024-02-04T08:23:36Z</time>
      </trkpt>
      <trkpt lat="43.16695" lon="6.52053">
        <ele>78.2</ele>
        <time>2024-02-04T08:23:37Z</time>
      </trkpt>
      <trkpt lat="43.16694" lon="6.52053">
        <ele>78.1</ele>
        <time>2024-02-04T08:23:38Z</time>
      </trkpt>
      <trkpt lat="43.16694" lon="6.52053">
        <ele>78</ele>
        <time>2024-02-04T08:23:39Z</time>
      </trkpt>
      <trkpt lat="43.16692" lon="6.52053">
        <ele>77.9</ele>
        <time>2024-02-04T08:23:40Z</time>
      </trkpt>
      <trkpt lat="43.16691" lon="6.52053">
        <ele>77.8</ele>
        <time>2024-02-04T08:23:41Z</time>
      </trkpt>
      <trkpt lat="43.1669" lon="6.52053">
        <ele>77.7</ele>
        <time>2024-02-04T08:23:42Z</time>
      </trkpt>
      <trkpt lat="43.16688" lon="6.52053">
        <ele>77.6</ele>
        <time>2024-02-04T08:23:43Z</time>
      </trkpt>
      <trkpt lat="43.16687" lon="6.52053">
        <ele>77.5</ele>
        <time>2024-02-04T08:23:44Z</time>
      </trkpt>
      <trkpt lat="43.16684" lon="6.52053">
        <ele>77.5</ele>
        <time>2024-02-04T08:23:45Z</time>
      </trkpt>
      <trkpt lat="43.16683" lon="6.52053">
        <ele>77.6</ele>
        <time>2024-02-04T08:23:46Z</time>
      </trkpt>
      <trkpt lat="43.16682" lon="6.52053">
        <ele>77.6</ele>
        <time>2024-02-04T08:23:47Z</time>
      </trkpt>
      <trkpt lat="43.16681" lon="6.52053">
        <ele>77.6</ele>
        <time>2024-02-04T08:23:48Z</time>
      </trkpt>
      <trkpt lat="43.16679" lon="6.52053">
        <ele>77.6</ele>
        <time>2024-02-04T08:23:49Z</time>
      </trkpt>
      <trkpt lat="43.16677" lon="6.52053">
        <ele>77.5</ele>
        <time>2024-02-04T08:23:50Z</time>
      </trkpt>
      <trkpt lat="43.16676" lon="6.52053">
        <ele>77.5</ele>
        <time>2024-02-04T08:23:51Z</time>
      </trkpt>
      <trkpt lat="43.16675" lon="6.52052">
        <ele>77.4</ele>
        <time>2024-02-04T08:23:52Z</time>
      </trkpt>
      <trkpt lat="43.16674" lon="6.52052">
        <ele>77.4</ele>
        <time>2024-02-04T08:23:53Z</time>
      </trkpt>
      <trkpt lat="43.16673" lon="6.52052">
        <ele>77.4</ele>
        <time>2024-02-04T08:23:54Z</time>
      </trkpt>
      <trkpt lat="43.16672" lon="6.52052">
        <ele>77.4</ele>
        <time>2024-02-04T08:23:55Z</time>
      </trkpt>
      <trkpt lat="43.16673" lon="6.52051">
        <ele>77.4</ele>
        <time>2024-02-04T08:23:56Z</time>
      </trkpt>
      <trkpt lat="43.16672" lon="6.52051">
        <ele>77.5</ele>
        <time>2024-02-04T08:23:57Z</time>
      </trkpt>
      <trkpt lat="43.16672" lon="6.52051">
        <ele>77.6</ele>
        <time>2024-02-04T08:23:58Z</time>
      </trkpt>
      <trkpt lat="43.16671" lon="6.5205">
        <ele>77.7</ele>
        <time>2024-02-04T08:23:59Z</time>
      </trkpt>
      <trkpt lat="43.16669" lon="6.5205">
        <ele>77.8</ele>
        <time>2024-02-04T08:24:00Z</time>
      </trkpt>
      <trkpt lat="43.16669" lon="6.52051">
        <ele>77.9</ele>
        <time>2024-02-04T08:24:01Z</time>
      </trkpt>
      <trkpt lat="43.16668" lon="6.52051">
        <ele>77.9</ele>
        <time>2024-02-04T08:24:02Z</time>
      </trkpt>
      <trkpt lat="43.16666" lon="6.52051">
        <ele>78</ele>
        <time>2024-02-04T08:24:03Z</time>
      </trkpt>
      <trkpt lat="43.16664" lon="6.52051">
        <ele>78</ele>
        <time>2024-02-04T08:24:04Z</time>
      </trkpt>
      <trkpt lat="43.16663" lon="6.52051">
        <ele>78.1</ele>
        <time>2024-02-04T08:24:05Z</time>
      </trkpt>
      <trkpt lat="43.16662" lon="6.52052">
        <ele>78.2</ele>
        <time>2024-02-04T08:24:06Z</time>
      </trkpt>
      <trkpt lat="43.16661" lon="6.52051">
        <ele>78.3</ele>
        <time>2024-02-04T08:24:07Z</time>
      </trkpt>
      <trkpt lat="43.16659" lon="6.52051">
        <ele>78.3</ele>
        <time>2024-02-04T08:24:08Z</time>
      </trkpt>
      <trkpt lat="43.16657" lon="6.5205">
        <ele>78.3</ele>
        <time>2024-02-04T08:24:09Z</time>
      </trkpt>
      <trkpt lat="43.16656" lon="6.5205">
        <ele>78.2</ele>
        <time>2024-02-04T08:24:10Z</time>
      </trkpt>
      <trkpt lat="43.16654" lon="6.52049">
        <ele>78.2</ele>
        <time>2024-02-04T08:24:11Z</time>
      </trkpt>
      <trkpt lat="43.16654" lon="6.52048">
        <ele>78.1</ele>
        <time>2024-02-04T08:24:12Z</time>
      </trkpt>
      <trkpt lat="43.16656" lon="6.52046">
        <ele>78.1</ele>
        <time>2024-02-04T08:24:13Z</time>
      </trkpt>
      <trkpt lat="43.16654" lon="6.52045">
        <ele>77.9</ele>
        <time>2024-02-04T08:24:14Z</time>
      </trkpt>
      <trkpt lat="43.16654" lon="6.52043">
        <ele>77.7</ele>
        <time>2024-02-04T08:24:15Z</time>
      </trkpt>
      <trkpt lat="43.16655" lon="6.52042">
        <ele>77.4</ele>
        <time>2024-02-04T08:24:16Z</time>
      </trkpt>
      <trkpt lat="43.16654" lon="6.5204">
        <ele>77.2</ele>
        <time>2024-02-04T08:24:17Z</time>
      </trkpt>
      <trkpt lat="43.16652" lon="6.5204">
        <ele>77</ele>
        <time>2024-02-04T08:24:18Z</time>
      </trkpt>
      <trkpt lat="43.16651" lon="6.52039">
        <ele>76.7</ele>
        <time>2024-02-04T08:24:19Z</time>
      </trkpt>
      <trkpt lat="43.16649" lon="6.52038">
        <ele>76.4</ele>
        <time>2024-02-04T08:24:20Z</time>
      </trkpt>
      <trkpt lat="43.16647" lon="6.52037">
        <ele>76.2</ele>
        <time>2024-02-04T08:24:21Z</time>
      </trkpt>
      <trkpt lat="43.16646" lon="6.52036">
        <ele>76</ele>
        <time>2024-02-04T08:24:22Z</time>
      </trkpt>
      <trkpt lat="43.16646" lon="6.52034">
        <ele>75.9</ele>
        <time>2024-02-04T08:24:23Z</time>
      </trkpt>
      <trkpt lat="43.16645" lon="6.52033">
        <ele>75.7</ele>
        <time>2024-02-04T08:24:24Z</time>
      </trkpt>
      <trkpt lat="43.16645" lon="6.52032">
        <ele>75.5</ele>
        <time>2024-02-04T08:24:25Z</time>
      </trkpt>
      <trkpt lat="43.16645" lon="6.5203">
        <ele>75.2</ele>
        <time>2024-02-04T08:24:26Z</time>
      </trkpt>
      <trkpt lat="43.16644" lon="6.52029">
        <ele>74.9</ele>
        <time>2024-02-04T08:24:27Z</time>
      </trkpt>
      <trkpt lat="43.16643" lon="6.52028">
        <ele>74.7</ele>
        <time>2024-02-04T08:24:28Z</time>
      </trkpt>
      <trkpt lat="43.16642" lon="6.52027">
        <ele>74.5</ele>
        <time>2024-02-04T08:24:29Z</time>
      </trkpt>
      <trkpt lat="43.16642" lon="6.52025">
        <ele>74.4</ele>
        <time>2024-02-04T08:24:30Z</time>
      </trkpt>
      <trkpt lat="43.16643" lon="6.52023">
        <ele>74.2</ele>
        <time>2024-02-04T08:24:31Z</time>
      </trkpt>
      <trkpt lat="43.16643" lon="6.52021">
        <ele>74.1</ele>
        <time>2024-02-04T08:24:32Z</time>
      </trkpt>
      <trkpt lat="43.16642" lon="6.5202">
        <ele>73.9</ele>
        <time>2024-02-04T08:24:33Z</time>
      </trkpt>
      <trkpt lat="43.1664" lon="6.52018">
        <ele>73.7</ele>
        <time>2024-02-04T08:24:34Z</time>
      </trkpt>
      <trkpt lat="43.16639" lon="6.52017">
        <ele>73.5</ele>
        <time>2024-02-04T08:24:35Z</time>
      </trkpt>
      <trkpt lat="43.16638" lon="6.52016">
        <ele>73.2</ele>
        <time>2024-02-04T08:24:36Z</time>
      </trkpt>
      <trkpt lat="43.16637" lon="6.52014">
        <ele>72.9</ele>
        <time>2024-02-04T08:24:37Z</time>
      </trkpt>
      <trkpt lat="43.16637" lon="6.52013">
        <ele>72.7</ele>
        <time>2024-02-04T08:24:38Z</time>
      </trkpt>
      <trkpt lat="43.16636" lon="6.52012">
        <ele>72.5</ele>
        <time>2024-02-04T08:24:39Z</time>
      </trkpt>
      <trkpt lat="43.16635" lon="6.52011">
        <ele>72.3</ele>
        <time>2024-02-04T08:24:40Z</time>
      </trkpt>
      <trkpt lat="43.16632" lon="6.52011">
        <ele>72</ele>
        <time>2024-02-04T08:24:41Z</time>
      </trkpt>
      <trkpt lat="43.16632" lon="6.52011">
        <ele>71.9</ele>
        <time>2024-02-04T08:24:42Z</time>
      </trkpt>
      <trkpt lat="43.16631" lon="6.52011">
        <ele>71.9</ele>
        <time>2024-02-04T08:24:43Z</time>
      </trkpt>
      <trkpt lat="43.16631" lon="6.5201">
        <ele>71.8</ele>
        <time>2024-02-04T08:24:44Z</time>
      </trkpt>
      <trkpt lat="43.1663" lon="6.52009">
        <ele>71.6</ele>
        <time>2024-02-04T08:24:45Z</time>
      </trkpt>
      <trkpt lat="43.16629" lon="6.52008">
        <ele>71.4</ele>
        <time>2024-02-04T08:24:46Z</time>
      </trkpt>
      <trkpt lat="43.16629" lon="6.52007">
        <ele>71.2</ele>
        <time>2024-02-04T08:24:47Z</time>
      </trkpt>
      <trkpt lat="43.16627" lon="6.52006">
        <ele>71</ele>
        <time>2024-02-04T08:24:48Z</time>
      </trkpt>
      <trkpt lat="43.16627" lon="6.52005">
        <ele>70.8</ele>
        <time>2024-02-04T08:24:49Z</time>
      </trkpt>
      <trkpt lat="43.16625" lon="6.52004">
        <ele>70.5</ele>
        <time>2024-02-04T08:24:50Z</time>
      </trkpt>
      <trkpt lat="43.16625" lon="6.52002">
        <ele>70.2</ele>
        <time>2024-02-04T08:24:51Z</time>
      </trkpt>
      <trkpt lat="43.16623" lon="6.52002">
        <ele>69.9</ele>
        <time>2024-02-04T08:24:52Z</time>
      </trkpt>
      <trkpt lat="43.16623" lon="6.52001">
        <ele>69.7</ele>
        <time>2024-02-04T08:24:53Z</time>
      </trkpt>
      <trkpt lat="43.16622" lon="6.52">
        <ele>69.4</ele>
        <time>2024-02-04T08:24:54Z</time>
      </trkpt>
      <trkpt lat="43.16621" lon="6.52">
        <ele>69.2</ele>
        <time>2024-02-04T08:24:55Z</time>
      </trkpt>
      <trkpt lat="43.16622" lon="6.51999">
        <ele>68.9</ele>
        <time>2024-02-04T08:24:56Z</time>
      </trkpt>
      <trkpt lat="43.16622" lon="6.51998">
        <ele>68.7</ele>
        <time>2024-02-04T08:24:57Z</time>
      </trkpt>
      <trkpt lat="43.16621" lon="6.51997">
        <ele>68.5</ele>
        <time>2024-02-04T08:24:58Z</time>
      </trkpt>
      <trkpt lat="43.16621" lon="6.51996">
        <ele>68.2</ele>
        <time>2024-02-04T08:24:59Z</time>
      </trkpt>
      <trkpt lat="43.16621" lon="6.51995">
        <ele>68</ele>
        <time>2024-02-04T08:25:00Z</time>
      </trkpt>
      <trkpt lat="43.16621" lon="6.51993">
        <ele>67.7</ele>
        <time>2024-02-04T08:25:01Z</time>
      </trkpt>
      <trkpt lat="43.16621" lon="6.51991">
        <ele>67.4</ele>
        <time>2024-02-04T08:25:02Z</time>
      </trkpt>
      <trkpt lat="43.1662" lon="6.5199">
        <ele>67</ele>
        <time>2024-02-04T08:25:03Z</time>
      </trkpt>
      <trkpt lat="43.1662" lon="6.5199">
        <ele>66.7</ele>
        <time>2024-02-04T08:25:04Z</time>
      </trkpt>
      <trkpt lat="43.16618" lon="6.51989">
        <ele>66.3</ele>
        <time>2024-02-04T08:25:05Z</time>
      </trkpt>
      <trkpt lat="43.16617" lon="6.51988">
        <ele>66.1</ele>
        <time>2024-02-04T08:25:06Z</time>
      </trkpt>
      <trkpt lat="43.16617" lon="6.51987">
        <ele>65.9</ele>
        <time>2024-02-04T08:25:07Z</time>
      </trkpt>
      <trkpt lat="43.16616" lon="6.51986">
        <ele>65.7</ele>
        <time>2024-02-04T08:25:08Z</time>
      </trkpt>
      <trkpt lat="43.16616" lon="6.51984">
        <ele>65.5</ele>
        <time>2024-02-04T08:25:09Z</time>
      </trkpt>
      <trkpt lat="43.16615" lon="6.51983">
        <ele>65.2</ele>
        <time>2024-02-04T08:25:10Z</time>
      </trkpt>
      <trkpt lat="43.16614" lon="6.51981">
        <ele>65</ele>
        <time>2024-02-04T08:25:11Z</time>
      </trkpt>
      <trkpt lat="43.16614" lon="6.51979">
        <ele>64.8</ele>
        <time>2024-02-04T08:25:12Z</time>
      </trkpt>
      <trkpt lat="43.16614" lon="6.51978">
        <ele>64.6</ele>
        <time>2024-02-04T08:25:13Z</time>
      </trkpt>
      <trkpt lat="43.16613" lon="6.51977">
        <ele>64.4</ele>
        <time>2024-02-04T08:25:14Z</time>
      </trkpt>
      <trkpt lat="43.16612" lon="6.51976">
        <ele>64.2</ele>
        <time>2024-02-04T08:25:15Z</time>
      </trkpt>
      <trkpt lat="43.16611" lon="6.51975">
        <ele>64</ele>
        <time>2024-02-04T08:25:16Z</time>
      </trkpt>
      <trkpt lat="43.16612" lon="6.51974">
        <ele>63.7</ele>
        <time>2024-02-04T08:25:17Z</time>
      </trkpt>
      <trkpt lat="43.16611" lon="6.51972">
        <ele>63.6</ele>
        <time>2024-02-04T08:25:18Z</time>
      </trkpt>
      <trkpt lat="43.1661" lon="6.51971">
        <ele>63.4</ele>
        <time>2024-02-04T08:25:19Z</time>
      </trkpt>
      <trkpt lat="43.16609" lon="6.5197">
        <ele>63.2</ele>
        <time>2024-02-04T08:25:20Z</time>
      </trkpt>
      <trkpt lat="43.16609" lon="6.51969">
        <ele>63.1</ele>
        <time>2024-02-04T08:25:21Z</time>
      </trkpt>
      <trkpt lat="43.16607" lon="6.51969">
        <ele>62.9</ele>
        <time>2024-02-04T08:25:22Z</time>
      </trkpt>
      <trkpt lat="43.16607" lon="6.51968">
        <ele>62.7</ele>
        <time>2024-02-04T08:25:23Z</time>
      </trkpt>
      <trkpt lat="43.16607" lon="6.51967">
        <ele>62.6</ele>
        <time>2024-02-04T08:25:24Z</time>
      </trkpt>
      <trkpt lat="43.16606" lon="6.51966">
        <ele>62.4</ele>
        <time>2024-02-04T08:25:25Z</time>
      </trkpt>
      <trkpt lat="43.16605" lon="6.51965">
        <ele>62.4</ele>
        <time>2024-02-04T08:25:26Z</time>
      </trkpt>
      <trkpt lat="43.16603" lon="6.51964">
        <ele>62.3</ele>
        <time>2024-02-04T08:25:27Z</time>
      </trkpt>
      <trkpt lat="43.16603" lon="6.51963">
        <ele>62.2</ele>
        <time>2024-02-04T08:25:28Z</time>
      </trkpt>
      <trkpt lat="43.16601" lon="6.51963">
        <ele>62.1</ele>
        <time>2024-02-04T08:25:29Z</time>
      </trkpt>
      <trkpt lat="43.166" lon="6.51963">
        <ele>61.9</ele>
        <time>2024-02-04T08:25:30Z</time>
      </trkpt>
      <trkpt lat="43.166" lon="6.51961">
        <ele>61.7</ele>
        <time>2024-02-04T08:25:31Z</time>
      </trkpt>
      <trkpt lat="43.16597" lon="6.51961">
        <ele>61.6</ele>
        <time>2024-02-04T08:25:32Z</time>
      </trkpt>
      <trkpt lat="43.16592" lon="6.51961">
        <ele>61.4</ele>
        <time>2024-02-04T08:25:33Z</time>
      </trkpt>
      <trkpt lat="43.16591" lon="6.5196">
        <ele>61.2</ele>
        <time>2024-02-04T08:25:34Z</time>
      </trkpt>
      <trkpt lat="43.16587" lon="6.5196">
        <ele>61.1</ele>
        <time>2024-02-04T08:25:36Z</time>
      </trkpt>
      <trkpt lat="43.16586" lon="6.5196">
        <ele>61.1</ele>
        <time>2024-02-04T08:25:37Z</time>
      </trkpt>
      <trkpt lat="43.16583" lon="6.5196">
        <ele>61</ele>
        <time>2024-02-04T08:25:38Z</time>
      </trkpt>
      <trkpt lat="43.16583" lon="6.51959">
        <ele>61</ele>
        <time>2024-02-04T08:25:39Z</time>
      </trkpt>
      <trkpt lat="43.16582" lon="6.51959">
        <ele>60.9</ele>
        <time>2024-02-04T08:25:40Z</time>
      </trkpt>
      <trkpt lat="43.16581" lon="6.51958">
        <ele>60.8</ele>
        <time>2024-02-04T08:25:41Z</time>
      </trkpt>
      <trkpt lat="43.1658" lon="6.51958">
        <ele>60.7</ele>
        <time>2024-02-04T08:25:42Z</time>
      </trkpt>
      <trkpt lat="43.16579" lon="6.51957">
        <ele>60.7</ele>
        <time>2024-02-04T08:25:43Z</time>
      </trkpt>
      <trkpt lat="43.1658" lon="6.51956">
        <ele>60.6</ele>
        <time>2024-02-04T08:25:44Z</time>
      </trkpt>
      <trkpt lat="43.16581" lon="6.51956">
        <ele>60.5</ele>
        <time>2024-02-04T08:25:45Z</time>
      </trkpt>
      <trkpt lat="43.1658" lon="6.51956">
        <ele>60.4</ele>
        <time>2024-02-04T08:25:46Z</time>
      </trkpt>
      <trkpt lat="43.16579" lon="6.51955">
        <ele>60.4</ele>
        <time>2024-02-04T08:25:47Z</time>
      </trkpt>
      <trkpt lat="43.1658" lon="6.51954">
        <ele>60.5</ele>
        <time>2024-02-04T08:25:48Z</time>
      </trkpt>
      <trkpt lat="43.16579" lon="6.51954">
        <ele>60.4</ele>
        <time>2024-02-04T08:25:49Z</time>
      </trkpt>
      <trkpt lat="43.16578" lon="6.51954">
        <ele>60.4</ele>
        <time>2024-02-04T08:25:50Z</time>
      </trkpt>
      <trkpt lat="43.16577" lon="6.51954">
        <ele>60.4</ele>
        <time>2024-02-04T08:25:51Z</time>
      </trkpt>
      <trkpt lat="43.16576" lon="6.51954">
        <ele>60.4</ele>
        <time>2024-02-04T08:25:52Z</time>
      </trkpt>
      <trkpt lat="43.16576" lon="6.51954">
        <ele>60.4</ele>
        <time>2024-02-04T08:25:53Z</time>
      </trkpt>
      <trkpt lat="43.16576" lon="6.51954">
        <ele>60.3</ele>
        <time>2024-02-04T08:25:54Z</time>
      </trkpt>
      <trkpt lat="43.16576" lon="6.51953">
        <ele>60.4</ele>
        <time>2024-02-04T08:25:55Z</time>
      </trkpt>
      <trkpt lat="43.16577" lon="6.51952">
        <ele>60.4</ele>
        <time>2024-02-04T08:25:56Z</time>
      </trkpt>
      <trkpt lat="43.16579" lon="6.51952">
        <ele>60.3</ele>
        <time>2024-02-04T08:25:57Z</time>
      </trkpt>
      <trkpt lat="43.16577" lon="6.51953">
        <ele>60.3</ele>
        <time>2024-02-04T08:25:58Z</time>
      </trkpt>
      <trkpt lat="43.16576" lon="6.51953">
        <ele>60.3</ele>
        <time>2024-02-04T08:25:59Z</time>
      </trkpt>
      <trkpt lat="43.16575" lon="6.51953">
        <ele>60.3</ele>
        <time>2024-02-04T08:26:00Z</time>
      </trkpt>
      <trkpt lat="43.16572" lon="6.51954">
        <ele>60.3</ele>
        <time>2024-02-04T08:26:01Z</time>
      </trkpt>
      <trkpt lat="43.1657" lon="6.51954">
        <ele>60.4</ele>
        <time>2024-02-04T08:26:02Z</time>
      </trkpt>
      <trkpt lat="43.16569" lon="6.51954">
        <ele>60.4</ele>
        <time>2024-02-04T08:26:03Z</time>
      </trkpt>
      <trkpt lat="43.16568" lon="6.51954">
        <ele>60.5</ele>
        <time>2024-02-04T08:26:04Z</time>
      </trkpt>
      <trkpt lat="43.16567" lon="6.51955">
        <ele>60.4</ele>
        <time>2024-02-04T08:26:05Z</time>
      </trkpt>
      <trkpt lat="43.16567" lon="6.51955">
        <ele>60.4</ele>
        <time>2024-02-04T08:26:06Z</time>
      </trkpt>
      <trkpt lat="43.16566" lon="6.51955">
        <ele>60.3</ele>
        <time>2024-02-04T08:26:07Z</time>
      </trkpt>
      <trkpt lat="43.16566" lon="6.51955">
        <ele>60.3</ele>
        <time>2024-02-04T08:26:08Z</time>
      </trkpt>
      <trkpt lat="43.16565" lon="6.51955">
        <ele>60.3</ele>
        <time>2024-02-04T08:26:09Z</time>
      </trkpt>
      <trkpt lat="43.16564" lon="6.51954">
        <ele>60.2</ele>
        <time>2024-02-04T08:26:10Z</time>
      </trkpt>
      <trkpt lat="43.16564" lon="6.51953">
        <ele>60.2</ele>
        <time>2024-02-04T08:26:11Z</time>
      </trkpt>
      <trkpt lat="43.16564" lon="6.51952">
        <ele>60.2</ele>
        <time>2024-02-04T08:26:12Z</time>
      </trkpt>
      <trkpt lat="43.16564" lon="6.51952">
        <ele>60.3</ele>
        <time>2024-02-04T08:26:13Z</time>
      </trkpt>
      <trkpt lat="43.16564" lon="6.5195">
        <ele>60.3</ele>
        <time>2024-02-04T08:26:14Z</time>
      </trkpt>
      <trkpt lat="43.16564" lon="6.51949">
        <ele>60.2</ele>
        <time>2024-02-04T08:26:15Z</time>
      </trkpt>
      <trkpt lat="43.16564" lon="6.51947">
        <ele>60.2</ele>
        <time>2024-02-04T08:26:16Z</time>
      </trkpt>
      <trkpt lat="43.16564" lon="6.51946">
        <ele>60.3</ele>
        <time>2024-02-04T08:26:17Z</time>
      </trkpt>
      <trkpt lat="43.16565" lon="6.51944">
        <ele>60.3</ele>
        <time>2024-02-04T08:26:18Z</time>
      </trkpt>
      <trkpt lat="43.16565" lon="6.51943">
        <ele>60.4</ele>
        <time>2024-02-04T08:26:19Z</time>
      </trkpt>
      <trkpt lat="43.16566" lon="6.51941">
        <ele>60.4</ele>
        <time>2024-02-04T08:26:20Z</time>
      </trkpt>
      <trkpt lat="43.16565" lon="6.5194">
        <ele>60.4</ele>
        <time>2024-02-04T08:26:21Z</time>
      </trkpt>
      <trkpt lat="43.16565" lon="6.51938">
        <ele>60.3</ele>
        <time>2024-02-04T08:26:22Z</time>
      </trkpt>
      <trkpt lat="43.16565" lon="6.51936">
        <ele>60.4</ele>
        <time>2024-02-04T08:26:23Z</time>
      </trkpt>
      <trkpt lat="43.16565" lon="6.51934">
        <ele>60.3</ele>
        <time>2024-02-04T08:26:24Z</time>
      </trkpt>
      <trkpt lat="43.16565" lon="6.51933">
        <ele>60.3</ele>
        <time>2024-02-04T08:26:25Z</time>
      </trkpt>
      <trkpt lat="43.16565" lon="6.51932">
        <ele>60.3</ele>
        <time>2024-02-04T08:26:26Z</time>
      </trkpt>
      <trkpt lat="43.16565" lon="6.5193">
        <ele>60.4</ele>
        <time>2024-02-04T08:26:27Z</time>
      </trkpt>
      <trkpt lat="43.16566" lon="6.51928">
        <ele>60.4</ele>
        <time>2024-02-04T08:26:28Z</time>
      </trkpt>
      <trkpt lat="43.16566" lon="6.51926">
        <ele>60.5</ele>
        <time>2024-02-04T08:26:29Z</time>
      </trkpt>
      <trkpt lat="43.16565" lon="6.51924">
        <ele>60.4</ele>
        <time>2024-02-04T08:26:30Z</time>
      </trkpt>
      <trkpt lat="43.16564" lon="6.51923">
        <ele>60.4</ele>
        <time>2024-02-04T08:26:31Z</time>
      </trkpt>
      <trkpt lat="43.16563" lon="6.51922">
        <ele>60.4</ele>
        <time>2024-02-04T08:26:32Z</time>
      </trkpt>
      <trkpt lat="43.16563" lon="6.51921">
        <ele>60.3</ele>
        <time>2024-02-04T08:26:33Z</time>
      </trkpt>
      <trkpt lat="43.16562" lon="6.51919">
        <ele>60.4</ele>
        <time>2024-02-04T08:26:34Z</time>
      </trkpt>
      <trkpt lat="43.16561" lon="6.51918">
        <ele>60.4</ele>
        <time>2024-02-04T08:26:35Z</time>
      </trkpt>
      <trkpt lat="43.16561" lon="6.51917">
        <ele>60.4</ele>
        <time>2024-02-04T08:26:36Z</time>
      </trkpt>
      <trkpt lat="43.16561" lon="6.51916">
        <ele>60.4</ele>
        <time>2024-02-04T08:26:37Z</time>
      </trkpt>
      <trkpt lat="43.1656" lon="6.51914">
        <ele>60.4</ele>
        <time>2024-02-04T08:26:38Z</time>
      </trkpt>
      <trkpt lat="43.1656" lon="6.51913">
        <ele>60.4</ele>
        <time>2024-02-04T08:26:39Z</time>
      </trkpt>
      <trkpt lat="43.1656" lon="6.51911">
        <ele>60.4</ele>
        <time>2024-02-04T08:26:40Z</time>
      </trkpt>
      <trkpt lat="43.16559" lon="6.51909">
        <ele>60.4</ele>
        <time>2024-02-04T08:26:41Z</time>
      </trkpt>
      <trkpt lat="43.16558" lon="6.51908">
        <ele>60.3</ele>
        <time>2024-02-04T08:26:42Z</time>
      </trkpt>
      <trkpt lat="43.16558" lon="6.51907">
        <ele>60.3</ele>
        <time>2024-02-04T08:26:43Z</time>
      </trkpt>
      <trkpt lat="43.16558" lon="6.51905">
        <ele>60.3</ele>
        <time>2024-02-04T08:26:44Z</time>
      </trkpt>
      <trkpt lat="43.16558" lon="6.51904">
        <ele>60.3</ele>
        <time>2024-02-04T08:26:45Z</time>
      </trkpt>
      <trkpt lat="43.16556" lon="6.51903">
        <ele>60.4</ele>
        <time>2024-02-04T08:26:46Z</time>
      </trkpt>
      <trkpt lat="43.16556" lon="6.51902">
        <ele>60.4</ele>
        <time>2024-02-04T08:26:47Z</time>
      </trkpt>
      <trkpt lat="43.16556" lon="6.519">
        <ele>60.5</ele>
        <time>2024-02-04T08:26:48Z</time>
      </trkpt>
      <trkpt lat="43.16555" lon="6.51898">
        <ele>60.5</ele>
        <time>2024-02-04T08:26:49Z</time>
      </trkpt>
      <trkpt lat="43.16555" lon="6.51897">
        <ele>60.6</ele>
        <time>2024-02-04T08:26:50Z</time>
      </trkpt>
      <trkpt lat="43.16554" lon="6.51895">
        <ele>60.6</ele>
        <time>2024-02-04T08:26:51Z</time>
      </trkpt>
      <trkpt lat="43.16554" lon="6.51894">
        <ele>60.6</ele>
        <time>2024-02-04T08:26:52Z</time>
      </trkpt>
      <trkpt lat="43.16554" lon="6.51892">
        <ele>60.6</ele>
        <time>2024-02-04T08:26:53Z</time>
      </trkpt>
      <trkpt lat="43.16553" lon="6.51891">
        <ele>60.7</ele>
        <time>2024-02-04T08:26:54Z</time>
      </trkpt>
      <trkpt lat="43.16553" lon="6.51889">
        <ele>60.6</ele>
        <time>2024-02-04T08:26:55Z</time>
      </trkpt>
      <trkpt lat="43.16552" lon="6.51888">
        <ele>60.6</ele>
        <time>2024-02-04T08:26:56Z</time>
      </trkpt>
      <trkpt lat="43.16552" lon="6.51886">
        <ele>60.6</ele>
        <time>2024-02-04T08:26:57Z</time>
      </trkpt>
      <trkpt lat="43.16552" lon="6.51885">
        <ele>60.6</ele>
        <time>2024-02-04T08:26:58Z</time>
      </trkpt>
      <trkpt lat="43.16551" lon="6.51884">
        <ele>60.6</ele>
        <time>2024-02-04T08:26:59Z</time>
      </trkpt>
      <trkpt lat="43.16551" lon="6.51882">
        <ele>60.5</ele>
        <time>2024-02-04T08:27:00Z</time>
      </trkpt>
      <trkpt lat="43.1655" lon="6.51881">
        <ele>60.5</ele>
        <time>2024-02-04T08:27:01Z</time>
      </trkpt>
      <trkpt lat="43.1655" lon="6.5188">
        <ele>60.5</ele>
        <time>2024-02-04T08:27:02Z</time>
      </trkpt>
      <trkpt lat="43.16549" lon="6.5188">
        <ele>60.4</ele>
        <time>2024-02-04T08:27:03Z</time>
      </trkpt>
      <trkpt lat="43.16549" lon="6.51879">
        <ele>60.3</ele>
        <time>2024-02-04T08:27:04Z</time>
      </trkpt>
      <trkpt lat="43.16549" lon="6.51879">
        <ele>60.2</ele>
        <time>2024-02-04T08:27:05Z</time>
      </trkpt>
      <trkpt lat="43.16549" lon="6.51879">
        <ele>60.2</ele>
        <time>2024-02-04T08:27:06Z</time>
      </trkpt>
      <trkpt lat="43.16548" lon="6.51879">
        <ele>60.2</ele>
        <time>2024-02-04T08:27:07Z</time>
      </trkpt>
      <trkpt lat="43.16548" lon="6.51879">
        <ele>60.4</ele>
        <time>2024-02-04T08:27:09Z</time>
      </trkpt>
      <trkpt lat="43.16549" lon="6.51876">
        <ele>60.5</ele>
        <time>2024-02-04T08:27:10Z</time>
      </trkpt>
      <trkpt lat="43.16549" lon="6.51875">
        <ele>60.5</ele>
        <time>2024-02-04T08:27:11Z</time>
      </trkpt>
      <trkpt lat="43.16549" lon="6.51875">
        <ele>60.5</ele>
        <time>2024-02-04T08:27:12Z</time>
      </trkpt>
      <trkpt lat="43.16549" lon="6.51876">
        <ele>60.5</ele>
        <time>2024-02-04T08:27:13Z</time>
      </trkpt>
      <trkpt lat="43.16549" lon="6.51876">
        <ele>60.4</ele>
        <time>2024-02-04T08:27:14Z</time>
      </trkpt>
      <trkpt lat="43.16549" lon="6.51877">
        <ele>60.4</ele>
        <time>2024-02-04T08:27:15Z</time>
      </trkpt>
      <trkpt lat="43.16549" lon="6.51876">
        <ele>60.4</ele>
        <time>2024-02-04T08:27:16Z</time>
      </trkpt>
      <trkpt lat="43.16549" lon="6.51876">
        <ele>60.4</ele>
        <time>2024-02-04T08:27:17Z</time>
      </trkpt>
      <trkpt lat="43.16549" lon="6.51876">
        <ele>60.4</ele>
        <time>2024-02-04T08:27:18Z</time>
      </trkpt>
      <trkpt lat="43.1655" lon="6.51876">
        <ele>60.3</ele>
        <time>2024-02-04T08:27:19Z</time>
      </trkpt>
      <trkpt lat="43.1655" lon="6.51876">
        <ele>60.3</ele>
        <time>2024-02-04T08:27:20Z</time>
      </trkpt>
      <trkpt lat="43.16551" lon="6.51876">
        <ele>60.3</ele>
        <time>2024-02-04T08:27:21Z</time>
      </trkpt>
      <trkpt lat="43.16551" lon="6.51876">
        <ele>60.4</ele>
        <time>2024-02-04T08:27:22Z</time>
      </trkpt>
      <trkpt lat="43.16551" lon="6.51876">
        <ele>60.4</ele>
        <time>2024-02-04T08:27:23Z</time>
      </trkpt>
      <trkpt lat="43.16552" lon="6.51876">
        <ele>60.4</ele>
        <time>2024-02-04T08:27:24Z</time>
      </trkpt>
      <trkpt lat="43.16552" lon="6.51876">
        <ele>60.4</ele>
        <time>2024-02-04T08:27:25Z</time>
      </trkpt>
      <trkpt lat="43.16552" lon="6.51876">
        <ele>60.4</ele>
        <time>2024-02-04T08:27:26Z</time>
      </trkpt>
      <trkpt lat="43.16552" lon="6.51876">
        <ele>60.4</ele>
        <time>2024-02-04T08:27:27Z</time>
      </trkpt>
      <trkpt lat="43.16552" lon="6.51876">
        <ele>60.5</ele>
        <time>2024-02-04T08:27:28Z</time>
      </trkpt>
      <trkpt lat="43.16552" lon="6.51876">
        <ele>60.4</ele>
        <time>2024-02-04T08:27:29Z</time>
      </trkpt>
      <trkpt lat="43.16552" lon="6.51876">
        <ele>60.4</ele>
        <time>2024-02-04T08:27:30Z</time>
      </trkpt>
      <trkpt lat="43.16552" lon="6.51876">
        <ele>60.4</ele>
        <time>2024-02-04T08:27:31Z</time>
      </trkpt>
      <trkpt lat="43.16551" lon="6.51877">
        <ele>60.4</ele>
        <time>2024-02-04T08:27:32Z</time>
      </trkpt>
      <trkpt lat="43.16552" lon="6.51876">
        <ele>60.4</ele>
        <time>2024-02-04T08:27:33Z</time>
      </trkpt>
      <trkpt lat="43.16552" lon="6.51876">
        <ele>60.4</ele>
        <time>2024-02-04T08:27:34Z</time>
      </trkpt>
      <trkpt lat="43.16552" lon="6.51877">
        <ele>60.4</ele>
        <time>2024-02-04T08:27:35Z</time>
      </trkpt>
      <trkpt lat="43.16552" lon="6.51876">
        <ele>60.4</ele>
        <time>2024-02-04T08:27:36Z</time>
      </trkpt>
      <trkpt lat="43.16552" lon="6.51876">
        <ele>60.2</ele>
        <time>2024-02-04T08:27:37Z</time>
      </trkpt>
      <trkpt lat="43.16552" lon="6.51876">
        <ele>60.2</ele>
        <time>2024-02-04T08:27:38Z</time>
      </trkpt>
      <trkpt lat="43.16552" lon="6.51876">
        <ele>60.1</ele>
        <time>2024-02-04T08:27:39Z</time>
      </trkpt>
      <trkpt lat="43.16552" lon="6.51876">
        <ele>60.1</ele>
        <time>2024-02-04T08:27:40Z</time>
      </trkpt>
      <trkpt lat="43.16552" lon="6.51876">
        <ele>60</ele>
        <time>2024-02-04T08:27:41Z</time>
      </trkpt>
      <trkpt lat="43.16551" lon="6.51877">
        <ele>60</ele>
        <time>2024-02-04T08:27:42Z</time>
      </trkpt>
      <trkpt lat="43.16551" lon="6.51877">
        <ele>59.9</ele>
        <time>2024-02-04T08:27:43Z</time>
      </trkpt>
      <trkpt lat="43.16551" lon="6.51877">
        <ele>59.9</ele>
        <time>2024-02-04T08:27:44Z</time>
      </trkpt>
      <trkpt lat="43.1655" lon="6.51878">
        <ele>59.9</ele>
        <time>2024-02-04T08:27:45Z</time>
      </trkpt>
      <trkpt lat="43.16549" lon="6.51878">
        <ele>59.9</ele>
        <time>2024-02-04T08:27:46Z</time>
      </trkpt>
      <trkpt lat="43.16549" lon="6.51879">
        <ele>59.9</ele>
        <time>2024-02-04T08:27:47Z</time>
      </trkpt>
      <trkpt lat="43.16548" lon="6.51879">
        <ele>59.8</ele>
        <time>2024-02-04T08:27:48Z</time>
      </trkpt>
      <trkpt lat="43.16547" lon="6.5188">
        <ele>59.8</ele>
        <time>2024-02-04T08:27:49Z</time>
      </trkpt>
      <trkpt lat="43.16546" lon="6.51881">
        <ele>59.7</ele>
        <time>2024-02-04T08:27:50Z</time>
      </trkpt>
      <trkpt lat="43.16545" lon="6.51882">
        <ele>59.7</ele>
        <time>2024-02-04T08:27:51Z</time>
      </trkpt>
      <trkpt lat="43.16544" lon="6.51882">
        <ele>59.7</ele>
        <time>2024-02-04T08:27:52Z</time>
      </trkpt>
      <trkpt lat="43.16543" lon="6.51882">
        <ele>59.6</ele>
        <time>2024-02-04T08:27:53Z</time>
      </trkpt>
      <trkpt lat="43.16542" lon="6.51883">
        <ele>59.6</ele>
        <time>2024-02-04T08:27:54Z</time>
      </trkpt>
      <trkpt lat="43.1654" lon="6.51883">
        <ele>59.6</ele>
        <time>2024-02-04T08:27:55Z</time>
      </trkpt>
      <trkpt lat="43.16538" lon="6.51884">
        <ele>59.7</ele>
        <time>2024-02-04T08:27:56Z</time>
      </trkpt>
      <trkpt lat="43.16537" lon="6.51885">
        <ele>59.8</ele>
        <time>2024-02-04T08:27:57Z</time>
      </trkpt>
      <trkpt lat="43.16536" lon="6.51886">
        <ele>59.8</ele>
        <time>2024-02-04T08:27:58Z</time>
      </trkpt>
      <trkpt lat="43.16535" lon="6.51888">
        <ele>59.8</ele>
        <time>2024-02-04T08:27:59Z</time>
      </trkpt>
      <trkpt lat="43.16535" lon="6.51888">
        <ele>59.8</ele>
        <time>2024-02-04T08:28:00Z</time>
      </trkpt>
      <trkpt lat="43.16535" lon="6.5189">
        <ele>59.9</ele>
        <time>2024-02-04T08:28:01Z</time>
      </trkpt>
      <trkpt lat="43.16533" lon="6.51891">
        <ele>59.9</ele>
        <time>2024-02-04T08:28:02Z</time>
      </trkpt>
      <trkpt lat="43.16533" lon="6.51893">
        <ele>60</ele>
        <time>2024-02-04T08:28:03Z</time>
      </trkpt>
      <trkpt lat="43.16532" lon="6.51895">
        <ele>60</ele>
        <time>2024-02-04T08:28:04Z</time>
      </trkpt>
      <trkpt lat="43.16532" lon="6.51896">
        <ele>60.1</ele>
        <time>2024-02-04T08:28:05Z</time>
      </trkpt>
      <trkpt lat="43.16532" lon="6.51898">
        <ele>60.1</ele>
        <time>2024-02-04T08:28:06Z</time>
      </trkpt>
      <trkpt lat="43.16532" lon="6.51899">
        <ele>60.3</ele>
        <time>2024-02-04T08:28:07Z</time>
      </trkpt>
      <trkpt lat="43.16533" lon="6.519">
        <ele>60.5</ele>
        <time>2024-02-04T08:28:08Z</time>
      </trkpt>
      <trkpt lat="43.16533" lon="6.51901">
        <ele>60.7</ele>
        <time>2024-02-04T08:28:09Z</time>
      </trkpt>
      <trkpt lat="43.16533" lon="6.51902">
        <ele>60.9</ele>
        <time>2024-02-04T08:28:10Z</time>
      </trkpt>
      <trkpt lat="43.16532" lon="6.51903">
        <ele>61</ele>
        <time>2024-02-04T08:28:11Z</time>
      </trkpt>
      <trkpt lat="43.16532" lon="6.51905">
        <ele>61.2</ele>
        <time>2024-02-04T08:28:12Z</time>
      </trkpt>
      <trkpt lat="43.16531" lon="6.51906">
        <ele>61.4</ele>
        <time>2024-02-04T08:28:13Z</time>
      </trkpt>
      <trkpt lat="43.16531" lon="6.51908">
        <ele>61.6</ele>
        <time>2024-02-04T08:28:14Z</time>
      </trkpt>
      <trkpt lat="43.16531" lon="6.51909">
        <ele>61.7</ele>
        <time>2024-02-04T08:28:15Z</time>
      </trkpt>
      <trkpt lat="43.16531" lon="6.5191">
        <ele>61.8</ele>
        <time>2024-02-04T08:28:16Z</time>
      </trkpt>
      <trkpt lat="43.16531" lon="6.51911">
        <ele>61.9</ele>
        <time>2024-02-04T08:28:17Z</time>
      </trkpt>
      <trkpt lat="43.1653" lon="6.51912">
        <ele>62</ele>
        <time>2024-02-04T08:28:18Z</time>
      </trkpt>
      <trkpt lat="43.16531" lon="6.51913">
        <ele>62.3</ele>
        <time>2024-02-04T08:28:19Z</time>
      </trkpt>
      <trkpt lat="43.1653" lon="6.51914">
        <ele>62.4</ele>
        <time>2024-02-04T08:28:20Z</time>
      </trkpt>
      <trkpt lat="43.16529" lon="6.51915">
        <ele>62.5</ele>
        <time>2024-02-04T08:28:21Z</time>
      </trkpt>
      <trkpt lat="43.16528" lon="6.51916">
        <ele>62.7</ele>
        <time>2024-02-04T08:28:22Z</time>
      </trkpt>
      <trkpt lat="43.16528" lon="6.51916">
        <ele>63</ele>
        <time>2024-02-04T08:28:23Z</time>
      </trkpt>
      <trkpt lat="43.16527" lon="6.51917">
        <ele>63.2</ele>
        <time>2024-02-04T08:28:24Z</time>
      </trkpt>
      <trkpt lat="43.16527" lon="6.51918">
        <ele>63.3</ele>
        <time>2024-02-04T08:28:25Z</time>
      </trkpt>
      <trkpt lat="43.16526" lon="6.51919">
        <ele>63.5</ele>
        <time>2024-02-04T08:28:26Z</time>
      </trkpt>
      <trkpt lat="43.16526" lon="6.5192">
        <ele>63.6</ele>
        <time>2024-02-04T08:28:27Z</time>
      </trkpt>
      <trkpt lat="43.16526" lon="6.51921">
        <ele>63.8</ele>
        <time>2024-02-04T08:28:28Z</time>
      </trkpt>
      <trkpt lat="43.16526" lon="6.51922">
        <ele>63.9</ele>
        <time>2024-02-04T08:28:29Z</time>
      </trkpt>
      <trkpt lat="43.16526" lon="6.51923">
        <ele>64.1</ele>
        <time>2024-02-04T08:28:30Z</time>
      </trkpt>
      <trkpt lat="43.16525" lon="6.51924">
        <ele>64.2</ele>
        <time>2024-02-04T08:28:31Z</time>
      </trkpt>
      <trkpt lat="43.16525" lon="6.51925">
        <ele>64.3</ele>
        <time>2024-02-04T08:28:32Z</time>
      </trkpt>
      <trkpt lat="43.16524" lon="6.51927">
        <ele>64.5</ele>
        <time>2024-02-04T08:28:33Z</time>
      </trkpt>
      <trkpt lat="43.16524" lon="6.51928">
        <ele>64.8</ele>
        <time>2024-02-04T08:28:34Z</time>
      </trkpt>
      <trkpt lat="43.16524" lon="6.51929">
        <ele>65</ele>
        <time>2024-02-04T08:28:35Z</time>
      </trkpt>
      <trkpt lat="43.16525" lon="6.5193">
        <ele>65.2</ele>
        <time>2024-02-04T08:28:36Z</time>
      </trkpt>
      <trkpt lat="43.16526" lon="6.51932">
        <ele>65.5</ele>
        <time>2024-02-04T08:28:37Z</time>
      </trkpt>
      <trkpt lat="43.16526" lon="6.51933">
        <ele>65.7</ele>
        <time>2024-02-04T08:28:38Z</time>
      </trkpt>
      <trkpt lat="43.16525" lon="6.51934">
        <ele>65.8</ele>
        <time>2024-02-04T08:28:39Z</time>
      </trkpt>
      <trkpt lat="43.16525" lon="6.51935">
        <ele>66.1</ele>
        <time>2024-02-04T08:28:40Z</time>
      </trkpt>
      <trkpt lat="43.16525" lon="6.51936">
        <ele>66.3</ele>
        <time>2024-02-04T08:28:41Z</time>
      </trkpt>
      <trkpt lat="43.16525" lon="6.51937">
        <ele>66.5</ele>
        <time>2024-02-04T08:28:42Z</time>
      </trkpt>
      <trkpt lat="43.16526" lon="6.51938">
        <ele>66.7</ele>
        <time>2024-02-04T08:28:43Z</time>
      </trkpt>
      <trkpt lat="43.16525" lon="6.51939">
        <ele>66.8</ele>
        <time>2024-02-04T08:28:44Z</time>
      </trkpt>
      <trkpt lat="43.16525" lon="6.5194">
        <ele>67</ele>
        <time>2024-02-04T08:28:45Z</time>
      </trkpt>
      <trkpt lat="43.16525" lon="6.51941">
        <ele>67.3</ele>
        <time>2024-02-04T08:28:46Z</time>
      </trkpt>
      <trkpt lat="43.16525" lon="6.51942">
        <ele>67.5</ele>
        <time>2024-02-04T08:28:47Z</time>
      </trkpt>
      <trkpt lat="43.16524" lon="6.51943">
        <ele>67.7</ele>
        <time>2024-02-04T08:28:48Z</time>
      </trkpt>
      <trkpt lat="43.16523" lon="6.51944">
        <ele>67.9</ele>
        <time>2024-02-04T08:28:49Z</time>
      </trkpt>
      <trkpt lat="43.16522" lon="6.51944">
        <ele>68</ele>
        <time>2024-02-04T08:28:50Z</time>
      </trkpt>
      <trkpt lat="43.16521" lon="6.51944">
        <ele>68.2</ele>
        <time>2024-02-04T08:28:51Z</time>
      </trkpt>
      <trkpt lat="43.1652" lon="6.51945">
        <ele>68.5</ele>
        <time>2024-02-04T08:28:52Z</time>
      </trkpt>
      <trkpt lat="43.16519" lon="6.51946">
        <ele>68.7</ele>
        <time>2024-02-04T08:28:53Z</time>
      </trkpt>
      <trkpt lat="43.16519" lon="6.51947">
        <ele>68.9</ele>
        <time>2024-02-04T08:28:54Z</time>
      </trkpt>
      <trkpt lat="43.1652" lon="6.51947">
        <ele>69</ele>
        <time>2024-02-04T08:28:55Z</time>
      </trkpt>
      <trkpt lat="43.1652" lon="6.51948">
        <ele>69.1</ele>
        <time>2024-02-04T08:28:56Z</time>
      </trkpt>
      <trkpt lat="43.1652" lon="6.51949">
        <ele>69.2</ele>
        <time>2024-02-04T08:28:57Z</time>
      </trkpt>
      <trkpt lat="43.16519" lon="6.51949">
        <ele>69.3</ele>
        <time>2024-02-04T08:28:58Z</time>
      </trkpt>
      <trkpt lat="43.16519" lon="6.5195">
        <ele>69.4</ele>
        <time>2024-02-04T08:28:59Z</time>
      </trkpt>
      <trkpt lat="43.16518" lon="6.5195">
        <ele>69.4</ele>
        <time>2024-02-04T08:29:00Z</time>
      </trkpt>
      <trkpt lat="43.16518" lon="6.5195">
        <ele>69.5</ele>
        <time>2024-02-04T08:29:01Z</time>
      </trkpt>
      <trkpt lat="43.16517" lon="6.51951">
        <ele>69.6</ele>
        <time>2024-02-04T08:29:02Z</time>
      </trkpt>
      <trkpt lat="43.16517" lon="6.51951">
        <ele>69.6</ele>
        <time>2024-02-04T08:29:03Z</time>
      </trkpt>
      <trkpt lat="43.16517" lon="6.51952">
        <ele>69.7</ele>
        <time>2024-02-04T08:29:04Z</time>
      </trkpt>
      <trkpt lat="43.16517" lon="6.51953">
        <ele>69.7</ele>
        <time>2024-02-04T08:29:05Z</time>
      </trkpt>
      <trkpt lat="43.16516" lon="6.51954">
        <ele>69.8</ele>
        <time>2024-02-04T08:29:06Z</time>
      </trkpt>
      <trkpt lat="43.16516" lon="6.51954">
        <ele>69.9</ele>
        <time>2024-02-04T08:29:07Z</time>
      </trkpt>
      <trkpt lat="43.16515" lon="6.51955">
        <ele>69.9</ele>
        <time>2024-02-04T08:29:08Z</time>
      </trkpt>
      <trkpt lat="43.16515" lon="6.51956">
        <ele>70</ele>
        <time>2024-02-04T08:29:09Z</time>
      </trkpt>
      <trkpt lat="43.16515" lon="6.51957">
        <ele>70</ele>
        <time>2024-02-04T08:29:10Z</time>
      </trkpt>
      <trkpt lat="43.16516" lon="6.51958">
        <ele>70</ele>
        <time>2024-02-04T08:29:11Z</time>
      </trkpt>
      <trkpt lat="43.16516" lon="6.51958">
        <ele>70.1</ele>
        <time>2024-02-04T08:29:12Z</time>
      </trkpt>
      <trkpt lat="43.16516" lon="6.51959">
        <ele>70.2</ele>
        <time>2024-02-04T08:29:13Z</time>
      </trkpt>
      <trkpt lat="43.16516" lon="6.51959">
        <ele>70.2</ele>
        <time>2024-02-04T08:29:14Z</time>
      </trkpt>
      <trkpt lat="43.16516" lon="6.51959">
        <ele>70.3</ele>
        <time>2024-02-04T08:29:15Z</time>
      </trkpt>
      <trkpt lat="43.16517" lon="6.5196">
        <ele>70.3</ele>
        <time>2024-02-04T08:29:16Z</time>
      </trkpt>
      <trkpt lat="43.16517" lon="6.5196">
        <ele>70.3</ele>
        <time>2024-02-04T08:29:17Z</time>
      </trkpt>
      <trkpt lat="43.16517" lon="6.5196">
        <ele>70.4</ele>
        <time>2024-02-04T08:29:18Z</time>
      </trkpt>
      <trkpt lat="43.16517" lon="6.51961">
        <ele>70.5</ele>
        <time>2024-02-04T08:29:19Z</time>
      </trkpt>
      <trkpt lat="43.16517" lon="6.51961">
        <ele>70.5</ele>
        <time>2024-02-04T08:29:20Z</time>
      </trkpt>
      <trkpt lat="43.16517" lon="6.51961">
        <ele>70.5</ele>
        <time>2024-02-04T08:29:21Z</time>
      </trkpt>
      <trkpt lat="43.16518" lon="6.51961">
        <ele>70.5</ele>
        <time>2024-02-04T08:29:22Z</time>
      </trkpt>
      <trkpt lat="43.16518" lon="6.51962">
        <ele>70.5</ele>
        <time>2024-02-04T08:29:23Z</time>
      </trkpt>
      <trkpt lat="43.16518" lon="6.51962">
        <ele>70.4</ele>
        <time>2024-02-04T08:29:24Z</time>
      </trkpt>
      <trkpt lat="43.16518" lon="6.51962">
        <ele>70.4</ele>
        <time>2024-02-04T08:29:25Z</time>
      </trkpt>
      <trkpt lat="43.16517" lon="6.51961">
        <ele>70.4</ele>
        <time>2024-02-04T08:29:26Z</time>
      </trkpt>
      <trkpt lat="43.16516" lon="6.51961">
        <ele>70.4</ele>
        <time>2024-02-04T08:29:27Z</time>
      </trkpt>
      <trkpt lat="43.16516" lon="6.51961">
        <ele>70.5</ele>
        <time>2024-02-04T08:29:28Z</time>
      </trkpt>
      <trkpt lat="43.16515" lon="6.51961">
        <ele>70.6</ele>
        <time>2024-02-04T08:29:29Z</time>
      </trkpt>
      <trkpt lat="43.16514" lon="6.51961">
        <ele>70.7</ele>
        <time>2024-02-04T08:29:30Z</time>
      </trkpt>
      <trkpt lat="43.16513" lon="6.51961">
        <ele>70.7</ele>
        <time>2024-02-04T08:29:31Z</time>
      </trkpt>
      <trkpt lat="43.16513" lon="6.51961">
        <ele>70.9</ele>
        <time>2024-02-04T08:29:32Z</time>
      </trkpt>
      <trkpt lat="43.16511" lon="6.51961">
        <ele>71.1</ele>
        <time>2024-02-04T08:29:33Z</time>
      </trkpt>
      <trkpt lat="43.16511" lon="6.51962">
        <ele>71.2</ele>
        <time>2024-02-04T08:29:34Z</time>
      </trkpt>
      <trkpt lat="43.1651" lon="6.51962">
        <ele>71.4</ele>
        <time>2024-02-04T08:29:35Z</time>
      </trkpt>
      <trkpt lat="43.16509" lon="6.51962">
        <ele>71.5</ele>
        <time>2024-02-04T08:29:36Z</time>
      </trkpt>
      <trkpt lat="43.16509" lon="6.51962">
        <ele>71.6</ele>
        <time>2024-02-04T08:29:37Z</time>
      </trkpt>
      <trkpt lat="43.16509" lon="6.51963">
        <ele>71.8</ele>
        <time>2024-02-04T08:29:38Z</time>
      </trkpt>
      <trkpt lat="43.16508" lon="6.51963">
        <ele>72</ele>
        <time>2024-02-04T08:29:39Z</time>
      </trkpt>
      <trkpt lat="43.16507" lon="6.51963">
        <ele>72.2</ele>
        <time>2024-02-04T08:29:40Z</time>
      </trkpt>
      <trkpt lat="43.16506" lon="6.51964">
        <ele>72.4</ele>
        <time>2024-02-04T08:29:41Z</time>
      </trkpt>
      <trkpt lat="43.16506" lon="6.51964">
        <ele>72.5</ele>
        <time>2024-02-04T08:29:42Z</time>
      </trkpt>
      <trkpt lat="43.16506" lon="6.51964">
        <ele>72.6</ele>
        <time>2024-02-04T08:29:43Z</time>
      </trkpt>
      <trkpt lat="43.16506" lon="6.51965">
        <ele>72.7</ele>
        <time>2024-02-04T08:29:44Z</time>
      </trkpt>
      <trkpt lat="43.16506" lon="6.51965">
        <ele>72.8</ele>
        <time>2024-02-04T08:29:45Z</time>
      </trkpt>
      <trkpt lat="43.16506" lon="6.51965">
        <ele>72.9</ele>
        <time>2024-02-04T08:29:46Z</time>
      </trkpt>
      <trkpt lat="43.16505" lon="6.51965">
        <ele>73</ele>
        <time>2024-02-04T08:29:47Z</time>
      </trkpt>
      <trkpt lat="43.16504" lon="6.51966">
        <ele>73.1</ele>
        <time>2024-02-04T08:29:48Z</time>
      </trkpt>
      <trkpt lat="43.16504" lon="6.51966">
        <ele>73.2</ele>
        <time>2024-02-04T08:29:49Z</time>
      </trkpt>
      <trkpt lat="43.16504" lon="6.51967">
        <ele>73.2</ele>
        <time>2024-02-04T08:29:50Z</time>
      </trkpt>
      <trkpt lat="43.16503" lon="6.51967">
        <ele>73.4</ele>
        <time>2024-02-04T08:29:51Z</time>
      </trkpt>
      <trkpt lat="43.16503" lon="6.51967">
        <ele>73.5</ele>
        <time>2024-02-04T08:29:52Z</time>
      </trkpt>
      <trkpt lat="43.16502" lon="6.51967">
        <ele>73.6</ele>
        <time>2024-02-04T08:29:53Z</time>
      </trkpt>
      <trkpt lat="43.16502" lon="6.51968">
        <ele>73.7</ele>
        <time>2024-02-04T08:29:54Z</time>
      </trkpt>
      <trkpt lat="43.16502" lon="6.51968">
        <ele>73.8</ele>
        <time>2024-02-04T08:29:55Z</time>
      </trkpt>
      <trkpt lat="43.16502" lon="6.51968">
        <ele>73.9</ele>
        <time>2024-02-04T08:29:56Z</time>
      </trkpt>
      <trkpt lat="43.16501" lon="6.51968">
        <ele>74</ele>
        <time>2024-02-04T08:29:57Z</time>
      </trkpt>
      <trkpt lat="43.165" lon="6.51969">
        <ele>74.1</ele>
        <time>2024-02-04T08:29:58Z</time>
      </trkpt>
      <trkpt lat="43.165" lon="6.51969">
        <ele>74.3</ele>
        <time>2024-02-04T08:29:59Z</time>
      </trkpt>
      <trkpt lat="43.165" lon="6.5197">
        <ele>74.5</ele>
        <time>2024-02-04T08:30:00Z</time>
      </trkpt>
      <trkpt lat="43.16499" lon="6.5197">
        <ele>74.6</ele>
        <time>2024-02-04T08:30:01Z</time>
      </trkpt>
      <trkpt lat="43.16498" lon="6.51971">
        <ele>74.7</ele>
        <time>2024-02-04T08:30:02Z</time>
      </trkpt>
      <trkpt lat="43.16499" lon="6.51971">
        <ele>74.9</ele>
        <time>2024-02-04T08:30:03Z</time>
      </trkpt>
      <trkpt lat="43.16498" lon="6.51972">
        <ele>74.9</ele>
        <time>2024-02-04T08:30:04Z</time>
      </trkpt>
      <trkpt lat="43.16498" lon="6.51972">
        <ele>75.1</ele>
        <time>2024-02-04T08:30:05Z</time>
      </trkpt>
      <trkpt lat="43.16498" lon="6.51973">
        <ele>75.2</ele>
        <time>2024-02-04T08:30:06Z</time>
      </trkpt>
      <trkpt lat="43.16497" lon="6.51974">
        <ele>75.3</ele>
        <time>2024-02-04T08:30:07Z</time>
      </trkpt>
      <trkpt lat="43.16496" lon="6.51974">
        <ele>75.5</ele>
        <time>2024-02-04T08:30:08Z</time>
      </trkpt>
      <trkpt lat="43.16496" lon="6.51975">
        <ele>75.7</ele>
        <time>2024-02-04T08:30:09Z</time>
      </trkpt>
      <trkpt lat="43.16495" lon="6.51976">
        <ele>75.8</ele>
        <time>2024-02-04T08:30:10Z</time>
      </trkpt>
      <trkpt lat="43.16495" lon="6.51977">
        <ele>75.9</ele>
        <time>2024-02-04T08:30:11Z</time>
      </trkpt>
      <trkpt lat="43.16494" lon="6.51978">
        <ele>76.1</ele>
        <time>2024-02-04T08:30:12Z</time>
      </trkpt>
      <trkpt lat="43.16493" lon="6.51979">
        <ele>76.2</ele>
        <time>2024-02-04T08:30:13Z</time>
      </trkpt>
      <trkpt lat="43.16493" lon="6.5198">
        <ele>76.4</ele>
        <time>2024-02-04T08:30:14Z</time>
      </trkpt>
      <trkpt lat="43.16492" lon="6.5198">
        <ele>76.5</ele>
        <time>2024-02-04T08:30:15Z</time>
      </trkpt>
      <trkpt lat="43.16492" lon="6.51981">
        <ele>76.8</ele>
        <time>2024-02-04T08:30:16Z</time>
      </trkpt>
      <trkpt lat="43.16491" lon="6.51982">
        <ele>76.8</ele>
        <time>2024-02-04T08:30:17Z</time>
      </trkpt>
      <trkpt lat="43.16491" lon="6.51983">
        <ele>76.9</ele>
        <time>2024-02-04T08:30:18Z</time>
      </trkpt>
      <trkpt lat="43.16491" lon="6.51984">
        <ele>77</ele>
        <time>2024-02-04T08:30:19Z</time>
      </trkpt>
      <trkpt lat="43.1649" lon="6.51985">
        <ele>77.2</ele>
        <time>2024-02-04T08:30:20Z</time>
      </trkpt>
      <trkpt lat="43.1649" lon="6.51986">
        <ele>77.4</ele>
        <time>2024-02-04T08:30:21Z</time>
      </trkpt>
      <trkpt lat="43.16489" lon="6.51987">
        <ele>77.7</ele>
        <time>2024-02-04T08:30:22Z</time>
      </trkpt>
      <trkpt lat="43.16489" lon="6.51988">
        <ele>77.9</ele>
        <time>2024-02-04T08:30:23Z</time>
      </trkpt>
      <trkpt lat="43.16489" lon="6.51988">
        <ele>78</ele>
        <time>2024-02-04T08:30:24Z</time>
      </trkpt>
      <trkpt lat="43.16488" lon="6.51989">
        <ele>78.2</ele>
        <time>2024-02-04T08:30:25Z</time>
      </trkpt>
      <trkpt lat="43.16488" lon="6.5199">
        <ele>78.4</ele>
        <time>2024-02-04T08:30:26Z</time>
      </trkpt>
      <trkpt lat="43.16487" lon="6.51991">
        <ele>78.5</ele>
        <time>2024-02-04T08:30:27Z</time>
      </trkpt>
      <trkpt lat="43.16487" lon="6.51992">
        <ele>78.6</ele>
        <time>2024-02-04T08:30:28Z</time>
      </trkpt>
      <trkpt lat="43.16486" lon="6.51993">
        <ele>78.7</ele>
        <time>2024-02-04T08:30:29Z</time>
      </trkpt>
      <trkpt lat="43.16486" lon="6.51993">
        <ele>78.8</ele>
        <time>2024-02-04T08:30:30Z</time>
      </trkpt>
      <trkpt lat="43.16485" lon="6.51993">
        <ele>78.9</ele>
        <time>2024-02-04T08:30:31Z</time>
      </trkpt>
      <trkpt lat="43.16485" lon="6.51993">
        <ele>78.9</ele>
        <time>2024-02-04T08:30:32Z</time>
      </trkpt>
      <trkpt lat="43.16484" lon="6.51994">
        <ele>78.9</ele>
        <time>2024-02-04T08:30:33Z</time>
      </trkpt>
      <trkpt lat="43.16484" lon="6.51994">
        <ele>79</ele>
        <time>2024-02-04T08:30:34Z</time>
      </trkpt>
      <trkpt lat="43.16484" lon="6.51995">
        <ele>79</ele>
        <time>2024-02-04T08:30:35Z</time>
      </trkpt>
      <trkpt lat="43.16483" lon="6.51995">
        <ele>79</ele>
        <time>2024-02-04T08:30:36Z</time>
      </trkpt>
      <trkpt lat="43.16482" lon="6.51996">
        <ele>79</ele>
        <time>2024-02-04T08:30:37Z</time>
      </trkpt>
      <trkpt lat="43.16481" lon="6.51996">
        <ele>79.1</ele>
        <time>2024-02-04T08:30:38Z</time>
      </trkpt>
      <trkpt lat="43.16481" lon="6.51997">
        <ele>79.2</ele>
        <time>2024-02-04T08:30:39Z</time>
      </trkpt>
      <trkpt lat="43.1648" lon="6.51998">
        <ele>79.3</ele>
        <time>2024-02-04T08:30:40Z</time>
      </trkpt>
      <trkpt lat="43.16479" lon="6.51998">
        <ele>79.3</ele>
        <time>2024-02-04T08:30:41Z</time>
      </trkpt>
      <trkpt lat="43.16479" lon="6.51998">
        <ele>79.3</ele>
        <time>2024-02-04T08:30:42Z</time>
      </trkpt>
      <trkpt lat="43.16478" lon="6.51998">
        <ele>79.3</ele>
        <time>2024-02-04T08:30:43Z</time>
      </trkpt>
      <trkpt lat="43.16479" lon="6.51999">
        <ele>79.3</ele>
        <time>2024-02-04T08:30:44Z</time>
      </trkpt>
      <trkpt lat="43.16479" lon="6.51999">
        <ele>79.3</ele>
        <time>2024-02-04T08:30:45Z</time>
      </trkpt>
      <trkpt lat="43.16479" lon="6.51999">
        <ele>79.3</ele>
        <time>2024-02-04T08:30:46Z</time>
      </trkpt>
      <trkpt lat="43.16479" lon="6.51999">
        <ele>79.3</ele>
        <time>2024-02-04T08:30:47Z</time>
      </trkpt>
      <trkpt lat="43.16479" lon="6.52">
        <ele>79.4</ele>
        <time>2024-02-04T08:30:48Z</time>
      </trkpt>
      <trkpt lat="43.16479" lon="6.52">
        <ele>79.4</ele>
        <time>2024-02-04T08:30:49Z</time>
      </trkpt>
      <trkpt lat="43.16479" lon="6.52">
        <ele>79.5</ele>
        <time>2024-02-04T08:30:50Z</time>
      </trkpt>
      <trkpt lat="43.16479" lon="6.52001">
        <ele>79.5</ele>
        <time>2024-02-04T08:30:51Z</time>
      </trkpt>
      <trkpt lat="43.16479" lon="6.52001">
        <ele>79.5</ele>
        <time>2024-02-04T08:30:52Z</time>
      </trkpt>
      <trkpt lat="43.16479" lon="6.52001">
        <ele>79.5</ele>
        <time>2024-02-04T08:30:53Z</time>
      </trkpt>
      <trkpt lat="43.16478" lon="6.52001">
        <ele>79.5</ele>
        <time>2024-02-04T08:30:54Z</time>
      </trkpt>
      <trkpt lat="43.16478" lon="6.52001">
        <ele>79.4</ele>
        <time>2024-02-04T08:30:55Z</time>
      </trkpt>
      <trkpt lat="43.16478" lon="6.52002">
        <ele>79.4</ele>
        <time>2024-02-04T08:30:56Z</time>
      </trkpt>
      <trkpt lat="43.16478" lon="6.52002">
        <ele>79.4</ele>
        <time>2024-02-04T08:30:57Z</time>
      </trkpt>
      <trkpt lat="43.16478" lon="6.52002">
        <ele>79.4</ele>
        <time>2024-02-04T08:30:58Z</time>
      </trkpt>
      <trkpt lat="43.16479" lon="6.52002">
        <ele>79.3</ele>
        <time>2024-02-04T08:30:59Z</time>
      </trkpt>
      <trkpt lat="43.16479" lon="6.52002">
        <ele>79.3</ele>
        <time>2024-02-04T08:31:00Z</time>
      </trkpt>
      <trkpt lat="43.16478" lon="6.52003">
        <ele>79.4</ele>
        <time>2024-02-04T08:31:01Z</time>
      </trkpt>
      <trkpt lat="43.16478" lon="6.52002">
        <ele>79.4</ele>
        <time>2024-02-04T08:31:02Z</time>
      </trkpt>
      <trkpt lat="43.16478" lon="6.52002">
        <ele>79.5</ele>
        <time>2024-02-04T08:31:03Z</time>
      </trkpt>
      <trkpt lat="43.16478" lon="6.52002">
        <ele>79.5</ele>
        <time>2024-02-04T08:31:04Z</time>
      </trkpt>
      <trkpt lat="43.16478" lon="6.52002">
        <ele>79.4</ele>
        <time>2024-02-04T08:31:05Z</time>
      </trkpt>
      <trkpt lat="43.16478" lon="6.52002">
        <ele>79.4</ele>
        <time>2024-02-04T08:31:06Z</time>
      </trkpt>
      <trkpt lat="43.16478" lon="6.52001">
        <ele>79.4</ele>
        <time>2024-02-04T08:31:07Z</time>
      </trkpt>
      <trkpt lat="43.16478" lon="6.52001">
        <ele>79.4</ele>
        <time>2024-02-04T08:31:08Z</time>
      </trkpt>
      <trkpt lat="43.16478" lon="6.52001">
        <ele>79.4</ele>
        <time>2024-02-04T08:31:09Z</time>
      </trkpt>
      <trkpt lat="43.16478" lon="6.52002">
        <ele>79.3</ele>
        <time>2024-02-04T08:31:10Z</time>
      </trkpt>
      <trkpt lat="43.16478" lon="6.52002">
        <ele>79.3</ele>
        <time>2024-02-04T08:31:11Z</time>
      </trkpt>
      <trkpt lat="43.16478" lon="6.52002">
        <ele>79.3</ele>
        <time>2024-02-04T08:31:12Z</time>
      </trkpt>
      <trkpt lat="43.16478" lon="6.52002">
        <ele>79.3</ele>
        <time>2024-02-04T08:31:13Z</time>
      </trkpt>
      <trkpt lat="43.16478" lon="6.52002">
        <ele>79.3</ele>
        <time>2024-02-04T08:31:14Z</time>
      </trkpt>
      <trkpt lat="43.16478" lon="6.52003">
        <ele>79.2</ele>
        <time>2024-02-04T08:31:15Z</time>
      </trkpt>
      <trkpt lat="43.16478" lon="6.52003">
        <ele>79.2</ele>
        <time>2024-02-04T08:31:16Z</time>
      </trkpt>
      <trkpt lat="43.16478" lon="6.52003">
        <ele>79.1</ele>
        <time>2024-02-04T08:31:17Z</time>
      </trkpt>
      <trkpt lat="43.16478" lon="6.52003">
        <ele>79.1</ele>
        <time>2024-02-04T08:31:18Z</time>
      </trkpt>
      <trkpt lat="43.16478" lon="6.52003">
        <ele>79.1</ele>
        <time>2024-02-04T08:31:19Z</time>
      </trkpt>
      <trkpt lat="43.16478" lon="6.52003">
        <ele>79.2</ele>
        <time>2024-02-04T08:31:20Z</time>
      </trkpt>
      <trkpt lat="43.16478" lon="6.52003">
        <ele>79.2</ele>
        <time>2024-02-04T08:31:21Z</time>
      </trkpt>
      <trkpt lat="43.16478" lon="6.52003">
        <ele>79.1</ele>
        <time>2024-02-04T08:31:22Z</time>
      </trkpt>
      <trkpt lat="43.16478" lon="6.52004">
        <ele>79</ele>
        <time>2024-02-04T08:31:23Z</time>
      </trkpt>
      <trkpt lat="43.16478" lon="6.52004">
        <ele>79</ele>
        <time>2024-02-04T08:31:24Z</time>
      </trkpt>
      <trkpt lat="43.16478" lon="6.52004">
        <ele>79</ele>
        <time>2024-02-04T08:31:25Z</time>
      </trkpt>
      <trkpt lat="43.16478" lon="6.52004">
        <ele>78.9</ele>
        <time>2024-02-04T08:31:26Z</time>
      </trkpt>
      <trkpt lat="43.16478" lon="6.52004">
        <ele>78.9</ele>
        <time>2024-02-04T08:31:27Z</time>
      </trkpt>
      <trkpt lat="43.16478" lon="6.52004">
        <ele>78.9</ele>
        <time>2024-02-04T08:31:28Z</time>
      </trkpt>
      <trkpt lat="43.16478" lon="6.52004">
        <ele>78.9</ele>
        <time>2024-02-04T08:31:29Z</time>
      </trkpt>
      <trkpt lat="43.16478" lon="6.52004">
        <ele>79</ele>
        <time>2024-02-04T08:31:30Z</time>
      </trkpt>
      <trkpt lat="43.16478" lon="6.52004">
        <ele>79</ele>
        <time>2024-02-04T08:31:31Z</time>
      </trkpt>
      <trkpt lat="43.16478" lon="6.52004">
        <ele>79</ele>
        <time>2024-02-04T08:31:32Z</time>
      </trkpt>
      <trkpt lat="43.16478" lon="6.52004">
        <ele>79</ele>
        <time>2024-02-04T08:31:33Z</time>
      </trkpt>
      <trkpt lat="43.16478" lon="6.52004">
        <ele>79</ele>
        <time>2024-02-04T08:31:34Z</time>
      </trkpt>
      <trkpt lat="43.16478" lon="6.52004">
        <ele>79</ele>
        <time>2024-02-04T08:31:35Z</time>
      </trkpt>
      <trkpt lat="43.16478" lon="6.52005">
        <ele>79</ele>
        <time>2024-02-04T08:31:36Z</time>
      </trkpt>
      <trkpt lat="43.16478" lon="6.52005">
        <ele>79.1</ele>
        <time>2024-02-04T08:31:37Z</time>
      </trkpt>
      <trkpt lat="43.16478" lon="6.52005">
        <ele>79.1</ele>
        <time>2024-02-04T08:31:38Z</time>
      </trkpt>
      <trkpt lat="43.16478" lon="6.52005">
        <ele>79.1</ele>
        <time>2024-02-04T08:31:39Z</time>
      </trkpt>
      <trkpt lat="43.16478" lon="6.52005">
        <ele>79.1</ele>
        <time>2024-02-04T08:31:40Z</time>
      </trkpt>
      <trkpt lat="43.16478" lon="6.52005">
        <ele>79.1</ele>
        <time>2024-02-04T08:31:41Z</time>
      </trkpt>
      <trkpt lat="43.16478" lon="6.52005">
        <ele>79</ele>
        <time>2024-02-04T08:31:42Z</time>
      </trkpt>
      <trkpt lat="43.16478" lon="6.52005">
        <ele>78.9</ele>
        <time>2024-02-04T08:31:43Z</time>
      </trkpt>
      <trkpt lat="43.16478" lon="6.52005">
        <ele>78.9</ele>
        <time>2024-02-04T08:31:44Z</time>
      </trkpt>
      <trkpt lat="43.16478" lon="6.52005">
        <ele>79</ele>
        <time>2024-02-04T08:31:45Z</time>
      </trkpt>
      <trkpt lat="43.16478" lon="6.52005">
        <ele>79</ele>
        <time>2024-02-04T08:31:46Z</time>
      </trkpt>
      <trkpt lat="43.16478" lon="6.52005">
        <ele>79</ele>
        <time>2024-02-04T08:31:47Z</time>
      </trkpt>
      <trkpt lat="43.16478" lon="6.52005">
        <ele>79</ele>
        <time>2024-02-04T08:31:48Z</time>
      </trkpt>
      <trkpt lat="43.16478" lon="6.52005">
        <ele>79</ele>
        <time>2024-02-04T08:31:49Z</time>
      </trkpt>
      <trkpt lat="43.16478" lon="6.52005">
        <ele>79</ele>
        <time>2024-02-04T08:31:50Z</time>
      </trkpt>
      <trkpt lat="43.16478" lon="6.52005">
        <ele>79</ele>
        <time>2024-02-04T08:31:51Z</time>
      </trkpt>
      <trkpt lat="43.16478" lon="6.52005">
        <ele>79</ele>
        <time>2024-02-04T08:31:52Z</time>
      </trkpt>
      <trkpt lat="43.16478" lon="6.52005">
        <ele>79</ele>
        <time>2024-02-04T08:31:53Z</time>
      </trkpt>
      <trkpt lat="43.16478" lon="6.52005">
        <ele>78.9</ele>
        <time>2024-02-04T08:31:54Z</time>
      </trkpt>
      <trkpt lat="43.16478" lon="6.52005">
        <ele>79</ele>
        <time>2024-02-04T08:31:55Z</time>
      </trkpt>
      <trkpt lat="43.16478" lon="6.52005">
        <ele>79</ele>
        <time>2024-02-04T08:31:56Z</time>
      </trkpt>
      <trkpt lat="43.16478" lon="6.52005">
        <ele>78.9</ele>
        <time>2024-02-04T08:31:57Z</time>
      </trkpt>
      <trkpt lat="43.16478" lon="6.52005">
        <ele>79.1</ele>
        <time>2024-02-04T08:31:58Z</time>
      </trkpt>
      <trkpt lat="43.16478" lon="6.52005">
        <ele>79</ele>
        <time>2024-02-04T08:31:59Z</time>
      </trkpt>
      <trkpt lat="43.16478" lon="6.52005">
        <ele>79</ele>
        <time>2024-02-04T08:32:00Z</time>
      </trkpt>
      <trkpt lat="43.16478" lon="6.52005">
        <ele>79</ele>
        <time>2024-02-04T08:32:01Z</time>
      </trkpt>
      <trkpt lat="43.16478" lon="6.52005">
        <ele>79</ele>
        <time>2024-02-04T08:32:02Z</time>
      </trkpt>
      <trkpt lat="43.16478" lon="6.52005">
        <ele>78.9</ele>
        <time>2024-02-04T08:32:03Z</time>
      </trkpt>
      <trkpt lat="43.16477" lon="6.52006">
        <ele>78.9</ele>
        <time>2024-02-04T08:32:04Z</time>
      </trkpt>
      <trkpt lat="43.16477" lon="6.52006">
        <ele>78.9</ele>
        <time>2024-02-04T08:32:05Z</time>
      </trkpt>
      <trkpt lat="43.16477" lon="6.52006">
        <ele>78.9</ele>
        <time>2024-02-04T08:32:06Z</time>
      </trkpt>
      <trkpt lat="43.16477" lon="6.52006">
        <ele>78.8</ele>
        <time>2024-02-04T08:32:07Z</time>
      </trkpt>
      <trkpt lat="43.16477" lon="6.52006">
        <ele>78.9</ele>
        <time>2024-02-04T08:32:08Z</time>
      </trkpt>
      <trkpt lat="43.16477" lon="6.52006">
        <ele>78.9</ele>
        <time>2024-02-04T08:32:09Z</time>
      </trkpt>
      <trkpt lat="43.16477" lon="6.52006">
        <ele>78.9</ele>
        <time>2024-02-04T08:32:10Z</time>
      </trkpt>
      <trkpt lat="43.16477" lon="6.52006">
        <ele>78.9</ele>
        <time>2024-02-04T08:32:11Z</time>
      </trkpt>
      <trkpt lat="43.16477" lon="6.52006">
        <ele>78.9</ele>
        <time>2024-02-04T08:32:12Z</time>
      </trkpt>
      <trkpt lat="43.16477" lon="6.52006">
        <ele>78.9</ele>
        <time>2024-02-04T08:32:13Z</time>
      </trkpt>
      <trkpt lat="43.16477" lon="6.52006">
        <ele>78.9</ele>
        <time>2024-02-04T08:32:14Z</time>
      </trkpt>
      <trkpt lat="43.16477" lon="6.52006">
        <ele>78.9</ele>
        <time>2024-02-04T08:32:15Z</time>
      </trkpt>
      <trkpt lat="43.16477" lon="6.52006">
        <ele>78.8</ele>
        <time>2024-02-04T08:32:16Z</time>
      </trkpt>
      <trkpt lat="43.16477" lon="6.52006">
        <ele>78.8</ele>
        <time>2024-02-04T08:32:17Z</time>
      </trkpt>
      <trkpt lat="43.16477" lon="6.52006">
        <ele>78.9</ele>
        <time>2024-02-04T08:32:18Z</time>
      </trkpt>
      <trkpt lat="43.16477" lon="6.52005">
        <ele>79</ele>
        <time>2024-02-04T08:32:19Z</time>
      </trkpt>
      <trkpt lat="43.16478" lon="6.52006">
        <ele>79</ele>
        <time>2024-02-04T08:32:20Z</time>
      </trkpt>
      <trkpt lat="43.16478" lon="6.52006">
        <ele>79</ele>
        <time>2024-02-04T08:32:21Z</time>
      </trkpt>
      <trkpt lat="43.16478" lon="6.52006">
        <ele>79</ele>
        <time>2024-02-04T08:32:22Z</time>
      </trkpt>
      <trkpt lat="43.16478" lon="6.52006">
        <ele>79</ele>
        <time>2024-02-04T08:32:23Z</time>
      </trkpt>
      <trkpt lat="43.16478" lon="6.52006">
        <ele>79</ele>
        <time>2024-02-04T08:32:24Z</time>
      </trkpt>
      <trkpt lat="43.16478" lon="6.52006">
        <ele>79</ele>
        <time>2024-02-04T08:32:25Z</time>
      </trkpt>
      <trkpt lat="43.16478" lon="6.52006">
        <ele>78.8</ele>
        <time>2024-02-04T08:32:26Z</time>
      </trkpt>
      <trkpt lat="43.16478" lon="6.52006">
        <ele>78.8</ele>
        <time>2024-02-04T08:32:27Z</time>
      </trkpt>
      <trkpt lat="43.16478" lon="6.52006">
        <ele>78.8</ele>
        <time>2024-02-04T08:32:28Z</time>
      </trkpt>
      <trkpt lat="43.16478" lon="6.52006">
        <ele>78.8</ele>
        <time>2024-02-04T08:32:29Z</time>
      </trkpt>
      <trkpt lat="43.16478" lon="6.52006">
        <ele>78.8</ele>
        <time>2024-02-04T08:32:30Z</time>
      </trkpt>
      <trkpt lat="43.16477" lon="6.52006">
        <ele>78.8</ele>
        <time>2024-02-04T08:32:31Z</time>
      </trkpt>
      <trkpt lat="43.16477" lon="6.52006">
        <ele>78.8</ele>
        <time>2024-02-04T08:32:32Z</time>
      </trkpt>
      <trkpt lat="43.16478" lon="6.52007">
        <ele>78.8</ele>
        <time>2024-02-04T08:32:33Z</time>
      </trkpt>
      <trkpt lat="43.16478" lon="6.52006">
        <ele>78.8</ele>
        <time>2024-02-04T08:32:34Z</time>
      </trkpt>
      <trkpt lat="43.16478" lon="6.52006">
        <ele>78.7</ele>
        <time>2024-02-04T08:32:35Z</time>
      </trkpt>
      <trkpt lat="43.16478" lon="6.52006">
        <ele>78.7</ele>
        <time>2024-02-04T08:32:36Z</time>
      </trkpt>
      <trkpt lat="43.16478" lon="6.52006">
        <ele>78.7</ele>
        <time>2024-02-04T08:32:37Z</time>
      </trkpt>
      <trkpt lat="43.16479" lon="6.52005">
        <ele>78.7</ele>
        <time>2024-02-04T08:32:38Z</time>
      </trkpt>
      <trkpt lat="43.16479" lon="6.52004">
        <ele>78.8</ele>
        <time>2024-02-04T08:32:39Z</time>
      </trkpt>
      <trkpt lat="43.16479" lon="6.52004">
        <ele>78.8</ele>
        <time>2024-02-04T08:32:40Z</time>
      </trkpt>
      <trkpt lat="43.1648" lon="6.52004">
        <ele>78.7</ele>
        <time>2024-02-04T08:32:41Z</time>
      </trkpt>
      <trkpt lat="43.1648" lon="6.52004">
        <ele>78.7</ele>
        <time>2024-02-04T08:32:42Z</time>
      </trkpt>
      <trkpt lat="43.16481" lon="6.52003">
        <ele>78.7</ele>
        <time>2024-02-04T08:32:43Z</time>
      </trkpt>
      <trkpt lat="43.16481" lon="6.52003">
        <ele>78.7</ele>
        <time>2024-02-04T08:32:44Z</time>
      </trkpt>
      <trkpt lat="43.16481" lon="6.52003">
        <ele>78.7</ele>
        <time>2024-02-04T08:32:45Z</time>
      </trkpt>
      <trkpt lat="43.16482" lon="6.52003">
        <ele>78.7</ele>
        <time>2024-02-04T08:32:46Z</time>
      </trkpt>
      <trkpt lat="43.16482" lon="6.52004">
        <ele>78.8</ele>
        <time>2024-02-04T08:32:47Z</time>
      </trkpt>
      <trkpt lat="43.16482" lon="6.52004">
        <ele>78.8</ele>
        <time>2024-02-04T08:32:48Z</time>
      </trkpt>
      <trkpt lat="43.16482" lon="6.52004">
        <ele>78.9</ele>
        <time>2024-02-04T08:32:49Z</time>
      </trkpt>
      <trkpt lat="43.16482" lon="6.52004">
        <ele>78.8</ele>
        <time>2024-02-04T08:32:50Z</time>
      </trkpt>
      <trkpt lat="43.16482" lon="6.52004">
        <ele>78.8</ele>
        <time>2024-02-04T08:32:51Z</time>
      </trkpt>
      <trkpt lat="43.16482" lon="6.52005">
        <ele>78.8</ele>
        <time>2024-02-04T08:32:52Z</time>
      </trkpt>
      <trkpt lat="43.16482" lon="6.52005">
        <ele>78.8</ele>
        <time>2024-02-04T08:32:53Z</time>
      </trkpt>
      <trkpt lat="43.16482" lon="6.52005">
        <ele>78.8</ele>
        <time>2024-02-04T08:32:54Z</time>
      </trkpt>
      <trkpt lat="43.16482" lon="6.52005">
        <ele>78.8</ele>
        <time>2024-02-04T08:32:55Z</time>
      </trkpt>
      <trkpt lat="43.16482" lon="6.52005">
        <ele>78.8</ele>
        <time>2024-02-04T08:32:56Z</time>
      </trkpt>
      <trkpt lat="43.16482" lon="6.52005">
        <ele>78.8</ele>
        <time>2024-02-04T08:32:57Z</time>
      </trkpt>
      <trkpt lat="43.16482" lon="6.52006">
        <ele>78.8</ele>
        <time>2024-02-04T08:32:58Z</time>
      </trkpt>
      <trkpt lat="43.16482" lon="6.52006">
        <ele>78.9</ele>
        <time>2024-02-04T08:32:59Z</time>
      </trkpt>
      <trkpt lat="43.16481" lon="6.52006">
        <ele>78.9</ele>
        <time>2024-02-04T08:33:00Z</time>
      </trkpt>
      <trkpt lat="43.16481" lon="6.52006">
        <ele>79</ele>
        <time>2024-02-04T08:33:01Z</time>
      </trkpt>
      <trkpt lat="43.16481" lon="6.52006">
        <ele>79</ele>
        <time>2024-02-04T08:33:02Z</time>
      </trkpt>
      <trkpt lat="43.16481" lon="6.52006">
        <ele>79.1</ele>
        <time>2024-02-04T08:33:03Z</time>
      </trkpt>
      <trkpt lat="43.16481" lon="6.52007">
        <ele>79.1</ele>
        <time>2024-02-04T08:33:04Z</time>
      </trkpt>
      <trkpt lat="43.16482" lon="6.52007">
        <ele>79.1</ele>
        <time>2024-02-04T08:33:05Z</time>
      </trkpt>
      <trkpt lat="43.16482" lon="6.52007">
        <ele>79.1</ele>
        <time>2024-02-04T08:33:06Z</time>
      </trkpt>
      <trkpt lat="43.16482" lon="6.52007">
        <ele>79.1</ele>
        <time>2024-02-04T08:33:07Z</time>
      </trkpt>
      <trkpt lat="43.16482" lon="6.52007">
        <ele>79</ele>
        <time>2024-02-04T08:33:08Z</time>
      </trkpt>
      <trkpt lat="43.16482" lon="6.52007">
        <ele>79</ele>
        <time>2024-02-04T08:33:09Z</time>
      </trkpt>
      <trkpt lat="43.16482" lon="6.52007">
        <ele>78.8</ele>
        <time>2024-02-04T08:33:10Z</time>
      </trkpt>
      <trkpt lat="43.16482" lon="6.52007">
        <ele>78.8</ele>
        <time>2024-02-04T08:33:11Z</time>
      </trkpt>
      <trkpt lat="43.16482" lon="6.52007">
        <ele>78.8</ele>
        <time>2024-02-04T08:33:12Z</time>
      </trkpt>
      <trkpt lat="43.16482" lon="6.52007">
        <ele>78.8</ele>
        <time>2024-02-04T08:33:13Z</time>
      </trkpt>
      <trkpt lat="43.16482" lon="6.52008">
        <ele>78.9</ele>
        <time>2024-02-04T08:33:14Z</time>
      </trkpt>
      <trkpt lat="43.16482" lon="6.52008">
        <ele>78.9</ele>
        <time>2024-02-04T08:33:15Z</time>
      </trkpt>
      <trkpt lat="43.16482" lon="6.52008">
        <ele>78.9</ele>
        <time>2024-02-04T08:33:16Z</time>
      </trkpt>
      <trkpt lat="43.16482" lon="6.52008">
        <ele>78.9</ele>
        <time>2024-02-04T08:33:17Z</time>
      </trkpt>
      <trkpt lat="43.16482" lon="6.52008">
        <ele>79</ele>
        <time>2024-02-04T08:33:18Z</time>
      </trkpt>
      <trkpt lat="43.16482" lon="6.52008">
        <ele>78.9</ele>
        <time>2024-02-04T08:33:19Z</time>
      </trkpt>
      <trkpt lat="43.16482" lon="6.52008">
        <ele>78.9</ele>
        <time>2024-02-04T08:33:20Z</time>
      </trkpt>
      <trkpt lat="43.16482" lon="6.52008">
        <ele>78.9</ele>
        <time>2024-02-04T08:33:21Z</time>
      </trkpt>
      <trkpt lat="43.16482" lon="6.52008">
        <ele>78.9</ele>
        <time>2024-02-04T08:33:22Z</time>
      </trkpt>
      <trkpt lat="43.16482" lon="6.52008">
        <ele>79</ele>
        <time>2024-02-04T08:33:23Z</time>
      </trkpt>
      <trkpt lat="43.16482" lon="6.52008">
        <ele>79.1</ele>
        <time>2024-02-04T08:33:24Z</time>
      </trkpt>
      <trkpt lat="43.16483" lon="6.52008">
        <ele>79.1</ele>
        <time>2024-02-04T08:33:25Z</time>
      </trkpt>
      <trkpt lat="43.16483" lon="6.52008">
        <ele>79.1</ele>
        <time>2024-02-04T08:33:26Z</time>
      </trkpt>
      <trkpt lat="43.16483" lon="6.52008">
        <ele>79.2</ele>
        <time>2024-02-04T08:33:27Z</time>
      </trkpt>
      <trkpt lat="43.16483" lon="6.52008">
        <ele>79.1</ele>
        <time>2024-02-04T08:33:28Z</time>
      </trkpt>
      <trkpt lat="43.16483" lon="6.52008">
        <ele>79.1</ele>
        <time>2024-02-04T08:33:29Z</time>
      </trkpt>
      <trkpt lat="43.16483" lon="6.52008">
        <ele>79.1</ele>
        <time>2024-02-04T08:33:30Z</time>
      </trkpt>
      <trkpt lat="43.16483" lon="6.52008">
        <ele>79.1</ele>
        <time>2024-02-04T08:33:31Z</time>
      </trkpt>
      <trkpt lat="43.16483" lon="6.52008">
        <ele>79</ele>
        <time>2024-02-04T08:33:32Z</time>
      </trkpt>
      <trkpt lat="43.16483" lon="6.52008">
        <ele>79</ele>
        <time>2024-02-04T08:33:33Z</time>
      </trkpt>
      <trkpt lat="43.16482" lon="6.52008">
        <ele>79</ele>
        <time>2024-02-04T08:33:34Z</time>
      </trkpt>
      <trkpt lat="43.16481" lon="6.52007">
        <ele>79</ele>
        <time>2024-02-04T08:33:35Z</time>
      </trkpt>
      <trkpt lat="43.16481" lon="6.52007">
        <ele>79</ele>
        <time>2024-02-04T08:33:36Z</time>
      </trkpt>
      <trkpt lat="43.16481" lon="6.52007">
        <ele>79.1</ele>
        <time>2024-02-04T08:33:37Z</time>
      </trkpt>
      <trkpt lat="43.16481" lon="6.52006">
        <ele>79.1</ele>
        <time>2024-02-04T08:33:38Z</time>
      </trkpt>
      <trkpt lat="43.16481" lon="6.52006">
        <ele>79.2</ele>
        <time>2024-02-04T08:33:39Z</time>
      </trkpt>
      <trkpt lat="43.1648" lon="6.52006">
        <ele>79.3</ele>
        <time>2024-02-04T08:33:40Z</time>
      </trkpt>
      <trkpt lat="43.1648" lon="6.52006">
        <ele>79.4</ele>
        <time>2024-02-04T08:33:41Z</time>
      </trkpt>
      <trkpt lat="43.1648" lon="6.52005">
        <ele>79.3</ele>
        <time>2024-02-04T08:33:42Z</time>
      </trkpt>
      <trkpt lat="43.1648" lon="6.52005">
        <ele>79.3</ele>
        <time>2024-02-04T08:33:43Z</time>
      </trkpt>
      <trkpt lat="43.16481" lon="6.52005">
        <ele>79.3</ele>
        <time>2024-02-04T08:33:44Z</time>
      </trkpt>
      <trkpt lat="43.1648" lon="6.52005">
        <ele>79.3</ele>
        <time>2024-02-04T08:33:45Z</time>
      </trkpt>
      <trkpt lat="43.16481" lon="6.52005">
        <ele>79.2</ele>
        <time>2024-02-04T08:33:46Z</time>
      </trkpt>
      <trkpt lat="43.1648" lon="6.52004">
        <ele>79.2</ele>
        <time>2024-02-04T08:33:47Z</time>
      </trkpt>
      <trkpt lat="43.1648" lon="6.52004">
        <ele>79.1</ele>
        <time>2024-02-04T08:33:48Z</time>
      </trkpt>
      <trkpt lat="43.1648" lon="6.52003">
        <ele>79.1</ele>
        <time>2024-02-04T08:33:49Z</time>
      </trkpt>
      <trkpt lat="43.1648" lon="6.52003">
        <ele>79.2</ele>
        <time>2024-02-04T08:33:50Z</time>
      </trkpt>
      <trkpt lat="43.1648" lon="6.52003">
        <ele>79.1</ele>
        <time>2024-02-04T08:33:51Z</time>
      </trkpt>
      <trkpt lat="43.1648" lon="6.52003">
        <ele>79.1</ele>
        <time>2024-02-04T08:33:52Z</time>
      </trkpt>
      <trkpt lat="43.1648" lon="6.52002">
        <ele>79.2</ele>
        <time>2024-02-04T08:33:53Z</time>
      </trkpt>
      <trkpt lat="43.1648" lon="6.52002">
        <ele>79.2</ele>
        <time>2024-02-04T08:33:54Z</time>
      </trkpt>
      <trkpt lat="43.1648" lon="6.52001">
        <ele>79.3</ele>
        <time>2024-02-04T08:33:55Z</time>
      </trkpt>
      <trkpt lat="43.1648" lon="6.52001">
        <ele>79.3</ele>
        <time>2024-02-04T08:33:56Z</time>
      </trkpt>
      <trkpt lat="43.1648" lon="6.52">
        <ele>79.4</ele>
        <time>2024-02-04T08:33:57Z</time>
      </trkpt>
      <trkpt lat="43.1648" lon="6.52">
        <ele>79.6</ele>
        <time>2024-02-04T08:33:58Z</time>
      </trkpt>
      <trkpt lat="43.1648" lon="6.52">
        <ele>79.6</ele>
        <time>2024-02-04T08:33:59Z</time>
      </trkpt>
      <trkpt lat="43.16481" lon="6.52">
        <ele>79.6</ele>
        <time>2024-02-04T08:34:00Z</time>
      </trkpt>
      <trkpt lat="43.16481" lon="6.51999">
        <ele>79.6</ele>
        <time>2024-02-04T08:34:01Z</time>
      </trkpt>
      <trkpt lat="43.16482" lon="6.51998">
        <ele>79.7</ele>
        <time>2024-02-04T08:34:02Z</time>
      </trkpt>
      <trkpt lat="43.16482" lon="6.51997">
        <ele>79.7</ele>
        <time>2024-02-04T08:34:03Z</time>
      </trkpt>
      <trkpt lat="43.16482" lon="6.51996">
        <ele>79.7</ele>
        <time>2024-02-04T08:34:04Z</time>
      </trkpt>
      <trkpt lat="43.16481" lon="6.51995">
        <ele>79.7</ele>
        <time>2024-02-04T08:34:05Z</time>
      </trkpt>
      <trkpt lat="43.16481" lon="6.51994">
        <ele>79.8</ele>
        <time>2024-02-04T08:34:06Z</time>
      </trkpt>
      <trkpt lat="43.16481" lon="6.51993">
        <ele>79.8</ele>
        <time>2024-02-04T08:34:07Z</time>
      </trkpt>
      <trkpt lat="43.16481" lon="6.51992">
        <ele>79.9</ele>
        <time>2024-02-04T08:34:08Z</time>
      </trkpt>
      <trkpt lat="43.16481" lon="6.51991">
        <ele>79.9</ele>
        <time>2024-02-04T08:34:09Z</time>
      </trkpt>
      <trkpt lat="43.16481" lon="6.51991">
        <ele>79.9</ele>
        <time>2024-02-04T08:34:10Z</time>
      </trkpt>
      <trkpt lat="43.16482" lon="6.51989">
        <ele>79.8</ele>
        <time>2024-02-04T08:34:11Z</time>
      </trkpt>
      <trkpt lat="43.16481" lon="6.51988">
        <ele>79.8</ele>
        <time>2024-02-04T08:34:12Z</time>
      </trkpt>
      <trkpt lat="43.16481" lon="6.51987">
        <ele>79.8</ele>
        <time>2024-02-04T08:34:13Z</time>
      </trkpt>
      <trkpt lat="43.16481" lon="6.51986">
        <ele>79.8</ele>
        <time>2024-02-04T08:34:14Z</time>
      </trkpt>
      <trkpt lat="43.16482" lon="6.51986">
        <ele>79.7</ele>
        <time>2024-02-04T08:34:15Z</time>
      </trkpt>
      <trkpt lat="43.16482" lon="6.51985">
        <ele>79.8</ele>
        <time>2024-02-04T08:34:16Z</time>
      </trkpt>
      <trkpt lat="43.16482" lon="6.51984">
        <ele>79.9</ele>
        <time>2024-02-04T08:34:17Z</time>
      </trkpt>
      <trkpt lat="43.16482" lon="6.51983">
        <ele>80</ele>
        <time>2024-02-04T08:34:18Z</time>
      </trkpt>
      <trkpt lat="43.16482" lon="6.51981">
        <ele>80.1</ele>
        <time>2024-02-04T08:34:19Z</time>
      </trkpt>
      <trkpt lat="43.16482" lon="6.5198">
        <ele>80.2</ele>
        <time>2024-02-04T08:34:20Z</time>
      </trkpt>
      <trkpt lat="43.16482" lon="6.51979">
        <ele>80.2</ele>
        <time>2024-02-04T08:34:21Z</time>
      </trkpt>
      <trkpt lat="43.16482" lon="6.51978">
        <ele>80.2</ele>
        <time>2024-02-04T08:34:22Z</time>
      </trkpt>
      <trkpt lat="43.16483" lon="6.51977">
        <ele>80.3</ele>
        <time>2024-02-04T08:34:23Z</time>
      </trkpt>
      <trkpt lat="43.16483" lon="6.51975">
        <ele>80.4</ele>
        <time>2024-02-04T08:34:24Z</time>
      </trkpt>
      <trkpt lat="43.16483" lon="6.51974">
        <ele>80.4</ele>
        <time>2024-02-04T08:34:25Z</time>
      </trkpt>
      <trkpt lat="43.16483" lon="6.51973">
        <ele>80.4</ele>
        <time>2024-02-04T08:34:26Z</time>
      </trkpt>
      <trkpt lat="43.16483" lon="6.51971">
        <ele>80.4</ele>
        <time>2024-02-04T08:34:27Z</time>
      </trkpt>
      <trkpt lat="43.16483" lon="6.51971">
        <ele>80.4</ele>
        <time>2024-02-04T08:34:28Z</time>
      </trkpt>
      <trkpt lat="43.16483" lon="6.51969">
        <ele>80.4</ele>
        <time>2024-02-04T08:34:29Z</time>
      </trkpt>
      <trkpt lat="43.16483" lon="6.51969">
        <ele>80.5</ele>
        <time>2024-02-04T08:34:30Z</time>
      </trkpt>
      <trkpt lat="43.16483" lon="6.51968">
        <ele>80.7</ele>
        <time>2024-02-04T08:34:31Z</time>
      </trkpt>
      <trkpt lat="43.16483" lon="6.51967">
        <ele>80.9</ele>
        <time>2024-02-04T08:34:32Z</time>
      </trkpt>
      <trkpt lat="43.16484" lon="6.51967">
        <ele>81</ele>
        <time>2024-02-04T08:34:33Z</time>
      </trkpt>
      <trkpt lat="43.16484" lon="6.51966">
        <ele>81.1</ele>
        <time>2024-02-04T08:34:34Z</time>
      </trkpt>
      <trkpt lat="43.16484" lon="6.51964">
        <ele>81.1</ele>
        <time>2024-02-04T08:34:35Z</time>
      </trkpt>
      <trkpt lat="43.16484" lon="6.51963">
        <ele>81.2</ele>
        <time>2024-02-04T08:34:36Z</time>
      </trkpt>
      <trkpt lat="43.16485" lon="6.51962">
        <ele>81.4</ele>
        <time>2024-02-04T08:34:37Z</time>
      </trkpt>
      <trkpt lat="43.16485" lon="6.51961">
        <ele>81.5</ele>
        <time>2024-02-04T08:34:38Z</time>
      </trkpt>
      <trkpt lat="43.16485" lon="6.51959">
        <ele>81.5</ele>
        <time>2024-02-04T08:34:39Z</time>
      </trkpt>
      <trkpt lat="43.16485" lon="6.51958">
        <ele>81.6</ele>
        <time>2024-02-04T08:34:40Z</time>
      </trkpt>
      <trkpt lat="43.16485" lon="6.51957">
        <ele>81.7</ele>
        <time>2024-02-04T08:34:41Z</time>
      </trkpt>
      <trkpt lat="43.16485" lon="6.51956">
        <ele>81.8</ele>
        <time>2024-02-04T08:34:42Z</time>
      </trkpt>
      <trkpt lat="43.16486" lon="6.51955">
        <ele>81.9</ele>
        <time>2024-02-04T08:34:43Z</time>
      </trkpt>
      <trkpt lat="43.16486" lon="6.51954">
        <ele>81.9</ele>
        <time>2024-02-04T08:34:44Z</time>
      </trkpt>
      <trkpt lat="43.16486" lon="6.51952">
        <ele>82</ele>
        <time>2024-02-04T08:34:45Z</time>
      </trkpt>
      <trkpt lat="43.16486" lon="6.51951">
        <ele>82.1</ele>
        <time>2024-02-04T08:34:46Z</time>
      </trkpt>
      <trkpt lat="43.16486" lon="6.5195">
        <ele>82.1</ele>
        <time>2024-02-04T08:34:47Z</time>
      </trkpt>
      <trkpt lat="43.16486" lon="6.51948">
        <ele>82.2</ele>
        <time>2024-02-04T08:34:48Z</time>
      </trkpt>
      <trkpt lat="43.16486" lon="6.51948">
        <ele>82.2</ele>
        <time>2024-02-04T08:34:49Z</time>
      </trkpt>
      <trkpt lat="43.16486" lon="6.51947">
        <ele>82.2</ele>
        <time>2024-02-04T08:34:50Z</time>
      </trkpt>
      <trkpt lat="43.16487" lon="6.51946">
        <ele>82.2</ele>
        <time>2024-02-04T08:34:51Z</time>
      </trkpt>
      <trkpt lat="43.16487" lon="6.51945">
        <ele>82.3</ele>
        <time>2024-02-04T08:34:52Z</time>
      </trkpt>
      <trkpt lat="43.16487" lon="6.51944">
        <ele>82.4</ele>
        <time>2024-02-04T08:34:53Z</time>
      </trkpt>
      <trkpt lat="43.16487" lon="6.51943">
        <ele>82.5</ele>
        <time>2024-02-04T08:34:54Z</time>
      </trkpt>
      <trkpt lat="43.16487" lon="6.51942">
        <ele>82.6</ele>
        <time>2024-02-04T08:34:55Z</time>
      </trkpt>
      <trkpt lat="43.16487" lon="6.51941">
        <ele>82.6</ele>
        <time>2024-02-04T08:34:56Z</time>
      </trkpt>
      <trkpt lat="43.16488" lon="6.5194">
        <ele>82.7</ele>
        <time>2024-02-04T08:34:57Z</time>
      </trkpt>
      <trkpt lat="43.16488" lon="6.51939">
        <ele>82.7</ele>
        <time>2024-02-04T08:34:58Z</time>
      </trkpt>
      <trkpt lat="43.16488" lon="6.51939">
        <ele>82.8</ele>
        <time>2024-02-04T08:34:59Z</time>
      </trkpt>
      <trkpt lat="43.16488" lon="6.51938">
        <ele>82.9</ele>
        <time>2024-02-04T08:35:00Z</time>
      </trkpt>
      <trkpt lat="43.16489" lon="6.51937">
        <ele>83</ele>
        <time>2024-02-04T08:35:01Z</time>
      </trkpt>
      <trkpt lat="43.16489" lon="6.51936">
        <ele>83.1</ele>
        <time>2024-02-04T08:35:02Z</time>
      </trkpt>
      <trkpt lat="43.16489" lon="6.51935">
        <ele>83.2</ele>
        <time>2024-02-04T08:35:03Z</time>
      </trkpt>
      <trkpt lat="43.16489" lon="6.51934">
        <ele>83.3</ele>
        <time>2024-02-04T08:35:04Z</time>
      </trkpt>
      <trkpt lat="43.16489" lon="6.51933">
        <ele>83.4</ele>
        <time>2024-02-04T08:35:05Z</time>
      </trkpt>
      <trkpt lat="43.16489" lon="6.51931">
        <ele>83.5</ele>
        <time>2024-02-04T08:35:06Z</time>
      </trkpt>
      <trkpt lat="43.1649" lon="6.5193">
        <ele>83.6</ele>
        <time>2024-02-04T08:35:07Z</time>
      </trkpt>
      <trkpt lat="43.1649" lon="6.5193">
        <ele>83.7</ele>
        <time>2024-02-04T08:35:08Z</time>
      </trkpt>
      <trkpt lat="43.1649" lon="6.51929">
        <ele>83.8</ele>
        <time>2024-02-04T08:35:09Z</time>
      </trkpt>
      <trkpt lat="43.16491" lon="6.51929">
        <ele>83.8</ele>
        <time>2024-02-04T08:35:10Z</time>
      </trkpt>
      <trkpt lat="43.16491" lon="6.51929">
        <ele>83.8</ele>
        <time>2024-02-04T08:35:11Z</time>
      </trkpt>
      <trkpt lat="43.16492" lon="6.5193">
        <ele>83.8</ele>
        <time>2024-02-04T08:35:12Z</time>
      </trkpt>
      <trkpt lat="43.16492" lon="6.51931">
        <ele>83.9</ele>
        <time>2024-02-04T08:35:13Z</time>
      </trkpt>
      <trkpt lat="43.16493" lon="6.51931">
        <ele>83.9</ele>
        <time>2024-02-04T08:35:14Z</time>
      </trkpt>
      <trkpt lat="43.16494" lon="6.51932">
        <ele>83.9</ele>
        <time>2024-02-04T08:35:15Z</time>
      </trkpt>
      <trkpt lat="43.16495" lon="6.51932">
        <ele>83.9</ele>
        <time>2024-02-04T08:35:16Z</time>
      </trkpt>
      <trkpt lat="43.16495" lon="6.51932">
        <ele>83.8</ele>
        <time>2024-02-04T08:35:17Z</time>
      </trkpt>
      <trkpt lat="43.16496" lon="6.51932">
        <ele>83.7</ele>
        <time>2024-02-04T08:35:18Z</time>
      </trkpt>
      <trkpt lat="43.16496" lon="6.51932">
        <ele>83.6</ele>
        <time>2024-02-04T08:35:19Z</time>
      </trkpt>
      <trkpt lat="43.16497" lon="6.51932">
        <ele>83.5</ele>
        <time>2024-02-04T08:35:20Z</time>
      </trkpt>
      <trkpt lat="43.16497" lon="6.51932">
        <ele>83.4</ele>
        <time>2024-02-04T08:35:21Z</time>
      </trkpt>
      <trkpt lat="43.16497" lon="6.51933">
        <ele>83.3</ele>
        <time>2024-02-04T08:35:22Z</time>
      </trkpt>
      <trkpt lat="43.16498" lon="6.51933">
        <ele>83.1</ele>
        <time>2024-02-04T08:35:23Z</time>
      </trkpt>
      <trkpt lat="43.16498" lon="6.51932">
        <ele>83.1</ele>
        <time>2024-02-04T08:35:24Z</time>
      </trkpt>
      <trkpt lat="43.16498" lon="6.51932">
        <ele>82.8</ele>
        <time>2024-02-04T08:35:25Z</time>
      </trkpt>
      <trkpt lat="43.16498" lon="6.51933">
        <ele>82.6</ele>
        <time>2024-02-04T08:35:26Z</time>
      </trkpt>
      <trkpt lat="43.16498" lon="6.51933">
        <ele>82.6</ele>
        <time>2024-02-04T08:35:27Z</time>
      </trkpt>
      <trkpt lat="43.16497" lon="6.51934">
        <ele>82.5</ele>
        <time>2024-02-04T08:35:28Z</time>
      </trkpt>
      <trkpt lat="43.16497" lon="6.51934">
        <ele>82.4</ele>
        <time>2024-02-04T08:35:29Z</time>
      </trkpt>
      <trkpt lat="43.16497" lon="6.51935">
        <ele>82.4</ele>
        <time>2024-02-04T08:35:30Z</time>
      </trkpt>
      <trkpt lat="43.16497" lon="6.51935">
        <ele>82.4</ele>
        <time>2024-02-04T08:35:31Z</time>
      </trkpt>
      <trkpt lat="43.16497" lon="6.51935">
        <ele>82.4</ele>
        <time>2024-02-04T08:35:32Z</time>
      </trkpt>
      <trkpt lat="43.16497" lon="6.51935">
        <ele>82.4</ele>
        <time>2024-02-04T08:35:33Z</time>
      </trkpt>
      <trkpt lat="43.16497" lon="6.51933">
        <ele>82.3</ele>
        <time>2024-02-04T08:35:34Z</time>
      </trkpt>
      <trkpt lat="43.16497" lon="6.51933">
        <ele>82.3</ele>
        <time>2024-02-04T08:35:35Z</time>
      </trkpt>
      <trkpt lat="43.16497" lon="6.51932">
        <ele>82.3</ele>
        <time>2024-02-04T08:35:36Z</time>
      </trkpt>
      <trkpt lat="43.16497" lon="6.51931">
        <ele>82.5</ele>
        <time>2024-02-04T08:35:37Z</time>
      </trkpt>
      <trkpt lat="43.16496" lon="6.51932">
        <ele>82.7</ele>
        <time>2024-02-04T08:35:38Z</time>
      </trkpt>
      <trkpt lat="43.16495" lon="6.51932">
        <ele>82.8</ele>
        <time>2024-02-04T08:35:39Z</time>
      </trkpt>
      <trkpt lat="43.16495" lon="6.51931">
        <ele>83</ele>
        <time>2024-02-04T08:35:40Z</time>
      </trkpt>
      <trkpt lat="43.16494" lon="6.5193">
        <ele>83.1</ele>
        <time>2024-02-04T08:35:41Z</time>
      </trkpt>
      <trkpt lat="43.16494" lon="6.51929">
        <ele>83.2</ele>
        <time>2024-02-04T08:35:42Z</time>
      </trkpt>
      <trkpt lat="43.16493" lon="6.51929">
        <ele>83.3</ele>
        <time>2024-02-04T08:35:43Z</time>
      </trkpt>
      <trkpt lat="43.16492" lon="6.51929">
        <ele>83.5</ele>
        <time>2024-02-04T08:35:44Z</time>
      </trkpt>
      <trkpt lat="43.16492" lon="6.51927">
        <ele>83.6</ele>
        <time>2024-02-04T08:35:45Z</time>
      </trkpt>
      <trkpt lat="43.16491" lon="6.51926">
        <ele>83.8</ele>
        <time>2024-02-04T08:35:46Z</time>
      </trkpt>
      <trkpt lat="43.16491" lon="6.51925">
        <ele>83.9</ele>
        <time>2024-02-04T08:35:47Z</time>
      </trkpt>
      <trkpt lat="43.1649" lon="6.51924">
        <ele>84</ele>
        <time>2024-02-04T08:35:48Z</time>
      </trkpt>
      <trkpt lat="43.16489" lon="6.51924">
        <ele>84</ele>
        <time>2024-02-04T08:35:49Z</time>
      </trkpt>
      <trkpt lat="43.16488" lon="6.51924">
        <ele>84.1</ele>
        <time>2024-02-04T08:35:50Z</time>
      </trkpt>
      <trkpt lat="43.16486" lon="6.51924">
        <ele>84.2</ele>
        <time>2024-02-04T08:35:51Z</time>
      </trkpt>
      <trkpt lat="43.16485" lon="6.51924">
        <ele>84.3</ele>
        <time>2024-02-04T08:35:52Z</time>
      </trkpt>
      <trkpt lat="43.16484" lon="6.51924">
        <ele>84.3</ele>
        <time>2024-02-04T08:35:53Z</time>
      </trkpt>
      <trkpt lat="43.16483" lon="6.51923">
        <ele>84.3</ele>
        <time>2024-02-04T08:35:54Z</time>
      </trkpt>
      <trkpt lat="43.16482" lon="6.51922">
        <ele>84.4</ele>
        <time>2024-02-04T08:35:55Z</time>
      </trkpt>
      <trkpt lat="43.16481" lon="6.51921">
        <ele>84.5</ele>
        <time>2024-02-04T08:35:56Z</time>
      </trkpt>
      <trkpt lat="43.1648" lon="6.5192">
        <ele>84.6</ele>
        <time>2024-02-04T08:35:57Z</time>
      </trkpt>
      <trkpt lat="43.1648" lon="6.51919">
        <ele>84.7</ele>
        <time>2024-02-04T08:35:58Z</time>
      </trkpt>
      <trkpt lat="43.16479" lon="6.51919">
        <ele>84.8</ele>
        <time>2024-02-04T08:35:59Z</time>
      </trkpt>
      <trkpt lat="43.16478" lon="6.51918">
        <ele>84.9</ele>
        <time>2024-02-04T08:36:00Z</time>
      </trkpt>
      <trkpt lat="43.16477" lon="6.51917">
        <ele>85.1</ele>
        <time>2024-02-04T08:36:01Z</time>
      </trkpt>
      <trkpt lat="43.16477" lon="6.51915">
        <ele>85.2</ele>
        <time>2024-02-04T08:36:02Z</time>
      </trkpt>
      <trkpt lat="43.16477" lon="6.51914">
        <ele>85.4</ele>
        <time>2024-02-04T08:36:03Z</time>
      </trkpt>
      <trkpt lat="43.16476" lon="6.51914">
        <ele>85.6</ele>
        <time>2024-02-04T08:36:04Z</time>
      </trkpt>
      <trkpt lat="43.16476" lon="6.51914">
        <ele>85.8</ele>
        <time>2024-02-04T08:36:05Z</time>
      </trkpt>
      <trkpt lat="43.16477" lon="6.51912">
        <ele>86</ele>
        <time>2024-02-04T08:36:06Z</time>
      </trkpt>
      <trkpt lat="43.16477" lon="6.51911">
        <ele>86.2</ele>
        <time>2024-02-04T08:36:07Z</time>
      </trkpt>
      <trkpt lat="43.16476" lon="6.5191">
        <ele>86.4</ele>
        <time>2024-02-04T08:36:08Z</time>
      </trkpt>
      <trkpt lat="43.16476" lon="6.51909">
        <ele>86.6</ele>
        <time>2024-02-04T08:36:09Z</time>
      </trkpt>
      <trkpt lat="43.16476" lon="6.51908">
        <ele>86.7</ele>
        <time>2024-02-04T08:36:10Z</time>
      </trkpt>
      <trkpt lat="43.16475" lon="6.51907">
        <ele>86.9</ele>
        <time>2024-02-04T08:36:11Z</time>
      </trkpt>
      <trkpt lat="43.16476" lon="6.51907">
        <ele>87.1</ele>
        <time>2024-02-04T08:36:12Z</time>
      </trkpt>
      <trkpt lat="43.16476" lon="6.51907">
        <ele>87.3</ele>
        <time>2024-02-04T08:36:13Z</time>
      </trkpt>
      <trkpt lat="43.16475" lon="6.51907">
        <ele>87.5</ele>
        <time>2024-02-04T08:36:14Z</time>
      </trkpt>
      <trkpt lat="43.16475" lon="6.51906">
        <ele>87.6</ele>
        <time>2024-02-04T08:36:15Z</time>
      </trkpt>
      <trkpt lat="43.16475" lon="6.51905">
        <ele>87.7</ele>
        <time>2024-02-04T08:36:16Z</time>
      </trkpt>
      <trkpt lat="43.16474" lon="6.51904">
        <ele>87.9</ele>
        <time>2024-02-04T08:36:17Z</time>
      </trkpt>
      <trkpt lat="43.16474" lon="6.51904">
        <ele>88</ele>
        <time>2024-02-04T08:36:18Z</time>
      </trkpt>
      <trkpt lat="43.16474" lon="6.51903">
        <ele>88</ele>
        <time>2024-02-04T08:36:19Z</time>
      </trkpt>
      <trkpt lat="43.16473" lon="6.51903">
        <ele>88.2</ele>
        <time>2024-02-04T08:36:20Z</time>
      </trkpt>
      <trkpt lat="43.16473" lon="6.51902">
        <ele>88.3</ele>
        <time>2024-02-04T08:36:21Z</time>
      </trkpt>
      <trkpt lat="43.16472" lon="6.519">
        <ele>88.4</ele>
        <time>2024-02-04T08:36:22Z</time>
      </trkpt>
      <trkpt lat="43.16472" lon="6.519">
        <ele>88.7</ele>
        <time>2024-02-04T08:36:23Z</time>
      </trkpt>
      <trkpt lat="43.16472" lon="6.51899">
        <ele>88.9</ele>
        <time>2024-02-04T08:36:24Z</time>
      </trkpt>
      <trkpt lat="43.16472" lon="6.51898">
        <ele>89.1</ele>
        <time>2024-02-04T08:36:25Z</time>
      </trkpt>
      <trkpt lat="43.16472" lon="6.51897">
        <ele>89.3</ele>
        <time>2024-02-04T08:36:26Z</time>
      </trkpt>
      <trkpt lat="43.16471" lon="6.51897">
        <ele>89.4</ele>
        <time>2024-02-04T08:36:27Z</time>
      </trkpt>
      <trkpt lat="43.16471" lon="6.51895">
        <ele>89.6</ele>
        <time>2024-02-04T08:36:28Z</time>
      </trkpt>
      <trkpt lat="43.16471" lon="6.51894">
        <ele>89.7</ele>
        <time>2024-02-04T08:36:29Z</time>
      </trkpt>
      <trkpt lat="43.1647" lon="6.51893">
        <ele>89.8</ele>
        <time>2024-02-04T08:36:30Z</time>
      </trkpt>
      <trkpt lat="43.1647" lon="6.51891">
        <ele>90</ele>
        <time>2024-02-04T08:36:31Z</time>
      </trkpt>
      <trkpt lat="43.16469" lon="6.5189">
        <ele>90.1</ele>
        <time>2024-02-04T08:36:32Z</time>
      </trkpt>
      <trkpt lat="43.16469" lon="6.51889">
        <ele>90.3</ele>
        <time>2024-02-04T08:36:33Z</time>
      </trkpt>
      <trkpt lat="43.16468" lon="6.51888">
        <ele>90.5</ele>
        <time>2024-02-04T08:36:34Z</time>
      </trkpt>
      <trkpt lat="43.16468" lon="6.51886">
        <ele>90.7</ele>
        <time>2024-02-04T08:36:35Z</time>
      </trkpt>
      <trkpt lat="43.16467" lon="6.51885">
        <ele>90.9</ele>
        <time>2024-02-04T08:36:36Z</time>
      </trkpt>
      <trkpt lat="43.16466" lon="6.51883">
        <ele>91.1</ele>
        <time>2024-02-04T08:36:37Z</time>
      </trkpt>
      <trkpt lat="43.16466" lon="6.51882">
        <ele>91.2</ele>
        <time>2024-02-04T08:36:38Z</time>
      </trkpt>
      <trkpt lat="43.16465" lon="6.51881">
        <ele>91.4</ele>
        <time>2024-02-04T08:36:39Z</time>
      </trkpt>
      <trkpt lat="43.16465" lon="6.5188">
        <ele>91.5</ele>
        <time>2024-02-04T08:36:40Z</time>
      </trkpt>
      <trkpt lat="43.16465" lon="6.5188">
        <ele>91.7</ele>
        <time>2024-02-04T08:36:41Z</time>
      </trkpt>
      <trkpt lat="43.16464" lon="6.51879">
        <ele>91.9</ele>
        <time>2024-02-04T08:36:42Z</time>
      </trkpt>
      <trkpt lat="43.16463" lon="6.51878">
        <ele>92.1</ele>
        <time>2024-02-04T08:36:43Z</time>
      </trkpt>
      <trkpt lat="43.16462" lon="6.51877">
        <ele>92.3</ele>
        <time>2024-02-04T08:36:44Z</time>
      </trkpt>
      <trkpt lat="43.16461" lon="6.51876">
        <ele>92.5</ele>
        <time>2024-02-04T08:36:45Z</time>
      </trkpt>
      <trkpt lat="43.16459" lon="6.51875">
        <ele>92.7</ele>
        <time>2024-02-04T08:36:46Z</time>
      </trkpt>
      <trkpt lat="43.16459" lon="6.51874">
        <ele>93</ele>
        <time>2024-02-04T08:36:47Z</time>
      </trkpt>
      <trkpt lat="43.16459" lon="6.51873">
        <ele>93.2</ele>
        <time>2024-02-04T08:36:48Z</time>
      </trkpt>
      <trkpt lat="43.16458" lon="6.51873">
        <ele>93.3</ele>
        <time>2024-02-04T08:36:49Z</time>
      </trkpt>
      <trkpt lat="43.16458" lon="6.51872">
        <ele>93.5</ele>
        <time>2024-02-04T08:36:50Z</time>
      </trkpt>
      <trkpt lat="43.16457" lon="6.51872">
        <ele>93.7</ele>
        <time>2024-02-04T08:36:51Z</time>
      </trkpt>
      <trkpt lat="43.16457" lon="6.51871">
        <ele>93.9</ele>
        <time>2024-02-04T08:36:52Z</time>
      </trkpt>
      <trkpt lat="43.16458" lon="6.5187">
        <ele>94.2</ele>
        <time>2024-02-04T08:36:53Z</time>
      </trkpt>
      <trkpt lat="43.16457" lon="6.51868">
        <ele>94.4</ele>
        <time>2024-02-04T08:36:54Z</time>
      </trkpt>
      <trkpt lat="43.16457" lon="6.51866">
        <ele>94.7</ele>
        <time>2024-02-04T08:36:55Z</time>
      </trkpt>
      <trkpt lat="43.16456" lon="6.51865">
        <ele>94.9</ele>
        <time>2024-02-04T08:36:56Z</time>
      </trkpt>
      <trkpt lat="43.16455" lon="6.51864">
        <ele>95.1</ele>
        <time>2024-02-04T08:36:57Z</time>
      </trkpt>
      <trkpt lat="43.16454" lon="6.51863">
        <ele>95.3</ele>
        <time>2024-02-04T08:36:58Z</time>
      </trkpt>
      <trkpt lat="43.16454" lon="6.51863">
        <ele>95.5</ele>
        <time>2024-02-04T08:36:59Z</time>
      </trkpt>
      <trkpt lat="43.16454" lon="6.51862">
        <ele>95.8</ele>
        <time>2024-02-04T08:37:00Z</time>
      </trkpt>
      <trkpt lat="43.16452" lon="6.5186">
        <ele>96</ele>
        <time>2024-02-04T08:37:01Z</time>
      </trkpt>
      <trkpt lat="43.16452" lon="6.51859">
        <ele>96.2</ele>
        <time>2024-02-04T08:37:02Z</time>
      </trkpt>
      <trkpt lat="43.1645" lon="6.51859">
        <ele>96.3</ele>
        <time>2024-02-04T08:37:03Z</time>
      </trkpt>
      <trkpt lat="43.1645" lon="6.51858">
        <ele>96.5</ele>
        <time>2024-02-04T08:37:04Z</time>
      </trkpt>
      <trkpt lat="43.16449" lon="6.51857">
        <ele>96.7</ele>
        <time>2024-02-04T08:37:05Z</time>
      </trkpt>
      <trkpt lat="43.16448" lon="6.51856">
        <ele>96.9</ele>
        <time>2024-02-04T08:37:06Z</time>
      </trkpt>
      <trkpt lat="43.16447" lon="6.51855">
        <ele>97.1</ele>
        <time>2024-02-04T08:37:07Z</time>
      </trkpt>
      <trkpt lat="43.16447" lon="6.51854">
        <ele>97.2</ele>
        <time>2024-02-04T08:37:08Z</time>
      </trkpt>
      <trkpt lat="43.16446" lon="6.51854">
        <ele>97.3</ele>
        <time>2024-02-04T08:37:09Z</time>
      </trkpt>
      <trkpt lat="43.16446" lon="6.51854">
        <ele>97.4</ele>
        <time>2024-02-04T08:37:10Z</time>
      </trkpt>
      <trkpt lat="43.16444" lon="6.51854">
        <ele>97.4</ele>
        <time>2024-02-04T08:37:11Z</time>
      </trkpt>
      <trkpt lat="43.16443" lon="6.51853">
        <ele>97.6</ele>
        <time>2024-02-04T08:37:12Z</time>
      </trkpt>
      <trkpt lat="43.16442" lon="6.51852">
        <ele>97.8</ele>
        <time>2024-02-04T08:37:13Z</time>
      </trkpt>
      <trkpt lat="43.16442" lon="6.51851">
        <ele>97.9</ele>
        <time>2024-02-04T08:37:14Z</time>
      </trkpt>
      <trkpt lat="43.16441" lon="6.51851">
        <ele>97.9</ele>
        <time>2024-02-04T08:37:15Z</time>
      </trkpt>
      <trkpt lat="43.16441" lon="6.5185">
        <ele>98.1</ele>
        <time>2024-02-04T08:37:16Z</time>
      </trkpt>
      <trkpt lat="43.1644" lon="6.5185">
        <ele>98.3</ele>
        <time>2024-02-04T08:37:17Z</time>
      </trkpt>
      <trkpt lat="43.16439" lon="6.51849">
        <ele>98.5</ele>
        <time>2024-02-04T08:37:18Z</time>
      </trkpt>
      <trkpt lat="43.16439" lon="6.51849">
        <ele>98.5</ele>
        <time>2024-02-04T08:37:19Z</time>
      </trkpt>
      <trkpt lat="43.16438" lon="6.51848">
        <ele>98.5</ele>
        <time>2024-02-04T08:37:20Z</time>
      </trkpt>
      <trkpt lat="43.16438" lon="6.51847">
        <ele>98.6</ele>
        <time>2024-02-04T08:37:21Z</time>
      </trkpt>
      <trkpt lat="43.16437" lon="6.51847">
        <ele>98.6</ele>
        <time>2024-02-04T08:37:22Z</time>
      </trkpt>
      <trkpt lat="43.16436" lon="6.51846">
        <ele>98.7</ele>
        <time>2024-02-04T08:37:23Z</time>
      </trkpt>
      <trkpt lat="43.16435" lon="6.51845">
        <ele>98.8</ele>
        <time>2024-02-04T08:37:24Z</time>
      </trkpt>
      <trkpt lat="43.16435" lon="6.51843">
        <ele>99</ele>
        <time>2024-02-04T08:37:25Z</time>
      </trkpt>
      <trkpt lat="43.16434" lon="6.51842">
        <ele>99.1</ele>
        <time>2024-02-04T08:37:26Z</time>
      </trkpt>
      <trkpt lat="43.16433" lon="6.51841">
        <ele>99.3</ele>
        <time>2024-02-04T08:37:27Z</time>
      </trkpt>
      <trkpt lat="43.16432" lon="6.51841">
        <ele>99.4</ele>
        <time>2024-02-04T08:37:28Z</time>
      </trkpt>
      <trkpt lat="43.16431" lon="6.5184">
        <ele>99.5</ele>
        <time>2024-02-04T08:37:29Z</time>
      </trkpt>
      <trkpt lat="43.1643" lon="6.51839">
        <ele>99.7</ele>
        <time>2024-02-04T08:37:30Z</time>
      </trkpt>
      <trkpt lat="43.1643" lon="6.51838">
        <ele>99.8</ele>
        <time>2024-02-04T08:37:31Z</time>
      </trkpt>
      <trkpt lat="43.16429" lon="6.51837">
        <ele>99.9</ele>
        <time>2024-02-04T08:37:32Z</time>
      </trkpt>
      <trkpt lat="43.16429" lon="6.51837">
        <ele>100.1</ele>
        <time>2024-02-04T08:37:33Z</time>
      </trkpt>
      <trkpt lat="43.16428" lon="6.51836">
        <ele>100.3</ele>
        <time>2024-02-04T08:37:34Z</time>
      </trkpt>
      <trkpt lat="43.16427" lon="6.51835">
        <ele>100.4</ele>
        <time>2024-02-04T08:37:35Z</time>
      </trkpt>
      <trkpt lat="43.16426" lon="6.51835">
        <ele>100.6</ele>
        <time>2024-02-04T08:37:36Z</time>
      </trkpt>
      <trkpt lat="43.16426" lon="6.51834">
        <ele>100.7</ele>
        <time>2024-02-04T08:37:37Z</time>
      </trkpt>
      <trkpt lat="43.16425" lon="6.51834">
        <ele>100.8</ele>
        <time>2024-02-04T08:37:38Z</time>
      </trkpt>
      <trkpt lat="43.16424" lon="6.51833">
        <ele>101</ele>
        <time>2024-02-04T08:37:39Z</time>
      </trkpt>
      <trkpt lat="43.16423" lon="6.51833">
        <ele>101.1</ele>
        <time>2024-02-04T08:37:40Z</time>
      </trkpt>
      <trkpt lat="43.16423" lon="6.51832">
        <ele>101.2</ele>
        <time>2024-02-04T08:37:41Z</time>
      </trkpt>
      <trkpt lat="43.16423" lon="6.51831">
        <ele>101.3</ele>
        <time>2024-02-04T08:37:42Z</time>
      </trkpt>
      <trkpt lat="43.16422" lon="6.51831">
        <ele>101.5</ele>
        <time>2024-02-04T08:37:43Z</time>
      </trkpt>
      <trkpt lat="43.16421" lon="6.51831">
        <ele>101.6</ele>
        <time>2024-02-04T08:37:44Z</time>
      </trkpt>
      <trkpt lat="43.16421" lon="6.5183">
        <ele>101.8</ele>
        <time>2024-02-04T08:37:45Z</time>
      </trkpt>
      <trkpt lat="43.1642" lon="6.51829">
        <ele>101.9</ele>
        <time>2024-02-04T08:37:46Z</time>
      </trkpt>
      <trkpt lat="43.16419" lon="6.51829">
        <ele>102</ele>
        <time>2024-02-04T08:37:47Z</time>
      </trkpt>
      <trkpt lat="43.16418" lon="6.51828">
        <ele>102.2</ele>
        <time>2024-02-04T08:37:48Z</time>
      </trkpt>
      <trkpt lat="43.16417" lon="6.51828">
        <ele>102.4</ele>
        <time>2024-02-04T08:37:49Z</time>
      </trkpt>
      <trkpt lat="43.16416" lon="6.51827">
        <ele>102.6</ele>
        <time>2024-02-04T08:37:50Z</time>
      </trkpt>
      <trkpt lat="43.16416" lon="6.51827">
        <ele>102.8</ele>
        <time>2024-02-04T08:37:51Z</time>
      </trkpt>
      <trkpt lat="43.16415" lon="6.51826">
        <ele>102.9</ele>
        <time>2024-02-04T08:37:52Z</time>
      </trkpt>
      <trkpt lat="43.16414" lon="6.51826">
        <ele>103</ele>
        <time>2024-02-04T08:37:53Z</time>
      </trkpt>
      <trkpt lat="43.16413" lon="6.51826">
        <ele>103.2</ele>
        <time>2024-02-04T08:37:54Z</time>
      </trkpt>
      <trkpt lat="43.16413" lon="6.51825">
        <ele>103.4</ele>
        <time>2024-02-04T08:37:55Z</time>
      </trkpt>
      <trkpt lat="43.16412" lon="6.51825">
        <ele>103.5</ele>
        <time>2024-02-04T08:37:56Z</time>
      </trkpt>
      <trkpt lat="43.16411" lon="6.51824">
        <ele>103.6</ele>
        <time>2024-02-04T08:37:57Z</time>
      </trkpt>
      <trkpt lat="43.16411" lon="6.51824">
        <ele>103.7</ele>
        <time>2024-02-04T08:37:58Z</time>
      </trkpt>
      <trkpt lat="43.1641" lon="6.51823">
        <ele>103.9</ele>
        <time>2024-02-04T08:37:59Z</time>
      </trkpt>
      <trkpt lat="43.16409" lon="6.51823">
        <ele>104</ele>
        <time>2024-02-04T08:38:00Z</time>
      </trkpt>
      <trkpt lat="43.16408" lon="6.51823">
        <ele>104.1</ele>
        <time>2024-02-04T08:38:01Z</time>
      </trkpt>
      <trkpt lat="43.16407" lon="6.51822">
        <ele>104.2</ele>
        <time>2024-02-04T08:38:02Z</time>
      </trkpt>
      <trkpt lat="43.16406" lon="6.51821">
        <ele>104.3</ele>
        <time>2024-02-04T08:38:03Z</time>
      </trkpt>
      <trkpt lat="43.16405" lon="6.51821">
        <ele>104.5</ele>
        <time>2024-02-04T08:38:04Z</time>
      </trkpt>
      <trkpt lat="43.16404" lon="6.5182">
        <ele>104.6</ele>
        <time>2024-02-04T08:38:05Z</time>
      </trkpt>
      <trkpt lat="43.16403" lon="6.51819">
        <ele>104.7</ele>
        <time>2024-02-04T08:38:06Z</time>
      </trkpt>
      <trkpt lat="43.16402" lon="6.51818">
        <ele>104.8</ele>
        <time>2024-02-04T08:38:07Z</time>
      </trkpt>
      <trkpt lat="43.16402" lon="6.51818">
        <ele>104.9</ele>
        <time>2024-02-04T08:38:08Z</time>
      </trkpt>
      <trkpt lat="43.16401" lon="6.51817">
        <ele>105.2</ele>
        <time>2024-02-04T08:38:09Z</time>
      </trkpt>
      <trkpt lat="43.16399" lon="6.51817">
        <ele>105.4</ele>
        <time>2024-02-04T08:38:10Z</time>
      </trkpt>
      <trkpt lat="43.16398" lon="6.51816">
        <ele>105.6</ele>
        <time>2024-02-04T08:38:11Z</time>
      </trkpt>
      <trkpt lat="43.16397" lon="6.51816">
        <ele>105.8</ele>
        <time>2024-02-04T08:38:12Z</time>
      </trkpt>
      <trkpt lat="43.16396" lon="6.51815">
        <ele>106</ele>
        <time>2024-02-04T08:38:13Z</time>
      </trkpt>
      <trkpt lat="43.16395" lon="6.51815">
        <ele>106.1</ele>
        <time>2024-02-04T08:38:14Z</time>
      </trkpt>
      <trkpt lat="43.16393" lon="6.51815">
        <ele>106.2</ele>
        <time>2024-02-04T08:38:15Z</time>
      </trkpt>
      <trkpt lat="43.16392" lon="6.51814">
        <ele>106.4</ele>
        <time>2024-02-04T08:38:16Z</time>
      </trkpt>
      <trkpt lat="43.16392" lon="6.51814">
        <ele>106.5</ele>
        <time>2024-02-04T08:38:17Z</time>
      </trkpt>
      <trkpt lat="43.16391" lon="6.51813">
        <ele>106.9</ele>
        <time>2024-02-04T08:38:18Z</time>
      </trkpt>
      <trkpt lat="43.1639" lon="6.51813">
        <ele>107</ele>
        <time>2024-02-04T08:38:19Z</time>
      </trkpt>
      <trkpt lat="43.16389" lon="6.51812">
        <ele>107.1</ele>
        <time>2024-02-04T08:38:20Z</time>
      </trkpt>
      <trkpt lat="43.16387" lon="6.51811">
        <ele>107.2</ele>
        <time>2024-02-04T08:38:21Z</time>
      </trkpt>
      <trkpt lat="43.16386" lon="6.5181">
        <ele>107.4</ele>
        <time>2024-02-04T08:38:22Z</time>
      </trkpt>
      <trkpt lat="43.16385" lon="6.5181">
        <ele>107.7</ele>
        <time>2024-02-04T08:38:23Z</time>
      </trkpt>
      <trkpt lat="43.16385" lon="6.5181">
        <ele>107.9</ele>
        <time>2024-02-04T08:38:24Z</time>
      </trkpt>
      <trkpt lat="43.16384" lon="6.5181">
        <ele>108</ele>
        <time>2024-02-04T08:38:25Z</time>
      </trkpt>
      <trkpt lat="43.16383" lon="6.51809">
        <ele>108.2</ele>
        <time>2024-02-04T08:38:26Z</time>
      </trkpt>
      <trkpt lat="43.16381" lon="6.51809">
        <ele>108.3</ele>
        <time>2024-02-04T08:38:27Z</time>
      </trkpt>
      <trkpt lat="43.16381" lon="6.51809">
        <ele>108.4</ele>
        <time>2024-02-04T08:38:28Z</time>
      </trkpt>
      <trkpt lat="43.1638" lon="6.51808">
        <ele>108.4</ele>
        <time>2024-02-04T08:38:29Z</time>
      </trkpt>
      <trkpt lat="43.16379" lon="6.51808">
        <ele>108.6</ele>
        <time>2024-02-04T08:38:30Z</time>
      </trkpt>
      <trkpt lat="43.16378" lon="6.51807">
        <ele>108.7</ele>
        <time>2024-02-04T08:38:31Z</time>
      </trkpt>
      <trkpt lat="43.16377" lon="6.51806">
        <ele>108.9</ele>
        <time>2024-02-04T08:38:32Z</time>
      </trkpt>
      <trkpt lat="43.16377" lon="6.51806">
        <ele>108.9</ele>
        <time>2024-02-04T08:38:33Z</time>
      </trkpt>
      <trkpt lat="43.16376" lon="6.51805">
        <ele>109.1</ele>
        <time>2024-02-04T08:38:34Z</time>
      </trkpt>
      <trkpt lat="43.16375" lon="6.51805">
        <ele>109.1</ele>
        <time>2024-02-04T08:38:35Z</time>
      </trkpt>
      <trkpt lat="43.16375" lon="6.51804">
        <ele>109.3</ele>
        <time>2024-02-04T08:38:36Z</time>
      </trkpt>
      <trkpt lat="43.16373" lon="6.51804">
        <ele>109.4</ele>
        <time>2024-02-04T08:38:37Z</time>
      </trkpt>
      <trkpt lat="43.16373" lon="6.51803">
        <ele>109.6</ele>
        <time>2024-02-04T08:38:38Z</time>
      </trkpt>
      <trkpt lat="43.16372" lon="6.51802">
        <ele>109.8</ele>
        <time>2024-02-04T08:38:39Z</time>
      </trkpt>
      <trkpt lat="43.16371" lon="6.51802">
        <ele>109.9</ele>
        <time>2024-02-04T08:38:40Z</time>
      </trkpt>
      <trkpt lat="43.1637" lon="6.51801">
        <ele>110</ele>
        <time>2024-02-04T08:38:41Z</time>
      </trkpt>
      <trkpt lat="43.16369" lon="6.51801">
        <ele>110.2</ele>
        <time>2024-02-04T08:38:42Z</time>
      </trkpt>
      <trkpt lat="43.16368" lon="6.518">
        <ele>110.4</ele>
        <time>2024-02-04T08:38:43Z</time>
      </trkpt>
      <trkpt lat="43.16367" lon="6.518">
        <ele>110.5</ele>
        <time>2024-02-04T08:38:44Z</time>
      </trkpt>
      <trkpt lat="43.16367" lon="6.51799">
        <ele>110.7</ele>
        <time>2024-02-04T08:38:45Z</time>
      </trkpt>
      <trkpt lat="43.16366" lon="6.51798">
        <ele>110.7</ele>
        <time>2024-02-04T08:38:46Z</time>
      </trkpt>
      <trkpt lat="43.16365" lon="6.51798">
        <ele>110.8</ele>
        <time>2024-02-04T08:38:47Z</time>
      </trkpt>
      <trkpt lat="43.16364" lon="6.51798">
        <ele>110.9</ele>
        <time>2024-02-04T08:38:48Z</time>
      </trkpt>
      <trkpt lat="43.16363" lon="6.51797">
        <ele>111</ele>
        <time>2024-02-04T08:38:49Z</time>
      </trkpt>
      <trkpt lat="43.16362" lon="6.51797">
        <ele>111.2</ele>
        <time>2024-02-04T08:38:50Z</time>
      </trkpt>
      <trkpt lat="43.16361" lon="6.51796">
        <ele>111.3</ele>
        <time>2024-02-04T08:38:51Z</time>
      </trkpt>
      <trkpt lat="43.1636" lon="6.51795">
        <ele>111.6</ele>
        <time>2024-02-04T08:38:52Z</time>
      </trkpt>
      <trkpt lat="43.16359" lon="6.51795">
        <ele>111.9</ele>
        <time>2024-02-04T08:38:53Z</time>
      </trkpt>
      <trkpt lat="43.16358" lon="6.51794">
        <ele>112</ele>
        <time>2024-02-04T08:38:54Z</time>
      </trkpt>
      <trkpt lat="43.16357" lon="6.51794">
        <ele>112.2</ele>
        <time>2024-02-04T08:38:55Z</time>
      </trkpt>
      <trkpt lat="43.16356" lon="6.51794">
        <ele>112.4</ele>
        <time>2024-02-04T08:38:56Z</time>
      </trkpt>
      <trkpt lat="43.16355" lon="6.51793">
        <ele>112.5</ele>
        <time>2024-02-04T08:38:57Z</time>
      </trkpt>
      <trkpt lat="43.16354" lon="6.51792">
        <ele>112.7</ele>
        <time>2024-02-04T08:38:58Z</time>
      </trkpt>
      <trkpt lat="43.16354" lon="6.5179">
        <ele>112.9</ele>
        <time>2024-02-04T08:38:59Z</time>
      </trkpt>
      <trkpt lat="43.16353" lon="6.51789">
        <ele>112.9</ele>
        <time>2024-02-04T08:39:00Z</time>
      </trkpt>
      <trkpt lat="43.16352" lon="6.51789">
        <ele>113.1</ele>
        <time>2024-02-04T08:39:01Z</time>
      </trkpt>
      <trkpt lat="43.16352" lon="6.51789">
        <ele>113.2</ele>
        <time>2024-02-04T08:39:02Z</time>
      </trkpt>
      <trkpt lat="43.16351" lon="6.51788">
        <ele>113.3</ele>
        <time>2024-02-04T08:39:03Z</time>
      </trkpt>
      <trkpt lat="43.1635" lon="6.51788">
        <ele>113.6</ele>
        <time>2024-02-04T08:39:04Z</time>
      </trkpt>
      <trkpt lat="43.16349" lon="6.51788">
        <ele>113.8</ele>
        <time>2024-02-04T08:39:05Z</time>
      </trkpt>
      <trkpt lat="43.16348" lon="6.51787">
        <ele>113.9</ele>
        <time>2024-02-04T08:39:06Z</time>
      </trkpt>
      <trkpt lat="43.16347" lon="6.51787">
        <ele>114</ele>
        <time>2024-02-04T08:39:07Z</time>
      </trkpt>
      <trkpt lat="43.16347" lon="6.51786">
        <ele>114.1</ele>
        <time>2024-02-04T08:39:08Z</time>
      </trkpt>
      <trkpt lat="43.16346" lon="6.51785">
        <ele>114.3</ele>
        <time>2024-02-04T08:39:09Z</time>
      </trkpt>
      <trkpt lat="43.16346" lon="6.51784">
        <ele>114.4</ele>
        <time>2024-02-04T08:39:10Z</time>
      </trkpt>
      <trkpt lat="43.16345" lon="6.51784">
        <ele>114.6</ele>
        <time>2024-02-04T08:39:11Z</time>
      </trkpt>
      <trkpt lat="43.16345" lon="6.51783">
        <ele>114.7</ele>
        <time>2024-02-04T08:39:12Z</time>
      </trkpt>
      <trkpt lat="43.16344" lon="6.51782">
        <ele>115</ele>
        <time>2024-02-04T08:39:13Z</time>
      </trkpt>
      <trkpt lat="43.16343" lon="6.51782">
        <ele>115.2</ele>
        <time>2024-02-04T08:39:14Z</time>
      </trkpt>
      <trkpt lat="43.16342" lon="6.51781">
        <ele>115.3</ele>
        <time>2024-02-04T08:39:15Z</time>
      </trkpt>
      <trkpt lat="43.16342" lon="6.51781">
        <ele>115.5</ele>
        <time>2024-02-04T08:39:16Z</time>
      </trkpt>
      <trkpt lat="43.16341" lon="6.51781">
        <ele>115.7</ele>
        <time>2024-02-04T08:39:17Z</time>
      </trkpt>
      <trkpt lat="43.16341" lon="6.51781">
        <ele>115.8</ele>
        <time>2024-02-04T08:39:18Z</time>
      </trkpt>
      <trkpt lat="43.1634" lon="6.51781">
        <ele>115.9</ele>
        <time>2024-02-04T08:39:19Z</time>
      </trkpt>
      <trkpt lat="43.16339" lon="6.51781">
        <ele>116.1</ele>
        <time>2024-02-04T08:39:20Z</time>
      </trkpt>
      <trkpt lat="43.16338" lon="6.5178">
        <ele>116.3</ele>
        <time>2024-02-04T08:39:21Z</time>
      </trkpt>
      <trkpt lat="43.16337" lon="6.51779">
        <ele>116.5</ele>
        <time>2024-02-04T08:39:22Z</time>
      </trkpt>
      <trkpt lat="43.16337" lon="6.51778">
        <ele>116.6</ele>
        <time>2024-02-04T08:39:23Z</time>
      </trkpt>
      <trkpt lat="43.16336" lon="6.51777">
        <ele>116.8</ele>
        <time>2024-02-04T08:39:24Z</time>
      </trkpt>
      <trkpt lat="43.16335" lon="6.51777">
        <ele>116.9</ele>
        <time>2024-02-04T08:39:25Z</time>
      </trkpt>
      <trkpt lat="43.16334" lon="6.51777">
        <ele>117</ele>
        <time>2024-02-04T08:39:26Z</time>
      </trkpt>
      <trkpt lat="43.16333" lon="6.51776">
        <ele>117.1</ele>
        <time>2024-02-04T08:39:27Z</time>
      </trkpt>
      <trkpt lat="43.16332" lon="6.51776">
        <ele>117.3</ele>
        <time>2024-02-04T08:39:28Z</time>
      </trkpt>
      <trkpt lat="43.16332" lon="6.51775">
        <ele>117.4</ele>
        <time>2024-02-04T08:39:29Z</time>
      </trkpt>
      <trkpt lat="43.16331" lon="6.51775">
        <ele>117.6</ele>
        <time>2024-02-04T08:39:30Z</time>
      </trkpt>
      <trkpt lat="43.16331" lon="6.51774">
        <ele>117.8</ele>
        <time>2024-02-04T08:39:31Z</time>
      </trkpt>
      <trkpt lat="43.1633" lon="6.51773">
        <ele>118</ele>
        <time>2024-02-04T08:39:32Z</time>
      </trkpt>
      <trkpt lat="43.1633" lon="6.51773">
        <ele>118.1</ele>
        <time>2024-02-04T08:39:33Z</time>
      </trkpt>
      <trkpt lat="43.1633" lon="6.51772">
        <ele>118.2</ele>
        <time>2024-02-04T08:39:34Z</time>
      </trkpt>
      <trkpt lat="43.16329" lon="6.51771">
        <ele>118.5</ele>
        <time>2024-02-04T08:39:35Z</time>
      </trkpt>
      <trkpt lat="43.16328" lon="6.5177">
        <ele>118.6</ele>
        <time>2024-02-04T08:39:36Z</time>
      </trkpt>
      <trkpt lat="43.16328" lon="6.5177">
        <ele>118.8</ele>
        <time>2024-02-04T08:39:37Z</time>
      </trkpt>
      <trkpt lat="43.16328" lon="6.51769">
        <ele>118.9</ele>
        <time>2024-02-04T08:39:38Z</time>
      </trkpt>
      <trkpt lat="43.16327" lon="6.51768">
        <ele>119</ele>
        <time>2024-02-04T08:39:39Z</time>
      </trkpt>
      <trkpt lat="43.16327" lon="6.51767">
        <ele>119.2</ele>
        <time>2024-02-04T08:39:40Z</time>
      </trkpt>
      <trkpt lat="43.16326" lon="6.51766">
        <ele>119.4</ele>
        <time>2024-02-04T08:39:41Z</time>
      </trkpt>
      <trkpt lat="43.16326" lon="6.51765">
        <ele>119.5</ele>
        <time>2024-02-04T08:39:42Z</time>
      </trkpt>
      <trkpt lat="43.16325" lon="6.51764">
        <ele>119.7</ele>
        <time>2024-02-04T08:39:43Z</time>
      </trkpt>
      <trkpt lat="43.16325" lon="6.51763">
        <ele>119.9</ele>
        <time>2024-02-04T08:39:44Z</time>
      </trkpt>
      <trkpt lat="43.16324" lon="6.51762">
        <ele>120.1</ele>
        <time>2024-02-04T08:39:45Z</time>
      </trkpt>
      <trkpt lat="43.16324" lon="6.51761">
        <ele>120.3</ele>
        <time>2024-02-04T08:39:46Z</time>
      </trkpt>
      <trkpt lat="43.16323" lon="6.5176">
        <ele>120.6</ele>
        <time>2024-02-04T08:39:47Z</time>
      </trkpt>
      <trkpt lat="43.16323" lon="6.51759">
        <ele>120.8</ele>
        <time>2024-02-04T08:39:48Z</time>
      </trkpt>
      <trkpt lat="43.16323" lon="6.51757">
        <ele>121</ele>
        <time>2024-02-04T08:39:49Z</time>
      </trkpt>
      <trkpt lat="43.16323" lon="6.51756">
        <ele>121.1</ele>
        <time>2024-02-04T08:39:50Z</time>
      </trkpt>
      <trkpt lat="43.16322" lon="6.51755">
        <ele>121.3</ele>
        <time>2024-02-04T08:39:51Z</time>
      </trkpt>
      <trkpt lat="43.16323" lon="6.51753">
        <ele>121.4</ele>
        <time>2024-02-04T08:39:52Z</time>
      </trkpt>
      <trkpt lat="43.16322" lon="6.51752">
        <ele>121.6</ele>
        <time>2024-02-04T08:39:53Z</time>
      </trkpt>
      <trkpt lat="43.16322" lon="6.51751">
        <ele>121.7</ele>
        <time>2024-02-04T08:39:54Z</time>
      </trkpt>
      <trkpt lat="43.16321" lon="6.5175">
        <ele>121.9</ele>
        <time>2024-02-04T08:39:55Z</time>
      </trkpt>
      <trkpt lat="43.16321" lon="6.51749">
        <ele>122</ele>
        <time>2024-02-04T08:39:56Z</time>
      </trkpt>
      <trkpt lat="43.16321" lon="6.51748">
        <ele>122.1</ele>
        <time>2024-02-04T08:39:57Z</time>
      </trkpt>
      <trkpt lat="43.1632" lon="6.51746">
        <ele>122.1</ele>
        <time>2024-02-04T08:39:58Z</time>
      </trkpt>
      <trkpt lat="43.1632" lon="6.51745">
        <ele>122.4</ele>
        <time>2024-02-04T08:39:59Z</time>
      </trkpt>
      <trkpt lat="43.1632" lon="6.51744">
        <ele>122.5</ele>
        <time>2024-02-04T08:40:00Z</time>
      </trkpt>
      <trkpt lat="43.1632" lon="6.51742">
        <ele>122.6</ele>
        <time>2024-02-04T08:40:01Z</time>
      </trkpt>
      <trkpt lat="43.16319" lon="6.51741">
        <ele>122.7</ele>
        <time>2024-02-04T08:40:02Z</time>
      </trkpt>
      <trkpt lat="43.16319" lon="6.5174">
        <ele>122.8</ele>
        <time>2024-02-04T08:40:03Z</time>
      </trkpt>
      <trkpt lat="43.16319" lon="6.51739">
        <ele>122.9</ele>
        <time>2024-02-04T08:40:04Z</time>
      </trkpt>
      <trkpt lat="43.16318" lon="6.51738">
        <ele>123.2</ele>
        <time>2024-02-04T08:40:05Z</time>
      </trkpt>
      <trkpt lat="43.16318" lon="6.51737">
        <ele>123.4</ele>
        <time>2024-02-04T08:40:06Z</time>
      </trkpt>
      <trkpt lat="43.16317" lon="6.51736">
        <ele>123.6</ele>
        <time>2024-02-04T08:40:07Z</time>
      </trkpt>
      <trkpt lat="43.16317" lon="6.51735">
        <ele>123.7</ele>
        <time>2024-02-04T08:40:08Z</time>
      </trkpt>
      <trkpt lat="43.16317" lon="6.51734">
        <ele>123.7</ele>
        <time>2024-02-04T08:40:09Z</time>
      </trkpt>
      <trkpt lat="43.16316" lon="6.51733">
        <ele>123.8</ele>
        <time>2024-02-04T08:40:10Z</time>
      </trkpt>
      <trkpt lat="43.16317" lon="6.51731">
        <ele>123.8</ele>
        <time>2024-02-04T08:40:11Z</time>
      </trkpt>
      <trkpt lat="43.16317" lon="6.5173">
        <ele>123.9</ele>
        <time>2024-02-04T08:40:12Z</time>
      </trkpt>
      <trkpt lat="43.16316" lon="6.51729">
        <ele>124</ele>
        <time>2024-02-04T08:40:13Z</time>
      </trkpt>
      <trkpt lat="43.16316" lon="6.51728">
        <ele>124.1</ele>
        <time>2024-02-04T08:40:14Z</time>
      </trkpt>
      <trkpt lat="43.16315" lon="6.51727">
        <ele>124.3</ele>
        <time>2024-02-04T08:40:15Z</time>
      </trkpt>
      <trkpt lat="43.16315" lon="6.51726">
        <ele>124.4</ele>
        <time>2024-02-04T08:40:16Z</time>
      </trkpt>
      <trkpt lat="43.16315" lon="6.51725">
        <ele>124.5</ele>
        <time>2024-02-04T08:40:17Z</time>
      </trkpt>
      <trkpt lat="43.16314" lon="6.51724">
        <ele>124.7</ele>
        <time>2024-02-04T08:40:18Z</time>
      </trkpt>
      <trkpt lat="43.16314" lon="6.51723">
        <ele>124.8</ele>
        <time>2024-02-04T08:40:19Z</time>
      </trkpt>
      <trkpt lat="43.16314" lon="6.51722">
        <ele>124.9</ele>
        <time>2024-02-04T08:40:20Z</time>
      </trkpt>
      <trkpt lat="43.16313" lon="6.51721">
        <ele>125.1</ele>
        <time>2024-02-04T08:40:21Z</time>
      </trkpt>
      <trkpt lat="43.16313" lon="6.5172">
        <ele>125.2</ele>
        <time>2024-02-04T08:40:22Z</time>
      </trkpt>
      <trkpt lat="43.16312" lon="6.51718">
        <ele>125.4</ele>
        <time>2024-02-04T08:40:23Z</time>
      </trkpt>
      <trkpt lat="43.16312" lon="6.51717">
        <ele>125.6</ele>
        <time>2024-02-04T08:40:24Z</time>
      </trkpt>
      <trkpt lat="43.16312" lon="6.51716">
        <ele>125.8</ele>
        <time>2024-02-04T08:40:25Z</time>
      </trkpt>
      <trkpt lat="43.16311" lon="6.51715">
        <ele>126</ele>
        <time>2024-02-04T08:40:26Z</time>
      </trkpt>
      <trkpt lat="43.1631" lon="6.51714">
        <ele>126.2</ele>
        <time>2024-02-04T08:40:27Z</time>
      </trkpt>
      <trkpt lat="43.1631" lon="6.51713">
        <ele>126.4</ele>
        <time>2024-02-04T08:40:28Z</time>
      </trkpt>
      <trkpt lat="43.1631" lon="6.51712">
        <ele>126.6</ele>
        <time>2024-02-04T08:40:29Z</time>
      </trkpt>
      <trkpt lat="43.16309" lon="6.51711">
        <ele>126.7</ele>
        <time>2024-02-04T08:40:30Z</time>
      </trkpt>
      <trkpt lat="43.16308" lon="6.5171">
        <ele>126.9</ele>
        <time>2024-02-04T08:40:31Z</time>
      </trkpt>
      <trkpt lat="43.16308" lon="6.51709">
        <ele>127</ele>
        <time>2024-02-04T08:40:32Z</time>
      </trkpt>
      <trkpt lat="43.16307" lon="6.51708">
        <ele>127.1</ele>
        <time>2024-02-04T08:40:33Z</time>
      </trkpt>
      <trkpt lat="43.16307" lon="6.51708">
        <ele>127.2</ele>
        <time>2024-02-04T08:40:34Z</time>
      </trkpt>
      <trkpt lat="43.16306" lon="6.51707">
        <ele>127.4</ele>
        <time>2024-02-04T08:40:35Z</time>
      </trkpt>
      <trkpt lat="43.16306" lon="6.51706">
        <ele>127.6</ele>
        <time>2024-02-04T08:40:36Z</time>
      </trkpt>
      <trkpt lat="43.16306" lon="6.51705">
        <ele>127.9</ele>
        <time>2024-02-04T08:40:37Z</time>
      </trkpt>
      <trkpt lat="43.16306" lon="6.51704">
        <ele>127.9</ele>
        <time>2024-02-04T08:40:38Z</time>
      </trkpt>
      <trkpt lat="43.16306" lon="6.51703">
        <ele>128.2</ele>
        <time>2024-02-04T08:40:39Z</time>
      </trkpt>
      <trkpt lat="43.16306" lon="6.51703">
        <ele>128.4</ele>
        <time>2024-02-04T08:40:40Z</time>
      </trkpt>
      <trkpt lat="43.16305" lon="6.51701">
        <ele>128.5</ele>
        <time>2024-02-04T08:40:41Z</time>
      </trkpt>
      <trkpt lat="43.16305" lon="6.517">
        <ele>128.6</ele>
        <time>2024-02-04T08:40:42Z</time>
      </trkpt>
      <trkpt lat="43.16305" lon="6.51699">
        <ele>128.8</ele>
        <time>2024-02-04T08:40:43Z</time>
      </trkpt>
      <trkpt lat="43.16304" lon="6.51699">
        <ele>129</ele>
        <time>2024-02-04T08:40:44Z</time>
      </trkpt>
      <trkpt lat="43.16304" lon="6.51698">
        <ele>129.1</ele>
        <time>2024-02-04T08:40:45Z</time>
      </trkpt>
      <trkpt lat="43.16303" lon="6.51697">
        <ele>129.3</ele>
        <time>2024-02-04T08:40:46Z</time>
      </trkpt>
      <trkpt lat="43.16303" lon="6.51695">
        <ele>129.5</ele>
        <time>2024-02-04T08:40:47Z</time>
      </trkpt>
      <trkpt lat="43.16303" lon="6.51694">
        <ele>129.7</ele>
        <time>2024-02-04T08:40:48Z</time>
      </trkpt>
      <trkpt lat="43.16302" lon="6.51693">
        <ele>129.9</ele>
        <time>2024-02-04T08:40:49Z</time>
      </trkpt>
      <trkpt lat="43.16302" lon="6.51693">
        <ele>130.1</ele>
        <time>2024-02-04T08:40:50Z</time>
      </trkpt>
      <trkpt lat="43.16301" lon="6.51693">
        <ele>130.2</ele>
        <time>2024-02-04T08:40:51Z</time>
      </trkpt>
      <trkpt lat="43.16302" lon="6.51692">
        <ele>130.3</ele>
        <time>2024-02-04T08:40:52Z</time>
      </trkpt>
      <trkpt lat="43.16302" lon="6.51692">
        <ele>130.4</ele>
        <time>2024-02-04T08:40:53Z</time>
      </trkpt>
      <trkpt lat="43.16302" lon="6.51692">
        <ele>130.5</ele>
        <time>2024-02-04T08:40:54Z</time>
      </trkpt>
      <trkpt lat="43.16302" lon="6.51692">
        <ele>130.5</ele>
        <time>2024-02-04T08:40:55Z</time>
      </trkpt>
      <trkpt lat="43.16302" lon="6.51692">
        <ele>130.5</ele>
        <time>2024-02-04T08:40:56Z</time>
      </trkpt>
      <trkpt lat="43.16302" lon="6.51692">
        <ele>130.6</ele>
        <time>2024-02-04T08:40:57Z</time>
      </trkpt>
      <trkpt lat="43.16302" lon="6.51691">
        <ele>130.6</ele>
        <time>2024-02-04T08:40:58Z</time>
      </trkpt>
      <trkpt lat="43.16303" lon="6.51691">
        <ele>130.8</ele>
        <time>2024-02-04T08:40:59Z</time>
      </trkpt>
      <trkpt lat="43.16303" lon="6.51691">
        <ele>130.9</ele>
        <time>2024-02-04T08:41:00Z</time>
      </trkpt>
      <trkpt lat="43.16302" lon="6.51691">
        <ele>130.9</ele>
        <time>2024-02-04T08:41:01Z</time>
      </trkpt>
      <trkpt lat="43.16302" lon="6.51691">
        <ele>131</ele>
        <time>2024-02-04T08:41:02Z</time>
      </trkpt>
      <trkpt lat="43.16302" lon="6.51691">
        <ele>131</ele>
        <time>2024-02-04T08:41:03Z</time>
      </trkpt>
      <trkpt lat="43.16301" lon="6.51691">
        <ele>131</ele>
        <time>2024-02-04T08:41:04Z</time>
      </trkpt>
      <trkpt lat="43.16301" lon="6.5169">
        <ele>131</ele>
        <time>2024-02-04T08:41:05Z</time>
      </trkpt>
      <trkpt lat="43.163" lon="6.51688">
        <ele>131</ele>
        <time>2024-02-04T08:41:06Z</time>
      </trkpt>
      <trkpt lat="43.163" lon="6.51686">
        <ele>131.2</ele>
        <time>2024-02-04T08:41:07Z</time>
      </trkpt>
      <trkpt lat="43.16299" lon="6.51686">
        <ele>131.2</ele>
        <time>2024-02-04T08:41:08Z</time>
      </trkpt>
      <trkpt lat="43.16298" lon="6.51685">
        <ele>131.3</ele>
        <time>2024-02-04T08:41:09Z</time>
      </trkpt>
      <trkpt lat="43.16298" lon="6.51684">
        <ele>131.3</ele>
        <time>2024-02-04T08:41:10Z</time>
      </trkpt>
      <trkpt lat="43.16298" lon="6.51684">
        <ele>131.3</ele>
        <time>2024-02-04T08:41:11Z</time>
      </trkpt>
      <trkpt lat="43.16297" lon="6.51683">
        <ele>131.4</ele>
        <time>2024-02-04T08:41:12Z</time>
      </trkpt>
      <trkpt lat="43.16297" lon="6.51682">
        <ele>131.6</ele>
        <time>2024-02-04T08:41:13Z</time>
      </trkpt>
      <trkpt lat="43.16297" lon="6.51681">
        <ele>131.7</ele>
        <time>2024-02-04T08:41:14Z</time>
      </trkpt>
      <trkpt lat="43.16297" lon="6.5168">
        <ele>131.8</ele>
        <time>2024-02-04T08:41:15Z</time>
      </trkpt>
      <trkpt lat="43.16297" lon="6.5168">
        <ele>131.9</ele>
        <time>2024-02-04T08:41:16Z</time>
      </trkpt>
      <trkpt lat="43.16297" lon="6.51679">
        <ele>132.1</ele>
        <time>2024-02-04T08:41:17Z</time>
      </trkpt>
      <trkpt lat="43.16295" lon="6.51678">
        <ele>132.2</ele>
        <time>2024-02-04T08:41:18Z</time>
      </trkpt>
      <trkpt lat="43.16295" lon="6.51676">
        <ele>132.4</ele>
        <time>2024-02-04T08:41:19Z</time>
      </trkpt>
      <trkpt lat="43.16294" lon="6.51675">
        <ele>132.4</ele>
        <time>2024-02-04T08:41:20Z</time>
      </trkpt>
      <trkpt lat="43.16293" lon="6.51674">
        <ele>132.6</ele>
        <time>2024-02-04T08:41:21Z</time>
      </trkpt>
      <trkpt lat="43.16294" lon="6.51673">
        <ele>132.8</ele>
        <time>2024-02-04T08:41:22Z</time>
      </trkpt>
      <trkpt lat="43.16293" lon="6.51672">
        <ele>132.9</ele>
        <time>2024-02-04T08:41:23Z</time>
      </trkpt>
      <trkpt lat="43.16293" lon="6.51671">
        <ele>133.1</ele>
        <time>2024-02-04T08:41:24Z</time>
      </trkpt>
      <trkpt lat="43.16292" lon="6.5167">
        <ele>133.2</ele>
        <time>2024-02-04T08:41:25Z</time>
      </trkpt>
      <trkpt lat="43.16292" lon="6.51669">
        <ele>133.2</ele>
        <time>2024-02-04T08:41:26Z</time>
      </trkpt>
      <trkpt lat="43.16292" lon="6.51668">
        <ele>133.3</ele>
        <time>2024-02-04T08:41:27Z</time>
      </trkpt>
      <trkpt lat="43.16291" lon="6.51666">
        <ele>133.4</ele>
        <time>2024-02-04T08:41:28Z</time>
      </trkpt>
      <trkpt lat="43.16291" lon="6.51665">
        <ele>133.5</ele>
        <time>2024-02-04T08:41:29Z</time>
      </trkpt>
      <trkpt lat="43.1629" lon="6.51664">
        <ele>133.6</ele>
        <time>2024-02-04T08:41:30Z</time>
      </trkpt>
      <trkpt lat="43.16289" lon="6.51663">
        <ele>133.7</ele>
        <time>2024-02-04T08:41:31Z</time>
      </trkpt>
      <trkpt lat="43.16289" lon="6.51662">
        <ele>133.8</ele>
        <time>2024-02-04T08:41:32Z</time>
      </trkpt>
      <trkpt lat="43.16288" lon="6.51661">
        <ele>133.9</ele>
        <time>2024-02-04T08:41:33Z</time>
      </trkpt>
      <trkpt lat="43.16288" lon="6.5166">
        <ele>134</ele>
        <time>2024-02-04T08:41:34Z</time>
      </trkpt>
      <trkpt lat="43.16287" lon="6.51659">
        <ele>134.1</ele>
        <time>2024-02-04T08:41:35Z</time>
      </trkpt>
      <trkpt lat="43.16286" lon="6.51658">
        <ele>134.3</ele>
        <time>2024-02-04T08:41:36Z</time>
      </trkpt>
      <trkpt lat="43.16286" lon="6.51657">
        <ele>134.4</ele>
        <time>2024-02-04T08:41:37Z</time>
      </trkpt>
      <trkpt lat="43.16285" lon="6.51656">
        <ele>134.4</ele>
        <time>2024-02-04T08:41:38Z</time>
      </trkpt>
      <trkpt lat="43.16284" lon="6.51656">
        <ele>134.5</ele>
        <time>2024-02-04T08:41:39Z</time>
      </trkpt>
      <trkpt lat="43.16284" lon="6.51655">
        <ele>134.5</ele>
        <time>2024-02-04T08:41:40Z</time>
      </trkpt>
      <trkpt lat="43.16284" lon="6.51654">
        <ele>134.6</ele>
        <time>2024-02-04T08:41:41Z</time>
      </trkpt>
      <trkpt lat="43.16283" lon="6.51653">
        <ele>134.7</ele>
        <time>2024-02-04T08:41:42Z</time>
      </trkpt>
      <trkpt lat="43.16283" lon="6.51653">
        <ele>134.8</ele>
        <time>2024-02-04T08:41:43Z</time>
      </trkpt>
      <trkpt lat="43.16283" lon="6.51652">
        <ele>134.9</ele>
        <time>2024-02-04T08:41:44Z</time>
      </trkpt>
      <trkpt lat="43.16283" lon="6.51652">
        <ele>135</ele>
        <time>2024-02-04T08:41:45Z</time>
      </trkpt>
      <trkpt lat="43.16283" lon="6.51651">
        <ele>135.1</ele>
        <time>2024-02-04T08:41:46Z</time>
      </trkpt>
      <trkpt lat="43.16282" lon="6.51651">
        <ele>135.2</ele>
        <time>2024-02-04T08:41:47Z</time>
      </trkpt>
      <trkpt lat="43.16282" lon="6.51651">
        <ele>135.3</ele>
        <time>2024-02-04T08:41:48Z</time>
      </trkpt>
      <trkpt lat="43.16282" lon="6.51651">
        <ele>135.3</ele>
        <time>2024-02-04T08:41:49Z</time>
      </trkpt>
      <trkpt lat="43.16282" lon="6.51651">
        <ele>135.3</ele>
        <time>2024-02-04T08:41:50Z</time>
      </trkpt>
      <trkpt lat="43.16282" lon="6.51651">
        <ele>135.3</ele>
        <time>2024-02-04T08:41:51Z</time>
      </trkpt>
      <trkpt lat="43.16282" lon="6.51651">
        <ele>135.3</ele>
        <time>2024-02-04T08:41:52Z</time>
      </trkpt>
      <trkpt lat="43.16282" lon="6.51651">
        <ele>135.3</ele>
        <time>2024-02-04T08:41:53Z</time>
      </trkpt>
      <trkpt lat="43.16282" lon="6.51651">
        <ele>135.3</ele>
        <time>2024-02-04T08:41:54Z</time>
      </trkpt>
      <trkpt lat="43.16282" lon="6.51651">
        <ele>135.3</ele>
        <time>2024-02-04T08:41:55Z</time>
      </trkpt>
      <trkpt lat="43.16282" lon="6.5165">
        <ele>135.4</ele>
        <time>2024-02-04T08:41:56Z</time>
      </trkpt>
      <trkpt lat="43.16282" lon="6.5165">
        <ele>135.4</ele>
        <time>2024-02-04T08:41:57Z</time>
      </trkpt>
      <trkpt lat="43.16282" lon="6.5165">
        <ele>135.4</ele>
        <time>2024-02-04T08:41:58Z</time>
      </trkpt>
      <trkpt lat="43.16282" lon="6.5165">
        <ele>135.3</ele>
        <time>2024-02-04T08:41:59Z</time>
      </trkpt>
      <trkpt lat="43.16282" lon="6.51651">
        <ele>135.3</ele>
        <time>2024-02-04T08:42:00Z</time>
      </trkpt>
      <trkpt lat="43.16282" lon="6.5165">
        <ele>135.3</ele>
        <time>2024-02-04T08:42:01Z</time>
      </trkpt>
      <trkpt lat="43.16282" lon="6.5165">
        <ele>135.3</ele>
        <time>2024-02-04T08:42:02Z</time>
      </trkpt>
      <trkpt lat="43.16282" lon="6.5165">
        <ele>135.3</ele>
        <time>2024-02-04T08:42:03Z</time>
      </trkpt>
      <trkpt lat="43.16282" lon="6.5165">
        <ele>135.3</ele>
        <time>2024-02-04T08:42:04Z</time>
      </trkpt>
      <trkpt lat="43.16282" lon="6.5165">
        <ele>135.3</ele>
        <time>2024-02-04T08:42:05Z</time>
      </trkpt>
      <trkpt lat="43.16282" lon="6.5165">
        <ele>135.3</ele>
        <time>2024-02-04T08:42:06Z</time>
      </trkpt>
      <trkpt lat="43.16282" lon="6.5165">
        <ele>135.4</ele>
        <time>2024-02-04T08:42:07Z</time>
      </trkpt>
      <trkpt lat="43.16282" lon="6.5165">
        <ele>135.4</ele>
        <time>2024-02-04T08:42:08Z</time>
      </trkpt>
      <trkpt lat="43.16282" lon="6.5165">
        <ele>135.4</ele>
        <time>2024-02-04T08:42:09Z</time>
      </trkpt>
      <trkpt lat="43.16281" lon="6.5165">
        <ele>135.3</ele>
        <time>2024-02-04T08:42:10Z</time>
      </trkpt>
      <trkpt lat="43.16281" lon="6.5165">
        <ele>135.3</ele>
        <time>2024-02-04T08:42:11Z</time>
      </trkpt>
      <trkpt lat="43.16281" lon="6.5165">
        <ele>135.3</ele>
        <time>2024-02-04T08:42:12Z</time>
      </trkpt>
      <trkpt lat="43.16281" lon="6.5165">
        <ele>135.3</ele>
        <time>2024-02-04T08:42:13Z</time>
      </trkpt>
      <trkpt lat="43.16281" lon="6.5165">
        <ele>135.3</ele>
        <time>2024-02-04T08:42:14Z</time>
      </trkpt>
      <trkpt lat="43.16281" lon="6.5165">
        <ele>135.3</ele>
        <time>2024-02-04T08:42:15Z</time>
      </trkpt>
      <trkpt lat="43.16281" lon="6.5165">
        <ele>135.3</ele>
        <time>2024-02-04T08:42:16Z</time>
      </trkpt>
      <trkpt lat="43.16281" lon="6.51651">
        <ele>135.3</ele>
        <time>2024-02-04T08:42:17Z</time>
      </trkpt>
      <trkpt lat="43.16281" lon="6.51651">
        <ele>135.2</ele>
        <time>2024-02-04T08:42:18Z</time>
      </trkpt>
      <trkpt lat="43.16281" lon="6.51651">
        <ele>135.3</ele>
        <time>2024-02-04T08:42:19Z</time>
      </trkpt>
      <trkpt lat="43.16281" lon="6.5165">
        <ele>135.3</ele>
        <time>2024-02-04T08:42:20Z</time>
      </trkpt>
      <trkpt lat="43.16281" lon="6.5165">
        <ele>135.2</ele>
        <time>2024-02-04T08:42:21Z</time>
      </trkpt>
      <trkpt lat="43.16281" lon="6.5165">
        <ele>135.2</ele>
        <time>2024-02-04T08:42:22Z</time>
      </trkpt>
      <trkpt lat="43.16281" lon="6.5165">
        <ele>135.2</ele>
        <time>2024-02-04T08:42:23Z</time>
      </trkpt>
      <trkpt lat="43.16281" lon="6.5165">
        <ele>135.2</ele>
        <time>2024-02-04T08:42:24Z</time>
      </trkpt>
      <trkpt lat="43.16281" lon="6.5165">
        <ele>135.1</ele>
        <time>2024-02-04T08:42:25Z</time>
      </trkpt>
      <trkpt lat="43.16281" lon="6.5165">
        <ele>135.1</ele>
        <time>2024-02-04T08:42:26Z</time>
      </trkpt>
      <trkpt lat="43.16281" lon="6.5165">
        <ele>135.1</ele>
        <time>2024-02-04T08:42:27Z</time>
      </trkpt>
      <trkpt lat="43.16281" lon="6.5165">
        <ele>135.1</ele>
        <time>2024-02-04T08:42:28Z</time>
      </trkpt>
      <trkpt lat="43.16281" lon="6.5165">
        <ele>135.2</ele>
        <time>2024-02-04T08:42:29Z</time>
      </trkpt>
      <trkpt lat="43.16281" lon="6.5165">
        <ele>135.3</ele>
        <time>2024-02-04T08:42:30Z</time>
      </trkpt>
      <trkpt lat="43.16281" lon="6.5165">
        <ele>135.3</ele>
        <time>2024-02-04T08:42:31Z</time>
      </trkpt>
      <trkpt lat="43.16281" lon="6.5165">
        <ele>135.3</ele>
        <time>2024-02-04T08:42:32Z</time>
      </trkpt>
      <trkpt lat="43.16281" lon="6.5165">
        <ele>135.3</ele>
        <time>2024-02-04T08:42:33Z</time>
      </trkpt>
      <trkpt lat="43.16281" lon="6.51651">
        <ele>135.3</ele>
        <time>2024-02-04T08:42:34Z</time>
      </trkpt>
      <trkpt lat="43.16281" lon="6.5165">
        <ele>135.4</ele>
        <time>2024-02-04T08:42:35Z</time>
      </trkpt>
      <trkpt lat="43.16281" lon="6.5165">
        <ele>135.3</ele>
        <time>2024-02-04T08:42:36Z</time>
      </trkpt>
      <trkpt lat="43.16281" lon="6.5165">
        <ele>135.3</ele>
        <time>2024-02-04T08:42:37Z</time>
      </trkpt>
      <trkpt lat="43.1628" lon="6.5165">
        <ele>135.2</ele>
        <time>2024-02-04T08:42:38Z</time>
      </trkpt>
      <trkpt lat="43.1628" lon="6.5165">
        <ele>135.1</ele>
        <time>2024-02-04T08:42:39Z</time>
      </trkpt>
      <trkpt lat="43.1628" lon="6.51649">
        <ele>135.1</ele>
        <time>2024-02-04T08:42:40Z</time>
      </trkpt>
      <trkpt lat="43.1628" lon="6.51648">
        <ele>135</ele>
        <time>2024-02-04T08:42:41Z</time>
      </trkpt>
      <trkpt lat="43.1628" lon="6.51648">
        <ele>135</ele>
        <time>2024-02-04T08:42:42Z</time>
      </trkpt>
      <trkpt lat="43.16279" lon="6.51647">
        <ele>135</ele>
        <time>2024-02-04T08:42:43Z</time>
      </trkpt>
      <trkpt lat="43.16279" lon="6.51647">
        <ele>135</ele>
        <time>2024-02-04T08:42:44Z</time>
      </trkpt>
      <trkpt lat="43.16279" lon="6.51647">
        <ele>135</ele>
        <time>2024-02-04T08:42:45Z</time>
      </trkpt>
      <trkpt lat="43.16279" lon="6.51647">
        <ele>135.1</ele>
        <time>2024-02-04T08:42:46Z</time>
      </trkpt>
      <trkpt lat="43.16279" lon="6.51646">
        <ele>135.2</ele>
        <time>2024-02-04T08:42:47Z</time>
      </trkpt>
      <trkpt lat="43.16279" lon="6.51645">
        <ele>135.2</ele>
        <time>2024-02-04T08:42:48Z</time>
      </trkpt>
      <trkpt lat="43.16279" lon="6.51645">
        <ele>135.2</ele>
        <time>2024-02-04T08:42:49Z</time>
      </trkpt>
      <trkpt lat="43.16279" lon="6.51644">
        <ele>135.3</ele>
        <time>2024-02-04T08:42:50Z</time>
      </trkpt>
      <trkpt lat="43.16279" lon="6.51643">
        <ele>135.3</ele>
        <time>2024-02-04T08:42:51Z</time>
      </trkpt>
      <trkpt lat="43.16279" lon="6.51642">
        <ele>135.4</ele>
        <time>2024-02-04T08:42:52Z</time>
      </trkpt>
      <trkpt lat="43.16278" lon="6.51642">
        <ele>135.4</ele>
        <time>2024-02-04T08:42:53Z</time>
      </trkpt>
      <trkpt lat="43.16278" lon="6.51642">
        <ele>135.5</ele>
        <time>2024-02-04T08:42:54Z</time>
      </trkpt>
      <trkpt lat="43.16278" lon="6.51642">
        <ele>135.5</ele>
        <time>2024-02-04T08:42:55Z</time>
      </trkpt>
      <trkpt lat="43.16278" lon="6.51642">
        <ele>135.5</ele>
        <time>2024-02-04T08:42:56Z</time>
      </trkpt>
      <trkpt lat="43.16278" lon="6.51642">
        <ele>135.6</ele>
        <time>2024-02-04T08:42:57Z</time>
      </trkpt>
      <trkpt lat="43.16279" lon="6.51642">
        <ele>135.6</ele>
        <time>2024-02-04T08:42:58Z</time>
      </trkpt>
      <trkpt lat="43.16279" lon="6.51642">
        <ele>135.6</ele>
        <time>2024-02-04T08:42:59Z</time>
      </trkpt>
      <trkpt lat="43.16279" lon="6.51642">
        <ele>135.6</ele>
        <time>2024-02-04T08:43:00Z</time>
      </trkpt>
      <trkpt lat="43.16279" lon="6.51642">
        <ele>135.6</ele>
        <time>2024-02-04T08:43:01Z</time>
      </trkpt>
      <trkpt lat="43.16279" lon="6.51642">
        <ele>135.6</ele>
        <time>2024-02-04T08:43:02Z</time>
      </trkpt>
      <trkpt lat="43.16279" lon="6.51642">
        <ele>135.6</ele>
        <time>2024-02-04T08:43:03Z</time>
      </trkpt>
      <trkpt lat="43.16279" lon="6.51642">
        <ele>135.6</ele>
        <time>2024-02-04T08:43:04Z</time>
      </trkpt>
      <trkpt lat="43.16279" lon="6.51642">
        <ele>135.5</ele>
        <time>2024-02-04T08:43:05Z</time>
      </trkpt>
      <trkpt lat="43.16279" lon="6.51642">
        <ele>135.5</ele>
        <time>2024-02-04T08:43:06Z</time>
      </trkpt>
      <trkpt lat="43.16279" lon="6.51642">
        <ele>135.5</ele>
        <time>2024-02-04T08:43:07Z</time>
      </trkpt>
      <trkpt lat="43.16279" lon="6.51642">
        <ele>135.5</ele>
        <time>2024-02-04T08:43:08Z</time>
      </trkpt>
      <trkpt lat="43.16279" lon="6.51642">
        <ele>135.5</ele>
        <time>2024-02-04T08:43:09Z</time>
      </trkpt>
      <trkpt lat="43.16279" lon="6.51642">
        <ele>135.5</ele>
        <time>2024-02-04T08:43:10Z</time>
      </trkpt>
      <trkpt lat="43.16279" lon="6.51642">
        <ele>135.5</ele>
        <time>2024-02-04T08:43:11Z</time>
      </trkpt>
      <trkpt lat="43.16279" lon="6.51642">
        <ele>135.6</ele>
        <time>2024-02-04T08:43:12Z</time>
      </trkpt>
      <trkpt lat="43.16279" lon="6.51642">
        <ele>135.6</ele>
        <time>2024-02-04T08:43:13Z</time>
      </trkpt>
      <trkpt lat="43.16279" lon="6.51642">
        <ele>135.7</ele>
        <time>2024-02-04T08:43:14Z</time>
      </trkpt>
      <trkpt lat="43.16279" lon="6.51642">
        <ele>135.7</ele>
        <time>2024-02-04T08:43:15Z</time>
      </trkpt>
      <trkpt lat="43.16279" lon="6.51642">
        <ele>135.7</ele>
        <time>2024-02-04T08:43:16Z</time>
      </trkpt>
      <trkpt lat="43.16279" lon="6.51642">
        <ele>135.7</ele>
        <time>2024-02-04T08:43:17Z</time>
      </trkpt>
      <trkpt lat="43.16279" lon="6.51643">
        <ele>135.7</ele>
        <time>2024-02-04T08:43:18Z</time>
      </trkpt>
      <trkpt lat="43.16279" lon="6.51642">
        <ele>135.7</ele>
        <time>2024-02-04T08:43:19Z</time>
      </trkpt>
      <trkpt lat="43.16279" lon="6.51642">
        <ele>135.6</ele>
        <time>2024-02-04T08:43:20Z</time>
      </trkpt>
      <trkpt lat="43.16279" lon="6.51642">
        <ele>135.6</ele>
        <time>2024-02-04T08:43:21Z</time>
      </trkpt>
      <trkpt lat="43.16279" lon="6.5164">
        <ele>135.6</ele>
        <time>2024-02-04T08:43:22Z</time>
      </trkpt>
      <trkpt lat="43.16279" lon="6.51639">
        <ele>135.5</ele>
        <time>2024-02-04T08:43:23Z</time>
      </trkpt>
      <trkpt lat="43.16279" lon="6.51638">
        <ele>135.6</ele>
        <time>2024-02-04T08:43:24Z</time>
      </trkpt>
      <trkpt lat="43.16279" lon="6.51637">
        <ele>135.6</ele>
        <time>2024-02-04T08:43:25Z</time>
      </trkpt>
      <trkpt lat="43.16279" lon="6.51636">
        <ele>135.8</ele>
        <time>2024-02-04T08:43:26Z</time>
      </trkpt>
      <trkpt lat="43.16279" lon="6.51635">
        <ele>135.8</ele>
        <time>2024-02-04T08:43:27Z</time>
      </trkpt>
      <trkpt lat="43.16279" lon="6.51634">
        <ele>135.9</ele>
        <time>2024-02-04T08:43:28Z</time>
      </trkpt>
      <trkpt lat="43.16279" lon="6.51632">
        <ele>136</ele>
        <time>2024-02-04T08:43:29Z</time>
      </trkpt>
      <trkpt lat="43.16279" lon="6.51631">
        <ele>136</ele>
        <time>2024-02-04T08:43:30Z</time>
      </trkpt>
      <trkpt lat="43.16279" lon="6.5163">
        <ele>136</ele>
        <time>2024-02-04T08:43:31Z</time>
      </trkpt>
      <trkpt lat="43.16279" lon="6.51629">
        <ele>136</ele>
        <time>2024-02-04T08:43:32Z</time>
      </trkpt>
      <trkpt lat="43.16279" lon="6.51627">
        <ele>136.1</ele>
        <time>2024-02-04T08:43:33Z</time>
      </trkpt>
      <trkpt lat="43.16279" lon="6.51626">
        <ele>136.1</ele>
        <time>2024-02-04T08:43:34Z</time>
      </trkpt>
      <trkpt lat="43.16279" lon="6.51625">
        <ele>136.1</ele>
        <time>2024-02-04T08:43:35Z</time>
      </trkpt>
      <trkpt lat="43.16279" lon="6.51624">
        <ele>136.1</ele>
        <time>2024-02-04T08:43:36Z</time>
      </trkpt>
      <trkpt lat="43.16279" lon="6.51623">
        <ele>136.1</ele>
        <time>2024-02-04T08:43:37Z</time>
      </trkpt>
      <trkpt lat="43.16279" lon="6.51622">
        <ele>136.1</ele>
        <time>2024-02-04T08:43:38Z</time>
      </trkpt>
      <trkpt lat="43.16279" lon="6.51621">
        <ele>136.2</ele>
        <time>2024-02-04T08:43:39Z</time>
      </trkpt>
      <trkpt lat="43.16279" lon="6.51619">
        <ele>136.3</ele>
        <time>2024-02-04T08:43:40Z</time>
      </trkpt>
      <trkpt lat="43.16279" lon="6.51618">
        <ele>136.4</ele>
        <time>2024-02-04T08:43:41Z</time>
      </trkpt>
      <trkpt lat="43.16279" lon="6.51617">
        <ele>136.4</ele>
        <time>2024-02-04T08:43:42Z</time>
      </trkpt>
      <trkpt lat="43.16279" lon="6.51616">
        <ele>136.5</ele>
        <time>2024-02-04T08:43:43Z</time>
      </trkpt>
      <trkpt lat="43.16279" lon="6.51614">
        <ele>136.7</ele>
        <time>2024-02-04T08:43:44Z</time>
      </trkpt>
      <trkpt lat="43.16278" lon="6.51613">
        <ele>136.7</ele>
        <time>2024-02-04T08:43:45Z</time>
      </trkpt>
      <trkpt lat="43.16278" lon="6.51612">
        <ele>136.8</ele>
        <time>2024-02-04T08:43:46Z</time>
      </trkpt>
      <trkpt lat="43.16278" lon="6.51611">
        <ele>136.8</ele>
        <time>2024-02-04T08:43:47Z</time>
      </trkpt>
      <trkpt lat="43.16278" lon="6.51611">
        <ele>136.9</ele>
        <time>2024-02-04T08:43:48Z</time>
      </trkpt>
      <trkpt lat="43.16278" lon="6.51609">
        <ele>137.1</ele>
        <time>2024-02-04T08:43:49Z</time>
      </trkpt>
      <trkpt lat="43.16278" lon="6.51608">
        <ele>137.1</ele>
        <time>2024-02-04T08:43:50Z</time>
      </trkpt>
      <trkpt lat="43.16278" lon="6.51607">
        <ele>137.1</ele>
        <time>2024-02-04T08:43:51Z</time>
      </trkpt>
      <trkpt lat="43.16278" lon="6.51606">
        <ele>137.1</ele>
        <time>2024-02-04T08:43:52Z</time>
      </trkpt>
      <trkpt lat="43.16277" lon="6.51606">
        <ele>137.2</ele>
        <time>2024-02-04T08:43:53Z</time>
      </trkpt>
      <trkpt lat="43.16277" lon="6.51606">
        <ele>137.2</ele>
        <time>2024-02-04T08:43:54Z</time>
      </trkpt>
      <trkpt lat="43.16277" lon="6.51605">
        <ele>137.3</ele>
        <time>2024-02-04T08:43:55Z</time>
      </trkpt>
      <trkpt lat="43.16276" lon="6.51605">
        <ele>137.5</ele>
        <time>2024-02-04T08:43:56Z</time>
      </trkpt>
      <trkpt lat="43.16276" lon="6.51605">
        <ele>137.6</ele>
        <time>2024-02-04T08:43:57Z</time>
      </trkpt>
      <trkpt lat="43.16276" lon="6.51605">
        <ele>137.6</ele>
        <time>2024-02-04T08:43:58Z</time>
      </trkpt>
      <trkpt lat="43.16276" lon="6.51605">
        <ele>137.7</ele>
        <time>2024-02-04T08:43:59Z</time>
      </trkpt>
      <trkpt lat="43.16276" lon="6.51605">
        <ele>137.7</ele>
        <time>2024-02-04T08:44:00Z</time>
      </trkpt>
      <trkpt lat="43.16275" lon="6.51605">
        <ele>137.8</ele>
        <time>2024-02-04T08:44:01Z</time>
      </trkpt>
      <trkpt lat="43.16275" lon="6.51605">
        <ele>137.9</ele>
        <time>2024-02-04T08:44:02Z</time>
      </trkpt>
      <trkpt lat="43.16275" lon="6.51605">
        <ele>137.9</ele>
        <time>2024-02-04T08:44:03Z</time>
      </trkpt>
      <trkpt lat="43.16276" lon="6.51605">
        <ele>137.9</ele>
        <time>2024-02-04T08:44:04Z</time>
      </trkpt>
      <trkpt lat="43.16276" lon="6.51605">
        <ele>138</ele>
        <time>2024-02-04T08:44:05Z</time>
      </trkpt>
      <trkpt lat="43.16276" lon="6.51605">
        <ele>138</ele>
        <time>2024-02-04T08:44:06Z</time>
      </trkpt>
      <trkpt lat="43.16275" lon="6.51605">
        <ele>138</ele>
        <time>2024-02-04T08:44:07Z</time>
      </trkpt>
      <trkpt lat="43.16275" lon="6.51605">
        <ele>138</ele>
        <time>2024-02-04T08:44:08Z</time>
      </trkpt>
      <trkpt lat="43.16276" lon="6.51606">
        <ele>138.1</ele>
        <time>2024-02-04T08:44:09Z</time>
      </trkpt>
      <trkpt lat="43.16276" lon="6.51605">
        <ele>138.1</ele>
        <time>2024-02-04T08:44:10Z</time>
      </trkpt>
      <trkpt lat="43.16277" lon="6.51605">
        <ele>138.2</ele>
        <time>2024-02-04T08:44:11Z</time>
      </trkpt>
      <trkpt lat="43.16277" lon="6.51604">
        <ele>138.2</ele>
        <time>2024-02-04T08:44:12Z</time>
      </trkpt>
      <trkpt lat="43.16278" lon="6.51603">
        <ele>138.2</ele>
        <time>2024-02-04T08:44:13Z</time>
      </trkpt>
      <trkpt lat="43.16279" lon="6.51603">
        <ele>138.2</ele>
        <time>2024-02-04T08:44:14Z</time>
      </trkpt>
      <trkpt lat="43.16279" lon="6.51602">
        <ele>138.1</ele>
        <time>2024-02-04T08:44:15Z</time>
      </trkpt>
      <trkpt lat="43.1628" lon="6.51601">
        <ele>138.1</ele>
        <time>2024-02-04T08:44:16Z</time>
      </trkpt>
      <trkpt lat="43.1628" lon="6.51599">
        <ele>138.1</ele>
        <time>2024-02-04T08:44:17Z</time>
      </trkpt>
      <trkpt lat="43.1628" lon="6.51598">
        <ele>138</ele>
        <time>2024-02-04T08:44:18Z</time>
      </trkpt>
      <trkpt lat="43.1628" lon="6.51596">
        <ele>138</ele>
        <time>2024-02-04T08:44:19Z</time>
      </trkpt>
      <trkpt lat="43.1628" lon="6.51595">
        <ele>138</ele>
        <time>2024-02-04T08:44:20Z</time>
      </trkpt>
      <trkpt lat="43.1628" lon="6.51594">
        <ele>138</ele>
        <time>2024-02-04T08:44:21Z</time>
      </trkpt>
      <trkpt lat="43.1628" lon="6.51592">
        <ele>138</ele>
        <time>2024-02-04T08:44:22Z</time>
      </trkpt>
      <trkpt lat="43.1628" lon="6.51591">
        <ele>138</ele>
        <time>2024-02-04T08:44:23Z</time>
      </trkpt>
      <trkpt lat="43.1628" lon="6.51589">
        <ele>138</ele>
        <time>2024-02-04T08:44:24Z</time>
      </trkpt>
      <trkpt lat="43.1628" lon="6.51588">
        <ele>138.1</ele>
        <time>2024-02-04T08:44:25Z</time>
      </trkpt>
      <trkpt lat="43.1628" lon="6.51587">
        <ele>138.1</ele>
        <time>2024-02-04T08:44:26Z</time>
      </trkpt>
      <trkpt lat="43.16279" lon="6.51586">
        <ele>138.1</ele>
        <time>2024-02-04T08:44:27Z</time>
      </trkpt>
      <trkpt lat="43.16279" lon="6.51585">
        <ele>138.1</ele>
        <time>2024-02-04T08:44:28Z</time>
      </trkpt>
      <trkpt lat="43.16278" lon="6.51584">
        <ele>138.1</ele>
        <time>2024-02-04T08:44:29Z</time>
      </trkpt>
      <trkpt lat="43.16278" lon="6.51582">
        <ele>138.1</ele>
        <time>2024-02-04T08:44:30Z</time>
      </trkpt>
      <trkpt lat="43.16277" lon="6.51581">
        <ele>138.1</ele>
        <time>2024-02-04T08:44:31Z</time>
      </trkpt>
      <trkpt lat="43.16276" lon="6.5158">
        <ele>138.1</ele>
        <time>2024-02-04T08:44:32Z</time>
      </trkpt>
      <trkpt lat="43.16276" lon="6.51579">
        <ele>138.2</ele>
        <time>2024-02-04T08:44:33Z</time>
      </trkpt>
      <trkpt lat="43.16275" lon="6.51578">
        <ele>138.2</ele>
        <time>2024-02-04T08:44:34Z</time>
      </trkpt>
      <trkpt lat="43.16274" lon="6.51576">
        <ele>138.2</ele>
        <time>2024-02-04T08:44:35Z</time>
      </trkpt>
      <trkpt lat="43.16274" lon="6.51575">
        <ele>138.2</ele>
        <time>2024-02-04T08:44:36Z</time>
      </trkpt>
      <trkpt lat="43.16273" lon="6.51574">
        <ele>138.2</ele>
        <time>2024-02-04T08:44:37Z</time>
      </trkpt>
      <trkpt lat="43.16272" lon="6.51573">
        <ele>138.3</ele>
        <time>2024-02-04T08:44:38Z</time>
      </trkpt>
      <trkpt lat="43.16272" lon="6.51572">
        <ele>138.3</ele>
        <time>2024-02-04T08:44:39Z</time>
      </trkpt>
      <trkpt lat="43.16271" lon="6.51571">
        <ele>138.2</ele>
        <time>2024-02-04T08:44:40Z</time>
      </trkpt>
      <trkpt lat="43.16271" lon="6.5157">
        <ele>138.2</ele>
        <time>2024-02-04T08:44:41Z</time>
      </trkpt>
      <trkpt lat="43.1627" lon="6.51569">
        <ele>138.2</ele>
        <time>2024-02-04T08:44:42Z</time>
      </trkpt>
      <trkpt lat="43.16269" lon="6.51568">
        <ele>138.3</ele>
        <time>2024-02-04T08:44:43Z</time>
      </trkpt>
      <trkpt lat="43.16269" lon="6.51567">
        <ele>138.3</ele>
        <time>2024-02-04T08:44:44Z</time>
      </trkpt>
      <trkpt lat="43.16268" lon="6.51566">
        <ele>138.3</ele>
        <time>2024-02-04T08:44:45Z</time>
      </trkpt>
      <trkpt lat="43.16268" lon="6.51564">
        <ele>138.4</ele>
        <time>2024-02-04T08:44:46Z</time>
      </trkpt>
      <trkpt lat="43.16268" lon="6.51563">
        <ele>138.4</ele>
        <time>2024-02-04T08:44:47Z</time>
      </trkpt>
      <trkpt lat="43.16267" lon="6.51563">
        <ele>138.5</ele>
        <time>2024-02-04T08:44:48Z</time>
      </trkpt>
      <trkpt lat="43.16266" lon="6.51561">
        <ele>138.5</ele>
        <time>2024-02-04T08:44:49Z</time>
      </trkpt>
      <trkpt lat="43.16266" lon="6.5156">
        <ele>138.6</ele>
        <time>2024-02-04T08:44:50Z</time>
      </trkpt>
      <trkpt lat="43.16265" lon="6.51559">
        <ele>138.6</ele>
        <time>2024-02-04T08:44:51Z</time>
      </trkpt>
      <trkpt lat="43.16265" lon="6.51557">
        <ele>138.6</ele>
        <time>2024-02-04T08:44:52Z</time>
      </trkpt>
      <trkpt lat="43.16265" lon="6.51556">
        <ele>138.6</ele>
        <time>2024-02-04T08:44:53Z</time>
      </trkpt>
      <trkpt lat="43.16264" lon="6.51554">
        <ele>138.7</ele>
        <time>2024-02-04T08:44:54Z</time>
      </trkpt>
      <trkpt lat="43.16264" lon="6.51553">
        <ele>138.7</ele>
        <time>2024-02-04T08:44:55Z</time>
      </trkpt>
      <trkpt lat="43.16264" lon="6.51551">
        <ele>138.7</ele>
        <time>2024-02-04T08:44:56Z</time>
      </trkpt>
      <trkpt lat="43.16264" lon="6.5155">
        <ele>138.8</ele>
        <time>2024-02-04T08:44:57Z</time>
      </trkpt>
      <trkpt lat="43.16264" lon="6.51549">
        <ele>138.8</ele>
        <time>2024-02-04T08:44:58Z</time>
      </trkpt>
      <trkpt lat="43.16264" lon="6.51547">
        <ele>138.9</ele>
        <time>2024-02-04T08:44:59Z</time>
      </trkpt>
      <trkpt lat="43.16264" lon="6.51546">
        <ele>139</ele>
        <time>2024-02-04T08:45:00Z</time>
      </trkpt>
      <trkpt lat="43.16263" lon="6.51544">
        <ele>139</ele>
        <time>2024-02-04T08:45:01Z</time>
      </trkpt>
      <trkpt lat="43.16263" lon="6.51543">
        <ele>139.1</ele>
        <time>2024-02-04T08:45:02Z</time>
      </trkpt>
      <trkpt lat="43.16263" lon="6.51541">
        <ele>139.2</ele>
        <time>2024-02-04T08:45:03Z</time>
      </trkpt>
      <trkpt lat="43.16263" lon="6.5154">
        <ele>139.5</ele>
        <time>2024-02-04T08:45:04Z</time>
      </trkpt>
      <trkpt lat="43.16262" lon="6.51538">
        <ele>139.5</ele>
        <time>2024-02-04T08:45:05Z</time>
      </trkpt>
      <trkpt lat="43.16262" lon="6.51537">
        <ele>139.6</ele>
        <time>2024-02-04T08:45:06Z</time>
      </trkpt>
      <trkpt lat="43.16261" lon="6.51535">
        <ele>139.6</ele>
        <time>2024-02-04T08:45:07Z</time>
      </trkpt>
      <trkpt lat="43.16261" lon="6.51534">
        <ele>139.7</ele>
        <time>2024-02-04T08:45:08Z</time>
      </trkpt>
      <trkpt lat="43.16261" lon="6.51533">
        <ele>139.8</ele>
        <time>2024-02-04T08:45:09Z</time>
      </trkpt>
      <trkpt lat="43.16261" lon="6.51532">
        <ele>139.9</ele>
        <time>2024-02-04T08:45:10Z</time>
      </trkpt>
      <trkpt lat="43.1626" lon="6.5153">
        <ele>140</ele>
        <time>2024-02-04T08:45:11Z</time>
      </trkpt>
      <trkpt lat="43.1626" lon="6.51529">
        <ele>140.1</ele>
        <time>2024-02-04T08:45:12Z</time>
      </trkpt>
      <trkpt lat="43.1626" lon="6.51528">
        <ele>140.3</ele>
        <time>2024-02-04T08:45:13Z</time>
      </trkpt>
      <trkpt lat="43.16259" lon="6.51526">
        <ele>140.4</ele>
        <time>2024-02-04T08:45:14Z</time>
      </trkpt>
      <trkpt lat="43.16259" lon="6.51525">
        <ele>140.5</ele>
        <time>2024-02-04T08:45:15Z</time>
      </trkpt>
      <trkpt lat="43.16259" lon="6.51523">
        <ele>140.6</ele>
        <time>2024-02-04T08:45:16Z</time>
      </trkpt>
      <trkpt lat="43.16259" lon="6.51522">
        <ele>140.7</ele>
        <time>2024-02-04T08:45:17Z</time>
      </trkpt>
      <trkpt lat="43.16258" lon="6.51521">
        <ele>140.9</ele>
        <time>2024-02-04T08:45:18Z</time>
      </trkpt>
      <trkpt lat="43.16258" lon="6.5152">
        <ele>140.9</ele>
        <time>2024-02-04T08:45:19Z</time>
      </trkpt>
      <trkpt lat="43.16258" lon="6.51519">
        <ele>141</ele>
        <time>2024-02-04T08:45:20Z</time>
      </trkpt>
      <trkpt lat="43.16258" lon="6.51518">
        <ele>141.1</ele>
        <time>2024-02-04T08:45:21Z</time>
      </trkpt>
      <trkpt lat="43.16257" lon="6.51516">
        <ele>141.3</ele>
        <time>2024-02-04T08:45:22Z</time>
      </trkpt>
      <trkpt lat="43.16257" lon="6.51515">
        <ele>141.5</ele>
        <time>2024-02-04T08:45:23Z</time>
      </trkpt>
      <trkpt lat="43.16257" lon="6.51514">
        <ele>141.6</ele>
        <time>2024-02-04T08:45:24Z</time>
      </trkpt>
      <trkpt lat="43.16257" lon="6.51513">
        <ele>141.7</ele>
        <time>2024-02-04T08:45:25Z</time>
      </trkpt>
      <trkpt lat="43.16257" lon="6.51512">
        <ele>141.9</ele>
        <time>2024-02-04T08:45:26Z</time>
      </trkpt>
      <trkpt lat="43.16257" lon="6.51511">
        <ele>142.1</ele>
        <time>2024-02-04T08:45:27Z</time>
      </trkpt>
      <trkpt lat="43.16257" lon="6.51509">
        <ele>142.3</ele>
        <time>2024-02-04T08:45:28Z</time>
      </trkpt>
      <trkpt lat="43.16256" lon="6.51508">
        <ele>142.4</ele>
        <time>2024-02-04T08:45:29Z</time>
      </trkpt>
      <trkpt lat="43.16256" lon="6.51507">
        <ele>142.6</ele>
        <time>2024-02-04T08:45:30Z</time>
      </trkpt>
      <trkpt lat="43.16256" lon="6.51506">
        <ele>142.6</ele>
        <time>2024-02-04T08:45:31Z</time>
      </trkpt>
      <trkpt lat="43.16256" lon="6.51504">
        <ele>142.7</ele>
        <time>2024-02-04T08:45:32Z</time>
      </trkpt>
      <trkpt lat="43.16256" lon="6.51503">
        <ele>142.9</ele>
        <time>2024-02-04T08:45:33Z</time>
      </trkpt>
      <trkpt lat="43.16255" lon="6.51502">
        <ele>143</ele>
        <time>2024-02-04T08:45:34Z</time>
      </trkpt>
      <trkpt lat="43.16255" lon="6.51501">
        <ele>143.1</ele>
        <time>2024-02-04T08:45:35Z</time>
      </trkpt>
      <trkpt lat="43.16255" lon="6.515">
        <ele>143.2</ele>
        <time>2024-02-04T08:45:36Z</time>
      </trkpt>
      <trkpt lat="43.16254" lon="6.51499">
        <ele>143.3</ele>
        <time>2024-02-04T08:45:37Z</time>
      </trkpt>
      <trkpt lat="43.16254" lon="6.51498">
        <ele>143.4</ele>
        <time>2024-02-04T08:45:38Z</time>
      </trkpt>
      <trkpt lat="43.16254" lon="6.51497">
        <ele>143.6</ele>
        <time>2024-02-04T08:45:39Z</time>
      </trkpt>
      <trkpt lat="43.16254" lon="6.51496">
        <ele>143.8</ele>
        <time>2024-02-04T08:45:40Z</time>
      </trkpt>
      <trkpt lat="43.16254" lon="6.51494">
        <ele>143.9</ele>
        <time>2024-02-04T08:45:41Z</time>
      </trkpt>
      <trkpt lat="43.16254" lon="6.51493">
        <ele>144</ele>
        <time>2024-02-04T08:45:42Z</time>
      </trkpt>
      <trkpt lat="43.16253" lon="6.51492">
        <ele>144.2</ele>
        <time>2024-02-04T08:45:43Z</time>
      </trkpt>
      <trkpt lat="43.16253" lon="6.51491">
        <ele>144.4</ele>
        <time>2024-02-04T08:45:44Z</time>
      </trkpt>
      <trkpt lat="43.16253" lon="6.5149">
        <ele>144.6</ele>
        <time>2024-02-04T08:45:45Z</time>
      </trkpt>
      <trkpt lat="43.16253" lon="6.51489">
        <ele>144.9</ele>
        <time>2024-02-04T08:45:46Z</time>
      </trkpt>
      <trkpt lat="43.16253" lon="6.51488">
        <ele>145</ele>
        <time>2024-02-04T08:45:47Z</time>
      </trkpt>
      <trkpt lat="43.16253" lon="6.51487">
        <ele>145.2</ele>
        <time>2024-02-04T08:45:48Z</time>
      </trkpt>
      <trkpt lat="43.16253" lon="6.51486">
        <ele>145.3</ele>
        <time>2024-02-04T08:45:49Z</time>
      </trkpt>
      <trkpt lat="43.16252" lon="6.51485">
        <ele>145.4</ele>
        <time>2024-02-04T08:45:50Z</time>
      </trkpt>
      <trkpt lat="43.16252" lon="6.51484">
        <ele>145.5</ele>
        <time>2024-02-04T08:45:51Z</time>
      </trkpt>
      <trkpt lat="43.16251" lon="6.51482">
        <ele>145.8</ele>
        <time>2024-02-04T08:45:52Z</time>
      </trkpt>
      <trkpt lat="43.16251" lon="6.51481">
        <ele>146</ele>
        <time>2024-02-04T08:45:53Z</time>
      </trkpt>
      <trkpt lat="43.16251" lon="6.5148">
        <ele>146.4</ele>
        <time>2024-02-04T08:45:54Z</time>
      </trkpt>
      <trkpt lat="43.1625" lon="6.51479">
        <ele>146.5</ele>
        <time>2024-02-04T08:45:55Z</time>
      </trkpt>
      <trkpt lat="43.1625" lon="6.51478">
        <ele>146.7</ele>
        <time>2024-02-04T08:45:56Z</time>
      </trkpt>
      <trkpt lat="43.1625" lon="6.51477">
        <ele>146.8</ele>
        <time>2024-02-04T08:45:57Z</time>
      </trkpt>
      <trkpt lat="43.1625" lon="6.51476">
        <ele>147</ele>
        <time>2024-02-04T08:45:58Z</time>
      </trkpt>
      <trkpt lat="43.1625" lon="6.51475">
        <ele>147.3</ele>
        <time>2024-02-04T08:45:59Z</time>
      </trkpt>
      <trkpt lat="43.1625" lon="6.51474">
        <ele>147.5</ele>
        <time>2024-02-04T08:46:00Z</time>
      </trkpt>
      <trkpt lat="43.1625" lon="6.51473">
        <ele>147.7</ele>
        <time>2024-02-04T08:46:01Z</time>
      </trkpt>
      <trkpt lat="43.1625" lon="6.51472">
        <ele>147.9</ele>
        <time>2024-02-04T08:46:02Z</time>
      </trkpt>
      <trkpt lat="43.16249" lon="6.51471">
        <ele>148.1</ele>
        <time>2024-02-04T08:46:03Z</time>
      </trkpt>
      <trkpt lat="43.16249" lon="6.5147">
        <ele>148.2</ele>
        <time>2024-02-04T08:46:04Z</time>
      </trkpt>
      <trkpt lat="43.16249" lon="6.5147">
        <ele>148.3</ele>
        <time>2024-02-04T08:46:05Z</time>
      </trkpt>
      <trkpt lat="43.16249" lon="6.51469">
        <ele>148.5</ele>
        <time>2024-02-04T08:46:06Z</time>
      </trkpt>
      <trkpt lat="43.16248" lon="6.51468">
        <ele>148.6</ele>
        <time>2024-02-04T08:46:07Z</time>
      </trkpt>
      <trkpt lat="43.16248" lon="6.51466">
        <ele>148.8</ele>
        <time>2024-02-04T08:46:08Z</time>
      </trkpt>
      <trkpt lat="43.16248" lon="6.51465">
        <ele>149</ele>
        <time>2024-02-04T08:46:09Z</time>
      </trkpt>
      <trkpt lat="43.16248" lon="6.51464">
        <ele>149.2</ele>
        <time>2024-02-04T08:46:10Z</time>
      </trkpt>
      <trkpt lat="43.16248" lon="6.51463">
        <ele>149.3</ele>
        <time>2024-02-04T08:46:11Z</time>
      </trkpt>
      <trkpt lat="43.16248" lon="6.51462">
        <ele>149.5</ele>
        <time>2024-02-04T08:46:12Z</time>
      </trkpt>
      <trkpt lat="43.16248" lon="6.51461">
        <ele>149.7</ele>
        <time>2024-02-04T08:46:13Z</time>
      </trkpt>
      <trkpt lat="43.16247" lon="6.5146">
        <ele>149.9</ele>
        <time>2024-02-04T08:46:14Z</time>
      </trkpt>
      <trkpt lat="43.16247" lon="6.51459">
        <ele>150.1</ele>
        <time>2024-02-04T08:46:15Z</time>
      </trkpt>
      <trkpt lat="43.16247" lon="6.51458">
        <ele>150.3</ele>
        <time>2024-02-04T08:46:16Z</time>
      </trkpt>
      <trkpt lat="43.16246" lon="6.51457">
        <ele>150.4</ele>
        <time>2024-02-04T08:46:17Z</time>
      </trkpt>
      <trkpt lat="43.16246" lon="6.51456">
        <ele>150.6</ele>
        <time>2024-02-04T08:46:18Z</time>
      </trkpt>
      <trkpt lat="43.16246" lon="6.51455">
        <ele>150.7</ele>
        <time>2024-02-04T08:46:19Z</time>
      </trkpt>
      <trkpt lat="43.16246" lon="6.51454">
        <ele>150.9</ele>
        <time>2024-02-04T08:46:20Z</time>
      </trkpt>
      <trkpt lat="43.16246" lon="6.51453">
        <ele>151.1</ele>
        <time>2024-02-04T08:46:21Z</time>
      </trkpt>
      <trkpt lat="43.16246" lon="6.51451">
        <ele>151.2</ele>
        <time>2024-02-04T08:46:22Z</time>
      </trkpt>
      <trkpt lat="43.16245" lon="6.5145">
        <ele>151.3</ele>
        <time>2024-02-04T08:46:23Z</time>
      </trkpt>
      <trkpt lat="43.16245" lon="6.51449">
        <ele>151.4</ele>
        <time>2024-02-04T08:46:24Z</time>
      </trkpt>
      <trkpt lat="43.16245" lon="6.51448">
        <ele>151.6</ele>
        <time>2024-02-04T08:46:25Z</time>
      </trkpt>
      <trkpt lat="43.16245" lon="6.51447">
        <ele>151.8</ele>
        <time>2024-02-04T08:46:26Z</time>
      </trkpt>
      <trkpt lat="43.16244" lon="6.51446">
        <ele>151.9</ele>
        <time>2024-02-04T08:46:27Z</time>
      </trkpt>
      <trkpt lat="43.16244" lon="6.51445">
        <ele>152</ele>
        <time>2024-02-04T08:46:28Z</time>
      </trkpt>
      <trkpt lat="43.16244" lon="6.51443">
        <ele>152.1</ele>
        <time>2024-02-04T08:46:29Z</time>
      </trkpt>
      <trkpt lat="43.16244" lon="6.51442">
        <ele>152.3</ele>
        <time>2024-02-04T08:46:30Z</time>
      </trkpt>
      <trkpt lat="43.16243" lon="6.51441">
        <ele>152.3</ele>
        <time>2024-02-04T08:46:31Z</time>
      </trkpt>
      <trkpt lat="43.16243" lon="6.5144">
        <ele>152.5</ele>
        <time>2024-02-04T08:46:32Z</time>
      </trkpt>
      <trkpt lat="43.16243" lon="6.51439">
        <ele>152.6</ele>
        <time>2024-02-04T08:46:33Z</time>
      </trkpt>
      <trkpt lat="43.16242" lon="6.51438">
        <ele>152.6</ele>
        <time>2024-02-04T08:46:34Z</time>
      </trkpt>
      <trkpt lat="43.16242" lon="6.51436">
        <ele>152.7</ele>
        <time>2024-02-04T08:46:35Z</time>
      </trkpt>
      <trkpt lat="43.16242" lon="6.51435">
        <ele>152.8</ele>
        <time>2024-02-04T08:46:36Z</time>
      </trkpt>
      <trkpt lat="43.16241" lon="6.51434">
        <ele>152.9</ele>
        <time>2024-02-04T08:46:37Z</time>
      </trkpt>
      <trkpt lat="43.16241" lon="6.51433">
        <ele>153.1</ele>
        <time>2024-02-04T08:46:38Z</time>
      </trkpt>
      <trkpt lat="43.16241" lon="6.51433">
        <ele>153.2</ele>
        <time>2024-02-04T08:46:39Z</time>
      </trkpt>
      <trkpt lat="43.1624" lon="6.51432">
        <ele>153.4</ele>
        <time>2024-02-04T08:46:40Z</time>
      </trkpt>
      <trkpt lat="43.1624" lon="6.51431">
        <ele>153.6</ele>
        <time>2024-02-04T08:46:41Z</time>
      </trkpt>
      <trkpt lat="43.1624" lon="6.5143">
        <ele>153.8</ele>
        <time>2024-02-04T08:46:42Z</time>
      </trkpt>
      <trkpt lat="43.1624" lon="6.51429">
        <ele>154</ele>
        <time>2024-02-04T08:46:43Z</time>
      </trkpt>
      <trkpt lat="43.16239" lon="6.51428">
        <ele>154.2</ele>
        <time>2024-02-04T08:46:44Z</time>
      </trkpt>
      <trkpt lat="43.16239" lon="6.51427">
        <ele>154.4</ele>
        <time>2024-02-04T08:46:45Z</time>
      </trkpt>
      <trkpt lat="43.16239" lon="6.51426">
        <ele>154.6</ele>
        <time>2024-02-04T08:46:46Z</time>
      </trkpt>
      <trkpt lat="43.16238" lon="6.51425">
        <ele>154.7</ele>
        <time>2024-02-04T08:46:47Z</time>
      </trkpt>
      <trkpt lat="43.16238" lon="6.51424">
        <ele>154.8</ele>
        <time>2024-02-04T08:46:48Z</time>
      </trkpt>
      <trkpt lat="43.16237" lon="6.51423">
        <ele>154.9</ele>
        <time>2024-02-04T08:46:49Z</time>
      </trkpt>
      <trkpt lat="43.16237" lon="6.51422">
        <ele>155.1</ele>
        <time>2024-02-04T08:46:50Z</time>
      </trkpt>
      <trkpt lat="43.16237" lon="6.51421">
        <ele>155.3</ele>
        <time>2024-02-04T08:46:51Z</time>
      </trkpt>
      <trkpt lat="43.16236" lon="6.5142">
        <ele>155.4</ele>
        <time>2024-02-04T08:46:52Z</time>
      </trkpt>
      <trkpt lat="43.16236" lon="6.51419">
        <ele>155.5</ele>
        <time>2024-02-04T08:46:53Z</time>
      </trkpt>
      <trkpt lat="43.16235" lon="6.51418">
        <ele>155.7</ele>
        <time>2024-02-04T08:46:54Z</time>
      </trkpt>
      <trkpt lat="43.16234" lon="6.51418">
        <ele>155.8</ele>
        <time>2024-02-04T08:46:55Z</time>
      </trkpt>
      <trkpt lat="43.16234" lon="6.51417">
        <ele>156</ele>
        <time>2024-02-04T08:46:56Z</time>
      </trkpt>
      <trkpt lat="43.16233" lon="6.51416">
        <ele>156.2</ele>
        <time>2024-02-04T08:46:57Z</time>
      </trkpt>
      <trkpt lat="43.16233" lon="6.51415">
        <ele>156.3</ele>
        <time>2024-02-04T08:46:58Z</time>
      </trkpt>
      <trkpt lat="43.16232" lon="6.51414">
        <ele>156.5</ele>
        <time>2024-02-04T08:46:59Z</time>
      </trkpt>
      <trkpt lat="43.16231" lon="6.51413">
        <ele>156.7</ele>
        <time>2024-02-04T08:47:00Z</time>
      </trkpt>
      <trkpt lat="43.16231" lon="6.51412">
        <ele>156.9</ele>
        <time>2024-02-04T08:47:01Z</time>
      </trkpt>
      <trkpt lat="43.1623" lon="6.51411">
        <ele>157</ele>
        <time>2024-02-04T08:47:02Z</time>
      </trkpt>
      <trkpt lat="43.16229" lon="6.5141">
        <ele>157.2</ele>
        <time>2024-02-04T08:47:03Z</time>
      </trkpt>
      <trkpt lat="43.16228" lon="6.51409">
        <ele>157.3</ele>
        <time>2024-02-04T08:47:04Z</time>
      </trkpt>
      <trkpt lat="43.16227" lon="6.51408">
        <ele>157.6</ele>
        <time>2024-02-04T08:47:05Z</time>
      </trkpt>
      <trkpt lat="43.16226" lon="6.51407">
        <ele>157.8</ele>
        <time>2024-02-04T08:47:06Z</time>
      </trkpt>
      <trkpt lat="43.16225" lon="6.51406">
        <ele>158</ele>
        <time>2024-02-04T08:47:07Z</time>
      </trkpt>
      <trkpt lat="43.16224" lon="6.51405">
        <ele>158.1</ele>
        <time>2024-02-04T08:47:08Z</time>
      </trkpt>
      <trkpt lat="43.16223" lon="6.51404">
        <ele>158.3</ele>
        <time>2024-02-04T08:47:09Z</time>
      </trkpt>
      <trkpt lat="43.16222" lon="6.51403">
        <ele>158.5</ele>
        <time>2024-02-04T08:47:10Z</time>
      </trkpt>
      <trkpt lat="43.16221" lon="6.51403">
        <ele>158.6</ele>
        <time>2024-02-04T08:47:11Z</time>
      </trkpt>
      <trkpt lat="43.1622" lon="6.51402">
        <ele>158.8</ele>
        <time>2024-02-04T08:47:12Z</time>
      </trkpt>
      <trkpt lat="43.1622" lon="6.51401">
        <ele>158.9</ele>
        <time>2024-02-04T08:47:13Z</time>
      </trkpt>
      <trkpt lat="43.16219" lon="6.51401">
        <ele>159.1</ele>
        <time>2024-02-04T08:47:14Z</time>
      </trkpt>
      <trkpt lat="43.16218" lon="6.514">
        <ele>159.2</ele>
        <time>2024-02-04T08:47:15Z</time>
      </trkpt>
      <trkpt lat="43.16217" lon="6.51399">
        <ele>159.4</ele>
        <time>2024-02-04T08:47:16Z</time>
      </trkpt>
      <trkpt lat="43.16216" lon="6.51399">
        <ele>159.6</ele>
        <time>2024-02-04T08:47:17Z</time>
      </trkpt>
      <trkpt lat="43.16215" lon="6.51398">
        <ele>159.7</ele>
        <time>2024-02-04T08:47:18Z</time>
      </trkpt>
      <trkpt lat="43.16213" lon="6.51397">
        <ele>159.9</ele>
        <time>2024-02-04T08:47:19Z</time>
      </trkpt>
      <trkpt lat="43.16213" lon="6.51397">
        <ele>160</ele>
        <time>2024-02-04T08:47:20Z</time>
      </trkpt>
      <trkpt lat="43.16212" lon="6.51396">
        <ele>160.2</ele>
        <time>2024-02-04T08:47:21Z</time>
      </trkpt>
      <trkpt lat="43.16211" lon="6.51395">
        <ele>160.3</ele>
        <time>2024-02-04T08:47:22Z</time>
      </trkpt>
      <trkpt lat="43.1621" lon="6.51394">
        <ele>160.4</ele>
        <time>2024-02-04T08:47:23Z</time>
      </trkpt>
      <trkpt lat="43.1621" lon="6.51393">
        <ele>160.7</ele>
        <time>2024-02-04T08:47:24Z</time>
      </trkpt>
      <trkpt lat="43.16209" lon="6.51393">
        <ele>160.8</ele>
        <time>2024-02-04T08:47:25Z</time>
      </trkpt>
      <trkpt lat="43.16208" lon="6.51392">
        <ele>160.9</ele>
        <time>2024-02-04T08:47:26Z</time>
      </trkpt>
      <trkpt lat="43.16207" lon="6.51391">
        <ele>161</ele>
        <time>2024-02-04T08:47:27Z</time>
      </trkpt>
      <trkpt lat="43.16206" lon="6.5139">
        <ele>161.1</ele>
        <time>2024-02-04T08:47:28Z</time>
      </trkpt>
      <trkpt lat="43.16205" lon="6.5139">
        <ele>161.2</ele>
        <time>2024-02-04T08:47:29Z</time>
      </trkpt>
      <trkpt lat="43.16204" lon="6.51389">
        <ele>161.3</ele>
        <time>2024-02-04T08:47:30Z</time>
      </trkpt>
      <trkpt lat="43.16203" lon="6.51388">
        <ele>161.4</ele>
        <time>2024-02-04T08:47:31Z</time>
      </trkpt>
      <trkpt lat="43.16202" lon="6.51388">
        <ele>161.5</ele>
        <time>2024-02-04T08:47:32Z</time>
      </trkpt>
      <trkpt lat="43.16201" lon="6.51387">
        <ele>161.6</ele>
        <time>2024-02-04T08:47:33Z</time>
      </trkpt>
      <trkpt lat="43.16201" lon="6.51386">
        <ele>161.7</ele>
        <time>2024-02-04T08:47:34Z</time>
      </trkpt>
      <trkpt lat="43.162" lon="6.51385">
        <ele>161.8</ele>
        <time>2024-02-04T08:47:35Z</time>
      </trkpt>
      <trkpt lat="43.16199" lon="6.51384">
        <ele>161.8</ele>
        <time>2024-02-04T08:47:36Z</time>
      </trkpt>
      <trkpt lat="43.16198" lon="6.51384">
        <ele>161.9</ele>
        <time>2024-02-04T08:47:37Z</time>
      </trkpt>
      <trkpt lat="43.16197" lon="6.51383">
        <ele>162.1</ele>
        <time>2024-02-04T08:47:38Z</time>
      </trkpt>
      <trkpt lat="43.16196" lon="6.51382">
        <ele>162.2</ele>
        <time>2024-02-04T08:47:39Z</time>
      </trkpt>
      <trkpt lat="43.16196" lon="6.51381">
        <ele>162.3</ele>
        <time>2024-02-04T08:47:40Z</time>
      </trkpt>
      <trkpt lat="43.16195" lon="6.5138">
        <ele>162.3</ele>
        <time>2024-02-04T08:47:41Z</time>
      </trkpt>
      <trkpt lat="43.16194" lon="6.51379">
        <ele>162.4</ele>
        <time>2024-02-04T08:47:42Z</time>
      </trkpt>
      <trkpt lat="43.16194" lon="6.51378">
        <ele>162.4</ele>
        <time>2024-02-04T08:47:43Z</time>
      </trkpt>
      <trkpt lat="43.16194" lon="6.51377">
        <ele>162.5</ele>
        <time>2024-02-04T08:47:44Z</time>
      </trkpt>
      <trkpt lat="43.16194" lon="6.51375">
        <ele>162.5</ele>
        <time>2024-02-04T08:47:45Z</time>
      </trkpt>
      <trkpt lat="43.16194" lon="6.51374">
        <ele>162.5</ele>
        <time>2024-02-04T08:47:46Z</time>
      </trkpt>
      <trkpt lat="43.16193" lon="6.51374">
        <ele>162.5</ele>
        <time>2024-02-04T08:47:47Z</time>
      </trkpt>
      <trkpt lat="43.16193" lon="6.51373">
        <ele>162.4</ele>
        <time>2024-02-04T08:47:48Z</time>
      </trkpt>
      <trkpt lat="43.16193" lon="6.51372">
        <ele>162.3</ele>
        <time>2024-02-04T08:47:49Z</time>
      </trkpt>
      <trkpt lat="43.16193" lon="6.5137">
        <ele>162.2</ele>
        <time>2024-02-04T08:47:50Z</time>
      </trkpt>
      <trkpt lat="43.16193" lon="6.5137">
        <ele>162.1</ele>
        <time>2024-02-04T08:47:51Z</time>
      </trkpt>
      <trkpt lat="43.16193" lon="6.5137">
        <ele>162.2</ele>
        <time>2024-02-04T08:47:52Z</time>
      </trkpt>
      <trkpt lat="43.16194" lon="6.51369">
        <ele>162.1</ele>
        <time>2024-02-04T08:47:53Z</time>
      </trkpt>
      <trkpt lat="43.16194" lon="6.51369">
        <ele>162.1</ele>
        <time>2024-02-04T08:47:54Z</time>
      </trkpt>
      <trkpt lat="43.16194" lon="6.51368">
        <ele>162.1</ele>
        <time>2024-02-04T08:47:55Z</time>
      </trkpt>
      <trkpt lat="43.16193" lon="6.51368">
        <ele>162.1</ele>
        <time>2024-02-04T08:47:56Z</time>
      </trkpt>
      <trkpt lat="43.16193" lon="6.51367">
        <ele>162.1</ele>
        <time>2024-02-04T08:47:57Z</time>
      </trkpt>
      <trkpt lat="43.16193" lon="6.51367">
        <ele>162.1</ele>
        <time>2024-02-04T08:47:58Z</time>
      </trkpt>
      <trkpt lat="43.16193" lon="6.51367">
        <ele>162.1</ele>
        <time>2024-02-04T08:47:59Z</time>
      </trkpt>
      <trkpt lat="43.16193" lon="6.51367">
        <ele>162.2</ele>
        <time>2024-02-04T08:48:00Z</time>
      </trkpt>
      <trkpt lat="43.16193" lon="6.51367">
        <ele>162.2</ele>
        <time>2024-02-04T08:48:01Z</time>
      </trkpt>
      <trkpt lat="43.16193" lon="6.51367">
        <ele>162.2</ele>
        <time>2024-02-04T08:48:02Z</time>
      </trkpt>
      <trkpt lat="43.16193" lon="6.51367">
        <ele>162.1</ele>
        <time>2024-02-04T08:48:03Z</time>
      </trkpt>
      <trkpt lat="43.16193" lon="6.51367">
        <ele>162.1</ele>
        <time>2024-02-04T08:48:04Z</time>
      </trkpt>
      <trkpt lat="43.16193" lon="6.51367">
        <ele>162.2</ele>
        <time>2024-02-04T08:48:05Z</time>
      </trkpt>
      <trkpt lat="43.16193" lon="6.51367">
        <ele>162.2</ele>
        <time>2024-02-04T08:48:06Z</time>
      </trkpt>
      <trkpt lat="43.16192" lon="6.51367">
        <ele>162.3</ele>
        <time>2024-02-04T08:48:07Z</time>
      </trkpt>
      <trkpt lat="43.16192" lon="6.51367">
        <ele>162.3</ele>
        <time>2024-02-04T08:48:08Z</time>
      </trkpt>
      <trkpt lat="43.16192" lon="6.51367">
        <ele>162.2</ele>
        <time>2024-02-04T08:48:09Z</time>
      </trkpt>
      <trkpt lat="43.16192" lon="6.51367">
        <ele>162.2</ele>
        <time>2024-02-04T08:48:10Z</time>
      </trkpt>
      <trkpt lat="43.16192" lon="6.51367">
        <ele>162.2</ele>
        <time>2024-02-04T08:48:11Z</time>
      </trkpt>
      <trkpt lat="43.16192" lon="6.51368">
        <ele>162.1</ele>
        <time>2024-02-04T08:48:12Z</time>
      </trkpt>
      <trkpt lat="43.16192" lon="6.51368">
        <ele>162.1</ele>
        <time>2024-02-04T08:48:13Z</time>
      </trkpt>
      <trkpt lat="43.16192" lon="6.51368">
        <ele>162.1</ele>
        <time>2024-02-04T08:48:14Z</time>
      </trkpt>
      <trkpt lat="43.16192" lon="6.51368">
        <ele>162.1</ele>
        <time>2024-02-04T08:48:15Z</time>
      </trkpt>
      <trkpt lat="43.16192" lon="6.51368">
        <ele>162.1</ele>
        <time>2024-02-04T08:48:16Z</time>
      </trkpt>
      <trkpt lat="43.16191" lon="6.51368">
        <ele>162.2</ele>
        <time>2024-02-04T08:48:17Z</time>
      </trkpt>
      <trkpt lat="43.16191" lon="6.51368">
        <ele>162.2</ele>
        <time>2024-02-04T08:48:18Z</time>
      </trkpt>
      <trkpt lat="43.16191" lon="6.51368">
        <ele>162.2</ele>
        <time>2024-02-04T08:48:19Z</time>
      </trkpt>
      <trkpt lat="43.16191" lon="6.51368">
        <ele>162.3</ele>
        <time>2024-02-04T08:48:20Z</time>
      </trkpt>
      <trkpt lat="43.16191" lon="6.51368">
        <ele>162.3</ele>
        <time>2024-02-04T08:48:21Z</time>
      </trkpt>
      <trkpt lat="43.16191" lon="6.51368">
        <ele>162.3</ele>
        <time>2024-02-04T08:48:22Z</time>
      </trkpt>
      <trkpt lat="43.16191" lon="6.51367">
        <ele>162.3</ele>
        <time>2024-02-04T08:48:23Z</time>
      </trkpt>
      <trkpt lat="43.16191" lon="6.51367">
        <ele>162.3</ele>
        <time>2024-02-04T08:48:24Z</time>
      </trkpt>
      <trkpt lat="43.16191" lon="6.51367">
        <ele>162.3</ele>
        <time>2024-02-04T08:48:25Z</time>
      </trkpt>
      <trkpt lat="43.16191" lon="6.51367">
        <ele>162.3</ele>
        <time>2024-02-04T08:48:26Z</time>
      </trkpt>
      <trkpt lat="43.16191" lon="6.51367">
        <ele>162.3</ele>
        <time>2024-02-04T08:48:27Z</time>
      </trkpt>
      <trkpt lat="43.16191" lon="6.51367">
        <ele>162.3</ele>
        <time>2024-02-04T08:48:28Z</time>
      </trkpt>
      <trkpt lat="43.16191" lon="6.51367">
        <ele>162.2</ele>
        <time>2024-02-04T08:48:29Z</time>
      </trkpt>
      <trkpt lat="43.16191" lon="6.51368">
        <ele>162.2</ele>
        <time>2024-02-04T08:48:30Z</time>
      </trkpt>
      <trkpt lat="43.1619" lon="6.51368">
        <ele>162.1</ele>
        <time>2024-02-04T08:48:31Z</time>
      </trkpt>
      <trkpt lat="43.1619" lon="6.51368">
        <ele>162.1</ele>
        <time>2024-02-04T08:48:32Z</time>
      </trkpt>
      <trkpt lat="43.1619" lon="6.51368">
        <ele>162.1</ele>
        <time>2024-02-04T08:48:33Z</time>
      </trkpt>
      <trkpt lat="43.1619" lon="6.51368">
        <ele>162.2</ele>
        <time>2024-02-04T08:48:34Z</time>
      </trkpt>
      <trkpt lat="43.1619" lon="6.51367">
        <ele>162.2</ele>
        <time>2024-02-04T08:48:35Z</time>
      </trkpt>
      <trkpt lat="43.1619" lon="6.51366">
        <ele>162.2</ele>
        <time>2024-02-04T08:48:36Z</time>
      </trkpt>
      <trkpt lat="43.1619" lon="6.51366">
        <ele>162.2</ele>
        <time>2024-02-04T08:48:37Z</time>
      </trkpt>
      <trkpt lat="43.1619" lon="6.51365">
        <ele>162.2</ele>
        <time>2024-02-04T08:48:38Z</time>
      </trkpt>
      <trkpt lat="43.1619" lon="6.51365">
        <ele>162.3</ele>
        <time>2024-02-04T08:48:39Z</time>
      </trkpt>
      <trkpt lat="43.1619" lon="6.51365">
        <ele>162.3</ele>
        <time>2024-02-04T08:48:40Z</time>
      </trkpt>
      <trkpt lat="43.1619" lon="6.51365">
        <ele>162.3</ele>
        <time>2024-02-04T08:48:41Z</time>
      </trkpt>
      <trkpt lat="43.1619" lon="6.51365">
        <ele>162.3</ele>
        <time>2024-02-04T08:48:42Z</time>
      </trkpt>
      <trkpt lat="43.16189" lon="6.51365">
        <ele>162.2</ele>
        <time>2024-02-04T08:48:43Z</time>
      </trkpt>
      <trkpt lat="43.16189" lon="6.51365">
        <ele>162.2</ele>
        <time>2024-02-04T08:48:44Z</time>
      </trkpt>
      <trkpt lat="43.16189" lon="6.51365">
        <ele>162.1</ele>
        <time>2024-02-04T08:48:45Z</time>
      </trkpt>
      <trkpt lat="43.16189" lon="6.51365">
        <ele>162.1</ele>
        <time>2024-02-04T08:48:46Z</time>
      </trkpt>
      <trkpt lat="43.1619" lon="6.51365">
        <ele>162.1</ele>
        <time>2024-02-04T08:48:47Z</time>
      </trkpt>
      <trkpt lat="43.16189" lon="6.51365">
        <ele>162.2</ele>
        <time>2024-02-04T08:48:48Z</time>
      </trkpt>
      <trkpt lat="43.1619" lon="6.51365">
        <ele>162.3</ele>
        <time>2024-02-04T08:48:49Z</time>
      </trkpt>
      <trkpt lat="43.16189" lon="6.51365">
        <ele>162.3</ele>
        <time>2024-02-04T08:48:50Z</time>
      </trkpt>
      <trkpt lat="43.16189" lon="6.51365">
        <ele>162.3</ele>
        <time>2024-02-04T08:48:51Z</time>
      </trkpt>
      <trkpt lat="43.16189" lon="6.51365">
        <ele>162.3</ele>
        <time>2024-02-04T08:48:52Z</time>
      </trkpt>
      <trkpt lat="43.16189" lon="6.51365">
        <ele>162.3</ele>
        <time>2024-02-04T08:48:53Z</time>
      </trkpt>
      <trkpt lat="43.16189" lon="6.51365">
        <ele>162.3</ele>
        <time>2024-02-04T08:48:54Z</time>
      </trkpt>
      <trkpt lat="43.16188" lon="6.51365">
        <ele>162.3</ele>
        <time>2024-02-04T08:48:55Z</time>
      </trkpt>
      <trkpt lat="43.16187" lon="6.51365">
        <ele>162.3</ele>
        <time>2024-02-04T08:48:56Z</time>
      </trkpt>
      <trkpt lat="43.16186" lon="6.51365">
        <ele>162.2</ele>
        <time>2024-02-04T08:48:57Z</time>
      </trkpt>
      <trkpt lat="43.16185" lon="6.51365">
        <ele>162.2</ele>
        <time>2024-02-04T08:48:58Z</time>
      </trkpt>
      <trkpt lat="43.16184" lon="6.51364">
        <ele>162.2</ele>
        <time>2024-02-04T08:48:59Z</time>
      </trkpt>
      <trkpt lat="43.16183" lon="6.51363">
        <ele>162.2</ele>
        <time>2024-02-04T08:49:00Z</time>
      </trkpt>
      <trkpt lat="43.16183" lon="6.51362">
        <ele>162.2</ele>
        <time>2024-02-04T08:49:01Z</time>
      </trkpt>
      <trkpt lat="43.16182" lon="6.51362">
        <ele>162.2</ele>
        <time>2024-02-04T08:49:02Z</time>
      </trkpt>
      <trkpt lat="43.16181" lon="6.51361">
        <ele>162.2</ele>
        <time>2024-02-04T08:49:03Z</time>
      </trkpt>
      <trkpt lat="43.16181" lon="6.5136">
        <ele>162.3</ele>
        <time>2024-02-04T08:49:04Z</time>
      </trkpt>
      <trkpt lat="43.1618" lon="6.51359">
        <ele>162.4</ele>
        <time>2024-02-04T08:49:05Z</time>
      </trkpt>
      <trkpt lat="43.1618" lon="6.51359">
        <ele>162.4</ele>
        <time>2024-02-04T08:49:06Z</time>
      </trkpt>
      <trkpt lat="43.16179" lon="6.51358">
        <ele>162.4</ele>
        <time>2024-02-04T08:49:07Z</time>
      </trkpt>
      <trkpt lat="43.16179" lon="6.51357">
        <ele>162.3</ele>
        <time>2024-02-04T08:49:08Z</time>
      </trkpt>
      <trkpt lat="43.16178" lon="6.51356">
        <ele>162.3</ele>
        <time>2024-02-04T08:49:09Z</time>
      </trkpt>
      <trkpt lat="43.16177" lon="6.51355">
        <ele>162.3</ele>
        <time>2024-02-04T08:49:10Z</time>
      </trkpt>
      <trkpt lat="43.16176" lon="6.51355">
        <ele>162.3</ele>
        <time>2024-02-04T08:49:11Z</time>
      </trkpt>
      <trkpt lat="43.16175" lon="6.51354">
        <ele>162.4</ele>
        <time>2024-02-04T08:49:12Z</time>
      </trkpt>
      <trkpt lat="43.16174" lon="6.51354">
        <ele>162.6</ele>
        <time>2024-02-04T08:49:13Z</time>
      </trkpt>
      <trkpt lat="43.16174" lon="6.51353">
        <ele>162.7</ele>
        <time>2024-02-04T08:49:14Z</time>
      </trkpt>
      <trkpt lat="43.16173" lon="6.51352">
        <ele>162.8</ele>
        <time>2024-02-04T08:49:15Z</time>
      </trkpt>
      <trkpt lat="43.16172" lon="6.51351">
        <ele>162.9</ele>
        <time>2024-02-04T08:49:16Z</time>
      </trkpt>
      <trkpt lat="43.16172" lon="6.5135">
        <ele>162.9</ele>
        <time>2024-02-04T08:49:17Z</time>
      </trkpt>
      <trkpt lat="43.16171" lon="6.5135">
        <ele>162.9</ele>
        <time>2024-02-04T08:49:18Z</time>
      </trkpt>
      <trkpt lat="43.1617" lon="6.5135">
        <ele>162.9</ele>
        <time>2024-02-04T08:49:19Z</time>
      </trkpt>
      <trkpt lat="43.16169" lon="6.5135">
        <ele>162.9</ele>
        <time>2024-02-04T08:49:20Z</time>
      </trkpt>
      <trkpt lat="43.16169" lon="6.5135">
        <ele>162.9</ele>
        <time>2024-02-04T08:49:21Z</time>
      </trkpt>
      <trkpt lat="43.16169" lon="6.5135">
        <ele>162.9</ele>
        <time>2024-02-04T08:49:22Z</time>
      </trkpt>
      <trkpt lat="43.16169" lon="6.5135">
        <ele>163</ele>
        <time>2024-02-04T08:49:23Z</time>
      </trkpt>
      <trkpt lat="43.16168" lon="6.5135">
        <ele>163.1</ele>
        <time>2024-02-04T08:49:24Z</time>
      </trkpt>
      <trkpt lat="43.16168" lon="6.5135">
        <ele>163.1</ele>
        <time>2024-02-04T08:49:25Z</time>
      </trkpt>
      <trkpt lat="43.16168" lon="6.5135">
        <ele>163.2</ele>
        <time>2024-02-04T08:49:26Z</time>
      </trkpt>
      <trkpt lat="43.16168" lon="6.5135">
        <ele>163.2</ele>
        <time>2024-02-04T08:49:27Z</time>
      </trkpt>
      <trkpt lat="43.16168" lon="6.5135">
        <ele>163.2</ele>
        <time>2024-02-04T08:49:28Z</time>
      </trkpt>
      <trkpt lat="43.16168" lon="6.5135">
        <ele>163.2</ele>
        <time>2024-02-04T08:49:29Z</time>
      </trkpt>
      <trkpt lat="43.16168" lon="6.5135">
        <ele>163.1</ele>
        <time>2024-02-04T08:49:30Z</time>
      </trkpt>
      <trkpt lat="43.16167" lon="6.5135">
        <ele>163.1</ele>
        <time>2024-02-04T08:49:31Z</time>
      </trkpt>
      <trkpt lat="43.16167" lon="6.5135">
        <ele>163.1</ele>
        <time>2024-02-04T08:49:32Z</time>
      </trkpt>
      <trkpt lat="43.16167" lon="6.5135">
        <ele>163.1</ele>
        <time>2024-02-04T08:49:33Z</time>
      </trkpt>
      <trkpt lat="43.16167" lon="6.5135">
        <ele>163.1</ele>
        <time>2024-02-04T08:49:34Z</time>
      </trkpt>
      <trkpt lat="43.16167" lon="6.5135">
        <ele>163.1</ele>
        <time>2024-02-04T08:49:35Z</time>
      </trkpt>
      <trkpt lat="43.16167" lon="6.5135">
        <ele>163.1</ele>
        <time>2024-02-04T08:49:36Z</time>
      </trkpt>
      <trkpt lat="43.16167" lon="6.51349">
        <ele>163.1</ele>
        <time>2024-02-04T08:49:37Z</time>
      </trkpt>
      <trkpt lat="43.16167" lon="6.51348">
        <ele>163.1</ele>
        <time>2024-02-04T08:49:38Z</time>
      </trkpt>
      <trkpt lat="43.16166" lon="6.51347">
        <ele>163.2</ele>
        <time>2024-02-04T08:49:39Z</time>
      </trkpt>
      <trkpt lat="43.16166" lon="6.51346">
        <ele>163.3</ele>
        <time>2024-02-04T08:49:40Z</time>
      </trkpt>
      <trkpt lat="43.16165" lon="6.51345">
        <ele>163.3</ele>
        <time>2024-02-04T08:49:41Z</time>
      </trkpt>
      <trkpt lat="43.16165" lon="6.51344">
        <ele>163.4</ele>
        <time>2024-02-04T08:49:42Z</time>
      </trkpt>
      <trkpt lat="43.16165" lon="6.51343">
        <ele>163.4</ele>
        <time>2024-02-04T08:49:43Z</time>
      </trkpt>
      <trkpt lat="43.16164" lon="6.51342">
        <ele>163.5</ele>
        <time>2024-02-04T08:49:44Z</time>
      </trkpt>
      <trkpt lat="43.16163" lon="6.51341">
        <ele>163.6</ele>
        <time>2024-02-04T08:49:45Z</time>
      </trkpt>
      <trkpt lat="43.16163" lon="6.5134">
        <ele>163.8</ele>
        <time>2024-02-04T08:49:46Z</time>
      </trkpt>
      <trkpt lat="43.16162" lon="6.51339">
        <ele>163.9</ele>
        <time>2024-02-04T08:49:47Z</time>
      </trkpt>
      <trkpt lat="43.16162" lon="6.51338">
        <ele>163.9</ele>
        <time>2024-02-04T08:49:48Z</time>
      </trkpt>
      <trkpt lat="43.16161" lon="6.51338">
        <ele>164</ele>
        <time>2024-02-04T08:49:49Z</time>
      </trkpt>
      <trkpt lat="43.1616" lon="6.51337">
        <ele>164.1</ele>
        <time>2024-02-04T08:49:50Z</time>
      </trkpt>
      <trkpt lat="43.1616" lon="6.51337">
        <ele>164.3</ele>
        <time>2024-02-04T08:49:51Z</time>
      </trkpt>
      <trkpt lat="43.1616" lon="6.51336">
        <ele>164.5</ele>
        <time>2024-02-04T08:49:52Z</time>
      </trkpt>
      <trkpt lat="43.16159" lon="6.51336">
        <ele>164.7</ele>
        <time>2024-02-04T08:49:53Z</time>
      </trkpt>
      <trkpt lat="43.16159" lon="6.51335">
        <ele>164.9</ele>
        <time>2024-02-04T08:49:54Z</time>
      </trkpt>
      <trkpt lat="43.16158" lon="6.51334">
        <ele>165.1</ele>
        <time>2024-02-04T08:49:55Z</time>
      </trkpt>
      <trkpt lat="43.16157" lon="6.51334">
        <ele>165.2</ele>
        <time>2024-02-04T08:49:56Z</time>
      </trkpt>
      <trkpt lat="43.16156" lon="6.51333">
        <ele>165.4</ele>
        <time>2024-02-04T08:49:57Z</time>
      </trkpt>
      <trkpt lat="43.16155" lon="6.51332">
        <ele>165.4</ele>
        <time>2024-02-04T08:49:58Z</time>
      </trkpt>
      <trkpt lat="43.16154" lon="6.51332">
        <ele>165.6</ele>
        <time>2024-02-04T08:49:59Z</time>
      </trkpt>
      <trkpt lat="43.16153" lon="6.51331">
        <ele>165.7</ele>
        <time>2024-02-04T08:50:00Z</time>
      </trkpt>
      <trkpt lat="43.16152" lon="6.5133">
        <ele>165.8</ele>
        <time>2024-02-04T08:50:01Z</time>
      </trkpt>
      <trkpt lat="43.16152" lon="6.51329">
        <ele>165.9</ele>
        <time>2024-02-04T08:50:02Z</time>
      </trkpt>
      <trkpt lat="43.16151" lon="6.51328">
        <ele>165.9</ele>
        <time>2024-02-04T08:50:03Z</time>
      </trkpt>
      <trkpt lat="43.1615" lon="6.51327">
        <ele>166</ele>
        <time>2024-02-04T08:50:04Z</time>
      </trkpt>
      <trkpt lat="43.16149" lon="6.51326">
        <ele>166.1</ele>
        <time>2024-02-04T08:50:05Z</time>
      </trkpt>
      <trkpt lat="43.16149" lon="6.51326">
        <ele>166.2</ele>
        <time>2024-02-04T08:50:06Z</time>
      </trkpt>
      <trkpt lat="43.16149" lon="6.51324">
        <ele>166.2</ele>
        <time>2024-02-04T08:50:07Z</time>
      </trkpt>
      <trkpt lat="43.16149" lon="6.51323">
        <ele>166.3</ele>
        <time>2024-02-04T08:50:08Z</time>
      </trkpt>
      <trkpt lat="43.16148" lon="6.51322">
        <ele>166.4</ele>
        <time>2024-02-04T08:50:09Z</time>
      </trkpt>
      <trkpt lat="43.16148" lon="6.51321">
        <ele>166.5</ele>
        <time>2024-02-04T08:50:10Z</time>
      </trkpt>
      <trkpt lat="43.16147" lon="6.5132">
        <ele>166.6</ele>
        <time>2024-02-04T08:50:11Z</time>
      </trkpt>
      <trkpt lat="43.16146" lon="6.51318">
        <ele>166.7</ele>
        <time>2024-02-04T08:50:12Z</time>
      </trkpt>
      <trkpt lat="43.16146" lon="6.51317">
        <ele>166.9</ele>
        <time>2024-02-04T08:50:13Z</time>
      </trkpt>
      <trkpt lat="43.16145" lon="6.51315">
        <ele>167</ele>
        <time>2024-02-04T08:50:14Z</time>
      </trkpt>
      <trkpt lat="43.16145" lon="6.51314">
        <ele>167.2</ele>
        <time>2024-02-04T08:50:15Z</time>
      </trkpt>
      <trkpt lat="43.16144" lon="6.51313">
        <ele>167.3</ele>
        <time>2024-02-04T08:50:16Z</time>
      </trkpt>
      <trkpt lat="43.16144" lon="6.51312">
        <ele>167.3</ele>
        <time>2024-02-04T08:50:17Z</time>
      </trkpt>
      <trkpt lat="43.16143" lon="6.51311">
        <ele>167.4</ele>
        <time>2024-02-04T08:50:18Z</time>
      </trkpt>
      <trkpt lat="43.16142" lon="6.51309">
        <ele>167.2</ele>
        <time>2024-02-04T08:50:19Z</time>
      </trkpt>
      <trkpt lat="43.16142" lon="6.51308">
        <ele>167.3</ele>
        <time>2024-02-04T08:50:20Z</time>
      </trkpt>
      <trkpt lat="43.16141" lon="6.51307">
        <ele>167.4</ele>
        <time>2024-02-04T08:50:21Z</time>
      </trkpt>
      <trkpt lat="43.1614" lon="6.51305">
        <ele>167.4</ele>
        <time>2024-02-04T08:50:22Z</time>
      </trkpt>
      <trkpt lat="43.1614" lon="6.51304">
        <ele>167.5</ele>
        <time>2024-02-04T08:50:23Z</time>
      </trkpt>
      <trkpt lat="43.16139" lon="6.51303">
        <ele>167.5</ele>
        <time>2024-02-04T08:50:24Z</time>
      </trkpt>
      <trkpt lat="43.16139" lon="6.51302">
        <ele>167.6</ele>
        <time>2024-02-04T08:50:25Z</time>
      </trkpt>
      <trkpt lat="43.16138" lon="6.51301">
        <ele>167.6</ele>
        <time>2024-02-04T08:50:26Z</time>
      </trkpt>
      <trkpt lat="43.16137" lon="6.51299">
        <ele>167.6</ele>
        <time>2024-02-04T08:50:27Z</time>
      </trkpt>
      <trkpt lat="43.16137" lon="6.51298">
        <ele>167.7</ele>
        <time>2024-02-04T08:50:28Z</time>
      </trkpt>
      <trkpt lat="43.16136" lon="6.51298">
        <ele>167.7</ele>
        <time>2024-02-04T08:50:29Z</time>
      </trkpt>
      <trkpt lat="43.16136" lon="6.51297">
        <ele>168</ele>
        <time>2024-02-04T08:50:30Z</time>
      </trkpt>
      <trkpt lat="43.16136" lon="6.51296">
        <ele>168.1</ele>
        <time>2024-02-04T08:50:31Z</time>
      </trkpt>
      <trkpt lat="43.16135" lon="6.51295">
        <ele>168.2</ele>
        <time>2024-02-04T08:50:32Z</time>
      </trkpt>
      <trkpt lat="43.16135" lon="6.51294">
        <ele>168.3</ele>
        <time>2024-02-04T08:50:33Z</time>
      </trkpt>
      <trkpt lat="43.16134" lon="6.51294">
        <ele>168.5</ele>
        <time>2024-02-04T08:50:34Z</time>
      </trkpt>
      <trkpt lat="43.16133" lon="6.51293">
        <ele>168.6</ele>
        <time>2024-02-04T08:50:35Z</time>
      </trkpt>
      <trkpt lat="43.16133" lon="6.51292">
        <ele>168.7</ele>
        <time>2024-02-04T08:50:36Z</time>
      </trkpt>
      <trkpt lat="43.16132" lon="6.51291">
        <ele>169</ele>
        <time>2024-02-04T08:50:37Z</time>
      </trkpt>
      <trkpt lat="43.16132" lon="6.5129">
        <ele>169.2</ele>
        <time>2024-02-04T08:50:38Z</time>
      </trkpt>
      <trkpt lat="43.16131" lon="6.51289">
        <ele>169.6</ele>
        <time>2024-02-04T08:50:39Z</time>
      </trkpt>
      <trkpt lat="43.1613" lon="6.51288">
        <ele>169.8</ele>
        <time>2024-02-04T08:50:40Z</time>
      </trkpt>
      <trkpt lat="43.16129" lon="6.51287">
        <ele>169.9</ele>
        <time>2024-02-04T08:50:41Z</time>
      </trkpt>
      <trkpt lat="43.16128" lon="6.51285">
        <ele>170</ele>
        <time>2024-02-04T08:50:42Z</time>
      </trkpt>
      <trkpt lat="43.16128" lon="6.51284">
        <ele>170.2</ele>
        <time>2024-02-04T08:50:43Z</time>
      </trkpt>
      <trkpt lat="43.16127" lon="6.51283">
        <ele>170.2</ele>
        <time>2024-02-04T08:50:44Z</time>
      </trkpt>
      <trkpt lat="43.16126" lon="6.51282">
        <ele>170.2</ele>
        <time>2024-02-04T08:50:45Z</time>
      </trkpt>
      <trkpt lat="43.16125" lon="6.51282">
        <ele>170.3</ele>
        <time>2024-02-04T08:50:46Z</time>
      </trkpt>
      <trkpt lat="43.16124" lon="6.51281">
        <ele>170.3</ele>
        <time>2024-02-04T08:50:47Z</time>
      </trkpt>
      <trkpt lat="43.16123" lon="6.5128">
        <ele>170.4</ele>
        <time>2024-02-04T08:50:48Z</time>
      </trkpt>
      <trkpt lat="43.16122" lon="6.5128">
        <ele>170.4</ele>
        <time>2024-02-04T08:50:49Z</time>
      </trkpt>
      <trkpt lat="43.16121" lon="6.51279">
        <ele>170.5</ele>
        <time>2024-02-04T08:50:50Z</time>
      </trkpt>
      <trkpt lat="43.1612" lon="6.51278">
        <ele>170.5</ele>
        <time>2024-02-04T08:50:51Z</time>
      </trkpt>
      <trkpt lat="43.16119" lon="6.51278">
        <ele>170.6</ele>
        <time>2024-02-04T08:50:52Z</time>
      </trkpt>
      <trkpt lat="43.16119" lon="6.51277">
        <ele>170.6</ele>
        <time>2024-02-04T08:50:53Z</time>
      </trkpt>
      <trkpt lat="43.16118" lon="6.51277">
        <ele>170.6</ele>
        <time>2024-02-04T08:50:54Z</time>
      </trkpt>
      <trkpt lat="43.16117" lon="6.51277">
        <ele>170.5</ele>
        <time>2024-02-04T08:50:55Z</time>
      </trkpt>
      <trkpt lat="43.16116" lon="6.51276">
        <ele>170.5</ele>
        <time>2024-02-04T08:50:56Z</time>
      </trkpt>
      <trkpt lat="43.16114" lon="6.51276">
        <ele>170.4</ele>
        <time>2024-02-04T08:50:57Z</time>
      </trkpt>
      <trkpt lat="43.16113" lon="6.51276">
        <ele>170.4</ele>
        <time>2024-02-04T08:50:58Z</time>
      </trkpt>
      <trkpt lat="43.16112" lon="6.51275">
        <ele>170.3</ele>
        <time>2024-02-04T08:50:59Z</time>
      </trkpt>
      <trkpt lat="43.16111" lon="6.51275">
        <ele>170.3</ele>
        <time>2024-02-04T08:51:00Z</time>
      </trkpt>
      <trkpt lat="43.1611" lon="6.51274">
        <ele>170.2</ele>
        <time>2024-02-04T08:51:01Z</time>
      </trkpt>
      <trkpt lat="43.16109" lon="6.51273">
        <ele>170.1</ele>
        <time>2024-02-04T08:51:02Z</time>
      </trkpt>
      <trkpt lat="43.16108" lon="6.51271">
        <ele>170</ele>
        <time>2024-02-04T08:51:03Z</time>
      </trkpt>
      <trkpt lat="43.16108" lon="6.5127">
        <ele>169.9</ele>
        <time>2024-02-04T08:51:04Z</time>
      </trkpt>
      <trkpt lat="43.16107" lon="6.51269">
        <ele>170</ele>
        <time>2024-02-04T08:51:05Z</time>
      </trkpt>
      <trkpt lat="43.16106" lon="6.51268">
        <ele>170.1</ele>
        <time>2024-02-04T08:51:06Z</time>
      </trkpt>
      <trkpt lat="43.16105" lon="6.51267">
        <ele>170.1</ele>
        <time>2024-02-04T08:51:07Z</time>
      </trkpt>
      <trkpt lat="43.16104" lon="6.51266">
        <ele>170.2</ele>
        <time>2024-02-04T08:51:08Z</time>
      </trkpt>
      <trkpt lat="43.16103" lon="6.51265">
        <ele>170.2</ele>
        <time>2024-02-04T08:51:09Z</time>
      </trkpt>
      <trkpt lat="43.16103" lon="6.51264">
        <ele>170.3</ele>
        <time>2024-02-04T08:51:10Z</time>
      </trkpt>
      <trkpt lat="43.16103" lon="6.51262">
        <ele>170.4</ele>
        <time>2024-02-04T08:51:11Z</time>
      </trkpt>
      <trkpt lat="43.16102" lon="6.51261">
        <ele>170.5</ele>
        <time>2024-02-04T08:51:12Z</time>
      </trkpt>
      <trkpt lat="43.16102" lon="6.5126">
        <ele>170.5</ele>
        <time>2024-02-04T08:51:13Z</time>
      </trkpt>
      <trkpt lat="43.16101" lon="6.51258">
        <ele>170.5</ele>
        <time>2024-02-04T08:51:14Z</time>
      </trkpt>
      <trkpt lat="43.161" lon="6.51257">
        <ele>170.5</ele>
        <time>2024-02-04T08:51:15Z</time>
      </trkpt>
      <trkpt lat="43.161" lon="6.51257">
        <ele>170.5</ele>
        <time>2024-02-04T08:51:16Z</time>
      </trkpt>
      <trkpt lat="43.16099" lon="6.51256">
        <ele>170.4</ele>
        <time>2024-02-04T08:51:17Z</time>
      </trkpt>
      <trkpt lat="43.16098" lon="6.51256">
        <ele>170.4</ele>
        <time>2024-02-04T08:51:18Z</time>
      </trkpt>
      <trkpt lat="43.16097" lon="6.51255">
        <ele>170.4</ele>
        <time>2024-02-04T08:51:19Z</time>
      </trkpt>
      <trkpt lat="43.16095" lon="6.51254">
        <ele>170.3</ele>
        <time>2024-02-04T08:51:20Z</time>
      </trkpt>
      <trkpt lat="43.16095" lon="6.51252">
        <ele>170.2</ele>
        <time>2024-02-04T08:51:21Z</time>
      </trkpt>
      <trkpt lat="43.16094" lon="6.51251">
        <ele>170.1</ele>
        <time>2024-02-04T08:51:22Z</time>
      </trkpt>
      <trkpt lat="43.16094" lon="6.5125">
        <ele>170</ele>
        <time>2024-02-04T08:51:23Z</time>
      </trkpt>
      <trkpt lat="43.16093" lon="6.51249">
        <ele>170</ele>
        <time>2024-02-04T08:51:24Z</time>
      </trkpt>
      <trkpt lat="43.16093" lon="6.51247">
        <ele>169.9</ele>
        <time>2024-02-04T08:51:25Z</time>
      </trkpt>
      <trkpt lat="43.16092" lon="6.51246">
        <ele>169.9</ele>
        <time>2024-02-04T08:51:26Z</time>
      </trkpt>
      <trkpt lat="43.16092" lon="6.51245">
        <ele>169.7</ele>
        <time>2024-02-04T08:51:27Z</time>
      </trkpt>
      <trkpt lat="43.16092" lon="6.51244">
        <ele>169.6</ele>
        <time>2024-02-04T08:51:28Z</time>
      </trkpt>
      <trkpt lat="43.16092" lon="6.51243">
        <ele>169.5</ele>
        <time>2024-02-04T08:51:29Z</time>
      </trkpt>
      <trkpt lat="43.16091" lon="6.51241">
        <ele>169.5</ele>
        <time>2024-02-04T08:51:30Z</time>
      </trkpt>
      <trkpt lat="43.1609" lon="6.5124">
        <ele>169.3</ele>
        <time>2024-02-04T08:51:31Z</time>
      </trkpt>
      <trkpt lat="43.1609" lon="6.51239">
        <ele>169.2</ele>
        <time>2024-02-04T08:51:32Z</time>
      </trkpt>
      <trkpt lat="43.16089" lon="6.51237">
        <ele>169.1</ele>
        <time>2024-02-04T08:51:33Z</time>
      </trkpt>
      <trkpt lat="43.16089" lon="6.51236">
        <ele>169</ele>
        <time>2024-02-04T08:51:34Z</time>
      </trkpt>
      <trkpt lat="43.16088" lon="6.51235">
        <ele>168.9</ele>
        <time>2024-02-04T08:51:35Z</time>
      </trkpt>
      <trkpt lat="43.16088" lon="6.51233">
        <ele>168.9</ele>
        <time>2024-02-04T08:51:36Z</time>
      </trkpt>
      <trkpt lat="43.16087" lon="6.51232">
        <ele>168.9</ele>
        <time>2024-02-04T08:51:37Z</time>
      </trkpt>
      <trkpt lat="43.16086" lon="6.51231">
        <ele>168.7</ele>
        <time>2024-02-04T08:51:38Z</time>
      </trkpt>
      <trkpt lat="43.16085" lon="6.5123">
        <ele>168.6</ele>
        <time>2024-02-04T08:51:39Z</time>
      </trkpt>
      <trkpt lat="43.16085" lon="6.51229">
        <ele>168.4</ele>
        <time>2024-02-04T08:51:40Z</time>
      </trkpt>
      <trkpt lat="43.16085" lon="6.51227">
        <ele>168.2</ele>
        <time>2024-02-04T08:51:41Z</time>
      </trkpt>
      <trkpt lat="43.16084" lon="6.51226">
        <ele>168.1</ele>
        <time>2024-02-04T08:51:42Z</time>
      </trkpt>
      <trkpt lat="43.16084" lon="6.51225">
        <ele>168.1</ele>
        <time>2024-02-04T08:51:43Z</time>
      </trkpt>
      <trkpt lat="43.16083" lon="6.51224">
        <ele>168.1</ele>
        <time>2024-02-04T08:51:44Z</time>
      </trkpt>
      <trkpt lat="43.16083" lon="6.51222">
        <ele>168</ele>
        <time>2024-02-04T08:51:45Z</time>
      </trkpt>
      <trkpt lat="43.16083" lon="6.51221">
        <ele>168.1</ele>
        <time>2024-02-04T08:51:46Z</time>
      </trkpt>
      <trkpt lat="43.16083" lon="6.51219">
        <ele>168.1</ele>
        <time>2024-02-04T08:51:47Z</time>
      </trkpt>
      <trkpt lat="43.16083" lon="6.51218">
        <ele>168</ele>
        <time>2024-02-04T08:51:48Z</time>
      </trkpt>
      <trkpt lat="43.16082" lon="6.51217">
        <ele>167.9</ele>
        <time>2024-02-04T08:51:49Z</time>
      </trkpt>
      <trkpt lat="43.16082" lon="6.51216">
        <ele>167.9</ele>
        <time>2024-02-04T08:51:50Z</time>
      </trkpt>
      <trkpt lat="43.16082" lon="6.51215">
        <ele>167.8</ele>
        <time>2024-02-04T08:51:51Z</time>
      </trkpt>
      <trkpt lat="43.16081" lon="6.51213">
        <ele>167.9</ele>
        <time>2024-02-04T08:51:52Z</time>
      </trkpt>
      <trkpt lat="43.16081" lon="6.51212">
        <ele>168</ele>
        <time>2024-02-04T08:51:53Z</time>
      </trkpt>
      <trkpt lat="43.16081" lon="6.51211">
        <ele>168.1</ele>
        <time>2024-02-04T08:51:54Z</time>
      </trkpt>
      <trkpt lat="43.16081" lon="6.51209">
        <ele>168</ele>
        <time>2024-02-04T08:51:55Z</time>
      </trkpt>
      <trkpt lat="43.1608" lon="6.51208">
        <ele>168</ele>
        <time>2024-02-04T08:51:56Z</time>
      </trkpt>
      <trkpt lat="43.1608" lon="6.51207">
        <ele>168</ele>
        <time>2024-02-04T08:51:57Z</time>
      </trkpt>
      <trkpt lat="43.1608" lon="6.51205">
        <ele>168</ele>
        <time>2024-02-04T08:51:58Z</time>
      </trkpt>
      <trkpt lat="43.16079" lon="6.51204">
        <ele>168</ele>
        <time>2024-02-04T08:51:59Z</time>
      </trkpt>
      <trkpt lat="43.16079" lon="6.51202">
        <ele>167.9</ele>
        <time>2024-02-04T08:52:00Z</time>
      </trkpt>
      <trkpt lat="43.16079" lon="6.51201">
        <ele>167.9</ele>
        <time>2024-02-04T08:52:01Z</time>
      </trkpt>
      <trkpt lat="43.16079" lon="6.51199">
        <ele>167.9</ele>
        <time>2024-02-04T08:52:02Z</time>
      </trkpt>
      <trkpt lat="43.16078" lon="6.51198">
        <ele>167.9</ele>
        <time>2024-02-04T08:52:03Z</time>
      </trkpt>
      <trkpt lat="43.16078" lon="6.51196">
        <ele>167.9</ele>
        <time>2024-02-04T08:52:04Z</time>
      </trkpt>
      <trkpt lat="43.16077" lon="6.51194">
        <ele>167.8</ele>
        <time>2024-02-04T08:52:05Z</time>
      </trkpt>
      <trkpt lat="43.16077" lon="6.51193">
        <ele>167.7</ele>
        <time>2024-02-04T08:52:06Z</time>
      </trkpt>
      <trkpt lat="43.16076" lon="6.51191">
        <ele>167.8</ele>
        <time>2024-02-04T08:52:07Z</time>
      </trkpt>
      <trkpt lat="43.16076" lon="6.5119">
        <ele>167.8</ele>
        <time>2024-02-04T08:52:08Z</time>
      </trkpt>
      <trkpt lat="43.16076" lon="6.51188">
        <ele>167.8</ele>
        <time>2024-02-04T08:52:09Z</time>
      </trkpt>
      <trkpt lat="43.16075" lon="6.51187">
        <ele>167.8</ele>
        <time>2024-02-04T08:52:10Z</time>
      </trkpt>
      <trkpt lat="43.16075" lon="6.51185">
        <ele>167.8</ele>
        <time>2024-02-04T08:52:11Z</time>
      </trkpt>
      <trkpt lat="43.16074" lon="6.51184">
        <ele>167.9</ele>
        <time>2024-02-04T08:52:12Z</time>
      </trkpt>
      <trkpt lat="43.16074" lon="6.51183">
        <ele>167.8</ele>
        <time>2024-02-04T08:52:13Z</time>
      </trkpt>
      <trkpt lat="43.16074" lon="6.51182">
        <ele>167.7</ele>
        <time>2024-02-04T08:52:14Z</time>
      </trkpt>
      <trkpt lat="43.16073" lon="6.51181">
        <ele>167.8</ele>
        <time>2024-02-04T08:52:15Z</time>
      </trkpt>
      <trkpt lat="43.16073" lon="6.5118">
        <ele>167.9</ele>
        <time>2024-02-04T08:52:16Z</time>
      </trkpt>
      <trkpt lat="43.16072" lon="6.51178">
        <ele>168</ele>
        <time>2024-02-04T08:52:17Z</time>
      </trkpt>
      <trkpt lat="43.16072" lon="6.51177">
        <ele>168.1</ele>
        <time>2024-02-04T08:52:18Z</time>
      </trkpt>
      <trkpt lat="43.16072" lon="6.51175">
        <ele>168.1</ele>
        <time>2024-02-04T08:52:19Z</time>
      </trkpt>
      <trkpt lat="43.16072" lon="6.51173">
        <ele>168.2</ele>
        <time>2024-02-04T08:52:20Z</time>
      </trkpt>
      <trkpt lat="43.16072" lon="6.51172">
        <ele>168.2</ele>
        <time>2024-02-04T08:52:21Z</time>
      </trkpt>
      <trkpt lat="43.16072" lon="6.51171">
        <ele>168.2</ele>
        <time>2024-02-04T08:52:22Z</time>
      </trkpt>
      <trkpt lat="43.16071" lon="6.51169">
        <ele>168.2</ele>
        <time>2024-02-04T08:52:23Z</time>
      </trkpt>
      <trkpt lat="43.16071" lon="6.51168">
        <ele>168.3</ele>
        <time>2024-02-04T08:52:24Z</time>
      </trkpt>
      <trkpt lat="43.1607" lon="6.51167">
        <ele>168.3</ele>
        <time>2024-02-04T08:52:25Z</time>
      </trkpt>
      <trkpt lat="43.1607" lon="6.51166">
        <ele>168.3</ele>
        <time>2024-02-04T08:52:26Z</time>
      </trkpt>
      <trkpt lat="43.16069" lon="6.51165">
        <ele>168.3</ele>
        <time>2024-02-04T08:52:27Z</time>
      </trkpt>
      <trkpt lat="43.16069" lon="6.51163">
        <ele>168.3</ele>
        <time>2024-02-04T08:52:28Z</time>
      </trkpt>
      <trkpt lat="43.16068" lon="6.51162">
        <ele>168.3</ele>
        <time>2024-02-04T08:52:29Z</time>
      </trkpt>
      <trkpt lat="43.16067" lon="6.51161">
        <ele>168.4</ele>
        <time>2024-02-04T08:52:30Z</time>
      </trkpt>
      <trkpt lat="43.16067" lon="6.5116">
        <ele>168.5</ele>
        <time>2024-02-04T08:52:31Z</time>
      </trkpt>
      <trkpt lat="43.16066" lon="6.5116">
        <ele>168.6</ele>
        <time>2024-02-04T08:52:32Z</time>
      </trkpt>
      <trkpt lat="43.16066" lon="6.5116">
        <ele>168.7</ele>
        <time>2024-02-04T08:52:33Z</time>
      </trkpt>
      <trkpt lat="43.16066" lon="6.5116">
        <ele>168.7</ele>
        <time>2024-02-04T08:52:34Z</time>
      </trkpt>
      <trkpt lat="43.16066" lon="6.5116">
        <ele>168.6</ele>
        <time>2024-02-04T08:52:35Z</time>
      </trkpt>
      <trkpt lat="43.16066" lon="6.5116">
        <ele>168.7</ele>
        <time>2024-02-04T08:52:36Z</time>
      </trkpt>
      <trkpt lat="43.16066" lon="6.5116">
        <ele>168.8</ele>
        <time>2024-02-04T08:52:37Z</time>
      </trkpt>
      <trkpt lat="43.16066" lon="6.5116">
        <ele>168.8</ele>
        <time>2024-02-04T08:52:38Z</time>
      </trkpt>
      <trkpt lat="43.16066" lon="6.5116">
        <ele>168.8</ele>
        <time>2024-02-04T08:52:39Z</time>
      </trkpt>
      <trkpt lat="43.16066" lon="6.5116">
        <ele>168.8</ele>
        <time>2024-02-04T08:52:40Z</time>
      </trkpt>
      <trkpt lat="43.16066" lon="6.5116">
        <ele>168.8</ele>
        <time>2024-02-04T08:52:41Z</time>
      </trkpt>
      <trkpt lat="43.16066" lon="6.51161">
        <ele>168.8</ele>
        <time>2024-02-04T08:52:42Z</time>
      </trkpt>
      <trkpt lat="43.16066" lon="6.51161">
        <ele>168.8</ele>
        <time>2024-02-04T08:52:43Z</time>
      </trkpt>
      <trkpt lat="43.16066" lon="6.51161">
        <ele>168.8</ele>
        <time>2024-02-04T08:52:44Z</time>
      </trkpt>
      <trkpt lat="43.16066" lon="6.51161">
        <ele>168.8</ele>
        <time>2024-02-04T08:52:45Z</time>
      </trkpt>
      <trkpt lat="43.16066" lon="6.51161">
        <ele>168.8</ele>
        <time>2024-02-04T08:52:46Z</time>
      </trkpt>
      <trkpt lat="43.16066" lon="6.51161">
        <ele>168.9</ele>
        <time>2024-02-04T08:52:47Z</time>
      </trkpt>
      <trkpt lat="43.16066" lon="6.51161">
        <ele>168.9</ele>
        <time>2024-02-04T08:52:48Z</time>
      </trkpt>
      <trkpt lat="43.16066" lon="6.51161">
        <ele>168.9</ele>
        <time>2024-02-04T08:52:49Z</time>
      </trkpt>
      <trkpt lat="43.16066" lon="6.5116">
        <ele>168.8</ele>
        <time>2024-02-04T08:52:50Z</time>
      </trkpt>
      <trkpt lat="43.16066" lon="6.5116">
        <ele>168.9</ele>
        <time>2024-02-04T08:52:51Z</time>
      </trkpt>
      <trkpt lat="43.16066" lon="6.5116">
        <ele>168.9</ele>
        <time>2024-02-04T08:52:52Z</time>
      </trkpt>
      <trkpt lat="43.16066" lon="6.51159">
        <ele>168.9</ele>
        <time>2024-02-04T08:52:53Z</time>
      </trkpt>
      <trkpt lat="43.16066" lon="6.51158">
        <ele>168.9</ele>
        <time>2024-02-04T08:52:54Z</time>
      </trkpt>
      <trkpt lat="43.16065" lon="6.51157">
        <ele>168.9</ele>
        <time>2024-02-04T08:52:55Z</time>
      </trkpt>
      <trkpt lat="43.16065" lon="6.51156">
        <ele>168.8</ele>
        <time>2024-02-04T08:52:56Z</time>
      </trkpt>
      <trkpt lat="43.16065" lon="6.51155">
        <ele>168.7</ele>
        <time>2024-02-04T08:52:57Z</time>
      </trkpt>
      <trkpt lat="43.16065" lon="6.51154">
        <ele>168.8</ele>
        <time>2024-02-04T08:52:58Z</time>
      </trkpt>
      <trkpt lat="43.16065" lon="6.51153">
        <ele>168.7</ele>
        <time>2024-02-04T08:52:59Z</time>
      </trkpt>
      <trkpt lat="43.16065" lon="6.51152">
        <ele>168.7</ele>
        <time>2024-02-04T08:53:00Z</time>
      </trkpt>
      <trkpt lat="43.16065" lon="6.51151">
        <ele>168.6</ele>
        <time>2024-02-04T08:53:01Z</time>
      </trkpt>
      <trkpt lat="43.16065" lon="6.5115">
        <ele>168.6</ele>
        <time>2024-02-04T08:53:02Z</time>
      </trkpt>
      <trkpt lat="43.16065" lon="6.5115">
        <ele>168.6</ele>
        <time>2024-02-04T08:53:03Z</time>
      </trkpt>
      <trkpt lat="43.16065" lon="6.51149">
        <ele>168.7</ele>
        <time>2024-02-04T08:53:04Z</time>
      </trkpt>
      <trkpt lat="43.16064" lon="6.51148">
        <ele>168.7</ele>
        <time>2024-02-04T08:53:05Z</time>
      </trkpt>
      <trkpt lat="43.16064" lon="6.51147">
        <ele>168.7</ele>
        <time>2024-02-04T08:53:06Z</time>
      </trkpt>
      <trkpt lat="43.16064" lon="6.51147">
        <ele>168.6</ele>
        <time>2024-02-04T08:53:07Z</time>
      </trkpt>
      <trkpt lat="43.16064" lon="6.51146">
        <ele>168.7</ele>
        <time>2024-02-04T08:53:08Z</time>
      </trkpt>
      <trkpt lat="43.16064" lon="6.51144">
        <ele>168.7</ele>
        <time>2024-02-04T08:53:09Z</time>
      </trkpt>
      <trkpt lat="43.16064" lon="6.51143">
        <ele>168.7</ele>
        <time>2024-02-04T08:53:10Z</time>
      </trkpt>
      <trkpt lat="43.16064" lon="6.51141">
        <ele>168.7</ele>
        <time>2024-02-04T08:53:11Z</time>
      </trkpt>
      <trkpt lat="43.16064" lon="6.5114">
        <ele>168.6</ele>
        <time>2024-02-04T08:53:12Z</time>
      </trkpt>
      <trkpt lat="43.16064" lon="6.51138">
        <ele>168.6</ele>
        <time>2024-02-04T08:53:13Z</time>
      </trkpt>
      <trkpt lat="43.16063" lon="6.51137">
        <ele>168.5</ele>
        <time>2024-02-04T08:53:14Z</time>
      </trkpt>
      <trkpt lat="43.16062" lon="6.51137">
        <ele>168.5</ele>
        <time>2024-02-04T08:53:15Z</time>
      </trkpt>
      <trkpt lat="43.16062" lon="6.51135">
        <ele>168.4</ele>
        <time>2024-02-04T08:53:16Z</time>
      </trkpt>
      <trkpt lat="43.1606" lon="6.51134">
        <ele>168.4</ele>
        <time>2024-02-04T08:53:17Z</time>
      </trkpt>
      <trkpt lat="43.1606" lon="6.51133">
        <ele>168.2</ele>
        <time>2024-02-04T08:53:18Z</time>
      </trkpt>
      <trkpt lat="43.16059" lon="6.51132">
        <ele>168.2</ele>
        <time>2024-02-04T08:53:19Z</time>
      </trkpt>
      <trkpt lat="43.16059" lon="6.5113">
        <ele>168.2</ele>
        <time>2024-02-04T08:53:20Z</time>
      </trkpt>
      <trkpt lat="43.16059" lon="6.51128">
        <ele>168</ele>
        <time>2024-02-04T08:53:21Z</time>
      </trkpt>
      <trkpt lat="43.16058" lon="6.51126">
        <ele>167.9</ele>
        <time>2024-02-04T08:53:22Z</time>
      </trkpt>
      <trkpt lat="43.16058" lon="6.51125">
        <ele>167.9</ele>
        <time>2024-02-04T08:53:23Z</time>
      </trkpt>
      <trkpt lat="43.16057" lon="6.51124">
        <ele>167.8</ele>
        <time>2024-02-04T08:53:24Z</time>
      </trkpt>
      <trkpt lat="43.16057" lon="6.51123">
        <ele>167.8</ele>
        <time>2024-02-04T08:53:25Z</time>
      </trkpt>
      <trkpt lat="43.16056" lon="6.51121">
        <ele>167.8</ele>
        <time>2024-02-04T08:53:26Z</time>
      </trkpt>
      <trkpt lat="43.16056" lon="6.5112">
        <ele>167.7</ele>
        <time>2024-02-04T08:53:27Z</time>
      </trkpt>
      <trkpt lat="43.16056" lon="6.51119">
        <ele>167.7</ele>
        <time>2024-02-04T08:53:28Z</time>
      </trkpt>
      <trkpt lat="43.16055" lon="6.51117">
        <ele>167.6</ele>
        <time>2024-02-04T08:53:29Z</time>
      </trkpt>
      <trkpt lat="43.16055" lon="6.51116">
        <ele>167.5</ele>
        <time>2024-02-04T08:53:30Z</time>
      </trkpt>
      <trkpt lat="43.16055" lon="6.51115">
        <ele>167.4</ele>
        <time>2024-02-04T08:53:31Z</time>
      </trkpt>
      <trkpt lat="43.16054" lon="6.51114">
        <ele>167.2</ele>
        <time>2024-02-04T08:53:32Z</time>
      </trkpt>
      <trkpt lat="43.16053" lon="6.51113">
        <ele>167.1</ele>
        <time>2024-02-04T08:53:33Z</time>
      </trkpt>
      <trkpt lat="43.16052" lon="6.51111">
        <ele>167</ele>
        <time>2024-02-04T08:53:34Z</time>
      </trkpt>
      <trkpt lat="43.16052" lon="6.5111">
        <ele>166.9</ele>
        <time>2024-02-04T08:53:35Z</time>
      </trkpt>
      <trkpt lat="43.16052" lon="6.51108">
        <ele>166.8</ele>
        <time>2024-02-04T08:53:36Z</time>
      </trkpt>
      <trkpt lat="43.16052" lon="6.51106">
        <ele>166.7</ele>
        <time>2024-02-04T08:53:37Z</time>
      </trkpt>
      <trkpt lat="43.16051" lon="6.51105">
        <ele>166.7</ele>
        <time>2024-02-04T08:53:38Z</time>
      </trkpt>
      <trkpt lat="43.16051" lon="6.51103">
        <ele>166.6</ele>
        <time>2024-02-04T08:53:39Z</time>
      </trkpt>
      <trkpt lat="43.16051" lon="6.51102">
        <ele>166.6</ele>
        <time>2024-02-04T08:53:40Z</time>
      </trkpt>
      <trkpt lat="43.16051" lon="6.51101">
        <ele>166.6</ele>
        <time>2024-02-04T08:53:41Z</time>
      </trkpt>
      <trkpt lat="43.16051" lon="6.51099">
        <ele>166.5</ele>
        <time>2024-02-04T08:53:42Z</time>
      </trkpt>
      <trkpt lat="43.1605" lon="6.51098">
        <ele>166.5</ele>
        <time>2024-02-04T08:53:43Z</time>
      </trkpt>
      <trkpt lat="43.1605" lon="6.51096">
        <ele>166.4</ele>
        <time>2024-02-04T08:53:44Z</time>
      </trkpt>
      <trkpt lat="43.1605" lon="6.51095">
        <ele>166.3</ele>
        <time>2024-02-04T08:53:45Z</time>
      </trkpt>
      <trkpt lat="43.1605" lon="6.51094">
        <ele>166.3</ele>
        <time>2024-02-04T08:53:46Z</time>
      </trkpt>
      <trkpt lat="43.1605" lon="6.51092">
        <ele>166.2</ele>
        <time>2024-02-04T08:53:47Z</time>
      </trkpt>
      <trkpt lat="43.1605" lon="6.51091">
        <ele>166.1</ele>
        <time>2024-02-04T08:53:48Z</time>
      </trkpt>
      <trkpt lat="43.16049" lon="6.51089">
        <ele>166.1</ele>
        <time>2024-02-04T08:53:49Z</time>
      </trkpt>
      <trkpt lat="43.16049" lon="6.51088">
        <ele>166.1</ele>
        <time>2024-02-04T08:53:50Z</time>
      </trkpt>
      <trkpt lat="43.16049" lon="6.51086">
        <ele>165.9</ele>
        <time>2024-02-04T08:53:51Z</time>
      </trkpt>
      <trkpt lat="43.16049" lon="6.51085">
        <ele>165.7</ele>
        <time>2024-02-04T08:53:52Z</time>
      </trkpt>
      <trkpt lat="43.16048" lon="6.51083">
        <ele>165.6</ele>
        <time>2024-02-04T08:53:53Z</time>
      </trkpt>
      <trkpt lat="43.16048" lon="6.51081">
        <ele>165.5</ele>
        <time>2024-02-04T08:53:54Z</time>
      </trkpt>
      <trkpt lat="43.16048" lon="6.51079">
        <ele>165.4</ele>
        <time>2024-02-04T08:53:55Z</time>
      </trkpt>
      <trkpt lat="43.16049" lon="6.51077">
        <ele>165.4</ele>
        <time>2024-02-04T08:53:56Z</time>
      </trkpt>
      <trkpt lat="43.16049" lon="6.51075">
        <ele>165.3</ele>
        <time>2024-02-04T08:53:57Z</time>
      </trkpt>
      <trkpt lat="43.16049" lon="6.51074">
        <ele>165.3</ele>
        <time>2024-02-04T08:53:58Z</time>
      </trkpt>
      <trkpt lat="43.16049" lon="6.51072">
        <ele>165.3</ele>
        <time>2024-02-04T08:53:59Z</time>
      </trkpt>
      <trkpt lat="43.16049" lon="6.51071">
        <ele>165.3</ele>
        <time>2024-02-04T08:54:00Z</time>
      </trkpt>
      <trkpt lat="43.16049" lon="6.51069">
        <ele>165.3</ele>
        <time>2024-02-04T08:54:01Z</time>
      </trkpt>
      <trkpt lat="43.16049" lon="6.51068">
        <ele>165.4</ele>
        <time>2024-02-04T08:54:02Z</time>
      </trkpt>
      <trkpt lat="43.16049" lon="6.51066">
        <ele>165.4</ele>
        <time>2024-02-04T08:54:03Z</time>
      </trkpt>
      <trkpt lat="43.16049" lon="6.51065">
        <ele>165.5</ele>
        <time>2024-02-04T08:54:04Z</time>
      </trkpt>
      <trkpt lat="43.16049" lon="6.51063">
        <ele>165.6</ele>
        <time>2024-02-04T08:54:05Z</time>
      </trkpt>
      <trkpt lat="43.16048" lon="6.51062">
        <ele>165.7</ele>
        <time>2024-02-04T08:54:06Z</time>
      </trkpt>
      <trkpt lat="43.16048" lon="6.51061">
        <ele>165.7</ele>
        <time>2024-02-04T08:54:07Z</time>
      </trkpt>
      <trkpt lat="43.16047" lon="6.5106">
        <ele>165.8</ele>
        <time>2024-02-04T08:54:08Z</time>
      </trkpt>
      <trkpt lat="43.16047" lon="6.51058">
        <ele>165.9</ele>
        <time>2024-02-04T08:54:09Z</time>
      </trkpt>
      <trkpt lat="43.16047" lon="6.51057">
        <ele>166</ele>
        <time>2024-02-04T08:54:10Z</time>
      </trkpt>
      <trkpt lat="43.16047" lon="6.51056">
        <ele>166.1</ele>
        <time>2024-02-04T08:54:11Z</time>
      </trkpt>
      <trkpt lat="43.16047" lon="6.51054">
        <ele>166.1</ele>
        <time>2024-02-04T08:54:12Z</time>
      </trkpt>
      <trkpt lat="43.16047" lon="6.51053">
        <ele>166.2</ele>
        <time>2024-02-04T08:54:13Z</time>
      </trkpt>
      <trkpt lat="43.16047" lon="6.51051">
        <ele>166.2</ele>
        <time>2024-02-04T08:54:14Z</time>
      </trkpt>
      <trkpt lat="43.16047" lon="6.5105">
        <ele>166.3</ele>
        <time>2024-02-04T08:54:15Z</time>
      </trkpt>
      <trkpt lat="43.16047" lon="6.51049">
        <ele>166.3</ele>
        <time>2024-02-04T08:54:16Z</time>
      </trkpt>
      <trkpt lat="43.16046" lon="6.51048">
        <ele>166.4</ele>
        <time>2024-02-04T08:54:17Z</time>
      </trkpt>
      <trkpt lat="43.16046" lon="6.51047">
        <ele>166.4</ele>
        <time>2024-02-04T08:54:18Z</time>
      </trkpt>
      <trkpt lat="43.16046" lon="6.51046">
        <ele>166.4</ele>
        <time>2024-02-04T08:54:19Z</time>
      </trkpt>
      <trkpt lat="43.16045" lon="6.51044">
        <ele>166.4</ele>
        <time>2024-02-04T08:54:20Z</time>
      </trkpt>
      <trkpt lat="43.16045" lon="6.51042">
        <ele>166.4</ele>
        <time>2024-02-04T08:54:21Z</time>
      </trkpt>
      <trkpt lat="43.16045" lon="6.51041">
        <ele>166.4</ele>
        <time>2024-02-04T08:54:22Z</time>
      </trkpt>
      <trkpt lat="43.16045" lon="6.5104">
        <ele>166.4</ele>
        <time>2024-02-04T08:54:23Z</time>
      </trkpt>
      <trkpt lat="43.16044" lon="6.51039">
        <ele>166.4</ele>
        <time>2024-02-04T08:54:24Z</time>
      </trkpt>
      <trkpt lat="43.16045" lon="6.51037">
        <ele>166.3</ele>
        <time>2024-02-04T08:54:25Z</time>
      </trkpt>
      <trkpt lat="43.16045" lon="6.51035">
        <ele>166.4</ele>
        <time>2024-02-04T08:54:26Z</time>
      </trkpt>
      <trkpt lat="43.16045" lon="6.51033">
        <ele>166.5</ele>
        <time>2024-02-04T08:54:27Z</time>
      </trkpt>
      <trkpt lat="43.16045" lon="6.51032">
        <ele>166.5</ele>
        <time>2024-02-04T08:54:28Z</time>
      </trkpt>
      <trkpt lat="43.16044" lon="6.5103">
        <ele>166.5</ele>
        <time>2024-02-04T08:54:29Z</time>
      </trkpt>
      <trkpt lat="43.16044" lon="6.51028">
        <ele>166.5</ele>
        <time>2024-02-04T08:54:30Z</time>
      </trkpt>
      <trkpt lat="43.16044" lon="6.51027">
        <ele>166.5</ele>
        <time>2024-02-04T08:54:31Z</time>
      </trkpt>
      <trkpt lat="43.16044" lon="6.51026">
        <ele>166.4</ele>
        <time>2024-02-04T08:54:32Z</time>
      </trkpt>
      <trkpt lat="43.16044" lon="6.51025">
        <ele>166.4</ele>
        <time>2024-02-04T08:54:33Z</time>
      </trkpt>
      <trkpt lat="43.16043" lon="6.51024">
        <ele>166.3</ele>
        <time>2024-02-04T08:54:34Z</time>
      </trkpt>
      <trkpt lat="43.16043" lon="6.51022">
        <ele>166.3</ele>
        <time>2024-02-04T08:54:35Z</time>
      </trkpt>
      <trkpt lat="43.16042" lon="6.5102">
        <ele>166.4</ele>
        <time>2024-02-04T08:54:36Z</time>
      </trkpt>
      <trkpt lat="43.16042" lon="6.51019">
        <ele>166.4</ele>
        <time>2024-02-04T08:54:37Z</time>
      </trkpt>
      <trkpt lat="43.16042" lon="6.51017">
        <ele>166.4</ele>
        <time>2024-02-04T08:54:38Z</time>
      </trkpt>
      <trkpt lat="43.16041" lon="6.51016">
        <ele>166.5</ele>
        <time>2024-02-04T08:54:39Z</time>
      </trkpt>
      <trkpt lat="43.1604" lon="6.51015">
        <ele>166.6</ele>
        <time>2024-02-04T08:54:40Z</time>
      </trkpt>
      <trkpt lat="43.1604" lon="6.51014">
        <ele>166.8</ele>
        <time>2024-02-04T08:54:41Z</time>
      </trkpt>
      <trkpt lat="43.1604" lon="6.51013">
        <ele>166.9</ele>
        <time>2024-02-04T08:54:42Z</time>
      </trkpt>
      <trkpt lat="43.1604" lon="6.51011">
        <ele>167</ele>
        <time>2024-02-04T08:54:43Z</time>
      </trkpt>
      <trkpt lat="43.1604" lon="6.51009">
        <ele>167.1</ele>
        <time>2024-02-04T08:54:44Z</time>
      </trkpt>
      <trkpt lat="43.16039" lon="6.51008">
        <ele>167.2</ele>
        <time>2024-02-04T08:54:45Z</time>
      </trkpt>
      <trkpt lat="43.16039" lon="6.51006">
        <ele>167.3</ele>
        <time>2024-02-04T08:54:46Z</time>
      </trkpt>
      <trkpt lat="43.16039" lon="6.51005">
        <ele>167.4</ele>
        <time>2024-02-04T08:54:47Z</time>
      </trkpt>
      <trkpt lat="43.16038" lon="6.51003">
        <ele>167.5</ele>
        <time>2024-02-04T08:54:48Z</time>
      </trkpt>
      <trkpt lat="43.16038" lon="6.51001">
        <ele>167.5</ele>
        <time>2024-02-04T08:54:49Z</time>
      </trkpt>
      <trkpt lat="43.16038" lon="6.51">
        <ele>167.6</ele>
        <time>2024-02-04T08:54:50Z</time>
      </trkpt>
      <trkpt lat="43.16037" lon="6.50998">
        <ele>167.6</ele>
        <time>2024-02-04T08:54:51Z</time>
      </trkpt>
      <trkpt lat="43.16036" lon="6.50996">
        <ele>167.6</ele>
        <time>2024-02-04T08:54:52Z</time>
      </trkpt>
      <trkpt lat="43.16036" lon="6.50994">
        <ele>167.7</ele>
        <time>2024-02-04T08:54:53Z</time>
      </trkpt>
      <trkpt lat="43.16036" lon="6.50993">
        <ele>167.7</ele>
        <time>2024-02-04T08:54:54Z</time>
      </trkpt>
      <trkpt lat="43.16035" lon="6.50991">
        <ele>167.7</ele>
        <time>2024-02-04T08:54:55Z</time>
      </trkpt>
      <trkpt lat="43.16035" lon="6.5099">
        <ele>167.7</ele>
        <time>2024-02-04T08:54:56Z</time>
      </trkpt>
      <trkpt lat="43.16035" lon="6.50989">
        <ele>167.6</ele>
        <time>2024-02-04T08:54:57Z</time>
      </trkpt>
      <trkpt lat="43.16034" lon="6.50988">
        <ele>167.6</ele>
        <time>2024-02-04T08:54:58Z</time>
      </trkpt>
      <trkpt lat="43.16034" lon="6.50988">
        <ele>167.4</ele>
        <time>2024-02-04T08:54:59Z</time>
      </trkpt>
      <trkpt lat="43.16034" lon="6.50987">
        <ele>167.3</ele>
        <time>2024-02-04T08:55:00Z</time>
      </trkpt>
      <trkpt lat="43.16034" lon="6.50985">
        <ele>167.2</ele>
        <time>2024-02-04T08:55:01Z</time>
      </trkpt>
      <trkpt lat="43.16034" lon="6.50984">
        <ele>167.2</ele>
        <time>2024-02-04T08:55:02Z</time>
      </trkpt>
      <trkpt lat="43.16033" lon="6.50983">
        <ele>167.2</ele>
        <time>2024-02-04T08:55:03Z</time>
      </trkpt>
      <trkpt lat="43.16033" lon="6.50982">
        <ele>167.2</ele>
        <time>2024-02-04T08:55:04Z</time>
      </trkpt>
      <trkpt lat="43.16033" lon="6.50981">
        <ele>167.2</ele>
        <time>2024-02-04T08:55:05Z</time>
      </trkpt>
      <trkpt lat="43.16033" lon="6.5098">
        <ele>167.2</ele>
        <time>2024-02-04T08:55:06Z</time>
      </trkpt>
      <trkpt lat="43.16033" lon="6.50979">
        <ele>167.2</ele>
        <time>2024-02-04T08:55:07Z</time>
      </trkpt>
      <trkpt lat="43.16033" lon="6.50977">
        <ele>167.2</ele>
        <time>2024-02-04T08:55:08Z</time>
      </trkpt>
      <trkpt lat="43.16032" lon="6.50976">
        <ele>167.2</ele>
        <time>2024-02-04T08:55:09Z</time>
      </trkpt>
      <trkpt lat="43.16032" lon="6.50975">
        <ele>167.1</ele>
        <time>2024-02-04T08:55:10Z</time>
      </trkpt>
      <trkpt lat="43.16032" lon="6.50973">
        <ele>167</ele>
        <time>2024-02-04T08:55:11Z</time>
      </trkpt>
      <trkpt lat="43.16031" lon="6.50972">
        <ele>166.9</ele>
        <time>2024-02-04T08:55:12Z</time>
      </trkpt>
      <trkpt lat="43.16032" lon="6.5097">
        <ele>166.8</ele>
        <time>2024-02-04T08:55:13Z</time>
      </trkpt>
      <trkpt lat="43.16032" lon="6.50968">
        <ele>166.8</ele>
        <time>2024-02-04T08:55:14Z</time>
      </trkpt>
      <trkpt lat="43.16032" lon="6.50967">
        <ele>166.7</ele>
        <time>2024-02-04T08:55:15Z</time>
      </trkpt>
      <trkpt lat="43.16032" lon="6.50965">
        <ele>166.7</ele>
        <time>2024-02-04T08:55:16Z</time>
      </trkpt>
      <trkpt lat="43.16031" lon="6.50964">
        <ele>166.6</ele>
        <time>2024-02-04T08:55:17Z</time>
      </trkpt>
      <trkpt lat="43.16031" lon="6.50962">
        <ele>166.6</ele>
        <time>2024-02-04T08:55:18Z</time>
      </trkpt>
      <trkpt lat="43.16031" lon="6.5096">
        <ele>166.5</ele>
        <time>2024-02-04T08:55:19Z</time>
      </trkpt>
      <trkpt lat="43.16031" lon="6.50958">
        <ele>166.5</ele>
        <time>2024-02-04T08:55:20Z</time>
      </trkpt>
      <trkpt lat="43.16031" lon="6.50957">
        <ele>166.4</ele>
        <time>2024-02-04T08:55:21Z</time>
      </trkpt>
      <trkpt lat="43.16031" lon="6.50956">
        <ele>166.4</ele>
        <time>2024-02-04T08:55:22Z</time>
      </trkpt>
      <trkpt lat="43.16031" lon="6.50954">
        <ele>166.4</ele>
        <time>2024-02-04T08:55:23Z</time>
      </trkpt>
      <trkpt lat="43.16031" lon="6.50953">
        <ele>166.4</ele>
        <time>2024-02-04T08:55:24Z</time>
      </trkpt>
      <trkpt lat="43.16031" lon="6.50951">
        <ele>166.4</ele>
        <time>2024-02-04T08:55:25Z</time>
      </trkpt>
      <trkpt lat="43.1603" lon="6.5095">
        <ele>166.5</ele>
        <time>2024-02-04T08:55:26Z</time>
      </trkpt>
      <trkpt lat="43.1603" lon="6.50948">
        <ele>166.5</ele>
        <time>2024-02-04T08:55:27Z</time>
      </trkpt>
      <trkpt lat="43.1603" lon="6.50947">
        <ele>166.4</ele>
        <time>2024-02-04T08:55:28Z</time>
      </trkpt>
      <trkpt lat="43.1603" lon="6.50946">
        <ele>166.4</ele>
        <time>2024-02-04T08:55:29Z</time>
      </trkpt>
      <trkpt lat="43.1603" lon="6.50944">
        <ele>166.5</ele>
        <time>2024-02-04T08:55:30Z</time>
      </trkpt>
      <trkpt lat="43.1603" lon="6.50943">
        <ele>166.5</ele>
        <time>2024-02-04T08:55:31Z</time>
      </trkpt>
      <trkpt lat="43.1603" lon="6.50942">
        <ele>166.5</ele>
        <time>2024-02-04T08:55:32Z</time>
      </trkpt>
      <trkpt lat="43.16031" lon="6.50941">
        <ele>166.6</ele>
        <time>2024-02-04T08:55:33Z</time>
      </trkpt>
      <trkpt lat="43.16031" lon="6.50939">
        <ele>166.5</ele>
        <time>2024-02-04T08:55:34Z</time>
      </trkpt>
      <trkpt lat="43.16031" lon="6.50938">
        <ele>166.5</ele>
        <time>2024-02-04T08:55:35Z</time>
      </trkpt>
      <trkpt lat="43.16031" lon="6.50936">
        <ele>166.5</ele>
        <time>2024-02-04T08:55:36Z</time>
      </trkpt>
      <trkpt lat="43.16031" lon="6.50935">
        <ele>166.5</ele>
        <time>2024-02-04T08:55:37Z</time>
      </trkpt>
      <trkpt lat="43.16031" lon="6.50933">
        <ele>166.6</ele>
        <time>2024-02-04T08:55:38Z</time>
      </trkpt>
      <trkpt lat="43.16031" lon="6.50931">
        <ele>166.5</ele>
        <time>2024-02-04T08:55:39Z</time>
      </trkpt>
      <trkpt lat="43.16031" lon="6.5093">
        <ele>166.5</ele>
        <time>2024-02-04T08:55:40Z</time>
      </trkpt>
      <trkpt lat="43.16031" lon="6.50928">
        <ele>166.5</ele>
        <time>2024-02-04T08:55:41Z</time>
      </trkpt>
      <trkpt lat="43.16031" lon="6.50926">
        <ele>166.5</ele>
        <time>2024-02-04T08:55:42Z</time>
      </trkpt>
      <trkpt lat="43.16031" lon="6.50925">
        <ele>166.5</ele>
        <time>2024-02-04T08:55:43Z</time>
      </trkpt>
      <trkpt lat="43.16031" lon="6.50923">
        <ele>166.5</ele>
        <time>2024-02-04T08:55:44Z</time>
      </trkpt>
      <trkpt lat="43.16031" lon="6.50922">
        <ele>166.5</ele>
        <time>2024-02-04T08:55:45Z</time>
      </trkpt>
      <trkpt lat="43.1603" lon="6.5092">
        <ele>166.4</ele>
        <time>2024-02-04T08:55:46Z</time>
      </trkpt>
      <trkpt lat="43.16029" lon="6.50919">
        <ele>166.3</ele>
        <time>2024-02-04T08:55:47Z</time>
      </trkpt>
      <trkpt lat="43.16029" lon="6.50918">
        <ele>166.2</ele>
        <time>2024-02-04T08:55:48Z</time>
      </trkpt>
      <trkpt lat="43.16029" lon="6.50916">
        <ele>166.2</ele>
        <time>2024-02-04T08:55:49Z</time>
      </trkpt>
      <trkpt lat="43.16029" lon="6.50915">
        <ele>166.2</ele>
        <time>2024-02-04T08:55:50Z</time>
      </trkpt>
      <trkpt lat="43.16029" lon="6.50914">
        <ele>166.2</ele>
        <time>2024-02-04T08:55:51Z</time>
      </trkpt>
      <trkpt lat="43.16029" lon="6.50913">
        <ele>166.2</ele>
        <time>2024-02-04T08:55:52Z</time>
      </trkpt>
      <trkpt lat="43.1603" lon="6.50911">
        <ele>166.3</ele>
        <time>2024-02-04T08:55:53Z</time>
      </trkpt>
      <trkpt lat="43.1603" lon="6.5091">
        <ele>166.4</ele>
        <time>2024-02-04T08:55:54Z</time>
      </trkpt>
      <trkpt lat="43.1603" lon="6.50908">
        <ele>166.6</ele>
        <time>2024-02-04T08:55:55Z</time>
      </trkpt>
      <trkpt lat="43.1603" lon="6.50907">
        <ele>166.7</ele>
        <time>2024-02-04T08:55:56Z</time>
      </trkpt>
      <trkpt lat="43.16029" lon="6.50905">
        <ele>166.7</ele>
        <time>2024-02-04T08:55:57Z</time>
      </trkpt>
      <trkpt lat="43.16029" lon="6.50904">
        <ele>166.8</ele>
        <time>2024-02-04T08:55:58Z</time>
      </trkpt>
      <trkpt lat="43.16028" lon="6.50903">
        <ele>166.8</ele>
        <time>2024-02-04T08:55:59Z</time>
      </trkpt>
      <trkpt lat="43.16027" lon="6.50902">
        <ele>166.8</ele>
        <time>2024-02-04T08:56:00Z</time>
      </trkpt>
      <trkpt lat="43.16027" lon="6.50901">
        <ele>166.8</ele>
        <time>2024-02-04T08:56:01Z</time>
      </trkpt>
      <trkpt lat="43.16027" lon="6.509">
        <ele>166.8</ele>
        <time>2024-02-04T08:56:02Z</time>
      </trkpt>
      <trkpt lat="43.16026" lon="6.50898">
        <ele>166.8</ele>
        <time>2024-02-04T08:56:03Z</time>
      </trkpt>
      <trkpt lat="43.16026" lon="6.50897">
        <ele>166.8</ele>
        <time>2024-02-04T08:56:04Z</time>
      </trkpt>
      <trkpt lat="43.16026" lon="6.50895">
        <ele>166.8</ele>
        <time>2024-02-04T08:56:05Z</time>
      </trkpt>
      <trkpt lat="43.16025" lon="6.50894">
        <ele>166.8</ele>
        <time>2024-02-04T08:56:06Z</time>
      </trkpt>
      <trkpt lat="43.16024" lon="6.50893">
        <ele>166.7</ele>
        <time>2024-02-04T08:56:07Z</time>
      </trkpt>
      <trkpt lat="43.16024" lon="6.50891">
        <ele>166.6</ele>
        <time>2024-02-04T08:56:08Z</time>
      </trkpt>
      <trkpt lat="43.16024" lon="6.50889">
        <ele>166.7</ele>
        <time>2024-02-04T08:56:09Z</time>
      </trkpt>
      <trkpt lat="43.16024" lon="6.50888">
        <ele>166.7</ele>
        <time>2024-02-04T08:56:10Z</time>
      </trkpt>
      <trkpt lat="43.16024" lon="6.50887">
        <ele>166.7</ele>
        <time>2024-02-04T08:56:11Z</time>
      </trkpt>
      <trkpt lat="43.16023" lon="6.50886">
        <ele>166.6</ele>
        <time>2024-02-04T08:56:12Z</time>
      </trkpt>
      <trkpt lat="43.16022" lon="6.50884">
        <ele>166.6</ele>
        <time>2024-02-04T08:56:13Z</time>
      </trkpt>
      <trkpt lat="43.16021" lon="6.50883">
        <ele>166.6</ele>
        <time>2024-02-04T08:56:14Z</time>
      </trkpt>
      <trkpt lat="43.1602" lon="6.50882">
        <ele>166.5</ele>
        <time>2024-02-04T08:56:15Z</time>
      </trkpt>
      <trkpt lat="43.1602" lon="6.50881">
        <ele>166.4</ele>
        <time>2024-02-04T08:56:16Z</time>
      </trkpt>
      <trkpt lat="43.16019" lon="6.5088">
        <ele>166.3</ele>
        <time>2024-02-04T08:56:17Z</time>
      </trkpt>
      <trkpt lat="43.16018" lon="6.5088">
        <ele>166.2</ele>
        <time>2024-02-04T08:56:18Z</time>
      </trkpt>
      <trkpt lat="43.16017" lon="6.50879">
        <ele>166.1</ele>
        <time>2024-02-04T08:56:19Z</time>
      </trkpt>
      <trkpt lat="43.16017" lon="6.50879">
        <ele>166.1</ele>
        <time>2024-02-04T08:56:20Z</time>
      </trkpt>
      <trkpt lat="43.16017" lon="6.50878">
        <ele>166</ele>
        <time>2024-02-04T08:56:21Z</time>
      </trkpt>
      <trkpt lat="43.16017" lon="6.50878">
        <ele>165.9</ele>
        <time>2024-02-04T08:56:22Z</time>
      </trkpt>
      <trkpt lat="43.16016" lon="6.50878">
        <ele>165.8</ele>
        <time>2024-02-04T08:56:23Z</time>
      </trkpt>
      <trkpt lat="43.16016" lon="6.50877">
        <ele>165.7</ele>
        <time>2024-02-04T08:56:24Z</time>
      </trkpt>
      <trkpt lat="43.16016" lon="6.50876">
        <ele>165.7</ele>
        <time>2024-02-04T08:56:25Z</time>
      </trkpt>
      <trkpt lat="43.16016" lon="6.50874">
        <ele>165.6</ele>
        <time>2024-02-04T08:56:26Z</time>
      </trkpt>
      <trkpt lat="43.16016" lon="6.50873">
        <ele>165.5</ele>
        <time>2024-02-04T08:56:27Z</time>
      </trkpt>
      <trkpt lat="43.16016" lon="6.50872">
        <ele>165.4</ele>
        <time>2024-02-04T08:56:28Z</time>
      </trkpt>
      <trkpt lat="43.16016" lon="6.5087">
        <ele>165.2</ele>
        <time>2024-02-04T08:56:29Z</time>
      </trkpt>
      <trkpt lat="43.16016" lon="6.50869">
        <ele>165.1</ele>
        <time>2024-02-04T08:56:30Z</time>
      </trkpt>
      <trkpt lat="43.16016" lon="6.50868">
        <ele>165</ele>
        <time>2024-02-04T08:56:31Z</time>
      </trkpt>
      <trkpt lat="43.16016" lon="6.50866">
        <ele>164.9</ele>
        <time>2024-02-04T08:56:32Z</time>
      </trkpt>
      <trkpt lat="43.16015" lon="6.50864">
        <ele>164.8</ele>
        <time>2024-02-04T08:56:33Z</time>
      </trkpt>
      <trkpt lat="43.16015" lon="6.50863">
        <ele>164.7</ele>
        <time>2024-02-04T08:56:34Z</time>
      </trkpt>
      <trkpt lat="43.16015" lon="6.50862">
        <ele>164.7</ele>
        <time>2024-02-04T08:56:35Z</time>
      </trkpt>
      <trkpt lat="43.16015" lon="6.5086">
        <ele>164.6</ele>
        <time>2024-02-04T08:56:36Z</time>
      </trkpt>
      <trkpt lat="43.16015" lon="6.50859">
        <ele>164.6</ele>
        <time>2024-02-04T08:56:37Z</time>
      </trkpt>
      <trkpt lat="43.16014" lon="6.50858">
        <ele>164.6</ele>
        <time>2024-02-04T08:56:38Z</time>
      </trkpt>
      <trkpt lat="43.16014" lon="6.50857">
        <ele>164.6</ele>
        <time>2024-02-04T08:56:39Z</time>
      </trkpt>
      <trkpt lat="43.16013" lon="6.50856">
        <ele>164.6</ele>
        <time>2024-02-04T08:56:40Z</time>
      </trkpt>
      <trkpt lat="43.16013" lon="6.50855">
        <ele>164.7</ele>
        <time>2024-02-04T08:56:41Z</time>
      </trkpt>
      <trkpt lat="43.16012" lon="6.50854">
        <ele>164.8</ele>
        <time>2024-02-04T08:56:42Z</time>
      </trkpt>
      <trkpt lat="43.16012" lon="6.50854">
        <ele>164.8</ele>
        <time>2024-02-04T08:56:43Z</time>
      </trkpt>
      <trkpt lat="43.16011" lon="6.50853">
        <ele>164.8</ele>
        <time>2024-02-04T08:56:44Z</time>
      </trkpt>
      <trkpt lat="43.1601" lon="6.50853">
        <ele>164.8</ele>
        <time>2024-02-04T08:56:45Z</time>
      </trkpt>
      <trkpt lat="43.1601" lon="6.50852">
        <ele>164.7</ele>
        <time>2024-02-04T08:56:46Z</time>
      </trkpt>
      <trkpt lat="43.16009" lon="6.50852">
        <ele>164.7</ele>
        <time>2024-02-04T08:56:47Z</time>
      </trkpt>
      <trkpt lat="43.16009" lon="6.50852">
        <ele>164.7</ele>
        <time>2024-02-04T08:56:48Z</time>
      </trkpt>
      <trkpt lat="43.1601" lon="6.50851">
        <ele>164.7</ele>
        <time>2024-02-04T08:56:49Z</time>
      </trkpt>
      <trkpt lat="43.16009" lon="6.50849">
        <ele>164.7</ele>
        <time>2024-02-04T08:56:50Z</time>
      </trkpt>
      <trkpt lat="43.16009" lon="6.50848">
        <ele>164.7</ele>
        <time>2024-02-04T08:56:51Z</time>
      </trkpt>
      <trkpt lat="43.16009" lon="6.50846">
        <ele>164.7</ele>
        <time>2024-02-04T08:56:52Z</time>
      </trkpt>
      <trkpt lat="43.16009" lon="6.50845">
        <ele>164.7</ele>
        <time>2024-02-04T08:56:53Z</time>
      </trkpt>
      <trkpt lat="43.16009" lon="6.50843">
        <ele>164.7</ele>
        <time>2024-02-04T08:56:54Z</time>
      </trkpt>
      <trkpt lat="43.16009" lon="6.50842">
        <ele>164.8</ele>
        <time>2024-02-04T08:56:55Z</time>
      </trkpt>
      <trkpt lat="43.16009" lon="6.50841">
        <ele>164.8</ele>
        <time>2024-02-04T08:56:56Z</time>
      </trkpt>
      <trkpt lat="43.16009" lon="6.50839">
        <ele>164.7</ele>
        <time>2024-02-04T08:56:57Z</time>
      </trkpt>
      <trkpt lat="43.16009" lon="6.50839">
        <ele>164.6</ele>
        <time>2024-02-04T08:56:58Z</time>
      </trkpt>
      <trkpt lat="43.16009" lon="6.50837">
        <ele>164.6</ele>
        <time>2024-02-04T08:56:59Z</time>
      </trkpt>
      <trkpt lat="43.16008" lon="6.50836">
        <ele>164.6</ele>
        <time>2024-02-04T08:57:00Z</time>
      </trkpt>
      <trkpt lat="43.16008" lon="6.50835">
        <ele>164.6</ele>
        <time>2024-02-04T08:57:01Z</time>
      </trkpt>
      <trkpt lat="43.16007" lon="6.50834">
        <ele>164.6</ele>
        <time>2024-02-04T08:57:02Z</time>
      </trkpt>
      <trkpt lat="43.16007" lon="6.50833">
        <ele>164.6</ele>
        <time>2024-02-04T08:57:03Z</time>
      </trkpt>
      <trkpt lat="43.16007" lon="6.50832">
        <ele>164.5</ele>
        <time>2024-02-04T08:57:04Z</time>
      </trkpt>
      <trkpt lat="43.16007" lon="6.5083">
        <ele>164.6</ele>
        <time>2024-02-04T08:57:05Z</time>
      </trkpt>
      <trkpt lat="43.16007" lon="6.50829">
        <ele>164.6</ele>
        <time>2024-02-04T08:57:06Z</time>
      </trkpt>
      <trkpt lat="43.16006" lon="6.50827">
        <ele>164.7</ele>
        <time>2024-02-04T08:57:07Z</time>
      </trkpt>
      <trkpt lat="43.16006" lon="6.50826">
        <ele>164.7</ele>
        <time>2024-02-04T08:57:08Z</time>
      </trkpt>
      <trkpt lat="43.16005" lon="6.50825">
        <ele>164.7</ele>
        <time>2024-02-04T08:57:09Z</time>
      </trkpt>
      <trkpt lat="43.16005" lon="6.50824">
        <ele>164.8</ele>
        <time>2024-02-04T08:57:10Z</time>
      </trkpt>
      <trkpt lat="43.16004" lon="6.50823">
        <ele>164.8</ele>
        <time>2024-02-04T08:57:11Z</time>
      </trkpt>
      <trkpt lat="43.16003" lon="6.50823">
        <ele>164.8</ele>
        <time>2024-02-04T08:57:12Z</time>
      </trkpt>
      <trkpt lat="43.16003" lon="6.50821">
        <ele>164.8</ele>
        <time>2024-02-04T08:57:13Z</time>
      </trkpt>
      <trkpt lat="43.16002" lon="6.50821">
        <ele>164.8</ele>
        <time>2024-02-04T08:57:14Z</time>
      </trkpt>
      <trkpt lat="43.16002" lon="6.5082">
        <ele>164.9</ele>
        <time>2024-02-04T08:57:15Z</time>
      </trkpt>
      <trkpt lat="43.16002" lon="6.5082">
        <ele>164.9</ele>
        <time>2024-02-04T08:57:16Z</time>
      </trkpt>
      <trkpt lat="43.16001" lon="6.50819">
        <ele>164.9</ele>
        <time>2024-02-04T08:57:17Z</time>
      </trkpt>
      <trkpt lat="43.16001" lon="6.50818">
        <ele>165</ele>
        <time>2024-02-04T08:57:18Z</time>
      </trkpt>
      <trkpt lat="43.16001" lon="6.50817">
        <ele>165</ele>
        <time>2024-02-04T08:57:19Z</time>
      </trkpt>
      <trkpt lat="43.16" lon="6.50817">
        <ele>165</ele>
        <time>2024-02-04T08:57:20Z</time>
      </trkpt>
      <trkpt lat="43.16" lon="6.50816">
        <ele>165</ele>
        <time>2024-02-04T08:57:21Z</time>
      </trkpt>
      <trkpt lat="43.16" lon="6.50816">
        <ele>165</ele>
        <time>2024-02-04T08:57:22Z</time>
      </trkpt>
      <trkpt lat="43.16" lon="6.50815">
        <ele>165.1</ele>
        <time>2024-02-04T08:57:23Z</time>
      </trkpt>
      <trkpt lat="43.15999" lon="6.50815">
        <ele>165</ele>
        <time>2024-02-04T08:57:24Z</time>
      </trkpt>
      <trkpt lat="43.15999" lon="6.50815">
        <ele>165</ele>
        <time>2024-02-04T08:57:25Z</time>
      </trkpt>
      <trkpt lat="43.15999" lon="6.50814">
        <ele>164.9</ele>
        <time>2024-02-04T08:57:26Z</time>
      </trkpt>
      <trkpt lat="43.15998" lon="6.50814">
        <ele>164.9</ele>
        <time>2024-02-04T08:57:27Z</time>
      </trkpt>
      <trkpt lat="43.15998" lon="6.50814">
        <ele>164.9</ele>
        <time>2024-02-04T08:57:28Z</time>
      </trkpt>
      <trkpt lat="43.15997" lon="6.50813">
        <ele>164.9</ele>
        <time>2024-02-04T08:57:29Z</time>
      </trkpt>
      <trkpt lat="43.15996" lon="6.50812">
        <ele>164.9</ele>
        <time>2024-02-04T08:57:30Z</time>
      </trkpt>
      <trkpt lat="43.15995" lon="6.50812">
        <ele>164.9</ele>
        <time>2024-02-04T08:57:31Z</time>
      </trkpt>
      <trkpt lat="43.15994" lon="6.50811">
        <ele>164.9</ele>
        <time>2024-02-04T08:57:32Z</time>
      </trkpt>
      <trkpt lat="43.15993" lon="6.50811">
        <ele>164.9</ele>
        <time>2024-02-04T08:57:33Z</time>
      </trkpt>
      <trkpt lat="43.15993" lon="6.5081">
        <ele>164.9</ele>
        <time>2024-02-04T08:57:34Z</time>
      </trkpt>
      <trkpt lat="43.15992" lon="6.50809">
        <ele>164.9</ele>
        <time>2024-02-04T08:57:35Z</time>
      </trkpt>
      <trkpt lat="43.15991" lon="6.50809">
        <ele>164.9</ele>
        <time>2024-02-04T08:57:36Z</time>
      </trkpt>
      <trkpt lat="43.1599" lon="6.50808">
        <ele>165</ele>
        <time>2024-02-04T08:57:37Z</time>
      </trkpt>
      <trkpt lat="43.15989" lon="6.50807">
        <ele>165</ele>
        <time>2024-02-04T08:57:38Z</time>
      </trkpt>
      <trkpt lat="43.15988" lon="6.50807">
        <ele>164.9</ele>
        <time>2024-02-04T08:57:39Z</time>
      </trkpt>
      <trkpt lat="43.15987" lon="6.50805">
        <ele>164.7</ele>
        <time>2024-02-04T08:57:40Z</time>
      </trkpt>
      <trkpt lat="43.15987" lon="6.50804">
        <ele>164.5</ele>
        <time>2024-02-04T08:57:41Z</time>
      </trkpt>
      <trkpt lat="43.15987" lon="6.50803">
        <ele>164.4</ele>
        <time>2024-02-04T08:57:42Z</time>
      </trkpt>
      <trkpt lat="43.15986" lon="6.50802">
        <ele>164.3</ele>
        <time>2024-02-04T08:57:43Z</time>
      </trkpt>
      <trkpt lat="43.15986" lon="6.508">
        <ele>164.2</ele>
        <time>2024-02-04T08:57:44Z</time>
      </trkpt>
      <trkpt lat="43.15985" lon="6.50799">
        <ele>164.1</ele>
        <time>2024-02-04T08:57:45Z</time>
      </trkpt>
      <trkpt lat="43.15985" lon="6.50798">
        <ele>164.1</ele>
        <time>2024-02-04T08:57:46Z</time>
      </trkpt>
      <trkpt lat="43.15984" lon="6.50797">
        <ele>164</ele>
        <time>2024-02-04T08:57:47Z</time>
      </trkpt>
      <trkpt lat="43.15984" lon="6.50796">
        <ele>164</ele>
        <time>2024-02-04T08:57:48Z</time>
      </trkpt>
      <trkpt lat="43.15984" lon="6.50795">
        <ele>163.9</ele>
        <time>2024-02-04T08:57:49Z</time>
      </trkpt>
      <trkpt lat="43.15983" lon="6.50794">
        <ele>163.9</ele>
        <time>2024-02-04T08:57:50Z</time>
      </trkpt>
      <trkpt lat="43.15983" lon="6.50793">
        <ele>163.8</ele>
        <time>2024-02-04T08:57:51Z</time>
      </trkpt>
      <trkpt lat="43.15982" lon="6.50792">
        <ele>163.8</ele>
        <time>2024-02-04T08:57:52Z</time>
      </trkpt>
      <trkpt lat="43.15982" lon="6.50792">
        <ele>163.8</ele>
        <time>2024-02-04T08:57:53Z</time>
      </trkpt>
      <trkpt lat="43.15982" lon="6.50791">
        <ele>163.7</ele>
        <time>2024-02-04T08:57:54Z</time>
      </trkpt>
      <trkpt lat="43.15981" lon="6.5079">
        <ele>163.6</ele>
        <time>2024-02-04T08:57:55Z</time>
      </trkpt>
      <trkpt lat="43.15981" lon="6.5079">
        <ele>163.5</ele>
        <time>2024-02-04T08:57:56Z</time>
      </trkpt>
      <trkpt lat="43.15981" lon="6.5079">
        <ele>163.5</ele>
        <time>2024-02-04T08:57:57Z</time>
      </trkpt>
      <trkpt lat="43.15981" lon="6.5079">
        <ele>163.5</ele>
        <time>2024-02-04T08:57:58Z</time>
      </trkpt>
      <trkpt lat="43.15981" lon="6.5079">
        <ele>163.5</ele>
        <time>2024-02-04T08:57:59Z</time>
      </trkpt>
      <trkpt lat="43.15982" lon="6.50789">
        <ele>163.5</ele>
        <time>2024-02-04T08:58:00Z</time>
      </trkpt>
      <trkpt lat="43.15982" lon="6.50789">
        <ele>163.5</ele>
        <time>2024-02-04T08:58:01Z</time>
      </trkpt>
      <trkpt lat="43.15981" lon="6.5079">
        <ele>163.4</ele>
        <time>2024-02-04T08:58:02Z</time>
      </trkpt>
      <trkpt lat="43.1598" lon="6.5079">
        <ele>163.3</ele>
        <time>2024-02-04T08:58:03Z</time>
      </trkpt>
      <trkpt lat="43.15979" lon="6.5079">
        <ele>163.3</ele>
        <time>2024-02-04T08:58:04Z</time>
      </trkpt>
      <trkpt lat="43.15978" lon="6.5079">
        <ele>163.3</ele>
        <time>2024-02-04T08:58:05Z</time>
      </trkpt>
      <trkpt lat="43.15978" lon="6.50791">
        <ele>163.3</ele>
        <time>2024-02-04T08:58:06Z</time>
      </trkpt>
      <trkpt lat="43.15977" lon="6.50791">
        <ele>163.4</ele>
        <time>2024-02-04T08:58:07Z</time>
      </trkpt>
      <trkpt lat="43.15976" lon="6.50791">
        <ele>163.4</ele>
        <time>2024-02-04T08:58:08Z</time>
      </trkpt>
      <trkpt lat="43.15976" lon="6.50791">
        <ele>163.4</ele>
        <time>2024-02-04T08:58:09Z</time>
      </trkpt>
      <trkpt lat="43.15975" lon="6.5079">
        <ele>163.3</ele>
        <time>2024-02-04T08:58:10Z</time>
      </trkpt>
      <trkpt lat="43.15974" lon="6.5079">
        <ele>163.2</ele>
        <time>2024-02-04T08:58:11Z</time>
      </trkpt>
      <trkpt lat="43.15973" lon="6.5079">
        <ele>163.1</ele>
        <time>2024-02-04T08:58:12Z</time>
      </trkpt>
      <trkpt lat="43.15973" lon="6.5079">
        <ele>163</ele>
        <time>2024-02-04T08:58:13Z</time>
      </trkpt>
      <trkpt lat="43.15973" lon="6.50791">
        <ele>162.9</ele>
        <time>2024-02-04T08:58:14Z</time>
      </trkpt>
      <trkpt lat="43.15973" lon="6.50791">
        <ele>162.8</ele>
        <time>2024-02-04T08:58:15Z</time>
      </trkpt>
      <trkpt lat="43.15973" lon="6.50791">
        <ele>162.7</ele>
        <time>2024-02-04T08:58:16Z</time>
      </trkpt>
      <trkpt lat="43.15973" lon="6.50791">
        <ele>162.7</ele>
        <time>2024-02-04T08:58:17Z</time>
      </trkpt>
      <trkpt lat="43.15973" lon="6.50791">
        <ele>162.6</ele>
        <time>2024-02-04T08:58:18Z</time>
      </trkpt>
      <trkpt lat="43.15973" lon="6.50791">
        <ele>162.6</ele>
        <time>2024-02-04T08:58:19Z</time>
      </trkpt>
      <trkpt lat="43.15972" lon="6.50791">
        <ele>162.6</ele>
        <time>2024-02-04T08:58:20Z</time>
      </trkpt>
      <trkpt lat="43.15972" lon="6.5079">
        <ele>162.6</ele>
        <time>2024-02-04T08:58:21Z</time>
      </trkpt>
      <trkpt lat="43.15972" lon="6.5079">
        <ele>162.6</ele>
        <time>2024-02-04T08:58:22Z</time>
      </trkpt>
      <trkpt lat="43.15972" lon="6.5079">
        <ele>162.5</ele>
        <time>2024-02-04T08:58:23Z</time>
      </trkpt>
      <trkpt lat="43.15972" lon="6.50791">
        <ele>162.5</ele>
        <time>2024-02-04T08:58:24Z</time>
      </trkpt>
      <trkpt lat="43.15972" lon="6.50791">
        <ele>162.5</ele>
        <time>2024-02-04T08:58:25Z</time>
      </trkpt>
      <trkpt lat="43.15972" lon="6.50791">
        <ele>162.5</ele>
        <time>2024-02-04T08:58:26Z</time>
      </trkpt>
      <trkpt lat="43.15973" lon="6.50791">
        <ele>162.4</ele>
        <time>2024-02-04T08:58:27Z</time>
      </trkpt>
      <trkpt lat="43.15972" lon="6.50791">
        <ele>162.4</ele>
        <time>2024-02-04T08:58:28Z</time>
      </trkpt>
      <trkpt lat="43.15972" lon="6.50791">
        <ele>162.4</ele>
        <time>2024-02-04T08:58:29Z</time>
      </trkpt>
      <trkpt lat="43.15972" lon="6.50791">
        <ele>162.4</ele>
        <time>2024-02-04T08:58:30Z</time>
      </trkpt>
      <trkpt lat="43.15972" lon="6.50791">
        <ele>162.4</ele>
        <time>2024-02-04T08:58:31Z</time>
      </trkpt>
      <trkpt lat="43.15972" lon="6.50791">
        <ele>162.4</ele>
        <time>2024-02-04T08:58:32Z</time>
      </trkpt>
      <trkpt lat="43.15972" lon="6.50791">
        <ele>162.4</ele>
        <time>2024-02-04T08:58:33Z</time>
      </trkpt>
      <trkpt lat="43.15972" lon="6.50791">
        <ele>162.4</ele>
        <time>2024-02-04T08:58:34Z</time>
      </trkpt>
      <trkpt lat="43.15972" lon="6.50791">
        <ele>162.4</ele>
        <time>2024-02-04T08:58:35Z</time>
      </trkpt>
      <trkpt lat="43.15972" lon="6.50791">
        <ele>162.4</ele>
        <time>2024-02-04T08:58:36Z</time>
      </trkpt>
      <trkpt lat="43.15972" lon="6.50791">
        <ele>162.5</ele>
        <time>2024-02-04T08:58:37Z</time>
      </trkpt>
      <trkpt lat="43.15972" lon="6.50791">
        <ele>162.5</ele>
        <time>2024-02-04T08:58:38Z</time>
      </trkpt>
      <trkpt lat="43.15972" lon="6.50791">
        <ele>162.4</ele>
        <time>2024-02-04T08:58:39Z</time>
      </trkpt>
      <trkpt lat="43.15972" lon="6.50791">
        <ele>162.4</ele>
        <time>2024-02-04T08:58:40Z</time>
      </trkpt>
      <trkpt lat="43.15973" lon="6.50791">
        <ele>162.4</ele>
        <time>2024-02-04T08:58:41Z</time>
      </trkpt>
      <trkpt lat="43.15973" lon="6.50791">
        <ele>162.4</ele>
        <time>2024-02-04T08:58:42Z</time>
      </trkpt>
      <trkpt lat="43.15973" lon="6.50791">
        <ele>162.4</ele>
        <time>2024-02-04T08:58:43Z</time>
      </trkpt>
      <trkpt lat="43.15973" lon="6.50791">
        <ele>162.3</ele>
        <time>2024-02-04T08:58:44Z</time>
      </trkpt>
      <trkpt lat="43.15973" lon="6.50791">
        <ele>162.4</ele>
        <time>2024-02-04T08:58:45Z</time>
      </trkpt>
      <trkpt lat="43.15973" lon="6.50791">
        <ele>162.4</ele>
        <time>2024-02-04T08:58:46Z</time>
      </trkpt>
      <trkpt lat="43.15973" lon="6.50791">
        <ele>162.5</ele>
        <time>2024-02-04T08:58:47Z</time>
      </trkpt>
      <trkpt lat="43.15972" lon="6.50791">
        <ele>162.5</ele>
        <time>2024-02-04T08:58:48Z</time>
      </trkpt>
      <trkpt lat="43.15972" lon="6.50791">
        <ele>162.5</ele>
        <time>2024-02-04T08:58:49Z</time>
      </trkpt>
      <trkpt lat="43.15971" lon="6.5079">
        <ele>162.4</ele>
        <time>2024-02-04T08:58:50Z</time>
      </trkpt>
      <trkpt lat="43.1597" lon="6.50789">
        <ele>162.3</ele>
        <time>2024-02-04T08:58:51Z</time>
      </trkpt>
      <trkpt lat="43.1597" lon="6.50788">
        <ele>162.3</ele>
        <time>2024-02-04T08:58:52Z</time>
      </trkpt>
      <trkpt lat="43.1597" lon="6.50787">
        <ele>162.2</ele>
        <time>2024-02-04T08:58:53Z</time>
      </trkpt>
      <trkpt lat="43.15969" lon="6.50786">
        <ele>162.1</ele>
        <time>2024-02-04T08:58:54Z</time>
      </trkpt>
      <trkpt lat="43.15969" lon="6.50784">
        <ele>162</ele>
        <time>2024-02-04T08:58:55Z</time>
      </trkpt>
      <trkpt lat="43.15969" lon="6.50783">
        <ele>162</ele>
        <time>2024-02-04T08:58:56Z</time>
      </trkpt>
      <trkpt lat="43.15968" lon="6.50782">
        <ele>162</ele>
        <time>2024-02-04T08:58:57Z</time>
      </trkpt>
      <trkpt lat="43.15968" lon="6.50782">
        <ele>161.9</ele>
        <time>2024-02-04T08:58:58Z</time>
      </trkpt>
      <trkpt lat="43.15967" lon="6.50781">
        <ele>161.9</ele>
        <time>2024-02-04T08:58:59Z</time>
      </trkpt>
      <trkpt lat="43.15966" lon="6.5078">
        <ele>161.8</ele>
        <time>2024-02-04T08:59:00Z</time>
      </trkpt>
      <trkpt lat="43.15964" lon="6.50779">
        <ele>161.6</ele>
        <time>2024-02-04T08:59:01Z</time>
      </trkpt>
      <trkpt lat="43.15963" lon="6.50779">
        <ele>161.5</ele>
        <time>2024-02-04T08:59:02Z</time>
      </trkpt>
      <trkpt lat="43.15962" lon="6.50779">
        <ele>161.2</ele>
        <time>2024-02-04T08:59:03Z</time>
      </trkpt>
      <trkpt lat="43.15961" lon="6.50778">
        <ele>161</ele>
        <time>2024-02-04T08:59:04Z</time>
      </trkpt>
      <trkpt lat="43.1596" lon="6.50779">
        <ele>160.8</ele>
        <time>2024-02-04T08:59:05Z</time>
      </trkpt>
      <trkpt lat="43.1596" lon="6.50779">
        <ele>160.7</ele>
        <time>2024-02-04T08:59:06Z</time>
      </trkpt>
      <trkpt lat="43.15959" lon="6.5078">
        <ele>160.6</ele>
        <time>2024-02-04T08:59:07Z</time>
      </trkpt>
      <trkpt lat="43.15958" lon="6.50781">
        <ele>160.4</ele>
        <time>2024-02-04T08:59:08Z</time>
      </trkpt>
      <trkpt lat="43.15957" lon="6.50781">
        <ele>160.1</ele>
        <time>2024-02-04T08:59:09Z</time>
      </trkpt>
      <trkpt lat="43.15956" lon="6.50781">
        <ele>159.9</ele>
        <time>2024-02-04T08:59:10Z</time>
      </trkpt>
      <trkpt lat="43.15955" lon="6.5078">
        <ele>159.5</ele>
        <time>2024-02-04T08:59:11Z</time>
      </trkpt>
      <trkpt lat="43.15954" lon="6.5078">
        <ele>159.3</ele>
        <time>2024-02-04T08:59:12Z</time>
      </trkpt>
      <trkpt lat="43.15953" lon="6.50779">
        <ele>159</ele>
        <time>2024-02-04T08:59:13Z</time>
      </trkpt>
      <trkpt lat="43.15951" lon="6.50779">
        <ele>158.8</ele>
        <time>2024-02-04T08:59:14Z</time>
      </trkpt>
      <trkpt lat="43.1595" lon="6.50779">
        <ele>158.7</ele>
        <time>2024-02-04T08:59:15Z</time>
      </trkpt>
      <trkpt lat="43.15949" lon="6.50779">
        <ele>158.5</ele>
        <time>2024-02-04T08:59:16Z</time>
      </trkpt>
      <trkpt lat="43.15948" lon="6.50779">
        <ele>158.3</ele>
        <time>2024-02-04T08:59:17Z</time>
      </trkpt>
      <trkpt lat="43.15947" lon="6.50779">
        <ele>158.1</ele>
        <time>2024-02-04T08:59:18Z</time>
      </trkpt>
      <trkpt lat="43.15945" lon="6.50779">
        <ele>157.9</ele>
        <time>2024-02-04T08:59:19Z</time>
      </trkpt>
      <trkpt lat="43.15944" lon="6.50779">
        <ele>157.6</ele>
        <time>2024-02-04T08:59:20Z</time>
      </trkpt>
      <trkpt lat="43.15943" lon="6.50779">
        <ele>157.5</ele>
        <time>2024-02-04T08:59:21Z</time>
      </trkpt>
      <trkpt lat="43.15942" lon="6.50778">
        <ele>157.4</ele>
        <time>2024-02-04T08:59:22Z</time>
      </trkpt>
      <trkpt lat="43.1594" lon="6.50777">
        <ele>157.3</ele>
        <time>2024-02-04T08:59:23Z</time>
      </trkpt>
      <trkpt lat="43.15939" lon="6.50777">
        <ele>157.2</ele>
        <time>2024-02-04T08:59:24Z</time>
      </trkpt>
      <trkpt lat="43.15939" lon="6.50776">
        <ele>157</ele>
        <time>2024-02-04T08:59:25Z</time>
      </trkpt>
      <trkpt lat="43.15938" lon="6.50775">
        <ele>156.9</ele>
        <time>2024-02-04T08:59:26Z</time>
      </trkpt>
      <trkpt lat="43.15936" lon="6.50775">
        <ele>156.8</ele>
        <time>2024-02-04T08:59:27Z</time>
      </trkpt>
      <trkpt lat="43.15936" lon="6.50774">
        <ele>156.7</ele>
        <time>2024-02-04T08:59:28Z</time>
      </trkpt>
      <trkpt lat="43.15935" lon="6.50774">
        <ele>156.6</ele>
        <time>2024-02-04T08:59:29Z</time>
      </trkpt>
      <trkpt lat="43.15934" lon="6.50773">
        <ele>156.6</ele>
        <time>2024-02-04T08:59:30Z</time>
      </trkpt>
      <trkpt lat="43.15933" lon="6.50773">
        <ele>156.6</ele>
        <time>2024-02-04T08:59:31Z</time>
      </trkpt>
      <trkpt lat="43.15933" lon="6.50772">
        <ele>156.5</ele>
        <time>2024-02-04T08:59:32Z</time>
      </trkpt>
      <trkpt lat="43.15932" lon="6.50773">
        <ele>156.5</ele>
        <time>2024-02-04T08:59:33Z</time>
      </trkpt>
      <trkpt lat="43.15931" lon="6.50774">
        <ele>156.4</ele>
        <time>2024-02-04T08:59:34Z</time>
      </trkpt>
      <trkpt lat="43.15931" lon="6.50775">
        <ele>156.3</ele>
        <time>2024-02-04T08:59:35Z</time>
      </trkpt>
      <trkpt lat="43.15931" lon="6.50776">
        <ele>156.1</ele>
        <time>2024-02-04T08:59:36Z</time>
      </trkpt>
      <trkpt lat="43.1593" lon="6.50778">
        <ele>155.8</ele>
        <time>2024-02-04T08:59:37Z</time>
      </trkpt>
      <trkpt lat="43.1593" lon="6.50778">
        <ele>155.6</ele>
        <time>2024-02-04T08:59:38Z</time>
      </trkpt>
      <trkpt lat="43.15929" lon="6.50778">
        <ele>155.2</ele>
        <time>2024-02-04T08:59:39Z</time>
      </trkpt>
      <trkpt lat="43.15929" lon="6.50779">
        <ele>154.9</ele>
        <time>2024-02-04T08:59:40Z</time>
      </trkpt>
      <trkpt lat="43.15928" lon="6.50779">
        <ele>154.5</ele>
        <time>2024-02-04T08:59:41Z</time>
      </trkpt>
      <trkpt lat="43.15928" lon="6.50779">
        <ele>154.2</ele>
        <time>2024-02-04T08:59:42Z</time>
      </trkpt>
      <trkpt lat="43.15927" lon="6.50779">
        <ele>153.9</ele>
        <time>2024-02-04T08:59:43Z</time>
      </trkpt>
      <trkpt lat="43.15926" lon="6.5078">
        <ele>153.6</ele>
        <time>2024-02-04T08:59:44Z</time>
      </trkpt>
      <trkpt lat="43.15925" lon="6.5078">
        <ele>153.4</ele>
        <time>2024-02-04T08:59:45Z</time>
      </trkpt>
      <trkpt lat="43.15926" lon="6.50781">
        <ele>153.1</ele>
        <time>2024-02-04T08:59:46Z</time>
      </trkpt>
      <trkpt lat="43.15925" lon="6.5078">
        <ele>152.8</ele>
        <time>2024-02-04T08:59:47Z</time>
      </trkpt>
      <trkpt lat="43.15924" lon="6.50781">
        <ele>152.6</ele>
        <time>2024-02-04T08:59:48Z</time>
      </trkpt>
      <trkpt lat="43.15924" lon="6.50782">
        <ele>152.4</ele>
        <time>2024-02-04T08:59:49Z</time>
      </trkpt>
      <trkpt lat="43.15924" lon="6.50782">
        <ele>152.2</ele>
        <time>2024-02-04T08:59:50Z</time>
      </trkpt>
      <trkpt lat="43.15924" lon="6.50783">
        <ele>152</ele>
        <time>2024-02-04T08:59:51Z</time>
      </trkpt>
      <trkpt lat="43.15923" lon="6.50783">
        <ele>151.7</ele>
        <time>2024-02-04T08:59:52Z</time>
      </trkpt>
      <trkpt lat="43.15922" lon="6.50783">
        <ele>151.5</ele>
        <time>2024-02-04T08:59:53Z</time>
      </trkpt>
      <trkpt lat="43.1592" lon="6.50784">
        <ele>151.3</ele>
        <time>2024-02-04T08:59:54Z</time>
      </trkpt>
      <trkpt lat="43.15919" lon="6.50782">
        <ele>151.1</ele>
        <time>2024-02-04T08:59:55Z</time>
      </trkpt>
      <trkpt lat="43.15917" lon="6.50782">
        <ele>150.9</ele>
        <time>2024-02-04T08:59:56Z</time>
      </trkpt>
      <trkpt lat="43.15917" lon="6.50781">
        <ele>150.9</ele>
        <time>2024-02-04T08:59:57Z</time>
      </trkpt>
      <trkpt lat="43.15917" lon="6.50779">
        <ele>150.8</ele>
        <time>2024-02-04T08:59:58Z</time>
      </trkpt>
      <trkpt lat="43.15916" lon="6.50777">
        <ele>150.9</ele>
        <time>2024-02-04T08:59:59Z</time>
      </trkpt>
      <trkpt lat="43.15914" lon="6.50776">
        <ele>151</ele>
        <time>2024-02-04T09:00:00Z</time>
      </trkpt>
      <trkpt lat="43.15913" lon="6.50775">
        <ele>151.2</ele>
        <time>2024-02-04T09:00:01Z</time>
      </trkpt>
      <trkpt lat="43.15912" lon="6.50774">
        <ele>151.4</ele>
        <time>2024-02-04T09:00:02Z</time>
      </trkpt>
      <trkpt lat="43.1591" lon="6.50774">
        <ele>151.6</ele>
        <time>2024-02-04T09:00:03Z</time>
      </trkpt>
      <trkpt lat="43.15909" lon="6.50773">
        <ele>151.8</ele>
        <time>2024-02-04T09:00:04Z</time>
      </trkpt>
      <trkpt lat="43.15908" lon="6.50773">
        <ele>151.9</ele>
        <time>2024-02-04T09:00:05Z</time>
      </trkpt>
      <trkpt lat="43.15907" lon="6.50772">
        <ele>152.1</ele>
        <time>2024-02-04T09:00:06Z</time>
      </trkpt>
      <trkpt lat="43.15906" lon="6.50772">
        <ele>152.2</ele>
        <time>2024-02-04T09:00:07Z</time>
      </trkpt>
      <trkpt lat="43.15905" lon="6.50773">
        <ele>152.1</ele>
        <time>2024-02-04T09:00:08Z</time>
      </trkpt>
      <trkpt lat="43.15904" lon="6.50773">
        <ele>152</ele>
        <time>2024-02-04T09:00:09Z</time>
      </trkpt>
      <trkpt lat="43.15903" lon="6.50773">
        <ele>151.9</ele>
        <time>2024-02-04T09:00:10Z</time>
      </trkpt>
      <trkpt lat="43.15903" lon="6.50773">
        <ele>151.8</ele>
        <time>2024-02-04T09:00:11Z</time>
      </trkpt>
      <trkpt lat="43.15902" lon="6.50774">
        <ele>151.6</ele>
        <time>2024-02-04T09:00:12Z</time>
      </trkpt>
      <trkpt lat="43.15901" lon="6.50774">
        <ele>151.5</ele>
        <time>2024-02-04T09:00:13Z</time>
      </trkpt>
      <trkpt lat="43.159" lon="6.50775">
        <ele>151.3</ele>
        <time>2024-02-04T09:00:14Z</time>
      </trkpt>
      <trkpt lat="43.159" lon="6.50775">
        <ele>151.2</ele>
        <time>2024-02-04T09:00:15Z</time>
      </trkpt>
      <trkpt lat="43.15899" lon="6.50775">
        <ele>151.1</ele>
        <time>2024-02-04T09:00:16Z</time>
      </trkpt>
      <trkpt lat="43.15899" lon="6.50775">
        <ele>151</ele>
        <time>2024-02-04T09:00:17Z</time>
      </trkpt>
      <trkpt lat="43.15898" lon="6.50775">
        <ele>151</ele>
        <time>2024-02-04T09:00:18Z</time>
      </trkpt>
      <trkpt lat="43.15898" lon="6.50775">
        <ele>150.8</ele>
        <time>2024-02-04T09:00:19Z</time>
      </trkpt>
      <trkpt lat="43.15898" lon="6.50774">
        <ele>150.7</ele>
        <time>2024-02-04T09:00:20Z</time>
      </trkpt>
      <trkpt lat="43.15898" lon="6.50774">
        <ele>150.7</ele>
        <time>2024-02-04T09:00:21Z</time>
      </trkpt>
      <trkpt lat="43.15898" lon="6.50774">
        <ele>150.5</ele>
        <time>2024-02-04T09:00:22Z</time>
      </trkpt>
      <trkpt lat="43.15897" lon="6.50774">
        <ele>150.4</ele>
        <time>2024-02-04T09:00:23Z</time>
      </trkpt>
      <trkpt lat="43.15896" lon="6.50775">
        <ele>150.3</ele>
        <time>2024-02-04T09:00:24Z</time>
      </trkpt>
      <trkpt lat="43.15896" lon="6.50775">
        <ele>150.2</ele>
        <time>2024-02-04T09:00:25Z</time>
      </trkpt>
      <trkpt lat="43.15895" lon="6.50775">
        <ele>150.1</ele>
        <time>2024-02-04T09:00:26Z</time>
      </trkpt>
      <trkpt lat="43.15895" lon="6.50776">
        <ele>150</ele>
        <time>2024-02-04T09:00:27Z</time>
      </trkpt>
      <trkpt lat="43.15895" lon="6.50776">
        <ele>150</ele>
        <time>2024-02-04T09:00:28Z</time>
      </trkpt>
      <trkpt lat="43.15894" lon="6.50776">
        <ele>149.9</ele>
        <time>2024-02-04T09:00:29Z</time>
      </trkpt>
      <trkpt lat="43.15894" lon="6.50776">
        <ele>149.9</ele>
        <time>2024-02-04T09:00:30Z</time>
      </trkpt>
      <trkpt lat="43.15895" lon="6.50776">
        <ele>149.9</ele>
        <time>2024-02-04T09:00:31Z</time>
      </trkpt>
      <trkpt lat="43.15895" lon="6.50776">
        <ele>149.9</ele>
        <time>2024-02-04T09:00:32Z</time>
      </trkpt>
      <trkpt lat="43.15895" lon="6.50776">
        <ele>149.9</ele>
        <time>2024-02-04T09:00:33Z</time>
      </trkpt>
      <trkpt lat="43.15895" lon="6.50776">
        <ele>149.9</ele>
        <time>2024-02-04T09:00:34Z</time>
      </trkpt>
      <trkpt lat="43.15895" lon="6.50776">
        <ele>149.9</ele>
        <time>2024-02-04T09:00:35Z</time>
      </trkpt>
      <trkpt lat="43.15894" lon="6.50776">
        <ele>150</ele>
        <time>2024-02-04T09:00:36Z</time>
      </trkpt>
      <trkpt lat="43.15894" lon="6.50775">
        <ele>150</ele>
        <time>2024-02-04T09:00:37Z</time>
      </trkpt>
      <trkpt lat="43.15894" lon="6.50775">
        <ele>149.9</ele>
        <time>2024-02-04T09:00:38Z</time>
      </trkpt>
      <trkpt lat="43.15893" lon="6.50775">
        <ele>149.8</ele>
        <time>2024-02-04T09:00:39Z</time>
      </trkpt>
      <trkpt lat="43.15893" lon="6.50775">
        <ele>149.7</ele>
        <time>2024-02-04T09:00:40Z</time>
      </trkpt>
      <trkpt lat="43.15894" lon="6.50775">
        <ele>149.6</ele>
        <time>2024-02-04T09:00:41Z</time>
      </trkpt>
      <trkpt lat="43.15894" lon="6.50775">
        <ele>149.6</ele>
        <time>2024-02-04T09:00:42Z</time>
      </trkpt>
      <trkpt lat="43.15893" lon="6.50775">
        <ele>149.7</ele>
        <time>2024-02-04T09:00:43Z</time>
      </trkpt>
      <trkpt lat="43.15893" lon="6.50775">
        <ele>149.8</ele>
        <time>2024-02-04T09:00:44Z</time>
      </trkpt>
      <trkpt lat="43.15893" lon="6.50775">
        <ele>149.8</ele>
        <time>2024-02-04T09:00:45Z</time>
      </trkpt>
      <trkpt lat="43.15893" lon="6.50775">
        <ele>149.9</ele>
        <time>2024-02-04T09:00:46Z</time>
      </trkpt>
      <trkpt lat="43.15893" lon="6.50775">
        <ele>149.8</ele>
        <time>2024-02-04T09:00:47Z</time>
      </trkpt>
      <trkpt lat="43.15893" lon="6.50775">
        <ele>149.8</ele>
        <time>2024-02-04T09:00:48Z</time>
      </trkpt>
      <trkpt lat="43.15892" lon="6.50775">
        <ele>149.8</ele>
        <time>2024-02-04T09:00:49Z</time>
      </trkpt>
      <trkpt lat="43.15892" lon="6.50774">
        <ele>149.8</ele>
        <time>2024-02-04T09:00:50Z</time>
      </trkpt>
      <trkpt lat="43.15891" lon="6.50774">
        <ele>149.7</ele>
        <time>2024-02-04T09:00:51Z</time>
      </trkpt>
      <trkpt lat="43.15891" lon="6.50774">
        <ele>149.7</ele>
        <time>2024-02-04T09:00:52Z</time>
      </trkpt>
      <trkpt lat="43.15891" lon="6.50774">
        <ele>149.8</ele>
        <time>2024-02-04T09:00:53Z</time>
      </trkpt>
      <trkpt lat="43.1589" lon="6.50775">
        <ele>149.8</ele>
        <time>2024-02-04T09:00:54Z</time>
      </trkpt>
      <trkpt lat="43.15889" lon="6.50774">
        <ele>149.8</ele>
        <time>2024-02-04T09:00:55Z</time>
      </trkpt>
      <trkpt lat="43.15888" lon="6.50773">
        <ele>149.8</ele>
        <time>2024-02-04T09:00:56Z</time>
      </trkpt>
      <trkpt lat="43.15888" lon="6.50773">
        <ele>149.9</ele>
        <time>2024-02-04T09:00:57Z</time>
      </trkpt>
      <trkpt lat="43.15887" lon="6.50773">
        <ele>149.9</ele>
        <time>2024-02-04T09:00:58Z</time>
      </trkpt>
      <trkpt lat="43.15886" lon="6.50773">
        <ele>150</ele>
        <time>2024-02-04T09:00:59Z</time>
      </trkpt>
      <trkpt lat="43.15885" lon="6.50772">
        <ele>150.1</ele>
        <time>2024-02-04T09:01:00Z</time>
      </trkpt>
      <trkpt lat="43.15884" lon="6.50772">
        <ele>150.3</ele>
        <time>2024-02-04T09:01:01Z</time>
      </trkpt>
      <trkpt lat="43.15883" lon="6.50771">
        <ele>150.4</ele>
        <time>2024-02-04T09:01:02Z</time>
      </trkpt>
      <trkpt lat="43.15883" lon="6.50771">
        <ele>150.4</ele>
        <time>2024-02-04T09:01:03Z</time>
      </trkpt>
      <trkpt lat="43.15882" lon="6.50771">
        <ele>150.5</ele>
        <time>2024-02-04T09:01:04Z</time>
      </trkpt>
      <trkpt lat="43.15881" lon="6.5077">
        <ele>150.6</ele>
        <time>2024-02-04T09:01:05Z</time>
      </trkpt>
      <trkpt lat="43.15881" lon="6.5077">
        <ele>150.6</ele>
        <time>2024-02-04T09:01:06Z</time>
      </trkpt>
      <trkpt lat="43.1588" lon="6.5077">
        <ele>150.7</ele>
        <time>2024-02-04T09:01:07Z</time>
      </trkpt>
      <trkpt lat="43.1588" lon="6.5077">
        <ele>150.8</ele>
        <time>2024-02-04T09:01:08Z</time>
      </trkpt>
      <trkpt lat="43.1588" lon="6.5077">
        <ele>150.9</ele>
        <time>2024-02-04T09:01:09Z</time>
      </trkpt>
      <trkpt lat="43.1588" lon="6.5077">
        <ele>150.7</ele>
        <time>2024-02-04T09:01:10Z</time>
      </trkpt>
      <trkpt lat="43.15879" lon="6.5077">
        <ele>150.7</ele>
        <time>2024-02-04T09:01:11Z</time>
      </trkpt>
      <trkpt lat="43.15878" lon="6.5077">
        <ele>150.6</ele>
        <time>2024-02-04T09:01:12Z</time>
      </trkpt>
      <trkpt lat="43.15877" lon="6.5077">
        <ele>150.5</ele>
        <time>2024-02-04T09:01:13Z</time>
      </trkpt>
      <trkpt lat="43.15877" lon="6.5077">
        <ele>150.5</ele>
        <time>2024-02-04T09:01:14Z</time>
      </trkpt>
      <trkpt lat="43.15877" lon="6.50771">
        <ele>150.4</ele>
        <time>2024-02-04T09:01:15Z</time>
      </trkpt>
      <trkpt lat="43.15875" lon="6.50771">
        <ele>150.3</ele>
        <time>2024-02-04T09:01:16Z</time>
      </trkpt>
      <trkpt lat="43.15874" lon="6.50771">
        <ele>150.1</ele>
        <time>2024-02-04T09:01:17Z</time>
      </trkpt>
      <trkpt lat="43.15873" lon="6.5077">
        <ele>150</ele>
        <time>2024-02-04T09:01:18Z</time>
      </trkpt>
      <trkpt lat="43.15873" lon="6.50771">
        <ele>149.9</ele>
        <time>2024-02-04T09:01:19Z</time>
      </trkpt>
      <trkpt lat="43.15872" lon="6.5077">
        <ele>149.8</ele>
        <time>2024-02-04T09:01:20Z</time>
      </trkpt>
      <trkpt lat="43.15871" lon="6.5077">
        <ele>149.8</ele>
        <time>2024-02-04T09:01:21Z</time>
      </trkpt>
      <trkpt lat="43.1587" lon="6.5077">
        <ele>149.8</ele>
        <time>2024-02-04T09:01:22Z</time>
      </trkpt>
      <trkpt lat="43.1587" lon="6.5077">
        <ele>149.9</ele>
        <time>2024-02-04T09:01:23Z</time>
      </trkpt>
      <trkpt lat="43.15869" lon="6.5077">
        <ele>149.9</ele>
        <time>2024-02-04T09:01:24Z</time>
      </trkpt>
      <trkpt lat="43.15868" lon="6.5077">
        <ele>149.9</ele>
        <time>2024-02-04T09:01:25Z</time>
      </trkpt>
      <trkpt lat="43.15868" lon="6.50771">
        <ele>149.9</ele>
        <time>2024-02-04T09:01:26Z</time>
      </trkpt>
      <trkpt lat="43.15867" lon="6.50771">
        <ele>149.8</ele>
        <time>2024-02-04T09:01:27Z</time>
      </trkpt>
      <trkpt lat="43.15867" lon="6.50772">
        <ele>149.8</ele>
        <time>2024-02-04T09:01:28Z</time>
      </trkpt>
      <trkpt lat="43.15867" lon="6.50773">
        <ele>149.6</ele>
        <time>2024-02-04T09:01:29Z</time>
      </trkpt>
      <trkpt lat="43.15867" lon="6.50773">
        <ele>149.5</ele>
        <time>2024-02-04T09:01:30Z</time>
      </trkpt>
      <trkpt lat="43.15866" lon="6.50774">
        <ele>149.4</ele>
        <time>2024-02-04T09:01:31Z</time>
      </trkpt>
      <trkpt lat="43.15866" lon="6.50774">
        <ele>149.2</ele>
        <time>2024-02-04T09:01:32Z</time>
      </trkpt>
      <trkpt lat="43.15864" lon="6.50774">
        <ele>149</ele>
        <time>2024-02-04T09:01:33Z</time>
      </trkpt>
      <trkpt lat="43.15864" lon="6.50774">
        <ele>148.9</ele>
        <time>2024-02-04T09:01:34Z</time>
      </trkpt>
      <trkpt lat="43.15863" lon="6.50773">
        <ele>148.7</ele>
        <time>2024-02-04T09:01:35Z</time>
      </trkpt>
      <trkpt lat="43.15863" lon="6.50774">
        <ele>148.6</ele>
        <time>2024-02-04T09:01:36Z</time>
      </trkpt>
      <trkpt lat="43.15862" lon="6.50774">
        <ele>148.5</ele>
        <time>2024-02-04T09:01:37Z</time>
      </trkpt>
      <trkpt lat="43.15861" lon="6.50774">
        <ele>148.4</ele>
        <time>2024-02-04T09:01:38Z</time>
      </trkpt>
      <trkpt lat="43.1586" lon="6.50773">
        <ele>148.3</ele>
        <time>2024-02-04T09:01:39Z</time>
      </trkpt>
      <trkpt lat="43.1586" lon="6.50773">
        <ele>148.2</ele>
        <time>2024-02-04T09:01:40Z</time>
      </trkpt>
      <trkpt lat="43.1586" lon="6.50773">
        <ele>148.1</ele>
        <time>2024-02-04T09:01:41Z</time>
      </trkpt>
      <trkpt lat="43.15858" lon="6.50773">
        <ele>148</ele>
        <time>2024-02-04T09:01:42Z</time>
      </trkpt>
      <trkpt lat="43.15858" lon="6.50774">
        <ele>147.9</ele>
        <time>2024-02-04T09:01:43Z</time>
      </trkpt>
      <trkpt lat="43.15858" lon="6.50775">
        <ele>147.8</ele>
        <time>2024-02-04T09:01:44Z</time>
      </trkpt>
      <trkpt lat="43.15857" lon="6.50775">
        <ele>147.7</ele>
        <time>2024-02-04T09:01:45Z</time>
      </trkpt>
      <trkpt lat="43.15857" lon="6.50775">
        <ele>147.6</ele>
        <time>2024-02-04T09:01:46Z</time>
      </trkpt>
      <trkpt lat="43.15855" lon="6.50776">
        <ele>147.6</ele>
        <time>2024-02-04T09:01:47Z</time>
      </trkpt>
      <trkpt lat="43.15854" lon="6.50776">
        <ele>147.5</ele>
        <time>2024-02-04T09:01:48Z</time>
      </trkpt>
      <trkpt lat="43.15854" lon="6.50775">
        <ele>147.5</ele>
        <time>2024-02-04T09:01:49Z</time>
      </trkpt>
      <trkpt lat="43.15853" lon="6.50775">
        <ele>147.4</ele>
        <time>2024-02-04T09:01:50Z</time>
      </trkpt>
      <trkpt lat="43.15853" lon="6.50775">
        <ele>147.3</ele>
        <time>2024-02-04T09:01:51Z</time>
      </trkpt>
      <trkpt lat="43.15852" lon="6.50775">
        <ele>147.3</ele>
        <time>2024-02-04T09:01:52Z</time>
      </trkpt>
      <trkpt lat="43.15851" lon="6.50774">
        <ele>147.3</ele>
        <time>2024-02-04T09:01:53Z</time>
      </trkpt>
      <trkpt lat="43.15851" lon="6.50774">
        <ele>147.4</ele>
        <time>2024-02-04T09:01:54Z</time>
      </trkpt>
      <trkpt lat="43.15851" lon="6.50773">
        <ele>147.5</ele>
        <time>2024-02-04T09:01:55Z</time>
      </trkpt>
      <trkpt lat="43.15851" lon="6.50773">
        <ele>147.6</ele>
        <time>2024-02-04T09:01:56Z</time>
      </trkpt>
      <trkpt lat="43.15851" lon="6.50774">
        <ele>147.7</ele>
        <time>2024-02-04T09:01:57Z</time>
      </trkpt>
      <trkpt lat="43.15849" lon="6.50773">
        <ele>147.9</ele>
        <time>2024-02-04T09:01:58Z</time>
      </trkpt>
      <trkpt lat="43.15849" lon="6.50773">
        <ele>148</ele>
        <time>2024-02-04T09:01:59Z</time>
      </trkpt>
      <trkpt lat="43.15848" lon="6.50773">
        <ele>148.2</ele>
        <time>2024-02-04T09:02:00Z</time>
      </trkpt>
      <trkpt lat="43.15848" lon="6.50774">
        <ele>148.3</ele>
        <time>2024-02-04T09:02:01Z</time>
      </trkpt>
      <trkpt lat="43.15847" lon="6.50774">
        <ele>148.4</ele>
        <time>2024-02-04T09:02:02Z</time>
      </trkpt>
      <trkpt lat="43.15846" lon="6.50776">
        <ele>148.4</ele>
        <time>2024-02-04T09:02:03Z</time>
      </trkpt>
      <trkpt lat="43.15846" lon="6.50777">
        <ele>148.4</ele>
        <time>2024-02-04T09:02:04Z</time>
      </trkpt>
      <trkpt lat="43.15845" lon="6.50777">
        <ele>148.4</ele>
        <time>2024-02-04T09:02:05Z</time>
      </trkpt>
      <trkpt lat="43.15844" lon="6.50777">
        <ele>148.4</ele>
        <time>2024-02-04T09:02:06Z</time>
      </trkpt>
      <trkpt lat="43.15843" lon="6.50777">
        <ele>148.4</ele>
        <time>2024-02-04T09:02:07Z</time>
      </trkpt>
      <trkpt lat="43.15842" lon="6.50777">
        <ele>148.4</ele>
        <time>2024-02-04T09:02:08Z</time>
      </trkpt>
      <trkpt lat="43.15841" lon="6.50777">
        <ele>148.5</ele>
        <time>2024-02-04T09:02:09Z</time>
      </trkpt>
      <trkpt lat="43.1584" lon="6.50777">
        <ele>148.5</ele>
        <time>2024-02-04T09:02:10Z</time>
      </trkpt>
      <trkpt lat="43.15839" lon="6.50777">
        <ele>148.6</ele>
        <time>2024-02-04T09:02:11Z</time>
      </trkpt>
      <trkpt lat="43.15839" lon="6.50777">
        <ele>148.6</ele>
        <time>2024-02-04T09:02:12Z</time>
      </trkpt>
      <trkpt lat="43.15838" lon="6.50777">
        <ele>148.5</ele>
        <time>2024-02-04T09:02:13Z</time>
      </trkpt>
      <trkpt lat="43.15837" lon="6.50777">
        <ele>148.6</ele>
        <time>2024-02-04T09:02:14Z</time>
      </trkpt>
      <trkpt lat="43.15836" lon="6.50777">
        <ele>148.6</ele>
        <time>2024-02-04T09:02:15Z</time>
      </trkpt>
      <trkpt lat="43.15835" lon="6.50777">
        <ele>148.6</ele>
        <time>2024-02-04T09:02:16Z</time>
      </trkpt>
      <trkpt lat="43.15834" lon="6.50778">
        <ele>148.6</ele>
        <time>2024-02-04T09:02:17Z</time>
      </trkpt>
      <trkpt lat="43.15834" lon="6.50779">
        <ele>148.7</ele>
        <time>2024-02-04T09:02:18Z</time>
      </trkpt>
      <trkpt lat="43.15833" lon="6.50779">
        <ele>148.7</ele>
        <time>2024-02-04T09:02:19Z</time>
      </trkpt>
      <trkpt lat="43.15833" lon="6.50779">
        <ele>148.8</ele>
        <time>2024-02-04T09:02:20Z</time>
      </trkpt>
      <trkpt lat="43.15833" lon="6.50779">
        <ele>148.8</ele>
        <time>2024-02-04T09:02:21Z</time>
      </trkpt>
      <trkpt lat="43.15832" lon="6.50779">
        <ele>148.8</ele>
        <time>2024-02-04T09:02:22Z</time>
      </trkpt>
      <trkpt lat="43.15832" lon="6.50779">
        <ele>148.9</ele>
        <time>2024-02-04T09:02:23Z</time>
      </trkpt>
      <trkpt lat="43.15831" lon="6.5078">
        <ele>148.9</ele>
        <time>2024-02-04T09:02:24Z</time>
      </trkpt>
      <trkpt lat="43.15831" lon="6.5078">
        <ele>148.8</ele>
        <time>2024-02-04T09:02:25Z</time>
      </trkpt>
      <trkpt lat="43.1583" lon="6.5078">
        <ele>148.8</ele>
        <time>2024-02-04T09:02:26Z</time>
      </trkpt>
      <trkpt lat="43.15829" lon="6.5078">
        <ele>148.7</ele>
        <time>2024-02-04T09:02:27Z</time>
      </trkpt>
      <trkpt lat="43.15829" lon="6.50781">
        <ele>148.7</ele>
        <time>2024-02-04T09:02:28Z</time>
      </trkpt>
      <trkpt lat="43.15828" lon="6.50782">
        <ele>148.6</ele>
        <time>2024-02-04T09:02:29Z</time>
      </trkpt>
      <trkpt lat="43.15828" lon="6.50783">
        <ele>148.5</ele>
        <time>2024-02-04T09:02:30Z</time>
      </trkpt>
      <trkpt lat="43.15827" lon="6.50784">
        <ele>148.4</ele>
        <time>2024-02-04T09:02:31Z</time>
      </trkpt>
      <trkpt lat="43.15827" lon="6.50784">
        <ele>148.2</ele>
        <time>2024-02-04T09:02:32Z</time>
      </trkpt>
      <trkpt lat="43.15826" lon="6.50784">
        <ele>148.1</ele>
        <time>2024-02-04T09:02:33Z</time>
      </trkpt>
      <trkpt lat="43.15825" lon="6.50784">
        <ele>148</ele>
        <time>2024-02-04T09:02:34Z</time>
      </trkpt>
      <trkpt lat="43.15823" lon="6.50785">
        <ele>148</ele>
        <time>2024-02-04T09:02:35Z</time>
      </trkpt>
      <trkpt lat="43.15821" lon="6.50784">
        <ele>148</ele>
        <time>2024-02-04T09:02:36Z</time>
      </trkpt>
      <trkpt lat="43.1582" lon="6.50784">
        <ele>147.9</ele>
        <time>2024-02-04T09:02:37Z</time>
      </trkpt>
      <trkpt lat="43.15818" lon="6.50783">
        <ele>147.8</ele>
        <time>2024-02-04T09:02:38Z</time>
      </trkpt>
      <trkpt lat="43.15817" lon="6.50783">
        <ele>147.9</ele>
        <time>2024-02-04T09:02:39Z</time>
      </trkpt>
      <trkpt lat="43.15816" lon="6.50783">
        <ele>148</ele>
        <time>2024-02-04T09:02:40Z</time>
      </trkpt>
      <trkpt lat="43.15815" lon="6.50783">
        <ele>148</ele>
        <time>2024-02-04T09:02:41Z</time>
      </trkpt>
      <trkpt lat="43.15815" lon="6.50783">
        <ele>148.1</ele>
        <time>2024-02-04T09:02:42Z</time>
      </trkpt>
      <trkpt lat="43.15815" lon="6.50782">
        <ele>148.1</ele>
        <time>2024-02-04T09:02:43Z</time>
      </trkpt>
      <trkpt lat="43.15814" lon="6.50782">
        <ele>148.2</ele>
        <time>2024-02-04T09:02:44Z</time>
      </trkpt>
      <trkpt lat="43.15814" lon="6.50782">
        <ele>148.3</ele>
        <time>2024-02-04T09:02:45Z</time>
      </trkpt>
      <trkpt lat="43.15813" lon="6.50781">
        <ele>148.4</ele>
        <time>2024-02-04T09:02:46Z</time>
      </trkpt>
      <trkpt lat="43.15812" lon="6.50781">
        <ele>148.4</ele>
        <time>2024-02-04T09:02:47Z</time>
      </trkpt>
      <trkpt lat="43.15811" lon="6.50781">
        <ele>148.6</ele>
        <time>2024-02-04T09:02:48Z</time>
      </trkpt>
      <trkpt lat="43.15811" lon="6.50781">
        <ele>148.7</ele>
        <time>2024-02-04T09:02:49Z</time>
      </trkpt>
      <trkpt lat="43.1581" lon="6.50781">
        <ele>148.8</ele>
        <time>2024-02-04T09:02:50Z</time>
      </trkpt>
      <trkpt lat="43.1581" lon="6.5078">
        <ele>148.9</ele>
        <time>2024-02-04T09:02:51Z</time>
      </trkpt>
      <trkpt lat="43.1581" lon="6.5078">
        <ele>149</ele>
        <time>2024-02-04T09:02:52Z</time>
      </trkpt>
      <trkpt lat="43.15809" lon="6.50779">
        <ele>149.1</ele>
        <time>2024-02-04T09:02:53Z</time>
      </trkpt>
      <trkpt lat="43.15809" lon="6.50779">
        <ele>149.2</ele>
        <time>2024-02-04T09:02:54Z</time>
      </trkpt>
      <trkpt lat="43.15808" lon="6.50779">
        <ele>149.4</ele>
        <time>2024-02-04T09:02:55Z</time>
      </trkpt>
      <trkpt lat="43.15808" lon="6.50778">
        <ele>149.4</ele>
        <time>2024-02-04T09:02:56Z</time>
      </trkpt>
      <trkpt lat="43.15807" lon="6.50778">
        <ele>149.4</ele>
        <time>2024-02-04T09:02:57Z</time>
      </trkpt>
      <trkpt lat="43.15807" lon="6.50778">
        <ele>149.5</ele>
        <time>2024-02-04T09:02:58Z</time>
      </trkpt>
      <trkpt lat="43.15806" lon="6.50777">
        <ele>149.5</ele>
        <time>2024-02-04T09:02:59Z</time>
      </trkpt>
      <trkpt lat="43.15806" lon="6.50777">
        <ele>149.6</ele>
        <time>2024-02-04T09:03:00Z</time>
      </trkpt>
      <trkpt lat="43.15806" lon="6.50777">
        <ele>149.7</ele>
        <time>2024-02-04T09:03:01Z</time>
      </trkpt>
      <trkpt lat="43.15805" lon="6.50777">
        <ele>149.9</ele>
        <time>2024-02-04T09:03:02Z</time>
      </trkpt>
      <trkpt lat="43.15805" lon="6.50777">
        <ele>149.8</ele>
        <time>2024-02-04T09:03:03Z</time>
      </trkpt>
      <trkpt lat="43.15804" lon="6.50777">
        <ele>149.8</ele>
        <time>2024-02-04T09:03:04Z</time>
      </trkpt>
      <trkpt lat="43.15804" lon="6.50777">
        <ele>149.9</ele>
        <time>2024-02-04T09:03:05Z</time>
      </trkpt>
      <trkpt lat="43.15803" lon="6.50777">
        <ele>149.9</ele>
        <time>2024-02-04T09:03:06Z</time>
      </trkpt>
      <trkpt lat="43.15803" lon="6.50777">
        <ele>149.9</ele>
        <time>2024-02-04T09:03:07Z</time>
      </trkpt>
      <trkpt lat="43.15802" lon="6.50777">
        <ele>149.9</ele>
        <time>2024-02-04T09:03:08Z</time>
      </trkpt>
      <trkpt lat="43.15801" lon="6.50777">
        <ele>149.9</ele>
        <time>2024-02-04T09:03:09Z</time>
      </trkpt>
      <trkpt lat="43.15801" lon="6.50778">
        <ele>149.8</ele>
        <time>2024-02-04T09:03:10Z</time>
      </trkpt>
      <trkpt lat="43.15801" lon="6.50778">
        <ele>149.8</ele>
        <time>2024-02-04T09:03:11Z</time>
      </trkpt>
      <trkpt lat="43.158" lon="6.50777">
        <ele>149.8</ele>
        <time>2024-02-04T09:03:12Z</time>
      </trkpt>
      <trkpt lat="43.158" lon="6.50777">
        <ele>149.7</ele>
        <time>2024-02-04T09:03:13Z</time>
      </trkpt>
      <trkpt lat="43.158" lon="6.50778">
        <ele>149.5</ele>
        <time>2024-02-04T09:03:14Z</time>
      </trkpt>
      <trkpt lat="43.15799" lon="6.50778">
        <ele>149.3</ele>
        <time>2024-02-04T09:03:15Z</time>
      </trkpt>
      <trkpt lat="43.15799" lon="6.50778">
        <ele>149.1</ele>
        <time>2024-02-04T09:03:16Z</time>
      </trkpt>
      <trkpt lat="43.15799" lon="6.50778">
        <ele>149</ele>
        <time>2024-02-04T09:03:17Z</time>
      </trkpt>
      <trkpt lat="43.15799" lon="6.50778">
        <ele>148.8</ele>
        <time>2024-02-04T09:03:18Z</time>
      </trkpt>
      <trkpt lat="43.15799" lon="6.50778">
        <ele>148.7</ele>
        <time>2024-02-04T09:03:19Z</time>
      </trkpt>
      <trkpt lat="43.15799" lon="6.50778">
        <ele>148.7</ele>
        <time>2024-02-04T09:03:20Z</time>
      </trkpt>
      <trkpt lat="43.15799" lon="6.50778">
        <ele>148.7</ele>
        <time>2024-02-04T09:03:21Z</time>
      </trkpt>
      <trkpt lat="43.15798" lon="6.50778">
        <ele>148.6</ele>
        <time>2024-02-04T09:03:22Z</time>
      </trkpt>
      <trkpt lat="43.15798" lon="6.50778">
        <ele>148.6</ele>
        <time>2024-02-04T09:03:23Z</time>
      </trkpt>
      <trkpt lat="43.15798" lon="6.50779">
        <ele>148.5</ele>
        <time>2024-02-04T09:03:24Z</time>
      </trkpt>
      <trkpt lat="43.15797" lon="6.50779">
        <ele>148.4</ele>
        <time>2024-02-04T09:03:25Z</time>
      </trkpt>
      <trkpt lat="43.15797" lon="6.5078">
        <ele>148.3</ele>
        <time>2024-02-04T09:03:26Z</time>
      </trkpt>
      <trkpt lat="43.15796" lon="6.50779">
        <ele>148.1</ele>
        <time>2024-02-04T09:03:27Z</time>
      </trkpt>
      <trkpt lat="43.15796" lon="6.50779">
        <ele>147.9</ele>
        <time>2024-02-04T09:03:28Z</time>
      </trkpt>
      <trkpt lat="43.15796" lon="6.5078">
        <ele>147.8</ele>
        <time>2024-02-04T09:03:29Z</time>
      </trkpt>
      <trkpt lat="43.15796" lon="6.50781">
        <ele>147.6</ele>
        <time>2024-02-04T09:03:30Z</time>
      </trkpt>
      <trkpt lat="43.15796" lon="6.50781">
        <ele>147.5</ele>
        <time>2024-02-04T09:03:31Z</time>
      </trkpt>
      <trkpt lat="43.15796" lon="6.50782">
        <ele>147.3</ele>
        <time>2024-02-04T09:03:32Z</time>
      </trkpt>
      <trkpt lat="43.15796" lon="6.50782">
        <ele>147</ele>
        <time>2024-02-04T09:03:33Z</time>
      </trkpt>
      <trkpt lat="43.15795" lon="6.50783">
        <ele>146.7</ele>
        <time>2024-02-04T09:03:34Z</time>
      </trkpt>
      <trkpt lat="43.15795" lon="6.50783">
        <ele>146.4</ele>
        <time>2024-02-04T09:03:35Z</time>
      </trkpt>
      <trkpt lat="43.15795" lon="6.50784">
        <ele>146.1</ele>
        <time>2024-02-04T09:03:36Z</time>
      </trkpt>
      <trkpt lat="43.15795" lon="6.50784">
        <ele>145.8</ele>
        <time>2024-02-04T09:03:37Z</time>
      </trkpt>
      <trkpt lat="43.15795" lon="6.50784">
        <ele>145.6</ele>
        <time>2024-02-04T09:03:38Z</time>
      </trkpt>
      <trkpt lat="43.15794" lon="6.50784">
        <ele>145.4</ele>
        <time>2024-02-04T09:03:39Z</time>
      </trkpt>
      <trkpt lat="43.15794" lon="6.50785">
        <ele>145.3</ele>
        <time>2024-02-04T09:03:40Z</time>
      </trkpt>
      <trkpt lat="43.15794" lon="6.50785">
        <ele>145</ele>
        <time>2024-02-04T09:03:41Z</time>
      </trkpt>
      <trkpt lat="43.15793" lon="6.50785">
        <ele>144.8</ele>
        <time>2024-02-04T09:03:42Z</time>
      </trkpt>
      <trkpt lat="43.15793" lon="6.50785">
        <ele>144.6</ele>
        <time>2024-02-04T09:03:43Z</time>
      </trkpt>
      <trkpt lat="43.15792" lon="6.50785">
        <ele>144.4</ele>
        <time>2024-02-04T09:03:44Z</time>
      </trkpt>
      <trkpt lat="43.15792" lon="6.50786">
        <ele>144.2</ele>
        <time>2024-02-04T09:03:45Z</time>
      </trkpt>
      <trkpt lat="43.15791" lon="6.50787">
        <ele>144</ele>
        <time>2024-02-04T09:03:46Z</time>
      </trkpt>
      <trkpt lat="43.1579" lon="6.50786">
        <ele>143.7</ele>
        <time>2024-02-04T09:03:47Z</time>
      </trkpt>
      <trkpt lat="43.15789" lon="6.50786">
        <ele>143.4</ele>
        <time>2024-02-04T09:03:48Z</time>
      </trkpt>
      <trkpt lat="43.15789" lon="6.50786">
        <ele>143.2</ele>
        <time>2024-02-04T09:03:49Z</time>
      </trkpt>
      <trkpt lat="43.15788" lon="6.50785">
        <ele>143</ele>
        <time>2024-02-04T09:03:50Z</time>
      </trkpt>
      <trkpt lat="43.15788" lon="6.50785">
        <ele>142.8</ele>
        <time>2024-02-04T09:03:51Z</time>
      </trkpt>
      <trkpt lat="43.15787" lon="6.50785">
        <ele>142.7</ele>
        <time>2024-02-04T09:03:52Z</time>
      </trkpt>
      <trkpt lat="43.15786" lon="6.50785">
        <ele>142.5</ele>
        <time>2024-02-04T09:03:53Z</time>
      </trkpt>
      <trkpt lat="43.15786" lon="6.50784">
        <ele>142.3</ele>
        <time>2024-02-04T09:03:54Z</time>
      </trkpt>
      <trkpt lat="43.15786" lon="6.50784">
        <ele>142.1</ele>
        <time>2024-02-04T09:03:55Z</time>
      </trkpt>
      <trkpt lat="43.15785" lon="6.50783">
        <ele>142.2</ele>
        <time>2024-02-04T09:03:56Z</time>
      </trkpt>
      <trkpt lat="43.15784" lon="6.50782">
        <ele>142.2</ele>
        <time>2024-02-04T09:03:57Z</time>
      </trkpt>
      <trkpt lat="43.15783" lon="6.50782">
        <ele>142.2</ele>
        <time>2024-02-04T09:03:58Z</time>
      </trkpt>
      <trkpt lat="43.15782" lon="6.50782">
        <ele>142.2</ele>
        <time>2024-02-04T09:03:59Z</time>
      </trkpt>
      <trkpt lat="43.15781" lon="6.50782">
        <ele>142.2</ele>
        <time>2024-02-04T09:04:00Z</time>
      </trkpt>
      <trkpt lat="43.15781" lon="6.50782">
        <ele>142.2</ele>
        <time>2024-02-04T09:04:01Z</time>
      </trkpt>
      <trkpt lat="43.1578" lon="6.50781">
        <ele>142.3</ele>
        <time>2024-02-04T09:04:02Z</time>
      </trkpt>
      <trkpt lat="43.15779" lon="6.50781">
        <ele>142.4</ele>
        <time>2024-02-04T09:04:03Z</time>
      </trkpt>
      <trkpt lat="43.15778" lon="6.50781">
        <ele>142.4</ele>
        <time>2024-02-04T09:04:04Z</time>
      </trkpt>
      <trkpt lat="43.15777" lon="6.5078">
        <ele>142.5</ele>
        <time>2024-02-04T09:04:05Z</time>
      </trkpt>
      <trkpt lat="43.15777" lon="6.50779">
        <ele>142.5</ele>
        <time>2024-02-04T09:04:06Z</time>
      </trkpt>
      <trkpt lat="43.15776" lon="6.50779">
        <ele>142.5</ele>
        <time>2024-02-04T09:04:07Z</time>
      </trkpt>
      <trkpt lat="43.15775" lon="6.50779">
        <ele>142.5</ele>
        <time>2024-02-04T09:04:08Z</time>
      </trkpt>
      <trkpt lat="43.15775" lon="6.50778">
        <ele>142.6</ele>
        <time>2024-02-04T09:04:09Z</time>
      </trkpt>
      <trkpt lat="43.15774" lon="6.50778">
        <ele>142.6</ele>
        <time>2024-02-04T09:04:10Z</time>
      </trkpt>
      <trkpt lat="43.15774" lon="6.50778">
        <ele>142.7</ele>
        <time>2024-02-04T09:04:11Z</time>
      </trkpt>
      <trkpt lat="43.15774" lon="6.50778">
        <ele>142.7</ele>
        <time>2024-02-04T09:04:12Z</time>
      </trkpt>
      <trkpt lat="43.15773" lon="6.50777">
        <ele>142.7</ele>
        <time>2024-02-04T09:04:13Z</time>
      </trkpt>
      <trkpt lat="43.15773" lon="6.50778">
        <ele>142.8</ele>
        <time>2024-02-04T09:04:14Z</time>
      </trkpt>
      <trkpt lat="43.15773" lon="6.50778">
        <ele>142.8</ele>
        <time>2024-02-04T09:04:15Z</time>
      </trkpt>
      <trkpt lat="43.15773" lon="6.50778">
        <ele>142.8</ele>
        <time>2024-02-04T09:04:16Z</time>
      </trkpt>
      <trkpt lat="43.15773" lon="6.50778">
        <ele>142.9</ele>
        <time>2024-02-04T09:04:17Z</time>
      </trkpt>
      <trkpt lat="43.15773" lon="6.50778">
        <ele>143</ele>
        <time>2024-02-04T09:04:18Z</time>
      </trkpt>
      <trkpt lat="43.15773" lon="6.50777">
        <ele>142.9</ele>
        <time>2024-02-04T09:04:19Z</time>
      </trkpt>
      <trkpt lat="43.15773" lon="6.50777">
        <ele>143</ele>
        <time>2024-02-04T09:04:20Z</time>
      </trkpt>
      <trkpt lat="43.15773" lon="6.50776">
        <ele>143</ele>
        <time>2024-02-04T09:04:21Z</time>
      </trkpt>
      <trkpt lat="43.15772" lon="6.50776">
        <ele>143</ele>
        <time>2024-02-04T09:04:22Z</time>
      </trkpt>
      <trkpt lat="43.15772" lon="6.50775">
        <ele>143.1</ele>
        <time>2024-02-04T09:04:23Z</time>
      </trkpt>
      <trkpt lat="43.15771" lon="6.50775">
        <ele>143.1</ele>
        <time>2024-02-04T09:04:24Z</time>
      </trkpt>
      <trkpt lat="43.15771" lon="6.50774">
        <ele>143.2</ele>
        <time>2024-02-04T09:04:25Z</time>
      </trkpt>
      <trkpt lat="43.1577" lon="6.50774">
        <ele>143.2</ele>
        <time>2024-02-04T09:04:26Z</time>
      </trkpt>
      <trkpt lat="43.1577" lon="6.50775">
        <ele>143.2</ele>
        <time>2024-02-04T09:04:27Z</time>
      </trkpt>
      <trkpt lat="43.15769" lon="6.50775">
        <ele>143</ele>
        <time>2024-02-04T09:04:28Z</time>
      </trkpt>
      <trkpt lat="43.15769" lon="6.50775">
        <ele>143</ele>
        <time>2024-02-04T09:04:29Z</time>
      </trkpt>
      <trkpt lat="43.15769" lon="6.50776">
        <ele>143</ele>
        <time>2024-02-04T09:04:30Z</time>
      </trkpt>
      <trkpt lat="43.15769" lon="6.50777">
        <ele>142.9</ele>
        <time>2024-02-04T09:04:31Z</time>
      </trkpt>
      <trkpt lat="43.15768" lon="6.50778">
        <ele>142.8</ele>
        <time>2024-02-04T09:04:32Z</time>
      </trkpt>
      <trkpt lat="43.15768" lon="6.50778">
        <ele>142.7</ele>
        <time>2024-02-04T09:04:33Z</time>
      </trkpt>
      <trkpt lat="43.15767" lon="6.50778">
        <ele>142.4</ele>
        <time>2024-02-04T09:04:34Z</time>
      </trkpt>
      <trkpt lat="43.15767" lon="6.50778">
        <ele>142.3</ele>
        <time>2024-02-04T09:04:35Z</time>
      </trkpt>
      <trkpt lat="43.15766" lon="6.50778">
        <ele>142.1</ele>
        <time>2024-02-04T09:04:36Z</time>
      </trkpt>
      <trkpt lat="43.15765" lon="6.50778">
        <ele>141.9</ele>
        <time>2024-02-04T09:04:37Z</time>
      </trkpt>
      <trkpt lat="43.15764" lon="6.50779">
        <ele>141.8</ele>
        <time>2024-02-04T09:04:38Z</time>
      </trkpt>
      <trkpt lat="43.15764" lon="6.5078">
        <ele>141.5</ele>
        <time>2024-02-04T09:04:39Z</time>
      </trkpt>
      <trkpt lat="43.15763" lon="6.50781">
        <ele>141.3</ele>
        <time>2024-02-04T09:04:40Z</time>
      </trkpt>
      <trkpt lat="43.15763" lon="6.50781">
        <ele>141.1</ele>
        <time>2024-02-04T09:04:41Z</time>
      </trkpt>
      <trkpt lat="43.15762" lon="6.50782">
        <ele>140.9</ele>
        <time>2024-02-04T09:04:42Z</time>
      </trkpt>
      <trkpt lat="43.15762" lon="6.50783">
        <ele>140.7</ele>
        <time>2024-02-04T09:04:43Z</time>
      </trkpt>
      <trkpt lat="43.15762" lon="6.50783">
        <ele>140.4</ele>
        <time>2024-02-04T09:04:44Z</time>
      </trkpt>
      <trkpt lat="43.15761" lon="6.50783">
        <ele>140.2</ele>
        <time>2024-02-04T09:04:45Z</time>
      </trkpt>
      <trkpt lat="43.15761" lon="6.50783">
        <ele>140.1</ele>
        <time>2024-02-04T09:04:46Z</time>
      </trkpt>
      <trkpt lat="43.15761" lon="6.50783">
        <ele>139.9</ele>
        <time>2024-02-04T09:04:47Z</time>
      </trkpt>
      <trkpt lat="43.15761" lon="6.50783">
        <ele>139.9</ele>
        <time>2024-02-04T09:04:48Z</time>
      </trkpt>
      <trkpt lat="43.15761" lon="6.50783">
        <ele>139.8</ele>
        <time>2024-02-04T09:04:49Z</time>
      </trkpt>
      <trkpt lat="43.15761" lon="6.50783">
        <ele>139.7</ele>
        <time>2024-02-04T09:04:50Z</time>
      </trkpt>
      <trkpt lat="43.1576" lon="6.50783">
        <ele>139.6</ele>
        <time>2024-02-04T09:04:51Z</time>
      </trkpt>
      <trkpt lat="43.1576" lon="6.50783">
        <ele>139.5</ele>
        <time>2024-02-04T09:04:52Z</time>
      </trkpt>
      <trkpt lat="43.1576" lon="6.50784">
        <ele>139.5</ele>
        <time>2024-02-04T09:04:53Z</time>
      </trkpt>
      <trkpt lat="43.1576" lon="6.50784">
        <ele>139.6</ele>
        <time>2024-02-04T09:04:54Z</time>
      </trkpt>
      <trkpt lat="43.1576" lon="6.50784">
        <ele>139.6</ele>
        <time>2024-02-04T09:04:55Z</time>
      </trkpt>
      <trkpt lat="43.1576" lon="6.50784">
        <ele>139.4</ele>
        <time>2024-02-04T09:04:56Z</time>
      </trkpt>
      <trkpt lat="43.1576" lon="6.50784">
        <ele>139.4</ele>
        <time>2024-02-04T09:04:57Z</time>
      </trkpt>
      <trkpt lat="43.1576" lon="6.50784">
        <ele>139.4</ele>
        <time>2024-02-04T09:04:58Z</time>
      </trkpt>
      <trkpt lat="43.1576" lon="6.50784">
        <ele>139.4</ele>
        <time>2024-02-04T09:04:59Z</time>
      </trkpt>
      <trkpt lat="43.1576" lon="6.50784">
        <ele>139.5</ele>
        <time>2024-02-04T09:05:00Z</time>
      </trkpt>
      <trkpt lat="43.1576" lon="6.50784">
        <ele>139.6</ele>
        <time>2024-02-04T09:05:01Z</time>
      </trkpt>
      <trkpt lat="43.1576" lon="6.50784">
        <ele>139.6</ele>
        <time>2024-02-04T09:05:02Z</time>
      </trkpt>
      <trkpt lat="43.1576" lon="6.50784">
        <ele>139.6</ele>
        <time>2024-02-04T09:05:03Z</time>
      </trkpt>
      <trkpt lat="43.1576" lon="6.50784">
        <ele>139.5</ele>
        <time>2024-02-04T09:05:04Z</time>
      </trkpt>
      <trkpt lat="43.1576" lon="6.50784">
        <ele>139.5</ele>
        <time>2024-02-04T09:05:05Z</time>
      </trkpt>
      <trkpt lat="43.1576" lon="6.50784">
        <ele>139.4</ele>
        <time>2024-02-04T09:05:06Z</time>
      </trkpt>
      <trkpt lat="43.1576" lon="6.50784">
        <ele>139.4</ele>
        <time>2024-02-04T09:05:07Z</time>
      </trkpt>
      <trkpt lat="43.1576" lon="6.50784">
        <ele>139.3</ele>
        <time>2024-02-04T09:05:08Z</time>
      </trkpt>
      <trkpt lat="43.1576" lon="6.50784">
        <ele>139.3</ele>
        <time>2024-02-04T09:05:09Z</time>
      </trkpt>
      <trkpt lat="43.1576" lon="6.50784">
        <ele>139.4</ele>
        <time>2024-02-04T09:05:10Z</time>
      </trkpt>
      <trkpt lat="43.1576" lon="6.50784">
        <ele>139.4</ele>
        <time>2024-02-04T09:05:11Z</time>
      </trkpt>
      <trkpt lat="43.1576" lon="6.50784">
        <ele>139.5</ele>
        <time>2024-02-04T09:05:12Z</time>
      </trkpt>
      <trkpt lat="43.1576" lon="6.50784">
        <ele>139.4</ele>
        <time>2024-02-04T09:05:13Z</time>
      </trkpt>
      <trkpt lat="43.1576" lon="6.50784">
        <ele>139.5</ele>
        <time>2024-02-04T09:05:14Z</time>
      </trkpt>
      <trkpt lat="43.15761" lon="6.50784">
        <ele>139.6</ele>
        <time>2024-02-04T09:05:15Z</time>
      </trkpt>
      <trkpt lat="43.1576" lon="6.50784">
        <ele>139.6</ele>
        <time>2024-02-04T09:05:16Z</time>
      </trkpt>
      <trkpt lat="43.1576" lon="6.50784">
        <ele>139.6</ele>
        <time>2024-02-04T09:05:17Z</time>
      </trkpt>
      <trkpt lat="43.1576" lon="6.50784">
        <ele>139.6</ele>
        <time>2024-02-04T09:05:18Z</time>
      </trkpt>
      <trkpt lat="43.1576" lon="6.50784">
        <ele>139.6</ele>
        <time>2024-02-04T09:05:19Z</time>
      </trkpt>
      <trkpt lat="43.1576" lon="6.50784">
        <ele>139.5</ele>
        <time>2024-02-04T09:05:20Z</time>
      </trkpt>
      <trkpt lat="43.1576" lon="6.50784">
        <ele>139.5</ele>
        <time>2024-02-04T09:05:21Z</time>
      </trkpt>
      <trkpt lat="43.1576" lon="6.50784">
        <ele>139.5</ele>
        <time>2024-02-04T09:05:22Z</time>
      </trkpt>
      <trkpt lat="43.1576" lon="6.50784">
        <ele>139.5</ele>
        <time>2024-02-04T09:05:23Z</time>
      </trkpt>
      <trkpt lat="43.1576" lon="6.50784">
        <ele>139.5</ele>
        <time>2024-02-04T09:05:24Z</time>
      </trkpt>
      <trkpt lat="43.1576" lon="6.50784">
        <ele>139.5</ele>
        <time>2024-02-04T09:05:25Z</time>
      </trkpt>
      <trkpt lat="43.1576" lon="6.50784">
        <ele>139.5</ele>
        <time>2024-02-04T09:05:26Z</time>
      </trkpt>
      <trkpt lat="43.1576" lon="6.50784">
        <ele>139.5</ele>
        <time>2024-02-04T09:05:27Z</time>
      </trkpt>
      <trkpt lat="43.1576" lon="6.50784">
        <ele>139.5</ele>
        <time>2024-02-04T09:05:28Z</time>
      </trkpt>
      <trkpt lat="43.1576" lon="6.50784">
        <ele>139.5</ele>
        <time>2024-02-04T09:05:29Z</time>
      </trkpt>
      <trkpt lat="43.1576" lon="6.50783">
        <ele>139.5</ele>
        <time>2024-02-04T09:05:30Z</time>
      </trkpt>
      <trkpt lat="43.1576" lon="6.50783">
        <ele>139.4</ele>
        <time>2024-02-04T09:05:31Z</time>
      </trkpt>
      <trkpt lat="43.1576" lon="6.50783">
        <ele>139.4</ele>
        <time>2024-02-04T09:05:32Z</time>
      </trkpt>
      <trkpt lat="43.1576" lon="6.50783">
        <ele>139.4</ele>
        <time>2024-02-04T09:05:33Z</time>
      </trkpt>
      <trkpt lat="43.1576" lon="6.50783">
        <ele>139.5</ele>
        <time>2024-02-04T09:05:34Z</time>
      </trkpt>
      <trkpt lat="43.1576" lon="6.50783">
        <ele>139.5</ele>
        <time>2024-02-04T09:05:35Z</time>
      </trkpt>
      <trkpt lat="43.1576" lon="6.50783">
        <ele>139.6</ele>
        <time>2024-02-04T09:05:36Z</time>
      </trkpt>
      <trkpt lat="43.1576" lon="6.50783">
        <ele>139.7</ele>
        <time>2024-02-04T09:05:37Z</time>
      </trkpt>
      <trkpt lat="43.1576" lon="6.50783">
        <ele>139.8</ele>
        <time>2024-02-04T09:05:38Z</time>
      </trkpt>
      <trkpt lat="43.1576" lon="6.50783">
        <ele>139.8</ele>
        <time>2024-02-04T09:05:39Z</time>
      </trkpt>
      <trkpt lat="43.1576" lon="6.50783">
        <ele>139.7</ele>
        <time>2024-02-04T09:05:40Z</time>
      </trkpt>
      <trkpt lat="43.1576" lon="6.50783">
        <ele>139.7</ele>
        <time>2024-02-04T09:05:41Z</time>
      </trkpt>
      <trkpt lat="43.1576" lon="6.50783">
        <ele>139.7</ele>
        <time>2024-02-04T09:05:42Z</time>
      </trkpt>
      <trkpt lat="43.1576" lon="6.50783">
        <ele>139.7</ele>
        <time>2024-02-04T09:05:43Z</time>
      </trkpt>
      <trkpt lat="43.1576" lon="6.50783">
        <ele>139.8</ele>
        <time>2024-02-04T09:05:44Z</time>
      </trkpt>
      <trkpt lat="43.15759" lon="6.50783">
        <ele>139.9</ele>
        <time>2024-02-04T09:05:45Z</time>
      </trkpt>
      <trkpt lat="43.15759" lon="6.50783">
        <ele>139.9</ele>
        <time>2024-02-04T09:05:46Z</time>
      </trkpt>
      <trkpt lat="43.15759" lon="6.50783">
        <ele>139.9</ele>
        <time>2024-02-04T09:05:47Z</time>
      </trkpt>
      <trkpt lat="43.15759" lon="6.50783">
        <ele>139.9</ele>
        <time>2024-02-04T09:05:48Z</time>
      </trkpt>
      <trkpt lat="43.15759" lon="6.50783">
        <ele>139.9</ele>
        <time>2024-02-04T09:05:49Z</time>
      </trkpt>
      <trkpt lat="43.15759" lon="6.50783">
        <ele>139.9</ele>
        <time>2024-02-04T09:05:50Z</time>
      </trkpt>
      <trkpt lat="43.15759" lon="6.50783">
        <ele>139.9</ele>
        <time>2024-02-04T09:05:51Z</time>
      </trkpt>
      <trkpt lat="43.15759" lon="6.50783">
        <ele>139.9</ele>
        <time>2024-02-04T09:05:52Z</time>
      </trkpt>
      <trkpt lat="43.15759" lon="6.50783">
        <ele>139.9</ele>
        <time>2024-02-04T09:05:53Z</time>
      </trkpt>
      <trkpt lat="43.15759" lon="6.50783">
        <ele>139.9</ele>
        <time>2024-02-04T09:05:54Z</time>
      </trkpt>
      <trkpt lat="43.15759" lon="6.50783">
        <ele>139.9</ele>
        <time>2024-02-04T09:05:55Z</time>
      </trkpt>
      <trkpt lat="43.15759" lon="6.50783">
        <ele>139.9</ele>
        <time>2024-02-04T09:05:56Z</time>
      </trkpt>
      <trkpt lat="43.15759" lon="6.50783">
        <ele>139.7</ele>
        <time>2024-02-04T09:05:57Z</time>
      </trkpt>
      <trkpt lat="43.15759" lon="6.50783">
        <ele>139.7</ele>
        <time>2024-02-04T09:05:58Z</time>
      </trkpt>
      <trkpt lat="43.15759" lon="6.50783">
        <ele>139.8</ele>
        <time>2024-02-04T09:05:59Z</time>
      </trkpt>
      <trkpt lat="43.15759" lon="6.50783">
        <ele>139.8</ele>
        <time>2024-02-04T09:06:00Z</time>
      </trkpt>
      <trkpt lat="43.15759" lon="6.50783">
        <ele>139.8</ele>
        <time>2024-02-04T09:06:01Z</time>
      </trkpt>
      <trkpt lat="43.15759" lon="6.50783">
        <ele>139.7</ele>
        <time>2024-02-04T09:06:02Z</time>
      </trkpt>
      <trkpt lat="43.15759" lon="6.50783">
        <ele>139.7</ele>
        <time>2024-02-04T09:06:03Z</time>
      </trkpt>
      <trkpt lat="43.15759" lon="6.50783">
        <ele>139.7</ele>
        <time>2024-02-04T09:06:04Z</time>
      </trkpt>
      <trkpt lat="43.15759" lon="6.50783">
        <ele>139.6</ele>
        <time>2024-02-04T09:06:05Z</time>
      </trkpt>
      <trkpt lat="43.15759" lon="6.50783">
        <ele>139.6</ele>
        <time>2024-02-04T09:06:06Z</time>
      </trkpt>
      <trkpt lat="43.15759" lon="6.50784">
        <ele>139.6</ele>
        <time>2024-02-04T09:06:07Z</time>
      </trkpt>
      <trkpt lat="43.15759" lon="6.50784">
        <ele>139.6</ele>
        <time>2024-02-04T09:06:08Z</time>
      </trkpt>
      <trkpt lat="43.15759" lon="6.50784">
        <ele>139.6</ele>
        <time>2024-02-04T09:06:09Z</time>
      </trkpt>
      <trkpt lat="43.15759" lon="6.50784">
        <ele>139.5</ele>
        <time>2024-02-04T09:06:10Z</time>
      </trkpt>
      <trkpt lat="43.15759" lon="6.50784">
        <ele>139.5</ele>
        <time>2024-02-04T09:06:11Z</time>
      </trkpt>
      <trkpt lat="43.15759" lon="6.50785">
        <ele>139.5</ele>
        <time>2024-02-04T09:06:12Z</time>
      </trkpt>
      <trkpt lat="43.1576" lon="6.50784">
        <ele>139.4</ele>
        <time>2024-02-04T09:06:13Z</time>
      </trkpt>
      <trkpt lat="43.1576" lon="6.50784">
        <ele>139.4</ele>
        <time>2024-02-04T09:06:14Z</time>
      </trkpt>
      <trkpt lat="43.1576" lon="6.50783">
        <ele>139.4</ele>
        <time>2024-02-04T09:06:15Z</time>
      </trkpt>
      <trkpt lat="43.1576" lon="6.50783">
        <ele>139.4</ele>
        <time>2024-02-04T09:06:16Z</time>
      </trkpt>
      <trkpt lat="43.1576" lon="6.50783">
        <ele>139.5</ele>
        <time>2024-02-04T09:06:17Z</time>
      </trkpt>
      <trkpt lat="43.15761" lon="6.50782">
        <ele>139.5</ele>
        <time>2024-02-04T09:06:18Z</time>
      </trkpt>
      <trkpt lat="43.15761" lon="6.50782">
        <ele>139.6</ele>
        <time>2024-02-04T09:06:19Z</time>
      </trkpt>
      <trkpt lat="43.15761" lon="6.50782">
        <ele>139.7</ele>
        <time>2024-02-04T09:06:20Z</time>
      </trkpt>
      <trkpt lat="43.15761" lon="6.50783">
        <ele>139.7</ele>
        <time>2024-02-04T09:06:21Z</time>
      </trkpt>
      <trkpt lat="43.1576" lon="6.50783">
        <ele>139.8</ele>
        <time>2024-02-04T09:06:22Z</time>
      </trkpt>
      <trkpt lat="43.1576" lon="6.50783">
        <ele>139.8</ele>
        <time>2024-02-04T09:06:23Z</time>
      </trkpt>
      <trkpt lat="43.1576" lon="6.50783">
        <ele>139.9</ele>
        <time>2024-02-04T09:06:24Z</time>
      </trkpt>
      <trkpt lat="43.1576" lon="6.50783">
        <ele>139.9</ele>
        <time>2024-02-04T09:06:25Z</time>
      </trkpt>
      <trkpt lat="43.1576" lon="6.50783">
        <ele>139.9</ele>
        <time>2024-02-04T09:06:26Z</time>
      </trkpt>
      <trkpt lat="43.1576" lon="6.50783">
        <ele>139.9</ele>
        <time>2024-02-04T09:06:27Z</time>
      </trkpt>
      <trkpt lat="43.1576" lon="6.50783">
        <ele>140</ele>
        <time>2024-02-04T09:06:28Z</time>
      </trkpt>
      <trkpt lat="43.1576" lon="6.50783">
        <ele>140</ele>
        <time>2024-02-04T09:06:29Z</time>
      </trkpt>
      <trkpt lat="43.1576" lon="6.50783">
        <ele>140</ele>
        <time>2024-02-04T09:06:30Z</time>
      </trkpt>
      <trkpt lat="43.1576" lon="6.50783">
        <ele>140</ele>
        <time>2024-02-04T09:06:31Z</time>
      </trkpt>
      <trkpt lat="43.1576" lon="6.50783">
        <ele>140</ele>
        <time>2024-02-04T09:06:32Z</time>
      </trkpt>
      <trkpt lat="43.1576" lon="6.50783">
        <ele>140.2</ele>
        <time>2024-02-04T09:06:33Z</time>
      </trkpt>
      <trkpt lat="43.1576" lon="6.50783">
        <ele>140.3</ele>
        <time>2024-02-04T09:06:34Z</time>
      </trkpt>
      <trkpt lat="43.1576" lon="6.50783">
        <ele>140.4</ele>
        <time>2024-02-04T09:06:35Z</time>
      </trkpt>
      <trkpt lat="43.15759" lon="6.50783">
        <ele>140.3</ele>
        <time>2024-02-04T09:06:36Z</time>
      </trkpt>
      <trkpt lat="43.1576" lon="6.50783">
        <ele>140.3</ele>
        <time>2024-02-04T09:06:37Z</time>
      </trkpt>
      <trkpt lat="43.1576" lon="6.50783">
        <ele>140.3</ele>
        <time>2024-02-04T09:06:38Z</time>
      </trkpt>
      <trkpt lat="43.1576" lon="6.50782">
        <ele>140.3</ele>
        <time>2024-02-04T09:06:39Z</time>
      </trkpt>
      <trkpt lat="43.1576" lon="6.50782">
        <ele>140.2</ele>
        <time>2024-02-04T09:06:40Z</time>
      </trkpt>
      <trkpt lat="43.1576" lon="6.50782">
        <ele>140.2</ele>
        <time>2024-02-04T09:06:41Z</time>
      </trkpt>
      <trkpt lat="43.1576" lon="6.50782">
        <ele>140.2</ele>
        <time>2024-02-04T09:06:42Z</time>
      </trkpt>
      <trkpt lat="43.15759" lon="6.50783">
        <ele>140.2</ele>
        <time>2024-02-04T09:06:43Z</time>
      </trkpt>
      <trkpt lat="43.15759" lon="6.50783">
        <ele>140.2</ele>
        <time>2024-02-04T09:06:44Z</time>
      </trkpt>
      <trkpt lat="43.15759" lon="6.50783">
        <ele>140.2</ele>
        <time>2024-02-04T09:06:45Z</time>
      </trkpt>
      <trkpt lat="43.15759" lon="6.50783">
        <ele>140.2</ele>
        <time>2024-02-04T09:06:46Z</time>
      </trkpt>
      <trkpt lat="43.15759" lon="6.50783">
        <ele>140.1</ele>
        <time>2024-02-04T09:06:47Z</time>
      </trkpt>
      <trkpt lat="43.15759" lon="6.50783">
        <ele>140.1</ele>
        <time>2024-02-04T09:06:48Z</time>
      </trkpt>
      <trkpt lat="43.15759" lon="6.50783">
        <ele>140.1</ele>
        <time>2024-02-04T09:06:49Z</time>
      </trkpt>
      <trkpt lat="43.15759" lon="6.50783">
        <ele>140</ele>
        <time>2024-02-04T09:06:50Z</time>
      </trkpt>
      <trkpt lat="43.15759" lon="6.50783">
        <ele>140</ele>
        <time>2024-02-04T09:06:51Z</time>
      </trkpt>
      <trkpt lat="43.15759" lon="6.50782">
        <ele>140</ele>
        <time>2024-02-04T09:06:52Z</time>
      </trkpt>
      <trkpt lat="43.15759" lon="6.50782">
        <ele>140</ele>
        <time>2024-02-04T09:06:53Z</time>
      </trkpt>
      <trkpt lat="43.15759" lon="6.50782">
        <ele>140</ele>
        <time>2024-02-04T09:06:54Z</time>
      </trkpt>
      <trkpt lat="43.15759" lon="6.50782">
        <ele>139.8</ele>
        <time>2024-02-04T09:06:55Z</time>
      </trkpt>
      <trkpt lat="43.15759" lon="6.50782">
        <ele>139.8</ele>
        <time>2024-02-04T09:06:56Z</time>
      </trkpt>
      <trkpt lat="43.15759" lon="6.50782">
        <ele>139.8</ele>
        <time>2024-02-04T09:06:57Z</time>
      </trkpt>
      <trkpt lat="43.15759" lon="6.50782">
        <ele>139.8</ele>
        <time>2024-02-04T09:06:58Z</time>
      </trkpt>
      <trkpt lat="43.15759" lon="6.50782">
        <ele>139.8</ele>
        <time>2024-02-04T09:06:59Z</time>
      </trkpt>
      <trkpt lat="43.15759" lon="6.50782">
        <ele>139.8</ele>
        <time>2024-02-04T09:07:00Z</time>
      </trkpt>
      <trkpt lat="43.15759" lon="6.50783">
        <ele>139.9</ele>
        <time>2024-02-04T09:07:01Z</time>
      </trkpt>
      <trkpt lat="43.15759" lon="6.50783">
        <ele>139.9</ele>
        <time>2024-02-04T09:07:02Z</time>
      </trkpt>
      <trkpt lat="43.15759" lon="6.50783">
        <ele>139.9</ele>
        <time>2024-02-04T09:07:03Z</time>
      </trkpt>
      <trkpt lat="43.15759" lon="6.50783">
        <ele>139.9</ele>
        <time>2024-02-04T09:07:04Z</time>
      </trkpt>
      <trkpt lat="43.15759" lon="6.50783">
        <ele>139.9</ele>
        <time>2024-02-04T09:07:05Z</time>
      </trkpt>
      <trkpt lat="43.15759" lon="6.50783">
        <ele>139.9</ele>
        <time>2024-02-04T09:07:06Z</time>
      </trkpt>
      <trkpt lat="43.15759" lon="6.50783">
        <ele>139.8</ele>
        <time>2024-02-04T09:07:07Z</time>
      </trkpt>
      <trkpt lat="43.15759" lon="6.50783">
        <ele>139.8</ele>
        <time>2024-02-04T09:07:08Z</time>
      </trkpt>
      <trkpt lat="43.15759" lon="6.50782">
        <ele>139.8</ele>
        <time>2024-02-04T09:07:09Z</time>
      </trkpt>
      <trkpt lat="43.15759" lon="6.50782">
        <ele>139.8</ele>
        <time>2024-02-04T09:07:10Z</time>
      </trkpt>
      <trkpt lat="43.15759" lon="6.50782">
        <ele>139.8</ele>
        <time>2024-02-04T09:07:11Z</time>
      </trkpt>
      <trkpt lat="43.15759" lon="6.50782">
        <ele>139.8</ele>
        <time>2024-02-04T09:07:12Z</time>
      </trkpt>
      <trkpt lat="43.15759" lon="6.50782">
        <ele>139.8</ele>
        <time>2024-02-04T09:07:13Z</time>
      </trkpt>
      <trkpt lat="43.15759" lon="6.50782">
        <ele>139.8</ele>
        <time>2024-02-04T09:07:14Z</time>
      </trkpt>
      <trkpt lat="43.15759" lon="6.50782">
        <ele>139.7</ele>
        <time>2024-02-04T09:07:15Z</time>
      </trkpt>
      <trkpt lat="43.15759" lon="6.50782">
        <ele>139.7</ele>
        <time>2024-02-04T09:07:16Z</time>
      </trkpt>
      <trkpt lat="43.15759" lon="6.50782">
        <ele>139.6</ele>
        <time>2024-02-04T09:07:17Z</time>
      </trkpt>
      <trkpt lat="43.15759" lon="6.50782">
        <ele>139.6</ele>
        <time>2024-02-04T09:07:18Z</time>
      </trkpt>
      <trkpt lat="43.15759" lon="6.50782">
        <ele>139.6</ele>
        <time>2024-02-04T09:07:19Z</time>
      </trkpt>
      <trkpt lat="43.15759" lon="6.50782">
        <ele>139.7</ele>
        <time>2024-02-04T09:07:20Z</time>
      </trkpt>
      <trkpt lat="43.15759" lon="6.50782">
        <ele>139.8</ele>
        <time>2024-02-04T09:07:21Z</time>
      </trkpt>
      <trkpt lat="43.1576" lon="6.50782">
        <ele>139.9</ele>
        <time>2024-02-04T09:07:22Z</time>
      </trkpt>
      <trkpt lat="43.15761" lon="6.50781">
        <ele>139.9</ele>
        <time>2024-02-04T09:07:23Z</time>
      </trkpt>
      <trkpt lat="43.15762" lon="6.50781">
        <ele>140.1</ele>
        <time>2024-02-04T09:07:24Z</time>
      </trkpt>
      <trkpt lat="43.15763" lon="6.50781">
        <ele>140.3</ele>
        <time>2024-02-04T09:07:25Z</time>
      </trkpt>
      <trkpt lat="43.15763" lon="6.5078">
        <ele>140.5</ele>
        <time>2024-02-04T09:07:26Z</time>
      </trkpt>
      <trkpt lat="43.15764" lon="6.50779">
        <ele>140.7</ele>
        <time>2024-02-04T09:07:27Z</time>
      </trkpt>
      <trkpt lat="43.15764" lon="6.50778">
        <ele>140.9</ele>
        <time>2024-02-04T09:07:28Z</time>
      </trkpt>
      <trkpt lat="43.15763" lon="6.50777">
        <ele>141.2</ele>
        <time>2024-02-04T09:07:29Z</time>
      </trkpt>
      <trkpt lat="43.15763" lon="6.50776">
        <ele>141.3</ele>
        <time>2024-02-04T09:07:30Z</time>
      </trkpt>
      <trkpt lat="43.15763" lon="6.50776">
        <ele>141.5</ele>
        <time>2024-02-04T09:07:31Z</time>
      </trkpt>
      <trkpt lat="43.15763" lon="6.50775">
        <ele>141.7</ele>
        <time>2024-02-04T09:07:32Z</time>
      </trkpt>
      <trkpt lat="43.15763" lon="6.50775">
        <ele>141.8</ele>
        <time>2024-02-04T09:07:33Z</time>
      </trkpt>
      <trkpt lat="43.15763" lon="6.50775">
        <ele>141.8</ele>
        <time>2024-02-04T09:07:34Z</time>
      </trkpt>
      <trkpt lat="43.15763" lon="6.50775">
        <ele>141.9</ele>
        <time>2024-02-04T09:07:35Z</time>
      </trkpt>
      <trkpt lat="43.15763" lon="6.50775">
        <ele>142</ele>
        <time>2024-02-04T09:07:36Z</time>
      </trkpt>
      <trkpt lat="43.15763" lon="6.50775">
        <ele>142</ele>
        <time>2024-02-04T09:07:37Z</time>
      </trkpt>
      <trkpt lat="43.15763" lon="6.50775">
        <ele>142</ele>
        <time>2024-02-04T09:07:38Z</time>
      </trkpt>
      <trkpt lat="43.15763" lon="6.50775">
        <ele>142</ele>
        <time>2024-02-04T09:07:39Z</time>
      </trkpt>
      <trkpt lat="43.15763" lon="6.50775">
        <ele>142</ele>
        <time>2024-02-04T09:07:40Z</time>
      </trkpt>
      <trkpt lat="43.15763" lon="6.50775">
        <ele>142</ele>
        <time>2024-02-04T09:07:41Z</time>
      </trkpt>
      <trkpt lat="43.15763" lon="6.50775">
        <ele>142</ele>
        <time>2024-02-04T09:07:42Z</time>
      </trkpt>
      <trkpt lat="43.15763" lon="6.50775">
        <ele>141.9</ele>
        <time>2024-02-04T09:07:43Z</time>
      </trkpt>
      <trkpt lat="43.15763" lon="6.50774">
        <ele>141.9</ele>
        <time>2024-02-04T09:07:44Z</time>
      </trkpt>
      <trkpt lat="43.15763" lon="6.50774">
        <ele>142</ele>
        <time>2024-02-04T09:07:45Z</time>
      </trkpt>
      <trkpt lat="43.15763" lon="6.50774">
        <ele>142</ele>
        <time>2024-02-04T09:07:46Z</time>
      </trkpt>
      <trkpt lat="43.15763" lon="6.50774">
        <ele>142</ele>
        <time>2024-02-04T09:07:47Z</time>
      </trkpt>
      <trkpt lat="43.15763" lon="6.50773">
        <ele>142</ele>
        <time>2024-02-04T09:07:48Z</time>
      </trkpt>
      <trkpt lat="43.15763" lon="6.50773">
        <ele>142</ele>
        <time>2024-02-04T09:07:49Z</time>
      </trkpt>
      <trkpt lat="43.15763" lon="6.50772">
        <ele>142</ele>
        <time>2024-02-04T09:07:50Z</time>
      </trkpt>
      <trkpt lat="43.15762" lon="6.50771">
        <ele>142.1</ele>
        <time>2024-02-04T09:07:51Z</time>
      </trkpt>
      <trkpt lat="43.15762" lon="6.5077">
        <ele>142.2</ele>
        <time>2024-02-04T09:07:52Z</time>
      </trkpt>
      <trkpt lat="43.15761" lon="6.5077">
        <ele>142.2</ele>
        <time>2024-02-04T09:07:53Z</time>
      </trkpt>
      <trkpt lat="43.15761" lon="6.50769">
        <ele>142.1</ele>
        <time>2024-02-04T09:07:54Z</time>
      </trkpt>
      <trkpt lat="43.15761" lon="6.50768">
        <ele>142.1</ele>
        <time>2024-02-04T09:07:55Z</time>
      </trkpt>
      <trkpt lat="43.15761" lon="6.50767">
        <ele>142.1</ele>
        <time>2024-02-04T09:07:56Z</time>
      </trkpt>
      <trkpt lat="43.1576" lon="6.50767">
        <ele>142.2</ele>
        <time>2024-02-04T09:07:57Z</time>
      </trkpt>
      <trkpt lat="43.1576" lon="6.50767">
        <ele>142.3</ele>
        <time>2024-02-04T09:07:58Z</time>
      </trkpt>
      <trkpt lat="43.15759" lon="6.50767">
        <ele>142.2</ele>
        <time>2024-02-04T09:07:59Z</time>
      </trkpt>
      <trkpt lat="43.15758" lon="6.50766">
        <ele>142.1</ele>
        <time>2024-02-04T09:08:00Z</time>
      </trkpt>
      <trkpt lat="43.15758" lon="6.50765">
        <ele>142</ele>
        <time>2024-02-04T09:08:01Z</time>
      </trkpt>
      <trkpt lat="43.15758" lon="6.50764">
        <ele>141.9</ele>
        <time>2024-02-04T09:08:02Z</time>
      </trkpt>
      <trkpt lat="43.15757" lon="6.50763">
        <ele>141.8</ele>
        <time>2024-02-04T09:08:03Z</time>
      </trkpt>
      <trkpt lat="43.15757" lon="6.50763">
        <ele>141.7</ele>
        <time>2024-02-04T09:08:04Z</time>
      </trkpt>
      <trkpt lat="43.15756" lon="6.50763">
        <ele>141.6</ele>
        <time>2024-02-04T09:08:05Z</time>
      </trkpt>
      <trkpt lat="43.15756" lon="6.50763">
        <ele>141.5</ele>
        <time>2024-02-04T09:08:06Z</time>
      </trkpt>
      <trkpt lat="43.15755" lon="6.50762">
        <ele>141.4</ele>
        <time>2024-02-04T09:08:07Z</time>
      </trkpt>
      <trkpt lat="43.15754" lon="6.50762">
        <ele>141.2</ele>
        <time>2024-02-04T09:08:08Z</time>
      </trkpt>
      <trkpt lat="43.15753" lon="6.50761">
        <ele>141.1</ele>
        <time>2024-02-04T09:08:09Z</time>
      </trkpt>
      <trkpt lat="43.15752" lon="6.5076">
        <ele>140.8</ele>
        <time>2024-02-04T09:08:10Z</time>
      </trkpt>
      <trkpt lat="43.15751" lon="6.50759">
        <ele>140.7</ele>
        <time>2024-02-04T09:08:11Z</time>
      </trkpt>
      <trkpt lat="43.15751" lon="6.50759">
        <ele>140.6</ele>
        <time>2024-02-04T09:08:12Z</time>
      </trkpt>
      <trkpt lat="43.1575" lon="6.50758">
        <ele>140.6</ele>
        <time>2024-02-04T09:08:13Z</time>
      </trkpt>
      <trkpt lat="43.15749" lon="6.50757">
        <ele>140.5</ele>
        <time>2024-02-04T09:08:14Z</time>
      </trkpt>
      <trkpt lat="43.15748" lon="6.50756">
        <ele>140.5</ele>
        <time>2024-02-04T09:08:15Z</time>
      </trkpt>
      <trkpt lat="43.15748" lon="6.50755">
        <ele>140.5</ele>
        <time>2024-02-04T09:08:16Z</time>
      </trkpt>
      <trkpt lat="43.15747" lon="6.50754">
        <ele>140.5</ele>
        <time>2024-02-04T09:08:17Z</time>
      </trkpt>
      <trkpt lat="43.15747" lon="6.50752">
        <ele>140.5</ele>
        <time>2024-02-04T09:08:18Z</time>
      </trkpt>
      <trkpt lat="43.15747" lon="6.50751">
        <ele>140.5</ele>
        <time>2024-02-04T09:08:19Z</time>
      </trkpt>
      <trkpt lat="43.15747" lon="6.5075">
        <ele>140.5</ele>
        <time>2024-02-04T09:08:20Z</time>
      </trkpt>
      <trkpt lat="43.15746" lon="6.5075">
        <ele>140.5</ele>
        <time>2024-02-04T09:08:21Z</time>
      </trkpt>
      <trkpt lat="43.15746" lon="6.50749">
        <ele>140.6</ele>
        <time>2024-02-04T09:08:22Z</time>
      </trkpt>
      <trkpt lat="43.15746" lon="6.50748">
        <ele>140.6</ele>
        <time>2024-02-04T09:08:23Z</time>
      </trkpt>
      <trkpt lat="43.15746" lon="6.50747">
        <ele>140.7</ele>
        <time>2024-02-04T09:08:24Z</time>
      </trkpt>
      <trkpt lat="43.15746" lon="6.50746">
        <ele>140.9</ele>
        <time>2024-02-04T09:08:25Z</time>
      </trkpt>
      <trkpt lat="43.15746" lon="6.50745">
        <ele>141</ele>
        <time>2024-02-04T09:08:26Z</time>
      </trkpt>
      <trkpt lat="43.15746" lon="6.50744">
        <ele>141.2</ele>
        <time>2024-02-04T09:08:27Z</time>
      </trkpt>
      <trkpt lat="43.15746" lon="6.50743">
        <ele>141.4</ele>
        <time>2024-02-04T09:08:28Z</time>
      </trkpt>
      <trkpt lat="43.15746" lon="6.50742">
        <ele>141.6</ele>
        <time>2024-02-04T09:08:29Z</time>
      </trkpt>
      <trkpt lat="43.15746" lon="6.50741">
        <ele>141.8</ele>
        <time>2024-02-04T09:08:30Z</time>
      </trkpt>
      <trkpt lat="43.15746" lon="6.5074">
        <ele>141.9</ele>
        <time>2024-02-04T09:08:31Z</time>
      </trkpt>
      <trkpt lat="43.15746" lon="6.50739">
        <ele>142</ele>
        <time>2024-02-04T09:08:32Z</time>
      </trkpt>
      <trkpt lat="43.15745" lon="6.50738">
        <ele>142</ele>
        <time>2024-02-04T09:08:33Z</time>
      </trkpt>
      <trkpt lat="43.15745" lon="6.50737">
        <ele>142.1</ele>
        <time>2024-02-04T09:08:34Z</time>
      </trkpt>
      <trkpt lat="43.15745" lon="6.50737">
        <ele>142.2</ele>
        <time>2024-02-04T09:08:35Z</time>
      </trkpt>
      <trkpt lat="43.15746" lon="6.50736">
        <ele>142.2</ele>
        <time>2024-02-04T09:08:36Z</time>
      </trkpt>
      <trkpt lat="43.15746" lon="6.50735">
        <ele>142.2</ele>
        <time>2024-02-04T09:08:37Z</time>
      </trkpt>
      <trkpt lat="43.15746" lon="6.50735">
        <ele>142.2</ele>
        <time>2024-02-04T09:08:38Z</time>
      </trkpt>
      <trkpt lat="43.15746" lon="6.50735">
        <ele>142.2</ele>
        <time>2024-02-04T09:08:39Z</time>
      </trkpt>
      <trkpt lat="43.15745" lon="6.50735">
        <ele>142.3</ele>
        <time>2024-02-04T09:08:40Z</time>
      </trkpt>
      <trkpt lat="43.15746" lon="6.50735">
        <ele>142.4</ele>
        <time>2024-02-04T09:08:41Z</time>
      </trkpt>
      <trkpt lat="43.15746" lon="6.50734">
        <ele>142.5</ele>
        <time>2024-02-04T09:08:42Z</time>
      </trkpt>
      <trkpt lat="43.15746" lon="6.50734">
        <ele>142.6</ele>
        <time>2024-02-04T09:08:43Z</time>
      </trkpt>
      <trkpt lat="43.15747" lon="6.50733">
        <ele>142.8</ele>
        <time>2024-02-04T09:08:44Z</time>
      </trkpt>
      <trkpt lat="43.15748" lon="6.50733">
        <ele>142.9</ele>
        <time>2024-02-04T09:08:45Z</time>
      </trkpt>
      <trkpt lat="43.15748" lon="6.50732">
        <ele>143.1</ele>
        <time>2024-02-04T09:08:46Z</time>
      </trkpt>
      <trkpt lat="43.15748" lon="6.50731">
        <ele>143.3</ele>
        <time>2024-02-04T09:08:47Z</time>
      </trkpt>
      <trkpt lat="43.15747" lon="6.50731">
        <ele>143.4</ele>
        <time>2024-02-04T09:08:48Z</time>
      </trkpt>
      <trkpt lat="43.15747" lon="6.5073">
        <ele>143.5</ele>
        <time>2024-02-04T09:08:49Z</time>
      </trkpt>
      <trkpt lat="43.15747" lon="6.50729">
        <ele>143.6</ele>
        <time>2024-02-04T09:08:50Z</time>
      </trkpt>
      <trkpt lat="43.15747" lon="6.50728">
        <ele>143.6</ele>
        <time>2024-02-04T09:08:51Z</time>
      </trkpt>
      <trkpt lat="43.15748" lon="6.50727">
        <ele>143.5</ele>
        <time>2024-02-04T09:08:52Z</time>
      </trkpt>
      <trkpt lat="43.15747" lon="6.50725">
        <ele>143.5</ele>
        <time>2024-02-04T09:08:53Z</time>
      </trkpt>
      <trkpt lat="43.15747" lon="6.50724">
        <ele>143.6</ele>
        <time>2024-02-04T09:08:54Z</time>
      </trkpt>
      <trkpt lat="43.15747" lon="6.50722">
        <ele>143.7</ele>
        <time>2024-02-04T09:08:55Z</time>
      </trkpt>
      <trkpt lat="43.15748" lon="6.50721">
        <ele>143.6</ele>
        <time>2024-02-04T09:08:56Z</time>
      </trkpt>
      <trkpt lat="43.15748" lon="6.50721">
        <ele>143.5</ele>
        <time>2024-02-04T09:08:57Z</time>
      </trkpt>
      <trkpt lat="43.15748" lon="6.5072">
        <ele>143.5</ele>
        <time>2024-02-04T09:08:58Z</time>
      </trkpt>
      <trkpt lat="43.15748" lon="6.5072">
        <ele>143.4</ele>
        <time>2024-02-04T09:08:59Z</time>
      </trkpt>
      <trkpt lat="43.15748" lon="6.5072">
        <ele>143.4</ele>
        <time>2024-02-04T09:09:00Z</time>
      </trkpt>
      <trkpt lat="43.15748" lon="6.50719">
        <ele>143.4</ele>
        <time>2024-02-04T09:09:01Z</time>
      </trkpt>
      <trkpt lat="43.15748" lon="6.50719">
        <ele>143.4</ele>
        <time>2024-02-04T09:09:02Z</time>
      </trkpt>
      <trkpt lat="43.15748" lon="6.50719">
        <ele>143.3</ele>
        <time>2024-02-04T09:09:03Z</time>
      </trkpt>
      <trkpt lat="43.15748" lon="6.50719">
        <ele>143.3</ele>
        <time>2024-02-04T09:09:04Z</time>
      </trkpt>
      <trkpt lat="43.15748" lon="6.50719">
        <ele>143.4</ele>
        <time>2024-02-04T09:09:05Z</time>
      </trkpt>
      <trkpt lat="43.15748" lon="6.50719">
        <ele>143.4</ele>
        <time>2024-02-04T09:09:06Z</time>
      </trkpt>
      <trkpt lat="43.15748" lon="6.50719">
        <ele>143.4</ele>
        <time>2024-02-04T09:09:07Z</time>
      </trkpt>
      <trkpt lat="43.15747" lon="6.50719">
        <ele>143.4</ele>
        <time>2024-02-04T09:09:08Z</time>
      </trkpt>
      <trkpt lat="43.15747" lon="6.50719">
        <ele>143.5</ele>
        <time>2024-02-04T09:09:09Z</time>
      </trkpt>
      <trkpt lat="43.15747" lon="6.50719">
        <ele>143.4</ele>
        <time>2024-02-04T09:09:10Z</time>
      </trkpt>
      <trkpt lat="43.15748" lon="6.50718">
        <ele>143.3</ele>
        <time>2024-02-04T09:09:11Z</time>
      </trkpt>
      <trkpt lat="43.15748" lon="6.50717">
        <ele>143.3</ele>
        <time>2024-02-04T09:09:12Z</time>
      </trkpt>
      <trkpt lat="43.15749" lon="6.50717">
        <ele>143.2</ele>
        <time>2024-02-04T09:09:13Z</time>
      </trkpt>
      <trkpt lat="43.15749" lon="6.50716">
        <ele>143.2</ele>
        <time>2024-02-04T09:09:14Z</time>
      </trkpt>
      <trkpt lat="43.15749" lon="6.50715">
        <ele>143.3</ele>
        <time>2024-02-04T09:09:15Z</time>
      </trkpt>
      <trkpt lat="43.15749" lon="6.50714">
        <ele>143.3</ele>
        <time>2024-02-04T09:09:16Z</time>
      </trkpt>
      <trkpt lat="43.1575" lon="6.50713">
        <ele>143.4</ele>
        <time>2024-02-04T09:09:17Z</time>
      </trkpt>
      <trkpt lat="43.1575" lon="6.50713">
        <ele>143.5</ele>
        <time>2024-02-04T09:09:18Z</time>
      </trkpt>
      <trkpt lat="43.15751" lon="6.50712">
        <ele>143.6</ele>
        <time>2024-02-04T09:09:19Z</time>
      </trkpt>
      <trkpt lat="43.15751" lon="6.50711">
        <ele>143.7</ele>
        <time>2024-02-04T09:09:20Z</time>
      </trkpt>
      <trkpt lat="43.15751" lon="6.5071">
        <ele>143.7</ele>
        <time>2024-02-04T09:09:21Z</time>
      </trkpt>
      <trkpt lat="43.15751" lon="6.50709">
        <ele>143.8</ele>
        <time>2024-02-04T09:09:22Z</time>
      </trkpt>
      <trkpt lat="43.15751" lon="6.50708">
        <ele>143.9</ele>
        <time>2024-02-04T09:09:23Z</time>
      </trkpt>
      <trkpt lat="43.15752" lon="6.50707">
        <ele>143.9</ele>
        <time>2024-02-04T09:09:24Z</time>
      </trkpt>
      <trkpt lat="43.15752" lon="6.50706">
        <ele>143.9</ele>
        <time>2024-02-04T09:09:25Z</time>
      </trkpt>
      <trkpt lat="43.15752" lon="6.50704">
        <ele>143.9</ele>
        <time>2024-02-04T09:09:26Z</time>
      </trkpt>
      <trkpt lat="43.15753" lon="6.50703">
        <ele>143.8</ele>
        <time>2024-02-04T09:09:27Z</time>
      </trkpt>
      <trkpt lat="43.15754" lon="6.50702">
        <ele>143.6</ele>
        <time>2024-02-04T09:09:28Z</time>
      </trkpt>
      <trkpt lat="43.15754" lon="6.50701">
        <ele>143.5</ele>
        <time>2024-02-04T09:09:29Z</time>
      </trkpt>
      <trkpt lat="43.15754" lon="6.50701">
        <ele>143.5</ele>
        <time>2024-02-04T09:09:30Z</time>
      </trkpt>
      <trkpt lat="43.15755" lon="6.507">
        <ele>143.5</ele>
        <time>2024-02-04T09:09:31Z</time>
      </trkpt>
      <trkpt lat="43.15755" lon="6.507">
        <ele>143.6</ele>
        <time>2024-02-04T09:09:32Z</time>
      </trkpt>
      <trkpt lat="43.15756" lon="6.50699">
        <ele>143.6</ele>
        <time>2024-02-04T09:09:33Z</time>
      </trkpt>
      <trkpt lat="43.15756" lon="6.50699">
        <ele>143.7</ele>
        <time>2024-02-04T09:09:34Z</time>
      </trkpt>
      <trkpt lat="43.15757" lon="6.50698">
        <ele>143.8</ele>
        <time>2024-02-04T09:09:35Z</time>
      </trkpt>
      <trkpt lat="43.15757" lon="6.50697">
        <ele>143.9</ele>
        <time>2024-02-04T09:09:36Z</time>
      </trkpt>
      <trkpt lat="43.15758" lon="6.50696">
        <ele>144</ele>
        <time>2024-02-04T09:09:37Z</time>
      </trkpt>
      <trkpt lat="43.15758" lon="6.50696">
        <ele>144.2</ele>
        <time>2024-02-04T09:09:38Z</time>
      </trkpt>
      <trkpt lat="43.15759" lon="6.50695">
        <ele>144.3</ele>
        <time>2024-02-04T09:09:39Z</time>
      </trkpt>
      <trkpt lat="43.15759" lon="6.50695">
        <ele>144.3</ele>
        <time>2024-02-04T09:09:40Z</time>
      </trkpt>
      <trkpt lat="43.1576" lon="6.50694">
        <ele>144.4</ele>
        <time>2024-02-04T09:09:41Z</time>
      </trkpt>
      <trkpt lat="43.1576" lon="6.50694">
        <ele>144.5</ele>
        <time>2024-02-04T09:09:42Z</time>
      </trkpt>
      <trkpt lat="43.1576" lon="6.50693">
        <ele>144.6</ele>
        <time>2024-02-04T09:09:43Z</time>
      </trkpt>
      <trkpt lat="43.15761" lon="6.50693">
        <ele>144.6</ele>
        <time>2024-02-04T09:09:44Z</time>
      </trkpt>
      <trkpt lat="43.15761" lon="6.50692">
        <ele>144.7</ele>
        <time>2024-02-04T09:09:45Z</time>
      </trkpt>
      <trkpt lat="43.15761" lon="6.50691">
        <ele>144.7</ele>
        <time>2024-02-04T09:09:46Z</time>
      </trkpt>
      <trkpt lat="43.1576" lon="6.50691">
        <ele>144.7</ele>
        <time>2024-02-04T09:09:47Z</time>
      </trkpt>
      <trkpt lat="43.15761" lon="6.5069">
        <ele>144.7</ele>
        <time>2024-02-04T09:09:48Z</time>
      </trkpt>
      <trkpt lat="43.15761" lon="6.50689">
        <ele>144.7</ele>
        <time>2024-02-04T09:09:49Z</time>
      </trkpt>
      <trkpt lat="43.15761" lon="6.50688">
        <ele>144.6</ele>
        <time>2024-02-04T09:09:50Z</time>
      </trkpt>
      <trkpt lat="43.15761" lon="6.50688">
        <ele>144.5</ele>
        <time>2024-02-04T09:09:51Z</time>
      </trkpt>
      <trkpt lat="43.15761" lon="6.50687">
        <ele>144.4</ele>
        <time>2024-02-04T09:09:52Z</time>
      </trkpt>
      <trkpt lat="43.15761" lon="6.50685">
        <ele>144.2</ele>
        <time>2024-02-04T09:09:53Z</time>
      </trkpt>
      <trkpt lat="43.15761" lon="6.50683">
        <ele>144</ele>
        <time>2024-02-04T09:09:54Z</time>
      </trkpt>
      <trkpt lat="43.15761" lon="6.50682">
        <ele>143.8</ele>
        <time>2024-02-04T09:09:55Z</time>
      </trkpt>
      <trkpt lat="43.15762" lon="6.5068">
        <ele>143.7</ele>
        <time>2024-02-04T09:09:56Z</time>
      </trkpt>
      <trkpt lat="43.15762" lon="6.50679">
        <ele>143.6</ele>
        <time>2024-02-04T09:09:57Z</time>
      </trkpt>
      <trkpt lat="43.15763" lon="6.50678">
        <ele>143.5</ele>
        <time>2024-02-04T09:09:58Z</time>
      </trkpt>
      <trkpt lat="43.15764" lon="6.50676">
        <ele>143.5</ele>
        <time>2024-02-04T09:09:59Z</time>
      </trkpt>
      <trkpt lat="43.15764" lon="6.50675">
        <ele>143.5</ele>
        <time>2024-02-04T09:10:00Z</time>
      </trkpt>
      <trkpt lat="43.15763" lon="6.50674">
        <ele>143.5</ele>
        <time>2024-02-04T09:10:01Z</time>
      </trkpt>
      <trkpt lat="43.15764" lon="6.50673">
        <ele>143.5</ele>
        <time>2024-02-04T09:10:02Z</time>
      </trkpt>
      <trkpt lat="43.15765" lon="6.50671">
        <ele>143.5</ele>
        <time>2024-02-04T09:10:03Z</time>
      </trkpt>
      <trkpt lat="43.15765" lon="6.50669">
        <ele>143.5</ele>
        <time>2024-02-04T09:10:04Z</time>
      </trkpt>
      <trkpt lat="43.15765" lon="6.50669">
        <ele>143.6</ele>
        <time>2024-02-04T09:10:05Z</time>
      </trkpt>
      <trkpt lat="43.15766" lon="6.50668">
        <ele>143.6</ele>
        <time>2024-02-04T09:10:06Z</time>
      </trkpt>
      <trkpt lat="43.15766" lon="6.50667">
        <ele>143.7</ele>
        <time>2024-02-04T09:10:07Z</time>
      </trkpt>
      <trkpt lat="43.15767" lon="6.50666">
        <ele>143.8</ele>
        <time>2024-02-04T09:10:08Z</time>
      </trkpt>
      <trkpt lat="43.15767" lon="6.50665">
        <ele>143.8</ele>
        <time>2024-02-04T09:10:09Z</time>
      </trkpt>
      <trkpt lat="43.15767" lon="6.50663">
        <ele>143.9</ele>
        <time>2024-02-04T09:10:10Z</time>
      </trkpt>
      <trkpt lat="43.15768" lon="6.50662">
        <ele>143.9</ele>
        <time>2024-02-04T09:10:11Z</time>
      </trkpt>
      <trkpt lat="43.15768" lon="6.50661">
        <ele>144</ele>
        <time>2024-02-04T09:10:12Z</time>
      </trkpt>
      <trkpt lat="43.15768" lon="6.50659">
        <ele>144.1</ele>
        <time>2024-02-04T09:10:13Z</time>
      </trkpt>
      <trkpt lat="43.15768" lon="6.50658">
        <ele>144.1</ele>
        <time>2024-02-04T09:10:14Z</time>
      </trkpt>
      <trkpt lat="43.15768" lon="6.50657">
        <ele>144.2</ele>
        <time>2024-02-04T09:10:15Z</time>
      </trkpt>
      <trkpt lat="43.15768" lon="6.50656">
        <ele>144.3</ele>
        <time>2024-02-04T09:10:16Z</time>
      </trkpt>
      <trkpt lat="43.15768" lon="6.50655">
        <ele>144.3</ele>
        <time>2024-02-04T09:10:17Z</time>
      </trkpt>
      <trkpt lat="43.15769" lon="6.50653">
        <ele>144.3</ele>
        <time>2024-02-04T09:10:18Z</time>
      </trkpt>
      <trkpt lat="43.15769" lon="6.50652">
        <ele>144.4</ele>
        <time>2024-02-04T09:10:19Z</time>
      </trkpt>
      <trkpt lat="43.1577" lon="6.5065">
        <ele>144.4</ele>
        <time>2024-02-04T09:10:20Z</time>
      </trkpt>
      <trkpt lat="43.1577" lon="6.50649">
        <ele>144.3</ele>
        <time>2024-02-04T09:10:21Z</time>
      </trkpt>
      <trkpt lat="43.1577" lon="6.50647">
        <ele>144.3</ele>
        <time>2024-02-04T09:10:22Z</time>
      </trkpt>
      <trkpt lat="43.15771" lon="6.50647">
        <ele>144.4</ele>
        <time>2024-02-04T09:10:23Z</time>
      </trkpt>
      <trkpt lat="43.15771" lon="6.50646">
        <ele>144.5</ele>
        <time>2024-02-04T09:10:24Z</time>
      </trkpt>
      <trkpt lat="43.15771" lon="6.50645">
        <ele>144.6</ele>
        <time>2024-02-04T09:10:25Z</time>
      </trkpt>
      <trkpt lat="43.15772" lon="6.50645">
        <ele>144.7</ele>
        <time>2024-02-04T09:10:26Z</time>
      </trkpt>
      <trkpt lat="43.15772" lon="6.50644">
        <ele>144.9</ele>
        <time>2024-02-04T09:10:27Z</time>
      </trkpt>
      <trkpt lat="43.15772" lon="6.50643">
        <ele>145</ele>
        <time>2024-02-04T09:10:28Z</time>
      </trkpt>
      <trkpt lat="43.15772" lon="6.50641">
        <ele>145.1</ele>
        <time>2024-02-04T09:10:29Z</time>
      </trkpt>
      <trkpt lat="43.15772" lon="6.5064">
        <ele>145.2</ele>
        <time>2024-02-04T09:10:30Z</time>
      </trkpt>
      <trkpt lat="43.15773" lon="6.50639">
        <ele>145.3</ele>
        <time>2024-02-04T09:10:31Z</time>
      </trkpt>
      <trkpt lat="43.15773" lon="6.50638">
        <ele>145.3</ele>
        <time>2024-02-04T09:10:32Z</time>
      </trkpt>
      <trkpt lat="43.15774" lon="6.50637">
        <ele>145.3</ele>
        <time>2024-02-04T09:10:33Z</time>
      </trkpt>
      <trkpt lat="43.15774" lon="6.50636">
        <ele>145.4</ele>
        <time>2024-02-04T09:10:34Z</time>
      </trkpt>
      <trkpt lat="43.15774" lon="6.50635">
        <ele>145.5</ele>
        <time>2024-02-04T09:10:35Z</time>
      </trkpt>
      <trkpt lat="43.15775" lon="6.50634">
        <ele>145.5</ele>
        <time>2024-02-04T09:10:36Z</time>
      </trkpt>
      <trkpt lat="43.15775" lon="6.50632">
        <ele>145.7</ele>
        <time>2024-02-04T09:10:37Z</time>
      </trkpt>
      <trkpt lat="43.15775" lon="6.50631">
        <ele>145.9</ele>
        <time>2024-02-04T09:10:38Z</time>
      </trkpt>
      <trkpt lat="43.15775" lon="6.5063">
        <ele>146</ele>
        <time>2024-02-04T09:10:39Z</time>
      </trkpt>
      <trkpt lat="43.15776" lon="6.50628">
        <ele>146.1</ele>
        <time>2024-02-04T09:10:40Z</time>
      </trkpt>
      <trkpt lat="43.15776" lon="6.50628">
        <ele>146.2</ele>
        <time>2024-02-04T09:10:41Z</time>
      </trkpt>
      <trkpt lat="43.15776" lon="6.50627">
        <ele>146.3</ele>
        <time>2024-02-04T09:10:42Z</time>
      </trkpt>
      <trkpt lat="43.15777" lon="6.50626">
        <ele>146.4</ele>
        <time>2024-02-04T09:10:43Z</time>
      </trkpt>
      <trkpt lat="43.15777" lon="6.50624">
        <ele>146.5</ele>
        <time>2024-02-04T09:10:44Z</time>
      </trkpt>
      <trkpt lat="43.15778" lon="6.50623">
        <ele>146.7</ele>
        <time>2024-02-04T09:10:45Z</time>
      </trkpt>
      <trkpt lat="43.15778" lon="6.50621">
        <ele>146.7</ele>
        <time>2024-02-04T09:10:46Z</time>
      </trkpt>
      <trkpt lat="43.15779" lon="6.50619">
        <ele>146.8</ele>
        <time>2024-02-04T09:10:47Z</time>
      </trkpt>
      <trkpt lat="43.15779" lon="6.50618">
        <ele>146.9</ele>
        <time>2024-02-04T09:10:48Z</time>
      </trkpt>
      <trkpt lat="43.1578" lon="6.50617">
        <ele>146.9</ele>
        <time>2024-02-04T09:10:49Z</time>
      </trkpt>
      <trkpt lat="43.1578" lon="6.50615">
        <ele>147.1</ele>
        <time>2024-02-04T09:10:50Z</time>
      </trkpt>
      <trkpt lat="43.1578" lon="6.50614">
        <ele>147.1</ele>
        <time>2024-02-04T09:10:51Z</time>
      </trkpt>
      <trkpt lat="43.15781" lon="6.50613">
        <ele>147.2</ele>
        <time>2024-02-04T09:10:52Z</time>
      </trkpt>
      <trkpt lat="43.15781" lon="6.50611">
        <ele>147.3</ele>
        <time>2024-02-04T09:10:53Z</time>
      </trkpt>
      <trkpt lat="43.15781" lon="6.5061">
        <ele>147.4</ele>
        <time>2024-02-04T09:10:54Z</time>
      </trkpt>
      <trkpt lat="43.15781" lon="6.50609">
        <ele>147.4</ele>
        <time>2024-02-04T09:10:55Z</time>
      </trkpt>
      <trkpt lat="43.15781" lon="6.50607">
        <ele>147.4</ele>
        <time>2024-02-04T09:10:56Z</time>
      </trkpt>
      <trkpt lat="43.15781" lon="6.50606">
        <ele>147.4</ele>
        <time>2024-02-04T09:10:57Z</time>
      </trkpt>
      <trkpt lat="43.15782" lon="6.50605">
        <ele>147.5</ele>
        <time>2024-02-04T09:10:58Z</time>
      </trkpt>
      <trkpt lat="43.15783" lon="6.50604">
        <ele>147.5</ele>
        <time>2024-02-04T09:10:59Z</time>
      </trkpt>
      <trkpt lat="43.15783" lon="6.50603">
        <ele>147.6</ele>
        <time>2024-02-04T09:11:00Z</time>
      </trkpt>
      <trkpt lat="43.15784" lon="6.50602">
        <ele>147.7</ele>
        <time>2024-02-04T09:11:01Z</time>
      </trkpt>
      <trkpt lat="43.15785" lon="6.50601">
        <ele>147.8</ele>
        <time>2024-02-04T09:11:02Z</time>
      </trkpt>
      <trkpt lat="43.15785" lon="6.506">
        <ele>147.9</ele>
        <time>2024-02-04T09:11:03Z</time>
      </trkpt>
      <trkpt lat="43.15786" lon="6.50599">
        <ele>147.9</ele>
        <time>2024-02-04T09:11:04Z</time>
      </trkpt>
      <trkpt lat="43.15786" lon="6.50598">
        <ele>148</ele>
        <time>2024-02-04T09:11:05Z</time>
      </trkpt>
      <trkpt lat="43.15787" lon="6.50597">
        <ele>148.1</ele>
        <time>2024-02-04T09:11:06Z</time>
      </trkpt>
      <trkpt lat="43.15787" lon="6.50596">
        <ele>148.2</ele>
        <time>2024-02-04T09:11:07Z</time>
      </trkpt>
      <trkpt lat="43.15788" lon="6.50596">
        <ele>148.2</ele>
        <time>2024-02-04T09:11:08Z</time>
      </trkpt>
      <trkpt lat="43.15788" lon="6.50595">
        <ele>148.3</ele>
        <time>2024-02-04T09:11:09Z</time>
      </trkpt>
      <trkpt lat="43.15789" lon="6.50594">
        <ele>148.3</ele>
        <time>2024-02-04T09:11:10Z</time>
      </trkpt>
      <trkpt lat="43.15789" lon="6.50594">
        <ele>148.3</ele>
        <time>2024-02-04T09:11:11Z</time>
      </trkpt>
      <trkpt lat="43.15789" lon="6.50594">
        <ele>148.4</ele>
        <time>2024-02-04T09:11:12Z</time>
      </trkpt>
      <trkpt lat="43.15789" lon="6.50593">
        <ele>148.5</ele>
        <time>2024-02-04T09:11:13Z</time>
      </trkpt>
      <trkpt lat="43.15789" lon="6.50592">
        <ele>148.5</ele>
        <time>2024-02-04T09:11:14Z</time>
      </trkpt>
      <trkpt lat="43.15789" lon="6.50591">
        <ele>148.6</ele>
        <time>2024-02-04T09:11:15Z</time>
      </trkpt>
      <trkpt lat="43.15789" lon="6.5059">
        <ele>148.7</ele>
        <time>2024-02-04T09:11:16Z</time>
      </trkpt>
      <trkpt lat="43.15789" lon="6.50589">
        <ele>148.8</ele>
        <time>2024-02-04T09:11:17Z</time>
      </trkpt>
      <trkpt lat="43.1579" lon="6.50588">
        <ele>148.8</ele>
        <time>2024-02-04T09:11:18Z</time>
      </trkpt>
      <trkpt lat="43.1579" lon="6.50587">
        <ele>148.9</ele>
        <time>2024-02-04T09:11:19Z</time>
      </trkpt>
      <trkpt lat="43.1579" lon="6.50587">
        <ele>148.9</ele>
        <time>2024-02-04T09:11:20Z</time>
      </trkpt>
      <trkpt lat="43.1579" lon="6.50586">
        <ele>149</ele>
        <time>2024-02-04T09:11:21Z</time>
      </trkpt>
      <trkpt lat="43.1579" lon="6.50586">
        <ele>149</ele>
        <time>2024-02-04T09:11:22Z</time>
      </trkpt>
      <trkpt lat="43.1579" lon="6.50586">
        <ele>149.1</ele>
        <time>2024-02-04T09:11:23Z</time>
      </trkpt>
      <trkpt lat="43.1579" lon="6.50585">
        <ele>149.1</ele>
        <time>2024-02-04T09:11:24Z</time>
      </trkpt>
      <trkpt lat="43.15791" lon="6.50584">
        <ele>149.2</ele>
        <time>2024-02-04T09:11:25Z</time>
      </trkpt>
      <trkpt lat="43.15791" lon="6.50583">
        <ele>149.2</ele>
        <time>2024-02-04T09:11:26Z</time>
      </trkpt>
      <trkpt lat="43.15792" lon="6.50582">
        <ele>149.3</ele>
        <time>2024-02-04T09:11:27Z</time>
      </trkpt>
      <trkpt lat="43.15793" lon="6.50581">
        <ele>149.3</ele>
        <time>2024-02-04T09:11:28Z</time>
      </trkpt>
      <trkpt lat="43.15794" lon="6.5058">
        <ele>149.4</ele>
        <time>2024-02-04T09:11:29Z</time>
      </trkpt>
      <trkpt lat="43.15795" lon="6.5058">
        <ele>149.6</ele>
        <time>2024-02-04T09:11:30Z</time>
      </trkpt>
      <trkpt lat="43.15796" lon="6.50579">
        <ele>149.8</ele>
        <time>2024-02-04T09:11:31Z</time>
      </trkpt>
      <trkpt lat="43.15796" lon="6.50578">
        <ele>149.9</ele>
        <time>2024-02-04T09:11:32Z</time>
      </trkpt>
      <trkpt lat="43.15797" lon="6.50577">
        <ele>150.1</ele>
        <time>2024-02-04T09:11:33Z</time>
      </trkpt>
      <trkpt lat="43.15797" lon="6.50576">
        <ele>150.3</ele>
        <time>2024-02-04T09:11:34Z</time>
      </trkpt>
      <trkpt lat="43.15798" lon="6.50576">
        <ele>150.5</ele>
        <time>2024-02-04T09:11:35Z</time>
      </trkpt>
      <trkpt lat="43.15798" lon="6.50575">
        <ele>150.7</ele>
        <time>2024-02-04T09:11:36Z</time>
      </trkpt>
      <trkpt lat="43.15799" lon="6.50575">
        <ele>150.8</ele>
        <time>2024-02-04T09:11:37Z</time>
      </trkpt>
      <trkpt lat="43.15799" lon="6.50574">
        <ele>151</ele>
        <time>2024-02-04T09:11:38Z</time>
      </trkpt>
      <trkpt lat="43.15799" lon="6.50574">
        <ele>151.2</ele>
        <time>2024-02-04T09:11:39Z</time>
      </trkpt>
      <trkpt lat="43.15799" lon="6.50575">
        <ele>151.3</ele>
        <time>2024-02-04T09:11:40Z</time>
      </trkpt>
      <trkpt lat="43.15799" lon="6.50575">
        <ele>151.4</ele>
        <time>2024-02-04T09:11:41Z</time>
      </trkpt>
      <trkpt lat="43.158" lon="6.50575">
        <ele>151.5</ele>
        <time>2024-02-04T09:11:42Z</time>
      </trkpt>
      <trkpt lat="43.158" lon="6.50575">
        <ele>151.6</ele>
        <time>2024-02-04T09:11:43Z</time>
      </trkpt>
      <trkpt lat="43.15801" lon="6.50575">
        <ele>151.8</ele>
        <time>2024-02-04T09:11:44Z</time>
      </trkpt>
      <trkpt lat="43.15801" lon="6.50575">
        <ele>152</ele>
        <time>2024-02-04T09:11:45Z</time>
      </trkpt>
      <trkpt lat="43.15801" lon="6.50575">
        <ele>151.9</ele>
        <time>2024-02-04T09:11:46Z</time>
      </trkpt>
      <trkpt lat="43.15802" lon="6.50575">
        <ele>151.5</ele>
        <time>2024-02-04T09:11:47Z</time>
      </trkpt>
      <trkpt lat="43.15803" lon="6.50574">
        <ele>151.8</ele>
        <time>2024-02-04T09:11:48Z</time>
      </trkpt>
      <trkpt lat="43.15803" lon="6.50572">
        <ele>152.1</ele>
        <time>2024-02-04T09:11:49Z</time>
      </trkpt>
      <trkpt lat="43.15804" lon="6.50571">
        <ele>152.4</ele>
        <time>2024-02-04T09:11:50Z</time>
      </trkpt>
      <trkpt lat="43.15805" lon="6.5057">
        <ele>152.7</ele>
        <time>2024-02-04T09:11:51Z</time>
      </trkpt>
      <trkpt lat="43.15806" lon="6.5057">
        <ele>152.9</ele>
        <time>2024-02-04T09:11:52Z</time>
      </trkpt>
      <trkpt lat="43.15806" lon="6.50569">
        <ele>153.1</ele>
        <time>2024-02-04T09:11:53Z</time>
      </trkpt>
      <trkpt lat="43.15807" lon="6.50569">
        <ele>153.2</ele>
        <time>2024-02-04T09:11:54Z</time>
      </trkpt>
      <trkpt lat="43.15808" lon="6.50568">
        <ele>153.4</ele>
        <time>2024-02-04T09:11:55Z</time>
      </trkpt>
      <trkpt lat="43.15809" lon="6.50568">
        <ele>153.5</ele>
        <time>2024-02-04T09:11:56Z</time>
      </trkpt>
      <trkpt lat="43.1581" lon="6.50568">
        <ele>153.6</ele>
        <time>2024-02-04T09:11:57Z</time>
      </trkpt>
      <trkpt lat="43.1581" lon="6.50567">
        <ele>153.7</ele>
        <time>2024-02-04T09:11:58Z</time>
      </trkpt>
      <trkpt lat="43.15811" lon="6.50567">
        <ele>153.9</ele>
        <time>2024-02-04T09:11:59Z</time>
      </trkpt>
      <trkpt lat="43.15812" lon="6.50567">
        <ele>154.1</ele>
        <time>2024-02-04T09:12:00Z</time>
      </trkpt>
      <trkpt lat="43.15812" lon="6.50566">
        <ele>154.3</ele>
        <time>2024-02-04T09:12:01Z</time>
      </trkpt>
      <trkpt lat="43.15813" lon="6.50565">
        <ele>154.4</ele>
        <time>2024-02-04T09:12:02Z</time>
      </trkpt>
      <trkpt lat="43.15813" lon="6.50564">
        <ele>154.6</ele>
        <time>2024-02-04T09:12:03Z</time>
      </trkpt>
      <trkpt lat="43.15814" lon="6.50563">
        <ele>154.7</ele>
        <time>2024-02-04T09:12:04Z</time>
      </trkpt>
      <trkpt lat="43.15815" lon="6.50562">
        <ele>154.8</ele>
        <time>2024-02-04T09:12:05Z</time>
      </trkpt>
      <trkpt lat="43.15815" lon="6.50561">
        <ele>154.9</ele>
        <time>2024-02-04T09:12:06Z</time>
      </trkpt>
      <trkpt lat="43.15816" lon="6.5056">
        <ele>155</ele>
        <time>2024-02-04T09:12:07Z</time>
      </trkpt>
      <trkpt lat="43.15816" lon="6.5056">
        <ele>155.1</ele>
        <time>2024-02-04T09:12:08Z</time>
      </trkpt>
      <trkpt lat="43.15816" lon="6.50559">
        <ele>155.2</ele>
        <time>2024-02-04T09:12:09Z</time>
      </trkpt>
      <trkpt lat="43.15816" lon="6.50559">
        <ele>155.3</ele>
        <time>2024-02-04T09:12:10Z</time>
      </trkpt>
      <trkpt lat="43.15817" lon="6.50558">
        <ele>155.3</ele>
        <time>2024-02-04T09:12:11Z</time>
      </trkpt>
      <trkpt lat="43.15817" lon="6.50557">
        <ele>155.3</ele>
        <time>2024-02-04T09:12:12Z</time>
      </trkpt>
      <trkpt lat="43.15817" lon="6.50556">
        <ele>155.3</ele>
        <time>2024-02-04T09:12:13Z</time>
      </trkpt>
      <trkpt lat="43.15818" lon="6.50555">
        <ele>155.3</ele>
        <time>2024-02-04T09:12:14Z</time>
      </trkpt>
      <trkpt lat="43.15818" lon="6.50555">
        <ele>155.2</ele>
        <time>2024-02-04T09:12:15Z</time>
      </trkpt>
      <trkpt lat="43.15819" lon="6.50554">
        <ele>155.1</ele>
        <time>2024-02-04T09:12:16Z</time>
      </trkpt>
      <trkpt lat="43.1582" lon="6.50553">
        <ele>155.1</ele>
        <time>2024-02-04T09:12:17Z</time>
      </trkpt>
      <trkpt lat="43.1582" lon="6.50552">
        <ele>155.1</ele>
        <time>2024-02-04T09:12:18Z</time>
      </trkpt>
      <trkpt lat="43.15821" lon="6.50552">
        <ele>155.2</ele>
        <time>2024-02-04T09:12:19Z</time>
      </trkpt>
      <trkpt lat="43.15822" lon="6.50551">
        <ele>155.2</ele>
        <time>2024-02-04T09:12:20Z</time>
      </trkpt>
      <trkpt lat="43.15822" lon="6.5055">
        <ele>155.3</ele>
        <time>2024-02-04T09:12:21Z</time>
      </trkpt>
      <trkpt lat="43.15823" lon="6.50549">
        <ele>155.3</ele>
        <time>2024-02-04T09:12:22Z</time>
      </trkpt>
      <trkpt lat="43.15823" lon="6.50548">
        <ele>155.4</ele>
        <time>2024-02-04T09:12:23Z</time>
      </trkpt>
      <trkpt lat="43.15823" lon="6.50547">
        <ele>155.4</ele>
        <time>2024-02-04T09:12:24Z</time>
      </trkpt>
      <trkpt lat="43.15823" lon="6.50546">
        <ele>155.3</ele>
        <time>2024-02-04T09:12:25Z</time>
      </trkpt>
      <trkpt lat="43.15823" lon="6.50544">
        <ele>155.2</ele>
        <time>2024-02-04T09:12:26Z</time>
      </trkpt>
      <trkpt lat="43.15823" lon="6.50543">
        <ele>155.1</ele>
        <time>2024-02-04T09:12:27Z</time>
      </trkpt>
      <trkpt lat="43.15823" lon="6.50541">
        <ele>155</ele>
        <time>2024-02-04T09:12:28Z</time>
      </trkpt>
      <trkpt lat="43.15823" lon="6.50539">
        <ele>154.8</ele>
        <time>2024-02-04T09:12:29Z</time>
      </trkpt>
      <trkpt lat="43.15823" lon="6.50538">
        <ele>154.6</ele>
        <time>2024-02-04T09:12:30Z</time>
      </trkpt>
      <trkpt lat="43.15823" lon="6.50537">
        <ele>154.5</ele>
        <time>2024-02-04T09:12:31Z</time>
      </trkpt>
      <trkpt lat="43.15823" lon="6.50535">
        <ele>154.4</ele>
        <time>2024-02-04T09:12:32Z</time>
      </trkpt>
      <trkpt lat="43.15823" lon="6.50534">
        <ele>154.2</ele>
        <time>2024-02-04T09:12:33Z</time>
      </trkpt>
      <trkpt lat="43.15824" lon="6.50533">
        <ele>154.1</ele>
        <time>2024-02-04T09:12:34Z</time>
      </trkpt>
      <trkpt lat="43.15824" lon="6.50532">
        <ele>153.9</ele>
        <time>2024-02-04T09:12:35Z</time>
      </trkpt>
      <trkpt lat="43.15825" lon="6.5053">
        <ele>153.8</ele>
        <time>2024-02-04T09:12:36Z</time>
      </trkpt>
      <trkpt lat="43.15826" lon="6.50529">
        <ele>153.8</ele>
        <time>2024-02-04T09:12:37Z</time>
      </trkpt>
      <trkpt lat="43.15826" lon="6.50528">
        <ele>153.7</ele>
        <time>2024-02-04T09:12:38Z</time>
      </trkpt>
      <trkpt lat="43.15827" lon="6.50528">
        <ele>153.1</ele>
        <time>2024-02-04T09:12:39Z</time>
      </trkpt>
      <trkpt lat="43.15828" lon="6.50528">
        <ele>157.6</ele>
        <time>2024-02-04T09:12:40Z</time>
      </trkpt>
      <trkpt lat="43.15829" lon="6.50527">
        <ele>156.9</ele>
        <time>2024-02-04T09:12:41Z</time>
      </trkpt>
      <trkpt lat="43.1583" lon="6.50527">
        <ele>156.3</ele>
        <time>2024-02-04T09:12:42Z</time>
      </trkpt>
      <trkpt lat="43.15831" lon="6.50526">
        <ele>153.6</ele>
        <time>2024-02-04T09:12:43Z</time>
      </trkpt>
      <trkpt lat="43.15832" lon="6.50526">
        <ele>153.8</ele>
        <time>2024-02-04T09:12:44Z</time>
      </trkpt>
      <trkpt lat="43.15834" lon="6.50526">
        <ele>151.7</ele>
        <time>2024-02-04T09:12:45Z</time>
      </trkpt>
      <trkpt lat="43.15834" lon="6.50526">
        <ele>150.1</ele>
        <time>2024-02-04T09:12:46Z</time>
      </trkpt>
      <trkpt lat="43.15834" lon="6.50527">
        <ele>155.3</ele>
        <time>2024-02-04T09:12:47Z</time>
      </trkpt>
      <trkpt lat="43.15836" lon="6.50526">
        <ele>155.4</ele>
        <time>2024-02-04T09:12:48Z</time>
      </trkpt>
      <trkpt lat="43.15837" lon="6.50525">
        <ele>155.4</ele>
        <time>2024-02-04T09:12:49Z</time>
      </trkpt>
      <trkpt lat="43.15838" lon="6.50524">
        <ele>155.4</ele>
        <time>2024-02-04T09:12:50Z</time>
      </trkpt>
      <trkpt lat="43.15839" lon="6.50523">
        <ele>155.4</ele>
        <time>2024-02-04T09:12:51Z</time>
      </trkpt>
      <trkpt lat="43.1584" lon="6.50521">
        <ele>155.6</ele>
        <time>2024-02-04T09:12:52Z</time>
      </trkpt>
      <trkpt lat="43.1584" lon="6.5052">
        <ele>155.7</ele>
        <time>2024-02-04T09:12:53Z</time>
      </trkpt>
      <trkpt lat="43.1584" lon="6.50519">
        <ele>155.7</ele>
        <time>2024-02-04T09:12:54Z</time>
      </trkpt>
      <trkpt lat="43.1584" lon="6.50518">
        <ele>155.6</ele>
        <time>2024-02-04T09:12:55Z</time>
      </trkpt>
      <trkpt lat="43.15841" lon="6.50517">
        <ele>155.6</ele>
        <time>2024-02-04T09:12:56Z</time>
      </trkpt>
      <trkpt lat="43.15842" lon="6.50516">
        <ele>155.6</ele>
        <time>2024-02-04T09:12:57Z</time>
      </trkpt>
      <trkpt lat="43.15842" lon="6.50516">
        <ele>155.6</ele>
        <time>2024-02-04T09:12:58Z</time>
      </trkpt>
      <trkpt lat="43.15843" lon="6.50515">
        <ele>155.5</ele>
        <time>2024-02-04T09:12:59Z</time>
      </trkpt>
      <trkpt lat="43.15844" lon="6.50514">
        <ele>155.5</ele>
        <time>2024-02-04T09:13:00Z</time>
      </trkpt>
      <trkpt lat="43.15845" lon="6.50513">
        <ele>155.5</ele>
        <time>2024-02-04T09:13:01Z</time>
      </trkpt>
      <trkpt lat="43.15845" lon="6.50512">
        <ele>155.4</ele>
        <time>2024-02-04T09:13:02Z</time>
      </trkpt>
      <trkpt lat="43.15846" lon="6.50511">
        <ele>155.4</ele>
        <time>2024-02-04T09:13:03Z</time>
      </trkpt>
      <trkpt lat="43.15847" lon="6.50511">
        <ele>155.4</ele>
        <time>2024-02-04T09:13:04Z</time>
      </trkpt>
      <trkpt lat="43.15848" lon="6.50511">
        <ele>155.3</ele>
        <time>2024-02-04T09:13:05Z</time>
      </trkpt>
      <trkpt lat="43.1585" lon="6.50511">
        <ele>155.3</ele>
        <time>2024-02-04T09:13:06Z</time>
      </trkpt>
      <trkpt lat="43.15851" lon="6.50512">
        <ele>155.1</ele>
        <time>2024-02-04T09:13:07Z</time>
      </trkpt>
      <trkpt lat="43.15852" lon="6.50512">
        <ele>155.2</ele>
        <time>2024-02-04T09:13:08Z</time>
      </trkpt>
      <trkpt lat="43.15853" lon="6.50511">
        <ele>155.2</ele>
        <time>2024-02-04T09:13:09Z</time>
      </trkpt>
      <trkpt lat="43.15854" lon="6.50511">
        <ele>155.2</ele>
        <time>2024-02-04T09:13:10Z</time>
      </trkpt>
      <trkpt lat="43.15855" lon="6.50511">
        <ele>155.2</ele>
        <time>2024-02-04T09:13:11Z</time>
      </trkpt>
      <trkpt lat="43.15856" lon="6.50511">
        <ele>155.2</ele>
        <time>2024-02-04T09:13:12Z</time>
      </trkpt>
      <trkpt lat="43.15857" lon="6.5051">
        <ele>155.1</ele>
        <time>2024-02-04T09:13:13Z</time>
      </trkpt>
      <trkpt lat="43.15858" lon="6.5051">
        <ele>155.1</ele>
        <time>2024-02-04T09:13:14Z</time>
      </trkpt>
      <trkpt lat="43.15859" lon="6.5051">
        <ele>155.1</ele>
        <time>2024-02-04T09:13:15Z</time>
      </trkpt>
      <trkpt lat="43.1586" lon="6.5051">
        <ele>155.1</ele>
        <time>2024-02-04T09:13:16Z</time>
      </trkpt>
      <trkpt lat="43.15861" lon="6.50509">
        <ele>155.1</ele>
        <time>2024-02-04T09:13:17Z</time>
      </trkpt>
      <trkpt lat="43.15862" lon="6.50508">
        <ele>155</ele>
        <time>2024-02-04T09:13:18Z</time>
      </trkpt>
      <trkpt lat="43.15863" lon="6.50506">
        <ele>154.9</ele>
        <time>2024-02-04T09:13:19Z</time>
      </trkpt>
      <trkpt lat="43.15864" lon="6.50505">
        <ele>154.8</ele>
        <time>2024-02-04T09:13:20Z</time>
      </trkpt>
      <trkpt lat="43.15865" lon="6.50503">
        <ele>154.7</ele>
        <time>2024-02-04T09:13:21Z</time>
      </trkpt>
      <trkpt lat="43.15865" lon="6.50502">
        <ele>154.5</ele>
        <time>2024-02-04T09:13:22Z</time>
      </trkpt>
      <trkpt lat="43.15866" lon="6.50501">
        <ele>154.4</ele>
        <time>2024-02-04T09:13:23Z</time>
      </trkpt>
      <trkpt lat="43.15867" lon="6.505">
        <ele>154.3</ele>
        <time>2024-02-04T09:13:24Z</time>
      </trkpt>
      <trkpt lat="43.15868" lon="6.50499">
        <ele>154.1</ele>
        <time>2024-02-04T09:13:25Z</time>
      </trkpt>
      <trkpt lat="43.1587" lon="6.50498">
        <ele>154</ele>
        <time>2024-02-04T09:13:26Z</time>
      </trkpt>
      <trkpt lat="43.15871" lon="6.50498">
        <ele>153.9</ele>
        <time>2024-02-04T09:13:27Z</time>
      </trkpt>
      <trkpt lat="43.15871" lon="6.50498">
        <ele>153.8</ele>
        <time>2024-02-04T09:13:28Z</time>
      </trkpt>
      <trkpt lat="43.15872" lon="6.50497">
        <ele>153.7</ele>
        <time>2024-02-04T09:13:29Z</time>
      </trkpt>
      <trkpt lat="43.15873" lon="6.50497">
        <ele>153.5</ele>
        <time>2024-02-04T09:13:30Z</time>
      </trkpt>
      <trkpt lat="43.15873" lon="6.50496">
        <ele>153.5</ele>
        <time>2024-02-04T09:13:31Z</time>
      </trkpt>
      <trkpt lat="43.15874" lon="6.50496">
        <ele>153.3</ele>
        <time>2024-02-04T09:13:32Z</time>
      </trkpt>
      <trkpt lat="43.15874" lon="6.50496">
        <ele>153.1</ele>
        <time>2024-02-04T09:13:33Z</time>
      </trkpt>
      <trkpt lat="43.15875" lon="6.50495">
        <ele>153</ele>
        <time>2024-02-04T09:13:34Z</time>
      </trkpt>
      <trkpt lat="43.15875" lon="6.50495">
        <ele>152.9</ele>
        <time>2024-02-04T09:13:35Z</time>
      </trkpt>
      <trkpt lat="43.15876" lon="6.50495">
        <ele>152.9</ele>
        <time>2024-02-04T09:13:36Z</time>
      </trkpt>
      <trkpt lat="43.15876" lon="6.50494">
        <ele>152.8</ele>
        <time>2024-02-04T09:13:37Z</time>
      </trkpt>
      <trkpt lat="43.15877" lon="6.50493">
        <ele>152.8</ele>
        <time>2024-02-04T09:13:38Z</time>
      </trkpt>
      <trkpt lat="43.15877" lon="6.50493">
        <ele>152.6</ele>
        <time>2024-02-04T09:13:39Z</time>
      </trkpt>
      <trkpt lat="43.15877" lon="6.50492">
        <ele>152.4</ele>
        <time>2024-02-04T09:13:40Z</time>
      </trkpt>
      <trkpt lat="43.15878" lon="6.50491">
        <ele>152.3</ele>
        <time>2024-02-04T09:13:41Z</time>
      </trkpt>
      <trkpt lat="43.15878" lon="6.5049">
        <ele>152.3</ele>
        <time>2024-02-04T09:13:42Z</time>
      </trkpt>
      <trkpt lat="43.15879" lon="6.50489">
        <ele>152.1</ele>
        <time>2024-02-04T09:13:43Z</time>
      </trkpt>
      <trkpt lat="43.15879" lon="6.50489">
        <ele>151.9</ele>
        <time>2024-02-04T09:13:44Z</time>
      </trkpt>
      <trkpt lat="43.1588" lon="6.50488">
        <ele>151.7</ele>
        <time>2024-02-04T09:13:45Z</time>
      </trkpt>
      <trkpt lat="43.15881" lon="6.50487">
        <ele>151.5</ele>
        <time>2024-02-04T09:13:46Z</time>
      </trkpt>
      <trkpt lat="43.15882" lon="6.50487">
        <ele>151.4</ele>
        <time>2024-02-04T09:13:47Z</time>
      </trkpt>
      <trkpt lat="43.15882" lon="6.50486">
        <ele>151.2</ele>
        <time>2024-02-04T09:13:48Z</time>
      </trkpt>
      <trkpt lat="43.15883" lon="6.50485">
        <ele>151.1</ele>
        <time>2024-02-04T09:13:49Z</time>
      </trkpt>
      <trkpt lat="43.15884" lon="6.50485">
        <ele>150.9</ele>
        <time>2024-02-04T09:13:50Z</time>
      </trkpt>
      <trkpt lat="43.15884" lon="6.50485">
        <ele>150.9</ele>
        <time>2024-02-04T09:13:51Z</time>
      </trkpt>
      <trkpt lat="43.15885" lon="6.50484">
        <ele>150.7</ele>
        <time>2024-02-04T09:13:52Z</time>
      </trkpt>
      <trkpt lat="43.15886" lon="6.50482">
        <ele>150.7</ele>
        <time>2024-02-04T09:13:53Z</time>
      </trkpt>
      <trkpt lat="43.15887" lon="6.50482">
        <ele>150.6</ele>
        <time>2024-02-04T09:13:54Z</time>
      </trkpt>
      <trkpt lat="43.15887" lon="6.50481">
        <ele>150.6</ele>
        <time>2024-02-04T09:13:55Z</time>
      </trkpt>
      <trkpt lat="43.15888" lon="6.5048">
        <ele>150.6</ele>
        <time>2024-02-04T09:13:56Z</time>
      </trkpt>
      <trkpt lat="43.15888" lon="6.50479">
        <ele>150.5</ele>
        <time>2024-02-04T09:13:57Z</time>
      </trkpt>
      <trkpt lat="43.15889" lon="6.50479">
        <ele>150.4</ele>
        <time>2024-02-04T09:13:58Z</time>
      </trkpt>
      <trkpt lat="43.15889" lon="6.50477">
        <ele>150.2</ele>
        <time>2024-02-04T09:13:59Z</time>
      </trkpt>
      <trkpt lat="43.1589" lon="6.50475">
        <ele>150.1</ele>
        <time>2024-02-04T09:14:00Z</time>
      </trkpt>
      <trkpt lat="43.1589" lon="6.50474">
        <ele>150</ele>
        <time>2024-02-04T09:14:01Z</time>
      </trkpt>
      <trkpt lat="43.15891" lon="6.50473">
        <ele>149.8</ele>
        <time>2024-02-04T09:14:02Z</time>
      </trkpt>
      <trkpt lat="43.15891" lon="6.50473">
        <ele>149.7</ele>
        <time>2024-02-04T09:14:03Z</time>
      </trkpt>
      <trkpt lat="43.15892" lon="6.50472">
        <ele>149.5</ele>
        <time>2024-02-04T09:14:04Z</time>
      </trkpt>
      <trkpt lat="43.15893" lon="6.50472">
        <ele>149.6</ele>
        <time>2024-02-04T09:14:05Z</time>
      </trkpt>
      <trkpt lat="43.15894" lon="6.50471">
        <ele>149.5</ele>
        <time>2024-02-04T09:14:06Z</time>
      </trkpt>
      <trkpt lat="43.15895" lon="6.5047">
        <ele>149.5</ele>
        <time>2024-02-04T09:14:07Z</time>
      </trkpt>
      <trkpt lat="43.15895" lon="6.50469">
        <ele>149.5</ele>
        <time>2024-02-04T09:14:08Z</time>
      </trkpt>
      <trkpt lat="43.15896" lon="6.50468">
        <ele>149.4</ele>
        <time>2024-02-04T09:14:09Z</time>
      </trkpt>
      <trkpt lat="43.15897" lon="6.50467">
        <ele>149.4</ele>
        <time>2024-02-04T09:14:10Z</time>
      </trkpt>
      <trkpt lat="43.15898" lon="6.50466">
        <ele>149.4</ele>
        <time>2024-02-04T09:14:11Z</time>
      </trkpt>
      <trkpt lat="43.15899" lon="6.50465">
        <ele>149.4</ele>
        <time>2024-02-04T09:14:12Z</time>
      </trkpt>
      <trkpt lat="43.159" lon="6.50465">
        <ele>149.4</ele>
        <time>2024-02-04T09:14:13Z</time>
      </trkpt>
      <trkpt lat="43.15901" lon="6.50465">
        <ele>149.5</ele>
        <time>2024-02-04T09:14:14Z</time>
      </trkpt>
      <trkpt lat="43.15902" lon="6.50464">
        <ele>149.6</ele>
        <time>2024-02-04T09:14:15Z</time>
      </trkpt>
      <trkpt lat="43.15903" lon="6.50463">
        <ele>149.6</ele>
        <time>2024-02-04T09:14:16Z</time>
      </trkpt>
      <trkpt lat="43.15903" lon="6.50462">
        <ele>149.6</ele>
        <time>2024-02-04T09:14:17Z</time>
      </trkpt>
      <trkpt lat="43.15904" lon="6.50461">
        <ele>149.5</ele>
        <time>2024-02-04T09:14:18Z</time>
      </trkpt>
      <trkpt lat="43.15904" lon="6.5046">
        <ele>149.5</ele>
        <time>2024-02-04T09:14:19Z</time>
      </trkpt>
      <trkpt lat="43.15904" lon="6.5046">
        <ele>149.4</ele>
        <time>2024-02-04T09:14:20Z</time>
      </trkpt>
      <trkpt lat="43.15904" lon="6.5046">
        <ele>149.4</ele>
        <time>2024-02-04T09:14:21Z</time>
      </trkpt>
      <trkpt lat="43.15905" lon="6.50459">
        <ele>149.3</ele>
        <time>2024-02-04T09:14:22Z</time>
      </trkpt>
      <trkpt lat="43.15906" lon="6.50458">
        <ele>149.3</ele>
        <time>2024-02-04T09:14:23Z</time>
      </trkpt>
      <trkpt lat="43.15906" lon="6.50457">
        <ele>149.2</ele>
        <time>2024-02-04T09:14:24Z</time>
      </trkpt>
      <trkpt lat="43.15907" lon="6.50456">
        <ele>149.2</ele>
        <time>2024-02-04T09:14:25Z</time>
      </trkpt>
      <trkpt lat="43.15907" lon="6.50454">
        <ele>149.1</ele>
        <time>2024-02-04T09:14:26Z</time>
      </trkpt>
      <trkpt lat="43.15908" lon="6.50453">
        <ele>149</ele>
        <time>2024-02-04T09:14:27Z</time>
      </trkpt>
      <trkpt lat="43.15908" lon="6.50452">
        <ele>149</ele>
        <time>2024-02-04T09:14:28Z</time>
      </trkpt>
      <trkpt lat="43.15909" lon="6.50451">
        <ele>149</ele>
        <time>2024-02-04T09:14:29Z</time>
      </trkpt>
      <trkpt lat="43.1591" lon="6.50449">
        <ele>149</ele>
        <time>2024-02-04T09:14:30Z</time>
      </trkpt>
      <trkpt lat="43.1591" lon="6.50448">
        <ele>148.9</ele>
        <time>2024-02-04T09:14:31Z</time>
      </trkpt>
      <trkpt lat="43.15911" lon="6.50447">
        <ele>148.9</ele>
        <time>2024-02-04T09:14:32Z</time>
      </trkpt>
      <trkpt lat="43.15911" lon="6.50446">
        <ele>148.8</ele>
        <time>2024-02-04T09:14:33Z</time>
      </trkpt>
      <trkpt lat="43.15912" lon="6.50445">
        <ele>148.9</ele>
        <time>2024-02-04T09:14:34Z</time>
      </trkpt>
      <trkpt lat="43.15912" lon="6.50445">
        <ele>149</ele>
        <time>2024-02-04T09:14:35Z</time>
      </trkpt>
      <trkpt lat="43.15913" lon="6.50444">
        <ele>149</ele>
        <time>2024-02-04T09:14:36Z</time>
      </trkpt>
      <trkpt lat="43.15913" lon="6.50443">
        <ele>149.1</ele>
        <time>2024-02-04T09:14:37Z</time>
      </trkpt>
      <trkpt lat="43.15914" lon="6.50443">
        <ele>149.2</ele>
        <time>2024-02-04T09:14:38Z</time>
      </trkpt>
      <trkpt lat="43.15915" lon="6.50442">
        <ele>149.2</ele>
        <time>2024-02-04T09:14:39Z</time>
      </trkpt>
      <trkpt lat="43.15916" lon="6.50441">
        <ele>149.3</ele>
        <time>2024-02-04T09:14:40Z</time>
      </trkpt>
      <trkpt lat="43.15916" lon="6.5044">
        <ele>149.4</ele>
        <time>2024-02-04T09:14:41Z</time>
      </trkpt>
      <trkpt lat="43.15917" lon="6.50439">
        <ele>149.5</ele>
        <time>2024-02-04T09:14:42Z</time>
      </trkpt>
      <trkpt lat="43.15918" lon="6.50437">
        <ele>149.5</ele>
        <time>2024-02-04T09:14:43Z</time>
      </trkpt>
      <trkpt lat="43.15918" lon="6.50436">
        <ele>149.6</ele>
        <time>2024-02-04T09:14:44Z</time>
      </trkpt>
      <trkpt lat="43.15919" lon="6.50436">
        <ele>149.6</ele>
        <time>2024-02-04T09:14:45Z</time>
      </trkpt>
      <trkpt lat="43.1592" lon="6.50435">
        <ele>149.7</ele>
        <time>2024-02-04T09:14:46Z</time>
      </trkpt>
      <trkpt lat="43.1592" lon="6.50434">
        <ele>149.8</ele>
        <time>2024-02-04T09:14:47Z</time>
      </trkpt>
      <trkpt lat="43.15921" lon="6.50433">
        <ele>150</ele>
        <time>2024-02-04T09:14:48Z</time>
      </trkpt>
      <trkpt lat="43.15922" lon="6.50433">
        <ele>150.1</ele>
        <time>2024-02-04T09:14:49Z</time>
      </trkpt>
      <trkpt lat="43.15923" lon="6.50432">
        <ele>150.3</ele>
        <time>2024-02-04T09:14:50Z</time>
      </trkpt>
      <trkpt lat="43.15924" lon="6.50432">
        <ele>150.4</ele>
        <time>2024-02-04T09:14:51Z</time>
      </trkpt>
      <trkpt lat="43.15924" lon="6.50431">
        <ele>150.6</ele>
        <time>2024-02-04T09:14:52Z</time>
      </trkpt>
      <trkpt lat="43.15925" lon="6.50431">
        <ele>150.8</ele>
        <time>2024-02-04T09:14:53Z</time>
      </trkpt>
      <trkpt lat="43.15926" lon="6.5043">
        <ele>151</ele>
        <time>2024-02-04T09:14:54Z</time>
      </trkpt>
      <trkpt lat="43.15927" lon="6.50429">
        <ele>151.1</ele>
        <time>2024-02-04T09:14:55Z</time>
      </trkpt>
      <trkpt lat="43.15928" lon="6.50427">
        <ele>151.2</ele>
        <time>2024-02-04T09:14:56Z</time>
      </trkpt>
      <trkpt lat="43.15928" lon="6.50427">
        <ele>151.4</ele>
        <time>2024-02-04T09:14:57Z</time>
      </trkpt>
      <trkpt lat="43.15929" lon="6.50426">
        <ele>151.5</ele>
        <time>2024-02-04T09:14:58Z</time>
      </trkpt>
      <trkpt lat="43.15929" lon="6.50425">
        <ele>151.4</ele>
        <time>2024-02-04T09:14:59Z</time>
      </trkpt>
      <trkpt lat="43.1593" lon="6.50425">
        <ele>151.5</ele>
        <time>2024-02-04T09:15:00Z</time>
      </trkpt>
      <trkpt lat="43.1593" lon="6.50425">
        <ele>151.6</ele>
        <time>2024-02-04T09:15:01Z</time>
      </trkpt>
      <trkpt lat="43.15931" lon="6.50424">
        <ele>151.7</ele>
        <time>2024-02-04T09:15:02Z</time>
      </trkpt>
      <trkpt lat="43.15932" lon="6.50424">
        <ele>151.8</ele>
        <time>2024-02-04T09:15:03Z</time>
      </trkpt>
      <trkpt lat="43.15932" lon="6.50424">
        <ele>151.9</ele>
        <time>2024-02-04T09:15:04Z</time>
      </trkpt>
      <trkpt lat="43.15933" lon="6.50424">
        <ele>152</ele>
        <time>2024-02-04T09:15:05Z</time>
      </trkpt>
      <trkpt lat="43.15934" lon="6.50424">
        <ele>152.2</ele>
        <time>2024-02-04T09:15:06Z</time>
      </trkpt>
      <trkpt lat="43.15935" lon="6.50424">
        <ele>152.4</ele>
        <time>2024-02-04T09:15:07Z</time>
      </trkpt>
      <trkpt lat="43.15936" lon="6.50424">
        <ele>152.5</ele>
        <time>2024-02-04T09:15:08Z</time>
      </trkpt>
      <trkpt lat="43.15937" lon="6.50424">
        <ele>152.7</ele>
        <time>2024-02-04T09:15:09Z</time>
      </trkpt>
      <trkpt lat="43.15938" lon="6.50424">
        <ele>152.8</ele>
        <time>2024-02-04T09:15:10Z</time>
      </trkpt>
      <trkpt lat="43.15939" lon="6.50423">
        <ele>152.9</ele>
        <time>2024-02-04T09:15:11Z</time>
      </trkpt>
      <trkpt lat="43.1594" lon="6.50422">
        <ele>153</ele>
        <time>2024-02-04T09:15:12Z</time>
      </trkpt>
      <trkpt lat="43.15941" lon="6.50422">
        <ele>153.2</ele>
        <time>2024-02-04T09:15:13Z</time>
      </trkpt>
      <trkpt lat="43.15943" lon="6.50422">
        <ele>153.2</ele>
        <time>2024-02-04T09:15:14Z</time>
      </trkpt>
      <trkpt lat="43.15943" lon="6.50421">
        <ele>153.3</ele>
        <time>2024-02-04T09:15:15Z</time>
      </trkpt>
      <trkpt lat="43.15944" lon="6.50421">
        <ele>153.5</ele>
        <time>2024-02-04T09:15:16Z</time>
      </trkpt>
      <trkpt lat="43.15945" lon="6.50421">
        <ele>153.6</ele>
        <time>2024-02-04T09:15:17Z</time>
      </trkpt>
      <trkpt lat="43.15946" lon="6.5042">
        <ele>153.7</ele>
        <time>2024-02-04T09:15:18Z</time>
      </trkpt>
      <trkpt lat="43.15947" lon="6.5042">
        <ele>153.8</ele>
        <time>2024-02-04T09:15:19Z</time>
      </trkpt>
      <trkpt lat="43.15948" lon="6.5042">
        <ele>154</ele>
        <time>2024-02-04T09:15:20Z</time>
      </trkpt>
      <trkpt lat="43.15949" lon="6.5042">
        <ele>153.9</ele>
        <time>2024-02-04T09:15:21Z</time>
      </trkpt>
      <trkpt lat="43.15949" lon="6.50419">
        <ele>153.9</ele>
        <time>2024-02-04T09:15:22Z</time>
      </trkpt>
      <trkpt lat="43.15949" lon="6.50418">
        <ele>153.9</ele>
        <time>2024-02-04T09:15:23Z</time>
      </trkpt>
      <trkpt lat="43.1595" lon="6.50417">
        <ele>153.9</ele>
        <time>2024-02-04T09:15:24Z</time>
      </trkpt>
      <trkpt lat="43.1595" lon="6.50416">
        <ele>153.9</ele>
        <time>2024-02-04T09:15:25Z</time>
      </trkpt>
      <trkpt lat="43.1595" lon="6.50415">
        <ele>153.9</ele>
        <time>2024-02-04T09:15:26Z</time>
      </trkpt>
      <trkpt lat="43.15951" lon="6.50414">
        <ele>153.9</ele>
        <time>2024-02-04T09:15:27Z</time>
      </trkpt>
      <trkpt lat="43.15951" lon="6.50413">
        <ele>153.8</ele>
        <time>2024-02-04T09:15:28Z</time>
      </trkpt>
      <trkpt lat="43.15952" lon="6.50412">
        <ele>153.8</ele>
        <time>2024-02-04T09:15:29Z</time>
      </trkpt>
      <trkpt lat="43.15953" lon="6.50412">
        <ele>153.8</ele>
        <time>2024-02-04T09:15:30Z</time>
      </trkpt>
      <trkpt lat="43.15953" lon="6.5041">
        <ele>153.8</ele>
        <time>2024-02-04T09:15:31Z</time>
      </trkpt>
      <trkpt lat="43.15954" lon="6.50409">
        <ele>153.8</ele>
        <time>2024-02-04T09:15:32Z</time>
      </trkpt>
      <trkpt lat="43.15955" lon="6.50408">
        <ele>153.6</ele>
        <time>2024-02-04T09:15:33Z</time>
      </trkpt>
      <trkpt lat="43.15956" lon="6.50407">
        <ele>153.5</ele>
        <time>2024-02-04T09:15:34Z</time>
      </trkpt>
      <trkpt lat="43.15957" lon="6.50405">
        <ele>153.4</ele>
        <time>2024-02-04T09:15:35Z</time>
      </trkpt>
      <trkpt lat="43.15958" lon="6.50404">
        <ele>153.3</ele>
        <time>2024-02-04T09:15:36Z</time>
      </trkpt>
      <trkpt lat="43.15958" lon="6.50403">
        <ele>153.3</ele>
        <time>2024-02-04T09:15:37Z</time>
      </trkpt>
      <trkpt lat="43.15959" lon="6.50402">
        <ele>153.3</ele>
        <time>2024-02-04T09:15:38Z</time>
      </trkpt>
      <trkpt lat="43.15959" lon="6.50402">
        <ele>153.2</ele>
        <time>2024-02-04T09:15:39Z</time>
      </trkpt>
      <trkpt lat="43.15959" lon="6.50401">
        <ele>153.2</ele>
        <time>2024-02-04T09:15:40Z</time>
      </trkpt>
      <trkpt lat="43.1596" lon="6.504">
        <ele>153.3</ele>
        <time>2024-02-04T09:15:41Z</time>
      </trkpt>
      <trkpt lat="43.1596" lon="6.50399">
        <ele>153.2</ele>
        <time>2024-02-04T09:15:42Z</time>
      </trkpt>
      <trkpt lat="43.15961" lon="6.50399">
        <ele>153.2</ele>
        <time>2024-02-04T09:15:43Z</time>
      </trkpt>
      <trkpt lat="43.15961" lon="6.50399">
        <ele>153.2</ele>
        <time>2024-02-04T09:15:44Z</time>
      </trkpt>
      <trkpt lat="43.15961" lon="6.50398">
        <ele>153.1</ele>
        <time>2024-02-04T09:15:45Z</time>
      </trkpt>
      <trkpt lat="43.15961" lon="6.50398">
        <ele>153.1</ele>
        <time>2024-02-04T09:15:46Z</time>
      </trkpt>
      <trkpt lat="43.15961" lon="6.50397">
        <ele>153</ele>
        <time>2024-02-04T09:15:47Z</time>
      </trkpt>
      <trkpt lat="43.15962" lon="6.50397">
        <ele>153</ele>
        <time>2024-02-04T09:15:48Z</time>
      </trkpt>
      <trkpt lat="43.15962" lon="6.50396">
        <ele>153</ele>
        <time>2024-02-04T09:15:49Z</time>
      </trkpt>
      <trkpt lat="43.15963" lon="6.50395">
        <ele>153</ele>
        <time>2024-02-04T09:15:50Z</time>
      </trkpt>
      <trkpt lat="43.15963" lon="6.50394">
        <ele>152.9</ele>
        <time>2024-02-04T09:15:51Z</time>
      </trkpt>
      <trkpt lat="43.15964" lon="6.50393">
        <ele>152.9</ele>
        <time>2024-02-04T09:15:52Z</time>
      </trkpt>
      <trkpt lat="43.15964" lon="6.50392">
        <ele>152.8</ele>
        <time>2024-02-04T09:15:53Z</time>
      </trkpt>
      <trkpt lat="43.15964" lon="6.50391">
        <ele>152.8</ele>
        <time>2024-02-04T09:15:54Z</time>
      </trkpt>
      <trkpt lat="43.15965" lon="6.50391">
        <ele>152.8</ele>
        <time>2024-02-04T09:15:55Z</time>
      </trkpt>
      <trkpt lat="43.15965" lon="6.5039">
        <ele>152.7</ele>
        <time>2024-02-04T09:15:56Z</time>
      </trkpt>
      <trkpt lat="43.15966" lon="6.5039">
        <ele>152.6</ele>
        <time>2024-02-04T09:15:57Z</time>
      </trkpt>
      <trkpt lat="43.15967" lon="6.5039">
        <ele>152.7</ele>
        <time>2024-02-04T09:15:58Z</time>
      </trkpt>
      <trkpt lat="43.15968" lon="6.50389">
        <ele>152.7</ele>
        <time>2024-02-04T09:15:59Z</time>
      </trkpt>
      <trkpt lat="43.15969" lon="6.50389">
        <ele>152.7</ele>
        <time>2024-02-04T09:16:00Z</time>
      </trkpt>
      <trkpt lat="43.15969" lon="6.50389">
        <ele>152.7</ele>
        <time>2024-02-04T09:16:01Z</time>
      </trkpt>
      <trkpt lat="43.1597" lon="6.50389">
        <ele>152.8</ele>
        <time>2024-02-04T09:16:02Z</time>
      </trkpt>
      <trkpt lat="43.15971" lon="6.50389">
        <ele>152.9</ele>
        <time>2024-02-04T09:16:03Z</time>
      </trkpt>
      <trkpt lat="43.15971" lon="6.50389">
        <ele>153</ele>
        <time>2024-02-04T09:16:04Z</time>
      </trkpt>
      <trkpt lat="43.15971" lon="6.50389">
        <ele>153.1</ele>
        <time>2024-02-04T09:16:05Z</time>
      </trkpt>
      <trkpt lat="43.15972" lon="6.50389">
        <ele>153.3</ele>
        <time>2024-02-04T09:16:06Z</time>
      </trkpt>
      <trkpt lat="43.15973" lon="6.50389">
        <ele>153.4</ele>
        <time>2024-02-04T09:16:07Z</time>
      </trkpt>
      <trkpt lat="43.15973" lon="6.50389">
        <ele>153.6</ele>
        <time>2024-02-04T09:16:08Z</time>
      </trkpt>
      <trkpt lat="43.15973" lon="6.50389">
        <ele>153.6</ele>
        <time>2024-02-04T09:16:09Z</time>
      </trkpt>
      <trkpt lat="43.15974" lon="6.50389">
        <ele>153.7</ele>
        <time>2024-02-04T09:16:10Z</time>
      </trkpt>
      <trkpt lat="43.15975" lon="6.50389">
        <ele>153.9</ele>
        <time>2024-02-04T09:16:11Z</time>
      </trkpt>
      <trkpt lat="43.15975" lon="6.50389">
        <ele>154</ele>
        <time>2024-02-04T09:16:12Z</time>
      </trkpt>
      <trkpt lat="43.15975" lon="6.50389">
        <ele>154.1</ele>
        <time>2024-02-04T09:16:13Z</time>
      </trkpt>
      <trkpt lat="43.15976" lon="6.5039">
        <ele>154.2</ele>
        <time>2024-02-04T09:16:14Z</time>
      </trkpt>
      <trkpt lat="43.15976" lon="6.5039">
        <ele>154.4</ele>
        <time>2024-02-04T09:16:15Z</time>
      </trkpt>
      <trkpt lat="43.15977" lon="6.5039">
        <ele>154.5</ele>
        <time>2024-02-04T09:16:16Z</time>
      </trkpt>
      <trkpt lat="43.15977" lon="6.5039">
        <ele>154.6</ele>
        <time>2024-02-04T09:16:17Z</time>
      </trkpt>
      <trkpt lat="43.15978" lon="6.50391">
        <ele>154.7</ele>
        <time>2024-02-04T09:16:18Z</time>
      </trkpt>
      <trkpt lat="43.15978" lon="6.50391">
        <ele>154.7</ele>
        <time>2024-02-04T09:16:19Z</time>
      </trkpt>
      <trkpt lat="43.15979" lon="6.50391">
        <ele>154.8</ele>
        <time>2024-02-04T09:16:20Z</time>
      </trkpt>
      <trkpt lat="43.15978" lon="6.50391">
        <ele>154.9</ele>
        <time>2024-02-04T09:16:21Z</time>
      </trkpt>
      <trkpt lat="43.15978" lon="6.50391">
        <ele>155</ele>
        <time>2024-02-04T09:16:22Z</time>
      </trkpt>
      <trkpt lat="43.15979" lon="6.50392">
        <ele>155.1</ele>
        <time>2024-02-04T09:16:23Z</time>
      </trkpt>
      <trkpt lat="43.15979" lon="6.50393">
        <ele>155.1</ele>
        <time>2024-02-04T09:16:24Z</time>
      </trkpt>
      <trkpt lat="43.15979" lon="6.50394">
        <ele>155.3</ele>
        <time>2024-02-04T09:16:25Z</time>
      </trkpt>
      <trkpt lat="43.1598" lon="6.50395">
        <ele>155.4</ele>
        <time>2024-02-04T09:16:26Z</time>
      </trkpt>
      <trkpt lat="43.15981" lon="6.50397">
        <ele>155.6</ele>
        <time>2024-02-04T09:16:27Z</time>
      </trkpt>
      <trkpt lat="43.15982" lon="6.50398">
        <ele>155.8</ele>
        <time>2024-02-04T09:16:28Z</time>
      </trkpt>
      <trkpt lat="43.15984" lon="6.504">
        <ele>156.2</ele>
        <time>2024-02-04T09:16:29Z</time>
      </trkpt>
      <trkpt lat="43.15986" lon="6.50401">
        <ele>156.4</ele>
        <time>2024-02-04T09:16:30Z</time>
      </trkpt>
      <trkpt lat="43.15988" lon="6.50403">
        <ele>156.7</ele>
        <time>2024-02-04T09:16:31Z</time>
      </trkpt>
      <trkpt lat="43.15989" lon="6.50404">
        <ele>157</ele>
        <time>2024-02-04T09:16:32Z</time>
      </trkpt>
      <trkpt lat="43.15989" lon="6.50405">
        <ele>157.4</ele>
        <time>2024-02-04T09:16:33Z</time>
      </trkpt>
      <trkpt lat="43.1599" lon="6.50406">
        <ele>157.8</ele>
        <time>2024-02-04T09:16:34Z</time>
      </trkpt>
      <trkpt lat="43.15991" lon="6.50406">
        <ele>157.9</ele>
        <time>2024-02-04T09:16:35Z</time>
      </trkpt>
      <trkpt lat="43.15991" lon="6.50407">
        <ele>158.1</ele>
        <time>2024-02-04T09:16:36Z</time>
      </trkpt>
      <trkpt lat="43.15992" lon="6.50407">
        <ele>158.3</ele>
        <time>2024-02-04T09:16:37Z</time>
      </trkpt>
      <trkpt lat="43.15992" lon="6.50407">
        <ele>158.5</ele>
        <time>2024-02-04T09:16:38Z</time>
      </trkpt>
      <trkpt lat="43.15992" lon="6.50407">
        <ele>158.6</ele>
        <time>2024-02-04T09:16:39Z</time>
      </trkpt>
      <trkpt lat="43.15992" lon="6.50407">
        <ele>158.8</ele>
        <time>2024-02-04T09:16:40Z</time>
      </trkpt>
      <trkpt lat="43.15992" lon="6.50408">
        <ele>158.9</ele>
        <time>2024-02-04T09:16:41Z</time>
      </trkpt>
      <trkpt lat="43.15992" lon="6.50408">
        <ele>158.9</ele>
        <time>2024-02-04T09:16:42Z</time>
      </trkpt>
      <trkpt lat="43.15992" lon="6.50408">
        <ele>159</ele>
        <time>2024-02-04T09:16:43Z</time>
      </trkpt>
      <trkpt lat="43.15992" lon="6.50408">
        <ele>159.1</ele>
        <time>2024-02-04T09:16:44Z</time>
      </trkpt>
      <trkpt lat="43.15993" lon="6.50408">
        <ele>159.1</ele>
        <time>2024-02-04T09:16:45Z</time>
      </trkpt>
      <trkpt lat="43.15993" lon="6.50408">
        <ele>159.1</ele>
        <time>2024-02-04T09:16:46Z</time>
      </trkpt>
      <trkpt lat="43.15993" lon="6.50408">
        <ele>159.2</ele>
        <time>2024-02-04T09:16:47Z</time>
      </trkpt>
      <trkpt lat="43.15993" lon="6.50409">
        <ele>159.3</ele>
        <time>2024-02-04T09:16:48Z</time>
      </trkpt>
      <trkpt lat="43.15992" lon="6.50409">
        <ele>159.3</ele>
        <time>2024-02-04T09:16:49Z</time>
      </trkpt>
      <trkpt lat="43.15992" lon="6.5041">
        <ele>159.3</ele>
        <time>2024-02-04T09:16:50Z</time>
      </trkpt>
      <trkpt lat="43.15991" lon="6.50411">
        <ele>159.4</ele>
        <time>2024-02-04T09:16:51Z</time>
      </trkpt>
      <trkpt lat="43.15991" lon="6.50412">
        <ele>159.5</ele>
        <time>2024-02-04T09:16:52Z</time>
      </trkpt>
      <trkpt lat="43.1599" lon="6.50413">
        <ele>159.5</ele>
        <time>2024-02-04T09:16:53Z</time>
      </trkpt>
      <trkpt lat="43.1599" lon="6.50414">
        <ele>159.5</ele>
        <time>2024-02-04T09:16:54Z</time>
      </trkpt>
      <trkpt lat="43.1599" lon="6.50414">
        <ele>159.4</ele>
        <time>2024-02-04T09:16:55Z</time>
      </trkpt>
      <trkpt lat="43.1599" lon="6.50413">
        <ele>159.3</ele>
        <time>2024-02-04T09:16:56Z</time>
      </trkpt>
      <trkpt lat="43.15991" lon="6.50413">
        <ele>159.3</ele>
        <time>2024-02-04T09:16:57Z</time>
      </trkpt>
      <trkpt lat="43.15992" lon="6.50411">
        <ele>159.4</ele>
        <time>2024-02-04T09:16:58Z</time>
      </trkpt>
      <trkpt lat="43.15992" lon="6.5041">
        <ele>159.4</ele>
        <time>2024-02-04T09:16:59Z</time>
      </trkpt>
      <trkpt lat="43.15993" lon="6.50409">
        <ele>159.4</ele>
        <time>2024-02-04T09:17:00Z</time>
      </trkpt>
      <trkpt lat="43.15993" lon="6.50407">
        <ele>159.4</ele>
        <time>2024-02-04T09:17:01Z</time>
      </trkpt>
      <trkpt lat="43.15993" lon="6.50406">
        <ele>159.4</ele>
        <time>2024-02-04T09:17:02Z</time>
      </trkpt>
      <trkpt lat="43.15992" lon="6.50405">
        <ele>159.3</ele>
        <time>2024-02-04T09:17:03Z</time>
      </trkpt>
      <trkpt lat="43.15992" lon="6.50404">
        <ele>159.1</ele>
        <time>2024-02-04T09:17:04Z</time>
      </trkpt>
      <trkpt lat="43.15991" lon="6.50403">
        <ele>158.9</ele>
        <time>2024-02-04T09:17:05Z</time>
      </trkpt>
      <trkpt lat="43.1599" lon="6.50403">
        <ele>158.8</ele>
        <time>2024-02-04T09:17:06Z</time>
      </trkpt>
      <trkpt lat="43.1599" lon="6.50403">
        <ele>158.8</ele>
        <time>2024-02-04T09:17:07Z</time>
      </trkpt>
      <trkpt lat="43.1599" lon="6.50402">
        <ele>158.8</ele>
        <time>2024-02-04T09:17:08Z</time>
      </trkpt>
      <trkpt lat="43.15989" lon="6.50401">
        <ele>158.7</ele>
        <time>2024-02-04T09:17:09Z</time>
      </trkpt>
      <trkpt lat="43.15989" lon="6.504">
        <ele>158.6</ele>
        <time>2024-02-04T09:17:10Z</time>
      </trkpt>
      <trkpt lat="43.15988" lon="6.504">
        <ele>158.5</ele>
        <time>2024-02-04T09:17:11Z</time>
      </trkpt>
      <trkpt lat="43.15988" lon="6.50399">
        <ele>158.3</ele>
        <time>2024-02-04T09:17:12Z</time>
      </trkpt>
      <trkpt lat="43.15987" lon="6.50398">
        <ele>158.1</ele>
        <time>2024-02-04T09:17:13Z</time>
      </trkpt>
      <trkpt lat="43.15987" lon="6.50397">
        <ele>157.9</ele>
        <time>2024-02-04T09:17:14Z</time>
      </trkpt>
      <trkpt lat="43.15987" lon="6.50395">
        <ele>157.7</ele>
        <time>2024-02-04T09:17:15Z</time>
      </trkpt>
      <trkpt lat="43.15986" lon="6.50394">
        <ele>157.5</ele>
        <time>2024-02-04T09:17:16Z</time>
      </trkpt>
      <trkpt lat="43.15986" lon="6.50393">
        <ele>157.2</ele>
        <time>2024-02-04T09:17:17Z</time>
      </trkpt>
      <trkpt lat="43.15985" lon="6.50392">
        <ele>157</ele>
        <time>2024-02-04T09:17:18Z</time>
      </trkpt>
      <trkpt lat="43.15984" lon="6.50391">
        <ele>156.7</ele>
        <time>2024-02-04T09:17:19Z</time>
      </trkpt>
      <trkpt lat="43.15984" lon="6.5039">
        <ele>156.5</ele>
        <time>2024-02-04T09:17:20Z</time>
      </trkpt>
      <trkpt lat="43.15983" lon="6.50389">
        <ele>156.3</ele>
        <time>2024-02-04T09:17:21Z</time>
      </trkpt>
      <trkpt lat="43.15983" lon="6.50388">
        <ele>156.1</ele>
        <time>2024-02-04T09:17:22Z</time>
      </trkpt>
      <trkpt lat="43.15984" lon="6.50387">
        <ele>155.9</ele>
        <time>2024-02-04T09:17:23Z</time>
      </trkpt>
      <trkpt lat="43.15984" lon="6.50385">
        <ele>155.8</ele>
        <time>2024-02-04T09:17:24Z</time>
      </trkpt>
      <trkpt lat="43.15985" lon="6.50383">
        <ele>155.6</ele>
        <time>2024-02-04T09:17:25Z</time>
      </trkpt>
      <trkpt lat="43.15985" lon="6.50382">
        <ele>155.5</ele>
        <time>2024-02-04T09:17:26Z</time>
      </trkpt>
      <trkpt lat="43.15985" lon="6.5038">
        <ele>155.5</ele>
        <time>2024-02-04T09:17:27Z</time>
      </trkpt>
      <trkpt lat="43.15984" lon="6.50378">
        <ele>155.4</ele>
        <time>2024-02-04T09:17:28Z</time>
      </trkpt>
      <trkpt lat="43.15984" lon="6.50377">
        <ele>155.3</ele>
        <time>2024-02-04T09:17:29Z</time>
      </trkpt>
      <trkpt lat="43.15984" lon="6.50376">
        <ele>155.2</ele>
        <time>2024-02-04T09:17:30Z</time>
      </trkpt>
      <trkpt lat="43.15985" lon="6.50374">
        <ele>155.1</ele>
        <time>2024-02-04T09:17:31Z</time>
      </trkpt>
      <trkpt lat="43.15985" lon="6.50373">
        <ele>155</ele>
        <time>2024-02-04T09:17:32Z</time>
      </trkpt>
      <trkpt lat="43.15985" lon="6.50372">
        <ele>154.8</ele>
        <time>2024-02-04T09:17:33Z</time>
      </trkpt>
      <trkpt lat="43.15985" lon="6.50371">
        <ele>154.7</ele>
        <time>2024-02-04T09:17:34Z</time>
      </trkpt>
      <trkpt lat="43.15986" lon="6.5037">
        <ele>154.5</ele>
        <time>2024-02-04T09:17:35Z</time>
      </trkpt>
      <trkpt lat="43.15986" lon="6.50369">
        <ele>154.4</ele>
        <time>2024-02-04T09:17:36Z</time>
      </trkpt>
      <trkpt lat="43.15987" lon="6.50367">
        <ele>154.2</ele>
        <time>2024-02-04T09:17:37Z</time>
      </trkpt>
      <trkpt lat="43.15987" lon="6.50366">
        <ele>154.1</ele>
        <time>2024-02-04T09:17:38Z</time>
      </trkpt>
      <trkpt lat="43.15988" lon="6.50365">
        <ele>154.1</ele>
        <time>2024-02-04T09:17:39Z</time>
      </trkpt>
      <trkpt lat="43.15988" lon="6.50363">
        <ele>154</ele>
        <time>2024-02-04T09:17:40Z</time>
      </trkpt>
      <trkpt lat="43.15989" lon="6.50362">
        <ele>153.8</ele>
        <time>2024-02-04T09:17:41Z</time>
      </trkpt>
      <trkpt lat="43.15989" lon="6.50361">
        <ele>153.6</ele>
        <time>2024-02-04T09:17:42Z</time>
      </trkpt>
      <trkpt lat="43.15989" lon="6.50359">
        <ele>153.5</ele>
        <time>2024-02-04T09:17:43Z</time>
      </trkpt>
      <trkpt lat="43.15989" lon="6.50358">
        <ele>153.5</ele>
        <time>2024-02-04T09:17:44Z</time>
      </trkpt>
      <trkpt lat="43.15989" lon="6.50356">
        <ele>153.4</ele>
        <time>2024-02-04T09:17:45Z</time>
      </trkpt>
      <trkpt lat="43.15989" lon="6.50355">
        <ele>153.3</ele>
        <time>2024-02-04T09:17:46Z</time>
      </trkpt>
      <trkpt lat="43.15989" lon="6.50353">
        <ele>153.2</ele>
        <time>2024-02-04T09:17:47Z</time>
      </trkpt>
      <trkpt lat="43.1599" lon="6.50352">
        <ele>153.1</ele>
        <time>2024-02-04T09:17:48Z</time>
      </trkpt>
      <trkpt lat="43.1599" lon="6.5035">
        <ele>153</ele>
        <time>2024-02-04T09:17:49Z</time>
      </trkpt>
      <trkpt lat="43.15991" lon="6.50348">
        <ele>152.9</ele>
        <time>2024-02-04T09:17:50Z</time>
      </trkpt>
      <trkpt lat="43.15991" lon="6.50347">
        <ele>152.8</ele>
        <time>2024-02-04T09:17:51Z</time>
      </trkpt>
      <trkpt lat="43.15991" lon="6.50345">
        <ele>152.7</ele>
        <time>2024-02-04T09:17:52Z</time>
      </trkpt>
      <trkpt lat="43.15991" lon="6.50343">
        <ele>152.6</ele>
        <time>2024-02-04T09:17:53Z</time>
      </trkpt>
      <trkpt lat="43.15992" lon="6.50342">
        <ele>152.5</ele>
        <time>2024-02-04T09:17:54Z</time>
      </trkpt>
      <trkpt lat="43.15992" lon="6.5034">
        <ele>152.5</ele>
        <time>2024-02-04T09:17:55Z</time>
      </trkpt>
      <trkpt lat="43.15992" lon="6.50338">
        <ele>152.3</ele>
        <time>2024-02-04T09:17:56Z</time>
      </trkpt>
      <trkpt lat="43.15992" lon="6.50337">
        <ele>152.2</ele>
        <time>2024-02-04T09:17:57Z</time>
      </trkpt>
      <trkpt lat="43.15992" lon="6.50335">
        <ele>152</ele>
        <time>2024-02-04T09:17:58Z</time>
      </trkpt>
      <trkpt lat="43.15991" lon="6.50334">
        <ele>151.8</ele>
        <time>2024-02-04T09:17:59Z</time>
      </trkpt>
      <trkpt lat="43.15991" lon="6.50332">
        <ele>151.6</ele>
        <time>2024-02-04T09:18:00Z</time>
      </trkpt>
      <trkpt lat="43.15991" lon="6.50331">
        <ele>151.5</ele>
        <time>2024-02-04T09:18:01Z</time>
      </trkpt>
      <trkpt lat="43.1599" lon="6.5033">
        <ele>151.2</ele>
        <time>2024-02-04T09:18:02Z</time>
      </trkpt>
      <trkpt lat="43.1599" lon="6.50328">
        <ele>150.9</ele>
        <time>2024-02-04T09:18:03Z</time>
      </trkpt>
      <trkpt lat="43.15989" lon="6.50326">
        <ele>150.6</ele>
        <time>2024-02-04T09:18:04Z</time>
      </trkpt>
      <trkpt lat="43.15989" lon="6.50325">
        <ele>150.4</ele>
        <time>2024-02-04T09:18:05Z</time>
      </trkpt>
      <trkpt lat="43.15989" lon="6.50323">
        <ele>150.1</ele>
        <time>2024-02-04T09:18:06Z</time>
      </trkpt>
      <trkpt lat="43.15989" lon="6.50322">
        <ele>149.8</ele>
        <time>2024-02-04T09:18:07Z</time>
      </trkpt>
      <trkpt lat="43.15989" lon="6.5032">
        <ele>149.6</ele>
        <time>2024-02-04T09:18:08Z</time>
      </trkpt>
      <trkpt lat="43.15989" lon="6.50319">
        <ele>149.4</ele>
        <time>2024-02-04T09:18:09Z</time>
      </trkpt>
      <trkpt lat="43.15988" lon="6.50317">
        <ele>149.1</ele>
        <time>2024-02-04T09:18:10Z</time>
      </trkpt>
      <trkpt lat="43.15986" lon="6.50315">
        <ele>148.9</ele>
        <time>2024-02-04T09:18:11Z</time>
      </trkpt>
      <trkpt lat="43.15986" lon="6.50314">
        <ele>148.7</ele>
        <time>2024-02-04T09:18:12Z</time>
      </trkpt>
      <trkpt lat="43.15986" lon="6.50313">
        <ele>148.3</ele>
        <time>2024-02-04T09:18:13Z</time>
      </trkpt>
      <trkpt lat="43.15986" lon="6.50311">
        <ele>148.1</ele>
        <time>2024-02-04T09:18:14Z</time>
      </trkpt>
      <trkpt lat="43.15985" lon="6.5031">
        <ele>147.8</ele>
        <time>2024-02-04T09:18:15Z</time>
      </trkpt>
      <trkpt lat="43.15986" lon="6.50309">
        <ele>147.6</ele>
        <time>2024-02-04T09:18:16Z</time>
      </trkpt>
      <trkpt lat="43.15986" lon="6.50308">
        <ele>147.3</ele>
        <time>2024-02-04T09:18:17Z</time>
      </trkpt>
      <trkpt lat="43.15986" lon="6.50307">
        <ele>147.1</ele>
        <time>2024-02-04T09:18:18Z</time>
      </trkpt>
      <trkpt lat="43.15985" lon="6.50306">
        <ele>146.9</ele>
        <time>2024-02-04T09:18:19Z</time>
      </trkpt>
      <trkpt lat="43.15985" lon="6.50306">
        <ele>146.8</ele>
        <time>2024-02-04T09:18:20Z</time>
      </trkpt>
      <trkpt lat="43.15985" lon="6.50305">
        <ele>146.6</ele>
        <time>2024-02-04T09:18:21Z</time>
      </trkpt>
      <trkpt lat="43.15985" lon="6.50304">
        <ele>146.5</ele>
        <time>2024-02-04T09:18:22Z</time>
      </trkpt>
      <trkpt lat="43.15984" lon="6.50303">
        <ele>146.4</ele>
        <time>2024-02-04T09:18:23Z</time>
      </trkpt>
      <trkpt lat="43.15984" lon="6.50303">
        <ele>146.3</ele>
        <time>2024-02-04T09:18:24Z</time>
      </trkpt>
      <trkpt lat="43.15984" lon="6.50302">
        <ele>146.2</ele>
        <time>2024-02-04T09:18:25Z</time>
      </trkpt>
      <trkpt lat="43.15984" lon="6.50301">
        <ele>145.9</ele>
        <time>2024-02-04T09:18:26Z</time>
      </trkpt>
      <trkpt lat="43.15983" lon="6.503">
        <ele>145.7</ele>
        <time>2024-02-04T09:18:27Z</time>
      </trkpt>
      <trkpt lat="43.15982" lon="6.50299">
        <ele>145.5</ele>
        <time>2024-02-04T09:18:28Z</time>
      </trkpt>
      <trkpt lat="43.15982" lon="6.50298">
        <ele>145.3</ele>
        <time>2024-02-04T09:18:29Z</time>
      </trkpt>
      <trkpt lat="43.15982" lon="6.50297">
        <ele>145.1</ele>
        <time>2024-02-04T09:18:30Z</time>
      </trkpt>
      <trkpt lat="43.15982" lon="6.50296">
        <ele>145</ele>
        <time>2024-02-04T09:18:31Z</time>
      </trkpt>
      <trkpt lat="43.15982" lon="6.50296">
        <ele>144.9</ele>
        <time>2024-02-04T09:18:32Z</time>
      </trkpt>
      <trkpt lat="43.15981" lon="6.50295">
        <ele>144.8</ele>
        <time>2024-02-04T09:18:33Z</time>
      </trkpt>
      <trkpt lat="43.15981" lon="6.50294">
        <ele>144.7</ele>
        <time>2024-02-04T09:18:34Z</time>
      </trkpt>
      <trkpt lat="43.15981" lon="6.50293">
        <ele>144.6</ele>
        <time>2024-02-04T09:18:35Z</time>
      </trkpt>
      <trkpt lat="43.1598" lon="6.50292">
        <ele>144.4</ele>
        <time>2024-02-04T09:18:36Z</time>
      </trkpt>
      <trkpt lat="43.1598" lon="6.50291">
        <ele>144.3</ele>
        <time>2024-02-04T09:18:37Z</time>
      </trkpt>
      <trkpt lat="43.15979" lon="6.5029">
        <ele>144.2</ele>
        <time>2024-02-04T09:18:38Z</time>
      </trkpt>
      <trkpt lat="43.15979" lon="6.50289">
        <ele>144</ele>
        <time>2024-02-04T09:18:39Z</time>
      </trkpt>
      <trkpt lat="43.15979" lon="6.50288">
        <ele>143.8</ele>
        <time>2024-02-04T09:18:40Z</time>
      </trkpt>
      <trkpt lat="43.15978" lon="6.50286">
        <ele>143.6</ele>
        <time>2024-02-04T09:18:41Z</time>
      </trkpt>
      <trkpt lat="43.15978" lon="6.50285">
        <ele>143.5</ele>
        <time>2024-02-04T09:18:42Z</time>
      </trkpt>
      <trkpt lat="43.15978" lon="6.50283">
        <ele>143.3</ele>
        <time>2024-02-04T09:18:43Z</time>
      </trkpt>
      <trkpt lat="43.15977" lon="6.50282">
        <ele>143.1</ele>
        <time>2024-02-04T09:18:44Z</time>
      </trkpt>
      <trkpt lat="43.15977" lon="6.50281">
        <ele>142.9</ele>
        <time>2024-02-04T09:18:45Z</time>
      </trkpt>
      <trkpt lat="43.15977" lon="6.5028">
        <ele>142.6</ele>
        <time>2024-02-04T09:18:46Z</time>
      </trkpt>
      <trkpt lat="43.15976" lon="6.50279">
        <ele>142.3</ele>
        <time>2024-02-04T09:18:47Z</time>
      </trkpt>
      <trkpt lat="43.15976" lon="6.50279">
        <ele>142.1</ele>
        <time>2024-02-04T09:18:48Z</time>
      </trkpt>
      <trkpt lat="43.15975" lon="6.50278">
        <ele>141.9</ele>
        <time>2024-02-04T09:18:49Z</time>
      </trkpt>
      <trkpt lat="43.15975" lon="6.50278">
        <ele>141.7</ele>
        <time>2024-02-04T09:18:50Z</time>
      </trkpt>
      <trkpt lat="43.15974" lon="6.50277">
        <ele>141.5</ele>
        <time>2024-02-04T09:18:51Z</time>
      </trkpt>
      <trkpt lat="43.15974" lon="6.50275">
        <ele>141.3</ele>
        <time>2024-02-04T09:18:52Z</time>
      </trkpt>
      <trkpt lat="43.15973" lon="6.50274">
        <ele>141.2</ele>
        <time>2024-02-04T09:18:53Z</time>
      </trkpt>
      <trkpt lat="43.15973" lon="6.50273">
        <ele>141</ele>
        <time>2024-02-04T09:18:54Z</time>
      </trkpt>
      <trkpt lat="43.15973" lon="6.50272">
        <ele>140.8</ele>
        <time>2024-02-04T09:18:55Z</time>
      </trkpt>
      <trkpt lat="43.15972" lon="6.50271">
        <ele>140.6</ele>
        <time>2024-02-04T09:18:56Z</time>
      </trkpt>
      <trkpt lat="43.15971" lon="6.50269">
        <ele>138.6</ele>
        <time>2024-02-04T09:18:57Z</time>
      </trkpt>
      <trkpt lat="43.1597" lon="6.50268">
        <ele>138.1</ele>
        <time>2024-02-04T09:18:58Z</time>
      </trkpt>
      <trkpt lat="43.1597" lon="6.50266">
        <ele>142</ele>
        <time>2024-02-04T09:18:59Z</time>
      </trkpt>
      <trkpt lat="43.15968" lon="6.50267">
        <ele>139.9</ele>
        <time>2024-02-04T09:19:00Z</time>
      </trkpt>
      <trkpt lat="43.15968" lon="6.50266">
        <ele>139.6</ele>
        <time>2024-02-04T09:19:01Z</time>
      </trkpt>
      <trkpt lat="43.15967" lon="6.50265">
        <ele>139.3</ele>
        <time>2024-02-04T09:19:02Z</time>
      </trkpt>
      <trkpt lat="43.15966" lon="6.50264">
        <ele>139.1</ele>
        <time>2024-02-04T09:19:03Z</time>
      </trkpt>
      <trkpt lat="43.15966" lon="6.50263">
        <ele>138.8</ele>
        <time>2024-02-04T09:19:04Z</time>
      </trkpt>
      <trkpt lat="43.15966" lon="6.50262">
        <ele>137.7</ele>
        <time>2024-02-04T09:19:05Z</time>
      </trkpt>
      <trkpt lat="43.15965" lon="6.5026">
        <ele>137.9</ele>
        <time>2024-02-04T09:19:06Z</time>
      </trkpt>
      <trkpt lat="43.15963" lon="6.50259">
        <ele>138.2</ele>
        <time>2024-02-04T09:19:08Z</time>
      </trkpt>
      <trkpt lat="43.15962" lon="6.50257">
        <ele>138.2</ele>
        <time>2024-02-04T09:19:09Z</time>
      </trkpt>
      <trkpt lat="43.15962" lon="6.50255">
        <ele>138.1</ele>
        <time>2024-02-04T09:19:10Z</time>
      </trkpt>
      <trkpt lat="43.15961" lon="6.50254">
        <ele>138</ele>
        <time>2024-02-04T09:19:11Z</time>
      </trkpt>
      <trkpt lat="43.15961" lon="6.50252">
        <ele>138</ele>
        <time>2024-02-04T09:19:12Z</time>
      </trkpt>
      <trkpt lat="43.1596" lon="6.50251">
        <ele>137.9</ele>
        <time>2024-02-04T09:19:13Z</time>
      </trkpt>
      <trkpt lat="43.15958" lon="6.5025">
        <ele>138.1</ele>
        <time>2024-02-04T09:19:14Z</time>
      </trkpt>
      <trkpt lat="43.15958" lon="6.50248">
        <ele>138.4</ele>
        <time>2024-02-04T09:19:15Z</time>
      </trkpt>
      <trkpt lat="43.15957" lon="6.50247">
        <ele>138.2</ele>
        <time>2024-02-04T09:19:16Z</time>
      </trkpt>
      <trkpt lat="43.15957" lon="6.50245">
        <ele>137.9</ele>
        <time>2024-02-04T09:19:17Z</time>
      </trkpt>
      <trkpt lat="43.15957" lon="6.50244">
        <ele>137.7</ele>
        <time>2024-02-04T09:19:18Z</time>
      </trkpt>
      <trkpt lat="43.15956" lon="6.50243">
        <ele>137.5</ele>
        <time>2024-02-04T09:19:19Z</time>
      </trkpt>
      <trkpt lat="43.15956" lon="6.50242">
        <ele>137.3</ele>
        <time>2024-02-04T09:19:20Z</time>
      </trkpt>
      <trkpt lat="43.15955" lon="6.50241">
        <ele>137</ele>
        <time>2024-02-04T09:19:21Z</time>
      </trkpt>
      <trkpt lat="43.15955" lon="6.5024">
        <ele>136.9</ele>
        <time>2024-02-04T09:19:22Z</time>
      </trkpt>
      <trkpt lat="43.15954" lon="6.50238">
        <ele>136.7</ele>
        <time>2024-02-04T09:19:23Z</time>
      </trkpt>
      <trkpt lat="43.15954" lon="6.50237">
        <ele>136.6</ele>
        <time>2024-02-04T09:19:24Z</time>
      </trkpt>
      <trkpt lat="43.15953" lon="6.50236">
        <ele>136.3</ele>
        <time>2024-02-04T09:19:25Z</time>
      </trkpt>
      <trkpt lat="43.15952" lon="6.50235">
        <ele>136.1</ele>
        <time>2024-02-04T09:19:26Z</time>
      </trkpt>
      <trkpt lat="43.15951" lon="6.50235">
        <ele>135.9</ele>
        <time>2024-02-04T09:19:27Z</time>
      </trkpt>
      <trkpt lat="43.1595" lon="6.50235">
        <ele>136</ele>
        <time>2024-02-04T09:19:28Z</time>
      </trkpt>
      <trkpt lat="43.1595" lon="6.50234">
        <ele>135.9</ele>
        <time>2024-02-04T09:19:29Z</time>
      </trkpt>
      <trkpt lat="43.1595" lon="6.50233">
        <ele>135.9</ele>
        <time>2024-02-04T09:19:30Z</time>
      </trkpt>
      <trkpt lat="43.15949" lon="6.50232">
        <ele>135.9</ele>
        <time>2024-02-04T09:19:31Z</time>
      </trkpt>
      <trkpt lat="43.15949" lon="6.50231">
        <ele>135.8</ele>
        <time>2024-02-04T09:19:32Z</time>
      </trkpt>
      <trkpt lat="43.15948" lon="6.5023">
        <ele>135.6</ele>
        <time>2024-02-04T09:19:33Z</time>
      </trkpt>
      <trkpt lat="43.15947" lon="6.50229">
        <ele>135.4</ele>
        <time>2024-02-04T09:19:34Z</time>
      </trkpt>
      <trkpt lat="43.15946" lon="6.50228">
        <ele>135.3</ele>
        <time>2024-02-04T09:19:35Z</time>
      </trkpt>
      <trkpt lat="43.15946" lon="6.50228">
        <ele>135.1</ele>
        <time>2024-02-04T09:19:36Z</time>
      </trkpt>
      <trkpt lat="43.15945" lon="6.50227">
        <ele>135</ele>
        <time>2024-02-04T09:19:37Z</time>
      </trkpt>
      <trkpt lat="43.15945" lon="6.50225">
        <ele>134.9</ele>
        <time>2024-02-04T09:19:38Z</time>
      </trkpt>
      <trkpt lat="43.15945" lon="6.50224">
        <ele>134.8</ele>
        <time>2024-02-04T09:19:39Z</time>
      </trkpt>
      <trkpt lat="43.15944" lon="6.50223">
        <ele>134.7</ele>
        <time>2024-02-04T09:19:40Z</time>
      </trkpt>
      <trkpt lat="43.15944" lon="6.50221">
        <ele>134.6</ele>
        <time>2024-02-04T09:19:41Z</time>
      </trkpt>
      <trkpt lat="43.15943" lon="6.5022">
        <ele>134.5</ele>
        <time>2024-02-04T09:19:42Z</time>
      </trkpt>
      <trkpt lat="43.15943" lon="6.50219">
        <ele>134.4</ele>
        <time>2024-02-04T09:19:43Z</time>
      </trkpt>
      <trkpt lat="43.15942" lon="6.50218">
        <ele>134.2</ele>
        <time>2024-02-04T09:19:44Z</time>
      </trkpt>
      <trkpt lat="43.15941" lon="6.50217">
        <ele>134</ele>
        <time>2024-02-04T09:19:45Z</time>
      </trkpt>
      <trkpt lat="43.15941" lon="6.50215">
        <ele>133.9</ele>
        <time>2024-02-04T09:19:46Z</time>
      </trkpt>
      <trkpt lat="43.15941" lon="6.50214">
        <ele>133.8</ele>
        <time>2024-02-04T09:19:47Z</time>
      </trkpt>
      <trkpt lat="43.1594" lon="6.50212">
        <ele>133.7</ele>
        <time>2024-02-04T09:19:48Z</time>
      </trkpt>
      <trkpt lat="43.15939" lon="6.5021">
        <ele>133.5</ele>
        <time>2024-02-04T09:19:49Z</time>
      </trkpt>
      <trkpt lat="43.15937" lon="6.5021">
        <ele>133.4</ele>
        <time>2024-02-04T09:19:50Z</time>
      </trkpt>
      <trkpt lat="43.15937" lon="6.50209">
        <ele>133.3</ele>
        <time>2024-02-04T09:19:51Z</time>
      </trkpt>
      <trkpt lat="43.15936" lon="6.50208">
        <ele>133.2</ele>
        <time>2024-02-04T09:19:52Z</time>
      </trkpt>
      <trkpt lat="43.15935" lon="6.50207">
        <ele>133.1</ele>
        <time>2024-02-04T09:19:53Z</time>
      </trkpt>
      <trkpt lat="43.15934" lon="6.50206">
        <ele>133</ele>
        <time>2024-02-04T09:19:54Z</time>
      </trkpt>
      <trkpt lat="43.15934" lon="6.50204">
        <ele>132.8</ele>
        <time>2024-02-04T09:19:55Z</time>
      </trkpt>
      <trkpt lat="43.15933" lon="6.50203">
        <ele>132.6</ele>
        <time>2024-02-04T09:19:56Z</time>
      </trkpt>
      <trkpt lat="43.15932" lon="6.50201">
        <ele>132.5</ele>
        <time>2024-02-04T09:19:57Z</time>
      </trkpt>
      <trkpt lat="43.15932" lon="6.502">
        <ele>132.3</ele>
        <time>2024-02-04T09:19:58Z</time>
      </trkpt>
      <trkpt lat="43.15931" lon="6.50198">
        <ele>132.1</ele>
        <time>2024-02-04T09:19:59Z</time>
      </trkpt>
      <trkpt lat="43.1593" lon="6.50197">
        <ele>132</ele>
        <time>2024-02-04T09:20:00Z</time>
      </trkpt>
      <trkpt lat="43.1593" lon="6.50195">
        <ele>131.9</ele>
        <time>2024-02-04T09:20:01Z</time>
      </trkpt>
      <trkpt lat="43.15929" lon="6.50193">
        <ele>131.8</ele>
        <time>2024-02-04T09:20:02Z</time>
      </trkpt>
      <trkpt lat="43.15929" lon="6.50192">
        <ele>131.7</ele>
        <time>2024-02-04T09:20:03Z</time>
      </trkpt>
      <trkpt lat="43.15928" lon="6.5019">
        <ele>131.6</ele>
        <time>2024-02-04T09:20:04Z</time>
      </trkpt>
      <trkpt lat="43.15927" lon="6.50189">
        <ele>131.6</ele>
        <time>2024-02-04T09:20:05Z</time>
      </trkpt>
      <trkpt lat="43.15927" lon="6.50188">
        <ele>131.5</ele>
        <time>2024-02-04T09:20:06Z</time>
      </trkpt>
      <trkpt lat="43.15926" lon="6.50187">
        <ele>131.5</ele>
        <time>2024-02-04T09:20:07Z</time>
      </trkpt>
      <trkpt lat="43.15926" lon="6.50187">
        <ele>131.3</ele>
        <time>2024-02-04T09:20:08Z</time>
      </trkpt>
      <trkpt lat="43.15925" lon="6.50186">
        <ele>131.2</ele>
        <time>2024-02-04T09:20:09Z</time>
      </trkpt>
      <trkpt lat="43.15925" lon="6.50185">
        <ele>131.1</ele>
        <time>2024-02-04T09:20:10Z</time>
      </trkpt>
      <trkpt lat="43.15924" lon="6.50183">
        <ele>131.1</ele>
        <time>2024-02-04T09:20:11Z</time>
      </trkpt>
      <trkpt lat="43.15924" lon="6.50182">
        <ele>131</ele>
        <time>2024-02-04T09:20:12Z</time>
      </trkpt>
      <trkpt lat="43.15923" lon="6.50181">
        <ele>131</ele>
        <time>2024-02-04T09:20:13Z</time>
      </trkpt>
      <trkpt lat="43.15923" lon="6.5018">
        <ele>130.9</ele>
        <time>2024-02-04T09:20:14Z</time>
      </trkpt>
      <trkpt lat="43.15922" lon="6.50178">
        <ele>130.9</ele>
        <time>2024-02-04T09:20:15Z</time>
      </trkpt>
      <trkpt lat="43.15922" lon="6.50177">
        <ele>130.7</ele>
        <time>2024-02-04T09:20:16Z</time>
      </trkpt>
      <trkpt lat="43.15921" lon="6.50176">
        <ele>130.7</ele>
        <time>2024-02-04T09:20:17Z</time>
      </trkpt>
      <trkpt lat="43.1592" lon="6.50174">
        <ele>130.6</ele>
        <time>2024-02-04T09:20:18Z</time>
      </trkpt>
      <trkpt lat="43.1592" lon="6.50173">
        <ele>130.6</ele>
        <time>2024-02-04T09:20:19Z</time>
      </trkpt>
      <trkpt lat="43.15919" lon="6.50172">
        <ele>130.4</ele>
        <time>2024-02-04T09:20:20Z</time>
      </trkpt>
      <trkpt lat="43.15919" lon="6.50171">
        <ele>130.3</ele>
        <time>2024-02-04T09:20:21Z</time>
      </trkpt>
      <trkpt lat="43.15918" lon="6.50169">
        <ele>130.2</ele>
        <time>2024-02-04T09:20:22Z</time>
      </trkpt>
      <trkpt lat="43.15918" lon="6.50168">
        <ele>130.2</ele>
        <time>2024-02-04T09:20:23Z</time>
      </trkpt>
      <trkpt lat="43.15917" lon="6.50167">
        <ele>130.1</ele>
        <time>2024-02-04T09:20:24Z</time>
      </trkpt>
      <trkpt lat="43.15917" lon="6.50166">
        <ele>130.1</ele>
        <time>2024-02-04T09:20:25Z</time>
      </trkpt>
      <trkpt lat="43.15916" lon="6.50165">
        <ele>130.2</ele>
        <time>2024-02-04T09:20:26Z</time>
      </trkpt>
      <trkpt lat="43.15916" lon="6.50164">
        <ele>130.1</ele>
        <time>2024-02-04T09:20:27Z</time>
      </trkpt>
      <trkpt lat="43.15915" lon="6.50163">
        <ele>130</ele>
        <time>2024-02-04T09:20:28Z</time>
      </trkpt>
      <trkpt lat="43.15915" lon="6.50162">
        <ele>130</ele>
        <time>2024-02-04T09:20:29Z</time>
      </trkpt>
      <trkpt lat="43.15914" lon="6.5016">
        <ele>129.9</ele>
        <time>2024-02-04T09:20:30Z</time>
      </trkpt>
      <trkpt lat="43.15914" lon="6.50158">
        <ele>129.9</ele>
        <time>2024-02-04T09:20:31Z</time>
      </trkpt>
      <trkpt lat="43.15914" lon="6.50157">
        <ele>129.8</ele>
        <time>2024-02-04T09:20:32Z</time>
      </trkpt>
      <trkpt lat="43.15913" lon="6.50156">
        <ele>129.7</ele>
        <time>2024-02-04T09:20:33Z</time>
      </trkpt>
      <trkpt lat="43.15913" lon="6.50155">
        <ele>129.7</ele>
        <time>2024-02-04T09:20:34Z</time>
      </trkpt>
      <trkpt lat="43.15912" lon="6.50154">
        <ele>129.6</ele>
        <time>2024-02-04T09:20:35Z</time>
      </trkpt>
      <trkpt lat="43.15912" lon="6.50153">
        <ele>129.6</ele>
        <time>2024-02-04T09:20:36Z</time>
      </trkpt>
      <trkpt lat="43.15912" lon="6.50151">
        <ele>129.6</ele>
        <time>2024-02-04T09:20:37Z</time>
      </trkpt>
      <trkpt lat="43.15911" lon="6.50151">
        <ele>129.4</ele>
        <time>2024-02-04T09:20:38Z</time>
      </trkpt>
      <trkpt lat="43.15911" lon="6.5015">
        <ele>129.3</ele>
        <time>2024-02-04T09:20:39Z</time>
      </trkpt>
      <trkpt lat="43.15911" lon="6.50148">
        <ele>129.4</ele>
        <time>2024-02-04T09:20:40Z</time>
      </trkpt>
      <trkpt lat="43.1591" lon="6.50147">
        <ele>129.3</ele>
        <time>2024-02-04T09:20:41Z</time>
      </trkpt>
      <trkpt lat="43.1591" lon="6.50146">
        <ele>129.3</ele>
        <time>2024-02-04T09:20:42Z</time>
      </trkpt>
      <trkpt lat="43.15909" lon="6.50145">
        <ele>129.2</ele>
        <time>2024-02-04T09:20:43Z</time>
      </trkpt>
      <trkpt lat="43.15909" lon="6.50143">
        <ele>129.2</ele>
        <time>2024-02-04T09:20:44Z</time>
      </trkpt>
      <trkpt lat="43.15909" lon="6.50141">
        <ele>129.1</ele>
        <time>2024-02-04T09:20:45Z</time>
      </trkpt>
      <trkpt lat="43.15908" lon="6.50141">
        <ele>128.9</ele>
        <time>2024-02-04T09:20:46Z</time>
      </trkpt>
      <trkpt lat="43.15907" lon="6.5014">
        <ele>128.8</ele>
        <time>2024-02-04T09:20:47Z</time>
      </trkpt>
      <trkpt lat="43.15907" lon="6.50139">
        <ele>128.8</ele>
        <time>2024-02-04T09:20:48Z</time>
      </trkpt>
      <trkpt lat="43.15906" lon="6.50138">
        <ele>128.7</ele>
        <time>2024-02-04T09:20:49Z</time>
      </trkpt>
      <trkpt lat="43.15906" lon="6.50137">
        <ele>128.6</ele>
        <time>2024-02-04T09:20:50Z</time>
      </trkpt>
      <trkpt lat="43.15905" lon="6.50136">
        <ele>128.5</ele>
        <time>2024-02-04T09:20:51Z</time>
      </trkpt>
      <trkpt lat="43.15905" lon="6.50135">
        <ele>128.5</ele>
        <time>2024-02-04T09:20:52Z</time>
      </trkpt>
      <trkpt lat="43.15904" lon="6.50133">
        <ele>128.4</ele>
        <time>2024-02-04T09:20:53Z</time>
      </trkpt>
      <trkpt lat="43.15904" lon="6.50132">
        <ele>128.4</ele>
        <time>2024-02-04T09:20:54Z</time>
      </trkpt>
      <trkpt lat="43.15903" lon="6.50131">
        <ele>128.4</ele>
        <time>2024-02-04T09:20:55Z</time>
      </trkpt>
      <trkpt lat="43.15902" lon="6.5013">
        <ele>128.4</ele>
        <time>2024-02-04T09:20:56Z</time>
      </trkpt>
      <trkpt lat="43.15902" lon="6.50128">
        <ele>128.3</ele>
        <time>2024-02-04T09:20:57Z</time>
      </trkpt>
      <trkpt lat="43.15901" lon="6.50127">
        <ele>128.3</ele>
        <time>2024-02-04T09:20:58Z</time>
      </trkpt>
      <trkpt lat="43.15901" lon="6.50126">
        <ele>128.2</ele>
        <time>2024-02-04T09:20:59Z</time>
      </trkpt>
      <trkpt lat="43.159" lon="6.50124">
        <ele>128.1</ele>
        <time>2024-02-04T09:21:00Z</time>
      </trkpt>
      <trkpt lat="43.15899" lon="6.50123">
        <ele>128</ele>
        <time>2024-02-04T09:21:01Z</time>
      </trkpt>
      <trkpt lat="43.15899" lon="6.50122">
        <ele>128</ele>
        <time>2024-02-04T09:21:02Z</time>
      </trkpt>
      <trkpt lat="43.15898" lon="6.50121">
        <ele>127.9</ele>
        <time>2024-02-04T09:21:03Z</time>
      </trkpt>
      <trkpt lat="43.15897" lon="6.5012">
        <ele>127.9</ele>
        <time>2024-02-04T09:21:04Z</time>
      </trkpt>
      <trkpt lat="43.15896" lon="6.50119">
        <ele>127.9</ele>
        <time>2024-02-04T09:21:05Z</time>
      </trkpt>
      <trkpt lat="43.15895" lon="6.50118">
        <ele>127.8</ele>
        <time>2024-02-04T09:21:06Z</time>
      </trkpt>
      <trkpt lat="43.15895" lon="6.50117">
        <ele>127.9</ele>
        <time>2024-02-04T09:21:07Z</time>
      </trkpt>
      <trkpt lat="43.15894" lon="6.50116">
        <ele>127.9</ele>
        <time>2024-02-04T09:21:08Z</time>
      </trkpt>
      <trkpt lat="43.15893" lon="6.50115">
        <ele>127.8</ele>
        <time>2024-02-04T09:21:09Z</time>
      </trkpt>
      <trkpt lat="43.15892" lon="6.50114">
        <ele>127.8</ele>
        <time>2024-02-04T09:21:10Z</time>
      </trkpt>
      <trkpt lat="43.15892" lon="6.50113">
        <ele>127.7</ele>
        <time>2024-02-04T09:21:11Z</time>
      </trkpt>
      <trkpt lat="43.1589" lon="6.50112">
        <ele>127.7</ele>
        <time>2024-02-04T09:21:12Z</time>
      </trkpt>
      <trkpt lat="43.15889" lon="6.50112">
        <ele>127.7</ele>
        <time>2024-02-04T09:21:13Z</time>
      </trkpt>
      <trkpt lat="43.15888" lon="6.50111">
        <ele>127.7</ele>
        <time>2024-02-04T09:21:14Z</time>
      </trkpt>
      <trkpt lat="43.15887" lon="6.50109">
        <ele>127.4</ele>
        <time>2024-02-04T09:21:15Z</time>
      </trkpt>
      <trkpt lat="43.15886" lon="6.50108">
        <ele>127.4</ele>
        <time>2024-02-04T09:21:16Z</time>
      </trkpt>
      <trkpt lat="43.15886" lon="6.50107">
        <ele>127.5</ele>
        <time>2024-02-04T09:21:17Z</time>
      </trkpt>
      <trkpt lat="43.15885" lon="6.50105">
        <ele>127.5</ele>
        <time>2024-02-04T09:21:18Z</time>
      </trkpt>
      <trkpt lat="43.15885" lon="6.50104">
        <ele>127.6</ele>
        <time>2024-02-04T09:21:19Z</time>
      </trkpt>
      <trkpt lat="43.15884" lon="6.50102">
        <ele>127.6</ele>
        <time>2024-02-04T09:21:20Z</time>
      </trkpt>
      <trkpt lat="43.15883" lon="6.50101">
        <ele>127.6</ele>
        <time>2024-02-04T09:21:21Z</time>
      </trkpt>
      <trkpt lat="43.15882" lon="6.501">
        <ele>127.7</ele>
        <time>2024-02-04T09:21:22Z</time>
      </trkpt>
      <trkpt lat="43.15881" lon="6.50099">
        <ele>127.8</ele>
        <time>2024-02-04T09:21:23Z</time>
      </trkpt>
      <trkpt lat="43.15881" lon="6.50098">
        <ele>127.9</ele>
        <time>2024-02-04T09:21:24Z</time>
      </trkpt>
      <trkpt lat="43.15879" lon="6.50097">
        <ele>128</ele>
        <time>2024-02-04T09:21:25Z</time>
      </trkpt>
      <trkpt lat="43.15879" lon="6.50096">
        <ele>128.1</ele>
        <time>2024-02-04T09:21:26Z</time>
      </trkpt>
      <trkpt lat="43.15878" lon="6.50095">
        <ele>128.1</ele>
        <time>2024-02-04T09:21:27Z</time>
      </trkpt>
      <trkpt lat="43.15878" lon="6.50094">
        <ele>128.2</ele>
        <time>2024-02-04T09:21:28Z</time>
      </trkpt>
      <trkpt lat="43.15878" lon="6.50094">
        <ele>128.2</ele>
        <time>2024-02-04T09:21:29Z</time>
      </trkpt>
      <trkpt lat="43.15877" lon="6.50093">
        <ele>128.3</ele>
        <time>2024-02-04T09:21:30Z</time>
      </trkpt>
      <trkpt lat="43.15877" lon="6.50092">
        <ele>128.5</ele>
        <time>2024-02-04T09:21:31Z</time>
      </trkpt>
      <trkpt lat="43.15876" lon="6.50091">
        <ele>128.5</ele>
        <time>2024-02-04T09:21:32Z</time>
      </trkpt>
      <trkpt lat="43.15876" lon="6.5009">
        <ele>128.6</ele>
        <time>2024-02-04T09:21:33Z</time>
      </trkpt>
      <trkpt lat="43.15875" lon="6.50089">
        <ele>128.7</ele>
        <time>2024-02-04T09:21:34Z</time>
      </trkpt>
      <trkpt lat="43.15874" lon="6.50088">
        <ele>128.6</ele>
        <time>2024-02-04T09:21:35Z</time>
      </trkpt>
      <trkpt lat="43.15873" lon="6.50087">
        <ele>128.6</ele>
        <time>2024-02-04T09:21:36Z</time>
      </trkpt>
      <trkpt lat="43.15872" lon="6.50086">
        <ele>128.6</ele>
        <time>2024-02-04T09:21:37Z</time>
      </trkpt>
      <trkpt lat="43.15871" lon="6.50085">
        <ele>128.6</ele>
        <time>2024-02-04T09:21:38Z</time>
      </trkpt>
      <trkpt lat="43.15869" lon="6.50085">
        <ele>128.5</ele>
        <time>2024-02-04T09:21:39Z</time>
      </trkpt>
      <trkpt lat="43.15868" lon="6.50084">
        <ele>128.6</ele>
        <time>2024-02-04T09:21:40Z</time>
      </trkpt>
      <trkpt lat="43.15867" lon="6.50083">
        <ele>128.4</ele>
        <time>2024-02-04T09:21:41Z</time>
      </trkpt>
      <trkpt lat="43.15866" lon="6.50082">
        <ele>128.3</ele>
        <time>2024-02-04T09:21:42Z</time>
      </trkpt>
      <trkpt lat="43.15865" lon="6.50081">
        <ele>128.2</ele>
        <time>2024-02-04T09:21:43Z</time>
      </trkpt>
      <trkpt lat="43.15864" lon="6.50081">
        <ele>128.2</ele>
        <time>2024-02-04T09:21:44Z</time>
      </trkpt>
      <trkpt lat="43.15863" lon="6.5008">
        <ele>128</ele>
        <time>2024-02-04T09:21:45Z</time>
      </trkpt>
      <trkpt lat="43.15862" lon="6.5008">
        <ele>127.9</ele>
        <time>2024-02-04T09:21:46Z</time>
      </trkpt>
      <trkpt lat="43.15861" lon="6.50079">
        <ele>127.9</ele>
        <time>2024-02-04T09:21:47Z</time>
      </trkpt>
      <trkpt lat="43.1586" lon="6.50078">
        <ele>127.9</ele>
        <time>2024-02-04T09:21:48Z</time>
      </trkpt>
      <trkpt lat="43.1586" lon="6.50076">
        <ele>127.8</ele>
        <time>2024-02-04T09:21:49Z</time>
      </trkpt>
      <trkpt lat="43.15858" lon="6.50076">
        <ele>127.8</ele>
        <time>2024-02-04T09:21:50Z</time>
      </trkpt>
      <trkpt lat="43.15858" lon="6.50074">
        <ele>127.7</ele>
        <time>2024-02-04T09:21:51Z</time>
      </trkpt>
      <trkpt lat="43.15857" lon="6.50073">
        <ele>127.6</ele>
        <time>2024-02-04T09:21:52Z</time>
      </trkpt>
      <trkpt lat="43.15857" lon="6.50071">
        <ele>127.6</ele>
        <time>2024-02-04T09:21:53Z</time>
      </trkpt>
      <trkpt lat="43.15856" lon="6.5007">
        <ele>127.5</ele>
        <time>2024-02-04T09:21:54Z</time>
      </trkpt>
      <trkpt lat="43.15855" lon="6.50069">
        <ele>127.3</ele>
        <time>2024-02-04T09:21:55Z</time>
      </trkpt>
      <trkpt lat="43.15854" lon="6.50069">
        <ele>127.2</ele>
        <time>2024-02-04T09:21:56Z</time>
      </trkpt>
      <trkpt lat="43.15853" lon="6.50068">
        <ele>127.1</ele>
        <time>2024-02-04T09:21:57Z</time>
      </trkpt>
      <trkpt lat="43.15852" lon="6.50067">
        <ele>127</ele>
        <time>2024-02-04T09:21:58Z</time>
      </trkpt>
      <trkpt lat="43.15851" lon="6.50066">
        <ele>126.9</ele>
        <time>2024-02-04T09:21:59Z</time>
      </trkpt>
      <trkpt lat="43.1585" lon="6.50065">
        <ele>127</ele>
        <time>2024-02-04T09:22:00Z</time>
      </trkpt>
      <trkpt lat="43.15849" lon="6.50064">
        <ele>126.8</ele>
        <time>2024-02-04T09:22:01Z</time>
      </trkpt>
      <trkpt lat="43.15848" lon="6.50064">
        <ele>126.7</ele>
        <time>2024-02-04T09:22:02Z</time>
      </trkpt>
      <trkpt lat="43.15847" lon="6.50063">
        <ele>126.7</ele>
        <time>2024-02-04T09:22:03Z</time>
      </trkpt>
      <trkpt lat="43.15846" lon="6.50062">
        <ele>126.6</ele>
        <time>2024-02-04T09:22:04Z</time>
      </trkpt>
      <trkpt lat="43.15845" lon="6.50061">
        <ele>126.6</ele>
        <time>2024-02-04T09:22:05Z</time>
      </trkpt>
      <trkpt lat="43.15844" lon="6.5006">
        <ele>126.5</ele>
        <time>2024-02-04T09:22:06Z</time>
      </trkpt>
      <trkpt lat="43.15843" lon="6.50059">
        <ele>126.4</ele>
        <time>2024-02-04T09:22:07Z</time>
      </trkpt>
      <trkpt lat="43.15842" lon="6.50058">
        <ele>126.2</ele>
        <time>2024-02-04T09:22:08Z</time>
      </trkpt>
      <trkpt lat="43.15841" lon="6.50057">
        <ele>126.1</ele>
        <time>2024-02-04T09:22:09Z</time>
      </trkpt>
      <trkpt lat="43.1584" lon="6.50056">
        <ele>126</ele>
        <time>2024-02-04T09:22:10Z</time>
      </trkpt>
      <trkpt lat="43.1584" lon="6.50056">
        <ele>125.7</ele>
        <time>2024-02-04T09:22:11Z</time>
      </trkpt>
      <trkpt lat="43.15839" lon="6.50056">
        <ele>125.5</ele>
        <time>2024-02-04T09:22:12Z</time>
      </trkpt>
      <trkpt lat="43.15839" lon="6.50056">
        <ele>125.2</ele>
        <time>2024-02-04T09:22:13Z</time>
      </trkpt>
      <trkpt lat="43.15838" lon="6.50055">
        <ele>124.9</ele>
        <time>2024-02-04T09:22:14Z</time>
      </trkpt>
      <trkpt lat="43.15837" lon="6.50054">
        <ele>124.7</ele>
        <time>2024-02-04T09:22:15Z</time>
      </trkpt>
      <trkpt lat="43.15837" lon="6.50054">
        <ele>124.6</ele>
        <time>2024-02-04T09:22:16Z</time>
      </trkpt>
      <trkpt lat="43.15836" lon="6.50054">
        <ele>124.4</ele>
        <time>2024-02-04T09:22:17Z</time>
      </trkpt>
      <trkpt lat="43.15836" lon="6.50055">
        <ele>124.3</ele>
        <time>2024-02-04T09:22:18Z</time>
      </trkpt>
      <trkpt lat="43.15836" lon="6.50055">
        <ele>124.3</ele>
        <time>2024-02-04T09:22:19Z</time>
      </trkpt>
      <trkpt lat="43.15835" lon="6.50055">
        <ele>124.2</ele>
        <time>2024-02-04T09:22:20Z</time>
      </trkpt>
      <trkpt lat="43.15835" lon="6.50055">
        <ele>124</ele>
        <time>2024-02-04T09:22:21Z</time>
      </trkpt>
      <trkpt lat="43.15834" lon="6.50055">
        <ele>124</ele>
        <time>2024-02-04T09:22:22Z</time>
      </trkpt>
      <trkpt lat="43.15834" lon="6.50056">
        <ele>124</ele>
        <time>2024-02-04T09:22:23Z</time>
      </trkpt>
      <trkpt lat="43.15834" lon="6.50056">
        <ele>124</ele>
        <time>2024-02-04T09:22:24Z</time>
      </trkpt>
      <trkpt lat="43.15833" lon="6.50056">
        <ele>123.8</ele>
        <time>2024-02-04T09:22:25Z</time>
      </trkpt>
      <trkpt lat="43.15833" lon="6.50056">
        <ele>123.7</ele>
        <time>2024-02-04T09:22:26Z</time>
      </trkpt>
      <trkpt lat="43.15832" lon="6.50057">
        <ele>123.6</ele>
        <time>2024-02-04T09:22:27Z</time>
      </trkpt>
      <trkpt lat="43.15832" lon="6.50057">
        <ele>123.5</ele>
        <time>2024-02-04T09:22:28Z</time>
      </trkpt>
      <trkpt lat="43.15832" lon="6.50057">
        <ele>123.4</ele>
        <time>2024-02-04T09:22:29Z</time>
      </trkpt>
      <trkpt lat="43.15831" lon="6.50057">
        <ele>123.3</ele>
        <time>2024-02-04T09:22:30Z</time>
      </trkpt>
      <trkpt lat="43.15831" lon="6.50058">
        <ele>123.2</ele>
        <time>2024-02-04T09:22:31Z</time>
      </trkpt>
      <trkpt lat="43.15831" lon="6.50058">
        <ele>123.2</ele>
        <time>2024-02-04T09:22:32Z</time>
      </trkpt>
      <trkpt lat="43.15831" lon="6.50058">
        <ele>123.1</ele>
        <time>2024-02-04T09:22:33Z</time>
      </trkpt>
      <trkpt lat="43.15831" lon="6.50058">
        <ele>123</ele>
        <time>2024-02-04T09:22:34Z</time>
      </trkpt>
      <trkpt lat="43.1583" lon="6.50058">
        <ele>122.9</ele>
        <time>2024-02-04T09:22:35Z</time>
      </trkpt>
      <trkpt lat="43.1583" lon="6.50058">
        <ele>122.9</ele>
        <time>2024-02-04T09:22:36Z</time>
      </trkpt>
      <trkpt lat="43.1583" lon="6.50058">
        <ele>122.9</ele>
        <time>2024-02-04T09:22:37Z</time>
      </trkpt>
      <trkpt lat="43.1583" lon="6.50058">
        <ele>122.9</ele>
        <time>2024-02-04T09:22:38Z</time>
      </trkpt>
      <trkpt lat="43.1583" lon="6.50059">
        <ele>122.9</ele>
        <time>2024-02-04T09:22:39Z</time>
      </trkpt>
      <trkpt lat="43.1583" lon="6.50059">
        <ele>122.8</ele>
        <time>2024-02-04T09:22:40Z</time>
      </trkpt>
      <trkpt lat="43.15829" lon="6.50059">
        <ele>122.8</ele>
        <time>2024-02-04T09:22:41Z</time>
      </trkpt>
      <trkpt lat="43.15829" lon="6.50059">
        <ele>122.8</ele>
        <time>2024-02-04T09:22:42Z</time>
      </trkpt>
      <trkpt lat="43.15829" lon="6.50059">
        <ele>122.8</ele>
        <time>2024-02-04T09:22:43Z</time>
      </trkpt>
      <trkpt lat="43.15829" lon="6.50059">
        <ele>122.8</ele>
        <time>2024-02-04T09:22:44Z</time>
      </trkpt>
      <trkpt lat="43.15829" lon="6.50059">
        <ele>122.8</ele>
        <time>2024-02-04T09:22:45Z</time>
      </trkpt>
      <trkpt lat="43.15829" lon="6.50059">
        <ele>122.7</ele>
        <time>2024-02-04T09:22:46Z</time>
      </trkpt>
      <trkpt lat="43.15829" lon="6.50058">
        <ele>122.7</ele>
        <time>2024-02-04T09:22:47Z</time>
      </trkpt>
      <trkpt lat="43.15829" lon="6.50058">
        <ele>122.7</ele>
        <time>2024-02-04T09:22:48Z</time>
      </trkpt>
      <trkpt lat="43.15829" lon="6.50058">
        <ele>122.8</ele>
        <time>2024-02-04T09:22:49Z</time>
      </trkpt>
      <trkpt lat="43.15829" lon="6.50058">
        <ele>122.8</ele>
        <time>2024-02-04T09:22:50Z</time>
      </trkpt>
      <trkpt lat="43.15829" lon="6.50058">
        <ele>122.8</ele>
        <time>2024-02-04T09:22:51Z</time>
      </trkpt>
      <trkpt lat="43.15829" lon="6.50058">
        <ele>122.8</ele>
        <time>2024-02-04T09:22:52Z</time>
      </trkpt>
      <trkpt lat="43.15829" lon="6.50058">
        <ele>122.8</ele>
        <time>2024-02-04T09:22:53Z</time>
      </trkpt>
      <trkpt lat="43.15829" lon="6.50058">
        <ele>122.8</ele>
        <time>2024-02-04T09:22:54Z</time>
      </trkpt>
      <trkpt lat="43.15829" lon="6.50058">
        <ele>122.8</ele>
        <time>2024-02-04T09:22:55Z</time>
      </trkpt>
      <trkpt lat="43.15829" lon="6.50058">
        <ele>122.8</ele>
        <time>2024-02-04T09:22:56Z</time>
      </trkpt>
      <trkpt lat="43.15829" lon="6.50058">
        <ele>122.7</ele>
        <time>2024-02-04T09:22:57Z</time>
      </trkpt>
      <trkpt lat="43.15829" lon="6.50058">
        <ele>122.7</ele>
        <time>2024-02-04T09:22:58Z</time>
      </trkpt>
      <trkpt lat="43.15828" lon="6.50058">
        <ele>122.7</ele>
        <time>2024-02-04T09:22:59Z</time>
      </trkpt>
      <trkpt lat="43.15829" lon="6.50059">
        <ele>122.7</ele>
        <time>2024-02-04T09:23:00Z</time>
      </trkpt>
      <trkpt lat="43.15828" lon="6.50058">
        <ele>122.6</ele>
        <time>2024-02-04T09:23:01Z</time>
      </trkpt>
      <trkpt lat="43.15828" lon="6.50058">
        <ele>122.6</ele>
        <time>2024-02-04T09:23:02Z</time>
      </trkpt>
      <trkpt lat="43.15828" lon="6.50059">
        <ele>122.6</ele>
        <time>2024-02-04T09:23:03Z</time>
      </trkpt>
      <trkpt lat="43.15828" lon="6.50059">
        <ele>122.7</ele>
        <time>2024-02-04T09:23:04Z</time>
      </trkpt>
      <trkpt lat="43.15828" lon="6.50059">
        <ele>122.8</ele>
        <time>2024-02-04T09:23:05Z</time>
      </trkpt>
      <trkpt lat="43.15828" lon="6.50059">
        <ele>122.9</ele>
        <time>2024-02-04T09:23:06Z</time>
      </trkpt>
      <trkpt lat="43.15828" lon="6.50059">
        <ele>122.9</ele>
        <time>2024-02-04T09:23:07Z</time>
      </trkpt>
      <trkpt lat="43.15828" lon="6.50059">
        <ele>122.8</ele>
        <time>2024-02-04T09:23:08Z</time>
      </trkpt>
      <trkpt lat="43.15828" lon="6.50059">
        <ele>122.8</ele>
        <time>2024-02-04T09:23:09Z</time>
      </trkpt>
      <trkpt lat="43.15827" lon="6.50059">
        <ele>122.8</ele>
        <time>2024-02-04T09:23:10Z</time>
      </trkpt>
      <trkpt lat="43.15827" lon="6.50059">
        <ele>122.8</ele>
        <time>2024-02-04T09:23:11Z</time>
      </trkpt>
      <trkpt lat="43.15828" lon="6.50059">
        <ele>122.8</ele>
        <time>2024-02-04T09:23:12Z</time>
      </trkpt>
      <trkpt lat="43.15828" lon="6.5006">
        <ele>122.7</ele>
        <time>2024-02-04T09:23:13Z</time>
      </trkpt>
      <trkpt lat="43.15828" lon="6.50059">
        <ele>122.7</ele>
        <time>2024-02-04T09:23:14Z</time>
      </trkpt>
      <trkpt lat="43.15828" lon="6.50059">
        <ele>122.6</ele>
        <time>2024-02-04T09:23:15Z</time>
      </trkpt>
      <trkpt lat="43.15828" lon="6.50059">
        <ele>122.6</ele>
        <time>2024-02-04T09:23:16Z</time>
      </trkpt>
      <trkpt lat="43.15828" lon="6.50059">
        <ele>122.5</ele>
        <time>2024-02-04T09:23:17Z</time>
      </trkpt>
      <trkpt lat="43.15827" lon="6.50059">
        <ele>122.5</ele>
        <time>2024-02-04T09:23:18Z</time>
      </trkpt>
      <trkpt lat="43.15827" lon="6.50059">
        <ele>122.5</ele>
        <time>2024-02-04T09:23:19Z</time>
      </trkpt>
      <trkpt lat="43.15827" lon="6.50059">
        <ele>122.5</ele>
        <time>2024-02-04T09:23:20Z</time>
      </trkpt>
      <trkpt lat="43.15827" lon="6.50059">
        <ele>122.5</ele>
        <time>2024-02-04T09:23:21Z</time>
      </trkpt>
      <trkpt lat="43.15827" lon="6.50059">
        <ele>122.5</ele>
        <time>2024-02-04T09:23:22Z</time>
      </trkpt>
      <trkpt lat="43.15827" lon="6.50059">
        <ele>122.4</ele>
        <time>2024-02-04T09:23:23Z</time>
      </trkpt>
      <trkpt lat="43.15827" lon="6.50059">
        <ele>122.4</ele>
        <time>2024-02-04T09:23:24Z</time>
      </trkpt>
      <trkpt lat="43.15827" lon="6.50059">
        <ele>122.4</ele>
        <time>2024-02-04T09:23:25Z</time>
      </trkpt>
      <trkpt lat="43.15827" lon="6.50059">
        <ele>122.4</ele>
        <time>2024-02-04T09:23:26Z</time>
      </trkpt>
      <trkpt lat="43.15827" lon="6.50059">
        <ele>122.4</ele>
        <time>2024-02-04T09:23:27Z</time>
      </trkpt>
      <trkpt lat="43.15827" lon="6.50059">
        <ele>122.4</ele>
        <time>2024-02-04T09:23:28Z</time>
      </trkpt>
      <trkpt lat="43.15827" lon="6.50059">
        <ele>122.5</ele>
        <time>2024-02-04T09:23:29Z</time>
      </trkpt>
      <trkpt lat="43.15827" lon="6.50059">
        <ele>122.5</ele>
        <time>2024-02-04T09:23:30Z</time>
      </trkpt>
      <trkpt lat="43.15827" lon="6.50059">
        <ele>122.5</ele>
        <time>2024-02-04T09:23:31Z</time>
      </trkpt>
      <trkpt lat="43.15827" lon="6.5006">
        <ele>122.5</ele>
        <time>2024-02-04T09:23:32Z</time>
      </trkpt>
      <trkpt lat="43.15827" lon="6.5006">
        <ele>122.4</ele>
        <time>2024-02-04T09:23:33Z</time>
      </trkpt>
      <trkpt lat="43.15827" lon="6.5006">
        <ele>122.4</ele>
        <time>2024-02-04T09:23:34Z</time>
      </trkpt>
      <trkpt lat="43.15827" lon="6.5006">
        <ele>122.3</ele>
        <time>2024-02-04T09:23:35Z</time>
      </trkpt>
      <trkpt lat="43.15827" lon="6.5006">
        <ele>122.5</ele>
        <time>2024-02-04T09:23:36Z</time>
      </trkpt>
      <trkpt lat="43.15827" lon="6.5006">
        <ele>122.5</ele>
        <time>2024-02-04T09:23:37Z</time>
      </trkpt>
      <trkpt lat="43.15826" lon="6.5006">
        <ele>122.5</ele>
        <time>2024-02-04T09:23:38Z</time>
      </trkpt>
      <trkpt lat="43.15826" lon="6.5006">
        <ele>122.5</ele>
        <time>2024-02-04T09:23:39Z</time>
      </trkpt>
      <trkpt lat="43.15826" lon="6.5006">
        <ele>122.5</ele>
        <time>2024-02-04T09:23:40Z</time>
      </trkpt>
      <trkpt lat="43.15826" lon="6.5006">
        <ele>122.6</ele>
        <time>2024-02-04T09:23:41Z</time>
      </trkpt>
      <trkpt lat="43.15826" lon="6.5006">
        <ele>122.5</ele>
        <time>2024-02-04T09:23:42Z</time>
      </trkpt>
      <trkpt lat="43.15827" lon="6.5006">
        <ele>122.6</ele>
        <time>2024-02-04T09:23:43Z</time>
      </trkpt>
      <trkpt lat="43.15827" lon="6.5006">
        <ele>122.6</ele>
        <time>2024-02-04T09:23:44Z</time>
      </trkpt>
      <trkpt lat="43.15827" lon="6.5006">
        <ele>122.6</ele>
        <time>2024-02-04T09:23:45Z</time>
      </trkpt>
      <trkpt lat="43.15827" lon="6.5006">
        <ele>122.7</ele>
        <time>2024-02-04T09:23:46Z</time>
      </trkpt>
      <trkpt lat="43.15827" lon="6.50059">
        <ele>122.8</ele>
        <time>2024-02-04T09:23:47Z</time>
      </trkpt>
      <trkpt lat="43.15827" lon="6.50057">
        <ele>122.8</ele>
        <time>2024-02-04T09:23:48Z</time>
      </trkpt>
      <trkpt lat="43.15826" lon="6.50056">
        <ele>122.9</ele>
        <time>2024-02-04T09:23:49Z</time>
      </trkpt>
      <trkpt lat="43.15825" lon="6.50054">
        <ele>123</ele>
        <time>2024-02-04T09:23:50Z</time>
      </trkpt>
      <trkpt lat="43.15824" lon="6.50052">
        <ele>123.2</ele>
        <time>2024-02-04T09:23:51Z</time>
      </trkpt>
      <trkpt lat="43.15823" lon="6.50051">
        <ele>123.3</ele>
        <time>2024-02-04T09:23:52Z</time>
      </trkpt>
      <trkpt lat="43.15822" lon="6.50049">
        <ele>123.3</ele>
        <time>2024-02-04T09:23:53Z</time>
      </trkpt>
      <trkpt lat="43.15822" lon="6.50048">
        <ele>123.4</ele>
        <time>2024-02-04T09:23:54Z</time>
      </trkpt>
      <trkpt lat="43.15822" lon="6.50047">
        <ele>123.6</ele>
        <time>2024-02-04T09:23:55Z</time>
      </trkpt>
      <trkpt lat="43.15821" lon="6.50046">
        <ele>123.9</ele>
        <time>2024-02-04T09:23:56Z</time>
      </trkpt>
      <trkpt lat="43.15821" lon="6.50045">
        <ele>124.1</ele>
        <time>2024-02-04T09:23:57Z</time>
      </trkpt>
      <trkpt lat="43.1582" lon="6.50043">
        <ele>124.3</ele>
        <time>2024-02-04T09:23:58Z</time>
      </trkpt>
      <trkpt lat="43.15819" lon="6.50042">
        <ele>124.5</ele>
        <time>2024-02-04T09:23:59Z</time>
      </trkpt>
      <trkpt lat="43.15818" lon="6.5004">
        <ele>124.9</ele>
        <time>2024-02-04T09:24:00Z</time>
      </trkpt>
      <trkpt lat="43.15817" lon="6.50039">
        <ele>125.1</ele>
        <time>2024-02-04T09:24:01Z</time>
      </trkpt>
      <trkpt lat="43.15817" lon="6.50038">
        <ele>125.4</ele>
        <time>2024-02-04T09:24:02Z</time>
      </trkpt>
      <trkpt lat="43.15816" lon="6.50037">
        <ele>125.6</ele>
        <time>2024-02-04T09:24:03Z</time>
      </trkpt>
      <trkpt lat="43.15816" lon="6.50035">
        <ele>125.7</ele>
        <time>2024-02-04T09:24:04Z</time>
      </trkpt>
      <trkpt lat="43.15815" lon="6.50033">
        <ele>125.9</ele>
        <time>2024-02-04T09:24:05Z</time>
      </trkpt>
      <trkpt lat="43.15813" lon="6.50032">
        <ele>126.1</ele>
        <time>2024-02-04T09:24:06Z</time>
      </trkpt>
      <trkpt lat="43.15813" lon="6.5003">
        <ele>126.2</ele>
        <time>2024-02-04T09:24:07Z</time>
      </trkpt>
      <trkpt lat="43.15811" lon="6.50029">
        <ele>126.3</ele>
        <time>2024-02-04T09:24:08Z</time>
      </trkpt>
      <trkpt lat="43.15811" lon="6.50028">
        <ele>126.5</ele>
        <time>2024-02-04T09:24:09Z</time>
      </trkpt>
      <trkpt lat="43.1581" lon="6.50026">
        <ele>126.7</ele>
        <time>2024-02-04T09:24:10Z</time>
      </trkpt>
      <trkpt lat="43.15809" lon="6.50025">
        <ele>127</ele>
        <time>2024-02-04T09:24:11Z</time>
      </trkpt>
      <trkpt lat="43.15808" lon="6.50023">
        <ele>127.2</ele>
        <time>2024-02-04T09:24:12Z</time>
      </trkpt>
      <trkpt lat="43.15807" lon="6.50021">
        <ele>127.3</ele>
        <time>2024-02-04T09:24:13Z</time>
      </trkpt>
      <trkpt lat="43.15807" lon="6.5002">
        <ele>127.4</ele>
        <time>2024-02-04T09:24:14Z</time>
      </trkpt>
      <trkpt lat="43.15806" lon="6.50018">
        <ele>127.5</ele>
        <time>2024-02-04T09:24:15Z</time>
      </trkpt>
      <trkpt lat="43.15805" lon="6.50016">
        <ele>127.6</ele>
        <time>2024-02-04T09:24:16Z</time>
      </trkpt>
      <trkpt lat="43.15804" lon="6.50015">
        <ele>127.8</ele>
        <time>2024-02-04T09:24:17Z</time>
      </trkpt>
      <trkpt lat="43.15804" lon="6.50014">
        <ele>127.9</ele>
        <time>2024-02-04T09:24:18Z</time>
      </trkpt>
      <trkpt lat="43.15802" lon="6.50013">
        <ele>128.2</ele>
        <time>2024-02-04T09:24:19Z</time>
      </trkpt>
      <trkpt lat="43.15801" lon="6.50011">
        <ele>128.3</ele>
        <time>2024-02-04T09:24:20Z</time>
      </trkpt>
      <trkpt lat="43.158" lon="6.5001">
        <ele>128.5</ele>
        <time>2024-02-04T09:24:21Z</time>
      </trkpt>
      <trkpt lat="43.15799" lon="6.50009">
        <ele>128.7</ele>
        <time>2024-02-04T09:24:22Z</time>
      </trkpt>
      <trkpt lat="43.15798" lon="6.50007">
        <ele>128.9</ele>
        <time>2024-02-04T09:24:23Z</time>
      </trkpt>
      <trkpt lat="43.15797" lon="6.50006">
        <ele>129</ele>
        <time>2024-02-04T09:24:24Z</time>
      </trkpt>
      <trkpt lat="43.15796" lon="6.50006">
        <ele>129.3</ele>
        <time>2024-02-04T09:24:25Z</time>
      </trkpt>
      <trkpt lat="43.15795" lon="6.50005">
        <ele>129.5</ele>
        <time>2024-02-04T09:24:26Z</time>
      </trkpt>
      <trkpt lat="43.15794" lon="6.50004">
        <ele>129.6</ele>
        <time>2024-02-04T09:24:27Z</time>
      </trkpt>
      <trkpt lat="43.15795" lon="6.50002">
        <ele>129.8</ele>
        <time>2024-02-04T09:24:28Z</time>
      </trkpt>
      <trkpt lat="43.15794" lon="6.50001">
        <ele>129.9</ele>
        <time>2024-02-04T09:24:29Z</time>
      </trkpt>
      <trkpt lat="43.15794" lon="6.5">
        <ele>130.1</ele>
        <time>2024-02-04T09:24:30Z</time>
      </trkpt>
      <trkpt lat="43.15793" lon="6.49999">
        <ele>130.3</ele>
        <time>2024-02-04T09:24:31Z</time>
      </trkpt>
      <trkpt lat="43.15793" lon="6.49999">
        <ele>130.4</ele>
        <time>2024-02-04T09:24:32Z</time>
      </trkpt>
      <trkpt lat="43.15792" lon="6.49998">
        <ele>130.5</ele>
        <time>2024-02-04T09:24:33Z</time>
      </trkpt>
      <trkpt lat="43.15791" lon="6.49997">
        <ele>130.6</ele>
        <time>2024-02-04T09:24:34Z</time>
      </trkpt>
      <trkpt lat="43.1579" lon="6.49996">
        <ele>130.7</ele>
        <time>2024-02-04T09:24:35Z</time>
      </trkpt>
      <trkpt lat="43.15789" lon="6.49994">
        <ele>130.7</ele>
        <time>2024-02-04T09:24:36Z</time>
      </trkpt>
      <trkpt lat="43.15788" lon="6.49993">
        <ele>130.8</ele>
        <time>2024-02-04T09:24:37Z</time>
      </trkpt>
      <trkpt lat="43.15788" lon="6.49992">
        <ele>130.9</ele>
        <time>2024-02-04T09:24:38Z</time>
      </trkpt>
      <trkpt lat="43.15787" lon="6.49991">
        <ele>131</ele>
        <time>2024-02-04T09:24:39Z</time>
      </trkpt>
      <trkpt lat="43.15787" lon="6.4999">
        <ele>131.1</ele>
        <time>2024-02-04T09:24:40Z</time>
      </trkpt>
      <trkpt lat="43.15786" lon="6.49989">
        <ele>131.1</ele>
        <time>2024-02-04T09:24:41Z</time>
      </trkpt>
      <trkpt lat="43.15786" lon="6.49988">
        <ele>131.3</ele>
        <time>2024-02-04T09:24:42Z</time>
      </trkpt>
      <trkpt lat="43.15785" lon="6.49986">
        <ele>131.4</ele>
        <time>2024-02-04T09:24:43Z</time>
      </trkpt>
      <trkpt lat="43.15784" lon="6.49984">
        <ele>131.6</ele>
        <time>2024-02-04T09:24:44Z</time>
      </trkpt>
      <trkpt lat="43.15783" lon="6.49983">
        <ele>131.6</ele>
        <time>2024-02-04T09:24:45Z</time>
      </trkpt>
      <trkpt lat="43.15783" lon="6.49982">
        <ele>131.7</ele>
        <time>2024-02-04T09:24:46Z</time>
      </trkpt>
      <trkpt lat="43.15782" lon="6.4998">
        <ele>131.8</ele>
        <time>2024-02-04T09:24:47Z</time>
      </trkpt>
      <trkpt lat="43.15782" lon="6.49979">
        <ele>131.9</ele>
        <time>2024-02-04T09:24:48Z</time>
      </trkpt>
      <trkpt lat="43.15781" lon="6.49978">
        <ele>132.1</ele>
        <time>2024-02-04T09:24:49Z</time>
      </trkpt>
      <trkpt lat="43.1578" lon="6.49978">
        <ele>132.4</ele>
        <time>2024-02-04T09:24:50Z</time>
      </trkpt>
      <trkpt lat="43.15779" lon="6.49977">
        <ele>132.6</ele>
        <time>2024-02-04T09:24:51Z</time>
      </trkpt>
      <trkpt lat="43.15779" lon="6.49976">
        <ele>132.8</ele>
        <time>2024-02-04T09:24:52Z</time>
      </trkpt>
      <trkpt lat="43.15778" lon="6.49974">
        <ele>133.1</ele>
        <time>2024-02-04T09:24:53Z</time>
      </trkpt>
      <trkpt lat="43.15778" lon="6.49973">
        <ele>133.4</ele>
        <time>2024-02-04T09:24:54Z</time>
      </trkpt>
      <trkpt lat="43.15777" lon="6.49971">
        <ele>133.7</ele>
        <time>2024-02-04T09:24:55Z</time>
      </trkpt>
      <trkpt lat="43.15777" lon="6.49971">
        <ele>133.9</ele>
        <time>2024-02-04T09:24:56Z</time>
      </trkpt>
      <trkpt lat="43.15776" lon="6.4997">
        <ele>134</ele>
        <time>2024-02-04T09:24:57Z</time>
      </trkpt>
      <trkpt lat="43.15775" lon="6.49969">
        <ele>134.1</ele>
        <time>2024-02-04T09:24:58Z</time>
      </trkpt>
      <trkpt lat="43.15774" lon="6.49969">
        <ele>134.3</ele>
        <time>2024-02-04T09:24:59Z</time>
      </trkpt>
      <trkpt lat="43.15773" lon="6.49968">
        <ele>134.5</ele>
        <time>2024-02-04T09:25:00Z</time>
      </trkpt>
      <trkpt lat="43.15773" lon="6.49967">
        <ele>134.7</ele>
        <time>2024-02-04T09:25:01Z</time>
      </trkpt>
      <trkpt lat="43.15772" lon="6.49966">
        <ele>134.8</ele>
        <time>2024-02-04T09:25:02Z</time>
      </trkpt>
      <trkpt lat="43.15771" lon="6.49965">
        <ele>135</ele>
        <time>2024-02-04T09:25:03Z</time>
      </trkpt>
      <trkpt lat="43.15771" lon="6.49963">
        <ele>135.1</ele>
        <time>2024-02-04T09:25:04Z</time>
      </trkpt>
      <trkpt lat="43.15771" lon="6.49961">
        <ele>135.3</ele>
        <time>2024-02-04T09:25:05Z</time>
      </trkpt>
      <trkpt lat="43.1577" lon="6.4996">
        <ele>135.4</ele>
        <time>2024-02-04T09:25:06Z</time>
      </trkpt>
      <trkpt lat="43.15769" lon="6.49959">
        <ele>135.6</ele>
        <time>2024-02-04T09:25:07Z</time>
      </trkpt>
      <trkpt lat="43.15768" lon="6.49958">
        <ele>135.8</ele>
        <time>2024-02-04T09:25:08Z</time>
      </trkpt>
      <trkpt lat="43.15767" lon="6.49957">
        <ele>136</ele>
        <time>2024-02-04T09:25:09Z</time>
      </trkpt>
      <trkpt lat="43.15766" lon="6.49956">
        <ele>136.3</ele>
        <time>2024-02-04T09:25:10Z</time>
      </trkpt>
      <trkpt lat="43.15766" lon="6.49955">
        <ele>136.5</ele>
        <time>2024-02-04T09:25:11Z</time>
      </trkpt>
      <trkpt lat="43.15765" lon="6.49953">
        <ele>136.6</ele>
        <time>2024-02-04T09:25:12Z</time>
      </trkpt>
      <trkpt lat="43.15764" lon="6.49953">
        <ele>136.8</ele>
        <time>2024-02-04T09:25:13Z</time>
      </trkpt>
      <trkpt lat="43.15764" lon="6.49953">
        <ele>137</ele>
        <time>2024-02-04T09:25:14Z</time>
      </trkpt>
      <trkpt lat="43.15763" lon="6.49951">
        <ele>137.1</ele>
        <time>2024-02-04T09:25:15Z</time>
      </trkpt>
      <trkpt lat="43.15763" lon="6.4995">
        <ele>137.2</ele>
        <time>2024-02-04T09:25:16Z</time>
      </trkpt>
      <trkpt lat="43.15762" lon="6.49949">
        <ele>137.4</ele>
        <time>2024-02-04T09:25:17Z</time>
      </trkpt>
      <trkpt lat="43.15761" lon="6.49947">
        <ele>137.6</ele>
        <time>2024-02-04T09:25:18Z</time>
      </trkpt>
      <trkpt lat="43.15761" lon="6.49946">
        <ele>137.8</ele>
        <time>2024-02-04T09:25:19Z</time>
      </trkpt>
      <trkpt lat="43.1576" lon="6.49945">
        <ele>137.9</ele>
        <time>2024-02-04T09:25:20Z</time>
      </trkpt>
      <trkpt lat="43.1576" lon="6.49943">
        <ele>138</ele>
        <time>2024-02-04T09:25:21Z</time>
      </trkpt>
      <trkpt lat="43.15759" lon="6.49942">
        <ele>138.1</ele>
        <time>2024-02-04T09:25:22Z</time>
      </trkpt>
      <trkpt lat="43.15758" lon="6.49941">
        <ele>138.3</ele>
        <time>2024-02-04T09:25:23Z</time>
      </trkpt>
      <trkpt lat="43.15757" lon="6.49939">
        <ele>138.4</ele>
        <time>2024-02-04T09:25:24Z</time>
      </trkpt>
      <trkpt lat="43.15756" lon="6.49939">
        <ele>138.5</ele>
        <time>2024-02-04T09:25:25Z</time>
      </trkpt>
      <trkpt lat="43.15756" lon="6.49938">
        <ele>138.6</ele>
        <time>2024-02-04T09:25:26Z</time>
      </trkpt>
      <trkpt lat="43.15755" lon="6.49938">
        <ele>138.7</ele>
        <time>2024-02-04T09:25:27Z</time>
      </trkpt>
      <trkpt lat="43.15755" lon="6.49937">
        <ele>138.9</ele>
        <time>2024-02-04T09:25:28Z</time>
      </trkpt>
      <trkpt lat="43.15755" lon="6.49936">
        <ele>139.1</ele>
        <time>2024-02-04T09:25:29Z</time>
      </trkpt>
      <trkpt lat="43.15755" lon="6.49934">
        <ele>139.2</ele>
        <time>2024-02-04T09:25:30Z</time>
      </trkpt>
      <trkpt lat="43.15754" lon="6.49933">
        <ele>139.4</ele>
        <time>2024-02-04T09:25:31Z</time>
      </trkpt>
      <trkpt lat="43.15752" lon="6.49932">
        <ele>139.7</ele>
        <time>2024-02-04T09:25:32Z</time>
      </trkpt>
      <trkpt lat="43.15752" lon="6.4993">
        <ele>140</ele>
        <time>2024-02-04T09:25:33Z</time>
      </trkpt>
      <trkpt lat="43.1575" lon="6.49929">
        <ele>140.3</ele>
        <time>2024-02-04T09:25:34Z</time>
      </trkpt>
      <trkpt lat="43.1575" lon="6.49927">
        <ele>140.6</ele>
        <time>2024-02-04T09:25:35Z</time>
      </trkpt>
      <trkpt lat="43.15749" lon="6.49926">
        <ele>140.7</ele>
        <time>2024-02-04T09:25:36Z</time>
      </trkpt>
      <trkpt lat="43.15748" lon="6.49925">
        <ele>140.9</ele>
        <time>2024-02-04T09:25:37Z</time>
      </trkpt>
      <trkpt lat="43.15748" lon="6.49924">
        <ele>141</ele>
        <time>2024-02-04T09:25:38Z</time>
      </trkpt>
      <trkpt lat="43.15748" lon="6.49922">
        <ele>141.1</ele>
        <time>2024-02-04T09:25:39Z</time>
      </trkpt>
      <trkpt lat="43.15747" lon="6.49921">
        <ele>141.2</ele>
        <time>2024-02-04T09:25:40Z</time>
      </trkpt>
      <trkpt lat="43.15746" lon="6.49918">
        <ele>141.2</ele>
        <time>2024-02-04T09:25:41Z</time>
      </trkpt>
      <trkpt lat="43.15746" lon="6.49917">
        <ele>141.4</ele>
        <time>2024-02-04T09:25:42Z</time>
      </trkpt>
      <trkpt lat="43.15745" lon="6.49916">
        <ele>141.6</ele>
        <time>2024-02-04T09:25:43Z</time>
      </trkpt>
      <trkpt lat="43.15745" lon="6.49915">
        <ele>141.7</ele>
        <time>2024-02-04T09:25:44Z</time>
      </trkpt>
      <trkpt lat="43.15744" lon="6.49914">
        <ele>141.8</ele>
        <time>2024-02-04T09:25:45Z</time>
      </trkpt>
      <trkpt lat="43.15744" lon="6.49913">
        <ele>141.9</ele>
        <time>2024-02-04T09:25:46Z</time>
      </trkpt>
      <trkpt lat="43.15743" lon="6.49913">
        <ele>141.9</ele>
        <time>2024-02-04T09:25:47Z</time>
      </trkpt>
      <trkpt lat="43.15743" lon="6.49912">
        <ele>142</ele>
        <time>2024-02-04T09:25:48Z</time>
      </trkpt>
      <trkpt lat="43.15742" lon="6.4991">
        <ele>142.2</ele>
        <time>2024-02-04T09:25:49Z</time>
      </trkpt>
      <trkpt lat="43.15742" lon="6.4991">
        <ele>142.3</ele>
        <time>2024-02-04T09:25:50Z</time>
      </trkpt>
      <trkpt lat="43.15741" lon="6.49908">
        <ele>142.4</ele>
        <time>2024-02-04T09:25:51Z</time>
      </trkpt>
      <trkpt lat="43.1574" lon="6.49906">
        <ele>142.5</ele>
        <time>2024-02-04T09:25:52Z</time>
      </trkpt>
      <trkpt lat="43.1574" lon="6.49906">
        <ele>142.6</ele>
        <time>2024-02-04T09:25:53Z</time>
      </trkpt>
      <trkpt lat="43.1574" lon="6.49906">
        <ele>142.7</ele>
        <time>2024-02-04T09:25:54Z</time>
      </trkpt>
      <trkpt lat="43.1574" lon="6.49906">
        <ele>142.8</ele>
        <time>2024-02-04T09:25:55Z</time>
      </trkpt>
      <trkpt lat="43.1574" lon="6.49905">
        <ele>142.9</ele>
        <time>2024-02-04T09:25:56Z</time>
      </trkpt>
      <trkpt lat="43.1574" lon="6.49905">
        <ele>143.1</ele>
        <time>2024-02-04T09:25:57Z</time>
      </trkpt>
      <trkpt lat="43.1574" lon="6.49905">
        <ele>143.1</ele>
        <time>2024-02-04T09:25:58Z</time>
      </trkpt>
      <trkpt lat="43.1574" lon="6.49905">
        <ele>143.2</ele>
        <time>2024-02-04T09:25:59Z</time>
      </trkpt>
      <trkpt lat="43.1574" lon="6.49905">
        <ele>143.2</ele>
        <time>2024-02-04T09:26:00Z</time>
      </trkpt>
      <trkpt lat="43.1574" lon="6.49904">
        <ele>143.2</ele>
        <time>2024-02-04T09:26:01Z</time>
      </trkpt>
      <trkpt lat="43.1574" lon="6.49904">
        <ele>143.3</ele>
        <time>2024-02-04T09:26:02Z</time>
      </trkpt>
      <trkpt lat="43.1574" lon="6.49904">
        <ele>143.3</ele>
        <time>2024-02-04T09:26:03Z</time>
      </trkpt>
      <trkpt lat="43.1574" lon="6.49904">
        <ele>143.3</ele>
        <time>2024-02-04T09:26:04Z</time>
      </trkpt>
      <trkpt lat="43.1574" lon="6.49904">
        <ele>143.3</ele>
        <time>2024-02-04T09:26:05Z</time>
      </trkpt>
      <trkpt lat="43.1574" lon="6.49904">
        <ele>143.2</ele>
        <time>2024-02-04T09:26:06Z</time>
      </trkpt>
      <trkpt lat="43.1574" lon="6.49904">
        <ele>143.2</ele>
        <time>2024-02-04T09:26:07Z</time>
      </trkpt>
      <trkpt lat="43.1574" lon="6.49904">
        <ele>143.3</ele>
        <time>2024-02-04T09:26:08Z</time>
      </trkpt>
      <trkpt lat="43.15741" lon="6.49904">
        <ele>143.3</ele>
        <time>2024-02-04T09:26:09Z</time>
      </trkpt>
      <trkpt lat="43.1574" lon="6.49903">
        <ele>143.3</ele>
        <time>2024-02-04T09:26:10Z</time>
      </trkpt>
      <trkpt lat="43.1574" lon="6.49902">
        <ele>143.3</ele>
        <time>2024-02-04T09:26:11Z</time>
      </trkpt>
      <trkpt lat="43.15739" lon="6.499">
        <ele>143.5</ele>
        <time>2024-02-04T09:26:12Z</time>
      </trkpt>
      <trkpt lat="43.15739" lon="6.49899">
        <ele>143.6</ele>
        <time>2024-02-04T09:26:13Z</time>
      </trkpt>
      <trkpt lat="43.15738" lon="6.49897">
        <ele>143.7</ele>
        <time>2024-02-04T09:26:14Z</time>
      </trkpt>
      <trkpt lat="43.15737" lon="6.49896">
        <ele>143.9</ele>
        <time>2024-02-04T09:26:15Z</time>
      </trkpt>
      <trkpt lat="43.15737" lon="6.49894">
        <ele>143.9</ele>
        <time>2024-02-04T09:26:16Z</time>
      </trkpt>
      <trkpt lat="43.15737" lon="6.49892">
        <ele>144.1</ele>
        <time>2024-02-04T09:26:17Z</time>
      </trkpt>
      <trkpt lat="43.15736" lon="6.49891">
        <ele>144.2</ele>
        <time>2024-02-04T09:26:18Z</time>
      </trkpt>
      <trkpt lat="43.15736" lon="6.49889">
        <ele>144.3</ele>
        <time>2024-02-04T09:26:19Z</time>
      </trkpt>
      <trkpt lat="43.15735" lon="6.49888">
        <ele>144.4</ele>
        <time>2024-02-04T09:26:20Z</time>
      </trkpt>
      <trkpt lat="43.15735" lon="6.49887">
        <ele>144.6</ele>
        <time>2024-02-04T09:26:21Z</time>
      </trkpt>
      <trkpt lat="43.15734" lon="6.49885">
        <ele>144.7</ele>
        <time>2024-02-04T09:26:22Z</time>
      </trkpt>
      <trkpt lat="43.15734" lon="6.49884">
        <ele>144.9</ele>
        <time>2024-02-04T09:26:23Z</time>
      </trkpt>
      <trkpt lat="43.15733" lon="6.49883">
        <ele>145</ele>
        <time>2024-02-04T09:26:24Z</time>
      </trkpt>
      <trkpt lat="43.15732" lon="6.49881">
        <ele>145.1</ele>
        <time>2024-02-04T09:26:25Z</time>
      </trkpt>
      <trkpt lat="43.15732" lon="6.4988">
        <ele>145.3</ele>
        <time>2024-02-04T09:26:26Z</time>
      </trkpt>
      <trkpt lat="43.15731" lon="6.49878">
        <ele>145.5</ele>
        <time>2024-02-04T09:26:27Z</time>
      </trkpt>
      <trkpt lat="43.1573" lon="6.49877">
        <ele>145.6</ele>
        <time>2024-02-04T09:26:28Z</time>
      </trkpt>
      <trkpt lat="43.15729" lon="6.49876">
        <ele>145.7</ele>
        <time>2024-02-04T09:26:29Z</time>
      </trkpt>
      <trkpt lat="43.15728" lon="6.49876">
        <ele>145.9</ele>
        <time>2024-02-04T09:26:30Z</time>
      </trkpt>
      <trkpt lat="43.15727" lon="6.49875">
        <ele>146</ele>
        <time>2024-02-04T09:26:31Z</time>
      </trkpt>
      <trkpt lat="43.15726" lon="6.49874">
        <ele>146.2</ele>
        <time>2024-02-04T09:26:32Z</time>
      </trkpt>
      <trkpt lat="43.15725" lon="6.49874">
        <ele>146.3</ele>
        <time>2024-02-04T09:26:33Z</time>
      </trkpt>
      <trkpt lat="43.15724" lon="6.49873">
        <ele>146.4</ele>
        <time>2024-02-04T09:26:34Z</time>
      </trkpt>
      <trkpt lat="43.15723" lon="6.49872">
        <ele>146.5</ele>
        <time>2024-02-04T09:26:35Z</time>
      </trkpt>
      <trkpt lat="43.15723" lon="6.49871">
        <ele>146.7</ele>
        <time>2024-02-04T09:26:36Z</time>
      </trkpt>
      <trkpt lat="43.15723" lon="6.49869">
        <ele>146.7</ele>
        <time>2024-02-04T09:26:37Z</time>
      </trkpt>
      <trkpt lat="43.15722" lon="6.49869">
        <ele>146.8</ele>
        <time>2024-02-04T09:26:38Z</time>
      </trkpt>
      <trkpt lat="43.15722" lon="6.49868">
        <ele>146.9</ele>
        <time>2024-02-04T09:26:39Z</time>
      </trkpt>
      <trkpt lat="43.15721" lon="6.49867">
        <ele>147.1</ele>
        <time>2024-02-04T09:26:40Z</time>
      </trkpt>
      <trkpt lat="43.1572" lon="6.49866">
        <ele>147.2</ele>
        <time>2024-02-04T09:26:41Z</time>
      </trkpt>
      <trkpt lat="43.1572" lon="6.49865">
        <ele>147.4</ele>
        <time>2024-02-04T09:26:42Z</time>
      </trkpt>
      <trkpt lat="43.15719" lon="6.49864">
        <ele>147.5</ele>
        <time>2024-02-04T09:26:43Z</time>
      </trkpt>
      <trkpt lat="43.15718" lon="6.49863">
        <ele>147.6</ele>
        <time>2024-02-04T09:26:44Z</time>
      </trkpt>
      <trkpt lat="43.15717" lon="6.49862">
        <ele>147.7</ele>
        <time>2024-02-04T09:26:45Z</time>
      </trkpt>
      <trkpt lat="43.15716" lon="6.49862">
        <ele>147.9</ele>
        <time>2024-02-04T09:26:46Z</time>
      </trkpt>
      <trkpt lat="43.15715" lon="6.49862">
        <ele>148</ele>
        <time>2024-02-04T09:26:47Z</time>
      </trkpt>
      <trkpt lat="43.15715" lon="6.49861">
        <ele>148.1</ele>
        <time>2024-02-04T09:26:48Z</time>
      </trkpt>
      <trkpt lat="43.15714" lon="6.4986">
        <ele>148.2</ele>
        <time>2024-02-04T09:26:49Z</time>
      </trkpt>
      <trkpt lat="43.15713" lon="6.49859">
        <ele>148.4</ele>
        <time>2024-02-04T09:26:50Z</time>
      </trkpt>
      <trkpt lat="43.15712" lon="6.49859">
        <ele>148.5</ele>
        <time>2024-02-04T09:26:51Z</time>
      </trkpt>
      <trkpt lat="43.15711" lon="6.49859">
        <ele>148.6</ele>
        <time>2024-02-04T09:26:52Z</time>
      </trkpt>
      <trkpt lat="43.1571" lon="6.49859">
        <ele>148.8</ele>
        <time>2024-02-04T09:26:53Z</time>
      </trkpt>
      <trkpt lat="43.1571" lon="6.49858">
        <ele>148.9</ele>
        <time>2024-02-04T09:26:54Z</time>
      </trkpt>
      <trkpt lat="43.15709" lon="6.49858">
        <ele>149.1</ele>
        <time>2024-02-04T09:26:55Z</time>
      </trkpt>
      <trkpt lat="43.15709" lon="6.49857">
        <ele>149.2</ele>
        <time>2024-02-04T09:26:56Z</time>
      </trkpt>
      <trkpt lat="43.15708" lon="6.49857">
        <ele>149.5</ele>
        <time>2024-02-04T09:26:57Z</time>
      </trkpt>
      <trkpt lat="43.15707" lon="6.49856">
        <ele>149.7</ele>
        <time>2024-02-04T09:26:58Z</time>
      </trkpt>
      <trkpt lat="43.15707" lon="6.49855">
        <ele>149.9</ele>
        <time>2024-02-04T09:26:59Z</time>
      </trkpt>
      <trkpt lat="43.15706" lon="6.49854">
        <ele>150.2</ele>
        <time>2024-02-04T09:27:00Z</time>
      </trkpt>
      <trkpt lat="43.15706" lon="6.49854">
        <ele>150.4</ele>
        <time>2024-02-04T09:27:01Z</time>
      </trkpt>
      <trkpt lat="43.15705" lon="6.49853">
        <ele>150.6</ele>
        <time>2024-02-04T09:27:02Z</time>
      </trkpt>
      <trkpt lat="43.15704" lon="6.49853">
        <ele>150.7</ele>
        <time>2024-02-04T09:27:03Z</time>
      </trkpt>
      <trkpt lat="43.15704" lon="6.49852">
        <ele>150.8</ele>
        <time>2024-02-04T09:27:04Z</time>
      </trkpt>
      <trkpt lat="43.15703" lon="6.49851">
        <ele>150.9</ele>
        <time>2024-02-04T09:27:05Z</time>
      </trkpt>
      <trkpt lat="43.15702" lon="6.4985">
        <ele>151</ele>
        <time>2024-02-04T09:27:06Z</time>
      </trkpt>
      <trkpt lat="43.15702" lon="6.49849">
        <ele>151.1</ele>
        <time>2024-02-04T09:27:07Z</time>
      </trkpt>
      <trkpt lat="43.15701" lon="6.49849">
        <ele>151.2</ele>
        <time>2024-02-04T09:27:08Z</time>
      </trkpt>
      <trkpt lat="43.15701" lon="6.49848">
        <ele>151.4</ele>
        <time>2024-02-04T09:27:09Z</time>
      </trkpt>
      <trkpt lat="43.157" lon="6.49848">
        <ele>151.6</ele>
        <time>2024-02-04T09:27:10Z</time>
      </trkpt>
      <trkpt lat="43.157" lon="6.49847">
        <ele>151.7</ele>
        <time>2024-02-04T09:27:11Z</time>
      </trkpt>
      <trkpt lat="43.15699" lon="6.49846">
        <ele>151.8</ele>
        <time>2024-02-04T09:27:12Z</time>
      </trkpt>
      <trkpt lat="43.15698" lon="6.49846">
        <ele>151.9</ele>
        <time>2024-02-04T09:27:13Z</time>
      </trkpt>
      <trkpt lat="43.15697" lon="6.49845">
        <ele>152.1</ele>
        <time>2024-02-04T09:27:14Z</time>
      </trkpt>
      <trkpt lat="43.15697" lon="6.49845">
        <ele>152.1</ele>
        <time>2024-02-04T09:27:15Z</time>
      </trkpt>
      <trkpt lat="43.15696" lon="6.49844">
        <ele>152.2</ele>
        <time>2024-02-04T09:27:16Z</time>
      </trkpt>
      <trkpt lat="43.15695" lon="6.49844">
        <ele>152.3</ele>
        <time>2024-02-04T09:27:17Z</time>
      </trkpt>
      <trkpt lat="43.15694" lon="6.49844">
        <ele>152.4</ele>
        <time>2024-02-04T09:27:18Z</time>
      </trkpt>
      <trkpt lat="43.15693" lon="6.49844">
        <ele>152.5</ele>
        <time>2024-02-04T09:27:19Z</time>
      </trkpt>
      <trkpt lat="43.15692" lon="6.49843">
        <ele>152.6</ele>
        <time>2024-02-04T09:27:20Z</time>
      </trkpt>
      <trkpt lat="43.15691" lon="6.49843">
        <ele>152.9</ele>
        <time>2024-02-04T09:27:21Z</time>
      </trkpt>
      <trkpt lat="43.1569" lon="6.49842">
        <ele>153</ele>
        <time>2024-02-04T09:27:22Z</time>
      </trkpt>
      <trkpt lat="43.1569" lon="6.49842">
        <ele>153.2</ele>
        <time>2024-02-04T09:27:23Z</time>
      </trkpt>
      <trkpt lat="43.15689" lon="6.49841">
        <ele>153.3</ele>
        <time>2024-02-04T09:27:24Z</time>
      </trkpt>
      <trkpt lat="43.15688" lon="6.49841">
        <ele>153.4</ele>
        <time>2024-02-04T09:27:25Z</time>
      </trkpt>
      <trkpt lat="43.15687" lon="6.4984">
        <ele>153.6</ele>
        <time>2024-02-04T09:27:26Z</time>
      </trkpt>
      <trkpt lat="43.15686" lon="6.49839">
        <ele>153.8</ele>
        <time>2024-02-04T09:27:27Z</time>
      </trkpt>
      <trkpt lat="43.15686" lon="6.49838">
        <ele>154</ele>
        <time>2024-02-04T09:27:28Z</time>
      </trkpt>
      <trkpt lat="43.15685" lon="6.49837">
        <ele>154.1</ele>
        <time>2024-02-04T09:27:29Z</time>
      </trkpt>
      <trkpt lat="43.15684" lon="6.49837">
        <ele>154.3</ele>
        <time>2024-02-04T09:27:30Z</time>
      </trkpt>
      <trkpt lat="43.15684" lon="6.49837">
        <ele>154.4</ele>
        <time>2024-02-04T09:27:31Z</time>
      </trkpt>
      <trkpt lat="43.15683" lon="6.49837">
        <ele>154.5</ele>
        <time>2024-02-04T09:27:32Z</time>
      </trkpt>
      <trkpt lat="43.15683" lon="6.49836">
        <ele>154.6</ele>
        <time>2024-02-04T09:27:33Z</time>
      </trkpt>
      <trkpt lat="43.15682" lon="6.49836">
        <ele>154.7</ele>
        <time>2024-02-04T09:27:34Z</time>
      </trkpt>
      <trkpt lat="43.15682" lon="6.49835">
        <ele>154.9</ele>
        <time>2024-02-04T09:27:35Z</time>
      </trkpt>
      <trkpt lat="43.15681" lon="6.49835">
        <ele>155</ele>
        <time>2024-02-04T09:27:36Z</time>
      </trkpt>
      <trkpt lat="43.1568" lon="6.49834">
        <ele>155.1</ele>
        <time>2024-02-04T09:27:37Z</time>
      </trkpt>
      <trkpt lat="43.15679" lon="6.49833">
        <ele>155.2</ele>
        <time>2024-02-04T09:27:38Z</time>
      </trkpt>
      <trkpt lat="43.15678" lon="6.49833">
        <ele>155.3</ele>
        <time>2024-02-04T09:27:39Z</time>
      </trkpt>
      <trkpt lat="43.15678" lon="6.49833">
        <ele>155.5</ele>
        <time>2024-02-04T09:27:40Z</time>
      </trkpt>
      <trkpt lat="43.15677" lon="6.49832">
        <ele>155.6</ele>
        <time>2024-02-04T09:27:41Z</time>
      </trkpt>
      <trkpt lat="43.15676" lon="6.49832">
        <ele>155.6</ele>
        <time>2024-02-04T09:27:42Z</time>
      </trkpt>
      <trkpt lat="43.15676" lon="6.49831">
        <ele>155.7</ele>
        <time>2024-02-04T09:27:43Z</time>
      </trkpt>
      <trkpt lat="43.15675" lon="6.49831">
        <ele>155.8</ele>
        <time>2024-02-04T09:27:44Z</time>
      </trkpt>
      <trkpt lat="43.15674" lon="6.4983">
        <ele>155.9</ele>
        <time>2024-02-04T09:27:45Z</time>
      </trkpt>
      <trkpt lat="43.15674" lon="6.4983">
        <ele>156</ele>
        <time>2024-02-04T09:27:46Z</time>
      </trkpt>
      <trkpt lat="43.15674" lon="6.4983">
        <ele>156.1</ele>
        <time>2024-02-04T09:27:47Z</time>
      </trkpt>
      <trkpt lat="43.15673" lon="6.4983">
        <ele>156.2</ele>
        <time>2024-02-04T09:27:48Z</time>
      </trkpt>
      <trkpt lat="43.15673" lon="6.4983">
        <ele>156.2</ele>
        <time>2024-02-04T09:27:49Z</time>
      </trkpt>
      <trkpt lat="43.15672" lon="6.49829">
        <ele>156.2</ele>
        <time>2024-02-04T09:27:50Z</time>
      </trkpt>
      <trkpt lat="43.15671" lon="6.49828">
        <ele>156.4</ele>
        <time>2024-02-04T09:27:51Z</time>
      </trkpt>
      <trkpt lat="43.1567" lon="6.49827">
        <ele>156.5</ele>
        <time>2024-02-04T09:27:52Z</time>
      </trkpt>
      <trkpt lat="43.1567" lon="6.49827">
        <ele>156.7</ele>
        <time>2024-02-04T09:27:53Z</time>
      </trkpt>
      <trkpt lat="43.15669" lon="6.49826">
        <ele>156.8</ele>
        <time>2024-02-04T09:27:54Z</time>
      </trkpt>
      <trkpt lat="43.15668" lon="6.49826">
        <ele>156.9</ele>
        <time>2024-02-04T09:27:55Z</time>
      </trkpt>
      <trkpt lat="43.15667" lon="6.49825">
        <ele>156.9</ele>
        <time>2024-02-04T09:27:56Z</time>
      </trkpt>
      <trkpt lat="43.15666" lon="6.49824">
        <ele>157</ele>
        <time>2024-02-04T09:27:57Z</time>
      </trkpt>
      <trkpt lat="43.15665" lon="6.49824">
        <ele>157</ele>
        <time>2024-02-04T09:27:58Z</time>
      </trkpt>
      <trkpt lat="43.15664" lon="6.49824">
        <ele>157.2</ele>
        <time>2024-02-04T09:27:59Z</time>
      </trkpt>
      <trkpt lat="43.15664" lon="6.49823">
        <ele>157.3</ele>
        <time>2024-02-04T09:28:00Z</time>
      </trkpt>
      <trkpt lat="43.15663" lon="6.49823">
        <ele>157.4</ele>
        <time>2024-02-04T09:28:01Z</time>
      </trkpt>
      <trkpt lat="43.15663" lon="6.49822">
        <ele>157.5</ele>
        <time>2024-02-04T09:28:02Z</time>
      </trkpt>
      <trkpt lat="43.15662" lon="6.49822">
        <ele>157.6</ele>
        <time>2024-02-04T09:28:03Z</time>
      </trkpt>
      <trkpt lat="43.15661" lon="6.49821">
        <ele>157.7</ele>
        <time>2024-02-04T09:28:04Z</time>
      </trkpt>
      <trkpt lat="43.15661" lon="6.49821">
        <ele>157.8</ele>
        <time>2024-02-04T09:28:05Z</time>
      </trkpt>
      <trkpt lat="43.1566" lon="6.49821">
        <ele>157.8</ele>
        <time>2024-02-04T09:28:06Z</time>
      </trkpt>
      <trkpt lat="43.15659" lon="6.4982">
        <ele>157.9</ele>
        <time>2024-02-04T09:28:07Z</time>
      </trkpt>
      <trkpt lat="43.15659" lon="6.4982">
        <ele>158</ele>
        <time>2024-02-04T09:28:08Z</time>
      </trkpt>
      <trkpt lat="43.15658" lon="6.49819">
        <ele>158.1</ele>
        <time>2024-02-04T09:28:09Z</time>
      </trkpt>
      <trkpt lat="43.15658" lon="6.49818">
        <ele>158.3</ele>
        <time>2024-02-04T09:28:10Z</time>
      </trkpt>
      <trkpt lat="43.15657" lon="6.49818">
        <ele>158.5</ele>
        <time>2024-02-04T09:28:11Z</time>
      </trkpt>
      <trkpt lat="43.15657" lon="6.49817">
        <ele>158.6</ele>
        <time>2024-02-04T09:28:12Z</time>
      </trkpt>
      <trkpt lat="43.15656" lon="6.49816">
        <ele>158.7</ele>
        <time>2024-02-04T09:28:13Z</time>
      </trkpt>
      <trkpt lat="43.15655" lon="6.49815">
        <ele>158.9</ele>
        <time>2024-02-04T09:28:14Z</time>
      </trkpt>
      <trkpt lat="43.15655" lon="6.49815">
        <ele>159.1</ele>
        <time>2024-02-04T09:28:15Z</time>
      </trkpt>
      <trkpt lat="43.15654" lon="6.49814">
        <ele>159.2</ele>
        <time>2024-02-04T09:28:16Z</time>
      </trkpt>
      <trkpt lat="43.15653" lon="6.49814">
        <ele>159.3</ele>
        <time>2024-02-04T09:28:17Z</time>
      </trkpt>
      <trkpt lat="43.15652" lon="6.49813">
        <ele>159.4</ele>
        <time>2024-02-04T09:28:18Z</time>
      </trkpt>
      <trkpt lat="43.15652" lon="6.49813">
        <ele>159.6</ele>
        <time>2024-02-04T09:28:19Z</time>
      </trkpt>
      <trkpt lat="43.15651" lon="6.49813">
        <ele>159.7</ele>
        <time>2024-02-04T09:28:20Z</time>
      </trkpt>
      <trkpt lat="43.15651" lon="6.49812">
        <ele>159.8</ele>
        <time>2024-02-04T09:28:21Z</time>
      </trkpt>
      <trkpt lat="43.1565" lon="6.49811">
        <ele>160</ele>
        <time>2024-02-04T09:28:22Z</time>
      </trkpt>
      <trkpt lat="43.15649" lon="6.49812">
        <ele>160.1</ele>
        <time>2024-02-04T09:28:23Z</time>
      </trkpt>
      <trkpt lat="43.15648" lon="6.49811">
        <ele>160.2</ele>
        <time>2024-02-04T09:28:24Z</time>
      </trkpt>
      <trkpt lat="43.15647" lon="6.49811">
        <ele>160.3</ele>
        <time>2024-02-04T09:28:25Z</time>
      </trkpt>
      <trkpt lat="43.15646" lon="6.4981">
        <ele>160.4</ele>
        <time>2024-02-04T09:28:26Z</time>
      </trkpt>
      <trkpt lat="43.15646" lon="6.4981">
        <ele>160.6</ele>
        <time>2024-02-04T09:28:27Z</time>
      </trkpt>
      <trkpt lat="43.15645" lon="6.4981">
        <ele>160.7</ele>
        <time>2024-02-04T09:28:28Z</time>
      </trkpt>
      <trkpt lat="43.15645" lon="6.49809">
        <ele>160.9</ele>
        <time>2024-02-04T09:28:29Z</time>
      </trkpt>
      <trkpt lat="43.15645" lon="6.49809">
        <ele>161.1</ele>
        <time>2024-02-04T09:28:30Z</time>
      </trkpt>
      <trkpt lat="43.15645" lon="6.4981">
        <ele>161.1</ele>
        <time>2024-02-04T09:28:31Z</time>
      </trkpt>
      <trkpt lat="43.15644" lon="6.49809">
        <ele>161.3</ele>
        <time>2024-02-04T09:28:32Z</time>
      </trkpt>
      <trkpt lat="43.15644" lon="6.49809">
        <ele>161.5</ele>
        <time>2024-02-04T09:28:33Z</time>
      </trkpt>
      <trkpt lat="43.15643" lon="6.49809">
        <ele>161.6</ele>
        <time>2024-02-04T09:28:34Z</time>
      </trkpt>
      <trkpt lat="43.15642" lon="6.49808">
        <ele>161.7</ele>
        <time>2024-02-04T09:28:35Z</time>
      </trkpt>
      <trkpt lat="43.15642" lon="6.49807">
        <ele>161.9</ele>
        <time>2024-02-04T09:28:36Z</time>
      </trkpt>
      <trkpt lat="43.15641" lon="6.49807">
        <ele>161.9</ele>
        <time>2024-02-04T09:28:37Z</time>
      </trkpt>
      <trkpt lat="43.1564" lon="6.49806">
        <ele>162.1</ele>
        <time>2024-02-04T09:28:38Z</time>
      </trkpt>
      <trkpt lat="43.15639" lon="6.49806">
        <ele>162.2</ele>
        <time>2024-02-04T09:28:39Z</time>
      </trkpt>
      <trkpt lat="43.15638" lon="6.49805">
        <ele>162.3</ele>
        <time>2024-02-04T09:28:40Z</time>
      </trkpt>
      <trkpt lat="43.15637" lon="6.49805">
        <ele>162.4</ele>
        <time>2024-02-04T09:28:41Z</time>
      </trkpt>
      <trkpt lat="43.15636" lon="6.49804">
        <ele>162.5</ele>
        <time>2024-02-04T09:28:42Z</time>
      </trkpt>
      <trkpt lat="43.15636" lon="6.49804">
        <ele>162.6</ele>
        <time>2024-02-04T09:28:43Z</time>
      </trkpt>
      <trkpt lat="43.15635" lon="6.49803">
        <ele>162.6</ele>
        <time>2024-02-04T09:28:44Z</time>
      </trkpt>
      <trkpt lat="43.15635" lon="6.49802">
        <ele>162.8</ele>
        <time>2024-02-04T09:28:45Z</time>
      </trkpt>
      <trkpt lat="43.15634" lon="6.49802">
        <ele>162.9</ele>
        <time>2024-02-04T09:28:46Z</time>
      </trkpt>
      <trkpt lat="43.15633" lon="6.49802">
        <ele>163</ele>
        <time>2024-02-04T09:28:47Z</time>
      </trkpt>
      <trkpt lat="43.15633" lon="6.49802">
        <ele>163.1</ele>
        <time>2024-02-04T09:28:48Z</time>
      </trkpt>
      <trkpt lat="43.15632" lon="6.49801">
        <ele>163.2</ele>
        <time>2024-02-04T09:28:49Z</time>
      </trkpt>
      <trkpt lat="43.15631" lon="6.49801">
        <ele>163.3</ele>
        <time>2024-02-04T09:28:50Z</time>
      </trkpt>
      <trkpt lat="43.1563" lon="6.498">
        <ele>163.5</ele>
        <time>2024-02-04T09:28:51Z</time>
      </trkpt>
      <trkpt lat="43.1563" lon="6.498">
        <ele>163.7</ele>
        <time>2024-02-04T09:28:52Z</time>
      </trkpt>
      <trkpt lat="43.15629" lon="6.49799">
        <ele>163.8</ele>
        <time>2024-02-04T09:28:53Z</time>
      </trkpt>
      <trkpt lat="43.15628" lon="6.49799">
        <ele>163.8</ele>
        <time>2024-02-04T09:28:54Z</time>
      </trkpt>
      <trkpt lat="43.15628" lon="6.49798">
        <ele>163.9</ele>
        <time>2024-02-04T09:28:55Z</time>
      </trkpt>
      <trkpt lat="43.15627" lon="6.49798">
        <ele>164</ele>
        <time>2024-02-04T09:28:56Z</time>
      </trkpt>
      <trkpt lat="43.15626" lon="6.49799">
        <ele>164.2</ele>
        <time>2024-02-04T09:28:57Z</time>
      </trkpt>
      <trkpt lat="43.15626" lon="6.49799">
        <ele>164.3</ele>
        <time>2024-02-04T09:28:58Z</time>
      </trkpt>
      <trkpt lat="43.15625" lon="6.49798">
        <ele>164.4</ele>
        <time>2024-02-04T09:28:59Z</time>
      </trkpt>
      <trkpt lat="43.15625" lon="6.49797">
        <ele>164.6</ele>
        <time>2024-02-04T09:29:00Z</time>
      </trkpt>
      <trkpt lat="43.15624" lon="6.49797">
        <ele>164.6</ele>
        <time>2024-02-04T09:29:01Z</time>
      </trkpt>
      <trkpt lat="43.15624" lon="6.49797">
        <ele>164.7</ele>
        <time>2024-02-04T09:29:02Z</time>
      </trkpt>
      <trkpt lat="43.15623" lon="6.49796">
        <ele>164.9</ele>
        <time>2024-02-04T09:29:03Z</time>
      </trkpt>
      <trkpt lat="43.15622" lon="6.49796">
        <ele>165</ele>
        <time>2024-02-04T09:29:04Z</time>
      </trkpt>
      <trkpt lat="43.15621" lon="6.49795">
        <ele>165.2</ele>
        <time>2024-02-04T09:29:05Z</time>
      </trkpt>
      <trkpt lat="43.1562" lon="6.49794">
        <ele>165.4</ele>
        <time>2024-02-04T09:29:06Z</time>
      </trkpt>
      <trkpt lat="43.1562" lon="6.49794">
        <ele>165.5</ele>
        <time>2024-02-04T09:29:07Z</time>
      </trkpt>
      <trkpt lat="43.15619" lon="6.49794">
        <ele>165.7</ele>
        <time>2024-02-04T09:29:08Z</time>
      </trkpt>
      <trkpt lat="43.15618" lon="6.49794">
        <ele>165.8</ele>
        <time>2024-02-04T09:29:09Z</time>
      </trkpt>
      <trkpt lat="43.15617" lon="6.49794">
        <ele>165.9</ele>
        <time>2024-02-04T09:29:10Z</time>
      </trkpt>
      <trkpt lat="43.15616" lon="6.49794">
        <ele>166.2</ele>
        <time>2024-02-04T09:29:11Z</time>
      </trkpt>
      <trkpt lat="43.15615" lon="6.49793">
        <ele>166.3</ele>
        <time>2024-02-04T09:29:12Z</time>
      </trkpt>
      <trkpt lat="43.15614" lon="6.49793">
        <ele>166.5</ele>
        <time>2024-02-04T09:29:13Z</time>
      </trkpt>
      <trkpt lat="43.15613" lon="6.49793">
        <ele>166.7</ele>
        <time>2024-02-04T09:29:14Z</time>
      </trkpt>
      <trkpt lat="43.15612" lon="6.49792">
        <ele>166.8</ele>
        <time>2024-02-04T09:29:15Z</time>
      </trkpt>
      <trkpt lat="43.15612" lon="6.49792">
        <ele>167</ele>
        <time>2024-02-04T09:29:16Z</time>
      </trkpt>
      <trkpt lat="43.15611" lon="6.49792">
        <ele>167.2</ele>
        <time>2024-02-04T09:29:17Z</time>
      </trkpt>
      <trkpt lat="43.1561" lon="6.49792">
        <ele>167.3</ele>
        <time>2024-02-04T09:29:18Z</time>
      </trkpt>
      <trkpt lat="43.15609" lon="6.49792">
        <ele>167.4</ele>
        <time>2024-02-04T09:29:19Z</time>
      </trkpt>
      <trkpt lat="43.15608" lon="6.49792">
        <ele>167.6</ele>
        <time>2024-02-04T09:29:20Z</time>
      </trkpt>
      <trkpt lat="43.15608" lon="6.49792">
        <ele>167.7</ele>
        <time>2024-02-04T09:29:21Z</time>
      </trkpt>
      <trkpt lat="43.15607" lon="6.49792">
        <ele>167.9</ele>
        <time>2024-02-04T09:29:22Z</time>
      </trkpt>
      <trkpt lat="43.15606" lon="6.49792">
        <ele>168.1</ele>
        <time>2024-02-04T09:29:23Z</time>
      </trkpt>
      <trkpt lat="43.15606" lon="6.49792">
        <ele>168.4</ele>
        <time>2024-02-04T09:29:24Z</time>
      </trkpt>
      <trkpt lat="43.15605" lon="6.49792">
        <ele>168.5</ele>
        <time>2024-02-04T09:29:25Z</time>
      </trkpt>
      <trkpt lat="43.15604" lon="6.49792">
        <ele>168.7</ele>
        <time>2024-02-04T09:29:26Z</time>
      </trkpt>
      <trkpt lat="43.15603" lon="6.49792">
        <ele>168.7</ele>
        <time>2024-02-04T09:29:27Z</time>
      </trkpt>
      <trkpt lat="43.15603" lon="6.49792">
        <ele>168.9</ele>
        <time>2024-02-04T09:29:28Z</time>
      </trkpt>
      <trkpt lat="43.15602" lon="6.49792">
        <ele>168.9</ele>
        <time>2024-02-04T09:29:29Z</time>
      </trkpt>
      <trkpt lat="43.15602" lon="6.49791">
        <ele>169.1</ele>
        <time>2024-02-04T09:29:30Z</time>
      </trkpt>
      <trkpt lat="43.15602" lon="6.49791">
        <ele>169.3</ele>
        <time>2024-02-04T09:29:31Z</time>
      </trkpt>
      <trkpt lat="43.15602" lon="6.4979">
        <ele>169.4</ele>
        <time>2024-02-04T09:29:32Z</time>
      </trkpt>
      <trkpt lat="43.15601" lon="6.4979">
        <ele>169.5</ele>
        <time>2024-02-04T09:29:33Z</time>
      </trkpt>
      <trkpt lat="43.156" lon="6.49789">
        <ele>169.7</ele>
        <time>2024-02-04T09:29:34Z</time>
      </trkpt>
      <trkpt lat="43.15599" lon="6.49789">
        <ele>169.8</ele>
        <time>2024-02-04T09:29:35Z</time>
      </trkpt>
      <trkpt lat="43.15599" lon="6.49788">
        <ele>169.9</ele>
        <time>2024-02-04T09:29:36Z</time>
      </trkpt>
      <trkpt lat="43.15598" lon="6.49788">
        <ele>170.1</ele>
        <time>2024-02-04T09:29:37Z</time>
      </trkpt>
      <trkpt lat="43.15597" lon="6.49788">
        <ele>170.3</ele>
        <time>2024-02-04T09:29:38Z</time>
      </trkpt>
      <trkpt lat="43.15597" lon="6.49788">
        <ele>170.4</ele>
        <time>2024-02-04T09:29:39Z</time>
      </trkpt>
      <trkpt lat="43.15596" lon="6.49787">
        <ele>170.6</ele>
        <time>2024-02-04T09:29:40Z</time>
      </trkpt>
      <trkpt lat="43.15595" lon="6.49787">
        <ele>170.8</ele>
        <time>2024-02-04T09:29:41Z</time>
      </trkpt>
      <trkpt lat="43.15595" lon="6.49786">
        <ele>171</ele>
        <time>2024-02-04T09:29:42Z</time>
      </trkpt>
      <trkpt lat="43.15594" lon="6.49785">
        <ele>171.3</ele>
        <time>2024-02-04T09:29:43Z</time>
      </trkpt>
      <trkpt lat="43.15594" lon="6.49785">
        <ele>171.5</ele>
        <time>2024-02-04T09:29:44Z</time>
      </trkpt>
      <trkpt lat="43.15593" lon="6.49785">
        <ele>171.6</ele>
        <time>2024-02-04T09:29:45Z</time>
      </trkpt>
      <trkpt lat="43.15593" lon="6.49784">
        <ele>171.7</ele>
        <time>2024-02-04T09:29:46Z</time>
      </trkpt>
      <trkpt lat="43.15592" lon="6.49784">
        <ele>171.8</ele>
        <time>2024-02-04T09:29:47Z</time>
      </trkpt>
      <trkpt lat="43.15591" lon="6.49784">
        <ele>172</ele>
        <time>2024-02-04T09:29:48Z</time>
      </trkpt>
      <trkpt lat="43.1559" lon="6.49784">
        <ele>172.2</ele>
        <time>2024-02-04T09:29:49Z</time>
      </trkpt>
      <trkpt lat="43.1559" lon="6.49784">
        <ele>172.4</ele>
        <time>2024-02-04T09:29:50Z</time>
      </trkpt>
      <trkpt lat="43.15589" lon="6.49783">
        <ele>172.6</ele>
        <time>2024-02-04T09:29:51Z</time>
      </trkpt>
      <trkpt lat="43.15588" lon="6.49783">
        <ele>172.7</ele>
        <time>2024-02-04T09:29:52Z</time>
      </trkpt>
      <trkpt lat="43.15587" lon="6.49783">
        <ele>172.9</ele>
        <time>2024-02-04T09:29:53Z</time>
      </trkpt>
      <trkpt lat="43.15586" lon="6.49783">
        <ele>172.9</ele>
        <time>2024-02-04T09:29:54Z</time>
      </trkpt>
      <trkpt lat="43.15586" lon="6.49783">
        <ele>173</ele>
        <time>2024-02-04T09:29:55Z</time>
      </trkpt>
      <trkpt lat="43.15585" lon="6.49783">
        <ele>173.1</ele>
        <time>2024-02-04T09:29:56Z</time>
      </trkpt>
      <trkpt lat="43.15584" lon="6.49783">
        <ele>173.1</ele>
        <time>2024-02-04T09:29:57Z</time>
      </trkpt>
      <trkpt lat="43.15584" lon="6.49782">
        <ele>173.2</ele>
        <time>2024-02-04T09:29:58Z</time>
      </trkpt>
      <trkpt lat="43.15583" lon="6.49782">
        <ele>173.3</ele>
        <time>2024-02-04T09:29:59Z</time>
      </trkpt>
      <trkpt lat="43.15582" lon="6.49782">
        <ele>173.4</ele>
        <time>2024-02-04T09:30:00Z</time>
      </trkpt>
      <trkpt lat="43.15582" lon="6.49782">
        <ele>173.5</ele>
        <time>2024-02-04T09:30:01Z</time>
      </trkpt>
      <trkpt lat="43.15582" lon="6.49781">
        <ele>173.6</ele>
        <time>2024-02-04T09:30:02Z</time>
      </trkpt>
      <trkpt lat="43.15582" lon="6.49781">
        <ele>173.7</ele>
        <time>2024-02-04T09:30:03Z</time>
      </trkpt>
      <trkpt lat="43.15582" lon="6.4978">
        <ele>173.7</ele>
        <time>2024-02-04T09:30:04Z</time>
      </trkpt>
      <trkpt lat="43.15582" lon="6.49779">
        <ele>173.9</ele>
        <time>2024-02-04T09:30:05Z</time>
      </trkpt>
      <trkpt lat="43.15581" lon="6.49779">
        <ele>174.1</ele>
        <time>2024-02-04T09:30:06Z</time>
      </trkpt>
      <trkpt lat="43.1558" lon="6.49778">
        <ele>174.2</ele>
        <time>2024-02-04T09:30:07Z</time>
      </trkpt>
      <trkpt lat="43.15579" lon="6.49777">
        <ele>174.3</ele>
        <time>2024-02-04T09:30:08Z</time>
      </trkpt>
      <trkpt lat="43.15579" lon="6.49777">
        <ele>174.4</ele>
        <time>2024-02-04T09:30:09Z</time>
      </trkpt>
      <trkpt lat="43.15578" lon="6.49777">
        <ele>174.5</ele>
        <time>2024-02-04T09:30:10Z</time>
      </trkpt>
      <trkpt lat="43.15577" lon="6.49777">
        <ele>174.6</ele>
        <time>2024-02-04T09:30:11Z</time>
      </trkpt>
      <trkpt lat="43.15576" lon="6.49777">
        <ele>174.6</ele>
        <time>2024-02-04T09:30:12Z</time>
      </trkpt>
      <trkpt lat="43.15575" lon="6.49778">
        <ele>174.7</ele>
        <time>2024-02-04T09:30:13Z</time>
      </trkpt>
      <trkpt lat="43.15574" lon="6.49778">
        <ele>174.8</ele>
        <time>2024-02-04T09:30:14Z</time>
      </trkpt>
      <trkpt lat="43.15574" lon="6.49777">
        <ele>174.8</ele>
        <time>2024-02-04T09:30:15Z</time>
      </trkpt>
      <trkpt lat="43.15573" lon="6.49777">
        <ele>174.8</ele>
        <time>2024-02-04T09:30:16Z</time>
      </trkpt>
      <trkpt lat="43.15573" lon="6.49777">
        <ele>174.9</ele>
        <time>2024-02-04T09:30:17Z</time>
      </trkpt>
      <trkpt lat="43.15573" lon="6.49777">
        <ele>174.9</ele>
        <time>2024-02-04T09:30:18Z</time>
      </trkpt>
      <trkpt lat="43.15572" lon="6.49776">
        <ele>175.1</ele>
        <time>2024-02-04T09:30:19Z</time>
      </trkpt>
      <trkpt lat="43.15571" lon="6.49776">
        <ele>175.2</ele>
        <time>2024-02-04T09:30:20Z</time>
      </trkpt>
      <trkpt lat="43.15571" lon="6.49776">
        <ele>175.3</ele>
        <time>2024-02-04T09:30:21Z</time>
      </trkpt>
      <trkpt lat="43.1557" lon="6.49775">
        <ele>175.4</ele>
        <time>2024-02-04T09:30:22Z</time>
      </trkpt>
      <trkpt lat="43.15569" lon="6.49775">
        <ele>175.5</ele>
        <time>2024-02-04T09:30:23Z</time>
      </trkpt>
      <trkpt lat="43.15569" lon="6.49774">
        <ele>175.5</ele>
        <time>2024-02-04T09:30:24Z</time>
      </trkpt>
      <trkpt lat="43.15568" lon="6.49774">
        <ele>175.7</ele>
        <time>2024-02-04T09:30:25Z</time>
      </trkpt>
      <trkpt lat="43.15568" lon="6.49773">
        <ele>175.8</ele>
        <time>2024-02-04T09:30:26Z</time>
      </trkpt>
      <trkpt lat="43.15567" lon="6.49773">
        <ele>176</ele>
        <time>2024-02-04T09:30:27Z</time>
      </trkpt>
      <trkpt lat="43.15567" lon="6.49773">
        <ele>176.1</ele>
        <time>2024-02-04T09:30:28Z</time>
      </trkpt>
      <trkpt lat="43.15567" lon="6.49772">
        <ele>176.1</ele>
        <time>2024-02-04T09:30:29Z</time>
      </trkpt>
      <trkpt lat="43.15566" lon="6.49771">
        <ele>176.2</ele>
        <time>2024-02-04T09:30:30Z</time>
      </trkpt>
      <trkpt lat="43.15566" lon="6.49771">
        <ele>176.4</ele>
        <time>2024-02-04T09:30:31Z</time>
      </trkpt>
      <trkpt lat="43.15565" lon="6.4977">
        <ele>176.5</ele>
        <time>2024-02-04T09:30:32Z</time>
      </trkpt>
      <trkpt lat="43.15564" lon="6.49769">
        <ele>176.6</ele>
        <time>2024-02-04T09:30:33Z</time>
      </trkpt>
      <trkpt lat="43.15564" lon="6.49768">
        <ele>176.8</ele>
        <time>2024-02-04T09:30:34Z</time>
      </trkpt>
      <trkpt lat="43.15563" lon="6.49767">
        <ele>176.9</ele>
        <time>2024-02-04T09:30:35Z</time>
      </trkpt>
      <trkpt lat="43.15562" lon="6.49766">
        <ele>177.1</ele>
        <time>2024-02-04T09:30:36Z</time>
      </trkpt>
      <trkpt lat="43.15561" lon="6.49766">
        <ele>177.1</ele>
        <time>2024-02-04T09:30:37Z</time>
      </trkpt>
      <trkpt lat="43.15561" lon="6.49765">
        <ele>177.2</ele>
        <time>2024-02-04T09:30:38Z</time>
      </trkpt>
      <trkpt lat="43.1556" lon="6.49764">
        <ele>177.2</ele>
        <time>2024-02-04T09:30:39Z</time>
      </trkpt>
      <trkpt lat="43.1556" lon="6.49763">
        <ele>177.3</ele>
        <time>2024-02-04T09:30:40Z</time>
      </trkpt>
      <trkpt lat="43.15559" lon="6.49762">
        <ele>177.4</ele>
        <time>2024-02-04T09:30:41Z</time>
      </trkpt>
      <trkpt lat="43.15559" lon="6.49761">
        <ele>177.6</ele>
        <time>2024-02-04T09:30:42Z</time>
      </trkpt>
      <trkpt lat="43.15558" lon="6.4976">
        <ele>177.7</ele>
        <time>2024-02-04T09:30:43Z</time>
      </trkpt>
      <trkpt lat="43.15557" lon="6.49759">
        <ele>177.8</ele>
        <time>2024-02-04T09:30:44Z</time>
      </trkpt>
      <trkpt lat="43.15557" lon="6.49758">
        <ele>177.8</ele>
        <time>2024-02-04T09:30:45Z</time>
      </trkpt>
      <trkpt lat="43.15556" lon="6.49758">
        <ele>177.8</ele>
        <time>2024-02-04T09:30:46Z</time>
      </trkpt>
      <trkpt lat="43.15555" lon="6.49757">
        <ele>178</ele>
        <time>2024-02-04T09:30:47Z</time>
      </trkpt>
      <trkpt lat="43.15555" lon="6.49757">
        <ele>178.1</ele>
        <time>2024-02-04T09:30:48Z</time>
      </trkpt>
      <trkpt lat="43.15555" lon="6.49756">
        <ele>178.1</ele>
        <time>2024-02-04T09:30:49Z</time>
      </trkpt>
      <trkpt lat="43.15554" lon="6.49755">
        <ele>178.2</ele>
        <time>2024-02-04T09:30:50Z</time>
      </trkpt>
      <trkpt lat="43.15554" lon="6.49754">
        <ele>178.2</ele>
        <time>2024-02-04T09:30:51Z</time>
      </trkpt>
      <trkpt lat="43.15553" lon="6.49753">
        <ele>178.2</ele>
        <time>2024-02-04T09:30:52Z</time>
      </trkpt>
      <trkpt lat="43.15553" lon="6.49752">
        <ele>178.3</ele>
        <time>2024-02-04T09:30:53Z</time>
      </trkpt>
      <trkpt lat="43.15552" lon="6.49752">
        <ele>178.3</ele>
        <time>2024-02-04T09:30:54Z</time>
      </trkpt>
      <trkpt lat="43.15552" lon="6.49751">
        <ele>178.3</ele>
        <time>2024-02-04T09:30:55Z</time>
      </trkpt>
      <trkpt lat="43.15551" lon="6.49751">
        <ele>178.4</ele>
        <time>2024-02-04T09:30:56Z</time>
      </trkpt>
      <trkpt lat="43.15551" lon="6.49751">
        <ele>178.4</ele>
        <time>2024-02-04T09:30:57Z</time>
      </trkpt>
      <trkpt lat="43.15551" lon="6.49751">
        <ele>178.4</ele>
        <time>2024-02-04T09:30:58Z</time>
      </trkpt>
      <trkpt lat="43.15551" lon="6.49751">
        <ele>178.5</ele>
        <time>2024-02-04T09:30:59Z</time>
      </trkpt>
      <trkpt lat="43.15551" lon="6.49751">
        <ele>178.5</ele>
        <time>2024-02-04T09:31:00Z</time>
      </trkpt>
      <trkpt lat="43.15551" lon="6.49751">
        <ele>178.5</ele>
        <time>2024-02-04T09:31:01Z</time>
      </trkpt>
      <trkpt lat="43.1555" lon="6.49751">
        <ele>178.6</ele>
        <time>2024-02-04T09:31:02Z</time>
      </trkpt>
      <trkpt lat="43.1555" lon="6.49751">
        <ele>178.6</ele>
        <time>2024-02-04T09:31:03Z</time>
      </trkpt>
      <trkpt lat="43.1555" lon="6.49751">
        <ele>178.6</ele>
        <time>2024-02-04T09:31:04Z</time>
      </trkpt>
      <trkpt lat="43.1555" lon="6.49751">
        <ele>178.6</ele>
        <time>2024-02-04T09:31:05Z</time>
      </trkpt>
      <trkpt lat="43.1555" lon="6.49751">
        <ele>178.6</ele>
        <time>2024-02-04T09:31:06Z</time>
      </trkpt>
      <trkpt lat="43.1555" lon="6.49752">
        <ele>178.6</ele>
        <time>2024-02-04T09:31:07Z</time>
      </trkpt>
      <trkpt lat="43.1555" lon="6.49752">
        <ele>178.7</ele>
        <time>2024-02-04T09:31:08Z</time>
      </trkpt>
      <trkpt lat="43.1555" lon="6.49752">
        <ele>178.7</ele>
        <time>2024-02-04T09:31:09Z</time>
      </trkpt>
      <trkpt lat="43.1555" lon="6.49752">
        <ele>178.7</ele>
        <time>2024-02-04T09:31:10Z</time>
      </trkpt>
      <trkpt lat="43.1555" lon="6.49752">
        <ele>178.7</ele>
        <time>2024-02-04T09:31:11Z</time>
      </trkpt>
      <trkpt lat="43.1555" lon="6.49751">
        <ele>178.6</ele>
        <time>2024-02-04T09:31:12Z</time>
      </trkpt>
      <trkpt lat="43.1555" lon="6.4975">
        <ele>178.5</ele>
        <time>2024-02-04T09:31:13Z</time>
      </trkpt>
      <trkpt lat="43.1555" lon="6.4975">
        <ele>178.4</ele>
        <time>2024-02-04T09:31:14Z</time>
      </trkpt>
      <trkpt lat="43.15549" lon="6.4975">
        <ele>178.3</ele>
        <time>2024-02-04T09:31:15Z</time>
      </trkpt>
      <trkpt lat="43.15549" lon="6.49749">
        <ele>178.2</ele>
        <time>2024-02-04T09:31:16Z</time>
      </trkpt>
      <trkpt lat="43.15548" lon="6.49748">
        <ele>178.2</ele>
        <time>2024-02-04T09:31:17Z</time>
      </trkpt>
      <trkpt lat="43.15548" lon="6.49748">
        <ele>178.2</ele>
        <time>2024-02-04T09:31:18Z</time>
      </trkpt>
      <trkpt lat="43.15548" lon="6.49747">
        <ele>178.2</ele>
        <time>2024-02-04T09:31:19Z</time>
      </trkpt>
      <trkpt lat="43.15547" lon="6.49746">
        <ele>178.2</ele>
        <time>2024-02-04T09:31:20Z</time>
      </trkpt>
      <trkpt lat="43.15547" lon="6.49746">
        <ele>178.1</ele>
        <time>2024-02-04T09:31:21Z</time>
      </trkpt>
      <trkpt lat="43.15546" lon="6.49745">
        <ele>178.1</ele>
        <time>2024-02-04T09:31:22Z</time>
      </trkpt>
      <trkpt lat="43.15546" lon="6.49744">
        <ele>178.1</ele>
        <time>2024-02-04T09:31:23Z</time>
      </trkpt>
      <trkpt lat="43.15546" lon="6.49743">
        <ele>178</ele>
        <time>2024-02-04T09:31:24Z</time>
      </trkpt>
      <trkpt lat="43.15545" lon="6.49743">
        <ele>178</ele>
        <time>2024-02-04T09:31:25Z</time>
      </trkpt>
      <trkpt lat="43.15545" lon="6.49743">
        <ele>178</ele>
        <time>2024-02-04T09:31:26Z</time>
      </trkpt>
      <trkpt lat="43.15544" lon="6.49742">
        <ele>178</ele>
        <time>2024-02-04T09:31:27Z</time>
      </trkpt>
      <trkpt lat="43.15544" lon="6.49741">
        <ele>177.9</ele>
        <time>2024-02-04T09:31:28Z</time>
      </trkpt>
      <trkpt lat="43.15544" lon="6.4974">
        <ele>177.9</ele>
        <time>2024-02-04T09:31:29Z</time>
      </trkpt>
      <trkpt lat="43.15544" lon="6.4974">
        <ele>177.8</ele>
        <time>2024-02-04T09:31:30Z</time>
      </trkpt>
      <trkpt lat="43.15544" lon="6.49739">
        <ele>177.9</ele>
        <time>2024-02-04T09:31:31Z</time>
      </trkpt>
      <trkpt lat="43.15544" lon="6.49739">
        <ele>177.9</ele>
        <time>2024-02-04T09:31:32Z</time>
      </trkpt>
      <trkpt lat="43.15543" lon="6.49738">
        <ele>177.9</ele>
        <time>2024-02-04T09:31:33Z</time>
      </trkpt>
      <trkpt lat="43.15543" lon="6.49737">
        <ele>178</ele>
        <time>2024-02-04T09:31:34Z</time>
      </trkpt>
      <trkpt lat="43.15543" lon="6.49737">
        <ele>177.9</ele>
        <time>2024-02-04T09:31:35Z</time>
      </trkpt>
      <trkpt lat="43.15543" lon="6.49736">
        <ele>177.9</ele>
        <time>2024-02-04T09:31:36Z</time>
      </trkpt>
      <trkpt lat="43.15542" lon="6.49735">
        <ele>177.9</ele>
        <time>2024-02-04T09:31:37Z</time>
      </trkpt>
      <trkpt lat="43.15542" lon="6.49734">
        <ele>178</ele>
        <time>2024-02-04T09:31:38Z</time>
      </trkpt>
      <trkpt lat="43.15542" lon="6.49734">
        <ele>178</ele>
        <time>2024-02-04T09:31:39Z</time>
      </trkpt>
      <trkpt lat="43.15542" lon="6.49734">
        <ele>178</ele>
        <time>2024-02-04T09:31:40Z</time>
      </trkpt>
      <trkpt lat="43.15541" lon="6.49734">
        <ele>178.1</ele>
        <time>2024-02-04T09:31:41Z</time>
      </trkpt>
      <trkpt lat="43.15542" lon="6.49734">
        <ele>178</ele>
        <time>2024-02-04T09:31:42Z</time>
      </trkpt>
      <trkpt lat="43.15542" lon="6.49734">
        <ele>177.9</ele>
        <time>2024-02-04T09:31:43Z</time>
      </trkpt>
      <trkpt lat="43.15542" lon="6.49734">
        <ele>177.8</ele>
        <time>2024-02-04T09:31:44Z</time>
      </trkpt>
      <trkpt lat="43.15541" lon="6.49734">
        <ele>177.7</ele>
        <time>2024-02-04T09:31:45Z</time>
      </trkpt>
      <trkpt lat="43.15541" lon="6.49733">
        <ele>177.7</ele>
        <time>2024-02-04T09:31:46Z</time>
      </trkpt>
      <trkpt lat="43.15541" lon="6.49733">
        <ele>177.7</ele>
        <time>2024-02-04T09:31:47Z</time>
      </trkpt>
      <trkpt lat="43.15541" lon="6.49733">
        <ele>177.8</ele>
        <time>2024-02-04T09:31:48Z</time>
      </trkpt>
      <trkpt lat="43.15541" lon="6.49733">
        <ele>177.8</ele>
        <time>2024-02-04T09:31:49Z</time>
      </trkpt>
      <trkpt lat="43.15541" lon="6.49733">
        <ele>177.9</ele>
        <time>2024-02-04T09:31:50Z</time>
      </trkpt>
      <trkpt lat="43.1554" lon="6.49733">
        <ele>177.9</ele>
        <time>2024-02-04T09:31:51Z</time>
      </trkpt>
      <trkpt lat="43.1554" lon="6.49733">
        <ele>177.9</ele>
        <time>2024-02-04T09:31:52Z</time>
      </trkpt>
      <trkpt lat="43.1554" lon="6.49733">
        <ele>177.9</ele>
        <time>2024-02-04T09:31:53Z</time>
      </trkpt>
      <trkpt lat="43.1554" lon="6.49733">
        <ele>177.9</ele>
        <time>2024-02-04T09:31:54Z</time>
      </trkpt>
      <trkpt lat="43.15539" lon="6.49733">
        <ele>177.8</ele>
        <time>2024-02-04T09:31:55Z</time>
      </trkpt>
      <trkpt lat="43.15539" lon="6.49733">
        <ele>177.9</ele>
        <time>2024-02-04T09:31:56Z</time>
      </trkpt>
      <trkpt lat="43.15539" lon="6.49733">
        <ele>177.9</ele>
        <time>2024-02-04T09:31:57Z</time>
      </trkpt>
      <trkpt lat="43.15539" lon="6.49733">
        <ele>177.8</ele>
        <time>2024-02-04T09:31:58Z</time>
      </trkpt>
      <trkpt lat="43.15539" lon="6.49733">
        <ele>177.8</ele>
        <time>2024-02-04T09:31:59Z</time>
      </trkpt>
      <trkpt lat="43.15539" lon="6.49733">
        <ele>177.8</ele>
        <time>2024-02-04T09:32:00Z</time>
      </trkpt>
      <trkpt lat="43.15539" lon="6.49732">
        <ele>177.8</ele>
        <time>2024-02-04T09:32:01Z</time>
      </trkpt>
      <trkpt lat="43.15539" lon="6.49732">
        <ele>177.8</ele>
        <time>2024-02-04T09:32:02Z</time>
      </trkpt>
      <trkpt lat="43.15539" lon="6.49732">
        <ele>177.9</ele>
        <time>2024-02-04T09:32:03Z</time>
      </trkpt>
      <trkpt lat="43.15539" lon="6.49732">
        <ele>177.9</ele>
        <time>2024-02-04T09:32:04Z</time>
      </trkpt>
      <trkpt lat="43.15539" lon="6.49732">
        <ele>177.9</ele>
        <time>2024-02-04T09:32:05Z</time>
      </trkpt>
      <trkpt lat="43.15539" lon="6.49732">
        <ele>177.9</ele>
        <time>2024-02-04T09:32:06Z</time>
      </trkpt>
      <trkpt lat="43.15539" lon="6.49732">
        <ele>177.9</ele>
        <time>2024-02-04T09:32:07Z</time>
      </trkpt>
      <trkpt lat="43.15539" lon="6.49732">
        <ele>177.9</ele>
        <time>2024-02-04T09:32:08Z</time>
      </trkpt>
      <trkpt lat="43.15539" lon="6.49732">
        <ele>177.9</ele>
        <time>2024-02-04T09:32:09Z</time>
      </trkpt>
      <trkpt lat="43.15539" lon="6.49732">
        <ele>178</ele>
        <time>2024-02-04T09:32:10Z</time>
      </trkpt>
      <trkpt lat="43.15538" lon="6.49733">
        <ele>178</ele>
        <time>2024-02-04T09:32:11Z</time>
      </trkpt>
      <trkpt lat="43.15538" lon="6.49733">
        <ele>178</ele>
        <time>2024-02-04T09:32:12Z</time>
      </trkpt>
      <trkpt lat="43.15538" lon="6.49733">
        <ele>178.1</ele>
        <time>2024-02-04T09:32:13Z</time>
      </trkpt>
      <trkpt lat="43.15538" lon="6.49733">
        <ele>178.1</ele>
        <time>2024-02-04T09:32:14Z</time>
      </trkpt>
      <trkpt lat="43.15538" lon="6.49733">
        <ele>178</ele>
        <time>2024-02-04T09:32:15Z</time>
      </trkpt>
      <trkpt lat="43.15538" lon="6.49733">
        <ele>177.9</ele>
        <time>2024-02-04T09:32:16Z</time>
      </trkpt>
      <trkpt lat="43.15538" lon="6.49733">
        <ele>177.9</ele>
        <time>2024-02-04T09:32:17Z</time>
      </trkpt>
      <trkpt lat="43.15538" lon="6.49733">
        <ele>177.9</ele>
        <time>2024-02-04T09:32:18Z</time>
      </trkpt>
      <trkpt lat="43.15538" lon="6.49733">
        <ele>177.9</ele>
        <time>2024-02-04T09:32:19Z</time>
      </trkpt>
      <trkpt lat="43.15538" lon="6.49733">
        <ele>177.8</ele>
        <time>2024-02-04T09:32:20Z</time>
      </trkpt>
      <trkpt lat="43.15538" lon="6.49732">
        <ele>177.8</ele>
        <time>2024-02-04T09:32:21Z</time>
      </trkpt>
      <trkpt lat="43.15538" lon="6.4973">
        <ele>177.7</ele>
        <time>2024-02-04T09:32:22Z</time>
      </trkpt>
      <trkpt lat="43.15537" lon="6.49729">
        <ele>177.6</ele>
        <time>2024-02-04T09:32:23Z</time>
      </trkpt>
      <trkpt lat="43.15537" lon="6.49728">
        <ele>177.6</ele>
        <time>2024-02-04T09:32:24Z</time>
      </trkpt>
      <trkpt lat="43.15536" lon="6.49726">
        <ele>177.8</ele>
        <time>2024-02-04T09:32:25Z</time>
      </trkpt>
      <trkpt lat="43.15536" lon="6.49725">
        <ele>177.8</ele>
        <time>2024-02-04T09:32:26Z</time>
      </trkpt>
      <trkpt lat="43.15536" lon="6.49724">
        <ele>177.8</ele>
        <time>2024-02-04T09:32:27Z</time>
      </trkpt>
      <trkpt lat="43.15535" lon="6.49722">
        <ele>177.8</ele>
        <time>2024-02-04T09:32:28Z</time>
      </trkpt>
      <trkpt lat="43.15536" lon="6.4972">
        <ele>177.7</ele>
        <time>2024-02-04T09:32:29Z</time>
      </trkpt>
      <trkpt lat="43.15536" lon="6.49719">
        <ele>177.6</ele>
        <time>2024-02-04T09:32:30Z</time>
      </trkpt>
      <trkpt lat="43.15536" lon="6.49717">
        <ele>177.7</ele>
        <time>2024-02-04T09:32:31Z</time>
      </trkpt>
      <trkpt lat="43.15536" lon="6.49716">
        <ele>177.7</ele>
        <time>2024-02-04T09:32:32Z</time>
      </trkpt>
      <trkpt lat="43.15535" lon="6.49715">
        <ele>177.6</ele>
        <time>2024-02-04T09:32:33Z</time>
      </trkpt>
      <trkpt lat="43.15535" lon="6.49713">
        <ele>177.6</ele>
        <time>2024-02-04T09:32:34Z</time>
      </trkpt>
      <trkpt lat="43.15535" lon="6.49712">
        <ele>177.5</ele>
        <time>2024-02-04T09:32:35Z</time>
      </trkpt>
      <trkpt lat="43.15535" lon="6.49711">
        <ele>177.5</ele>
        <time>2024-02-04T09:32:36Z</time>
      </trkpt>
      <trkpt lat="43.15535" lon="6.4971">
        <ele>177.5</ele>
        <time>2024-02-04T09:32:37Z</time>
      </trkpt>
      <trkpt lat="43.15535" lon="6.49709">
        <ele>177.5</ele>
        <time>2024-02-04T09:32:38Z</time>
      </trkpt>
      <trkpt lat="43.15535" lon="6.49708">
        <ele>177.4</ele>
        <time>2024-02-04T09:32:39Z</time>
      </trkpt>
      <trkpt lat="43.15535" lon="6.49708">
        <ele>177.3</ele>
        <time>2024-02-04T09:32:40Z</time>
      </trkpt>
      <trkpt lat="43.15534" lon="6.49708">
        <ele>177.3</ele>
        <time>2024-02-04T09:32:41Z</time>
      </trkpt>
      <trkpt lat="43.15534" lon="6.49708">
        <ele>177.3</ele>
        <time>2024-02-04T09:32:42Z</time>
      </trkpt>
      <trkpt lat="43.15534" lon="6.49708">
        <ele>177.2</ele>
        <time>2024-02-04T09:32:43Z</time>
      </trkpt>
      <trkpt lat="43.15535" lon="6.49708">
        <ele>177.2</ele>
        <time>2024-02-04T09:32:44Z</time>
      </trkpt>
      <trkpt lat="43.15535" lon="6.49707">
        <ele>177.2</ele>
        <time>2024-02-04T09:32:45Z</time>
      </trkpt>
      <trkpt lat="43.15536" lon="6.49707">
        <ele>177.1</ele>
        <time>2024-02-04T09:32:46Z</time>
      </trkpt>
      <trkpt lat="43.15536" lon="6.49706">
        <ele>177.3</ele>
        <time>2024-02-04T09:32:47Z</time>
      </trkpt>
      <trkpt lat="43.15536" lon="6.49706">
        <ele>177.3</ele>
        <time>2024-02-04T09:32:48Z</time>
      </trkpt>
      <trkpt lat="43.15536" lon="6.49705">
        <ele>177.3</ele>
        <time>2024-02-04T09:32:49Z</time>
      </trkpt>
      <trkpt lat="43.15536" lon="6.49706">
        <ele>177.4</ele>
        <time>2024-02-04T09:32:50Z</time>
      </trkpt>
      <trkpt lat="43.15536" lon="6.49706">
        <ele>177.4</ele>
        <time>2024-02-04T09:32:51Z</time>
      </trkpt>
      <trkpt lat="43.15536" lon="6.49706">
        <ele>177.4</ele>
        <time>2024-02-04T09:32:52Z</time>
      </trkpt>
      <trkpt lat="43.15537" lon="6.49706">
        <ele>177.5</ele>
        <time>2024-02-04T09:32:53Z</time>
      </trkpt>
      <trkpt lat="43.15538" lon="6.49706">
        <ele>177.5</ele>
        <time>2024-02-04T09:32:54Z</time>
      </trkpt>
      <trkpt lat="43.15539" lon="6.49706">
        <ele>177.5</ele>
        <time>2024-02-04T09:32:55Z</time>
      </trkpt>
      <trkpt lat="43.15541" lon="6.49706">
        <ele>177.5</ele>
        <time>2024-02-04T09:32:56Z</time>
      </trkpt>
      <trkpt lat="43.15542" lon="6.49706">
        <ele>177.5</ele>
        <time>2024-02-04T09:32:57Z</time>
      </trkpt>
      <trkpt lat="43.15543" lon="6.49706">
        <ele>177.4</ele>
        <time>2024-02-04T09:32:58Z</time>
      </trkpt>
      <trkpt lat="43.15544" lon="6.49705">
        <ele>177.2</ele>
        <time>2024-02-04T09:32:59Z</time>
      </trkpt>
      <trkpt lat="43.15544" lon="6.49704">
        <ele>177.1</ele>
        <time>2024-02-04T09:33:00Z</time>
      </trkpt>
      <trkpt lat="43.15544" lon="6.49704">
        <ele>177.1</ele>
        <time>2024-02-04T09:33:01Z</time>
      </trkpt>
      <trkpt lat="43.15543" lon="6.49705">
        <ele>177</ele>
        <time>2024-02-04T09:33:02Z</time>
      </trkpt>
      <trkpt lat="43.15543" lon="6.49705">
        <ele>176.9</ele>
        <time>2024-02-04T09:33:03Z</time>
      </trkpt>
      <trkpt lat="43.15543" lon="6.49705">
        <ele>176.9</ele>
        <time>2024-02-04T09:33:04Z</time>
      </trkpt>
      <trkpt lat="43.15543" lon="6.49705">
        <ele>176.8</ele>
        <time>2024-02-04T09:33:05Z</time>
      </trkpt>
      <trkpt lat="43.15543" lon="6.49705">
        <ele>176.9</ele>
        <time>2024-02-04T09:33:06Z</time>
      </trkpt>
      <trkpt lat="43.15543" lon="6.49705">
        <ele>176.9</ele>
        <time>2024-02-04T09:33:07Z</time>
      </trkpt>
      <trkpt lat="43.15543" lon="6.49705">
        <ele>177</ele>
        <time>2024-02-04T09:33:08Z</time>
      </trkpt>
      <trkpt lat="43.15543" lon="6.49705">
        <ele>177</ele>
        <time>2024-02-04T09:33:09Z</time>
      </trkpt>
      <trkpt lat="43.15543" lon="6.49705">
        <ele>177</ele>
        <time>2024-02-04T09:33:10Z</time>
      </trkpt>
      <trkpt lat="43.15544" lon="6.49705">
        <ele>177</ele>
        <time>2024-02-04T09:33:11Z</time>
      </trkpt>
      <trkpt lat="43.15544" lon="6.49705">
        <ele>177.1</ele>
        <time>2024-02-04T09:33:12Z</time>
      </trkpt>
      <trkpt lat="43.15544" lon="6.49705">
        <ele>177.1</ele>
        <time>2024-02-04T09:33:13Z</time>
      </trkpt>
      <trkpt lat="43.15544" lon="6.49705">
        <ele>177.1</ele>
        <time>2024-02-04T09:33:14Z</time>
      </trkpt>
      <trkpt lat="43.15544" lon="6.49705">
        <ele>177</ele>
        <time>2024-02-04T09:33:15Z</time>
      </trkpt>
      <trkpt lat="43.15544" lon="6.49705">
        <ele>177.1</ele>
        <time>2024-02-04T09:33:16Z</time>
      </trkpt>
      <trkpt lat="43.15544" lon="6.49706">
        <ele>177.1</ele>
        <time>2024-02-04T09:33:17Z</time>
      </trkpt>
      <trkpt lat="43.15544" lon="6.49705">
        <ele>177.2</ele>
        <time>2024-02-04T09:33:18Z</time>
      </trkpt>
      <trkpt lat="43.15544" lon="6.49705">
        <ele>177.2</ele>
        <time>2024-02-04T09:33:19Z</time>
      </trkpt>
      <trkpt lat="43.15544" lon="6.49704">
        <ele>177.1</ele>
        <time>2024-02-04T09:33:20Z</time>
      </trkpt>
      <trkpt lat="43.15544" lon="6.49703">
        <ele>177.1</ele>
        <time>2024-02-04T09:33:21Z</time>
      </trkpt>
      <trkpt lat="43.15544" lon="6.49701">
        <ele>177.1</ele>
        <time>2024-02-04T09:33:22Z</time>
      </trkpt>
      <trkpt lat="43.15545" lon="6.49699">
        <ele>177.1</ele>
        <time>2024-02-04T09:33:23Z</time>
      </trkpt>
      <trkpt lat="43.15545" lon="6.49698">
        <ele>177.1</ele>
        <time>2024-02-04T09:33:24Z</time>
      </trkpt>
      <trkpt lat="43.15545" lon="6.49696">
        <ele>177</ele>
        <time>2024-02-04T09:33:25Z</time>
      </trkpt>
      <trkpt lat="43.15545" lon="6.49695">
        <ele>177</ele>
        <time>2024-02-04T09:33:26Z</time>
      </trkpt>
      <trkpt lat="43.15546" lon="6.49694">
        <ele>176.9</ele>
        <time>2024-02-04T09:33:27Z</time>
      </trkpt>
      <trkpt lat="43.15546" lon="6.49693">
        <ele>176.9</ele>
        <time>2024-02-04T09:33:28Z</time>
      </trkpt>
      <trkpt lat="43.15546" lon="6.49691">
        <ele>176.9</ele>
        <time>2024-02-04T09:33:29Z</time>
      </trkpt>
      <trkpt lat="43.15546" lon="6.4969">
        <ele>176.9</ele>
        <time>2024-02-04T09:33:30Z</time>
      </trkpt>
      <trkpt lat="43.15546" lon="6.49689">
        <ele>176.8</ele>
        <time>2024-02-04T09:33:31Z</time>
      </trkpt>
      <trkpt lat="43.15546" lon="6.49688">
        <ele>176.8</ele>
        <time>2024-02-04T09:33:32Z</time>
      </trkpt>
      <trkpt lat="43.15547" lon="6.49687">
        <ele>176.7</ele>
        <time>2024-02-04T09:33:33Z</time>
      </trkpt>
      <trkpt lat="43.15547" lon="6.49687">
        <ele>176.8</ele>
        <time>2024-02-04T09:33:34Z</time>
      </trkpt>
      <trkpt lat="43.15547" lon="6.49686">
        <ele>176.9</ele>
        <time>2024-02-04T09:33:35Z</time>
      </trkpt>
      <trkpt lat="43.15548" lon="6.49686">
        <ele>176.8</ele>
        <time>2024-02-04T09:33:36Z</time>
      </trkpt>
      <trkpt lat="43.15548" lon="6.49686">
        <ele>176.8</ele>
        <time>2024-02-04T09:33:37Z</time>
      </trkpt>
      <trkpt lat="43.15548" lon="6.49685">
        <ele>176.8</ele>
        <time>2024-02-04T09:33:38Z</time>
      </trkpt>
      <trkpt lat="43.15549" lon="6.49685">
        <ele>176.8</ele>
        <time>2024-02-04T09:33:39Z</time>
      </trkpt>
      <trkpt lat="43.15549" lon="6.49684">
        <ele>176.8</ele>
        <time>2024-02-04T09:33:40Z</time>
      </trkpt>
      <trkpt lat="43.15549" lon="6.49684">
        <ele>176.8</ele>
        <time>2024-02-04T09:33:41Z</time>
      </trkpt>
      <trkpt lat="43.1555" lon="6.49684">
        <ele>176.8</ele>
        <time>2024-02-04T09:33:42Z</time>
      </trkpt>
      <trkpt lat="43.1555" lon="6.49684">
        <ele>176.8</ele>
        <time>2024-02-04T09:33:43Z</time>
      </trkpt>
      <trkpt lat="43.1555" lon="6.49685">
        <ele>176.8</ele>
        <time>2024-02-04T09:33:44Z</time>
      </trkpt>
      <trkpt lat="43.1555" lon="6.49685">
        <ele>177</ele>
        <time>2024-02-04T09:33:45Z</time>
      </trkpt>
      <trkpt lat="43.1555" lon="6.49685">
        <ele>177.1</ele>
        <time>2024-02-04T09:33:46Z</time>
      </trkpt>
      <trkpt lat="43.1555" lon="6.49686">
        <ele>177.2</ele>
        <time>2024-02-04T09:33:47Z</time>
      </trkpt>
      <trkpt lat="43.15549" lon="6.49687">
        <ele>177.3</ele>
        <time>2024-02-04T09:33:48Z</time>
      </trkpt>
      <trkpt lat="43.15549" lon="6.49687">
        <ele>177.5</ele>
        <time>2024-02-04T09:33:49Z</time>
      </trkpt>
      <trkpt lat="43.15549" lon="6.49688">
        <ele>177.6</ele>
        <time>2024-02-04T09:33:50Z</time>
      </trkpt>
      <trkpt lat="43.15549" lon="6.49689">
        <ele>177.7</ele>
        <time>2024-02-04T09:33:51Z</time>
      </trkpt>
      <trkpt lat="43.15549" lon="6.4969">
        <ele>177.8</ele>
        <time>2024-02-04T09:33:52Z</time>
      </trkpt>
      <trkpt lat="43.15549" lon="6.49691">
        <ele>178</ele>
        <time>2024-02-04T09:33:53Z</time>
      </trkpt>
      <trkpt lat="43.15549" lon="6.49692">
        <ele>178.1</ele>
        <time>2024-02-04T09:33:54Z</time>
      </trkpt>
      <trkpt lat="43.15549" lon="6.49693">
        <ele>178.2</ele>
        <time>2024-02-04T09:33:55Z</time>
      </trkpt>
      <trkpt lat="43.15549" lon="6.49694">
        <ele>178.4</ele>
        <time>2024-02-04T09:33:56Z</time>
      </trkpt>
      <trkpt lat="43.15549" lon="6.49694">
        <ele>178.6</ele>
        <time>2024-02-04T09:33:57Z</time>
      </trkpt>
      <trkpt lat="43.1555" lon="6.49694">
        <ele>178.7</ele>
        <time>2024-02-04T09:33:58Z</time>
      </trkpt>
      <trkpt lat="43.1555" lon="6.49695">
        <ele>178.7</ele>
        <time>2024-02-04T09:33:59Z</time>
      </trkpt>
      <trkpt lat="43.1555" lon="6.49696">
        <ele>178.8</ele>
        <time>2024-02-04T09:34:00Z</time>
      </trkpt>
      <trkpt lat="43.1555" lon="6.49697">
        <ele>178.9</ele>
        <time>2024-02-04T09:34:01Z</time>
      </trkpt>
      <trkpt lat="43.15551" lon="6.49698">
        <ele>179.1</ele>
        <time>2024-02-04T09:34:02Z</time>
      </trkpt>
      <trkpt lat="43.15551" lon="6.49698">
        <ele>179.2</ele>
        <time>2024-02-04T09:34:03Z</time>
      </trkpt>
      <trkpt lat="43.15551" lon="6.49699">
        <ele>179.4</ele>
        <time>2024-02-04T09:34:04Z</time>
      </trkpt>
      <trkpt lat="43.1555" lon="6.49699">
        <ele>179.5</ele>
        <time>2024-02-04T09:34:05Z</time>
      </trkpt>
      <trkpt lat="43.15551" lon="6.497">
        <ele>179.6</ele>
        <time>2024-02-04T09:34:06Z</time>
      </trkpt>
      <trkpt lat="43.15551" lon="6.49701">
        <ele>179.7</ele>
        <time>2024-02-04T09:34:07Z</time>
      </trkpt>
      <trkpt lat="43.15551" lon="6.49702">
        <ele>179.9</ele>
        <time>2024-02-04T09:34:08Z</time>
      </trkpt>
      <trkpt lat="43.15552" lon="6.49703">
        <ele>180.1</ele>
        <time>2024-02-04T09:34:09Z</time>
      </trkpt>
      <trkpt lat="43.15552" lon="6.49704">
        <ele>180.2</ele>
        <time>2024-02-04T09:34:10Z</time>
      </trkpt>
      <trkpt lat="43.15552" lon="6.49705">
        <ele>180.4</ele>
        <time>2024-02-04T09:34:11Z</time>
      </trkpt>
      <trkpt lat="43.15552" lon="6.49706">
        <ele>180.6</ele>
        <time>2024-02-04T09:34:12Z</time>
      </trkpt>
      <trkpt lat="43.15553" lon="6.49707">
        <ele>180.7</ele>
        <time>2024-02-04T09:34:13Z</time>
      </trkpt>
      <trkpt lat="43.15553" lon="6.49708">
        <ele>180.8</ele>
        <time>2024-02-04T09:34:14Z</time>
      </trkpt>
      <trkpt lat="43.15553" lon="6.49709">
        <ele>181</ele>
        <time>2024-02-04T09:34:15Z</time>
      </trkpt>
      <trkpt lat="43.15553" lon="6.4971">
        <ele>181.2</ele>
        <time>2024-02-04T09:34:16Z</time>
      </trkpt>
      <trkpt lat="43.15553" lon="6.49711">
        <ele>181.4</ele>
        <time>2024-02-04T09:34:17Z</time>
      </trkpt>
      <trkpt lat="43.15553" lon="6.49712">
        <ele>181.5</ele>
        <time>2024-02-04T09:34:18Z</time>
      </trkpt>
      <trkpt lat="43.15554" lon="6.49713">
        <ele>181.7</ele>
        <time>2024-02-04T09:34:19Z</time>
      </trkpt>
      <trkpt lat="43.15554" lon="6.49714">
        <ele>181.8</ele>
        <time>2024-02-04T09:34:20Z</time>
      </trkpt>
      <trkpt lat="43.15554" lon="6.49715">
        <ele>182</ele>
        <time>2024-02-04T09:34:21Z</time>
      </trkpt>
      <trkpt lat="43.15554" lon="6.49716">
        <ele>182.1</ele>
        <time>2024-02-04T09:34:22Z</time>
      </trkpt>
      <trkpt lat="43.15554" lon="6.49718">
        <ele>182.2</ele>
        <time>2024-02-04T09:34:23Z</time>
      </trkpt>
      <trkpt lat="43.15555" lon="6.49719">
        <ele>182.3</ele>
        <time>2024-02-04T09:34:24Z</time>
      </trkpt>
      <trkpt lat="43.15555" lon="6.4972">
        <ele>182.3</ele>
        <time>2024-02-04T09:34:25Z</time>
      </trkpt>
      <trkpt lat="43.15555" lon="6.49721">
        <ele>182.4</ele>
        <time>2024-02-04T09:34:26Z</time>
      </trkpt>
      <trkpt lat="43.15556" lon="6.49723">
        <ele>182.4</ele>
        <time>2024-02-04T09:34:27Z</time>
      </trkpt>
      <trkpt lat="43.15556" lon="6.49724">
        <ele>182.5</ele>
        <time>2024-02-04T09:34:28Z</time>
      </trkpt>
      <trkpt lat="43.15557" lon="6.49726">
        <ele>182.6</ele>
        <time>2024-02-04T09:34:29Z</time>
      </trkpt>
      <trkpt lat="43.15557" lon="6.49727">
        <ele>182.6</ele>
        <time>2024-02-04T09:34:30Z</time>
      </trkpt>
      <trkpt lat="43.15558" lon="6.49728">
        <ele>182.7</ele>
        <time>2024-02-04T09:34:31Z</time>
      </trkpt>
      <trkpt lat="43.15558" lon="6.49729">
        <ele>182.8</ele>
        <time>2024-02-04T09:34:32Z</time>
      </trkpt>
      <trkpt lat="43.15559" lon="6.4973">
        <ele>182.9</ele>
        <time>2024-02-04T09:34:33Z</time>
      </trkpt>
      <trkpt lat="43.1556" lon="6.49731">
        <ele>183</ele>
        <time>2024-02-04T09:34:34Z</time>
      </trkpt>
      <trkpt lat="43.15561" lon="6.49732">
        <ele>183.1</ele>
        <time>2024-02-04T09:34:35Z</time>
      </trkpt>
      <trkpt lat="43.15562" lon="6.49734">
        <ele>183.2</ele>
        <time>2024-02-04T09:34:36Z</time>
      </trkpt>
      <trkpt lat="43.15562" lon="6.49735">
        <ele>183.3</ele>
        <time>2024-02-04T09:34:37Z</time>
      </trkpt>
      <trkpt lat="43.15563" lon="6.49735">
        <ele>183.4</ele>
        <time>2024-02-04T09:34:38Z</time>
      </trkpt>
      <trkpt lat="43.15564" lon="6.49736">
        <ele>183.4</ele>
        <time>2024-02-04T09:34:39Z</time>
      </trkpt>
      <trkpt lat="43.15566" lon="6.49737">
        <ele>183.4</ele>
        <time>2024-02-04T09:34:40Z</time>
      </trkpt>
      <trkpt lat="43.15566" lon="6.49738">
        <ele>183.6</ele>
        <time>2024-02-04T09:34:41Z</time>
      </trkpt>
      <trkpt lat="43.15567" lon="6.49739">
        <ele>183.7</ele>
        <time>2024-02-04T09:34:42Z</time>
      </trkpt>
      <trkpt lat="43.15568" lon="6.49739">
        <ele>183.8</ele>
        <time>2024-02-04T09:34:43Z</time>
      </trkpt>
      <trkpt lat="43.15569" lon="6.4974">
        <ele>183.8</ele>
        <time>2024-02-04T09:34:44Z</time>
      </trkpt>
      <trkpt lat="43.1557" lon="6.4974">
        <ele>183.9</ele>
        <time>2024-02-04T09:34:45Z</time>
      </trkpt>
      <trkpt lat="43.15572" lon="6.49741">
        <ele>184</ele>
        <time>2024-02-04T09:34:46Z</time>
      </trkpt>
      <trkpt lat="43.15573" lon="6.49741">
        <ele>184.1</ele>
        <time>2024-02-04T09:34:47Z</time>
      </trkpt>
      <trkpt lat="43.15574" lon="6.4974">
        <ele>184.2</ele>
        <time>2024-02-04T09:34:48Z</time>
      </trkpt>
      <trkpt lat="43.15574" lon="6.4974">
        <ele>184.2</ele>
        <time>2024-02-04T09:34:49Z</time>
      </trkpt>
      <trkpt lat="43.15575" lon="6.49739">
        <ele>184.2</ele>
        <time>2024-02-04T09:34:50Z</time>
      </trkpt>
      <trkpt lat="43.15575" lon="6.49738">
        <ele>184.1</ele>
        <time>2024-02-04T09:34:51Z</time>
      </trkpt>
      <trkpt lat="43.15576" lon="6.49737">
        <ele>184.2</ele>
        <time>2024-02-04T09:34:52Z</time>
      </trkpt>
      <trkpt lat="43.15576" lon="6.49736">
        <ele>184.3</ele>
        <time>2024-02-04T09:34:53Z</time>
      </trkpt>
      <trkpt lat="43.15576" lon="6.49735">
        <ele>184.4</ele>
        <time>2024-02-04T09:34:54Z</time>
      </trkpt>
      <trkpt lat="43.15577" lon="6.49734">
        <ele>184.5</ele>
        <time>2024-02-04T09:34:55Z</time>
      </trkpt>
      <trkpt lat="43.15578" lon="6.49734">
        <ele>184.6</ele>
        <time>2024-02-04T09:34:56Z</time>
      </trkpt>
      <trkpt lat="43.15578" lon="6.49733">
        <ele>184.6</ele>
        <time>2024-02-04T09:34:57Z</time>
      </trkpt>
      <trkpt lat="43.15578" lon="6.49732">
        <ele>184.9</ele>
        <time>2024-02-04T09:34:58Z</time>
      </trkpt>
      <trkpt lat="43.15579" lon="6.49732">
        <ele>184.9</ele>
        <time>2024-02-04T09:34:59Z</time>
      </trkpt>
      <trkpt lat="43.15579" lon="6.49731">
        <ele>185</ele>
        <time>2024-02-04T09:35:00Z</time>
      </trkpt>
      <trkpt lat="43.1558" lon="6.49731">
        <ele>185.1</ele>
        <time>2024-02-04T09:35:01Z</time>
      </trkpt>
      <trkpt lat="43.1558" lon="6.4973">
        <ele>185.4</ele>
        <time>2024-02-04T09:35:02Z</time>
      </trkpt>
      <trkpt lat="43.1558" lon="6.49729">
        <ele>185.6</ele>
        <time>2024-02-04T09:35:03Z</time>
      </trkpt>
      <trkpt lat="43.15581" lon="6.49729">
        <ele>185.8</ele>
        <time>2024-02-04T09:35:04Z</time>
      </trkpt>
      <trkpt lat="43.15582" lon="6.49728">
        <ele>185.9</ele>
        <time>2024-02-04T09:35:05Z</time>
      </trkpt>
      <trkpt lat="43.15582" lon="6.49728">
        <ele>186</ele>
        <time>2024-02-04T09:35:06Z</time>
      </trkpt>
      <trkpt lat="43.15582" lon="6.49728">
        <ele>186.3</ele>
        <time>2024-02-04T09:35:07Z</time>
      </trkpt>
      <trkpt lat="43.15583" lon="6.49728">
        <ele>186.5</ele>
        <time>2024-02-04T09:35:08Z</time>
      </trkpt>
      <trkpt lat="43.15583" lon="6.49727">
        <ele>186.5</ele>
        <time>2024-02-04T09:35:09Z</time>
      </trkpt>
      <trkpt lat="43.15583" lon="6.49727">
        <ele>186.7</ele>
        <time>2024-02-04T09:35:10Z</time>
      </trkpt>
      <trkpt lat="43.15583" lon="6.49727">
        <ele>186.8</ele>
        <time>2024-02-04T09:35:11Z</time>
      </trkpt>
      <trkpt lat="43.15584" lon="6.49726">
        <ele>186.9</ele>
        <time>2024-02-04T09:35:12Z</time>
      </trkpt>
      <trkpt lat="43.15584" lon="6.49726">
        <ele>187</ele>
        <time>2024-02-04T09:35:13Z</time>
      </trkpt>
      <trkpt lat="43.15584" lon="6.49726">
        <ele>187.1</ele>
        <time>2024-02-04T09:35:14Z</time>
      </trkpt>
      <trkpt lat="43.15585" lon="6.49725">
        <ele>187.3</ele>
        <time>2024-02-04T09:35:15Z</time>
      </trkpt>
      <trkpt lat="43.15585" lon="6.49724">
        <ele>187.3</ele>
        <time>2024-02-04T09:35:16Z</time>
      </trkpt>
      <trkpt lat="43.15585" lon="6.49724">
        <ele>187.4</ele>
        <time>2024-02-04T09:35:17Z</time>
      </trkpt>
      <trkpt lat="43.15586" lon="6.49723">
        <ele>187.5</ele>
        <time>2024-02-04T09:35:18Z</time>
      </trkpt>
      <trkpt lat="43.15586" lon="6.49723">
        <ele>187.8</ele>
        <time>2024-02-04T09:35:19Z</time>
      </trkpt>
      <trkpt lat="43.15587" lon="6.49722">
        <ele>187.8</ele>
        <time>2024-02-04T09:35:20Z</time>
      </trkpt>
      <trkpt lat="43.15587" lon="6.49722">
        <ele>188</ele>
        <time>2024-02-04T09:35:21Z</time>
      </trkpt>
      <trkpt lat="43.15587" lon="6.49721">
        <ele>188.1</ele>
        <time>2024-02-04T09:35:22Z</time>
      </trkpt>
      <trkpt lat="43.15588" lon="6.49721">
        <ele>188.2</ele>
        <time>2024-02-04T09:35:23Z</time>
      </trkpt>
      <trkpt lat="43.15588" lon="6.49721">
        <ele>188.3</ele>
        <time>2024-02-04T09:35:24Z</time>
      </trkpt>
      <trkpt lat="43.15589" lon="6.4972">
        <ele>188.5</ele>
        <time>2024-02-04T09:35:25Z</time>
      </trkpt>
      <trkpt lat="43.15589" lon="6.49719">
        <ele>188.8</ele>
        <time>2024-02-04T09:35:26Z</time>
      </trkpt>
      <trkpt lat="43.15589" lon="6.49719">
        <ele>188.9</ele>
        <time>2024-02-04T09:35:27Z</time>
      </trkpt>
      <trkpt lat="43.1559" lon="6.49718">
        <ele>189.1</ele>
        <time>2024-02-04T09:35:28Z</time>
      </trkpt>
      <trkpt lat="43.1559" lon="6.49718">
        <ele>189.3</ele>
        <time>2024-02-04T09:35:29Z</time>
      </trkpt>
      <trkpt lat="43.15591" lon="6.49717">
        <ele>189.5</ele>
        <time>2024-02-04T09:35:30Z</time>
      </trkpt>
      <trkpt lat="43.15591" lon="6.49717">
        <ele>189.6</ele>
        <time>2024-02-04T09:35:31Z</time>
      </trkpt>
      <trkpt lat="43.15591" lon="6.49716">
        <ele>189.8</ele>
        <time>2024-02-04T09:35:32Z</time>
      </trkpt>
      <trkpt lat="43.15591" lon="6.49716">
        <ele>190</ele>
        <time>2024-02-04T09:35:33Z</time>
      </trkpt>
      <trkpt lat="43.15592" lon="6.49715">
        <ele>190.1</ele>
        <time>2024-02-04T09:35:34Z</time>
      </trkpt>
      <trkpt lat="43.15592" lon="6.49715">
        <ele>190.3</ele>
        <time>2024-02-04T09:35:35Z</time>
      </trkpt>
      <trkpt lat="43.15592" lon="6.49714">
        <ele>190.4</ele>
        <time>2024-02-04T09:35:36Z</time>
      </trkpt>
      <trkpt lat="43.15593" lon="6.49713">
        <ele>190.7</ele>
        <time>2024-02-04T09:35:37Z</time>
      </trkpt>
      <trkpt lat="43.15593" lon="6.49712">
        <ele>190.8</ele>
        <time>2024-02-04T09:35:38Z</time>
      </trkpt>
      <trkpt lat="43.15594" lon="6.49712">
        <ele>191</ele>
        <time>2024-02-04T09:35:39Z</time>
      </trkpt>
      <trkpt lat="43.15594" lon="6.49711">
        <ele>191.2</ele>
        <time>2024-02-04T09:35:40Z</time>
      </trkpt>
      <trkpt lat="43.15594" lon="6.49711">
        <ele>191.3</ele>
        <time>2024-02-04T09:35:41Z</time>
      </trkpt>
      <trkpt lat="43.15595" lon="6.4971">
        <ele>191.5</ele>
        <time>2024-02-04T09:35:42Z</time>
      </trkpt>
      <trkpt lat="43.15595" lon="6.49709">
        <ele>191.8</ele>
        <time>2024-02-04T09:35:43Z</time>
      </trkpt>
      <trkpt lat="43.15595" lon="6.49708">
        <ele>192</ele>
        <time>2024-02-04T09:35:44Z</time>
      </trkpt>
      <trkpt lat="43.15596" lon="6.49707">
        <ele>192.2</ele>
        <time>2024-02-04T09:35:45Z</time>
      </trkpt>
      <trkpt lat="43.15596" lon="6.49706">
        <ele>192.5</ele>
        <time>2024-02-04T09:35:46Z</time>
      </trkpt>
      <trkpt lat="43.15597" lon="6.49705">
        <ele>192.7</ele>
        <time>2024-02-04T09:35:47Z</time>
      </trkpt>
      <trkpt lat="43.15597" lon="6.49704">
        <ele>192.8</ele>
        <time>2024-02-04T09:35:48Z</time>
      </trkpt>
      <trkpt lat="43.15597" lon="6.49703">
        <ele>193</ele>
        <time>2024-02-04T09:35:49Z</time>
      </trkpt>
      <trkpt lat="43.15598" lon="6.49702">
        <ele>193.2</ele>
        <time>2024-02-04T09:35:50Z</time>
      </trkpt>
      <trkpt lat="43.15599" lon="6.49701">
        <ele>193.3</ele>
        <time>2024-02-04T09:35:51Z</time>
      </trkpt>
      <trkpt lat="43.15599" lon="6.497">
        <ele>193.5</ele>
        <time>2024-02-04T09:35:52Z</time>
      </trkpt>
      <trkpt lat="43.15599" lon="6.497">
        <ele>193.6</ele>
        <time>2024-02-04T09:35:53Z</time>
      </trkpt>
      <trkpt lat="43.156" lon="6.49699">
        <ele>193.6</ele>
        <time>2024-02-04T09:35:54Z</time>
      </trkpt>
      <trkpt lat="43.156" lon="6.49698">
        <ele>193.7</ele>
        <time>2024-02-04T09:35:55Z</time>
      </trkpt>
      <trkpt lat="43.15601" lon="6.49697">
        <ele>193.8</ele>
        <time>2024-02-04T09:35:56Z</time>
      </trkpt>
      <trkpt lat="43.15601" lon="6.49696">
        <ele>193.8</ele>
        <time>2024-02-04T09:35:57Z</time>
      </trkpt>
      <trkpt lat="43.15602" lon="6.49696">
        <ele>194</ele>
        <time>2024-02-04T09:35:58Z</time>
      </trkpt>
      <trkpt lat="43.15602" lon="6.49695">
        <ele>194.1</ele>
        <time>2024-02-04T09:35:59Z</time>
      </trkpt>
      <trkpt lat="43.15602" lon="6.49693">
        <ele>194.2</ele>
        <time>2024-02-04T09:36:00Z</time>
      </trkpt>
      <trkpt lat="43.15603" lon="6.49692">
        <ele>194.3</ele>
        <time>2024-02-04T09:36:01Z</time>
      </trkpt>
      <trkpt lat="43.15603" lon="6.49691">
        <ele>194.4</ele>
        <time>2024-02-04T09:36:02Z</time>
      </trkpt>
      <trkpt lat="43.15604" lon="6.4969">
        <ele>194.4</ele>
        <time>2024-02-04T09:36:03Z</time>
      </trkpt>
      <trkpt lat="43.15604" lon="6.49689">
        <ele>194.5</ele>
        <time>2024-02-04T09:36:04Z</time>
      </trkpt>
      <trkpt lat="43.15605" lon="6.49687">
        <ele>194.7</ele>
        <time>2024-02-04T09:36:05Z</time>
      </trkpt>
      <trkpt lat="43.15605" lon="6.49686">
        <ele>194.8</ele>
        <time>2024-02-04T09:36:06Z</time>
      </trkpt>
      <trkpt lat="43.15606" lon="6.49685">
        <ele>194.9</ele>
        <time>2024-02-04T09:36:07Z</time>
      </trkpt>
      <trkpt lat="43.15606" lon="6.49685">
        <ele>195</ele>
        <time>2024-02-04T09:36:08Z</time>
      </trkpt>
      <trkpt lat="43.15607" lon="6.49684">
        <ele>195.1</ele>
        <time>2024-02-04T09:36:09Z</time>
      </trkpt>
      <trkpt lat="43.15607" lon="6.49683">
        <ele>195.3</ele>
        <time>2024-02-04T09:36:10Z</time>
      </trkpt>
      <trkpt lat="43.15607" lon="6.49682">
        <ele>195.4</ele>
        <time>2024-02-04T09:36:11Z</time>
      </trkpt>
      <trkpt lat="43.15607" lon="6.49681">
        <ele>195.5</ele>
        <time>2024-02-04T09:36:12Z</time>
      </trkpt>
      <trkpt lat="43.15608" lon="6.4968">
        <ele>195.5</ele>
        <time>2024-02-04T09:36:13Z</time>
      </trkpt>
      <trkpt lat="43.15608" lon="6.49679">
        <ele>195.6</ele>
        <time>2024-02-04T09:36:14Z</time>
      </trkpt>
      <trkpt lat="43.15608" lon="6.49678">
        <ele>195.7</ele>
        <time>2024-02-04T09:36:15Z</time>
      </trkpt>
      <trkpt lat="43.15609" lon="6.49677">
        <ele>195.7</ele>
        <time>2024-02-04T09:36:16Z</time>
      </trkpt>
      <trkpt lat="43.15609" lon="6.49676">
        <ele>195.8</ele>
        <time>2024-02-04T09:36:17Z</time>
      </trkpt>
      <trkpt lat="43.1561" lon="6.49675">
        <ele>195.9</ele>
        <time>2024-02-04T09:36:18Z</time>
      </trkpt>
      <trkpt lat="43.1561" lon="6.49674">
        <ele>196</ele>
        <time>2024-02-04T09:36:19Z</time>
      </trkpt>
      <trkpt lat="43.1561" lon="6.49673">
        <ele>196.1</ele>
        <time>2024-02-04T09:36:20Z</time>
      </trkpt>
      <trkpt lat="43.15611" lon="6.49672">
        <ele>196.2</ele>
        <time>2024-02-04T09:36:21Z</time>
      </trkpt>
      <trkpt lat="43.15611" lon="6.49672">
        <ele>196.3</ele>
        <time>2024-02-04T09:36:22Z</time>
      </trkpt>
      <trkpt lat="43.15611" lon="6.49671">
        <ele>196.4</ele>
        <time>2024-02-04T09:36:23Z</time>
      </trkpt>
      <trkpt lat="43.15612" lon="6.4967">
        <ele>196.4</ele>
        <time>2024-02-04T09:36:24Z</time>
      </trkpt>
      <trkpt lat="43.15612" lon="6.49669">
        <ele>196.6</ele>
        <time>2024-02-04T09:36:25Z</time>
      </trkpt>
      <trkpt lat="43.15612" lon="6.49668">
        <ele>196.8</ele>
        <time>2024-02-04T09:36:26Z</time>
      </trkpt>
      <trkpt lat="43.15613" lon="6.49667">
        <ele>196.9</ele>
        <time>2024-02-04T09:36:27Z</time>
      </trkpt>
      <trkpt lat="43.15613" lon="6.49667">
        <ele>197.1</ele>
        <time>2024-02-04T09:36:28Z</time>
      </trkpt>
      <trkpt lat="43.15614" lon="6.49666">
        <ele>197.2</ele>
        <time>2024-02-04T09:36:29Z</time>
      </trkpt>
      <trkpt lat="43.15614" lon="6.49665">
        <ele>197.3</ele>
        <time>2024-02-04T09:36:30Z</time>
      </trkpt>
      <trkpt lat="43.15614" lon="6.49665">
        <ele>197.4</ele>
        <time>2024-02-04T09:36:31Z</time>
      </trkpt>
      <trkpt lat="43.15615" lon="6.49663">
        <ele>197.5</ele>
        <time>2024-02-04T09:36:32Z</time>
      </trkpt>
      <trkpt lat="43.15615" lon="6.49662">
        <ele>197.6</ele>
        <time>2024-02-04T09:36:33Z</time>
      </trkpt>
      <trkpt lat="43.15616" lon="6.49661">
        <ele>197.6</ele>
        <time>2024-02-04T09:36:34Z</time>
      </trkpt>
      <trkpt lat="43.15616" lon="6.49661">
        <ele>197.7</ele>
        <time>2024-02-04T09:36:35Z</time>
      </trkpt>
      <trkpt lat="43.15617" lon="6.49659">
        <ele>197.9</ele>
        <time>2024-02-04T09:36:36Z</time>
      </trkpt>
      <trkpt lat="43.15617" lon="6.49658">
        <ele>197.9</ele>
        <time>2024-02-04T09:36:37Z</time>
      </trkpt>
      <trkpt lat="43.15617" lon="6.49657">
        <ele>198.1</ele>
        <time>2024-02-04T09:36:38Z</time>
      </trkpt>
      <trkpt lat="43.15618" lon="6.49656">
        <ele>198.1</ele>
        <time>2024-02-04T09:36:39Z</time>
      </trkpt>
      <trkpt lat="43.15618" lon="6.49655">
        <ele>198.2</ele>
        <time>2024-02-04T09:36:40Z</time>
      </trkpt>
      <trkpt lat="43.15619" lon="6.49654">
        <ele>198.3</ele>
        <time>2024-02-04T09:36:41Z</time>
      </trkpt>
      <trkpt lat="43.15619" lon="6.49653">
        <ele>198.5</ele>
        <time>2024-02-04T09:36:42Z</time>
      </trkpt>
      <trkpt lat="43.1562" lon="6.49652">
        <ele>198.6</ele>
        <time>2024-02-04T09:36:43Z</time>
      </trkpt>
      <trkpt lat="43.1562" lon="6.49652">
        <ele>198.7</ele>
        <time>2024-02-04T09:36:44Z</time>
      </trkpt>
      <trkpt lat="43.1562" lon="6.49652">
        <ele>198.8</ele>
        <time>2024-02-04T09:36:45Z</time>
      </trkpt>
      <trkpt lat="43.15621" lon="6.49651">
        <ele>198.9</ele>
        <time>2024-02-04T09:36:46Z</time>
      </trkpt>
      <trkpt lat="43.15621" lon="6.49651">
        <ele>199</ele>
        <time>2024-02-04T09:36:47Z</time>
      </trkpt>
      <trkpt lat="43.15622" lon="6.4965">
        <ele>199</ele>
        <time>2024-02-04T09:36:48Z</time>
      </trkpt>
      <trkpt lat="43.15622" lon="6.49649">
        <ele>199.2</ele>
        <time>2024-02-04T09:36:49Z</time>
      </trkpt>
      <trkpt lat="43.15622" lon="6.49648">
        <ele>199.3</ele>
        <time>2024-02-04T09:36:50Z</time>
      </trkpt>
      <trkpt lat="43.15623" lon="6.49647">
        <ele>199.4</ele>
        <time>2024-02-04T09:36:51Z</time>
      </trkpt>
      <trkpt lat="43.15623" lon="6.49646">
        <ele>199.5</ele>
        <time>2024-02-04T09:36:52Z</time>
      </trkpt>
      <trkpt lat="43.15624" lon="6.49645">
        <ele>199.7</ele>
        <time>2024-02-04T09:36:53Z</time>
      </trkpt>
      <trkpt lat="43.15624" lon="6.49644">
        <ele>199.8</ele>
        <time>2024-02-04T09:36:54Z</time>
      </trkpt>
      <trkpt lat="43.15624" lon="6.49643">
        <ele>199.7</ele>
        <time>2024-02-04T09:36:55Z</time>
      </trkpt>
      <trkpt lat="43.15625" lon="6.49642">
        <ele>199.7</ele>
        <time>2024-02-04T09:36:56Z</time>
      </trkpt>
      <trkpt lat="43.15626" lon="6.49641">
        <ele>199.7</ele>
        <time>2024-02-04T09:36:57Z</time>
      </trkpt>
      <trkpt lat="43.15626" lon="6.4964">
        <ele>199.7</ele>
        <time>2024-02-04T09:36:58Z</time>
      </trkpt>
      <trkpt lat="43.15627" lon="6.49639">
        <ele>199.8</ele>
        <time>2024-02-04T09:36:59Z</time>
      </trkpt>
      <trkpt lat="43.15627" lon="6.49637">
        <ele>199.9</ele>
        <time>2024-02-04T09:37:00Z</time>
      </trkpt>
      <trkpt lat="43.15627" lon="6.49636">
        <ele>200</ele>
        <time>2024-02-04T09:37:01Z</time>
      </trkpt>
      <trkpt lat="43.15628" lon="6.49635">
        <ele>200.1</ele>
        <time>2024-02-04T09:37:02Z</time>
      </trkpt>
      <trkpt lat="43.15629" lon="6.49634">
        <ele>200.1</ele>
        <time>2024-02-04T09:37:03Z</time>
      </trkpt>
      <trkpt lat="43.15629" lon="6.49633">
        <ele>200.2</ele>
        <time>2024-02-04T09:37:04Z</time>
      </trkpt>
      <trkpt lat="43.1563" lon="6.49632">
        <ele>200.2</ele>
        <time>2024-02-04T09:37:05Z</time>
      </trkpt>
      <trkpt lat="43.1563" lon="6.4963">
        <ele>200.2</ele>
        <time>2024-02-04T09:37:06Z</time>
      </trkpt>
      <trkpt lat="43.15631" lon="6.49629">
        <ele>200.2</ele>
        <time>2024-02-04T09:37:07Z</time>
      </trkpt>
      <trkpt lat="43.15631" lon="6.49628">
        <ele>200.3</ele>
        <time>2024-02-04T09:37:08Z</time>
      </trkpt>
      <trkpt lat="43.15632" lon="6.49626">
        <ele>200.4</ele>
        <time>2024-02-04T09:37:09Z</time>
      </trkpt>
      <trkpt lat="43.15632" lon="6.49625">
        <ele>200.7</ele>
        <time>2024-02-04T09:37:10Z</time>
      </trkpt>
      <trkpt lat="43.15632" lon="6.49624">
        <ele>200.8</ele>
        <time>2024-02-04T09:37:11Z</time>
      </trkpt>
      <trkpt lat="43.15633" lon="6.49622">
        <ele>200.8</ele>
        <time>2024-02-04T09:37:12Z</time>
      </trkpt>
      <trkpt lat="43.15633" lon="6.49621">
        <ele>200.9</ele>
        <time>2024-02-04T09:37:13Z</time>
      </trkpt>
      <trkpt lat="43.15634" lon="6.49621">
        <ele>201</ele>
        <time>2024-02-04T09:37:14Z</time>
      </trkpt>
      <trkpt lat="43.15635" lon="6.4962">
        <ele>201.1</ele>
        <time>2024-02-04T09:37:15Z</time>
      </trkpt>
      <trkpt lat="43.15635" lon="6.49618">
        <ele>201.1</ele>
        <time>2024-02-04T09:37:16Z</time>
      </trkpt>
      <trkpt lat="43.15636" lon="6.49617">
        <ele>201.2</ele>
        <time>2024-02-04T09:37:17Z</time>
      </trkpt>
      <trkpt lat="43.15636" lon="6.49616">
        <ele>201.3</ele>
        <time>2024-02-04T09:37:18Z</time>
      </trkpt>
      <trkpt lat="43.15637" lon="6.49615">
        <ele>201.4</ele>
        <time>2024-02-04T09:37:19Z</time>
      </trkpt>
      <trkpt lat="43.15637" lon="6.49614">
        <ele>201.4</ele>
        <time>2024-02-04T09:37:20Z</time>
      </trkpt>
      <trkpt lat="43.15638" lon="6.49613">
        <ele>201.5</ele>
        <time>2024-02-04T09:37:21Z</time>
      </trkpt>
      <trkpt lat="43.15638" lon="6.49612">
        <ele>201.5</ele>
        <time>2024-02-04T09:37:22Z</time>
      </trkpt>
      <trkpt lat="43.15639" lon="6.49611">
        <ele>201.6</ele>
        <time>2024-02-04T09:37:23Z</time>
      </trkpt>
      <trkpt lat="43.1564" lon="6.4961">
        <ele>201.7</ele>
        <time>2024-02-04T09:37:24Z</time>
      </trkpt>
      <trkpt lat="43.15641" lon="6.49609">
        <ele>201.8</ele>
        <time>2024-02-04T09:37:25Z</time>
      </trkpt>
      <trkpt lat="43.15641" lon="6.49608">
        <ele>201.8</ele>
        <time>2024-02-04T09:37:26Z</time>
      </trkpt>
      <trkpt lat="43.15642" lon="6.49606">
        <ele>201.8</ele>
        <time>2024-02-04T09:37:27Z</time>
      </trkpt>
      <trkpt lat="43.15643" lon="6.49605">
        <ele>201.9</ele>
        <time>2024-02-04T09:37:28Z</time>
      </trkpt>
      <trkpt lat="43.15643" lon="6.49604">
        <ele>201.9</ele>
        <time>2024-02-04T09:37:29Z</time>
      </trkpt>
      <trkpt lat="43.15644" lon="6.49603">
        <ele>202</ele>
        <time>2024-02-04T09:37:30Z</time>
      </trkpt>
      <trkpt lat="43.15644" lon="6.49602">
        <ele>202</ele>
        <time>2024-02-04T09:37:31Z</time>
      </trkpt>
      <trkpt lat="43.15645" lon="6.49601">
        <ele>202.1</ele>
        <time>2024-02-04T09:37:32Z</time>
      </trkpt>
      <trkpt lat="43.15645" lon="6.496">
        <ele>202.3</ele>
        <time>2024-02-04T09:37:33Z</time>
      </trkpt>
      <trkpt lat="43.15645" lon="6.49599">
        <ele>202.3</ele>
        <time>2024-02-04T09:37:34Z</time>
      </trkpt>
      <trkpt lat="43.15646" lon="6.49598">
        <ele>202.5</ele>
        <time>2024-02-04T09:37:35Z</time>
      </trkpt>
      <trkpt lat="43.15646" lon="6.49597">
        <ele>202.6</ele>
        <time>2024-02-04T09:37:36Z</time>
      </trkpt>
      <trkpt lat="43.15646" lon="6.49596">
        <ele>202.6</ele>
        <time>2024-02-04T09:37:37Z</time>
      </trkpt>
      <trkpt lat="43.15647" lon="6.49595">
        <ele>202.6</ele>
        <time>2024-02-04T09:37:38Z</time>
      </trkpt>
      <trkpt lat="43.15647" lon="6.49594">
        <ele>202.6</ele>
        <time>2024-02-04T09:37:39Z</time>
      </trkpt>
      <trkpt lat="43.15648" lon="6.49593">
        <ele>202.7</ele>
        <time>2024-02-04T09:37:40Z</time>
      </trkpt>
      <trkpt lat="43.15648" lon="6.49592">
        <ele>202.7</ele>
        <time>2024-02-04T09:37:41Z</time>
      </trkpt>
      <trkpt lat="43.15649" lon="6.49592">
        <ele>202.8</ele>
        <time>2024-02-04T09:37:42Z</time>
      </trkpt>
      <trkpt lat="43.15649" lon="6.49591">
        <ele>202.9</ele>
        <time>2024-02-04T09:37:43Z</time>
      </trkpt>
      <trkpt lat="43.15649" lon="6.4959">
        <ele>202.9</ele>
        <time>2024-02-04T09:37:44Z</time>
      </trkpt>
      <trkpt lat="43.15649" lon="6.49589">
        <ele>203</ele>
        <time>2024-02-04T09:37:45Z</time>
      </trkpt>
      <trkpt lat="43.1565" lon="6.49588">
        <ele>203</ele>
        <time>2024-02-04T09:37:46Z</time>
      </trkpt>
      <trkpt lat="43.1565" lon="6.49587">
        <ele>203.1</ele>
        <time>2024-02-04T09:37:47Z</time>
      </trkpt>
      <trkpt lat="43.15651" lon="6.49587">
        <ele>203.2</ele>
        <time>2024-02-04T09:37:48Z</time>
      </trkpt>
      <trkpt lat="43.15652" lon="6.49586">
        <ele>203.2</ele>
        <time>2024-02-04T09:37:49Z</time>
      </trkpt>
      <trkpt lat="43.15652" lon="6.49584">
        <ele>203.3</ele>
        <time>2024-02-04T09:37:50Z</time>
      </trkpt>
      <trkpt lat="43.15653" lon="6.49583">
        <ele>203.3</ele>
        <time>2024-02-04T09:37:51Z</time>
      </trkpt>
      <trkpt lat="43.15653" lon="6.49582">
        <ele>203.4</ele>
        <time>2024-02-04T09:37:52Z</time>
      </trkpt>
      <trkpt lat="43.15654" lon="6.49582">
        <ele>203.6</ele>
        <time>2024-02-04T09:37:53Z</time>
      </trkpt>
      <trkpt lat="43.15655" lon="6.49581">
        <ele>203.6</ele>
        <time>2024-02-04T09:37:54Z</time>
      </trkpt>
      <trkpt lat="43.15656" lon="6.4958">
        <ele>203.7</ele>
        <time>2024-02-04T09:37:55Z</time>
      </trkpt>
      <trkpt lat="43.15656" lon="6.49579">
        <ele>203.8</ele>
        <time>2024-02-04T09:37:56Z</time>
      </trkpt>
      <trkpt lat="43.15656" lon="6.49579">
        <ele>203.8</ele>
        <time>2024-02-04T09:37:57Z</time>
      </trkpt>
      <trkpt lat="43.15656" lon="6.49578">
        <ele>203.9</ele>
        <time>2024-02-04T09:37:58Z</time>
      </trkpt>
      <trkpt lat="43.15657" lon="6.49578">
        <ele>204</ele>
        <time>2024-02-04T09:37:59Z</time>
      </trkpt>
      <trkpt lat="43.15658" lon="6.49576">
        <ele>204.2</ele>
        <time>2024-02-04T09:38:00Z</time>
      </trkpt>
      <trkpt lat="43.15658" lon="6.49575">
        <ele>204.3</ele>
        <time>2024-02-04T09:38:01Z</time>
      </trkpt>
      <trkpt lat="43.15659" lon="6.49574">
        <ele>204.5</ele>
        <time>2024-02-04T09:38:02Z</time>
      </trkpt>
      <trkpt lat="43.1566" lon="6.49573">
        <ele>204.6</ele>
        <time>2024-02-04T09:38:03Z</time>
      </trkpt>
      <trkpt lat="43.15661" lon="6.49572">
        <ele>204.7</ele>
        <time>2024-02-04T09:38:04Z</time>
      </trkpt>
      <trkpt lat="43.15662" lon="6.49572">
        <ele>204.6</ele>
        <time>2024-02-04T09:38:05Z</time>
      </trkpt>
      <trkpt lat="43.15662" lon="6.4957">
        <ele>204.8</ele>
        <time>2024-02-04T09:38:06Z</time>
      </trkpt>
      <trkpt lat="43.15663" lon="6.4957">
        <ele>204.9</ele>
        <time>2024-02-04T09:38:07Z</time>
      </trkpt>
      <trkpt lat="43.15664" lon="6.49569">
        <ele>204.9</ele>
        <time>2024-02-04T09:38:08Z</time>
      </trkpt>
      <trkpt lat="43.15664" lon="6.49568">
        <ele>205</ele>
        <time>2024-02-04T09:38:09Z</time>
      </trkpt>
      <trkpt lat="43.15665" lon="6.49567">
        <ele>204.9</ele>
        <time>2024-02-04T09:38:10Z</time>
      </trkpt>
      <trkpt lat="43.15666" lon="6.49567">
        <ele>204.9</ele>
        <time>2024-02-04T09:38:11Z</time>
      </trkpt>
      <trkpt lat="43.15666" lon="6.49566">
        <ele>204.9</ele>
        <time>2024-02-04T09:38:12Z</time>
      </trkpt>
      <trkpt lat="43.15667" lon="6.49566">
        <ele>204.9</ele>
        <time>2024-02-04T09:38:13Z</time>
      </trkpt>
      <trkpt lat="43.15668" lon="6.49565">
        <ele>205</ele>
        <time>2024-02-04T09:38:14Z</time>
      </trkpt>
      <trkpt lat="43.15668" lon="6.49564">
        <ele>205.1</ele>
        <time>2024-02-04T09:38:15Z</time>
      </trkpt>
      <trkpt lat="43.15669" lon="6.49563">
        <ele>205.1</ele>
        <time>2024-02-04T09:38:16Z</time>
      </trkpt>
      <trkpt lat="43.1567" lon="6.49563">
        <ele>205.2</ele>
        <time>2024-02-04T09:38:17Z</time>
      </trkpt>
      <trkpt lat="43.15671" lon="6.49562">
        <ele>205.2</ele>
        <time>2024-02-04T09:38:18Z</time>
      </trkpt>
      <trkpt lat="43.15671" lon="6.49562">
        <ele>205.3</ele>
        <time>2024-02-04T09:38:19Z</time>
      </trkpt>
      <trkpt lat="43.15672" lon="6.49561">
        <ele>205.3</ele>
        <time>2024-02-04T09:38:20Z</time>
      </trkpt>
      <trkpt lat="43.15673" lon="6.4956">
        <ele>205.4</ele>
        <time>2024-02-04T09:38:21Z</time>
      </trkpt>
      <trkpt lat="43.15674" lon="6.4956">
        <ele>205.4</ele>
        <time>2024-02-04T09:38:22Z</time>
      </trkpt>
      <trkpt lat="43.15674" lon="6.49559">
        <ele>205.4</ele>
        <time>2024-02-04T09:38:23Z</time>
      </trkpt>
      <trkpt lat="43.15675" lon="6.49559">
        <ele>205.4</ele>
        <time>2024-02-04T09:38:24Z</time>
      </trkpt>
      <trkpt lat="43.15675" lon="6.49558">
        <ele>205.4</ele>
        <time>2024-02-04T09:38:25Z</time>
      </trkpt>
      <trkpt lat="43.15676" lon="6.49557">
        <ele>205.4</ele>
        <time>2024-02-04T09:38:26Z</time>
      </trkpt>
      <trkpt lat="43.15676" lon="6.49557">
        <ele>205.5</ele>
        <time>2024-02-04T09:38:27Z</time>
      </trkpt>
      <trkpt lat="43.15676" lon="6.49556">
        <ele>205.5</ele>
        <time>2024-02-04T09:38:28Z</time>
      </trkpt>
      <trkpt lat="43.15676" lon="6.49556">
        <ele>205.5</ele>
        <time>2024-02-04T09:38:29Z</time>
      </trkpt>
      <trkpt lat="43.15676" lon="6.49556">
        <ele>205.5</ele>
        <time>2024-02-04T09:38:30Z</time>
      </trkpt>
      <trkpt lat="43.15676" lon="6.49555">
        <ele>205.5</ele>
        <time>2024-02-04T09:38:31Z</time>
      </trkpt>
      <trkpt lat="43.15676" lon="6.49555">
        <ele>205.5</ele>
        <time>2024-02-04T09:38:32Z</time>
      </trkpt>
      <trkpt lat="43.15676" lon="6.49555">
        <ele>205.5</ele>
        <time>2024-02-04T09:38:33Z</time>
      </trkpt>
      <trkpt lat="43.15676" lon="6.49555">
        <ele>205.5</ele>
        <time>2024-02-04T09:38:34Z</time>
      </trkpt>
      <trkpt lat="43.15676" lon="6.49555">
        <ele>205.5</ele>
        <time>2024-02-04T09:38:35Z</time>
      </trkpt>
      <trkpt lat="43.15676" lon="6.49555">
        <ele>205.5</ele>
        <time>2024-02-04T09:38:36Z</time>
      </trkpt>
      <trkpt lat="43.15675" lon="6.49555">
        <ele>205.5</ele>
        <time>2024-02-04T09:38:37Z</time>
      </trkpt>
      <trkpt lat="43.15675" lon="6.49555">
        <ele>205.5</ele>
        <time>2024-02-04T09:38:38Z</time>
      </trkpt>
      <trkpt lat="43.15676" lon="6.49555">
        <ele>205.4</ele>
        <time>2024-02-04T09:38:39Z</time>
      </trkpt>
      <trkpt lat="43.15676" lon="6.49554">
        <ele>205.4</ele>
        <time>2024-02-04T09:38:40Z</time>
      </trkpt>
      <trkpt lat="43.15676" lon="6.49554">
        <ele>205.4</ele>
        <time>2024-02-04T09:38:41Z</time>
      </trkpt>
      <trkpt lat="43.15676" lon="6.49554">
        <ele>205.5</ele>
        <time>2024-02-04T09:38:42Z</time>
      </trkpt>
      <trkpt lat="43.15676" lon="6.49554">
        <ele>205.5</ele>
        <time>2024-02-04T09:38:43Z</time>
      </trkpt>
      <trkpt lat="43.15676" lon="6.49554">
        <ele>205.5</ele>
        <time>2024-02-04T09:38:44Z</time>
      </trkpt>
      <trkpt lat="43.15676" lon="6.49554">
        <ele>205.5</ele>
        <time>2024-02-04T09:38:45Z</time>
      </trkpt>
      <trkpt lat="43.15676" lon="6.49554">
        <ele>205.5</ele>
        <time>2024-02-04T09:38:46Z</time>
      </trkpt>
      <trkpt lat="43.15677" lon="6.49554">
        <ele>205.6</ele>
        <time>2024-02-04T09:38:47Z</time>
      </trkpt>
      <trkpt lat="43.15677" lon="6.49553">
        <ele>205.7</ele>
        <time>2024-02-04T09:38:48Z</time>
      </trkpt>
      <trkpt lat="43.15677" lon="6.49553">
        <ele>205.7</ele>
        <time>2024-02-04T09:38:49Z</time>
      </trkpt>
      <trkpt lat="43.15677" lon="6.49553">
        <ele>205.7</ele>
        <time>2024-02-04T09:38:50Z</time>
      </trkpt>
      <trkpt lat="43.15677" lon="6.49553">
        <ele>205.8</ele>
        <time>2024-02-04T09:38:51Z</time>
      </trkpt>
      <trkpt lat="43.15677" lon="6.49553">
        <ele>205.9</ele>
        <time>2024-02-04T09:38:52Z</time>
      </trkpt>
      <trkpt lat="43.15677" lon="6.49553">
        <ele>205.9</ele>
        <time>2024-02-04T09:38:53Z</time>
      </trkpt>
      <trkpt lat="43.15678" lon="6.49553">
        <ele>206</ele>
        <time>2024-02-04T09:38:54Z</time>
      </trkpt>
      <trkpt lat="43.15678" lon="6.49553">
        <ele>206</ele>
        <time>2024-02-04T09:38:55Z</time>
      </trkpt>
      <trkpt lat="43.15678" lon="6.49552">
        <ele>206.1</ele>
        <time>2024-02-04T09:38:56Z</time>
      </trkpt>
      <trkpt lat="43.15678" lon="6.49552">
        <ele>206</ele>
        <time>2024-02-04T09:38:57Z</time>
      </trkpt>
      <trkpt lat="43.15678" lon="6.49552">
        <ele>206.1</ele>
        <time>2024-02-04T09:38:58Z</time>
      </trkpt>
      <trkpt lat="43.15679" lon="6.49552">
        <ele>206.2</ele>
        <time>2024-02-04T09:38:59Z</time>
      </trkpt>
      <trkpt lat="43.15679" lon="6.49551">
        <ele>206.2</ele>
        <time>2024-02-04T09:39:00Z</time>
      </trkpt>
      <trkpt lat="43.15679" lon="6.49551">
        <ele>206.3</ele>
        <time>2024-02-04T09:39:01Z</time>
      </trkpt>
      <trkpt lat="43.15679" lon="6.49551">
        <ele>206.3</ele>
        <time>2024-02-04T09:39:02Z</time>
      </trkpt>
      <trkpt lat="43.1568" lon="6.49551">
        <ele>206.3</ele>
        <time>2024-02-04T09:39:03Z</time>
      </trkpt>
      <trkpt lat="43.1568" lon="6.49551">
        <ele>206.3</ele>
        <time>2024-02-04T09:39:04Z</time>
      </trkpt>
      <trkpt lat="43.1568" lon="6.49551">
        <ele>206.3</ele>
        <time>2024-02-04T09:39:05Z</time>
      </trkpt>
      <trkpt lat="43.15681" lon="6.4955">
        <ele>206.3</ele>
        <time>2024-02-04T09:39:06Z</time>
      </trkpt>
      <trkpt lat="43.15681" lon="6.4955">
        <ele>206.2</ele>
        <time>2024-02-04T09:39:07Z</time>
      </trkpt>
      <trkpt lat="43.15681" lon="6.4955">
        <ele>206.2</ele>
        <time>2024-02-04T09:39:08Z</time>
      </trkpt>
      <trkpt lat="43.15681" lon="6.49549">
        <ele>206.2</ele>
        <time>2024-02-04T09:39:09Z</time>
      </trkpt>
      <trkpt lat="43.15681" lon="6.49549">
        <ele>206.2</ele>
        <time>2024-02-04T09:39:10Z</time>
      </trkpt>
      <trkpt lat="43.15681" lon="6.49548">
        <ele>206.1</ele>
        <time>2024-02-04T09:39:11Z</time>
      </trkpt>
      <trkpt lat="43.15681" lon="6.49548">
        <ele>206.1</ele>
        <time>2024-02-04T09:39:12Z</time>
      </trkpt>
      <trkpt lat="43.15681" lon="6.49547">
        <ele>206.1</ele>
        <time>2024-02-04T09:39:13Z</time>
      </trkpt>
      <trkpt lat="43.15682" lon="6.49545">
        <ele>206.1</ele>
        <time>2024-02-04T09:39:14Z</time>
      </trkpt>
      <trkpt lat="43.15682" lon="6.49544">
        <ele>206.1</ele>
        <time>2024-02-04T09:39:15Z</time>
      </trkpt>
      <trkpt lat="43.15683" lon="6.49544">
        <ele>206.1</ele>
        <time>2024-02-04T09:39:16Z</time>
      </trkpt>
      <trkpt lat="43.15684" lon="6.49543">
        <ele>206.1</ele>
        <time>2024-02-04T09:39:17Z</time>
      </trkpt>
      <trkpt lat="43.15685" lon="6.49542">
        <ele>206.1</ele>
        <time>2024-02-04T09:39:18Z</time>
      </trkpt>
      <trkpt lat="43.15686" lon="6.49541">
        <ele>206.1</ele>
        <time>2024-02-04T09:39:19Z</time>
      </trkpt>
      <trkpt lat="43.15687" lon="6.49541">
        <ele>206.1</ele>
        <time>2024-02-04T09:39:20Z</time>
      </trkpt>
      <trkpt lat="43.15688" lon="6.4954">
        <ele>206.1</ele>
        <time>2024-02-04T09:39:21Z</time>
      </trkpt>
      <trkpt lat="43.15689" lon="6.4954">
        <ele>206</ele>
        <time>2024-02-04T09:39:22Z</time>
      </trkpt>
      <trkpt lat="43.1569" lon="6.49539">
        <ele>206</ele>
        <time>2024-02-04T09:39:23Z</time>
      </trkpt>
      <trkpt lat="43.1569" lon="6.49539">
        <ele>205.9</ele>
        <time>2024-02-04T09:39:24Z</time>
      </trkpt>
      <trkpt lat="43.15691" lon="6.49538">
        <ele>205.9</ele>
        <time>2024-02-04T09:39:25Z</time>
      </trkpt>
      <trkpt lat="43.15693" lon="6.49537">
        <ele>206</ele>
        <time>2024-02-04T09:39:26Z</time>
      </trkpt>
      <trkpt lat="43.15693" lon="6.49536">
        <ele>205.9</ele>
        <time>2024-02-04T09:39:27Z</time>
      </trkpt>
      <trkpt lat="43.15695" lon="6.49535">
        <ele>205.8</ele>
        <time>2024-02-04T09:39:28Z</time>
      </trkpt>
      <trkpt lat="43.15695" lon="6.49534">
        <ele>205.8</ele>
        <time>2024-02-04T09:39:29Z</time>
      </trkpt>
      <trkpt lat="43.15696" lon="6.49534">
        <ele>205.6</ele>
        <time>2024-02-04T09:39:30Z</time>
      </trkpt>
      <trkpt lat="43.15697" lon="6.49532">
        <ele>205.5</ele>
        <time>2024-02-04T09:39:31Z</time>
      </trkpt>
      <trkpt lat="43.15698" lon="6.49531">
        <ele>205.4</ele>
        <time>2024-02-04T09:39:32Z</time>
      </trkpt>
      <trkpt lat="43.15699" lon="6.4953">
        <ele>205.5</ele>
        <time>2024-02-04T09:39:33Z</time>
      </trkpt>
      <trkpt lat="43.157" lon="6.49528">
        <ele>205.4</ele>
        <time>2024-02-04T09:39:34Z</time>
      </trkpt>
      <trkpt lat="43.15701" lon="6.49526">
        <ele>205.4</ele>
        <time>2024-02-04T09:39:35Z</time>
      </trkpt>
      <trkpt lat="43.15703" lon="6.49524">
        <ele>205.4</ele>
        <time>2024-02-04T09:39:36Z</time>
      </trkpt>
      <trkpt lat="43.15703" lon="6.49523">
        <ele>205.4</ele>
        <time>2024-02-04T09:39:37Z</time>
      </trkpt>
      <trkpt lat="43.15704" lon="6.49522">
        <ele>205.4</ele>
        <time>2024-02-04T09:39:38Z</time>
      </trkpt>
      <trkpt lat="43.15705" lon="6.4952">
        <ele>205.5</ele>
        <time>2024-02-04T09:39:39Z</time>
      </trkpt>
      <trkpt lat="43.15706" lon="6.49519">
        <ele>205.5</ele>
        <time>2024-02-04T09:39:40Z</time>
      </trkpt>
      <trkpt lat="43.15706" lon="6.49519">
        <ele>205.5</ele>
        <time>2024-02-04T09:39:41Z</time>
      </trkpt>
      <trkpt lat="43.15707" lon="6.49517">
        <ele>205.6</ele>
        <time>2024-02-04T09:39:42Z</time>
      </trkpt>
      <trkpt lat="43.15707" lon="6.49516">
        <ele>205.5</ele>
        <time>2024-02-04T09:39:43Z</time>
      </trkpt>
      <trkpt lat="43.15708" lon="6.49514">
        <ele>205.5</ele>
        <time>2024-02-04T09:39:44Z</time>
      </trkpt>
      <trkpt lat="43.15708" lon="6.49513">
        <ele>205.5</ele>
        <time>2024-02-04T09:39:45Z</time>
      </trkpt>
      <trkpt lat="43.15709" lon="6.49511">
        <ele>205.6</ele>
        <time>2024-02-04T09:39:46Z</time>
      </trkpt>
      <trkpt lat="43.15709" lon="6.4951">
        <ele>205.7</ele>
        <time>2024-02-04T09:39:47Z</time>
      </trkpt>
      <trkpt lat="43.15709" lon="6.49509">
        <ele>205.8</ele>
        <time>2024-02-04T09:39:48Z</time>
      </trkpt>
      <trkpt lat="43.1571" lon="6.49507">
        <ele>205.9</ele>
        <time>2024-02-04T09:39:49Z</time>
      </trkpt>
      <trkpt lat="43.15711" lon="6.49506">
        <ele>206</ele>
        <time>2024-02-04T09:39:50Z</time>
      </trkpt>
      <trkpt lat="43.15712" lon="6.49504">
        <ele>206</ele>
        <time>2024-02-04T09:39:51Z</time>
      </trkpt>
      <trkpt lat="43.15712" lon="6.49503">
        <ele>206</ele>
        <time>2024-02-04T09:39:52Z</time>
      </trkpt>
      <trkpt lat="43.15713" lon="6.49502">
        <ele>206.1</ele>
        <time>2024-02-04T09:39:53Z</time>
      </trkpt>
      <trkpt lat="43.15713" lon="6.495">
        <ele>206.1</ele>
        <time>2024-02-04T09:39:54Z</time>
      </trkpt>
      <trkpt lat="43.15714" lon="6.49499">
        <ele>206.1</ele>
        <time>2024-02-04T09:39:55Z</time>
      </trkpt>
      <trkpt lat="43.15714" lon="6.49499">
        <ele>206.1</ele>
        <time>2024-02-04T09:39:56Z</time>
      </trkpt>
      <trkpt lat="43.15714" lon="6.49498">
        <ele>206.1</ele>
        <time>2024-02-04T09:39:57Z</time>
      </trkpt>
      <trkpt lat="43.15714" lon="6.49498">
        <ele>206.1</ele>
        <time>2024-02-04T09:39:58Z</time>
      </trkpt>
      <trkpt lat="43.15714" lon="6.49498">
        <ele>206.1</ele>
        <time>2024-02-04T09:39:59Z</time>
      </trkpt>
      <trkpt lat="43.15714" lon="6.49498">
        <ele>206.1</ele>
        <time>2024-02-04T09:40:00Z</time>
      </trkpt>
      <trkpt lat="43.15715" lon="6.49498">
        <ele>206.1</ele>
        <time>2024-02-04T09:40:01Z</time>
      </trkpt>
      <trkpt lat="43.15715" lon="6.49498">
        <ele>206.2</ele>
        <time>2024-02-04T09:40:02Z</time>
      </trkpt>
      <trkpt lat="43.15715" lon="6.49498">
        <ele>206.2</ele>
        <time>2024-02-04T09:40:03Z</time>
      </trkpt>
      <trkpt lat="43.15715" lon="6.49498">
        <ele>206.2</ele>
        <time>2024-02-04T09:40:04Z</time>
      </trkpt>
      <trkpt lat="43.15715" lon="6.49498">
        <ele>206.2</ele>
        <time>2024-02-04T09:40:05Z</time>
      </trkpt>
      <trkpt lat="43.15715" lon="6.49498">
        <ele>206.3</ele>
        <time>2024-02-04T09:40:06Z</time>
      </trkpt>
      <trkpt lat="43.15715" lon="6.49498">
        <ele>206.2</ele>
        <time>2024-02-04T09:40:07Z</time>
      </trkpt>
      <trkpt lat="43.15715" lon="6.49498">
        <ele>206.2</ele>
        <time>2024-02-04T09:40:08Z</time>
      </trkpt>
      <trkpt lat="43.15715" lon="6.49498">
        <ele>206.2</ele>
        <time>2024-02-04T09:40:09Z</time>
      </trkpt>
      <trkpt lat="43.15715" lon="6.49498">
        <ele>206.3</ele>
        <time>2024-02-04T09:40:10Z</time>
      </trkpt>
      <trkpt lat="43.15715" lon="6.49498">
        <ele>206.3</ele>
        <time>2024-02-04T09:40:11Z</time>
      </trkpt>
      <trkpt lat="43.15715" lon="6.49498">
        <ele>206.3</ele>
        <time>2024-02-04T09:40:12Z</time>
      </trkpt>
      <trkpt lat="43.15715" lon="6.49498">
        <ele>206.3</ele>
        <time>2024-02-04T09:40:13Z</time>
      </trkpt>
      <trkpt lat="43.15715" lon="6.49497">
        <ele>206.4</ele>
        <time>2024-02-04T09:40:14Z</time>
      </trkpt>
      <trkpt lat="43.15715" lon="6.49497">
        <ele>206.4</ele>
        <time>2024-02-04T09:40:15Z</time>
      </trkpt>
      <trkpt lat="43.15715" lon="6.49498">
        <ele>206.4</ele>
        <time>2024-02-04T09:40:16Z</time>
      </trkpt>
      <trkpt lat="43.15715" lon="6.49498">
        <ele>206.3</ele>
        <time>2024-02-04T09:40:17Z</time>
      </trkpt>
      <trkpt lat="43.15715" lon="6.49497">
        <ele>206.3</ele>
        <time>2024-02-04T09:40:18Z</time>
      </trkpt>
      <trkpt lat="43.15715" lon="6.49498">
        <ele>206.3</ele>
        <time>2024-02-04T09:40:19Z</time>
      </trkpt>
      <trkpt lat="43.15715" lon="6.49498">
        <ele>206.3</ele>
        <time>2024-02-04T09:40:20Z</time>
      </trkpt>
      <trkpt lat="43.15715" lon="6.49497">
        <ele>206.3</ele>
        <time>2024-02-04T09:40:21Z</time>
      </trkpt>
      <trkpt lat="43.15715" lon="6.49497">
        <ele>206.3</ele>
        <time>2024-02-04T09:40:22Z</time>
      </trkpt>
      <trkpt lat="43.15716" lon="6.49497">
        <ele>206.3</ele>
        <time>2024-02-04T09:40:23Z</time>
      </trkpt>
      <trkpt lat="43.15716" lon="6.49497">
        <ele>206.3</ele>
        <time>2024-02-04T09:40:24Z</time>
      </trkpt>
      <trkpt lat="43.15716" lon="6.49497">
        <ele>206.3</ele>
        <time>2024-02-04T09:40:25Z</time>
      </trkpt>
      <trkpt lat="43.15716" lon="6.49497">
        <ele>206.3</ele>
        <time>2024-02-04T09:40:26Z</time>
      </trkpt>
      <trkpt lat="43.15716" lon="6.49496">
        <ele>206.3</ele>
        <time>2024-02-04T09:40:27Z</time>
      </trkpt>
      <trkpt lat="43.15716" lon="6.49495">
        <ele>206.3</ele>
        <time>2024-02-04T09:40:28Z</time>
      </trkpt>
      <trkpt lat="43.15717" lon="6.49495">
        <ele>206.3</ele>
        <time>2024-02-04T09:40:29Z</time>
      </trkpt>
      <trkpt lat="43.15717" lon="6.49495">
        <ele>206.2</ele>
        <time>2024-02-04T09:40:30Z</time>
      </trkpt>
      <trkpt lat="43.15717" lon="6.49494">
        <ele>206.2</ele>
        <time>2024-02-04T09:40:31Z</time>
      </trkpt>
      <trkpt lat="43.15717" lon="6.49494">
        <ele>206.2</ele>
        <time>2024-02-04T09:40:32Z</time>
      </trkpt>
      <trkpt lat="43.15717" lon="6.49494">
        <ele>206.1</ele>
        <time>2024-02-04T09:40:33Z</time>
      </trkpt>
      <trkpt lat="43.15717" lon="6.49493">
        <ele>206</ele>
        <time>2024-02-04T09:40:34Z</time>
      </trkpt>
      <trkpt lat="43.15717" lon="6.49493">
        <ele>206</ele>
        <time>2024-02-04T09:40:35Z</time>
      </trkpt>
      <trkpt lat="43.15718" lon="6.49493">
        <ele>205.9</ele>
        <time>2024-02-04T09:40:36Z</time>
      </trkpt>
      <trkpt lat="43.15718" lon="6.49493">
        <ele>205.9</ele>
        <time>2024-02-04T09:40:37Z</time>
      </trkpt>
      <trkpt lat="43.15718" lon="6.49493">
        <ele>205.8</ele>
        <time>2024-02-04T09:40:38Z</time>
      </trkpt>
      <trkpt lat="43.15718" lon="6.49493">
        <ele>205.7</ele>
        <time>2024-02-04T09:40:39Z</time>
      </trkpt>
      <trkpt lat="43.15718" lon="6.49492">
        <ele>205.6</ele>
        <time>2024-02-04T09:40:40Z</time>
      </trkpt>
      <trkpt lat="43.15718" lon="6.49492">
        <ele>205.6</ele>
        <time>2024-02-04T09:40:41Z</time>
      </trkpt>
      <trkpt lat="43.15718" lon="6.49492">
        <ele>205.6</ele>
        <time>2024-02-04T09:40:42Z</time>
      </trkpt>
      <trkpt lat="43.15718" lon="6.49492">
        <ele>205.6</ele>
        <time>2024-02-04T09:40:43Z</time>
      </trkpt>
      <trkpt lat="43.15718" lon="6.49492">
        <ele>205.5</ele>
        <time>2024-02-04T09:40:44Z</time>
      </trkpt>
      <trkpt lat="43.15718" lon="6.49492">
        <ele>205.6</ele>
        <time>2024-02-04T09:40:45Z</time>
      </trkpt>
      <trkpt lat="43.15718" lon="6.49492">
        <ele>205.6</ele>
        <time>2024-02-04T09:40:46Z</time>
      </trkpt>
      <trkpt lat="43.15719" lon="6.49492">
        <ele>205.5</ele>
        <time>2024-02-04T09:40:47Z</time>
      </trkpt>
      <trkpt lat="43.15718" lon="6.49491">
        <ele>205.6</ele>
        <time>2024-02-04T09:40:48Z</time>
      </trkpt>
      <trkpt lat="43.15718" lon="6.49491">
        <ele>205.6</ele>
        <time>2024-02-04T09:40:49Z</time>
      </trkpt>
      <trkpt lat="43.15718" lon="6.49491">
        <ele>205.6</ele>
        <time>2024-02-04T09:40:50Z</time>
      </trkpt>
      <trkpt lat="43.15718" lon="6.49491">
        <ele>205.7</ele>
        <time>2024-02-04T09:40:51Z</time>
      </trkpt>
      <trkpt lat="43.15718" lon="6.49491">
        <ele>205.6</ele>
        <time>2024-02-04T09:40:52Z</time>
      </trkpt>
      <trkpt lat="43.15719" lon="6.49491">
        <ele>205.7</ele>
        <time>2024-02-04T09:40:53Z</time>
      </trkpt>
      <trkpt lat="43.15719" lon="6.49491">
        <ele>205.8</ele>
        <time>2024-02-04T09:40:54Z</time>
      </trkpt>
      <trkpt lat="43.1572" lon="6.4949">
        <ele>205.9</ele>
        <time>2024-02-04T09:40:55Z</time>
      </trkpt>
      <trkpt lat="43.1572" lon="6.4949">
        <ele>205.9</ele>
        <time>2024-02-04T09:40:56Z</time>
      </trkpt>
      <trkpt lat="43.1572" lon="6.49489">
        <ele>206</ele>
        <time>2024-02-04T09:40:57Z</time>
      </trkpt>
      <trkpt lat="43.1572" lon="6.49489">
        <ele>206.1</ele>
        <time>2024-02-04T09:40:58Z</time>
      </trkpt>
      <trkpt lat="43.15721" lon="6.49488">
        <ele>206.2</ele>
        <time>2024-02-04T09:40:59Z</time>
      </trkpt>
      <trkpt lat="43.15721" lon="6.49487">
        <ele>206.3</ele>
        <time>2024-02-04T09:41:00Z</time>
      </trkpt>
      <trkpt lat="43.15722" lon="6.49487">
        <ele>206.4</ele>
        <time>2024-02-04T09:41:01Z</time>
      </trkpt>
      <trkpt lat="43.15722" lon="6.49485">
        <ele>206.4</ele>
        <time>2024-02-04T09:41:02Z</time>
      </trkpt>
      <trkpt lat="43.15723" lon="6.49484">
        <ele>206.5</ele>
        <time>2024-02-04T09:41:03Z</time>
      </trkpt>
      <trkpt lat="43.15724" lon="6.49482">
        <ele>206.7</ele>
        <time>2024-02-04T09:41:04Z</time>
      </trkpt>
      <trkpt lat="43.15724" lon="6.49481">
        <ele>206.9</ele>
        <time>2024-02-04T09:41:05Z</time>
      </trkpt>
      <trkpt lat="43.15725" lon="6.4948">
        <ele>207</ele>
        <time>2024-02-04T09:41:06Z</time>
      </trkpt>
      <trkpt lat="43.15726" lon="6.49478">
        <ele>207.1</ele>
        <time>2024-02-04T09:41:07Z</time>
      </trkpt>
      <trkpt lat="43.15726" lon="6.49477">
        <ele>207.3</ele>
        <time>2024-02-04T09:41:08Z</time>
      </trkpt>
      <trkpt lat="43.15726" lon="6.49475">
        <ele>207.4</ele>
        <time>2024-02-04T09:41:09Z</time>
      </trkpt>
      <trkpt lat="43.15726" lon="6.49474">
        <ele>207.5</ele>
        <time>2024-02-04T09:41:10Z</time>
      </trkpt>
      <trkpt lat="43.15726" lon="6.49472">
        <ele>207.6</ele>
        <time>2024-02-04T09:41:11Z</time>
      </trkpt>
      <trkpt lat="43.15727" lon="6.49471">
        <ele>207.8</ele>
        <time>2024-02-04T09:41:12Z</time>
      </trkpt>
      <trkpt lat="43.15727" lon="6.49469">
        <ele>207.9</ele>
        <time>2024-02-04T09:41:13Z</time>
      </trkpt>
      <trkpt lat="43.15727" lon="6.49468">
        <ele>208</ele>
        <time>2024-02-04T09:41:14Z</time>
      </trkpt>
      <trkpt lat="43.15727" lon="6.49466">
        <ele>208.2</ele>
        <time>2024-02-04T09:41:15Z</time>
      </trkpt>
      <trkpt lat="43.15727" lon="6.49465">
        <ele>208.3</ele>
        <time>2024-02-04T09:41:16Z</time>
      </trkpt>
      <trkpt lat="43.15727" lon="6.49464">
        <ele>208.4</ele>
        <time>2024-02-04T09:41:17Z</time>
      </trkpt>
      <trkpt lat="43.15728" lon="6.49462">
        <ele>208.7</ele>
        <time>2024-02-04T09:41:18Z</time>
      </trkpt>
      <trkpt lat="43.15728" lon="6.49461">
        <ele>208.9</ele>
        <time>2024-02-04T09:41:19Z</time>
      </trkpt>
      <trkpt lat="43.15729" lon="6.49459">
        <ele>209</ele>
        <time>2024-02-04T09:41:20Z</time>
      </trkpt>
      <trkpt lat="43.15729" lon="6.49458">
        <ele>209.2</ele>
        <time>2024-02-04T09:41:21Z</time>
      </trkpt>
      <trkpt lat="43.15729" lon="6.49456">
        <ele>209.3</ele>
        <time>2024-02-04T09:41:22Z</time>
      </trkpt>
      <trkpt lat="43.15729" lon="6.49455">
        <ele>209.5</ele>
        <time>2024-02-04T09:41:23Z</time>
      </trkpt>
      <trkpt lat="43.15729" lon="6.49453">
        <ele>209.6</ele>
        <time>2024-02-04T09:41:24Z</time>
      </trkpt>
      <trkpt lat="43.15729" lon="6.49452">
        <ele>209.8</ele>
        <time>2024-02-04T09:41:25Z</time>
      </trkpt>
      <trkpt lat="43.1573" lon="6.4945">
        <ele>209.9</ele>
        <time>2024-02-04T09:41:26Z</time>
      </trkpt>
      <trkpt lat="43.1573" lon="6.49448">
        <ele>210</ele>
        <time>2024-02-04T09:41:27Z</time>
      </trkpt>
      <trkpt lat="43.1573" lon="6.49447">
        <ele>210</ele>
        <time>2024-02-04T09:41:28Z</time>
      </trkpt>
      <trkpt lat="43.1573" lon="6.49445">
        <ele>210.1</ele>
        <time>2024-02-04T09:41:29Z</time>
      </trkpt>
      <trkpt lat="43.1573" lon="6.49444">
        <ele>210.2</ele>
        <time>2024-02-04T09:41:30Z</time>
      </trkpt>
      <trkpt lat="43.1573" lon="6.49442">
        <ele>210.2</ele>
        <time>2024-02-04T09:41:31Z</time>
      </trkpt>
      <trkpt lat="43.1573" lon="6.49441">
        <ele>210.3</ele>
        <time>2024-02-04T09:41:32Z</time>
      </trkpt>
      <trkpt lat="43.15731" lon="6.49439">
        <ele>210.4</ele>
        <time>2024-02-04T09:41:33Z</time>
      </trkpt>
      <trkpt lat="43.15731" lon="6.49438">
        <ele>210.5</ele>
        <time>2024-02-04T09:41:34Z</time>
      </trkpt>
      <trkpt lat="43.15731" lon="6.49436">
        <ele>210.6</ele>
        <time>2024-02-04T09:41:35Z</time>
      </trkpt>
      <trkpt lat="43.15731" lon="6.49434">
        <ele>210.7</ele>
        <time>2024-02-04T09:41:36Z</time>
      </trkpt>
      <trkpt lat="43.15732" lon="6.49433">
        <ele>210.7</ele>
        <time>2024-02-04T09:41:37Z</time>
      </trkpt>
      <trkpt lat="43.15732" lon="6.49431">
        <ele>210.6</ele>
        <time>2024-02-04T09:41:38Z</time>
      </trkpt>
      <trkpt lat="43.15733" lon="6.49429">
        <ele>210.6</ele>
        <time>2024-02-04T09:41:39Z</time>
      </trkpt>
      <trkpt lat="43.15733" lon="6.49428">
        <ele>210.6</ele>
        <time>2024-02-04T09:41:40Z</time>
      </trkpt>
      <trkpt lat="43.15733" lon="6.49426">
        <ele>210.7</ele>
        <time>2024-02-04T09:41:41Z</time>
      </trkpt>
      <trkpt lat="43.15733" lon="6.49425">
        <ele>210.7</ele>
        <time>2024-02-04T09:41:42Z</time>
      </trkpt>
      <trkpt lat="43.15733" lon="6.49424">
        <ele>210.7</ele>
        <time>2024-02-04T09:41:43Z</time>
      </trkpt>
      <trkpt lat="43.15733" lon="6.49422">
        <ele>210.7</ele>
        <time>2024-02-04T09:41:44Z</time>
      </trkpt>
      <trkpt lat="43.15733" lon="6.4942">
        <ele>210.7</ele>
        <time>2024-02-04T09:41:45Z</time>
      </trkpt>
      <trkpt lat="43.15733" lon="6.49419">
        <ele>210.7</ele>
        <time>2024-02-04T09:41:46Z</time>
      </trkpt>
      <trkpt lat="43.15733" lon="6.49417">
        <ele>210.8</ele>
        <time>2024-02-04T09:41:47Z</time>
      </trkpt>
      <trkpt lat="43.15733" lon="6.49415">
        <ele>210.9</ele>
        <time>2024-02-04T09:41:48Z</time>
      </trkpt>
      <trkpt lat="43.15734" lon="6.49414">
        <ele>211</ele>
        <time>2024-02-04T09:41:49Z</time>
      </trkpt>
      <trkpt lat="43.15734" lon="6.49412">
        <ele>211.1</ele>
        <time>2024-02-04T09:41:50Z</time>
      </trkpt>
      <trkpt lat="43.15734" lon="6.49411">
        <ele>211.2</ele>
        <time>2024-02-04T09:41:51Z</time>
      </trkpt>
      <trkpt lat="43.15733" lon="6.49409">
        <ele>211.1</ele>
        <time>2024-02-04T09:41:52Z</time>
      </trkpt>
      <trkpt lat="43.15733" lon="6.49408">
        <ele>211.1</ele>
        <time>2024-02-04T09:41:53Z</time>
      </trkpt>
      <trkpt lat="43.15733" lon="6.49406">
        <ele>211.2</ele>
        <time>2024-02-04T09:41:54Z</time>
      </trkpt>
      <trkpt lat="43.15733" lon="6.49405">
        <ele>211.1</ele>
        <time>2024-02-04T09:41:55Z</time>
      </trkpt>
      <trkpt lat="43.15732" lon="6.49403">
        <ele>211.1</ele>
        <time>2024-02-04T09:41:56Z</time>
      </trkpt>
      <trkpt lat="43.15732" lon="6.49402">
        <ele>211.1</ele>
        <time>2024-02-04T09:41:57Z</time>
      </trkpt>
      <trkpt lat="43.15732" lon="6.494">
        <ele>211.1</ele>
        <time>2024-02-04T09:41:58Z</time>
      </trkpt>
      <trkpt lat="43.15732" lon="6.49399">
        <ele>211.1</ele>
        <time>2024-02-04T09:41:59Z</time>
      </trkpt>
      <trkpt lat="43.15732" lon="6.49397">
        <ele>211.2</ele>
        <time>2024-02-04T09:42:00Z</time>
      </trkpt>
      <trkpt lat="43.15732" lon="6.49396">
        <ele>211.3</ele>
        <time>2024-02-04T09:42:01Z</time>
      </trkpt>
      <trkpt lat="43.15732" lon="6.49394">
        <ele>211.4</ele>
        <time>2024-02-04T09:42:02Z</time>
      </trkpt>
      <trkpt lat="43.15732" lon="6.49393">
        <ele>211.5</ele>
        <time>2024-02-04T09:42:03Z</time>
      </trkpt>
      <trkpt lat="43.15732" lon="6.49392">
        <ele>211.6</ele>
        <time>2024-02-04T09:42:04Z</time>
      </trkpt>
      <trkpt lat="43.15732" lon="6.49391">
        <ele>211.7</ele>
        <time>2024-02-04T09:42:05Z</time>
      </trkpt>
      <trkpt lat="43.15732" lon="6.4939">
        <ele>211.8</ele>
        <time>2024-02-04T09:42:06Z</time>
      </trkpt>
      <trkpt lat="43.15732" lon="6.49389">
        <ele>211.9</ele>
        <time>2024-02-04T09:42:07Z</time>
      </trkpt>
      <trkpt lat="43.15732" lon="6.49388">
        <ele>212.1</ele>
        <time>2024-02-04T09:42:08Z</time>
      </trkpt>
      <trkpt lat="43.15732" lon="6.49388">
        <ele>212.2</ele>
        <time>2024-02-04T09:42:09Z</time>
      </trkpt>
      <trkpt lat="43.15732" lon="6.49388">
        <ele>212.4</ele>
        <time>2024-02-04T09:42:10Z</time>
      </trkpt>
      <trkpt lat="43.15732" lon="6.49388">
        <ele>212.5</ele>
        <time>2024-02-04T09:42:11Z</time>
      </trkpt>
      <trkpt lat="43.15732" lon="6.49388">
        <ele>212.6</ele>
        <time>2024-02-04T09:42:12Z</time>
      </trkpt>
      <trkpt lat="43.15733" lon="6.49387">
        <ele>212.6</ele>
        <time>2024-02-04T09:42:13Z</time>
      </trkpt>
      <trkpt lat="43.15733" lon="6.49386">
        <ele>212.6</ele>
        <time>2024-02-04T09:42:14Z</time>
      </trkpt>
      <trkpt lat="43.15733" lon="6.49386">
        <ele>212.6</ele>
        <time>2024-02-04T09:42:15Z</time>
      </trkpt>
      <trkpt lat="43.15733" lon="6.49386">
        <ele>212.6</ele>
        <time>2024-02-04T09:42:16Z</time>
      </trkpt>
      <trkpt lat="43.15733" lon="6.49385">
        <ele>212.6</ele>
        <time>2024-02-04T09:42:17Z</time>
      </trkpt>
      <trkpt lat="43.15733" lon="6.49384">
        <ele>212.6</ele>
        <time>2024-02-04T09:42:18Z</time>
      </trkpt>
      <trkpt lat="43.15733" lon="6.49383">
        <ele>212.6</ele>
        <time>2024-02-04T09:42:19Z</time>
      </trkpt>
      <trkpt lat="43.15733" lon="6.49382">
        <ele>212.6</ele>
        <time>2024-02-04T09:42:20Z</time>
      </trkpt>
      <trkpt lat="43.15732" lon="6.49381">
        <ele>212.6</ele>
        <time>2024-02-04T09:42:21Z</time>
      </trkpt>
      <trkpt lat="43.15732" lon="6.4938">
        <ele>212.5</ele>
        <time>2024-02-04T09:42:22Z</time>
      </trkpt>
      <trkpt lat="43.15732" lon="6.49378">
        <ele>212.5</ele>
        <time>2024-02-04T09:42:23Z</time>
      </trkpt>
      <trkpt lat="43.15732" lon="6.49377">
        <ele>212.5</ele>
        <time>2024-02-04T09:42:24Z</time>
      </trkpt>
      <trkpt lat="43.15732" lon="6.49376">
        <ele>212.5</ele>
        <time>2024-02-04T09:42:25Z</time>
      </trkpt>
      <trkpt lat="43.15732" lon="6.49374">
        <ele>212.5</ele>
        <time>2024-02-04T09:42:26Z</time>
      </trkpt>
      <trkpt lat="43.15732" lon="6.49373">
        <ele>212.6</ele>
        <time>2024-02-04T09:42:27Z</time>
      </trkpt>
      <trkpt lat="43.15732" lon="6.49372">
        <ele>212.6</ele>
        <time>2024-02-04T09:42:28Z</time>
      </trkpt>
      <trkpt lat="43.15733" lon="6.49371">
        <ele>212.7</ele>
        <time>2024-02-04T09:42:29Z</time>
      </trkpt>
      <trkpt lat="43.15733" lon="6.49369">
        <ele>212.7</ele>
        <time>2024-02-04T09:42:30Z</time>
      </trkpt>
      <trkpt lat="43.15733" lon="6.49368">
        <ele>212.7</ele>
        <time>2024-02-04T09:42:31Z</time>
      </trkpt>
      <trkpt lat="43.15733" lon="6.49367">
        <ele>212.7</ele>
        <time>2024-02-04T09:42:32Z</time>
      </trkpt>
      <trkpt lat="43.15733" lon="6.49366">
        <ele>212.8</ele>
        <time>2024-02-04T09:42:33Z</time>
      </trkpt>
      <trkpt lat="43.15734" lon="6.49365">
        <ele>212.8</ele>
        <time>2024-02-04T09:42:34Z</time>
      </trkpt>
      <trkpt lat="43.15733" lon="6.49364">
        <ele>212.9</ele>
        <time>2024-02-04T09:42:35Z</time>
      </trkpt>
      <trkpt lat="43.15733" lon="6.49363">
        <ele>213</ele>
        <time>2024-02-04T09:42:36Z</time>
      </trkpt>
      <trkpt lat="43.15734" lon="6.49362">
        <ele>213</ele>
        <time>2024-02-04T09:42:37Z</time>
      </trkpt>
      <trkpt lat="43.15733" lon="6.49361">
        <ele>213.1</ele>
        <time>2024-02-04T09:42:38Z</time>
      </trkpt>
      <trkpt lat="43.15734" lon="6.4936">
        <ele>213.2</ele>
        <time>2024-02-04T09:42:39Z</time>
      </trkpt>
      <trkpt lat="43.15734" lon="6.49359">
        <ele>213.4</ele>
        <time>2024-02-04T09:42:40Z</time>
      </trkpt>
      <trkpt lat="43.15734" lon="6.49358">
        <ele>213.5</ele>
        <time>2024-02-04T09:42:41Z</time>
      </trkpt>
      <trkpt lat="43.15734" lon="6.49358">
        <ele>213.7</ele>
        <time>2024-02-04T09:42:42Z</time>
      </trkpt>
      <trkpt lat="43.15735" lon="6.49357">
        <ele>213.9</ele>
        <time>2024-02-04T09:42:43Z</time>
      </trkpt>
      <trkpt lat="43.15735" lon="6.49356">
        <ele>214.1</ele>
        <time>2024-02-04T09:42:44Z</time>
      </trkpt>
      <trkpt lat="43.15735" lon="6.49356">
        <ele>214.2</ele>
        <time>2024-02-04T09:42:45Z</time>
      </trkpt>
      <trkpt lat="43.15735" lon="6.49355">
        <ele>214.3</ele>
        <time>2024-02-04T09:42:46Z</time>
      </trkpt>
      <trkpt lat="43.15735" lon="6.49355">
        <ele>214.4</ele>
        <time>2024-02-04T09:42:47Z</time>
      </trkpt>
      <trkpt lat="43.15735" lon="6.49354">
        <ele>214.5</ele>
        <time>2024-02-04T09:42:48Z</time>
      </trkpt>
      <trkpt lat="43.15735" lon="6.49354">
        <ele>214.4</ele>
        <time>2024-02-04T09:42:49Z</time>
      </trkpt>
      <trkpt lat="43.15735" lon="6.49354">
        <ele>214.4</ele>
        <time>2024-02-04T09:42:50Z</time>
      </trkpt>
      <trkpt lat="43.15735" lon="6.49354">
        <ele>214.4</ele>
        <time>2024-02-04T09:42:51Z</time>
      </trkpt>
      <trkpt lat="43.15735" lon="6.49354">
        <ele>214.4</ele>
        <time>2024-02-04T09:42:52Z</time>
      </trkpt>
      <trkpt lat="43.15735" lon="6.49354">
        <ele>214.4</ele>
        <time>2024-02-04T09:42:53Z</time>
      </trkpt>
      <trkpt lat="43.15735" lon="6.49354">
        <ele>214.5</ele>
        <time>2024-02-04T09:42:54Z</time>
      </trkpt>
      <trkpt lat="43.15734" lon="6.49354">
        <ele>214.5</ele>
        <time>2024-02-04T09:42:55Z</time>
      </trkpt>
      <trkpt lat="43.15734" lon="6.49354">
        <ele>214.5</ele>
        <time>2024-02-04T09:42:56Z</time>
      </trkpt>
      <trkpt lat="43.15734" lon="6.49354">
        <ele>214.5</ele>
        <time>2024-02-04T09:42:57Z</time>
      </trkpt>
      <trkpt lat="43.15734" lon="6.49354">
        <ele>214.5</ele>
        <time>2024-02-04T09:42:58Z</time>
      </trkpt>
      <trkpt lat="43.15734" lon="6.49354">
        <ele>214.5</ele>
        <time>2024-02-04T09:42:59Z</time>
      </trkpt>
      <trkpt lat="43.15734" lon="6.49354">
        <ele>214.4</ele>
        <time>2024-02-04T09:43:00Z</time>
      </trkpt>
      <trkpt lat="43.15734" lon="6.49353">
        <ele>214.5</ele>
        <time>2024-02-04T09:43:01Z</time>
      </trkpt>
      <trkpt lat="43.15734" lon="6.49353">
        <ele>214.4</ele>
        <time>2024-02-04T09:43:02Z</time>
      </trkpt>
      <trkpt lat="43.15734" lon="6.49353">
        <ele>214.3</ele>
        <time>2024-02-04T09:43:03Z</time>
      </trkpt>
      <trkpt lat="43.15734" lon="6.49353">
        <ele>214.3</ele>
        <time>2024-02-04T09:43:04Z</time>
      </trkpt>
      <trkpt lat="43.15734" lon="6.49353">
        <ele>214.4</ele>
        <time>2024-02-04T09:43:05Z</time>
      </trkpt>
      <trkpt lat="43.15734" lon="6.49353">
        <ele>214.4</ele>
        <time>2024-02-04T09:43:06Z</time>
      </trkpt>
      <trkpt lat="43.15734" lon="6.49353">
        <ele>214.4</ele>
        <time>2024-02-04T09:43:07Z</time>
      </trkpt>
      <trkpt lat="43.15734" lon="6.49353">
        <ele>214.3</ele>
        <time>2024-02-04T09:43:08Z</time>
      </trkpt>
      <trkpt lat="43.15734" lon="6.49353">
        <ele>214.4</ele>
        <time>2024-02-04T09:43:09Z</time>
      </trkpt>
      <trkpt lat="43.15734" lon="6.49353">
        <ele>214.4</ele>
        <time>2024-02-04T09:43:10Z</time>
      </trkpt>
      <trkpt lat="43.15734" lon="6.49353">
        <ele>214.5</ele>
        <time>2024-02-04T09:43:11Z</time>
      </trkpt>
      <trkpt lat="43.15734" lon="6.49353">
        <ele>214.6</ele>
        <time>2024-02-04T09:43:12Z</time>
      </trkpt>
      <trkpt lat="43.15733" lon="6.49353">
        <ele>214.7</ele>
        <time>2024-02-04T09:43:13Z</time>
      </trkpt>
      <trkpt lat="43.15733" lon="6.49353">
        <ele>214.7</ele>
        <time>2024-02-04T09:43:14Z</time>
      </trkpt>
      <trkpt lat="43.15733" lon="6.49353">
        <ele>214.7</ele>
        <time>2024-02-04T09:43:15Z</time>
      </trkpt>
      <trkpt lat="43.15733" lon="6.49353">
        <ele>214.8</ele>
        <time>2024-02-04T09:43:16Z</time>
      </trkpt>
      <trkpt lat="43.15733" lon="6.49353">
        <ele>214.8</ele>
        <time>2024-02-04T09:43:17Z</time>
      </trkpt>
      <trkpt lat="43.15733" lon="6.49353">
        <ele>214.8</ele>
        <time>2024-02-04T09:43:18Z</time>
      </trkpt>
      <trkpt lat="43.15733" lon="6.49353">
        <ele>214.8</ele>
        <time>2024-02-04T09:43:19Z</time>
      </trkpt>
      <trkpt lat="43.15733" lon="6.49352">
        <ele>214.7</ele>
        <time>2024-02-04T09:43:20Z</time>
      </trkpt>
      <trkpt lat="43.15733" lon="6.49352">
        <ele>214.6</ele>
        <time>2024-02-04T09:43:21Z</time>
      </trkpt>
      <trkpt lat="43.15734" lon="6.49351">
        <ele>214.7</ele>
        <time>2024-02-04T09:43:22Z</time>
      </trkpt>
      <trkpt lat="43.15734" lon="6.49349">
        <ele>214.7</ele>
        <time>2024-02-04T09:43:23Z</time>
      </trkpt>
      <trkpt lat="43.15735" lon="6.49349">
        <ele>214.8</ele>
        <time>2024-02-04T09:43:24Z</time>
      </trkpt>
      <trkpt lat="43.15735" lon="6.49348">
        <ele>214.7</ele>
        <time>2024-02-04T09:43:25Z</time>
      </trkpt>
      <trkpt lat="43.15736" lon="6.49347">
        <ele>214.7</ele>
        <time>2024-02-04T09:43:26Z</time>
      </trkpt>
      <trkpt lat="43.15736" lon="6.49346">
        <ele>214.7</ele>
        <time>2024-02-04T09:43:27Z</time>
      </trkpt>
      <trkpt lat="43.15736" lon="6.49345">
        <ele>214.8</ele>
        <time>2024-02-04T09:43:28Z</time>
      </trkpt>
      <trkpt lat="43.15736" lon="6.49343">
        <ele>214.9</ele>
        <time>2024-02-04T09:43:29Z</time>
      </trkpt>
      <trkpt lat="43.15736" lon="6.49342">
        <ele>214.9</ele>
        <time>2024-02-04T09:43:30Z</time>
      </trkpt>
      <trkpt lat="43.15736" lon="6.49342">
        <ele>214.9</ele>
        <time>2024-02-04T09:43:31Z</time>
      </trkpt>
      <trkpt lat="43.15736" lon="6.49341">
        <ele>215</ele>
        <time>2024-02-04T09:43:32Z</time>
      </trkpt>
      <trkpt lat="43.15737" lon="6.4934">
        <ele>215.1</ele>
        <time>2024-02-04T09:43:33Z</time>
      </trkpt>
      <trkpt lat="43.15737" lon="6.49338">
        <ele>215.2</ele>
        <time>2024-02-04T09:43:34Z</time>
      </trkpt>
      <trkpt lat="43.15738" lon="6.49337">
        <ele>215.3</ele>
        <time>2024-02-04T09:43:35Z</time>
      </trkpt>
      <trkpt lat="43.15738" lon="6.49337">
        <ele>215.4</ele>
        <time>2024-02-04T09:43:36Z</time>
      </trkpt>
      <trkpt lat="43.15738" lon="6.49337">
        <ele>215.5</ele>
        <time>2024-02-04T09:43:37Z</time>
      </trkpt>
      <trkpt lat="43.15738" lon="6.49337">
        <ele>215.6</ele>
        <time>2024-02-04T09:43:38Z</time>
      </trkpt>
      <trkpt lat="43.15738" lon="6.49337">
        <ele>215.7</ele>
        <time>2024-02-04T09:43:39Z</time>
      </trkpt>
      <trkpt lat="43.15738" lon="6.49337">
        <ele>215.7</ele>
        <time>2024-02-04T09:43:40Z</time>
      </trkpt>
      <trkpt lat="43.15739" lon="6.49337">
        <ele>215.8</ele>
        <time>2024-02-04T09:43:41Z</time>
      </trkpt>
      <trkpt lat="43.15739" lon="6.49337">
        <ele>215.8</ele>
        <time>2024-02-04T09:43:42Z</time>
      </trkpt>
      <trkpt lat="43.15739" lon="6.49336">
        <ele>215.9</ele>
        <time>2024-02-04T09:43:43Z</time>
      </trkpt>
      <trkpt lat="43.15739" lon="6.49336">
        <ele>215.9</ele>
        <time>2024-02-04T09:43:44Z</time>
      </trkpt>
      <trkpt lat="43.15739" lon="6.49335">
        <ele>215.8</ele>
        <time>2024-02-04T09:43:45Z</time>
      </trkpt>
      <trkpt lat="43.15739" lon="6.49334">
        <ele>215.9</ele>
        <time>2024-02-04T09:43:46Z</time>
      </trkpt>
      <trkpt lat="43.15739" lon="6.49333">
        <ele>215.9</ele>
        <time>2024-02-04T09:43:47Z</time>
      </trkpt>
      <trkpt lat="43.15739" lon="6.49332">
        <ele>215.9</ele>
        <time>2024-02-04T09:43:48Z</time>
      </trkpt>
      <trkpt lat="43.15739" lon="6.49331">
        <ele>215.9</ele>
        <time>2024-02-04T09:43:49Z</time>
      </trkpt>
      <trkpt lat="43.15739" lon="6.4933">
        <ele>216</ele>
        <time>2024-02-04T09:43:50Z</time>
      </trkpt>
      <trkpt lat="43.1574" lon="6.4933">
        <ele>216</ele>
        <time>2024-02-04T09:43:51Z</time>
      </trkpt>
      <trkpt lat="43.1574" lon="6.49329">
        <ele>216.1</ele>
        <time>2024-02-04T09:43:52Z</time>
      </trkpt>
      <trkpt lat="43.1574" lon="6.49328">
        <ele>216.1</ele>
        <time>2024-02-04T09:43:53Z</time>
      </trkpt>
      <trkpt lat="43.1574" lon="6.49327">
        <ele>216.2</ele>
        <time>2024-02-04T09:43:54Z</time>
      </trkpt>
      <trkpt lat="43.1574" lon="6.49326">
        <ele>216.2</ele>
        <time>2024-02-04T09:43:55Z</time>
      </trkpt>
      <trkpt lat="43.1574" lon="6.49325">
        <ele>216.3</ele>
        <time>2024-02-04T09:43:56Z</time>
      </trkpt>
      <trkpt lat="43.1574" lon="6.49324">
        <ele>216.3</ele>
        <time>2024-02-04T09:43:57Z</time>
      </trkpt>
      <trkpt lat="43.1574" lon="6.49323">
        <ele>216.4</ele>
        <time>2024-02-04T09:43:58Z</time>
      </trkpt>
      <trkpt lat="43.1574" lon="6.49323">
        <ele>216.3</ele>
        <time>2024-02-04T09:43:59Z</time>
      </trkpt>
      <trkpt lat="43.15741" lon="6.49322">
        <ele>216.4</ele>
        <time>2024-02-04T09:44:00Z</time>
      </trkpt>
      <trkpt lat="43.15741" lon="6.49321">
        <ele>216.5</ele>
        <time>2024-02-04T09:44:01Z</time>
      </trkpt>
      <trkpt lat="43.15741" lon="6.4932">
        <ele>216.5</ele>
        <time>2024-02-04T09:44:02Z</time>
      </trkpt>
      <trkpt lat="43.15741" lon="6.49319">
        <ele>216.6</ele>
        <time>2024-02-04T09:44:03Z</time>
      </trkpt>
      <trkpt lat="43.15741" lon="6.49319">
        <ele>216.5</ele>
        <time>2024-02-04T09:44:04Z</time>
      </trkpt>
      <trkpt lat="43.15741" lon="6.49318">
        <ele>216.5</ele>
        <time>2024-02-04T09:44:05Z</time>
      </trkpt>
      <trkpt lat="43.15741" lon="6.49317">
        <ele>216.5</ele>
        <time>2024-02-04T09:44:06Z</time>
      </trkpt>
      <trkpt lat="43.15741" lon="6.49317">
        <ele>216.5</ele>
        <time>2024-02-04T09:44:07Z</time>
      </trkpt>
      <trkpt lat="43.15741" lon="6.49316">
        <ele>216.6</ele>
        <time>2024-02-04T09:44:08Z</time>
      </trkpt>
      <trkpt lat="43.15741" lon="6.49315">
        <ele>216.6</ele>
        <time>2024-02-04T09:44:09Z</time>
      </trkpt>
      <trkpt lat="43.15741" lon="6.49314">
        <ele>216.7</ele>
        <time>2024-02-04T09:44:10Z</time>
      </trkpt>
      <trkpt lat="43.15741" lon="6.49313">
        <ele>216.8</ele>
        <time>2024-02-04T09:44:11Z</time>
      </trkpt>
      <trkpt lat="43.15742" lon="6.49312">
        <ele>216.9</ele>
        <time>2024-02-04T09:44:12Z</time>
      </trkpt>
      <trkpt lat="43.15742" lon="6.49311">
        <ele>217</ele>
        <time>2024-02-04T09:44:13Z</time>
      </trkpt>
      <trkpt lat="43.15742" lon="6.4931">
        <ele>217</ele>
        <time>2024-02-04T09:44:14Z</time>
      </trkpt>
      <trkpt lat="43.15742" lon="6.49309">
        <ele>217.1</ele>
        <time>2024-02-04T09:44:15Z</time>
      </trkpt>
      <trkpt lat="43.15742" lon="6.49308">
        <ele>217.1</ele>
        <time>2024-02-04T09:44:16Z</time>
      </trkpt>
      <trkpt lat="43.15742" lon="6.49307">
        <ele>217.2</ele>
        <time>2024-02-04T09:44:17Z</time>
      </trkpt>
      <trkpt lat="43.15742" lon="6.49306">
        <ele>217.4</ele>
        <time>2024-02-04T09:44:18Z</time>
      </trkpt>
      <trkpt lat="43.15742" lon="6.49306">
        <ele>217.5</ele>
        <time>2024-02-04T09:44:19Z</time>
      </trkpt>
      <trkpt lat="43.15742" lon="6.49305">
        <ele>217.6</ele>
        <time>2024-02-04T09:44:20Z</time>
      </trkpt>
      <trkpt lat="43.15742" lon="6.49304">
        <ele>217.7</ele>
        <time>2024-02-04T09:44:21Z</time>
      </trkpt>
      <trkpt lat="43.15742" lon="6.49302">
        <ele>217.8</ele>
        <time>2024-02-04T09:44:22Z</time>
      </trkpt>
      <trkpt lat="43.15742" lon="6.49301">
        <ele>217.9</ele>
        <time>2024-02-04T09:44:23Z</time>
      </trkpt>
      <trkpt lat="43.15742" lon="6.493">
        <ele>217.9</ele>
        <time>2024-02-04T09:44:24Z</time>
      </trkpt>
      <trkpt lat="43.15742" lon="6.49299">
        <ele>218</ele>
        <time>2024-02-04T09:44:25Z</time>
      </trkpt>
      <trkpt lat="43.15743" lon="6.49298">
        <ele>218.1</ele>
        <time>2024-02-04T09:44:26Z</time>
      </trkpt>
      <trkpt lat="43.15743" lon="6.49297">
        <ele>218.2</ele>
        <time>2024-02-04T09:44:27Z</time>
      </trkpt>
      <trkpt lat="43.15743" lon="6.49296">
        <ele>218.2</ele>
        <time>2024-02-04T09:44:28Z</time>
      </trkpt>
      <trkpt lat="43.15743" lon="6.49295">
        <ele>218.3</ele>
        <time>2024-02-04T09:44:29Z</time>
      </trkpt>
      <trkpt lat="43.15743" lon="6.49294">
        <ele>218.4</ele>
        <time>2024-02-04T09:44:30Z</time>
      </trkpt>
      <trkpt lat="43.15743" lon="6.49293">
        <ele>218.5</ele>
        <time>2024-02-04T09:44:31Z</time>
      </trkpt>
      <trkpt lat="43.15744" lon="6.49292">
        <ele>218.7</ele>
        <time>2024-02-04T09:44:32Z</time>
      </trkpt>
      <trkpt lat="43.15744" lon="6.49291">
        <ele>218.8</ele>
        <time>2024-02-04T09:44:33Z</time>
      </trkpt>
      <trkpt lat="43.15745" lon="6.4929">
        <ele>218.9</ele>
        <time>2024-02-04T09:44:34Z</time>
      </trkpt>
      <trkpt lat="43.15745" lon="6.49289">
        <ele>219.1</ele>
        <time>2024-02-04T09:44:35Z</time>
      </trkpt>
      <trkpt lat="43.15745" lon="6.49289">
        <ele>219.2</ele>
        <time>2024-02-04T09:44:36Z</time>
      </trkpt>
      <trkpt lat="43.15745" lon="6.49287">
        <ele>219.3</ele>
        <time>2024-02-04T09:44:37Z</time>
      </trkpt>
      <trkpt lat="43.15746" lon="6.49286">
        <ele>219.5</ele>
        <time>2024-02-04T09:44:38Z</time>
      </trkpt>
      <trkpt lat="43.15746" lon="6.49285">
        <ele>219.7</ele>
        <time>2024-02-04T09:44:39Z</time>
      </trkpt>
      <trkpt lat="43.15746" lon="6.49283">
        <ele>219.9</ele>
        <time>2024-02-04T09:44:40Z</time>
      </trkpt>
      <trkpt lat="43.15747" lon="6.49282">
        <ele>219.9</ele>
        <time>2024-02-04T09:44:41Z</time>
      </trkpt>
      <trkpt lat="43.15747" lon="6.4928">
        <ele>220</ele>
        <time>2024-02-04T09:44:42Z</time>
      </trkpt>
      <trkpt lat="43.15748" lon="6.49279">
        <ele>220.1</ele>
        <time>2024-02-04T09:44:43Z</time>
      </trkpt>
      <trkpt lat="43.15748" lon="6.49276">
        <ele>220.2</ele>
        <time>2024-02-04T09:44:44Z</time>
      </trkpt>
      <trkpt lat="43.15749" lon="6.49274">
        <ele>220.3</ele>
        <time>2024-02-04T09:44:45Z</time>
      </trkpt>
      <trkpt lat="43.15749" lon="6.49273">
        <ele>220.4</ele>
        <time>2024-02-04T09:44:46Z</time>
      </trkpt>
      <trkpt lat="43.1575" lon="6.49272">
        <ele>220.5</ele>
        <time>2024-02-04T09:44:47Z</time>
      </trkpt>
      <trkpt lat="43.1575" lon="6.49271">
        <ele>220.6</ele>
        <time>2024-02-04T09:44:48Z</time>
      </trkpt>
      <trkpt lat="43.1575" lon="6.4927">
        <ele>220.7</ele>
        <time>2024-02-04T09:44:49Z</time>
      </trkpt>
      <trkpt lat="43.15751" lon="6.49269">
        <ele>220.7</ele>
        <time>2024-02-04T09:44:50Z</time>
      </trkpt>
      <trkpt lat="43.15751" lon="6.49268">
        <ele>220.8</ele>
        <time>2024-02-04T09:44:51Z</time>
      </trkpt>
      <trkpt lat="43.15752" lon="6.49266">
        <ele>220.8</ele>
        <time>2024-02-04T09:44:52Z</time>
      </trkpt>
      <trkpt lat="43.15752" lon="6.49265">
        <ele>220.9</ele>
        <time>2024-02-04T09:44:53Z</time>
      </trkpt>
      <trkpt lat="43.15753" lon="6.49264">
        <ele>221</ele>
        <time>2024-02-04T09:44:54Z</time>
      </trkpt>
      <trkpt lat="43.15753" lon="6.49263">
        <ele>221.1</ele>
        <time>2024-02-04T09:44:55Z</time>
      </trkpt>
      <trkpt lat="43.15753" lon="6.49262">
        <ele>221.3</ele>
        <time>2024-02-04T09:44:56Z</time>
      </trkpt>
      <trkpt lat="43.15754" lon="6.49261">
        <ele>221.4</ele>
        <time>2024-02-04T09:44:57Z</time>
      </trkpt>
      <trkpt lat="43.15754" lon="6.4926">
        <ele>221.6</ele>
        <time>2024-02-04T09:44:58Z</time>
      </trkpt>
      <trkpt lat="43.15754" lon="6.49259">
        <ele>221.7</ele>
        <time>2024-02-04T09:44:59Z</time>
      </trkpt>
      <trkpt lat="43.15755" lon="6.49258">
        <ele>221.9</ele>
        <time>2024-02-04T09:45:00Z</time>
      </trkpt>
      <trkpt lat="43.15755" lon="6.49257">
        <ele>222.1</ele>
        <time>2024-02-04T09:45:01Z</time>
      </trkpt>
      <trkpt lat="43.15755" lon="6.49256">
        <ele>222.2</ele>
        <time>2024-02-04T09:45:02Z</time>
      </trkpt>
      <trkpt lat="43.15756" lon="6.49255">
        <ele>222.3</ele>
        <time>2024-02-04T09:45:03Z</time>
      </trkpt>
      <trkpt lat="43.15756" lon="6.49255">
        <ele>222.4</ele>
        <time>2024-02-04T09:45:04Z</time>
      </trkpt>
      <trkpt lat="43.15757" lon="6.49254">
        <ele>222.6</ele>
        <time>2024-02-04T09:45:05Z</time>
      </trkpt>
      <trkpt lat="43.15757" lon="6.49254">
        <ele>222.7</ele>
        <time>2024-02-04T09:45:06Z</time>
      </trkpt>
      <trkpt lat="43.15757" lon="6.49253">
        <ele>222.9</ele>
        <time>2024-02-04T09:45:07Z</time>
      </trkpt>
      <trkpt lat="43.15758" lon="6.49252">
        <ele>223</ele>
        <time>2024-02-04T09:45:08Z</time>
      </trkpt>
      <trkpt lat="43.15758" lon="6.49251">
        <ele>223.3</ele>
        <time>2024-02-04T09:45:09Z</time>
      </trkpt>
      <trkpt lat="43.15758" lon="6.49251">
        <ele>223.4</ele>
        <time>2024-02-04T09:45:10Z</time>
      </trkpt>
      <trkpt lat="43.15759" lon="6.4925">
        <ele>223.5</ele>
        <time>2024-02-04T09:45:11Z</time>
      </trkpt>
      <trkpt lat="43.15759" lon="6.49249">
        <ele>223.7</ele>
        <time>2024-02-04T09:45:12Z</time>
      </trkpt>
      <trkpt lat="43.1576" lon="6.49248">
        <ele>223.8</ele>
        <time>2024-02-04T09:45:13Z</time>
      </trkpt>
      <trkpt lat="43.1576" lon="6.49246">
        <ele>223.9</ele>
        <time>2024-02-04T09:45:14Z</time>
      </trkpt>
      <trkpt lat="43.15761" lon="6.49245">
        <ele>224</ele>
        <time>2024-02-04T09:45:15Z</time>
      </trkpt>
      <trkpt lat="43.15761" lon="6.49245">
        <ele>224.1</ele>
        <time>2024-02-04T09:45:16Z</time>
      </trkpt>
      <trkpt lat="43.15762" lon="6.49244">
        <ele>224.2</ele>
        <time>2024-02-04T09:45:17Z</time>
      </trkpt>
      <trkpt lat="43.15762" lon="6.49243">
        <ele>224.3</ele>
        <time>2024-02-04T09:45:18Z</time>
      </trkpt>
      <trkpt lat="43.15763" lon="6.49242">
        <ele>224.3</ele>
        <time>2024-02-04T09:45:19Z</time>
      </trkpt>
      <trkpt lat="43.15763" lon="6.49241">
        <ele>224.4</ele>
        <time>2024-02-04T09:45:20Z</time>
      </trkpt>
      <trkpt lat="43.15763" lon="6.4924">
        <ele>224.6</ele>
        <time>2024-02-04T09:45:21Z</time>
      </trkpt>
      <trkpt lat="43.15764" lon="6.49239">
        <ele>224.8</ele>
        <time>2024-02-04T09:45:22Z</time>
      </trkpt>
      <trkpt lat="43.15764" lon="6.49239">
        <ele>224.9</ele>
        <time>2024-02-04T09:45:23Z</time>
      </trkpt>
      <trkpt lat="43.15765" lon="6.49238">
        <ele>225.2</ele>
        <time>2024-02-04T09:45:24Z</time>
      </trkpt>
      <trkpt lat="43.15765" lon="6.49237">
        <ele>225.3</ele>
        <time>2024-02-04T09:45:25Z</time>
      </trkpt>
      <trkpt lat="43.15766" lon="6.49236">
        <ele>225.4</ele>
        <time>2024-02-04T09:45:26Z</time>
      </trkpt>
      <trkpt lat="43.15766" lon="6.49236">
        <ele>225.5</ele>
        <time>2024-02-04T09:45:27Z</time>
      </trkpt>
      <trkpt lat="43.15767" lon="6.49235">
        <ele>225.6</ele>
        <time>2024-02-04T09:45:28Z</time>
      </trkpt>
      <trkpt lat="43.15767" lon="6.49234">
        <ele>225.6</ele>
        <time>2024-02-04T09:45:29Z</time>
      </trkpt>
      <trkpt lat="43.15768" lon="6.49233">
        <ele>225.8</ele>
        <time>2024-02-04T09:45:30Z</time>
      </trkpt>
      <trkpt lat="43.15768" lon="6.49233">
        <ele>225.9</ele>
        <time>2024-02-04T09:45:31Z</time>
      </trkpt>
      <trkpt lat="43.15769" lon="6.49232">
        <ele>226.1</ele>
        <time>2024-02-04T09:45:32Z</time>
      </trkpt>
      <trkpt lat="43.1577" lon="6.49231">
        <ele>226.3</ele>
        <time>2024-02-04T09:45:33Z</time>
      </trkpt>
      <trkpt lat="43.1577" lon="6.4923">
        <ele>226.3</ele>
        <time>2024-02-04T09:45:34Z</time>
      </trkpt>
      <trkpt lat="43.1577" lon="6.49229">
        <ele>226.4</ele>
        <time>2024-02-04T09:45:35Z</time>
      </trkpt>
      <trkpt lat="43.15771" lon="6.49228">
        <ele>226.5</ele>
        <time>2024-02-04T09:45:36Z</time>
      </trkpt>
      <trkpt lat="43.15772" lon="6.49227">
        <ele>226.6</ele>
        <time>2024-02-04T09:45:37Z</time>
      </trkpt>
      <trkpt lat="43.15772" lon="6.49227">
        <ele>226.7</ele>
        <time>2024-02-04T09:45:38Z</time>
      </trkpt>
      <trkpt lat="43.15773" lon="6.49226">
        <ele>226.8</ele>
        <time>2024-02-04T09:45:39Z</time>
      </trkpt>
      <trkpt lat="43.15773" lon="6.49226">
        <ele>226.9</ele>
        <time>2024-02-04T09:45:40Z</time>
      </trkpt>
      <trkpt lat="43.15773" lon="6.49226">
        <ele>226.9</ele>
        <time>2024-02-04T09:45:41Z</time>
      </trkpt>
      <trkpt lat="43.15773" lon="6.49224">
        <ele>226.9</ele>
        <time>2024-02-04T09:45:42Z</time>
      </trkpt>
      <trkpt lat="43.15774" lon="6.49224">
        <ele>227</ele>
        <time>2024-02-04T09:45:43Z</time>
      </trkpt>
      <trkpt lat="43.15775" lon="6.49223">
        <ele>227.1</ele>
        <time>2024-02-04T09:45:44Z</time>
      </trkpt>
      <trkpt lat="43.15775" lon="6.49222">
        <ele>227.2</ele>
        <time>2024-02-04T09:45:45Z</time>
      </trkpt>
      <trkpt lat="43.15776" lon="6.49221">
        <ele>227.2</ele>
        <time>2024-02-04T09:45:46Z</time>
      </trkpt>
      <trkpt lat="43.15776" lon="6.49221">
        <ele>227.3</ele>
        <time>2024-02-04T09:45:47Z</time>
      </trkpt>
      <trkpt lat="43.15777" lon="6.4922">
        <ele>227.4</ele>
        <time>2024-02-04T09:45:48Z</time>
      </trkpt>
      <trkpt lat="43.15777" lon="6.49219">
        <ele>227.4</ele>
        <time>2024-02-04T09:45:49Z</time>
      </trkpt>
      <trkpt lat="43.15778" lon="6.49219">
        <ele>227.4</ele>
        <time>2024-02-04T09:45:50Z</time>
      </trkpt>
      <trkpt lat="43.15778" lon="6.49218">
        <ele>227.6</ele>
        <time>2024-02-04T09:45:51Z</time>
      </trkpt>
      <trkpt lat="43.15779" lon="6.49218">
        <ele>227.8</ele>
        <time>2024-02-04T09:45:52Z</time>
      </trkpt>
      <trkpt lat="43.15779" lon="6.49217">
        <ele>228</ele>
        <time>2024-02-04T09:45:53Z</time>
      </trkpt>
      <trkpt lat="43.1578" lon="6.49216">
        <ele>228.2</ele>
        <time>2024-02-04T09:45:54Z</time>
      </trkpt>
      <trkpt lat="43.1578" lon="6.49215">
        <ele>228.3</ele>
        <time>2024-02-04T09:45:55Z</time>
      </trkpt>
      <trkpt lat="43.15781" lon="6.49214">
        <ele>228.5</ele>
        <time>2024-02-04T09:45:56Z</time>
      </trkpt>
      <trkpt lat="43.15782" lon="6.49213">
        <ele>228.6</ele>
        <time>2024-02-04T09:45:57Z</time>
      </trkpt>
      <trkpt lat="43.15783" lon="6.49212">
        <ele>228.8</ele>
        <time>2024-02-04T09:45:58Z</time>
      </trkpt>
      <trkpt lat="43.15783" lon="6.49211">
        <ele>228.9</ele>
        <time>2024-02-04T09:45:59Z</time>
      </trkpt>
      <trkpt lat="43.15783" lon="6.4921">
        <ele>229</ele>
        <time>2024-02-04T09:46:00Z</time>
      </trkpt>
      <trkpt lat="43.15784" lon="6.49209">
        <ele>229.1</ele>
        <time>2024-02-04T09:46:01Z</time>
      </trkpt>
      <trkpt lat="43.15784" lon="6.49208">
        <ele>229.2</ele>
        <time>2024-02-04T09:46:02Z</time>
      </trkpt>
      <trkpt lat="43.15785" lon="6.49207">
        <ele>229.3</ele>
        <time>2024-02-04T09:46:03Z</time>
      </trkpt>
      <trkpt lat="43.15786" lon="6.49207">
        <ele>229.4</ele>
        <time>2024-02-04T09:46:04Z</time>
      </trkpt>
      <trkpt lat="43.15786" lon="6.49206">
        <ele>229.5</ele>
        <time>2024-02-04T09:46:05Z</time>
      </trkpt>
      <trkpt lat="43.15787" lon="6.49205">
        <ele>229.6</ele>
        <time>2024-02-04T09:46:06Z</time>
      </trkpt>
      <trkpt lat="43.15787" lon="6.49204">
        <ele>229.7</ele>
        <time>2024-02-04T09:46:07Z</time>
      </trkpt>
      <trkpt lat="43.15787" lon="6.49204">
        <ele>229.8</ele>
        <time>2024-02-04T09:46:08Z</time>
      </trkpt>
      <trkpt lat="43.15788" lon="6.49203">
        <ele>229.8</ele>
        <time>2024-02-04T09:46:09Z</time>
      </trkpt>
      <trkpt lat="43.15788" lon="6.49202">
        <ele>230</ele>
        <time>2024-02-04T09:46:10Z</time>
      </trkpt>
      <trkpt lat="43.15789" lon="6.49201">
        <ele>230.1</ele>
        <time>2024-02-04T09:46:11Z</time>
      </trkpt>
      <trkpt lat="43.15789" lon="6.49201">
        <ele>230.2</ele>
        <time>2024-02-04T09:46:12Z</time>
      </trkpt>
      <trkpt lat="43.1579" lon="6.492">
        <ele>230.3</ele>
        <time>2024-02-04T09:46:13Z</time>
      </trkpt>
      <trkpt lat="43.1579" lon="6.49199">
        <ele>230.4</ele>
        <time>2024-02-04T09:46:14Z</time>
      </trkpt>
      <trkpt lat="43.15791" lon="6.49198">
        <ele>230.5</ele>
        <time>2024-02-04T09:46:15Z</time>
      </trkpt>
      <trkpt lat="43.15791" lon="6.49197">
        <ele>230.6</ele>
        <time>2024-02-04T09:46:16Z</time>
      </trkpt>
      <trkpt lat="43.15792" lon="6.49196">
        <ele>230.7</ele>
        <time>2024-02-04T09:46:17Z</time>
      </trkpt>
      <trkpt lat="43.15792" lon="6.49196">
        <ele>230.9</ele>
        <time>2024-02-04T09:46:18Z</time>
      </trkpt>
      <trkpt lat="43.15793" lon="6.49196">
        <ele>231</ele>
        <time>2024-02-04T09:46:19Z</time>
      </trkpt>
      <trkpt lat="43.15794" lon="6.49195">
        <ele>231.1</ele>
        <time>2024-02-04T09:46:20Z</time>
      </trkpt>
      <trkpt lat="43.15794" lon="6.49194">
        <ele>231.2</ele>
        <time>2024-02-04T09:46:21Z</time>
      </trkpt>
      <trkpt lat="43.15795" lon="6.49194">
        <ele>231.3</ele>
        <time>2024-02-04T09:46:22Z</time>
      </trkpt>
      <trkpt lat="43.15795" lon="6.49193">
        <ele>231.4</ele>
        <time>2024-02-04T09:46:23Z</time>
      </trkpt>
      <trkpt lat="43.15795" lon="6.49192">
        <ele>231.6</ele>
        <time>2024-02-04T09:46:24Z</time>
      </trkpt>
      <trkpt lat="43.15795" lon="6.49191">
        <ele>231.8</ele>
        <time>2024-02-04T09:46:25Z</time>
      </trkpt>
      <trkpt lat="43.15796" lon="6.4919">
        <ele>232.1</ele>
        <time>2024-02-04T09:46:26Z</time>
      </trkpt>
      <trkpt lat="43.15796" lon="6.4919">
        <ele>232.2</ele>
        <time>2024-02-04T09:46:27Z</time>
      </trkpt>
      <trkpt lat="43.15797" lon="6.49189">
        <ele>232.3</ele>
        <time>2024-02-04T09:46:28Z</time>
      </trkpt>
      <trkpt lat="43.15798" lon="6.49188">
        <ele>232.6</ele>
        <time>2024-02-04T09:46:29Z</time>
      </trkpt>
      <trkpt lat="43.15798" lon="6.49187">
        <ele>232.7</ele>
        <time>2024-02-04T09:46:30Z</time>
      </trkpt>
      <trkpt lat="43.15799" lon="6.49186">
        <ele>232.8</ele>
        <time>2024-02-04T09:46:31Z</time>
      </trkpt>
      <trkpt lat="43.15799" lon="6.49186">
        <ele>232.9</ele>
        <time>2024-02-04T09:46:32Z</time>
      </trkpt>
      <trkpt lat="43.15799" lon="6.49185">
        <ele>233</ele>
        <time>2024-02-04T09:46:33Z</time>
      </trkpt>
      <trkpt lat="43.158" lon="6.49185">
        <ele>233.2</ele>
        <time>2024-02-04T09:46:34Z</time>
      </trkpt>
      <trkpt lat="43.158" lon="6.49184">
        <ele>233.3</ele>
        <time>2024-02-04T09:46:35Z</time>
      </trkpt>
      <trkpt lat="43.15801" lon="6.49183">
        <ele>233.4</ele>
        <time>2024-02-04T09:46:36Z</time>
      </trkpt>
      <trkpt lat="43.15801" lon="6.49182">
        <ele>233.6</ele>
        <time>2024-02-04T09:46:37Z</time>
      </trkpt>
      <trkpt lat="43.15802" lon="6.4918">
        <ele>233.7</ele>
        <time>2024-02-04T09:46:38Z</time>
      </trkpt>
      <trkpt lat="43.15802" lon="6.49179">
        <ele>233.9</ele>
        <time>2024-02-04T09:46:39Z</time>
      </trkpt>
      <trkpt lat="43.15802" lon="6.49179">
        <ele>234.1</ele>
        <time>2024-02-04T09:46:40Z</time>
      </trkpt>
      <trkpt lat="43.15803" lon="6.49178">
        <ele>234.3</ele>
        <time>2024-02-04T09:46:41Z</time>
      </trkpt>
      <trkpt lat="43.15804" lon="6.49177">
        <ele>234.4</ele>
        <time>2024-02-04T09:46:42Z</time>
      </trkpt>
      <trkpt lat="43.15804" lon="6.49176">
        <ele>234.5</ele>
        <time>2024-02-04T09:46:43Z</time>
      </trkpt>
      <trkpt lat="43.15805" lon="6.49175">
        <ele>234.7</ele>
        <time>2024-02-04T09:46:44Z</time>
      </trkpt>
      <trkpt lat="43.15805" lon="6.49174">
        <ele>234.9</ele>
        <time>2024-02-04T09:46:45Z</time>
      </trkpt>
      <trkpt lat="43.15806" lon="6.49173">
        <ele>235.1</ele>
        <time>2024-02-04T09:46:46Z</time>
      </trkpt>
      <trkpt lat="43.15806" lon="6.49173">
        <ele>235.2</ele>
        <time>2024-02-04T09:46:47Z</time>
      </trkpt>
      <trkpt lat="43.15807" lon="6.49172">
        <ele>235.3</ele>
        <time>2024-02-04T09:46:48Z</time>
      </trkpt>
      <trkpt lat="43.15807" lon="6.49172">
        <ele>235.4</ele>
        <time>2024-02-04T09:46:49Z</time>
      </trkpt>
      <trkpt lat="43.15807" lon="6.49171">
        <ele>235.6</ele>
        <time>2024-02-04T09:46:50Z</time>
      </trkpt>
      <trkpt lat="43.15808" lon="6.4917">
        <ele>235.7</ele>
        <time>2024-02-04T09:46:51Z</time>
      </trkpt>
      <trkpt lat="43.15808" lon="6.49169">
        <ele>235.8</ele>
        <time>2024-02-04T09:46:52Z</time>
      </trkpt>
      <trkpt lat="43.15808" lon="6.49168">
        <ele>236</ele>
        <time>2024-02-04T09:46:53Z</time>
      </trkpt>
      <trkpt lat="43.15809" lon="6.49167">
        <ele>236.1</ele>
        <time>2024-02-04T09:46:54Z</time>
      </trkpt>
      <trkpt lat="43.15809" lon="6.49166">
        <ele>236.3</ele>
        <time>2024-02-04T09:46:55Z</time>
      </trkpt>
      <trkpt lat="43.15809" lon="6.49165">
        <ele>236.4</ele>
        <time>2024-02-04T09:46:56Z</time>
      </trkpt>
      <trkpt lat="43.15809" lon="6.49164">
        <ele>236.5</ele>
        <time>2024-02-04T09:46:57Z</time>
      </trkpt>
      <trkpt lat="43.15809" lon="6.49163">
        <ele>236.6</ele>
        <time>2024-02-04T09:46:58Z</time>
      </trkpt>
      <trkpt lat="43.1581" lon="6.49162">
        <ele>236.8</ele>
        <time>2024-02-04T09:46:59Z</time>
      </trkpt>
      <trkpt lat="43.1581" lon="6.49162">
        <ele>237</ele>
        <time>2024-02-04T09:47:00Z</time>
      </trkpt>
      <trkpt lat="43.1581" lon="6.4916">
        <ele>237.2</ele>
        <time>2024-02-04T09:47:01Z</time>
      </trkpt>
      <trkpt lat="43.1581" lon="6.49159">
        <ele>237.4</ele>
        <time>2024-02-04T09:47:02Z</time>
      </trkpt>
      <trkpt lat="43.15811" lon="6.49157">
        <ele>237.5</ele>
        <time>2024-02-04T09:47:03Z</time>
      </trkpt>
      <trkpt lat="43.15811" lon="6.49156">
        <ele>237.7</ele>
        <time>2024-02-04T09:47:04Z</time>
      </trkpt>
      <trkpt lat="43.15811" lon="6.49155">
        <ele>237.8</ele>
        <time>2024-02-04T09:47:05Z</time>
      </trkpt>
      <trkpt lat="43.15811" lon="6.49154">
        <ele>237.9</ele>
        <time>2024-02-04T09:47:06Z</time>
      </trkpt>
      <trkpt lat="43.15812" lon="6.49152">
        <ele>238</ele>
        <time>2024-02-04T09:47:07Z</time>
      </trkpt>
      <trkpt lat="43.15813" lon="6.49151">
        <ele>238.3</ele>
        <time>2024-02-04T09:47:08Z</time>
      </trkpt>
      <trkpt lat="43.15813" lon="6.49149">
        <ele>238.5</ele>
        <time>2024-02-04T09:47:09Z</time>
      </trkpt>
      <trkpt lat="43.15814" lon="6.49148">
        <ele>238.7</ele>
        <time>2024-02-04T09:47:10Z</time>
      </trkpt>
      <trkpt lat="43.15814" lon="6.49147">
        <ele>238.8</ele>
        <time>2024-02-04T09:47:11Z</time>
      </trkpt>
      <trkpt lat="43.15814" lon="6.49146">
        <ele>238.9</ele>
        <time>2024-02-04T09:47:12Z</time>
      </trkpt>
      <trkpt lat="43.15814" lon="6.49145">
        <ele>238.9</ele>
        <time>2024-02-04T09:47:13Z</time>
      </trkpt>
      <trkpt lat="43.15815" lon="6.49143">
        <ele>239.1</ele>
        <time>2024-02-04T09:47:14Z</time>
      </trkpt>
      <trkpt lat="43.15815" lon="6.49142">
        <ele>239.2</ele>
        <time>2024-02-04T09:47:15Z</time>
      </trkpt>
      <trkpt lat="43.15816" lon="6.49141">
        <ele>239.4</ele>
        <time>2024-02-04T09:47:16Z</time>
      </trkpt>
      <trkpt lat="43.15817" lon="6.49139">
        <ele>239.5</ele>
        <time>2024-02-04T09:47:17Z</time>
      </trkpt>
      <trkpt lat="43.15817" lon="6.49139">
        <ele>239.7</ele>
        <time>2024-02-04T09:47:18Z</time>
      </trkpt>
      <trkpt lat="43.15818" lon="6.49138">
        <ele>239.8</ele>
        <time>2024-02-04T09:47:19Z</time>
      </trkpt>
      <trkpt lat="43.15818" lon="6.49137">
        <ele>239.9</ele>
        <time>2024-02-04T09:47:20Z</time>
      </trkpt>
      <trkpt lat="43.15819" lon="6.49136">
        <ele>240</ele>
        <time>2024-02-04T09:47:21Z</time>
      </trkpt>
      <trkpt lat="43.15819" lon="6.49135">
        <ele>240.1</ele>
        <time>2024-02-04T09:47:22Z</time>
      </trkpt>
      <trkpt lat="43.1582" lon="6.49135">
        <ele>240.3</ele>
        <time>2024-02-04T09:47:23Z</time>
      </trkpt>
      <trkpt lat="43.1582" lon="6.49134">
        <ele>240.5</ele>
        <time>2024-02-04T09:47:24Z</time>
      </trkpt>
      <trkpt lat="43.15821" lon="6.49133">
        <ele>240.6</ele>
        <time>2024-02-04T09:47:25Z</time>
      </trkpt>
      <trkpt lat="43.15821" lon="6.49132">
        <ele>240.8</ele>
        <time>2024-02-04T09:47:26Z</time>
      </trkpt>
      <trkpt lat="43.15822" lon="6.49131">
        <ele>240.9</ele>
        <time>2024-02-04T09:47:27Z</time>
      </trkpt>
      <trkpt lat="43.15822" lon="6.4913">
        <ele>241.1</ele>
        <time>2024-02-04T09:47:28Z</time>
      </trkpt>
      <trkpt lat="43.15823" lon="6.49129">
        <ele>241.3</ele>
        <time>2024-02-04T09:47:29Z</time>
      </trkpt>
      <trkpt lat="43.15823" lon="6.49128">
        <ele>241.4</ele>
        <time>2024-02-04T09:47:30Z</time>
      </trkpt>
      <trkpt lat="43.15823" lon="6.49127">
        <ele>241.5</ele>
        <time>2024-02-04T09:47:31Z</time>
      </trkpt>
      <trkpt lat="43.15823" lon="6.49126">
        <ele>241.6</ele>
        <time>2024-02-04T09:47:32Z</time>
      </trkpt>
      <trkpt lat="43.15823" lon="6.49125">
        <ele>241.7</ele>
        <time>2024-02-04T09:47:33Z</time>
      </trkpt>
      <trkpt lat="43.15823" lon="6.49124">
        <ele>241.7</ele>
        <time>2024-02-04T09:47:34Z</time>
      </trkpt>
      <trkpt lat="43.15823" lon="6.49122">
        <ele>241.8</ele>
        <time>2024-02-04T09:47:35Z</time>
      </trkpt>
      <trkpt lat="43.15823" lon="6.49121">
        <ele>241.9</ele>
        <time>2024-02-04T09:47:36Z</time>
      </trkpt>
      <trkpt lat="43.15823" lon="6.4912">
        <ele>241.9</ele>
        <time>2024-02-04T09:47:37Z</time>
      </trkpt>
      <trkpt lat="43.15823" lon="6.49119">
        <ele>242</ele>
        <time>2024-02-04T09:47:38Z</time>
      </trkpt>
      <trkpt lat="43.15824" lon="6.49118">
        <ele>242.1</ele>
        <time>2024-02-04T09:47:39Z</time>
      </trkpt>
      <trkpt lat="43.15824" lon="6.49116">
        <ele>242.1</ele>
        <time>2024-02-04T09:47:40Z</time>
      </trkpt>
      <trkpt lat="43.15824" lon="6.49115">
        <ele>242.2</ele>
        <time>2024-02-04T09:47:41Z</time>
      </trkpt>
      <trkpt lat="43.15824" lon="6.49114">
        <ele>242.3</ele>
        <time>2024-02-04T09:47:42Z</time>
      </trkpt>
      <trkpt lat="43.15824" lon="6.49114">
        <ele>242.5</ele>
        <time>2024-02-04T09:47:43Z</time>
      </trkpt>
      <trkpt lat="43.15825" lon="6.49113">
        <ele>242.7</ele>
        <time>2024-02-04T09:47:44Z</time>
      </trkpt>
      <trkpt lat="43.15825" lon="6.49112">
        <ele>242.9</ele>
        <time>2024-02-04T09:47:45Z</time>
      </trkpt>
      <trkpt lat="43.15825" lon="6.49111">
        <ele>243</ele>
        <time>2024-02-04T09:47:46Z</time>
      </trkpt>
      <trkpt lat="43.15825" lon="6.49111">
        <ele>243.1</ele>
        <time>2024-02-04T09:47:47Z</time>
      </trkpt>
      <trkpt lat="43.15826" lon="6.4911">
        <ele>243.3</ele>
        <time>2024-02-04T09:47:48Z</time>
      </trkpt>
      <trkpt lat="43.15826" lon="6.4911">
        <ele>243.4</ele>
        <time>2024-02-04T09:47:49Z</time>
      </trkpt>
      <trkpt lat="43.15826" lon="6.49109">
        <ele>243.5</ele>
        <time>2024-02-04T09:47:50Z</time>
      </trkpt>
      <trkpt lat="43.15826" lon="6.49108">
        <ele>243.5</ele>
        <time>2024-02-04T09:47:51Z</time>
      </trkpt>
      <trkpt lat="43.15827" lon="6.49107">
        <ele>243.5</ele>
        <time>2024-02-04T09:47:52Z</time>
      </trkpt>
      <trkpt lat="43.15827" lon="6.49106">
        <ele>243.6</ele>
        <time>2024-02-04T09:47:53Z</time>
      </trkpt>
      <trkpt lat="43.15827" lon="6.49106">
        <ele>243.7</ele>
        <time>2024-02-04T09:47:54Z</time>
      </trkpt>
      <trkpt lat="43.15828" lon="6.49105">
        <ele>243.8</ele>
        <time>2024-02-04T09:47:55Z</time>
      </trkpt>
      <trkpt lat="43.15828" lon="6.49104">
        <ele>243.9</ele>
        <time>2024-02-04T09:47:56Z</time>
      </trkpt>
      <trkpt lat="43.15828" lon="6.49103">
        <ele>244.1</ele>
        <time>2024-02-04T09:47:57Z</time>
      </trkpt>
      <trkpt lat="43.15829" lon="6.49102">
        <ele>244.3</ele>
        <time>2024-02-04T09:47:58Z</time>
      </trkpt>
      <trkpt lat="43.1583" lon="6.491">
        <ele>244.5</ele>
        <time>2024-02-04T09:47:59Z</time>
      </trkpt>
      <trkpt lat="43.1583" lon="6.49099">
        <ele>244.7</ele>
        <time>2024-02-04T09:48:00Z</time>
      </trkpt>
      <trkpt lat="43.1583" lon="6.49098">
        <ele>244.7</ele>
        <time>2024-02-04T09:48:01Z</time>
      </trkpt>
      <trkpt lat="43.15831" lon="6.49097">
        <ele>244.7</ele>
        <time>2024-02-04T09:48:02Z</time>
      </trkpt>
      <trkpt lat="43.15831" lon="6.49095">
        <ele>244.8</ele>
        <time>2024-02-04T09:48:03Z</time>
      </trkpt>
      <trkpt lat="43.15831" lon="6.49094">
        <ele>245</ele>
        <time>2024-02-04T09:48:04Z</time>
      </trkpt>
      <trkpt lat="43.15832" lon="6.49093">
        <ele>245.1</ele>
        <time>2024-02-04T09:48:05Z</time>
      </trkpt>
      <trkpt lat="43.15832" lon="6.49091">
        <ele>245.2</ele>
        <time>2024-02-04T09:48:06Z</time>
      </trkpt>
      <trkpt lat="43.15832" lon="6.4909">
        <ele>245.3</ele>
        <time>2024-02-04T09:48:07Z</time>
      </trkpt>
      <trkpt lat="43.15833" lon="6.49089">
        <ele>245.4</ele>
        <time>2024-02-04T09:48:08Z</time>
      </trkpt>
      <trkpt lat="43.15834" lon="6.49088">
        <ele>245.5</ele>
        <time>2024-02-04T09:48:09Z</time>
      </trkpt>
      <trkpt lat="43.15834" lon="6.49087">
        <ele>245.6</ele>
        <time>2024-02-04T09:48:10Z</time>
      </trkpt>
      <trkpt lat="43.15835" lon="6.49086">
        <ele>245.8</ele>
        <time>2024-02-04T09:48:11Z</time>
      </trkpt>
      <trkpt lat="43.15835" lon="6.49084">
        <ele>245.9</ele>
        <time>2024-02-04T09:48:12Z</time>
      </trkpt>
      <trkpt lat="43.15836" lon="6.49083">
        <ele>246</ele>
        <time>2024-02-04T09:48:13Z</time>
      </trkpt>
      <trkpt lat="43.15836" lon="6.49082">
        <ele>246.2</ele>
        <time>2024-02-04T09:48:14Z</time>
      </trkpt>
      <trkpt lat="43.15836" lon="6.49081">
        <ele>246.3</ele>
        <time>2024-02-04T09:48:15Z</time>
      </trkpt>
      <trkpt lat="43.15837" lon="6.4908">
        <ele>246.4</ele>
        <time>2024-02-04T09:48:16Z</time>
      </trkpt>
      <trkpt lat="43.15837" lon="6.49079">
        <ele>246.4</ele>
        <time>2024-02-04T09:48:17Z</time>
      </trkpt>
      <trkpt lat="43.15838" lon="6.49078">
        <ele>246.5</ele>
        <time>2024-02-04T09:48:18Z</time>
      </trkpt>
      <trkpt lat="43.15838" lon="6.49077">
        <ele>246.6</ele>
        <time>2024-02-04T09:48:19Z</time>
      </trkpt>
      <trkpt lat="43.15839" lon="6.49076">
        <ele>246.7</ele>
        <time>2024-02-04T09:48:20Z</time>
      </trkpt>
      <trkpt lat="43.15839" lon="6.49075">
        <ele>246.9</ele>
        <time>2024-02-04T09:48:21Z</time>
      </trkpt>
      <trkpt lat="43.15839" lon="6.49074">
        <ele>247</ele>
        <time>2024-02-04T09:48:22Z</time>
      </trkpt>
      <trkpt lat="43.1584" lon="6.49073">
        <ele>247.1</ele>
        <time>2024-02-04T09:48:23Z</time>
      </trkpt>
      <trkpt lat="43.1584" lon="6.49072">
        <ele>247.1</ele>
        <time>2024-02-04T09:48:24Z</time>
      </trkpt>
      <trkpt lat="43.1584" lon="6.49072">
        <ele>247.2</ele>
        <time>2024-02-04T09:48:25Z</time>
      </trkpt>
      <trkpt lat="43.15841" lon="6.49071">
        <ele>247.2</ele>
        <time>2024-02-04T09:48:26Z</time>
      </trkpt>
      <trkpt lat="43.15841" lon="6.4907">
        <ele>247.2</ele>
        <time>2024-02-04T09:48:27Z</time>
      </trkpt>
      <trkpt lat="43.15841" lon="6.4907">
        <ele>247.3</ele>
        <time>2024-02-04T09:48:28Z</time>
      </trkpt>
      <trkpt lat="43.15841" lon="6.49069">
        <ele>247.4</ele>
        <time>2024-02-04T09:48:29Z</time>
      </trkpt>
      <trkpt lat="43.15842" lon="6.49069">
        <ele>247.5</ele>
        <time>2024-02-04T09:48:30Z</time>
      </trkpt>
      <trkpt lat="43.15842" lon="6.49068">
        <ele>247.6</ele>
        <time>2024-02-04T09:48:31Z</time>
      </trkpt>
      <trkpt lat="43.15842" lon="6.49068">
        <ele>247.6</ele>
        <time>2024-02-04T09:48:32Z</time>
      </trkpt>
      <trkpt lat="43.15842" lon="6.49067">
        <ele>247.7</ele>
        <time>2024-02-04T09:48:33Z</time>
      </trkpt>
      <trkpt lat="43.15843" lon="6.49067">
        <ele>247.7</ele>
        <time>2024-02-04T09:48:34Z</time>
      </trkpt>
      <trkpt lat="43.15844" lon="6.49066">
        <ele>247.8</ele>
        <time>2024-02-04T09:48:35Z</time>
      </trkpt>
      <trkpt lat="43.15844" lon="6.49065">
        <ele>247.9</ele>
        <time>2024-02-04T09:48:36Z</time>
      </trkpt>
      <trkpt lat="43.15844" lon="6.49065">
        <ele>247.9</ele>
        <time>2024-02-04T09:48:37Z</time>
      </trkpt>
      <trkpt lat="43.15844" lon="6.49064">
        <ele>247.9</ele>
        <time>2024-02-04T09:48:38Z</time>
      </trkpt>
      <trkpt lat="43.15844" lon="6.49063">
        <ele>247.9</ele>
        <time>2024-02-04T09:48:39Z</time>
      </trkpt>
      <trkpt lat="43.15844" lon="6.49062">
        <ele>247.9</ele>
        <time>2024-02-04T09:48:40Z</time>
      </trkpt>
      <trkpt lat="43.15844" lon="6.49062">
        <ele>248</ele>
        <time>2024-02-04T09:48:41Z</time>
      </trkpt>
      <trkpt lat="43.15844" lon="6.49062">
        <ele>247.9</ele>
        <time>2024-02-04T09:48:42Z</time>
      </trkpt>
      <trkpt lat="43.15844" lon="6.49062">
        <ele>247.9</ele>
        <time>2024-02-04T09:48:43Z</time>
      </trkpt>
      <trkpt lat="43.15844" lon="6.49062">
        <ele>247.8</ele>
        <time>2024-02-04T09:48:44Z</time>
      </trkpt>
      <trkpt lat="43.15844" lon="6.49062">
        <ele>247.8</ele>
        <time>2024-02-04T09:48:45Z</time>
      </trkpt>
      <trkpt lat="43.15844" lon="6.49062">
        <ele>247.8</ele>
        <time>2024-02-04T09:48:46Z</time>
      </trkpt>
      <trkpt lat="43.15844" lon="6.49062">
        <ele>247.7</ele>
        <time>2024-02-04T09:48:47Z</time>
      </trkpt>
      <trkpt lat="43.15844" lon="6.49062">
        <ele>247.7</ele>
        <time>2024-02-04T09:48:48Z</time>
      </trkpt>
      <trkpt lat="43.15844" lon="6.49062">
        <ele>247.8</ele>
        <time>2024-02-04T09:48:49Z</time>
      </trkpt>
      <trkpt lat="43.15844" lon="6.49062">
        <ele>247.8</ele>
        <time>2024-02-04T09:48:50Z</time>
      </trkpt>
      <trkpt lat="43.15843" lon="6.49062">
        <ele>247.8</ele>
        <time>2024-02-04T09:48:51Z</time>
      </trkpt>
      <trkpt lat="43.15844" lon="6.49062">
        <ele>247.8</ele>
        <time>2024-02-04T09:48:52Z</time>
      </trkpt>
      <trkpt lat="43.15844" lon="6.49063">
        <ele>247.8</ele>
        <time>2024-02-04T09:48:53Z</time>
      </trkpt>
      <trkpt lat="43.15845" lon="6.49062">
        <ele>247.8</ele>
        <time>2024-02-04T09:48:54Z</time>
      </trkpt>
      <trkpt lat="43.15845" lon="6.49062">
        <ele>247.8</ele>
        <time>2024-02-04T09:48:55Z</time>
      </trkpt>
      <trkpt lat="43.15846" lon="6.49061">
        <ele>247.8</ele>
        <time>2024-02-04T09:48:56Z</time>
      </trkpt>
      <trkpt lat="43.15847" lon="6.49061">
        <ele>247.9</ele>
        <time>2024-02-04T09:48:57Z</time>
      </trkpt>
      <trkpt lat="43.15847" lon="6.4906">
        <ele>247.9</ele>
        <time>2024-02-04T09:48:58Z</time>
      </trkpt>
      <trkpt lat="43.15848" lon="6.4906">
        <ele>248.1</ele>
        <time>2024-02-04T09:48:59Z</time>
      </trkpt>
      <trkpt lat="43.15848" lon="6.49059">
        <ele>248.2</ele>
        <time>2024-02-04T09:49:00Z</time>
      </trkpt>
      <trkpt lat="43.15849" lon="6.49059">
        <ele>248.3</ele>
        <time>2024-02-04T09:49:01Z</time>
      </trkpt>
      <trkpt lat="43.15849" lon="6.49059">
        <ele>248.4</ele>
        <time>2024-02-04T09:49:02Z</time>
      </trkpt>
      <trkpt lat="43.1585" lon="6.49059">
        <ele>248.5</ele>
        <time>2024-02-04T09:49:03Z</time>
      </trkpt>
      <trkpt lat="43.1585" lon="6.49058">
        <ele>248.6</ele>
        <time>2024-02-04T09:49:04Z</time>
      </trkpt>
      <trkpt lat="43.15851" lon="6.49057">
        <ele>248.6</ele>
        <time>2024-02-04T09:49:05Z</time>
      </trkpt>
      <trkpt lat="43.15851" lon="6.49056">
        <ele>248.7</ele>
        <time>2024-02-04T09:49:06Z</time>
      </trkpt>
      <trkpt lat="43.15852" lon="6.49055">
        <ele>248.9</ele>
        <time>2024-02-04T09:49:07Z</time>
      </trkpt>
      <trkpt lat="43.15853" lon="6.49054">
        <ele>249</ele>
        <time>2024-02-04T09:49:08Z</time>
      </trkpt>
      <trkpt lat="43.15853" lon="6.49053">
        <ele>249.2</ele>
        <time>2024-02-04T09:49:09Z</time>
      </trkpt>
      <trkpt lat="43.15854" lon="6.49052">
        <ele>249.3</ele>
        <time>2024-02-04T09:49:10Z</time>
      </trkpt>
      <trkpt lat="43.15854" lon="6.49051">
        <ele>249.4</ele>
        <time>2024-02-04T09:49:11Z</time>
      </trkpt>
      <trkpt lat="43.15854" lon="6.49051">
        <ele>249.4</ele>
        <time>2024-02-04T09:49:12Z</time>
      </trkpt>
      <trkpt lat="43.15855" lon="6.49051">
        <ele>249.5</ele>
        <time>2024-02-04T09:49:13Z</time>
      </trkpt>
      <trkpt lat="43.15855" lon="6.49051">
        <ele>249.6</ele>
        <time>2024-02-04T09:49:14Z</time>
      </trkpt>
      <trkpt lat="43.15856" lon="6.49051">
        <ele>249.7</ele>
        <time>2024-02-04T09:49:15Z</time>
      </trkpt>
      <trkpt lat="43.15857" lon="6.49052">
        <ele>249.8</ele>
        <time>2024-02-04T09:49:16Z</time>
      </trkpt>
      <trkpt lat="43.15858" lon="6.49052">
        <ele>249.9</ele>
        <time>2024-02-04T09:49:17Z</time>
      </trkpt>
      <trkpt lat="43.15858" lon="6.49052">
        <ele>249.9</ele>
        <time>2024-02-04T09:49:18Z</time>
      </trkpt>
      <trkpt lat="43.15859" lon="6.49051">
        <ele>249.9</ele>
        <time>2024-02-04T09:49:19Z</time>
      </trkpt>
      <trkpt lat="43.1586" lon="6.49051">
        <ele>249.9</ele>
        <time>2024-02-04T09:49:20Z</time>
      </trkpt>
      <trkpt lat="43.15861" lon="6.49051">
        <ele>250</ele>
        <time>2024-02-04T09:49:21Z</time>
      </trkpt>
      <trkpt lat="43.15861" lon="6.49051">
        <ele>250.1</ele>
        <time>2024-02-04T09:49:22Z</time>
      </trkpt>
      <trkpt lat="43.15862" lon="6.49051">
        <ele>250.1</ele>
        <time>2024-02-04T09:49:23Z</time>
      </trkpt>
      <trkpt lat="43.15863" lon="6.4905">
        <ele>250.2</ele>
        <time>2024-02-04T09:49:24Z</time>
      </trkpt>
      <trkpt lat="43.15863" lon="6.4905">
        <ele>250.2</ele>
        <time>2024-02-04T09:49:25Z</time>
      </trkpt>
      <trkpt lat="43.15864" lon="6.4905">
        <ele>250.2</ele>
        <time>2024-02-04T09:49:26Z</time>
      </trkpt>
      <trkpt lat="43.15865" lon="6.4905">
        <ele>250.2</ele>
        <time>2024-02-04T09:49:27Z</time>
      </trkpt>
      <trkpt lat="43.15865" lon="6.4905">
        <ele>250.2</ele>
        <time>2024-02-04T09:49:28Z</time>
      </trkpt>
      <trkpt lat="43.15866" lon="6.4905">
        <ele>250.3</ele>
        <time>2024-02-04T09:49:29Z</time>
      </trkpt>
      <trkpt lat="43.15867" lon="6.4905">
        <ele>250.2</ele>
        <time>2024-02-04T09:49:30Z</time>
      </trkpt>
      <trkpt lat="43.15867" lon="6.4905">
        <ele>250.2</ele>
        <time>2024-02-04T09:49:31Z</time>
      </trkpt>
      <trkpt lat="43.15868" lon="6.4905">
        <ele>250.2</ele>
        <time>2024-02-04T09:49:32Z</time>
      </trkpt>
      <trkpt lat="43.15869" lon="6.4905">
        <ele>250.3</ele>
        <time>2024-02-04T09:49:33Z</time>
      </trkpt>
      <trkpt lat="43.15869" lon="6.4905">
        <ele>250.3</ele>
        <time>2024-02-04T09:49:34Z</time>
      </trkpt>
      <trkpt lat="43.1587" lon="6.4905">
        <ele>250.4</ele>
        <time>2024-02-04T09:49:35Z</time>
      </trkpt>
      <trkpt lat="43.15871" lon="6.4905">
        <ele>250.5</ele>
        <time>2024-02-04T09:49:36Z</time>
      </trkpt>
      <trkpt lat="43.15871" lon="6.4905">
        <ele>250.6</ele>
        <time>2024-02-04T09:49:37Z</time>
      </trkpt>
      <trkpt lat="43.15872" lon="6.49049">
        <ele>250.7</ele>
        <time>2024-02-04T09:49:38Z</time>
      </trkpt>
      <trkpt lat="43.15872" lon="6.49049">
        <ele>250.8</ele>
        <time>2024-02-04T09:49:39Z</time>
      </trkpt>
      <trkpt lat="43.15873" lon="6.49049">
        <ele>250.8</ele>
        <time>2024-02-04T09:49:40Z</time>
      </trkpt>
      <trkpt lat="43.15874" lon="6.49049">
        <ele>250.9</ele>
        <time>2024-02-04T09:49:41Z</time>
      </trkpt>
      <trkpt lat="43.15875" lon="6.49049">
        <ele>250.9</ele>
        <time>2024-02-04T09:49:42Z</time>
      </trkpt>
      <trkpt lat="43.15876" lon="6.49048">
        <ele>250.9</ele>
        <time>2024-02-04T09:49:43Z</time>
      </trkpt>
      <trkpt lat="43.15877" lon="6.49048">
        <ele>251.1</ele>
        <time>2024-02-04T09:49:44Z</time>
      </trkpt>
      <trkpt lat="43.15878" lon="6.49048">
        <ele>251.2</ele>
        <time>2024-02-04T09:49:45Z</time>
      </trkpt>
      <trkpt lat="43.15879" lon="6.49047">
        <ele>251.3</ele>
        <time>2024-02-04T09:49:46Z</time>
      </trkpt>
      <trkpt lat="43.15879" lon="6.49047">
        <ele>251.5</ele>
        <time>2024-02-04T09:49:47Z</time>
      </trkpt>
      <trkpt lat="43.1588" lon="6.49048">
        <ele>251.6</ele>
        <time>2024-02-04T09:49:48Z</time>
      </trkpt>
      <trkpt lat="43.1588" lon="6.49048">
        <ele>251.7</ele>
        <time>2024-02-04T09:49:49Z</time>
      </trkpt>
      <trkpt lat="43.15881" lon="6.49048">
        <ele>251.8</ele>
        <time>2024-02-04T09:49:50Z</time>
      </trkpt>
      <trkpt lat="43.15882" lon="6.49048">
        <ele>252</ele>
        <time>2024-02-04T09:49:51Z</time>
      </trkpt>
      <trkpt lat="43.15883" lon="6.49048">
        <ele>252.2</ele>
        <time>2024-02-04T09:49:52Z</time>
      </trkpt>
      <trkpt lat="43.15883" lon="6.49048">
        <ele>252.4</ele>
        <time>2024-02-04T09:49:53Z</time>
      </trkpt>
      <trkpt lat="43.15884" lon="6.49048">
        <ele>252.5</ele>
        <time>2024-02-04T09:49:54Z</time>
      </trkpt>
      <trkpt lat="43.15884" lon="6.49048">
        <ele>252.7</ele>
        <time>2024-02-04T09:49:55Z</time>
      </trkpt>
      <trkpt lat="43.15885" lon="6.49048">
        <ele>252.8</ele>
        <time>2024-02-04T09:49:56Z</time>
      </trkpt>
      <trkpt lat="43.15886" lon="6.49048">
        <ele>252.9</ele>
        <time>2024-02-04T09:49:57Z</time>
      </trkpt>
      <trkpt lat="43.15887" lon="6.49047">
        <ele>253</ele>
        <time>2024-02-04T09:49:58Z</time>
      </trkpt>
      <trkpt lat="43.15887" lon="6.49047">
        <ele>253.1</ele>
        <time>2024-02-04T09:49:59Z</time>
      </trkpt>
      <trkpt lat="43.15888" lon="6.49047">
        <ele>253.3</ele>
        <time>2024-02-04T09:50:00Z</time>
      </trkpt>
      <trkpt lat="43.15889" lon="6.49047">
        <ele>253.4</ele>
        <time>2024-02-04T09:50:01Z</time>
      </trkpt>
      <trkpt lat="43.15889" lon="6.49047">
        <ele>253.5</ele>
        <time>2024-02-04T09:50:02Z</time>
      </trkpt>
      <trkpt lat="43.1589" lon="6.49047">
        <ele>253.7</ele>
        <time>2024-02-04T09:50:03Z</time>
      </trkpt>
      <trkpt lat="43.15891" lon="6.49047">
        <ele>253.8</ele>
        <time>2024-02-04T09:50:04Z</time>
      </trkpt>
      <trkpt lat="43.15892" lon="6.49047">
        <ele>254</ele>
        <time>2024-02-04T09:50:05Z</time>
      </trkpt>
      <trkpt lat="43.15893" lon="6.49047">
        <ele>254.2</ele>
        <time>2024-02-04T09:50:06Z</time>
      </trkpt>
      <trkpt lat="43.15894" lon="6.49047">
        <ele>254.2</ele>
        <time>2024-02-04T09:50:07Z</time>
      </trkpt>
      <trkpt lat="43.15895" lon="6.49048">
        <ele>254.4</ele>
        <time>2024-02-04T09:50:08Z</time>
      </trkpt>
      <trkpt lat="43.15896" lon="6.49048">
        <ele>254.5</ele>
        <time>2024-02-04T09:50:09Z</time>
      </trkpt>
      <trkpt lat="43.15897" lon="6.49048">
        <ele>254.7</ele>
        <time>2024-02-04T09:50:10Z</time>
      </trkpt>
      <trkpt lat="43.15898" lon="6.49049">
        <ele>254.8</ele>
        <time>2024-02-04T09:50:11Z</time>
      </trkpt>
      <trkpt lat="43.15899" lon="6.49049">
        <ele>255</ele>
        <time>2024-02-04T09:50:12Z</time>
      </trkpt>
      <trkpt lat="43.159" lon="6.4905">
        <ele>255.2</ele>
        <time>2024-02-04T09:50:13Z</time>
      </trkpt>
      <trkpt lat="43.15901" lon="6.4905">
        <ele>255.3</ele>
        <time>2024-02-04T09:50:14Z</time>
      </trkpt>
      <trkpt lat="43.15902" lon="6.49051">
        <ele>255.4</ele>
        <time>2024-02-04T09:50:15Z</time>
      </trkpt>
      <trkpt lat="43.15903" lon="6.49051">
        <ele>255.5</ele>
        <time>2024-02-04T09:50:16Z</time>
      </trkpt>
      <trkpt lat="43.15904" lon="6.49051">
        <ele>255.7</ele>
        <time>2024-02-04T09:50:17Z</time>
      </trkpt>
      <trkpt lat="43.15905" lon="6.49051">
        <ele>255.9</ele>
        <time>2024-02-04T09:50:18Z</time>
      </trkpt>
      <trkpt lat="43.15906" lon="6.49051">
        <ele>256</ele>
        <time>2024-02-04T09:50:19Z</time>
      </trkpt>
      <trkpt lat="43.15907" lon="6.49051">
        <ele>256.1</ele>
        <time>2024-02-04T09:50:20Z</time>
      </trkpt>
      <trkpt lat="43.15908" lon="6.49051">
        <ele>256.3</ele>
        <time>2024-02-04T09:50:21Z</time>
      </trkpt>
      <trkpt lat="43.15909" lon="6.49051">
        <ele>256.6</ele>
        <time>2024-02-04T09:50:22Z</time>
      </trkpt>
      <trkpt lat="43.15909" lon="6.49051">
        <ele>256.8</ele>
        <time>2024-02-04T09:50:23Z</time>
      </trkpt>
      <trkpt lat="43.1591" lon="6.49052">
        <ele>257</ele>
        <time>2024-02-04T09:50:24Z</time>
      </trkpt>
      <trkpt lat="43.15911" lon="6.49052">
        <ele>257.1</ele>
        <time>2024-02-04T09:50:25Z</time>
      </trkpt>
      <trkpt lat="43.15912" lon="6.49053">
        <ele>257.3</ele>
        <time>2024-02-04T09:50:26Z</time>
      </trkpt>
      <trkpt lat="43.15913" lon="6.49053">
        <ele>257.5</ele>
        <time>2024-02-04T09:50:27Z</time>
      </trkpt>
      <trkpt lat="43.15914" lon="6.49053">
        <ele>257.6</ele>
        <time>2024-02-04T09:50:28Z</time>
      </trkpt>
      <trkpt lat="43.15914" lon="6.49054">
        <ele>257.8</ele>
        <time>2024-02-04T09:50:29Z</time>
      </trkpt>
      <trkpt lat="43.15915" lon="6.49054">
        <ele>258.1</ele>
        <time>2024-02-04T09:50:30Z</time>
      </trkpt>
      <trkpt lat="43.15916" lon="6.49054">
        <ele>258.2</ele>
        <time>2024-02-04T09:50:31Z</time>
      </trkpt>
      <trkpt lat="43.15918" lon="6.49054">
        <ele>258.3</ele>
        <time>2024-02-04T09:50:32Z</time>
      </trkpt>
      <trkpt lat="43.15919" lon="6.49054">
        <ele>258.4</ele>
        <time>2024-02-04T09:50:33Z</time>
      </trkpt>
      <trkpt lat="43.1592" lon="6.49055">
        <ele>258.6</ele>
        <time>2024-02-04T09:50:34Z</time>
      </trkpt>
      <trkpt lat="43.1592" lon="6.49056">
        <ele>258.7</ele>
        <time>2024-02-04T09:50:35Z</time>
      </trkpt>
      <trkpt lat="43.15921" lon="6.49056">
        <ele>258.8</ele>
        <time>2024-02-04T09:50:36Z</time>
      </trkpt>
      <trkpt lat="43.15922" lon="6.49057">
        <ele>258.9</ele>
        <time>2024-02-04T09:50:37Z</time>
      </trkpt>
      <trkpt lat="43.15923" lon="6.49057">
        <ele>259.1</ele>
        <time>2024-02-04T09:50:38Z</time>
      </trkpt>
      <trkpt lat="43.15923" lon="6.49058">
        <ele>259.2</ele>
        <time>2024-02-04T09:50:39Z</time>
      </trkpt>
      <trkpt lat="43.15924" lon="6.49058">
        <ele>259.4</ele>
        <time>2024-02-04T09:50:40Z</time>
      </trkpt>
      <trkpt lat="43.15925" lon="6.49059">
        <ele>259.5</ele>
        <time>2024-02-04T09:50:41Z</time>
      </trkpt>
      <trkpt lat="43.15926" lon="6.49059">
        <ele>259.7</ele>
        <time>2024-02-04T09:50:42Z</time>
      </trkpt>
      <trkpt lat="43.15926" lon="6.4906">
        <ele>259.9</ele>
        <time>2024-02-04T09:50:43Z</time>
      </trkpt>
      <trkpt lat="43.15927" lon="6.4906">
        <ele>260.1</ele>
        <time>2024-02-04T09:50:44Z</time>
      </trkpt>
      <trkpt lat="43.15928" lon="6.49061">
        <ele>260.3</ele>
        <time>2024-02-04T09:50:45Z</time>
      </trkpt>
      <trkpt lat="43.15929" lon="6.49061">
        <ele>260.3</ele>
        <time>2024-02-04T09:50:46Z</time>
      </trkpt>
      <trkpt lat="43.15929" lon="6.49061">
        <ele>260.3</ele>
        <time>2024-02-04T09:50:47Z</time>
      </trkpt>
      <trkpt lat="43.1593" lon="6.49062">
        <ele>260.4</ele>
        <time>2024-02-04T09:50:48Z</time>
      </trkpt>
      <trkpt lat="43.1593" lon="6.49062">
        <ele>260.5</ele>
        <time>2024-02-04T09:50:49Z</time>
      </trkpt>
      <trkpt lat="43.15931" lon="6.49063">
        <ele>260.6</ele>
        <time>2024-02-04T09:50:50Z</time>
      </trkpt>
      <trkpt lat="43.15932" lon="6.49063">
        <ele>260.7</ele>
        <time>2024-02-04T09:50:51Z</time>
      </trkpt>
      <trkpt lat="43.15933" lon="6.49064">
        <ele>260.9</ele>
        <time>2024-02-04T09:50:52Z</time>
      </trkpt>
      <trkpt lat="43.15933" lon="6.49065">
        <ele>261</ele>
        <time>2024-02-04T09:50:53Z</time>
      </trkpt>
      <trkpt lat="43.15934" lon="6.49065">
        <ele>261.2</ele>
        <time>2024-02-04T09:50:54Z</time>
      </trkpt>
      <trkpt lat="43.15935" lon="6.49066">
        <ele>261.3</ele>
        <time>2024-02-04T09:50:55Z</time>
      </trkpt>
      <trkpt lat="43.15936" lon="6.49067">
        <ele>261.5</ele>
        <time>2024-02-04T09:50:56Z</time>
      </trkpt>
      <trkpt lat="43.15937" lon="6.49067">
        <ele>261.6</ele>
        <time>2024-02-04T09:50:57Z</time>
      </trkpt>
      <trkpt lat="43.15938" lon="6.49067">
        <ele>261.7</ele>
        <time>2024-02-04T09:50:58Z</time>
      </trkpt>
      <trkpt lat="43.15939" lon="6.49068">
        <ele>261.9</ele>
        <time>2024-02-04T09:50:59Z</time>
      </trkpt>
      <trkpt lat="43.1594" lon="6.49069">
        <ele>261.9</ele>
        <time>2024-02-04T09:51:00Z</time>
      </trkpt>
      <trkpt lat="43.15941" lon="6.4907">
        <ele>262</ele>
        <time>2024-02-04T09:51:01Z</time>
      </trkpt>
      <trkpt lat="43.15942" lon="6.4907">
        <ele>262.2</ele>
        <time>2024-02-04T09:51:02Z</time>
      </trkpt>
      <trkpt lat="43.15942" lon="6.49071">
        <ele>262.4</ele>
        <time>2024-02-04T09:51:03Z</time>
      </trkpt>
      <trkpt lat="43.15943" lon="6.49071">
        <ele>262.5</ele>
        <time>2024-02-04T09:51:04Z</time>
      </trkpt>
      <trkpt lat="43.15943" lon="6.49071">
        <ele>262.6</ele>
        <time>2024-02-04T09:51:05Z</time>
      </trkpt>
      <trkpt lat="43.15943" lon="6.49071">
        <ele>262.7</ele>
        <time>2024-02-04T09:51:06Z</time>
      </trkpt>
      <trkpt lat="43.15944" lon="6.49072">
        <ele>262.8</ele>
        <time>2024-02-04T09:51:07Z</time>
      </trkpt>
      <trkpt lat="43.15944" lon="6.49072">
        <ele>262.9</ele>
        <time>2024-02-04T09:51:08Z</time>
      </trkpt>
      <trkpt lat="43.15945" lon="6.49071">
        <ele>263</ele>
        <time>2024-02-04T09:51:09Z</time>
      </trkpt>
      <trkpt lat="43.15946" lon="6.49071">
        <ele>263.1</ele>
        <time>2024-02-04T09:51:10Z</time>
      </trkpt>
      <trkpt lat="43.15947" lon="6.49071">
        <ele>263.2</ele>
        <time>2024-02-04T09:51:11Z</time>
      </trkpt>
      <trkpt lat="43.15947" lon="6.49071">
        <ele>263.3</ele>
        <time>2024-02-04T09:51:12Z</time>
      </trkpt>
      <trkpt lat="43.15948" lon="6.49072">
        <ele>263.4</ele>
        <time>2024-02-04T09:51:13Z</time>
      </trkpt>
      <trkpt lat="43.15949" lon="6.49072">
        <ele>263.6</ele>
        <time>2024-02-04T09:51:14Z</time>
      </trkpt>
      <trkpt lat="43.1595" lon="6.49073">
        <ele>263.7</ele>
        <time>2024-02-04T09:51:15Z</time>
      </trkpt>
      <trkpt lat="43.1595" lon="6.49073">
        <ele>263.9</ele>
        <time>2024-02-04T09:51:16Z</time>
      </trkpt>
      <trkpt lat="43.15951" lon="6.49074">
        <ele>264.1</ele>
        <time>2024-02-04T09:51:17Z</time>
      </trkpt>
      <trkpt lat="43.15952" lon="6.49074">
        <ele>264.3</ele>
        <time>2024-02-04T09:51:18Z</time>
      </trkpt>
      <trkpt lat="43.15953" lon="6.49074">
        <ele>264.4</ele>
        <time>2024-02-04T09:51:19Z</time>
      </trkpt>
      <trkpt lat="43.15953" lon="6.49075">
        <ele>264.6</ele>
        <time>2024-02-04T09:51:20Z</time>
      </trkpt>
      <trkpt lat="43.15954" lon="6.49075">
        <ele>264.8</ele>
        <time>2024-02-04T09:51:21Z</time>
      </trkpt>
      <trkpt lat="43.15955" lon="6.49075">
        <ele>264.9</ele>
        <time>2024-02-04T09:51:22Z</time>
      </trkpt>
      <trkpt lat="43.15956" lon="6.49076">
        <ele>265.1</ele>
        <time>2024-02-04T09:51:23Z</time>
      </trkpt>
      <trkpt lat="43.15957" lon="6.49076">
        <ele>265.1</ele>
        <time>2024-02-04T09:51:24Z</time>
      </trkpt>
      <trkpt lat="43.15958" lon="6.49076">
        <ele>265.2</ele>
        <time>2024-02-04T09:51:25Z</time>
      </trkpt>
      <trkpt lat="43.15958" lon="6.49077">
        <ele>265.4</ele>
        <time>2024-02-04T09:51:26Z</time>
      </trkpt>
      <trkpt lat="43.15959" lon="6.49077">
        <ele>265.5</ele>
        <time>2024-02-04T09:51:27Z</time>
      </trkpt>
      <trkpt lat="43.1596" lon="6.49078">
        <ele>265.6</ele>
        <time>2024-02-04T09:51:28Z</time>
      </trkpt>
      <trkpt lat="43.15961" lon="6.49078">
        <ele>265.7</ele>
        <time>2024-02-04T09:51:29Z</time>
      </trkpt>
      <trkpt lat="43.15962" lon="6.49078">
        <ele>265.8</ele>
        <time>2024-02-04T09:51:30Z</time>
      </trkpt>
      <trkpt lat="43.15962" lon="6.49079">
        <ele>265.9</ele>
        <time>2024-02-04T09:51:31Z</time>
      </trkpt>
      <trkpt lat="43.15963" lon="6.49079">
        <ele>266</ele>
        <time>2024-02-04T09:51:32Z</time>
      </trkpt>
      <trkpt lat="43.15964" lon="6.49078">
        <ele>266.1</ele>
        <time>2024-02-04T09:51:33Z</time>
      </trkpt>
      <trkpt lat="43.15964" lon="6.49078">
        <ele>266.1</ele>
        <time>2024-02-04T09:51:34Z</time>
      </trkpt>
      <trkpt lat="43.15964" lon="6.49078">
        <ele>266.2</ele>
        <time>2024-02-04T09:51:35Z</time>
      </trkpt>
      <trkpt lat="43.15964" lon="6.49077">
        <ele>266.3</ele>
        <time>2024-02-04T09:51:36Z</time>
      </trkpt>
      <trkpt lat="43.15964" lon="6.49078">
        <ele>266.4</ele>
        <time>2024-02-04T09:51:37Z</time>
      </trkpt>
      <trkpt lat="43.15964" lon="6.49078">
        <ele>266.4</ele>
        <time>2024-02-04T09:51:38Z</time>
      </trkpt>
      <trkpt lat="43.15965" lon="6.49079">
        <ele>266.5</ele>
        <time>2024-02-04T09:51:39Z</time>
      </trkpt>
      <trkpt lat="43.15965" lon="6.4908">
        <ele>266.5</ele>
        <time>2024-02-04T09:51:40Z</time>
      </trkpt>
      <trkpt lat="43.15966" lon="6.49081">
        <ele>266.7</ele>
        <time>2024-02-04T09:51:41Z</time>
      </trkpt>
      <trkpt lat="43.15967" lon="6.49081">
        <ele>266.7</ele>
        <time>2024-02-04T09:51:42Z</time>
      </trkpt>
      <trkpt lat="43.15968" lon="6.49081">
        <ele>266.9</ele>
        <time>2024-02-04T09:51:43Z</time>
      </trkpt>
      <trkpt lat="43.15969" lon="6.49082">
        <ele>267</ele>
        <time>2024-02-04T09:51:44Z</time>
      </trkpt>
      <trkpt lat="43.15969" lon="6.49082">
        <ele>267.2</ele>
        <time>2024-02-04T09:51:45Z</time>
      </trkpt>
      <trkpt lat="43.1597" lon="6.49083">
        <ele>267.3</ele>
        <time>2024-02-04T09:51:46Z</time>
      </trkpt>
      <trkpt lat="43.15971" lon="6.49083">
        <ele>267.5</ele>
        <time>2024-02-04T09:51:47Z</time>
      </trkpt>
      <trkpt lat="43.15972" lon="6.49084">
        <ele>267.6</ele>
        <time>2024-02-04T09:51:48Z</time>
      </trkpt>
      <trkpt lat="43.15973" lon="6.49084">
        <ele>267.8</ele>
        <time>2024-02-04T09:51:49Z</time>
      </trkpt>
      <trkpt lat="43.15974" lon="6.49085">
        <ele>267.9</ele>
        <time>2024-02-04T09:51:50Z</time>
      </trkpt>
      <trkpt lat="43.15975" lon="6.49085">
        <ele>268.1</ele>
        <time>2024-02-04T09:51:51Z</time>
      </trkpt>
      <trkpt lat="43.15976" lon="6.49086">
        <ele>268.4</ele>
        <time>2024-02-04T09:51:52Z</time>
      </trkpt>
      <trkpt lat="43.15977" lon="6.49087">
        <ele>268.6</ele>
        <time>2024-02-04T09:51:53Z</time>
      </trkpt>
      <trkpt lat="43.15978" lon="6.49087">
        <ele>268.8</ele>
        <time>2024-02-04T09:51:54Z</time>
      </trkpt>
      <trkpt lat="43.15979" lon="6.49087">
        <ele>268.9</ele>
        <time>2024-02-04T09:51:55Z</time>
      </trkpt>
      <trkpt lat="43.15979" lon="6.49088">
        <ele>269</ele>
        <time>2024-02-04T09:51:56Z</time>
      </trkpt>
      <trkpt lat="43.1598" lon="6.49089">
        <ele>269.3</ele>
        <time>2024-02-04T09:51:57Z</time>
      </trkpt>
      <trkpt lat="43.15981" lon="6.4909">
        <ele>269.4</ele>
        <time>2024-02-04T09:51:58Z</time>
      </trkpt>
      <trkpt lat="43.15982" lon="6.4909">
        <ele>269.6</ele>
        <time>2024-02-04T09:51:59Z</time>
      </trkpt>
      <trkpt lat="43.15983" lon="6.49091">
        <ele>269.7</ele>
        <time>2024-02-04T09:52:00Z</time>
      </trkpt>
      <trkpt lat="43.15984" lon="6.49091">
        <ele>269.9</ele>
        <time>2024-02-04T09:52:01Z</time>
      </trkpt>
      <trkpt lat="43.15985" lon="6.49092">
        <ele>270</ele>
        <time>2024-02-04T09:52:02Z</time>
      </trkpt>
      <trkpt lat="43.15986" lon="6.49093">
        <ele>270.1</ele>
        <time>2024-02-04T09:52:03Z</time>
      </trkpt>
      <trkpt lat="43.15987" lon="6.49093">
        <ele>270.2</ele>
        <time>2024-02-04T09:52:04Z</time>
      </trkpt>
      <trkpt lat="43.15988" lon="6.49094">
        <ele>270.3</ele>
        <time>2024-02-04T09:52:05Z</time>
      </trkpt>
      <trkpt lat="43.15988" lon="6.49095">
        <ele>270.6</ele>
        <time>2024-02-04T09:52:06Z</time>
      </trkpt>
      <trkpt lat="43.15989" lon="6.49095">
        <ele>270.8</ele>
        <time>2024-02-04T09:52:07Z</time>
      </trkpt>
      <trkpt lat="43.1599" lon="6.49096">
        <ele>270.9</ele>
        <time>2024-02-04T09:52:08Z</time>
      </trkpt>
      <trkpt lat="43.15991" lon="6.49096">
        <ele>271.1</ele>
        <time>2024-02-04T09:52:09Z</time>
      </trkpt>
      <trkpt lat="43.15992" lon="6.49096">
        <ele>271.3</ele>
        <time>2024-02-04T09:52:10Z</time>
      </trkpt>
      <trkpt lat="43.15993" lon="6.49096">
        <ele>271.4</ele>
        <time>2024-02-04T09:52:11Z</time>
      </trkpt>
      <trkpt lat="43.15993" lon="6.49096">
        <ele>271.5</ele>
        <time>2024-02-04T09:52:12Z</time>
      </trkpt>
      <trkpt lat="43.15994" lon="6.49097">
        <ele>271.7</ele>
        <time>2024-02-04T09:52:13Z</time>
      </trkpt>
      <trkpt lat="43.15995" lon="6.49097">
        <ele>271.7</ele>
        <time>2024-02-04T09:52:14Z</time>
      </trkpt>
      <trkpt lat="43.15995" lon="6.49097">
        <ele>271.9</ele>
        <time>2024-02-04T09:52:15Z</time>
      </trkpt>
      <trkpt lat="43.15996" lon="6.49097">
        <ele>272</ele>
        <time>2024-02-04T09:52:16Z</time>
      </trkpt>
      <trkpt lat="43.15996" lon="6.49097">
        <ele>272.2</ele>
        <time>2024-02-04T09:52:17Z</time>
      </trkpt>
      <trkpt lat="43.15997" lon="6.49097">
        <ele>272.4</ele>
        <time>2024-02-04T09:52:18Z</time>
      </trkpt>
      <trkpt lat="43.15998" lon="6.49098">
        <ele>272.6</ele>
        <time>2024-02-04T09:52:19Z</time>
      </trkpt>
      <trkpt lat="43.15999" lon="6.49098">
        <ele>272.7</ele>
        <time>2024-02-04T09:52:20Z</time>
      </trkpt>
      <trkpt lat="43.15999" lon="6.49098">
        <ele>272.9</ele>
        <time>2024-02-04T09:52:21Z</time>
      </trkpt>
      <trkpt lat="43.16" lon="6.49098">
        <ele>273</ele>
        <time>2024-02-04T09:52:22Z</time>
      </trkpt>
      <trkpt lat="43.16001" lon="6.49098">
        <ele>273.1</ele>
        <time>2024-02-04T09:52:23Z</time>
      </trkpt>
      <trkpt lat="43.16001" lon="6.49098">
        <ele>273.3</ele>
        <time>2024-02-04T09:52:24Z</time>
      </trkpt>
      <trkpt lat="43.16001" lon="6.49097">
        <ele>273.4</ele>
        <time>2024-02-04T09:52:25Z</time>
      </trkpt>
      <trkpt lat="43.16001" lon="6.49097">
        <ele>273.6</ele>
        <time>2024-02-04T09:52:26Z</time>
      </trkpt>
      <trkpt lat="43.16001" lon="6.49097">
        <ele>273.7</ele>
        <time>2024-02-04T09:52:27Z</time>
      </trkpt>
      <trkpt lat="43.16002" lon="6.49096">
        <ele>273.8</ele>
        <time>2024-02-04T09:52:28Z</time>
      </trkpt>
      <trkpt lat="43.16002" lon="6.49096">
        <ele>273.8</ele>
        <time>2024-02-04T09:52:29Z</time>
      </trkpt>
      <trkpt lat="43.16002" lon="6.49096">
        <ele>273.8</ele>
        <time>2024-02-04T09:52:30Z</time>
      </trkpt>
      <trkpt lat="43.16002" lon="6.49095">
        <ele>273.8</ele>
        <time>2024-02-04T09:52:31Z</time>
      </trkpt>
      <trkpt lat="43.16002" lon="6.49095">
        <ele>273.7</ele>
        <time>2024-02-04T09:52:32Z</time>
      </trkpt>
      <trkpt lat="43.16002" lon="6.49095">
        <ele>273.7</ele>
        <time>2024-02-04T09:52:33Z</time>
      </trkpt>
      <trkpt lat="43.16002" lon="6.49095">
        <ele>273.7</ele>
        <time>2024-02-04T09:52:34Z</time>
      </trkpt>
      <trkpt lat="43.16002" lon="6.49095">
        <ele>273.6</ele>
        <time>2024-02-04T09:52:35Z</time>
      </trkpt>
      <trkpt lat="43.16002" lon="6.49095">
        <ele>273.6</ele>
        <time>2024-02-04T09:52:36Z</time>
      </trkpt>
      <trkpt lat="43.16002" lon="6.49095">
        <ele>273.6</ele>
        <time>2024-02-04T09:52:37Z</time>
      </trkpt>
      <trkpt lat="43.16002" lon="6.49095">
        <ele>273.6</ele>
        <time>2024-02-04T09:52:38Z</time>
      </trkpt>
      <trkpt lat="43.16002" lon="6.49094">
        <ele>273.6</ele>
        <time>2024-02-04T09:52:39Z</time>
      </trkpt>
      <trkpt lat="43.16003" lon="6.49094">
        <ele>273.6</ele>
        <time>2024-02-04T09:52:40Z</time>
      </trkpt>
      <trkpt lat="43.16003" lon="6.49094">
        <ele>273.6</ele>
        <time>2024-02-04T09:52:41Z</time>
      </trkpt>
      <trkpt lat="43.16003" lon="6.49094">
        <ele>273.7</ele>
        <time>2024-02-04T09:52:42Z</time>
      </trkpt>
      <trkpt lat="43.16003" lon="6.49094">
        <ele>273.6</ele>
        <time>2024-02-04T09:52:43Z</time>
      </trkpt>
      <trkpt lat="43.16003" lon="6.49094">
        <ele>273.6</ele>
        <time>2024-02-04T09:52:44Z</time>
      </trkpt>
      <trkpt lat="43.16003" lon="6.49094">
        <ele>273.5</ele>
        <time>2024-02-04T09:52:45Z</time>
      </trkpt>
      <trkpt lat="43.16003" lon="6.49094">
        <ele>273.5</ele>
        <time>2024-02-04T09:52:46Z</time>
      </trkpt>
      <trkpt lat="43.16003" lon="6.49094">
        <ele>273.5</ele>
        <time>2024-02-04T09:52:47Z</time>
      </trkpt>
      <trkpt lat="43.16004" lon="6.49094">
        <ele>273.4</ele>
        <time>2024-02-04T09:52:48Z</time>
      </trkpt>
      <trkpt lat="43.16004" lon="6.49094">
        <ele>273.4</ele>
        <time>2024-02-04T09:52:49Z</time>
      </trkpt>
      <trkpt lat="43.16004" lon="6.49094">
        <ele>273.4</ele>
        <time>2024-02-04T09:52:50Z</time>
      </trkpt>
      <trkpt lat="43.16005" lon="6.49094">
        <ele>273.5</ele>
        <time>2024-02-04T09:52:51Z</time>
      </trkpt>
      <trkpt lat="43.16005" lon="6.49094">
        <ele>273.5</ele>
        <time>2024-02-04T09:52:52Z</time>
      </trkpt>
      <trkpt lat="43.16005" lon="6.49094">
        <ele>273.6</ele>
        <time>2024-02-04T09:52:53Z</time>
      </trkpt>
      <trkpt lat="43.16005" lon="6.49094">
        <ele>273.6</ele>
        <time>2024-02-04T09:52:54Z</time>
      </trkpt>
      <trkpt lat="43.16005" lon="6.49094">
        <ele>273.6</ele>
        <time>2024-02-04T09:52:55Z</time>
      </trkpt>
      <trkpt lat="43.16005" lon="6.49094">
        <ele>273.5</ele>
        <time>2024-02-04T09:52:56Z</time>
      </trkpt>
      <trkpt lat="43.16005" lon="6.49094">
        <ele>273.5</ele>
        <time>2024-02-04T09:52:57Z</time>
      </trkpt>
      <trkpt lat="43.16005" lon="6.49094">
        <ele>273.5</ele>
        <time>2024-02-04T09:52:58Z</time>
      </trkpt>
      <trkpt lat="43.16005" lon="6.49094">
        <ele>273.5</ele>
        <time>2024-02-04T09:52:59Z</time>
      </trkpt>
      <trkpt lat="43.16005" lon="6.49094">
        <ele>273.4</ele>
        <time>2024-02-04T09:53:00Z</time>
      </trkpt>
      <trkpt lat="43.16005" lon="6.49094">
        <ele>273.4</ele>
        <time>2024-02-04T09:53:01Z</time>
      </trkpt>
      <trkpt lat="43.16006" lon="6.49094">
        <ele>273.4</ele>
        <time>2024-02-04T09:53:02Z</time>
      </trkpt>
      <trkpt lat="43.16006" lon="6.49094">
        <ele>273.3</ele>
        <time>2024-02-04T09:53:03Z</time>
      </trkpt>
      <trkpt lat="43.16005" lon="6.49094">
        <ele>273.3</ele>
        <time>2024-02-04T09:53:04Z</time>
      </trkpt>
      <trkpt lat="43.16006" lon="6.49095">
        <ele>273.3</ele>
        <time>2024-02-04T09:53:05Z</time>
      </trkpt>
      <trkpt lat="43.16006" lon="6.49095">
        <ele>273.3</ele>
        <time>2024-02-04T09:53:06Z</time>
      </trkpt>
      <trkpt lat="43.16007" lon="6.49096">
        <ele>273.3</ele>
        <time>2024-02-04T09:53:07Z</time>
      </trkpt>
      <trkpt lat="43.16008" lon="6.49096">
        <ele>273.3</ele>
        <time>2024-02-04T09:53:08Z</time>
      </trkpt>
      <trkpt lat="43.16008" lon="6.49097">
        <ele>273.4</ele>
        <time>2024-02-04T09:53:09Z</time>
      </trkpt>
      <trkpt lat="43.16008" lon="6.49097">
        <ele>273.5</ele>
        <time>2024-02-04T09:53:10Z</time>
      </trkpt>
      <trkpt lat="43.16008" lon="6.49097">
        <ele>273.6</ele>
        <time>2024-02-04T09:53:11Z</time>
      </trkpt>
      <trkpt lat="43.16008" lon="6.49097">
        <ele>273.7</ele>
        <time>2024-02-04T09:53:12Z</time>
      </trkpt>
      <trkpt lat="43.16008" lon="6.49097">
        <ele>273.7</ele>
        <time>2024-02-04T09:53:13Z</time>
      </trkpt>
      <trkpt lat="43.16009" lon="6.49097">
        <ele>273.8</ele>
        <time>2024-02-04T09:53:14Z</time>
      </trkpt>
      <trkpt lat="43.16009" lon="6.49096">
        <ele>273.7</ele>
        <time>2024-02-04T09:53:15Z</time>
      </trkpt>
      <trkpt lat="43.16009" lon="6.49096">
        <ele>273.6</ele>
        <time>2024-02-04T09:53:16Z</time>
      </trkpt>
      <trkpt lat="43.16009" lon="6.49096">
        <ele>273.6</ele>
        <time>2024-02-04T09:53:17Z</time>
      </trkpt>
      <trkpt lat="43.16009" lon="6.49096">
        <ele>273.6</ele>
        <time>2024-02-04T09:53:18Z</time>
      </trkpt>
      <trkpt lat="43.16009" lon="6.49096">
        <ele>273.6</ele>
        <time>2024-02-04T09:53:19Z</time>
      </trkpt>
      <trkpt lat="43.16009" lon="6.49096">
        <ele>273.6</ele>
        <time>2024-02-04T09:53:20Z</time>
      </trkpt>
      <trkpt lat="43.16009" lon="6.49096">
        <ele>273.8</ele>
        <time>2024-02-04T09:53:21Z</time>
      </trkpt>
      <trkpt lat="43.16009" lon="6.49096">
        <ele>273.8</ele>
        <time>2024-02-04T09:53:22Z</time>
      </trkpt>
      <trkpt lat="43.16009" lon="6.49096">
        <ele>273.9</ele>
        <time>2024-02-04T09:53:23Z</time>
      </trkpt>
      <trkpt lat="43.16009" lon="6.49096">
        <ele>273.9</ele>
        <time>2024-02-04T09:53:24Z</time>
      </trkpt>
      <trkpt lat="43.16009" lon="6.49096">
        <ele>273.9</ele>
        <time>2024-02-04T09:53:25Z</time>
      </trkpt>
      <trkpt lat="43.1601" lon="6.49096">
        <ele>273.9</ele>
        <time>2024-02-04T09:53:26Z</time>
      </trkpt>
      <trkpt lat="43.1601" lon="6.49096">
        <ele>273.9</ele>
        <time>2024-02-04T09:53:27Z</time>
      </trkpt>
      <trkpt lat="43.1601" lon="6.49096">
        <ele>273.9</ele>
        <time>2024-02-04T09:53:28Z</time>
      </trkpt>
      <trkpt lat="43.1601" lon="6.49096">
        <ele>273.9</ele>
        <time>2024-02-04T09:53:29Z</time>
      </trkpt>
      <trkpt lat="43.1601" lon="6.49096">
        <ele>273.9</ele>
        <time>2024-02-04T09:53:30Z</time>
      </trkpt>
      <trkpt lat="43.1601" lon="6.49096">
        <ele>273.9</ele>
        <time>2024-02-04T09:53:31Z</time>
      </trkpt>
      <trkpt lat="43.1601" lon="6.49096">
        <ele>273.9</ele>
        <time>2024-02-04T09:53:32Z</time>
      </trkpt>
      <trkpt lat="43.1601" lon="6.49096">
        <ele>273.8</ele>
        <time>2024-02-04T09:53:33Z</time>
      </trkpt>
      <trkpt lat="43.1601" lon="6.49096">
        <ele>273.9</ele>
        <time>2024-02-04T09:53:34Z</time>
      </trkpt>
      <trkpt lat="43.1601" lon="6.49096">
        <ele>273.9</ele>
        <time>2024-02-04T09:53:35Z</time>
      </trkpt>
      <trkpt lat="43.1601" lon="6.49096">
        <ele>273.9</ele>
        <time>2024-02-04T09:53:36Z</time>
      </trkpt>
      <trkpt lat="43.1601" lon="6.49096">
        <ele>273.9</ele>
        <time>2024-02-04T09:53:37Z</time>
      </trkpt>
      <trkpt lat="43.1601" lon="6.49096">
        <ele>273.8</ele>
        <time>2024-02-04T09:53:38Z</time>
      </trkpt>
      <trkpt lat="43.1601" lon="6.49096">
        <ele>273.8</ele>
        <time>2024-02-04T09:53:39Z</time>
      </trkpt>
      <trkpt lat="43.1601" lon="6.49096">
        <ele>273.8</ele>
        <time>2024-02-04T09:53:40Z</time>
      </trkpt>
      <trkpt lat="43.16011" lon="6.49096">
        <ele>273.9</ele>
        <time>2024-02-04T09:53:41Z</time>
      </trkpt>
      <trkpt lat="43.16011" lon="6.49095">
        <ele>273.9</ele>
        <time>2024-02-04T09:53:42Z</time>
      </trkpt>
      <trkpt lat="43.16011" lon="6.49095">
        <ele>273.8</ele>
        <time>2024-02-04T09:53:43Z</time>
      </trkpt>
      <trkpt lat="43.16011" lon="6.49095">
        <ele>273.8</ele>
        <time>2024-02-04T09:53:44Z</time>
      </trkpt>
      <trkpt lat="43.16011" lon="6.49095">
        <ele>273.9</ele>
        <time>2024-02-04T09:53:45Z</time>
      </trkpt>
      <trkpt lat="43.16012" lon="6.49095">
        <ele>273.9</ele>
        <time>2024-02-04T09:53:46Z</time>
      </trkpt>
      <trkpt lat="43.16012" lon="6.49095">
        <ele>273.9</ele>
        <time>2024-02-04T09:53:47Z</time>
      </trkpt>
      <trkpt lat="43.16012" lon="6.49095">
        <ele>273.9</ele>
        <time>2024-02-04T09:53:48Z</time>
      </trkpt>
      <trkpt lat="43.16012" lon="6.49095">
        <ele>273.9</ele>
        <time>2024-02-04T09:53:49Z</time>
      </trkpt>
      <trkpt lat="43.16013" lon="6.49095">
        <ele>273.8</ele>
        <time>2024-02-04T09:53:50Z</time>
      </trkpt>
      <trkpt lat="43.16013" lon="6.49095">
        <ele>273.8</ele>
        <time>2024-02-04T09:53:51Z</time>
      </trkpt>
      <trkpt lat="43.16013" lon="6.49095">
        <ele>273.9</ele>
        <time>2024-02-04T09:53:52Z</time>
      </trkpt>
      <trkpt lat="43.16013" lon="6.49095">
        <ele>273.9</ele>
        <time>2024-02-04T09:53:53Z</time>
      </trkpt>
      <trkpt lat="43.16013" lon="6.49095">
        <ele>273.8</ele>
        <time>2024-02-04T09:53:54Z</time>
      </trkpt>
      <trkpt lat="43.16014" lon="6.49095">
        <ele>273.8</ele>
        <time>2024-02-04T09:53:55Z</time>
      </trkpt>
      <trkpt lat="43.16014" lon="6.49094">
        <ele>273.8</ele>
        <time>2024-02-04T09:53:56Z</time>
      </trkpt>
      <trkpt lat="43.16014" lon="6.49095">
        <ele>273.8</ele>
        <time>2024-02-04T09:53:57Z</time>
      </trkpt>
      <trkpt lat="43.16014" lon="6.49095">
        <ele>273.8</ele>
        <time>2024-02-04T09:53:58Z</time>
      </trkpt>
      <trkpt lat="43.16015" lon="6.49095">
        <ele>273.9</ele>
        <time>2024-02-04T09:53:59Z</time>
      </trkpt>
      <trkpt lat="43.16015" lon="6.49097">
        <ele>273.9</ele>
        <time>2024-02-04T09:54:00Z</time>
      </trkpt>
      <trkpt lat="43.16015" lon="6.49097">
        <ele>273.9</ele>
        <time>2024-02-04T09:54:01Z</time>
      </trkpt>
      <trkpt lat="43.16016" lon="6.49098">
        <ele>274</ele>
        <time>2024-02-04T09:54:02Z</time>
      </trkpt>
      <trkpt lat="43.16016" lon="6.49099">
        <ele>274</ele>
        <time>2024-02-04T09:54:03Z</time>
      </trkpt>
      <trkpt lat="43.16017" lon="6.491">
        <ele>274.1</ele>
        <time>2024-02-04T09:54:04Z</time>
      </trkpt>
      <trkpt lat="43.16018" lon="6.491">
        <ele>274.2</ele>
        <time>2024-02-04T09:54:05Z</time>
      </trkpt>
      <trkpt lat="43.16018" lon="6.49101">
        <ele>274.2</ele>
        <time>2024-02-04T09:54:06Z</time>
      </trkpt>
      <trkpt lat="43.16019" lon="6.49101">
        <ele>274.3</ele>
        <time>2024-02-04T09:54:07Z</time>
      </trkpt>
      <trkpt lat="43.1602" lon="6.49102">
        <ele>274.4</ele>
        <time>2024-02-04T09:54:08Z</time>
      </trkpt>
      <trkpt lat="43.1602" lon="6.49102">
        <ele>274.6</ele>
        <time>2024-02-04T09:54:09Z</time>
      </trkpt>
      <trkpt lat="43.16021" lon="6.49103">
        <ele>274.8</ele>
        <time>2024-02-04T09:54:10Z</time>
      </trkpt>
      <trkpt lat="43.16022" lon="6.49104">
        <ele>274.9</ele>
        <time>2024-02-04T09:54:11Z</time>
      </trkpt>
      <trkpt lat="43.16023" lon="6.49104">
        <ele>275</ele>
        <time>2024-02-04T09:54:12Z</time>
      </trkpt>
      <trkpt lat="43.16024" lon="6.49105">
        <ele>275.2</ele>
        <time>2024-02-04T09:54:13Z</time>
      </trkpt>
      <trkpt lat="43.16024" lon="6.49105">
        <ele>275.4</ele>
        <time>2024-02-04T09:54:14Z</time>
      </trkpt>
      <trkpt lat="43.16025" lon="6.49105">
        <ele>275.6</ele>
        <time>2024-02-04T09:54:15Z</time>
      </trkpt>
      <trkpt lat="43.16026" lon="6.49105">
        <ele>275.7</ele>
        <time>2024-02-04T09:54:16Z</time>
      </trkpt>
      <trkpt lat="43.16026" lon="6.49106">
        <ele>275.9</ele>
        <time>2024-02-04T09:54:17Z</time>
      </trkpt>
      <trkpt lat="43.16027" lon="6.49107">
        <ele>276.1</ele>
        <time>2024-02-04T09:54:18Z</time>
      </trkpt>
      <trkpt lat="43.16028" lon="6.49107">
        <ele>276.3</ele>
        <time>2024-02-04T09:54:19Z</time>
      </trkpt>
      <trkpt lat="43.16029" lon="6.49108">
        <ele>276.5</ele>
        <time>2024-02-04T09:54:20Z</time>
      </trkpt>
      <trkpt lat="43.1603" lon="6.49107">
        <ele>276.7</ele>
        <time>2024-02-04T09:54:21Z</time>
      </trkpt>
      <trkpt lat="43.1603" lon="6.49106">
        <ele>276.9</ele>
        <time>2024-02-04T09:54:22Z</time>
      </trkpt>
      <trkpt lat="43.1603" lon="6.49107">
        <ele>277.1</ele>
        <time>2024-02-04T09:54:23Z</time>
      </trkpt>
      <trkpt lat="43.16032" lon="6.49107">
        <ele>277.3</ele>
        <time>2024-02-04T09:54:24Z</time>
      </trkpt>
      <trkpt lat="43.16032" lon="6.49107">
        <ele>277.5</ele>
        <time>2024-02-04T09:54:25Z</time>
      </trkpt>
      <trkpt lat="43.16032" lon="6.49108">
        <ele>277.7</ele>
        <time>2024-02-04T09:54:26Z</time>
      </trkpt>
      <trkpt lat="43.16033" lon="6.49108">
        <ele>278</ele>
        <time>2024-02-04T09:54:27Z</time>
      </trkpt>
      <trkpt lat="43.16034" lon="6.49108">
        <ele>278.1</ele>
        <time>2024-02-04T09:54:28Z</time>
      </trkpt>
      <trkpt lat="43.16035" lon="6.49109">
        <ele>278.4</ele>
        <time>2024-02-04T09:54:29Z</time>
      </trkpt>
      <trkpt lat="43.16036" lon="6.4911">
        <ele>278.7</ele>
        <time>2024-02-04T09:54:30Z</time>
      </trkpt>
      <trkpt lat="43.16036" lon="6.4911">
        <ele>278.8</ele>
        <time>2024-02-04T09:54:31Z</time>
      </trkpt>
      <trkpt lat="43.16037" lon="6.4911">
        <ele>278.9</ele>
        <time>2024-02-04T09:54:32Z</time>
      </trkpt>
      <trkpt lat="43.16038" lon="6.4911">
        <ele>279</ele>
        <time>2024-02-04T09:54:33Z</time>
      </trkpt>
      <trkpt lat="43.16039" lon="6.4911">
        <ele>279.1</ele>
        <time>2024-02-04T09:54:34Z</time>
      </trkpt>
      <trkpt lat="43.16041" lon="6.4911">
        <ele>279.2</ele>
        <time>2024-02-04T09:54:35Z</time>
      </trkpt>
      <trkpt lat="43.16041" lon="6.4911">
        <ele>279.4</ele>
        <time>2024-02-04T09:54:36Z</time>
      </trkpt>
      <trkpt lat="43.16042" lon="6.4911">
        <ele>279.5</ele>
        <time>2024-02-04T09:54:37Z</time>
      </trkpt>
      <trkpt lat="43.16043" lon="6.49109">
        <ele>279.7</ele>
        <time>2024-02-04T09:54:38Z</time>
      </trkpt>
      <trkpt lat="43.16044" lon="6.49109">
        <ele>279.8</ele>
        <time>2024-02-04T09:54:39Z</time>
      </trkpt>
      <trkpt lat="43.16045" lon="6.49109">
        <ele>280</ele>
        <time>2024-02-04T09:54:40Z</time>
      </trkpt>
      <trkpt lat="43.16046" lon="6.49109">
        <ele>280.2</ele>
        <time>2024-02-04T09:54:41Z</time>
      </trkpt>
      <trkpt lat="43.16047" lon="6.49109">
        <ele>280.4</ele>
        <time>2024-02-04T09:54:42Z</time>
      </trkpt>
      <trkpt lat="43.16047" lon="6.49109">
        <ele>280.6</ele>
        <time>2024-02-04T09:54:43Z</time>
      </trkpt>
      <trkpt lat="43.16048" lon="6.49108">
        <ele>280.8</ele>
        <time>2024-02-04T09:54:44Z</time>
      </trkpt>
      <trkpt lat="43.16049" lon="6.49108">
        <ele>281</ele>
        <time>2024-02-04T09:54:45Z</time>
      </trkpt>
      <trkpt lat="43.16049" lon="6.49108">
        <ele>281</ele>
        <time>2024-02-04T09:54:46Z</time>
      </trkpt>
      <trkpt lat="43.16049" lon="6.49108">
        <ele>281</ele>
        <time>2024-02-04T09:54:47Z</time>
      </trkpt>
      <trkpt lat="43.1605" lon="6.49107">
        <ele>281.2</ele>
        <time>2024-02-04T09:54:48Z</time>
      </trkpt>
      <trkpt lat="43.16051" lon="6.49107">
        <ele>281.2</ele>
        <time>2024-02-04T09:54:49Z</time>
      </trkpt>
      <trkpt lat="43.16051" lon="6.49107">
        <ele>281.3</ele>
        <time>2024-02-04T09:54:50Z</time>
      </trkpt>
      <trkpt lat="43.16051" lon="6.49107">
        <ele>281.4</ele>
        <time>2024-02-04T09:54:51Z</time>
      </trkpt>
      <trkpt lat="43.16052" lon="6.49107">
        <ele>281.4</ele>
        <time>2024-02-04T09:54:52Z</time>
      </trkpt>
      <trkpt lat="43.16052" lon="6.49107">
        <ele>281.4</ele>
        <time>2024-02-04T09:54:53Z</time>
      </trkpt>
      <trkpt lat="43.16052" lon="6.49107">
        <ele>281.5</ele>
        <time>2024-02-04T09:54:54Z</time>
      </trkpt>
      <trkpt lat="43.16052" lon="6.49107">
        <ele>281.5</ele>
        <time>2024-02-04T09:54:55Z</time>
      </trkpt>
      <trkpt lat="43.16052" lon="6.49107">
        <ele>281.5</ele>
        <time>2024-02-04T09:54:56Z</time>
      </trkpt>
      <trkpt lat="43.16052" lon="6.49107">
        <ele>281.6</ele>
        <time>2024-02-04T09:54:57Z</time>
      </trkpt>
      <trkpt lat="43.16052" lon="6.49106">
        <ele>281.6</ele>
        <time>2024-02-04T09:54:58Z</time>
      </trkpt>
      <trkpt lat="43.16053" lon="6.49106">
        <ele>281.7</ele>
        <time>2024-02-04T09:54:59Z</time>
      </trkpt>
      <trkpt lat="43.16053" lon="6.49106">
        <ele>281.7</ele>
        <time>2024-02-04T09:55:00Z</time>
      </trkpt>
      <trkpt lat="43.16053" lon="6.49106">
        <ele>281.7</ele>
        <time>2024-02-04T09:55:01Z</time>
      </trkpt>
      <trkpt lat="43.16053" lon="6.49106">
        <ele>281.7</ele>
        <time>2024-02-04T09:55:02Z</time>
      </trkpt>
      <trkpt lat="43.16053" lon="6.49105">
        <ele>281.7</ele>
        <time>2024-02-04T09:55:03Z</time>
      </trkpt>
      <trkpt lat="43.16053" lon="6.49105">
        <ele>281.7</ele>
        <time>2024-02-04T09:55:04Z</time>
      </trkpt>
      <trkpt lat="43.16054" lon="6.49105">
        <ele>281.7</ele>
        <time>2024-02-04T09:55:05Z</time>
      </trkpt>
      <trkpt lat="43.16054" lon="6.49105">
        <ele>281.8</ele>
        <time>2024-02-04T09:55:06Z</time>
      </trkpt>
      <trkpt lat="43.16054" lon="6.49105">
        <ele>281.8</ele>
        <time>2024-02-04T09:55:07Z</time>
      </trkpt>
      <trkpt lat="43.16054" lon="6.49105">
        <ele>281.8</ele>
        <time>2024-02-04T09:55:08Z</time>
      </trkpt>
      <trkpt lat="43.16054" lon="6.49105">
        <ele>281.8</ele>
        <time>2024-02-04T09:55:09Z</time>
      </trkpt>
      <trkpt lat="43.16054" lon="6.49105">
        <ele>281.8</ele>
        <time>2024-02-04T09:55:10Z</time>
      </trkpt>
      <trkpt lat="43.16054" lon="6.49105">
        <ele>281.7</ele>
        <time>2024-02-04T09:55:11Z</time>
      </trkpt>
      <trkpt lat="43.16054" lon="6.49105">
        <ele>281.8</ele>
        <time>2024-02-04T09:55:12Z</time>
      </trkpt>
      <trkpt lat="43.16054" lon="6.49105">
        <ele>281.8</ele>
        <time>2024-02-04T09:55:13Z</time>
      </trkpt>
      <trkpt lat="43.16054" lon="6.49106">
        <ele>281.9</ele>
        <time>2024-02-04T09:55:14Z</time>
      </trkpt>
      <trkpt lat="43.16054" lon="6.49106">
        <ele>281.8</ele>
        <time>2024-02-04T09:55:15Z</time>
      </trkpt>
      <trkpt lat="43.16054" lon="6.49106">
        <ele>281.7</ele>
        <time>2024-02-04T09:55:16Z</time>
      </trkpt>
      <trkpt lat="43.16054" lon="6.49106">
        <ele>281.7</ele>
        <time>2024-02-04T09:55:17Z</time>
      </trkpt>
      <trkpt lat="43.16054" lon="6.49106">
        <ele>281.7</ele>
        <time>2024-02-04T09:55:18Z</time>
      </trkpt>
      <trkpt lat="43.16055" lon="6.49105">
        <ele>281.7</ele>
        <time>2024-02-04T09:55:19Z</time>
      </trkpt>
      <trkpt lat="43.16055" lon="6.49105">
        <ele>281.7</ele>
        <time>2024-02-04T09:55:20Z</time>
      </trkpt>
      <trkpt lat="43.16055" lon="6.49104">
        <ele>281.7</ele>
        <time>2024-02-04T09:55:21Z</time>
      </trkpt>
      <trkpt lat="43.16055" lon="6.49104">
        <ele>281.7</ele>
        <time>2024-02-04T09:55:22Z</time>
      </trkpt>
      <trkpt lat="43.16056" lon="6.49104">
        <ele>281.8</ele>
        <time>2024-02-04T09:55:23Z</time>
      </trkpt>
      <trkpt lat="43.16056" lon="6.49104">
        <ele>281.8</ele>
        <time>2024-02-04T09:55:24Z</time>
      </trkpt>
      <trkpt lat="43.16056" lon="6.49103">
        <ele>281.8</ele>
        <time>2024-02-04T09:55:25Z</time>
      </trkpt>
      <trkpt lat="43.16056" lon="6.49103">
        <ele>281.7</ele>
        <time>2024-02-04T09:55:26Z</time>
      </trkpt>
      <trkpt lat="43.16056" lon="6.49103">
        <ele>281.7</ele>
        <time>2024-02-04T09:55:27Z</time>
      </trkpt>
      <trkpt lat="43.16057" lon="6.49102">
        <ele>281.6</ele>
        <time>2024-02-04T09:55:28Z</time>
      </trkpt>
      <trkpt lat="43.16057" lon="6.49102">
        <ele>281.6</ele>
        <time>2024-02-04T09:55:29Z</time>
      </trkpt>
      <trkpt lat="43.16057" lon="6.49102">
        <ele>281.5</ele>
        <time>2024-02-04T09:55:30Z</time>
      </trkpt>
      <trkpt lat="43.16057" lon="6.49102">
        <ele>281.4</ele>
        <time>2024-02-04T09:55:31Z</time>
      </trkpt>
      <trkpt lat="43.16057" lon="6.49102">
        <ele>281.5</ele>
        <time>2024-02-04T09:55:32Z</time>
      </trkpt>
      <trkpt lat="43.16057" lon="6.49102">
        <ele>281.6</ele>
        <time>2024-02-04T09:55:33Z</time>
      </trkpt>
      <trkpt lat="43.16057" lon="6.49102">
        <ele>281.5</ele>
        <time>2024-02-04T09:55:34Z</time>
      </trkpt>
      <trkpt lat="43.16057" lon="6.49102">
        <ele>281.5</ele>
        <time>2024-02-04T09:55:35Z</time>
      </trkpt>
      <trkpt lat="43.16057" lon="6.49102">
        <ele>281.5</ele>
        <time>2024-02-04T09:55:36Z</time>
      </trkpt>
      <trkpt lat="43.16057" lon="6.49102">
        <ele>281.5</ele>
        <time>2024-02-04T09:55:37Z</time>
      </trkpt>
      <trkpt lat="43.16057" lon="6.49101">
        <ele>281.6</ele>
        <time>2024-02-04T09:55:38Z</time>
      </trkpt>
      <trkpt lat="43.16057" lon="6.49101">
        <ele>281.6</ele>
        <time>2024-02-04T09:55:39Z</time>
      </trkpt>
      <trkpt lat="43.16056" lon="6.49101">
        <ele>281.6</ele>
        <time>2024-02-04T09:55:40Z</time>
      </trkpt>
      <trkpt lat="43.16056" lon="6.49101">
        <ele>281.5</ele>
        <time>2024-02-04T09:55:41Z</time>
      </trkpt>
      <trkpt lat="43.16056" lon="6.49101">
        <ele>281.5</ele>
        <time>2024-02-04T09:55:42Z</time>
      </trkpt>
      <trkpt lat="43.16056" lon="6.49101">
        <ele>281.5</ele>
        <time>2024-02-04T09:55:43Z</time>
      </trkpt>
      <trkpt lat="43.16056" lon="6.49101">
        <ele>281.4</ele>
        <time>2024-02-04T09:55:44Z</time>
      </trkpt>
      <trkpt lat="43.16056" lon="6.49101">
        <ele>281.4</ele>
        <time>2024-02-04T09:55:45Z</time>
      </trkpt>
      <trkpt lat="43.16056" lon="6.49101">
        <ele>281.4</ele>
        <time>2024-02-04T09:55:46Z</time>
      </trkpt>
      <trkpt lat="43.16056" lon="6.49101">
        <ele>281.4</ele>
        <time>2024-02-04T09:55:47Z</time>
      </trkpt>
      <trkpt lat="43.16056" lon="6.49101">
        <ele>281.4</ele>
        <time>2024-02-04T09:55:48Z</time>
      </trkpt>
      <trkpt lat="43.16056" lon="6.49101">
        <ele>281.4</ele>
        <time>2024-02-04T09:55:49Z</time>
      </trkpt>
      <trkpt lat="43.16056" lon="6.49101">
        <ele>281.4</ele>
        <time>2024-02-04T09:55:50Z</time>
      </trkpt>
      <trkpt lat="43.16056" lon="6.49101">
        <ele>281.4</ele>
        <time>2024-02-04T09:55:51Z</time>
      </trkpt>
      <trkpt lat="43.16056" lon="6.49101">
        <ele>281.4</ele>
        <time>2024-02-04T09:55:52Z</time>
      </trkpt>
      <trkpt lat="43.16056" lon="6.49102">
        <ele>281.3</ele>
        <time>2024-02-04T09:55:53Z</time>
      </trkpt>
      <trkpt lat="43.16056" lon="6.49102">
        <ele>281.2</ele>
        <time>2024-02-04T09:55:54Z</time>
      </trkpt>
      <trkpt lat="43.16056" lon="6.49102">
        <ele>281.2</ele>
        <time>2024-02-04T09:55:55Z</time>
      </trkpt>
      <trkpt lat="43.16056" lon="6.49102">
        <ele>281.2</ele>
        <time>2024-02-04T09:55:56Z</time>
      </trkpt>
      <trkpt lat="43.16055" lon="6.49102">
        <ele>281.2</ele>
        <time>2024-02-04T09:55:57Z</time>
      </trkpt>
      <trkpt lat="43.16055" lon="6.49103">
        <ele>281.2</ele>
        <time>2024-02-04T09:55:58Z</time>
      </trkpt>
      <trkpt lat="43.16055" lon="6.49104">
        <ele>281.4</ele>
        <time>2024-02-04T09:55:59Z</time>
      </trkpt>
      <trkpt lat="43.16055" lon="6.49104">
        <ele>281.4</ele>
        <time>2024-02-04T09:56:00Z</time>
      </trkpt>
      <trkpt lat="43.16056" lon="6.49105">
        <ele>281.4</ele>
        <time>2024-02-04T09:56:01Z</time>
      </trkpt>
      <trkpt lat="43.16056" lon="6.49105">
        <ele>281.5</ele>
        <time>2024-02-04T09:56:02Z</time>
      </trkpt>
      <trkpt lat="43.16057" lon="6.49105">
        <ele>281.5</ele>
        <time>2024-02-04T09:56:03Z</time>
      </trkpt>
      <trkpt lat="43.16057" lon="6.49105">
        <ele>281.6</ele>
        <time>2024-02-04T09:56:04Z</time>
      </trkpt>
      <trkpt lat="43.16058" lon="6.49105">
        <ele>281.7</ele>
        <time>2024-02-04T09:56:05Z</time>
      </trkpt>
      <trkpt lat="43.16059" lon="6.49105">
        <ele>281.7</ele>
        <time>2024-02-04T09:56:06Z</time>
      </trkpt>
      <trkpt lat="43.16059" lon="6.49105">
        <ele>281.8</ele>
        <time>2024-02-04T09:56:07Z</time>
      </trkpt>
      <trkpt lat="43.1606" lon="6.49105">
        <ele>281.9</ele>
        <time>2024-02-04T09:56:08Z</time>
      </trkpt>
      <trkpt lat="43.16061" lon="6.49105">
        <ele>282</ele>
        <time>2024-02-04T09:56:09Z</time>
      </trkpt>
      <trkpt lat="43.16062" lon="6.49104">
        <ele>282.2</ele>
        <time>2024-02-04T09:56:10Z</time>
      </trkpt>
      <trkpt lat="43.16063" lon="6.49104">
        <ele>282.3</ele>
        <time>2024-02-04T09:56:11Z</time>
      </trkpt>
      <trkpt lat="43.16063" lon="6.49105">
        <ele>282.5</ele>
        <time>2024-02-04T09:56:12Z</time>
      </trkpt>
      <trkpt lat="43.16064" lon="6.49105">
        <ele>282.6</ele>
        <time>2024-02-04T09:56:13Z</time>
      </trkpt>
      <trkpt lat="43.16065" lon="6.49104">
        <ele>282.7</ele>
        <time>2024-02-04T09:56:14Z</time>
      </trkpt>
      <trkpt lat="43.16065" lon="6.49104">
        <ele>282.9</ele>
        <time>2024-02-04T09:56:15Z</time>
      </trkpt>
      <trkpt lat="43.16065" lon="6.49105">
        <ele>283</ele>
        <time>2024-02-04T09:56:16Z</time>
      </trkpt>
      <trkpt lat="43.16065" lon="6.49106">
        <ele>283.1</ele>
        <time>2024-02-04T09:56:17Z</time>
      </trkpt>
      <trkpt lat="43.16066" lon="6.49106">
        <ele>283.1</ele>
        <time>2024-02-04T09:56:18Z</time>
      </trkpt>
      <trkpt lat="43.16066" lon="6.49106">
        <ele>283.2</ele>
        <time>2024-02-04T09:56:19Z</time>
      </trkpt>
      <trkpt lat="43.16067" lon="6.49106">
        <ele>283.3</ele>
        <time>2024-02-04T09:56:20Z</time>
      </trkpt>
      <trkpt lat="43.16068" lon="6.49106">
        <ele>283.4</ele>
        <time>2024-02-04T09:56:21Z</time>
      </trkpt>
      <trkpt lat="43.16069" lon="6.49107">
        <ele>283.5</ele>
        <time>2024-02-04T09:56:22Z</time>
      </trkpt>
      <trkpt lat="43.1607" lon="6.49107">
        <ele>283.6</ele>
        <time>2024-02-04T09:56:23Z</time>
      </trkpt>
      <trkpt lat="43.1607" lon="6.49107">
        <ele>283.7</ele>
        <time>2024-02-04T09:56:24Z</time>
      </trkpt>
      <trkpt lat="43.16072" lon="6.49107">
        <ele>283.8</ele>
        <time>2024-02-04T09:56:25Z</time>
      </trkpt>
      <trkpt lat="43.16072" lon="6.49107">
        <ele>284</ele>
        <time>2024-02-04T09:56:26Z</time>
      </trkpt>
      <trkpt lat="43.16073" lon="6.49108">
        <ele>284</ele>
        <time>2024-02-04T09:56:27Z</time>
      </trkpt>
      <trkpt lat="43.16074" lon="6.49108">
        <ele>284.2</ele>
        <time>2024-02-04T09:56:28Z</time>
      </trkpt>
      <trkpt lat="43.16075" lon="6.49108">
        <ele>284.3</ele>
        <time>2024-02-04T09:56:29Z</time>
      </trkpt>
      <trkpt lat="43.16076" lon="6.49108">
        <ele>284.3</ele>
        <time>2024-02-04T09:56:30Z</time>
      </trkpt>
      <trkpt lat="43.16078" lon="6.49108">
        <ele>284.5</ele>
        <time>2024-02-04T09:56:31Z</time>
      </trkpt>
      <trkpt lat="43.16079" lon="6.49108">
        <ele>284.5</ele>
        <time>2024-02-04T09:56:32Z</time>
      </trkpt>
      <trkpt lat="43.16081" lon="6.49108">
        <ele>284.6</ele>
        <time>2024-02-04T09:56:33Z</time>
      </trkpt>
      <trkpt lat="43.16082" lon="6.49108">
        <ele>284.8</ele>
        <time>2024-02-04T09:56:34Z</time>
      </trkpt>
      <trkpt lat="43.16083" lon="6.49107">
        <ele>284.8</ele>
        <time>2024-02-04T09:56:35Z</time>
      </trkpt>
      <trkpt lat="43.16084" lon="6.49107">
        <ele>285</ele>
        <time>2024-02-04T09:56:36Z</time>
      </trkpt>
      <trkpt lat="43.16084" lon="6.49108">
        <ele>285.1</ele>
        <time>2024-02-04T09:56:37Z</time>
      </trkpt>
      <trkpt lat="43.16085" lon="6.49108">
        <ele>285.2</ele>
        <time>2024-02-04T09:56:38Z</time>
      </trkpt>
      <trkpt lat="43.16087" lon="6.49108">
        <ele>285.2</ele>
        <time>2024-02-04T09:56:39Z</time>
      </trkpt>
      <trkpt lat="43.16088" lon="6.49108">
        <ele>285.3</ele>
        <time>2024-02-04T09:56:40Z</time>
      </trkpt>
      <trkpt lat="43.16089" lon="6.49108">
        <ele>285.4</ele>
        <time>2024-02-04T09:56:41Z</time>
      </trkpt>
      <trkpt lat="43.16091" lon="6.49109">
        <ele>285.5</ele>
        <time>2024-02-04T09:56:42Z</time>
      </trkpt>
      <trkpt lat="43.16092" lon="6.49109">
        <ele>285.5</ele>
        <time>2024-02-04T09:56:43Z</time>
      </trkpt>
      <trkpt lat="43.16093" lon="6.49109">
        <ele>285.6</ele>
        <time>2024-02-04T09:56:44Z</time>
      </trkpt>
      <trkpt lat="43.16094" lon="6.49109">
        <ele>285.6</ele>
        <time>2024-02-04T09:56:45Z</time>
      </trkpt>
      <trkpt lat="43.16095" lon="6.49109">
        <ele>285.7</ele>
        <time>2024-02-04T09:56:46Z</time>
      </trkpt>
      <trkpt lat="43.16096" lon="6.49109">
        <ele>285.8</ele>
        <time>2024-02-04T09:56:47Z</time>
      </trkpt>
      <trkpt lat="43.16097" lon="6.49109">
        <ele>285.9</ele>
        <time>2024-02-04T09:56:48Z</time>
      </trkpt>
      <trkpt lat="43.16098" lon="6.49109">
        <ele>286.1</ele>
        <time>2024-02-04T09:56:49Z</time>
      </trkpt>
      <trkpt lat="43.16099" lon="6.49109">
        <ele>286.2</ele>
        <time>2024-02-04T09:56:50Z</time>
      </trkpt>
      <trkpt lat="43.16101" lon="6.4911">
        <ele>286.3</ele>
        <time>2024-02-04T09:56:51Z</time>
      </trkpt>
      <trkpt lat="43.16102" lon="6.4911">
        <ele>286.4</ele>
        <time>2024-02-04T09:56:52Z</time>
      </trkpt>
      <trkpt lat="43.16103" lon="6.49111">
        <ele>286.5</ele>
        <time>2024-02-04T09:56:53Z</time>
      </trkpt>
      <trkpt lat="43.16104" lon="6.49111">
        <ele>286.6</ele>
        <time>2024-02-04T09:56:54Z</time>
      </trkpt>
      <trkpt lat="43.16105" lon="6.49112">
        <ele>286.7</ele>
        <time>2024-02-04T09:56:55Z</time>
      </trkpt>
      <trkpt lat="43.16106" lon="6.49113">
        <ele>286.7</ele>
        <time>2024-02-04T09:56:56Z</time>
      </trkpt>
      <trkpt lat="43.16107" lon="6.49113">
        <ele>286.9</ele>
        <time>2024-02-04T09:56:57Z</time>
      </trkpt>
      <trkpt lat="43.16108" lon="6.49114">
        <ele>287</ele>
        <time>2024-02-04T09:56:58Z</time>
      </trkpt>
      <trkpt lat="43.16109" lon="6.49115">
        <ele>287</ele>
        <time>2024-02-04T09:56:59Z</time>
      </trkpt>
      <trkpt lat="43.1611" lon="6.49116">
        <ele>287.1</ele>
        <time>2024-02-04T09:57:00Z</time>
      </trkpt>
      <trkpt lat="43.16111" lon="6.49117">
        <ele>287.2</ele>
        <time>2024-02-04T09:57:01Z</time>
      </trkpt>
      <trkpt lat="43.16112" lon="6.49117">
        <ele>287.2</ele>
        <time>2024-02-04T09:57:02Z</time>
      </trkpt>
      <trkpt lat="43.16113" lon="6.49118">
        <ele>287.2</ele>
        <time>2024-02-04T09:57:03Z</time>
      </trkpt>
      <trkpt lat="43.16114" lon="6.49119">
        <ele>287.3</ele>
        <time>2024-02-04T09:57:04Z</time>
      </trkpt>
      <trkpt lat="43.16115" lon="6.4912">
        <ele>287.3</ele>
        <time>2024-02-04T09:57:05Z</time>
      </trkpt>
      <trkpt lat="43.16115" lon="6.49121">
        <ele>287.3</ele>
        <time>2024-02-04T09:57:06Z</time>
      </trkpt>
      <trkpt lat="43.16116" lon="6.49121">
        <ele>287.3</ele>
        <time>2024-02-04T09:57:07Z</time>
      </trkpt>
      <trkpt lat="43.16117" lon="6.49122">
        <ele>287.3</ele>
        <time>2024-02-04T09:57:08Z</time>
      </trkpt>
      <trkpt lat="43.16118" lon="6.49123">
        <ele>287.4</ele>
        <time>2024-02-04T09:57:09Z</time>
      </trkpt>
      <trkpt lat="43.16118" lon="6.49124">
        <ele>287.4</ele>
        <time>2024-02-04T09:57:10Z</time>
      </trkpt>
      <trkpt lat="43.16119" lon="6.49124">
        <ele>287.5</ele>
        <time>2024-02-04T09:57:11Z</time>
      </trkpt>
      <trkpt lat="43.16119" lon="6.49125">
        <ele>287.6</ele>
        <time>2024-02-04T09:57:12Z</time>
      </trkpt>
      <trkpt lat="43.1612" lon="6.49126">
        <ele>287.6</ele>
        <time>2024-02-04T09:57:13Z</time>
      </trkpt>
      <trkpt lat="43.1612" lon="6.49128">
        <ele>287.6</ele>
        <time>2024-02-04T09:57:14Z</time>
      </trkpt>
      <trkpt lat="43.16121" lon="6.49128">
        <ele>287.5</ele>
        <time>2024-02-04T09:57:15Z</time>
      </trkpt>
      <trkpt lat="43.16122" lon="6.49129">
        <ele>287.5</ele>
        <time>2024-02-04T09:57:16Z</time>
      </trkpt>
      <trkpt lat="43.16123" lon="6.49129">
        <ele>287.5</ele>
        <time>2024-02-04T09:57:17Z</time>
      </trkpt>
      <trkpt lat="43.16123" lon="6.49129">
        <ele>287.5</ele>
        <time>2024-02-04T09:57:18Z</time>
      </trkpt>
      <trkpt lat="43.16124" lon="6.4913">
        <ele>287.5</ele>
        <time>2024-02-04T09:57:19Z</time>
      </trkpt>
      <trkpt lat="43.16125" lon="6.49129">
        <ele>287.4</ele>
        <time>2024-02-04T09:57:20Z</time>
      </trkpt>
      <trkpt lat="43.16126" lon="6.49129">
        <ele>287.3</ele>
        <time>2024-02-04T09:57:21Z</time>
      </trkpt>
      <trkpt lat="43.16127" lon="6.49129">
        <ele>287.2</ele>
        <time>2024-02-04T09:57:22Z</time>
      </trkpt>
      <trkpt lat="43.16128" lon="6.49129">
        <ele>287.2</ele>
        <time>2024-02-04T09:57:23Z</time>
      </trkpt>
      <trkpt lat="43.16129" lon="6.49128">
        <ele>287.1</ele>
        <time>2024-02-04T09:57:24Z</time>
      </trkpt>
      <trkpt lat="43.1613" lon="6.49127">
        <ele>287.1</ele>
        <time>2024-02-04T09:57:25Z</time>
      </trkpt>
      <trkpt lat="43.16131" lon="6.49127">
        <ele>287</ele>
        <time>2024-02-04T09:57:26Z</time>
      </trkpt>
      <trkpt lat="43.16132" lon="6.49126">
        <ele>287</ele>
        <time>2024-02-04T09:57:27Z</time>
      </trkpt>
      <trkpt lat="43.16133" lon="6.49125">
        <ele>286.9</ele>
        <time>2024-02-04T09:57:28Z</time>
      </trkpt>
      <trkpt lat="43.16134" lon="6.49125">
        <ele>286.8</ele>
        <time>2024-02-04T09:57:29Z</time>
      </trkpt>
      <trkpt lat="43.16135" lon="6.49125">
        <ele>286.8</ele>
        <time>2024-02-04T09:57:30Z</time>
      </trkpt>
      <trkpt lat="43.16136" lon="6.49124">
        <ele>286.7</ele>
        <time>2024-02-04T09:57:31Z</time>
      </trkpt>
      <trkpt lat="43.16137" lon="6.49124">
        <ele>286.6</ele>
        <time>2024-02-04T09:57:32Z</time>
      </trkpt>
      <trkpt lat="43.16138" lon="6.49123">
        <ele>286.6</ele>
        <time>2024-02-04T09:57:33Z</time>
      </trkpt>
      <trkpt lat="43.16139" lon="6.49123">
        <ele>286.5</ele>
        <time>2024-02-04T09:57:34Z</time>
      </trkpt>
      <trkpt lat="43.1614" lon="6.49122">
        <ele>286.5</ele>
        <time>2024-02-04T09:57:35Z</time>
      </trkpt>
      <trkpt lat="43.16141" lon="6.49122">
        <ele>286.4</ele>
        <time>2024-02-04T09:57:36Z</time>
      </trkpt>
      <trkpt lat="43.16142" lon="6.49121">
        <ele>286.4</ele>
        <time>2024-02-04T09:57:37Z</time>
      </trkpt>
      <trkpt lat="43.16143" lon="6.49121">
        <ele>286.3</ele>
        <time>2024-02-04T09:57:38Z</time>
      </trkpt>
      <trkpt lat="43.16144" lon="6.49121">
        <ele>286.3</ele>
        <time>2024-02-04T09:57:39Z</time>
      </trkpt>
      <trkpt lat="43.16145" lon="6.4912">
        <ele>286.3</ele>
        <time>2024-02-04T09:57:40Z</time>
      </trkpt>
      <trkpt lat="43.16146" lon="6.4912">
        <ele>286.3</ele>
        <time>2024-02-04T09:57:41Z</time>
      </trkpt>
      <trkpt lat="43.16147" lon="6.4912">
        <ele>286.2</ele>
        <time>2024-02-04T09:57:42Z</time>
      </trkpt>
      <trkpt lat="43.16147" lon="6.49119">
        <ele>286.2</ele>
        <time>2024-02-04T09:57:43Z</time>
      </trkpt>
      <trkpt lat="43.16147" lon="6.49118">
        <ele>286.1</ele>
        <time>2024-02-04T09:57:44Z</time>
      </trkpt>
      <trkpt lat="43.16148" lon="6.49118">
        <ele>286.1</ele>
        <time>2024-02-04T09:57:45Z</time>
      </trkpt>
      <trkpt lat="43.16148" lon="6.49118">
        <ele>286.1</ele>
        <time>2024-02-04T09:57:46Z</time>
      </trkpt>
      <trkpt lat="43.16148" lon="6.49118">
        <ele>286.1</ele>
        <time>2024-02-04T09:57:47Z</time>
      </trkpt>
      <trkpt lat="43.16148" lon="6.49118">
        <ele>286</ele>
        <time>2024-02-04T09:57:48Z</time>
      </trkpt>
      <trkpt lat="43.16148" lon="6.49117">
        <ele>285.9</ele>
        <time>2024-02-04T09:57:49Z</time>
      </trkpt>
      <trkpt lat="43.16148" lon="6.49117">
        <ele>285.9</ele>
        <time>2024-02-04T09:57:50Z</time>
      </trkpt>
      <trkpt lat="43.16149" lon="6.49117">
        <ele>285.9</ele>
        <time>2024-02-04T09:57:51Z</time>
      </trkpt>
      <trkpt lat="43.1615" lon="6.49117">
        <ele>285.9</ele>
        <time>2024-02-04T09:57:52Z</time>
      </trkpt>
      <trkpt lat="43.16151" lon="6.49116">
        <ele>285.8</ele>
        <time>2024-02-04T09:57:53Z</time>
      </trkpt>
      <trkpt lat="43.16152" lon="6.49115">
        <ele>285.7</ele>
        <time>2024-02-04T09:57:54Z</time>
      </trkpt>
      <trkpt lat="43.16152" lon="6.49114">
        <ele>285.7</ele>
        <time>2024-02-04T09:57:55Z</time>
      </trkpt>
      <trkpt lat="43.16153" lon="6.49114">
        <ele>285.6</ele>
        <time>2024-02-04T09:57:56Z</time>
      </trkpt>
      <trkpt lat="43.16154" lon="6.49113">
        <ele>285.6</ele>
        <time>2024-02-04T09:57:57Z</time>
      </trkpt>
      <trkpt lat="43.16155" lon="6.49112">
        <ele>285.5</ele>
        <time>2024-02-04T09:57:58Z</time>
      </trkpt>
      <trkpt lat="43.16156" lon="6.49112">
        <ele>285.4</ele>
        <time>2024-02-04T09:57:59Z</time>
      </trkpt>
      <trkpt lat="43.16157" lon="6.49111">
        <ele>285.3</ele>
        <time>2024-02-04T09:58:00Z</time>
      </trkpt>
      <trkpt lat="43.16158" lon="6.49111">
        <ele>285.2</ele>
        <time>2024-02-04T09:58:01Z</time>
      </trkpt>
      <trkpt lat="43.16159" lon="6.49111">
        <ele>285.1</ele>
        <time>2024-02-04T09:58:02Z</time>
      </trkpt>
      <trkpt lat="43.1616" lon="6.49111">
        <ele>285</ele>
        <time>2024-02-04T09:58:03Z</time>
      </trkpt>
      <trkpt lat="43.1616" lon="6.49111">
        <ele>284.9</ele>
        <time>2024-02-04T09:58:04Z</time>
      </trkpt>
      <trkpt lat="43.16161" lon="6.49111">
        <ele>284.8</ele>
        <time>2024-02-04T09:58:05Z</time>
      </trkpt>
      <trkpt lat="43.16162" lon="6.49111">
        <ele>284.5</ele>
        <time>2024-02-04T09:58:06Z</time>
      </trkpt>
      <trkpt lat="43.16162" lon="6.49111">
        <ele>284.4</ele>
        <time>2024-02-04T09:58:07Z</time>
      </trkpt>
      <trkpt lat="43.16162" lon="6.4911">
        <ele>284.2</ele>
        <time>2024-02-04T09:58:08Z</time>
      </trkpt>
      <trkpt lat="43.16162" lon="6.4911">
        <ele>284.2</ele>
        <time>2024-02-04T09:58:09Z</time>
      </trkpt>
      <trkpt lat="43.16163" lon="6.4911">
        <ele>284</ele>
        <time>2024-02-04T09:58:10Z</time>
      </trkpt>
      <trkpt lat="43.16164" lon="6.4911">
        <ele>284</ele>
        <time>2024-02-04T09:58:11Z</time>
      </trkpt>
      <trkpt lat="43.16164" lon="6.49109">
        <ele>284</ele>
        <time>2024-02-04T09:58:12Z</time>
      </trkpt>
      <trkpt lat="43.16165" lon="6.49108">
        <ele>283.9</ele>
        <time>2024-02-04T09:58:13Z</time>
      </trkpt>
      <trkpt lat="43.16166" lon="6.49107">
        <ele>283.9</ele>
        <time>2024-02-04T09:58:14Z</time>
      </trkpt>
      <trkpt lat="43.16167" lon="6.49105">
        <ele>283.9</ele>
        <time>2024-02-04T09:58:15Z</time>
      </trkpt>
      <trkpt lat="43.16167" lon="6.49104">
        <ele>283.9</ele>
        <time>2024-02-04T09:58:16Z</time>
      </trkpt>
      <trkpt lat="43.16168" lon="6.49103">
        <ele>283.8</ele>
        <time>2024-02-04T09:58:17Z</time>
      </trkpt>
      <trkpt lat="43.16169" lon="6.49102">
        <ele>283.8</ele>
        <time>2024-02-04T09:58:18Z</time>
      </trkpt>
      <trkpt lat="43.1617" lon="6.49102">
        <ele>283.8</ele>
        <time>2024-02-04T09:58:19Z</time>
      </trkpt>
      <trkpt lat="43.16171" lon="6.49101">
        <ele>283.6</ele>
        <time>2024-02-04T09:58:20Z</time>
      </trkpt>
      <trkpt lat="43.16172" lon="6.49101">
        <ele>283.5</ele>
        <time>2024-02-04T09:58:21Z</time>
      </trkpt>
      <trkpt lat="43.16173" lon="6.491">
        <ele>283.4</ele>
        <time>2024-02-04T09:58:22Z</time>
      </trkpt>
      <trkpt lat="43.16175" lon="6.491">
        <ele>283.2</ele>
        <time>2024-02-04T09:58:23Z</time>
      </trkpt>
      <trkpt lat="43.16176" lon="6.49099">
        <ele>283</ele>
        <time>2024-02-04T09:58:24Z</time>
      </trkpt>
      <trkpt lat="43.16176" lon="6.49098">
        <ele>282.9</ele>
        <time>2024-02-04T09:58:25Z</time>
      </trkpt>
      <trkpt lat="43.16177" lon="6.49097">
        <ele>282.6</ele>
        <time>2024-02-04T09:58:26Z</time>
      </trkpt>
      <trkpt lat="43.16178" lon="6.49096">
        <ele>282.4</ele>
        <time>2024-02-04T09:58:27Z</time>
      </trkpt>
      <trkpt lat="43.16178" lon="6.49096">
        <ele>282.2</ele>
        <time>2024-02-04T09:58:28Z</time>
      </trkpt>
      <trkpt lat="43.16179" lon="6.49095">
        <ele>282.1</ele>
        <time>2024-02-04T09:58:29Z</time>
      </trkpt>
      <trkpt lat="43.1618" lon="6.49093">
        <ele>282</ele>
        <time>2024-02-04T09:58:30Z</time>
      </trkpt>
      <trkpt lat="43.16181" lon="6.49092">
        <ele>281.8</ele>
        <time>2024-02-04T09:58:31Z</time>
      </trkpt>
      <trkpt lat="43.16182" lon="6.49091">
        <ele>281.7</ele>
        <time>2024-02-04T09:58:32Z</time>
      </trkpt>
      <trkpt lat="43.16182" lon="6.4909">
        <ele>281.5</ele>
        <time>2024-02-04T09:58:33Z</time>
      </trkpt>
      <trkpt lat="43.16183" lon="6.49089">
        <ele>281.4</ele>
        <time>2024-02-04T09:58:34Z</time>
      </trkpt>
      <trkpt lat="43.16184" lon="6.49088">
        <ele>281.2</ele>
        <time>2024-02-04T09:58:35Z</time>
      </trkpt>
      <trkpt lat="43.16185" lon="6.49087">
        <ele>280.9</ele>
        <time>2024-02-04T09:58:36Z</time>
      </trkpt>
      <trkpt lat="43.16185" lon="6.49086">
        <ele>280.8</ele>
        <time>2024-02-04T09:58:37Z</time>
      </trkpt>
      <trkpt lat="43.16186" lon="6.49086">
        <ele>280.6</ele>
        <time>2024-02-04T09:58:38Z</time>
      </trkpt>
      <trkpt lat="43.16186" lon="6.49086">
        <ele>280.5</ele>
        <time>2024-02-04T09:58:39Z</time>
      </trkpt>
      <trkpt lat="43.16187" lon="6.49085">
        <ele>280.4</ele>
        <time>2024-02-04T09:58:40Z</time>
      </trkpt>
      <trkpt lat="43.16187" lon="6.49085">
        <ele>280.3</ele>
        <time>2024-02-04T09:58:41Z</time>
      </trkpt>
      <trkpt lat="43.16188" lon="6.49084">
        <ele>280.2</ele>
        <time>2024-02-04T09:58:42Z</time>
      </trkpt>
      <trkpt lat="43.16188" lon="6.49083">
        <ele>280.1</ele>
        <time>2024-02-04T09:58:43Z</time>
      </trkpt>
      <trkpt lat="43.16188" lon="6.49083">
        <ele>280</ele>
        <time>2024-02-04T09:58:44Z</time>
      </trkpt>
      <trkpt lat="43.16188" lon="6.49083">
        <ele>279.9</ele>
        <time>2024-02-04T09:58:45Z</time>
      </trkpt>
      <trkpt lat="43.16188" lon="6.49082">
        <ele>279.8</ele>
        <time>2024-02-04T09:58:46Z</time>
      </trkpt>
      <trkpt lat="43.16188" lon="6.49081">
        <ele>279.7</ele>
        <time>2024-02-04T09:58:47Z</time>
      </trkpt>
      <trkpt lat="43.16188" lon="6.49079">
        <ele>279.6</ele>
        <time>2024-02-04T09:58:48Z</time>
      </trkpt>
      <trkpt lat="43.16188" lon="6.49078">
        <ele>279.4</ele>
        <time>2024-02-04T09:58:49Z</time>
      </trkpt>
      <trkpt lat="43.16188" lon="6.49076">
        <ele>279.3</ele>
        <time>2024-02-04T09:58:50Z</time>
      </trkpt>
      <trkpt lat="43.16189" lon="6.49075">
        <ele>279.3</ele>
        <time>2024-02-04T09:58:51Z</time>
      </trkpt>
      <trkpt lat="43.1619" lon="6.49074">
        <ele>279.2</ele>
        <time>2024-02-04T09:58:52Z</time>
      </trkpt>
      <trkpt lat="43.1619" lon="6.49073">
        <ele>279</ele>
        <time>2024-02-04T09:58:53Z</time>
      </trkpt>
      <trkpt lat="43.1619" lon="6.49072">
        <ele>278.9</ele>
        <time>2024-02-04T09:58:54Z</time>
      </trkpt>
      <trkpt lat="43.1619" lon="6.4907">
        <ele>278.9</ele>
        <time>2024-02-04T09:58:55Z</time>
      </trkpt>
      <trkpt lat="43.16191" lon="6.49069">
        <ele>278.9</ele>
        <time>2024-02-04T09:58:56Z</time>
      </trkpt>
      <trkpt lat="43.16192" lon="6.49068">
        <ele>278.9</ele>
        <time>2024-02-04T09:58:57Z</time>
      </trkpt>
      <trkpt lat="43.16192" lon="6.49067">
        <ele>278.9</ele>
        <time>2024-02-04T09:58:58Z</time>
      </trkpt>
      <trkpt lat="43.16193" lon="6.49066">
        <ele>278.8</ele>
        <time>2024-02-04T09:58:59Z</time>
      </trkpt>
      <trkpt lat="43.16194" lon="6.49065">
        <ele>278.8</ele>
        <time>2024-02-04T09:59:00Z</time>
      </trkpt>
      <trkpt lat="43.16194" lon="6.49064">
        <ele>278.8</ele>
        <time>2024-02-04T09:59:01Z</time>
      </trkpt>
      <trkpt lat="43.16195" lon="6.49063">
        <ele>278.8</ele>
        <time>2024-02-04T09:59:02Z</time>
      </trkpt>
      <trkpt lat="43.16195" lon="6.49063">
        <ele>278.9</ele>
        <time>2024-02-04T09:59:03Z</time>
      </trkpt>
      <trkpt lat="43.16196" lon="6.49063">
        <ele>278.9</ele>
        <time>2024-02-04T09:59:04Z</time>
      </trkpt>
      <trkpt lat="43.16197" lon="6.49063">
        <ele>279</ele>
        <time>2024-02-04T09:59:05Z</time>
      </trkpt>
      <trkpt lat="43.16198" lon="6.49063">
        <ele>279</ele>
        <time>2024-02-04T09:59:06Z</time>
      </trkpt>
      <trkpt lat="43.16199" lon="6.49063">
        <ele>279</ele>
        <time>2024-02-04T09:59:07Z</time>
      </trkpt>
      <trkpt lat="43.162" lon="6.49062">
        <ele>279.1</ele>
        <time>2024-02-04T09:59:08Z</time>
      </trkpt>
      <trkpt lat="43.16201" lon="6.49062">
        <ele>279.1</ele>
        <time>2024-02-04T09:59:09Z</time>
      </trkpt>
      <trkpt lat="43.16202" lon="6.49061">
        <ele>279.2</ele>
        <time>2024-02-04T09:59:10Z</time>
      </trkpt>
      <trkpt lat="43.16203" lon="6.49061">
        <ele>279.3</ele>
        <time>2024-02-04T09:59:11Z</time>
      </trkpt>
      <trkpt lat="43.16204" lon="6.4906">
        <ele>279.3</ele>
        <time>2024-02-04T09:59:12Z</time>
      </trkpt>
      <trkpt lat="43.16205" lon="6.4906">
        <ele>279.3</ele>
        <time>2024-02-04T09:59:13Z</time>
      </trkpt>
      <trkpt lat="43.16206" lon="6.4906">
        <ele>279.2</ele>
        <time>2024-02-04T09:59:14Z</time>
      </trkpt>
      <trkpt lat="43.16206" lon="6.4906">
        <ele>279.2</ele>
        <time>2024-02-04T09:59:15Z</time>
      </trkpt>
      <trkpt lat="43.16208" lon="6.49059">
        <ele>279.2</ele>
        <time>2024-02-04T09:59:16Z</time>
      </trkpt>
      <trkpt lat="43.16209" lon="6.49058">
        <ele>279.2</ele>
        <time>2024-02-04T09:59:17Z</time>
      </trkpt>
      <trkpt lat="43.1621" lon="6.49058">
        <ele>279.2</ele>
        <time>2024-02-04T09:59:18Z</time>
      </trkpt>
      <trkpt lat="43.16211" lon="6.49057">
        <ele>279.2</ele>
        <time>2024-02-04T09:59:19Z</time>
      </trkpt>
      <trkpt lat="43.16212" lon="6.49057">
        <ele>279.3</ele>
        <time>2024-02-04T09:59:20Z</time>
      </trkpt>
      <trkpt lat="43.16213" lon="6.49056">
        <ele>279.3</ele>
        <time>2024-02-04T09:59:21Z</time>
      </trkpt>
      <trkpt lat="43.16213" lon="6.49056">
        <ele>279.4</ele>
        <time>2024-02-04T09:59:22Z</time>
      </trkpt>
      <trkpt lat="43.16214" lon="6.49055">
        <ele>279.4</ele>
        <time>2024-02-04T09:59:23Z</time>
      </trkpt>
      <trkpt lat="43.16215" lon="6.49054">
        <ele>279.6</ele>
        <time>2024-02-04T09:59:24Z</time>
      </trkpt>
      <trkpt lat="43.16216" lon="6.49053">
        <ele>279.7</ele>
        <time>2024-02-04T09:59:25Z</time>
      </trkpt>
      <trkpt lat="43.16216" lon="6.49054">
        <ele>279.8</ele>
        <time>2024-02-04T09:59:26Z</time>
      </trkpt>
      <trkpt lat="43.16216" lon="6.49053">
        <ele>279.8</ele>
        <time>2024-02-04T09:59:27Z</time>
      </trkpt>
      <trkpt lat="43.16217" lon="6.49052">
        <ele>279.9</ele>
        <time>2024-02-04T09:59:28Z</time>
      </trkpt>
      <trkpt lat="43.16218" lon="6.49051">
        <ele>279.9</ele>
        <time>2024-02-04T09:59:29Z</time>
      </trkpt>
      <trkpt lat="43.16219" lon="6.49051">
        <ele>280</ele>
        <time>2024-02-04T09:59:30Z</time>
      </trkpt>
      <trkpt lat="43.16219" lon="6.49048">
        <ele>280</ele>
        <time>2024-02-04T09:59:31Z</time>
      </trkpt>
      <trkpt lat="43.16219" lon="6.49047">
        <ele>280</ele>
        <time>2024-02-04T09:59:32Z</time>
      </trkpt>
      <trkpt lat="43.16218" lon="6.49046">
        <ele>279.9</ele>
        <time>2024-02-04T09:59:33Z</time>
      </trkpt>
      <trkpt lat="43.16218" lon="6.49045">
        <ele>279.9</ele>
        <time>2024-02-04T09:59:34Z</time>
      </trkpt>
      <trkpt lat="43.16217" lon="6.49045">
        <ele>279.9</ele>
        <time>2024-02-04T09:59:35Z</time>
      </trkpt>
      <trkpt lat="43.16217" lon="6.49044">
        <ele>280</ele>
        <time>2024-02-04T09:59:36Z</time>
      </trkpt>
      <trkpt lat="43.16217" lon="6.49044">
        <ele>280.1</ele>
        <time>2024-02-04T09:59:37Z</time>
      </trkpt>
      <trkpt lat="43.16216" lon="6.49044">
        <ele>280.1</ele>
        <time>2024-02-04T09:59:38Z</time>
      </trkpt>
      <trkpt lat="43.16217" lon="6.49044">
        <ele>280.1</ele>
        <time>2024-02-04T09:59:39Z</time>
      </trkpt>
      <trkpt lat="43.16217" lon="6.49044">
        <ele>280.1</ele>
        <time>2024-02-04T09:59:40Z</time>
      </trkpt>
      <trkpt lat="43.16217" lon="6.49044">
        <ele>280.1</ele>
        <time>2024-02-04T09:59:41Z</time>
      </trkpt>
      <trkpt lat="43.16217" lon="6.49044">
        <ele>280.2</ele>
        <time>2024-02-04T09:59:42Z</time>
      </trkpt>
      <trkpt lat="43.16217" lon="6.49045">
        <ele>280.3</ele>
        <time>2024-02-04T09:59:43Z</time>
      </trkpt>
      <trkpt lat="43.16217" lon="6.49044">
        <ele>280.3</ele>
        <time>2024-02-04T09:59:44Z</time>
      </trkpt>
      <trkpt lat="43.16217" lon="6.49044">
        <ele>280.3</ele>
        <time>2024-02-04T09:59:45Z</time>
      </trkpt>
      <trkpt lat="43.16218" lon="6.49045">
        <ele>280.4</ele>
        <time>2024-02-04T09:59:46Z</time>
      </trkpt>
      <trkpt lat="43.16219" lon="6.49044">
        <ele>280.5</ele>
        <time>2024-02-04T09:59:47Z</time>
      </trkpt>
      <trkpt lat="43.16219" lon="6.49045">
        <ele>280.4</ele>
        <time>2024-02-04T09:59:48Z</time>
      </trkpt>
      <trkpt lat="43.16219" lon="6.49044">
        <ele>280.3</ele>
        <time>2024-02-04T09:59:49Z</time>
      </trkpt>
      <trkpt lat="43.16219" lon="6.49044">
        <ele>280.3</ele>
        <time>2024-02-04T09:59:50Z</time>
      </trkpt>
      <trkpt lat="43.16219" lon="6.49044">
        <ele>280.3</ele>
        <time>2024-02-04T09:59:51Z</time>
      </trkpt>
      <trkpt lat="43.16219" lon="6.49043">
        <ele>280.3</ele>
        <time>2024-02-04T09:59:52Z</time>
      </trkpt>
      <trkpt lat="43.16219" lon="6.49043">
        <ele>280.4</ele>
        <time>2024-02-04T09:59:53Z</time>
      </trkpt>
      <trkpt lat="43.16219" lon="6.49043">
        <ele>280.4</ele>
        <time>2024-02-04T09:59:54Z</time>
      </trkpt>
      <trkpt lat="43.16219" lon="6.49043">
        <ele>280.4</ele>
        <time>2024-02-04T09:59:55Z</time>
      </trkpt>
      <trkpt lat="43.16219" lon="6.49043">
        <ele>280.4</ele>
        <time>2024-02-04T09:59:56Z</time>
      </trkpt>
      <trkpt lat="43.16219" lon="6.49043">
        <ele>280.4</ele>
        <time>2024-02-04T09:59:57Z</time>
      </trkpt>
      <trkpt lat="43.16219" lon="6.49042">
        <ele>280.5</ele>
        <time>2024-02-04T09:59:58Z</time>
      </trkpt>
      <trkpt lat="43.16219" lon="6.49042">
        <ele>280.5</ele>
        <time>2024-02-04T09:59:59Z</time>
      </trkpt>
      <trkpt lat="43.16218" lon="6.49042">
        <ele>280.5</ele>
        <time>2024-02-04T10:00:00Z</time>
      </trkpt>
      <trkpt lat="43.16218" lon="6.49042">
        <ele>280.5</ele>
        <time>2024-02-04T10:00:01Z</time>
      </trkpt>
      <trkpt lat="43.16218" lon="6.49042">
        <ele>280.5</ele>
        <time>2024-02-04T10:00:02Z</time>
      </trkpt>
      <trkpt lat="43.16218" lon="6.49042">
        <ele>280.4</ele>
        <time>2024-02-04T10:00:03Z</time>
      </trkpt>
      <trkpt lat="43.16218" lon="6.49041">
        <ele>280.3</ele>
        <time>2024-02-04T10:00:04Z</time>
      </trkpt>
      <trkpt lat="43.16218" lon="6.49041">
        <ele>280.3</ele>
        <time>2024-02-04T10:00:05Z</time>
      </trkpt>
      <trkpt lat="43.16218" lon="6.49041">
        <ele>280.2</ele>
        <time>2024-02-04T10:00:06Z</time>
      </trkpt>
      <trkpt lat="43.16218" lon="6.49041">
        <ele>280.2</ele>
        <time>2024-02-04T10:00:07Z</time>
      </trkpt>
      <trkpt lat="43.16218" lon="6.4904">
        <ele>280.2</ele>
        <time>2024-02-04T10:00:08Z</time>
      </trkpt>
      <trkpt lat="43.16218" lon="6.4904">
        <ele>280.1</ele>
        <time>2024-02-04T10:00:09Z</time>
      </trkpt>
      <trkpt lat="43.16218" lon="6.4904">
        <ele>280.1</ele>
        <time>2024-02-04T10:00:10Z</time>
      </trkpt>
      <trkpt lat="43.16218" lon="6.4904">
        <ele>280.1</ele>
        <time>2024-02-04T10:00:11Z</time>
      </trkpt>
      <trkpt lat="43.16219" lon="6.49041">
        <ele>280.1</ele>
        <time>2024-02-04T10:00:12Z</time>
      </trkpt>
      <trkpt lat="43.1622" lon="6.49041">
        <ele>280.1</ele>
        <time>2024-02-04T10:00:13Z</time>
      </trkpt>
      <trkpt lat="43.16221" lon="6.4904">
        <ele>280.2</ele>
        <time>2024-02-04T10:00:14Z</time>
      </trkpt>
      <trkpt lat="43.16223" lon="6.4904">
        <ele>280.2</ele>
        <time>2024-02-04T10:00:15Z</time>
      </trkpt>
      <trkpt lat="43.16224" lon="6.49039">
        <ele>280.3</ele>
        <time>2024-02-04T10:00:16Z</time>
      </trkpt>
      <trkpt lat="43.16225" lon="6.49039">
        <ele>280.3</ele>
        <time>2024-02-04T10:00:17Z</time>
      </trkpt>
      <trkpt lat="43.16226" lon="6.49038">
        <ele>280.4</ele>
        <time>2024-02-04T10:00:18Z</time>
      </trkpt>
      <trkpt lat="43.16227" lon="6.49038">
        <ele>280.4</ele>
        <time>2024-02-04T10:00:19Z</time>
      </trkpt>
      <trkpt lat="43.16227" lon="6.49037">
        <ele>280.5</ele>
        <time>2024-02-04T10:00:20Z</time>
      </trkpt>
      <trkpt lat="43.16228" lon="6.49036">
        <ele>280.6</ele>
        <time>2024-02-04T10:00:21Z</time>
      </trkpt>
      <trkpt lat="43.16229" lon="6.49035">
        <ele>280.7</ele>
        <time>2024-02-04T10:00:22Z</time>
      </trkpt>
      <trkpt lat="43.1623" lon="6.49035">
        <ele>280.7</ele>
        <time>2024-02-04T10:00:23Z</time>
      </trkpt>
      <trkpt lat="43.16231" lon="6.49034">
        <ele>280.8</ele>
        <time>2024-02-04T10:00:24Z</time>
      </trkpt>
      <trkpt lat="43.16232" lon="6.49033">
        <ele>280.9</ele>
        <time>2024-02-04T10:00:25Z</time>
      </trkpt>
      <trkpt lat="43.16233" lon="6.49032">
        <ele>281.1</ele>
        <time>2024-02-04T10:00:26Z</time>
      </trkpt>
      <trkpt lat="43.16234" lon="6.49032">
        <ele>281.2</ele>
        <time>2024-02-04T10:00:27Z</time>
      </trkpt>
      <trkpt lat="43.16235" lon="6.49031">
        <ele>281.3</ele>
        <time>2024-02-04T10:00:28Z</time>
      </trkpt>
      <trkpt lat="43.16236" lon="6.4903">
        <ele>281.4</ele>
        <time>2024-02-04T10:00:29Z</time>
      </trkpt>
      <trkpt lat="43.16237" lon="6.49029">
        <ele>281.5</ele>
        <time>2024-02-04T10:00:30Z</time>
      </trkpt>
      <trkpt lat="43.16238" lon="6.49028">
        <ele>281.6</ele>
        <time>2024-02-04T10:00:31Z</time>
      </trkpt>
      <trkpt lat="43.16239" lon="6.49027">
        <ele>281.6</ele>
        <time>2024-02-04T10:00:32Z</time>
      </trkpt>
      <trkpt lat="43.1624" lon="6.49026">
        <ele>281.7</ele>
        <time>2024-02-04T10:00:33Z</time>
      </trkpt>
      <trkpt lat="43.16242" lon="6.49025">
        <ele>281.8</ele>
        <time>2024-02-04T10:00:34Z</time>
      </trkpt>
      <trkpt lat="43.16242" lon="6.49024">
        <ele>281.8</ele>
        <time>2024-02-04T10:00:35Z</time>
      </trkpt>
      <trkpt lat="43.16243" lon="6.49023">
        <ele>281.9</ele>
        <time>2024-02-04T10:00:36Z</time>
      </trkpt>
      <trkpt lat="43.16245" lon="6.49022">
        <ele>282.1</ele>
        <time>2024-02-04T10:00:37Z</time>
      </trkpt>
      <trkpt lat="43.16246" lon="6.4902">
        <ele>282.2</ele>
        <time>2024-02-04T10:00:38Z</time>
      </trkpt>
      <trkpt lat="43.16247" lon="6.49019">
        <ele>282.3</ele>
        <time>2024-02-04T10:00:39Z</time>
      </trkpt>
      <trkpt lat="43.16248" lon="6.49017">
        <ele>282.4</ele>
        <time>2024-02-04T10:00:40Z</time>
      </trkpt>
      <trkpt lat="43.16249" lon="6.49015">
        <ele>282.6</ele>
        <time>2024-02-04T10:00:41Z</time>
      </trkpt>
      <trkpt lat="43.1625" lon="6.49014">
        <ele>282.7</ele>
        <time>2024-02-04T10:00:42Z</time>
      </trkpt>
      <trkpt lat="43.1625" lon="6.49012">
        <ele>282.8</ele>
        <time>2024-02-04T10:00:43Z</time>
      </trkpt>
      <trkpt lat="43.1625" lon="6.49013">
        <ele>282.9</ele>
        <time>2024-02-04T10:00:44Z</time>
      </trkpt>
      <trkpt lat="43.16251" lon="6.49013">
        <ele>283</ele>
        <time>2024-02-04T10:00:45Z</time>
      </trkpt>
      <trkpt lat="43.16251" lon="6.49012">
        <ele>283.1</ele>
        <time>2024-02-04T10:00:46Z</time>
      </trkpt>
      <trkpt lat="43.16252" lon="6.4901">
        <ele>283.2</ele>
        <time>2024-02-04T10:00:47Z</time>
      </trkpt>
      <trkpt lat="43.16253" lon="6.49008">
        <ele>283.4</ele>
        <time>2024-02-04T10:00:48Z</time>
      </trkpt>
      <trkpt lat="43.16253" lon="6.49006">
        <ele>283.4</ele>
        <time>2024-02-04T10:00:49Z</time>
      </trkpt>
      <trkpt lat="43.16254" lon="6.49004">
        <ele>283.5</ele>
        <time>2024-02-04T10:00:50Z</time>
      </trkpt>
      <trkpt lat="43.16254" lon="6.49003">
        <ele>283.7</ele>
        <time>2024-02-04T10:00:51Z</time>
      </trkpt>
      <trkpt lat="43.16255" lon="6.49001">
        <ele>283.8</ele>
        <time>2024-02-04T10:00:52Z</time>
      </trkpt>
      <trkpt lat="43.16256" lon="6.48999">
        <ele>284</ele>
        <time>2024-02-04T10:00:53Z</time>
      </trkpt>
      <trkpt lat="43.16256" lon="6.48997">
        <ele>284.2</ele>
        <time>2024-02-04T10:00:54Z</time>
      </trkpt>
      <trkpt lat="43.16257" lon="6.48995">
        <ele>284.4</ele>
        <time>2024-02-04T10:00:55Z</time>
      </trkpt>
      <trkpt lat="43.16257" lon="6.48993">
        <ele>284.5</ele>
        <time>2024-02-04T10:00:56Z</time>
      </trkpt>
      <trkpt lat="43.16257" lon="6.48991">
        <ele>284.7</ele>
        <time>2024-02-04T10:00:57Z</time>
      </trkpt>
      <trkpt lat="43.16258" lon="6.48989">
        <ele>284.8</ele>
        <time>2024-02-04T10:00:58Z</time>
      </trkpt>
      <trkpt lat="43.16258" lon="6.48987">
        <ele>285</ele>
        <time>2024-02-04T10:00:59Z</time>
      </trkpt>
      <trkpt lat="43.16258" lon="6.48985">
        <ele>285.2</ele>
        <time>2024-02-04T10:01:00Z</time>
      </trkpt>
      <trkpt lat="43.16258" lon="6.48984">
        <ele>285.4</ele>
        <time>2024-02-04T10:01:01Z</time>
      </trkpt>
      <trkpt lat="43.16258" lon="6.48982">
        <ele>285.5</ele>
        <time>2024-02-04T10:01:02Z</time>
      </trkpt>
      <trkpt lat="43.16258" lon="6.4898">
        <ele>285.6</ele>
        <time>2024-02-04T10:01:03Z</time>
      </trkpt>
      <trkpt lat="43.16258" lon="6.48978">
        <ele>285.8</ele>
        <time>2024-02-04T10:01:04Z</time>
      </trkpt>
      <trkpt lat="43.16258" lon="6.48976">
        <ele>286</ele>
        <time>2024-02-04T10:01:05Z</time>
      </trkpt>
      <trkpt lat="43.16258" lon="6.48975">
        <ele>286.1</ele>
        <time>2024-02-04T10:01:06Z</time>
      </trkpt>
      <trkpt lat="43.16258" lon="6.48973">
        <ele>286.3</ele>
        <time>2024-02-04T10:01:07Z</time>
      </trkpt>
      <trkpt lat="43.16258" lon="6.48972">
        <ele>286.4</ele>
        <time>2024-02-04T10:01:08Z</time>
      </trkpt>
      <trkpt lat="43.16259" lon="6.48971">
        <ele>286.5</ele>
        <time>2024-02-04T10:01:09Z</time>
      </trkpt>
      <trkpt lat="43.16258" lon="6.48969">
        <ele>286.7</ele>
        <time>2024-02-04T10:01:10Z</time>
      </trkpt>
      <trkpt lat="43.16258" lon="6.48968">
        <ele>286.8</ele>
        <time>2024-02-04T10:01:11Z</time>
      </trkpt>
      <trkpt lat="43.16258" lon="6.48966">
        <ele>286.9</ele>
        <time>2024-02-04T10:01:12Z</time>
      </trkpt>
      <trkpt lat="43.16258" lon="6.48966">
        <ele>287.1</ele>
        <time>2024-02-04T10:01:13Z</time>
      </trkpt>
      <trkpt lat="43.16258" lon="6.48966">
        <ele>287.3</ele>
        <time>2024-02-04T10:01:14Z</time>
      </trkpt>
      <trkpt lat="43.16258" lon="6.48965">
        <ele>287.5</ele>
        <time>2024-02-04T10:01:15Z</time>
      </trkpt>
      <trkpt lat="43.16258" lon="6.48964">
        <ele>287.5</ele>
        <time>2024-02-04T10:01:16Z</time>
      </trkpt>
      <trkpt lat="43.16258" lon="6.48962">
        <ele>287.6</ele>
        <time>2024-02-04T10:01:17Z</time>
      </trkpt>
      <trkpt lat="43.16258" lon="6.48961">
        <ele>287.7</ele>
        <time>2024-02-04T10:01:18Z</time>
      </trkpt>
      <trkpt lat="43.16258" lon="6.48959">
        <ele>287.9</ele>
        <time>2024-02-04T10:01:19Z</time>
      </trkpt>
      <trkpt lat="43.16258" lon="6.48958">
        <ele>288.1</ele>
        <time>2024-02-04T10:01:20Z</time>
      </trkpt>
      <trkpt lat="43.16258" lon="6.48957">
        <ele>288.4</ele>
        <time>2024-02-04T10:01:21Z</time>
      </trkpt>
      <trkpt lat="43.16258" lon="6.48955">
        <ele>288.6</ele>
        <time>2024-02-04T10:01:22Z</time>
      </trkpt>
      <trkpt lat="43.16258" lon="6.48954">
        <ele>288.7</ele>
        <time>2024-02-04T10:01:23Z</time>
      </trkpt>
      <trkpt lat="43.16258" lon="6.48952">
        <ele>288.8</ele>
        <time>2024-02-04T10:01:24Z</time>
      </trkpt>
      <trkpt lat="43.16258" lon="6.4895">
        <ele>289</ele>
        <time>2024-02-04T10:01:25Z</time>
      </trkpt>
      <trkpt lat="43.16258" lon="6.48949">
        <ele>289</ele>
        <time>2024-02-04T10:01:26Z</time>
      </trkpt>
      <trkpt lat="43.16258" lon="6.48947">
        <ele>289</ele>
        <time>2024-02-04T10:01:27Z</time>
      </trkpt>
      <trkpt lat="43.16258" lon="6.48946">
        <ele>289.1</ele>
        <time>2024-02-04T10:01:28Z</time>
      </trkpt>
      <trkpt lat="43.16258" lon="6.48944">
        <ele>289.1</ele>
        <time>2024-02-04T10:01:29Z</time>
      </trkpt>
      <trkpt lat="43.16258" lon="6.48942">
        <ele>289.1</ele>
        <time>2024-02-04T10:01:30Z</time>
      </trkpt>
      <trkpt lat="43.16258" lon="6.48941">
        <ele>289.1</ele>
        <time>2024-02-04T10:01:31Z</time>
      </trkpt>
      <trkpt lat="43.16257" lon="6.48939">
        <ele>289.1</ele>
        <time>2024-02-04T10:01:32Z</time>
      </trkpt>
      <trkpt lat="43.16257" lon="6.48937">
        <ele>289.1</ele>
        <time>2024-02-04T10:01:33Z</time>
      </trkpt>
      <trkpt lat="43.16257" lon="6.48936">
        <ele>289.1</ele>
        <time>2024-02-04T10:01:34Z</time>
      </trkpt>
      <trkpt lat="43.16257" lon="6.48934">
        <ele>289.3</ele>
        <time>2024-02-04T10:01:35Z</time>
      </trkpt>
      <trkpt lat="43.16257" lon="6.48932">
        <ele>289.4</ele>
        <time>2024-02-04T10:01:36Z</time>
      </trkpt>
      <trkpt lat="43.16257" lon="6.48931">
        <ele>289.5</ele>
        <time>2024-02-04T10:01:37Z</time>
      </trkpt>
      <trkpt lat="43.16257" lon="6.48929">
        <ele>289.5</ele>
        <time>2024-02-04T10:01:38Z</time>
      </trkpt>
      <trkpt lat="43.16257" lon="6.48927">
        <ele>289.6</ele>
        <time>2024-02-04T10:01:39Z</time>
      </trkpt>
      <trkpt lat="43.16257" lon="6.48926">
        <ele>289.7</ele>
        <time>2024-02-04T10:01:40Z</time>
      </trkpt>
      <trkpt lat="43.16257" lon="6.48925">
        <ele>289.9</ele>
        <time>2024-02-04T10:01:41Z</time>
      </trkpt>
      <trkpt lat="43.16257" lon="6.48924">
        <ele>290</ele>
        <time>2024-02-04T10:01:42Z</time>
      </trkpt>
      <trkpt lat="43.16258" lon="6.48924">
        <ele>290.2</ele>
        <time>2024-02-04T10:01:43Z</time>
      </trkpt>
      <trkpt lat="43.16258" lon="6.48923">
        <ele>290.3</ele>
        <time>2024-02-04T10:01:44Z</time>
      </trkpt>
      <trkpt lat="43.16258" lon="6.48922">
        <ele>290.4</ele>
        <time>2024-02-04T10:01:45Z</time>
      </trkpt>
      <trkpt lat="43.16259" lon="6.48921">
        <ele>290.5</ele>
        <time>2024-02-04T10:01:46Z</time>
      </trkpt>
      <trkpt lat="43.16259" lon="6.48921">
        <ele>290.6</ele>
        <time>2024-02-04T10:01:47Z</time>
      </trkpt>
      <trkpt lat="43.16259" lon="6.48919">
        <ele>290.6</ele>
        <time>2024-02-04T10:01:48Z</time>
      </trkpt>
      <trkpt lat="43.16259" lon="6.48918">
        <ele>290.7</ele>
        <time>2024-02-04T10:01:49Z</time>
      </trkpt>
      <trkpt lat="43.1626" lon="6.48917">
        <ele>290.8</ele>
        <time>2024-02-04T10:01:50Z</time>
      </trkpt>
      <trkpt lat="43.1626" lon="6.48916">
        <ele>290.8</ele>
        <time>2024-02-04T10:01:51Z</time>
      </trkpt>
      <trkpt lat="43.1626" lon="6.48916">
        <ele>290.8</ele>
        <time>2024-02-04T10:01:52Z</time>
      </trkpt>
      <trkpt lat="43.16261" lon="6.48915">
        <ele>290.9</ele>
        <time>2024-02-04T10:01:53Z</time>
      </trkpt>
      <trkpt lat="43.16261" lon="6.48914">
        <ele>290.9</ele>
        <time>2024-02-04T10:01:54Z</time>
      </trkpt>
      <trkpt lat="43.16261" lon="6.48913">
        <ele>290.9</ele>
        <time>2024-02-04T10:01:55Z</time>
      </trkpt>
      <trkpt lat="43.16262" lon="6.48911">
        <ele>291</ele>
        <time>2024-02-04T10:01:56Z</time>
      </trkpt>
      <trkpt lat="43.16262" lon="6.4891">
        <ele>290.9</ele>
        <time>2024-02-04T10:01:57Z</time>
      </trkpt>
      <trkpt lat="43.16262" lon="6.48909">
        <ele>290.9</ele>
        <time>2024-02-04T10:01:58Z</time>
      </trkpt>
      <trkpt lat="43.16262" lon="6.48908">
        <ele>291.1</ele>
        <time>2024-02-04T10:01:59Z</time>
      </trkpt>
      <trkpt lat="43.16263" lon="6.48907">
        <ele>291.1</ele>
        <time>2024-02-04T10:02:00Z</time>
      </trkpt>
      <trkpt lat="43.16263" lon="6.48906">
        <ele>291.1</ele>
        <time>2024-02-04T10:02:01Z</time>
      </trkpt>
      <trkpt lat="43.16263" lon="6.48905">
        <ele>291.2</ele>
        <time>2024-02-04T10:02:02Z</time>
      </trkpt>
      <trkpt lat="43.16264" lon="6.48905">
        <ele>291.1</ele>
        <time>2024-02-04T10:02:03Z</time>
      </trkpt>
      <trkpt lat="43.16264" lon="6.48904">
        <ele>291</ele>
        <time>2024-02-04T10:02:04Z</time>
      </trkpt>
      <trkpt lat="43.16264" lon="6.48903">
        <ele>290.9</ele>
        <time>2024-02-04T10:02:05Z</time>
      </trkpt>
      <trkpt lat="43.16265" lon="6.48903">
        <ele>290.8</ele>
        <time>2024-02-04T10:02:06Z</time>
      </trkpt>
      <trkpt lat="43.16266" lon="6.48902">
        <ele>290.6</ele>
        <time>2024-02-04T10:02:07Z</time>
      </trkpt>
      <trkpt lat="43.16266" lon="6.48902">
        <ele>290.5</ele>
        <time>2024-02-04T10:02:08Z</time>
      </trkpt>
      <trkpt lat="43.16267" lon="6.48902">
        <ele>290.4</ele>
        <time>2024-02-04T10:02:09Z</time>
      </trkpt>
      <trkpt lat="43.16268" lon="6.48902">
        <ele>290.3</ele>
        <time>2024-02-04T10:02:10Z</time>
      </trkpt>
      <trkpt lat="43.16268" lon="6.48901">
        <ele>290.1</ele>
        <time>2024-02-04T10:02:11Z</time>
      </trkpt>
      <trkpt lat="43.16269" lon="6.489">
        <ele>289.9</ele>
        <time>2024-02-04T10:02:12Z</time>
      </trkpt>
      <trkpt lat="43.16269" lon="6.48899">
        <ele>289.7</ele>
        <time>2024-02-04T10:02:13Z</time>
      </trkpt>
      <trkpt lat="43.1627" lon="6.48898">
        <ele>289.6</ele>
        <time>2024-02-04T10:02:14Z</time>
      </trkpt>
      <trkpt lat="43.1627" lon="6.48897">
        <ele>289.5</ele>
        <time>2024-02-04T10:02:15Z</time>
      </trkpt>
      <trkpt lat="43.16271" lon="6.48896">
        <ele>289.4</ele>
        <time>2024-02-04T10:02:16Z</time>
      </trkpt>
      <trkpt lat="43.16272" lon="6.48896">
        <ele>289.2</ele>
        <time>2024-02-04T10:02:17Z</time>
      </trkpt>
      <trkpt lat="43.16273" lon="6.48895">
        <ele>289.1</ele>
        <time>2024-02-04T10:02:18Z</time>
      </trkpt>
      <trkpt lat="43.16273" lon="6.48894">
        <ele>288.9</ele>
        <time>2024-02-04T10:02:19Z</time>
      </trkpt>
      <trkpt lat="43.16273" lon="6.48892">
        <ele>288.7</ele>
        <time>2024-02-04T10:02:20Z</time>
      </trkpt>
      <trkpt lat="43.16274" lon="6.48891">
        <ele>288.6</ele>
        <time>2024-02-04T10:02:21Z</time>
      </trkpt>
      <trkpt lat="43.16274" lon="6.4889">
        <ele>288.4</ele>
        <time>2024-02-04T10:02:22Z</time>
      </trkpt>
      <trkpt lat="43.16274" lon="6.48889">
        <ele>288.3</ele>
        <time>2024-02-04T10:02:23Z</time>
      </trkpt>
      <trkpt lat="43.16274" lon="6.48888">
        <ele>288.2</ele>
        <time>2024-02-04T10:02:24Z</time>
      </trkpt>
      <trkpt lat="43.16274" lon="6.48887">
        <ele>288.1</ele>
        <time>2024-02-04T10:02:25Z</time>
      </trkpt>
      <trkpt lat="43.16275" lon="6.48886">
        <ele>287.9</ele>
        <time>2024-02-04T10:02:26Z</time>
      </trkpt>
      <trkpt lat="43.16275" lon="6.48885">
        <ele>287.9</ele>
        <time>2024-02-04T10:02:27Z</time>
      </trkpt>
      <trkpt lat="43.16275" lon="6.48884">
        <ele>287.8</ele>
        <time>2024-02-04T10:02:28Z</time>
      </trkpt>
      <trkpt lat="43.16276" lon="6.48884">
        <ele>287.7</ele>
        <time>2024-02-04T10:02:29Z</time>
      </trkpt>
      <trkpt lat="43.16276" lon="6.48883">
        <ele>287.6</ele>
        <time>2024-02-04T10:02:30Z</time>
      </trkpt>
      <trkpt lat="43.16276" lon="6.48883">
        <ele>287.4</ele>
        <time>2024-02-04T10:02:31Z</time>
      </trkpt>
      <trkpt lat="43.16276" lon="6.48883">
        <ele>287.3</ele>
        <time>2024-02-04T10:02:32Z</time>
      </trkpt>
      <trkpt lat="43.16277" lon="6.48883">
        <ele>287.3</ele>
        <time>2024-02-04T10:02:33Z</time>
      </trkpt>
      <trkpt lat="43.16277" lon="6.48883">
        <ele>287.3</ele>
        <time>2024-02-04T10:02:34Z</time>
      </trkpt>
      <trkpt lat="43.16277" lon="6.48883">
        <ele>287.2</ele>
        <time>2024-02-04T10:02:35Z</time>
      </trkpt>
      <trkpt lat="43.16277" lon="6.48882">
        <ele>287.2</ele>
        <time>2024-02-04T10:02:36Z</time>
      </trkpt>
      <trkpt lat="43.16277" lon="6.48882">
        <ele>287.2</ele>
        <time>2024-02-04T10:02:37Z</time>
      </trkpt>
      <trkpt lat="43.16277" lon="6.48881">
        <ele>287.1</ele>
        <time>2024-02-04T10:02:38Z</time>
      </trkpt>
      <trkpt lat="43.16277" lon="6.4888">
        <ele>287</ele>
        <time>2024-02-04T10:02:39Z</time>
      </trkpt>
      <trkpt lat="43.16278" lon="6.48879">
        <ele>287</ele>
        <time>2024-02-04T10:02:40Z</time>
      </trkpt>
      <trkpt lat="43.16278" lon="6.48877">
        <ele>286.8</ele>
        <time>2024-02-04T10:02:41Z</time>
      </trkpt>
      <trkpt lat="43.16277" lon="6.48878">
        <ele>286.6</ele>
        <time>2024-02-04T10:02:42Z</time>
      </trkpt>
      <trkpt lat="43.16278" lon="6.48877">
        <ele>286.5</ele>
        <time>2024-02-04T10:02:43Z</time>
      </trkpt>
      <trkpt lat="43.16278" lon="6.48877">
        <ele>286.3</ele>
        <time>2024-02-04T10:02:44Z</time>
      </trkpt>
      <trkpt lat="43.16279" lon="6.48876">
        <ele>286.1</ele>
        <time>2024-02-04T10:02:45Z</time>
      </trkpt>
      <trkpt lat="43.16279" lon="6.48876">
        <ele>285.8</ele>
        <time>2024-02-04T10:02:46Z</time>
      </trkpt>
      <trkpt lat="43.1628" lon="6.48875">
        <ele>285.6</ele>
        <time>2024-02-04T10:02:47Z</time>
      </trkpt>
      <trkpt lat="43.1628" lon="6.48874">
        <ele>285.4</ele>
        <time>2024-02-04T10:02:48Z</time>
      </trkpt>
      <trkpt lat="43.16279" lon="6.48874">
        <ele>285.2</ele>
        <time>2024-02-04T10:02:49Z</time>
      </trkpt>
      <trkpt lat="43.1628" lon="6.48874">
        <ele>285</ele>
        <time>2024-02-04T10:02:50Z</time>
      </trkpt>
      <trkpt lat="43.1628" lon="6.48873">
        <ele>284.8</ele>
        <time>2024-02-04T10:02:51Z</time>
      </trkpt>
      <trkpt lat="43.16281" lon="6.48873">
        <ele>284.7</ele>
        <time>2024-02-04T10:02:52Z</time>
      </trkpt>
      <trkpt lat="43.16281" lon="6.48872">
        <ele>284.6</ele>
        <time>2024-02-04T10:02:53Z</time>
      </trkpt>
      <trkpt lat="43.16281" lon="6.48871">
        <ele>284.5</ele>
        <time>2024-02-04T10:02:54Z</time>
      </trkpt>
      <trkpt lat="43.16282" lon="6.48871">
        <ele>284.3</ele>
        <time>2024-02-04T10:02:55Z</time>
      </trkpt>
      <trkpt lat="43.16282" lon="6.4887">
        <ele>284.2</ele>
        <time>2024-02-04T10:02:56Z</time>
      </trkpt>
      <trkpt lat="43.16282" lon="6.48869">
        <ele>284.1</ele>
        <time>2024-02-04T10:02:57Z</time>
      </trkpt>
      <trkpt lat="43.16283" lon="6.48868">
        <ele>283.9</ele>
        <time>2024-02-04T10:02:58Z</time>
      </trkpt>
      <trkpt lat="43.16283" lon="6.48868">
        <ele>283.8</ele>
        <time>2024-02-04T10:02:59Z</time>
      </trkpt>
      <trkpt lat="43.16283" lon="6.48867">
        <ele>283.7</ele>
        <time>2024-02-04T10:03:00Z</time>
      </trkpt>
      <trkpt lat="43.16284" lon="6.48867">
        <ele>283.6</ele>
        <time>2024-02-04T10:03:01Z</time>
      </trkpt>
      <trkpt lat="43.16284" lon="6.48866">
        <ele>283.6</ele>
        <time>2024-02-04T10:03:02Z</time>
      </trkpt>
      <trkpt lat="43.16284" lon="6.48865">
        <ele>283.4</ele>
        <time>2024-02-04T10:03:03Z</time>
      </trkpt>
      <trkpt lat="43.16284" lon="6.48864">
        <ele>283.3</ele>
        <time>2024-02-04T10:03:04Z</time>
      </trkpt>
      <trkpt lat="43.16284" lon="6.48862">
        <ele>283.2</ele>
        <time>2024-02-04T10:03:05Z</time>
      </trkpt>
      <trkpt lat="43.16284" lon="6.48861">
        <ele>283.1</ele>
        <time>2024-02-04T10:03:06Z</time>
      </trkpt>
      <trkpt lat="43.16284" lon="6.4886">
        <ele>283</ele>
        <time>2024-02-04T10:03:07Z</time>
      </trkpt>
      <trkpt lat="43.16285" lon="6.48859">
        <ele>282.9</ele>
        <time>2024-02-04T10:03:08Z</time>
      </trkpt>
      <trkpt lat="43.16285" lon="6.48861">
        <ele>282.8</ele>
        <time>2024-02-04T10:03:09Z</time>
      </trkpt>
      <trkpt lat="43.16284" lon="6.4886">
        <ele>282.7</ele>
        <time>2024-02-04T10:03:10Z</time>
      </trkpt>
      <trkpt lat="43.16284" lon="6.4886">
        <ele>282.5</ele>
        <time>2024-02-04T10:03:11Z</time>
      </trkpt>
      <trkpt lat="43.16284" lon="6.48859">
        <ele>282.4</ele>
        <time>2024-02-04T10:03:12Z</time>
      </trkpt>
      <trkpt lat="43.16285" lon="6.48856">
        <ele>282.2</ele>
        <time>2024-02-04T10:03:13Z</time>
      </trkpt>
      <trkpt lat="43.16285" lon="6.48855">
        <ele>282</ele>
        <time>2024-02-04T10:03:14Z</time>
      </trkpt>
      <trkpt lat="43.16285" lon="6.48854">
        <ele>282</ele>
        <time>2024-02-04T10:03:15Z</time>
      </trkpt>
      <trkpt lat="43.16285" lon="6.48853">
        <ele>281.9</ele>
        <time>2024-02-04T10:03:16Z</time>
      </trkpt>
      <trkpt lat="43.16285" lon="6.48852">
        <ele>281.9</ele>
        <time>2024-02-04T10:03:17Z</time>
      </trkpt>
      <trkpt lat="43.16285" lon="6.48851">
        <ele>281.8</ele>
        <time>2024-02-04T10:03:18Z</time>
      </trkpt>
      <trkpt lat="43.16285" lon="6.4885">
        <ele>281.7</ele>
        <time>2024-02-04T10:03:19Z</time>
      </trkpt>
      <trkpt lat="43.16285" lon="6.48849">
        <ele>281.6</ele>
        <time>2024-02-04T10:03:20Z</time>
      </trkpt>
      <trkpt lat="43.16285" lon="6.48849">
        <ele>281.5</ele>
        <time>2024-02-04T10:03:21Z</time>
      </trkpt>
      <trkpt lat="43.16286" lon="6.48848">
        <ele>281.4</ele>
        <time>2024-02-04T10:03:22Z</time>
      </trkpt>
      <trkpt lat="43.16286" lon="6.48847">
        <ele>281.2</ele>
        <time>2024-02-04T10:03:23Z</time>
      </trkpt>
      <trkpt lat="43.16286" lon="6.48845">
        <ele>281.1</ele>
        <time>2024-02-04T10:03:24Z</time>
      </trkpt>
      <trkpt lat="43.16287" lon="6.48845">
        <ele>281</ele>
        <time>2024-02-04T10:03:25Z</time>
      </trkpt>
      <trkpt lat="43.16287" lon="6.48844">
        <ele>280.9</ele>
        <time>2024-02-04T10:03:26Z</time>
      </trkpt>
      <trkpt lat="43.16288" lon="6.48843">
        <ele>280.7</ele>
        <time>2024-02-04T10:03:27Z</time>
      </trkpt>
      <trkpt lat="43.16288" lon="6.48842">
        <ele>280.6</ele>
        <time>2024-02-04T10:03:28Z</time>
      </trkpt>
      <trkpt lat="43.16288" lon="6.48842">
        <ele>280.4</ele>
        <time>2024-02-04T10:03:29Z</time>
      </trkpt>
      <trkpt lat="43.1629" lon="6.48841">
        <ele>280.2</ele>
        <time>2024-02-04T10:03:30Z</time>
      </trkpt>
      <trkpt lat="43.16291" lon="6.4884">
        <ele>280.2</ele>
        <time>2024-02-04T10:03:31Z</time>
      </trkpt>
      <trkpt lat="43.16291" lon="6.4884">
        <ele>280.1</ele>
        <time>2024-02-04T10:03:32Z</time>
      </trkpt>
      <trkpt lat="43.16292" lon="6.48839">
        <ele>280</ele>
        <time>2024-02-04T10:03:33Z</time>
      </trkpt>
      <trkpt lat="43.16292" lon="6.48838">
        <ele>279.9</ele>
        <time>2024-02-04T10:03:34Z</time>
      </trkpt>
      <trkpt lat="43.16293" lon="6.48837">
        <ele>279.9</ele>
        <time>2024-02-04T10:03:35Z</time>
      </trkpt>
      <trkpt lat="43.16294" lon="6.48836">
        <ele>280.3</ele>
        <time>2024-02-04T10:03:36Z</time>
      </trkpt>
      <trkpt lat="43.16293" lon="6.48836">
        <ele>277.6</ele>
        <time>2024-02-04T10:03:37Z</time>
      </trkpt>
      <trkpt lat="43.16293" lon="6.48835">
        <ele>275.9</ele>
        <time>2024-02-04T10:03:38Z</time>
      </trkpt>
      <trkpt lat="43.16294" lon="6.48834">
        <ele>276.4</ele>
        <time>2024-02-04T10:03:39Z</time>
      </trkpt>
      <trkpt lat="43.16295" lon="6.48833">
        <ele>276.8</ele>
        <time>2024-02-04T10:03:40Z</time>
      </trkpt>
      <trkpt lat="43.16295" lon="6.48834">
        <ele>277.1</ele>
        <time>2024-02-04T10:03:41Z</time>
      </trkpt>
      <trkpt lat="43.16295" lon="6.48833">
        <ele>277.4</ele>
        <time>2024-02-04T10:03:42Z</time>
      </trkpt>
      <trkpt lat="43.16297" lon="6.48833">
        <ele>277.5</ele>
        <time>2024-02-04T10:03:43Z</time>
      </trkpt>
      <trkpt lat="43.16297" lon="6.48832">
        <ele>277.6</ele>
        <time>2024-02-04T10:03:44Z</time>
      </trkpt>
      <trkpt lat="43.16297" lon="6.48833">
        <ele>277.7</ele>
        <time>2024-02-04T10:03:45Z</time>
      </trkpt>
      <trkpt lat="43.16298" lon="6.48833">
        <ele>277.5</ele>
        <time>2024-02-04T10:03:46Z</time>
      </trkpt>
      <trkpt lat="43.16298" lon="6.48832">
        <ele>277.6</ele>
        <time>2024-02-04T10:03:47Z</time>
      </trkpt>
      <trkpt lat="43.16299" lon="6.48832">
        <ele>277.6</ele>
        <time>2024-02-04T10:03:48Z</time>
      </trkpt>
      <trkpt lat="43.163" lon="6.48832">
        <ele>277.6</ele>
        <time>2024-02-04T10:03:49Z</time>
      </trkpt>
      <trkpt lat="43.163" lon="6.48832">
        <ele>277.6</ele>
        <time>2024-02-04T10:03:50Z</time>
      </trkpt>
      <trkpt lat="43.16301" lon="6.48831">
        <ele>277.6</ele>
        <time>2024-02-04T10:03:51Z</time>
      </trkpt>
      <trkpt lat="43.16302" lon="6.4883">
        <ele>277.5</ele>
        <time>2024-02-04T10:03:52Z</time>
      </trkpt>
      <trkpt lat="43.16302" lon="6.4883">
        <ele>277.5</ele>
        <time>2024-02-04T10:03:53Z</time>
      </trkpt>
      <trkpt lat="43.16304" lon="6.48829">
        <ele>277.4</ele>
        <time>2024-02-04T10:03:54Z</time>
      </trkpt>
      <trkpt lat="43.16304" lon="6.48829">
        <ele>277.4</ele>
        <time>2024-02-04T10:03:55Z</time>
      </trkpt>
      <trkpt lat="43.16306" lon="6.48828">
        <ele>277.3</ele>
        <time>2024-02-04T10:03:56Z</time>
      </trkpt>
      <trkpt lat="43.16307" lon="6.48828">
        <ele>277.2</ele>
        <time>2024-02-04T10:03:57Z</time>
      </trkpt>
      <trkpt lat="43.16308" lon="6.48827">
        <ele>277.1</ele>
        <time>2024-02-04T10:03:58Z</time>
      </trkpt>
      <trkpt lat="43.16309" lon="6.48826">
        <ele>277</ele>
        <time>2024-02-04T10:03:59Z</time>
      </trkpt>
      <trkpt lat="43.16309" lon="6.48825">
        <ele>277</ele>
        <time>2024-02-04T10:04:00Z</time>
      </trkpt>
      <trkpt lat="43.1631" lon="6.48824">
        <ele>276.8</ele>
        <time>2024-02-04T10:04:01Z</time>
      </trkpt>
      <trkpt lat="43.16311" lon="6.48823">
        <ele>276.7</ele>
        <time>2024-02-04T10:04:02Z</time>
      </trkpt>
      <trkpt lat="43.16312" lon="6.48821">
        <ele>276.7</ele>
        <time>2024-02-04T10:04:03Z</time>
      </trkpt>
      <trkpt lat="43.16313" lon="6.4882">
        <ele>276.6</ele>
        <time>2024-02-04T10:04:04Z</time>
      </trkpt>
      <trkpt lat="43.16314" lon="6.4882">
        <ele>276.5</ele>
        <time>2024-02-04T10:04:05Z</time>
      </trkpt>
      <trkpt lat="43.16314" lon="6.48819">
        <ele>276.4</ele>
        <time>2024-02-04T10:04:06Z</time>
      </trkpt>
      <trkpt lat="43.16315" lon="6.48818">
        <ele>276.3</ele>
        <time>2024-02-04T10:04:07Z</time>
      </trkpt>
      <trkpt lat="43.16315" lon="6.48816">
        <ele>276.1</ele>
        <time>2024-02-04T10:04:08Z</time>
      </trkpt>
      <trkpt lat="43.16315" lon="6.48815">
        <ele>275.9</ele>
        <time>2024-02-04T10:04:09Z</time>
      </trkpt>
      <trkpt lat="43.16316" lon="6.48815">
        <ele>275.7</ele>
        <time>2024-02-04T10:04:10Z</time>
      </trkpt>
      <trkpt lat="43.16316" lon="6.48814">
        <ele>275.6</ele>
        <time>2024-02-04T10:04:11Z</time>
      </trkpt>
      <trkpt lat="43.16317" lon="6.48812">
        <ele>275.4</ele>
        <time>2024-02-04T10:04:12Z</time>
      </trkpt>
      <trkpt lat="43.16318" lon="6.4881">
        <ele>275.3</ele>
        <time>2024-02-04T10:04:13Z</time>
      </trkpt>
      <trkpt lat="43.16318" lon="6.48809">
        <ele>275.2</ele>
        <time>2024-02-04T10:04:14Z</time>
      </trkpt>
      <trkpt lat="43.16319" lon="6.48808">
        <ele>275.1</ele>
        <time>2024-02-04T10:04:15Z</time>
      </trkpt>
      <trkpt lat="43.16319" lon="6.48806">
        <ele>274.9</ele>
        <time>2024-02-04T10:04:16Z</time>
      </trkpt>
      <trkpt lat="43.16319" lon="6.48805">
        <ele>274.8</ele>
        <time>2024-02-04T10:04:17Z</time>
      </trkpt>
      <trkpt lat="43.16319" lon="6.48803">
        <ele>274.6</ele>
        <time>2024-02-04T10:04:18Z</time>
      </trkpt>
      <trkpt lat="43.16319" lon="6.48802">
        <ele>274.5</ele>
        <time>2024-02-04T10:04:19Z</time>
      </trkpt>
      <trkpt lat="43.1632" lon="6.488">
        <ele>274.3</ele>
        <time>2024-02-04T10:04:20Z</time>
      </trkpt>
      <trkpt lat="43.1632" lon="6.48798">
        <ele>274.2</ele>
        <time>2024-02-04T10:04:21Z</time>
      </trkpt>
      <trkpt lat="43.16321" lon="6.48796">
        <ele>274</ele>
        <time>2024-02-04T10:04:22Z</time>
      </trkpt>
      <trkpt lat="43.16321" lon="6.48795">
        <ele>273.7</ele>
        <time>2024-02-04T10:04:23Z</time>
      </trkpt>
      <trkpt lat="43.16321" lon="6.48793">
        <ele>273.5</ele>
        <time>2024-02-04T10:04:24Z</time>
      </trkpt>
      <trkpt lat="43.16321" lon="6.48792">
        <ele>273.3</ele>
        <time>2024-02-04T10:04:25Z</time>
      </trkpt>
      <trkpt lat="43.16321" lon="6.48791">
        <ele>273.1</ele>
        <time>2024-02-04T10:04:26Z</time>
      </trkpt>
      <trkpt lat="43.16322" lon="6.48789">
        <ele>272.9</ele>
        <time>2024-02-04T10:04:27Z</time>
      </trkpt>
      <trkpt lat="43.16322" lon="6.48787">
        <ele>272.8</ele>
        <time>2024-02-04T10:04:28Z</time>
      </trkpt>
      <trkpt lat="43.16322" lon="6.48785">
        <ele>272.6</ele>
        <time>2024-02-04T10:04:29Z</time>
      </trkpt>
      <trkpt lat="43.16323" lon="6.48783">
        <ele>272.6</ele>
        <time>2024-02-04T10:04:30Z</time>
      </trkpt>
      <trkpt lat="43.16323" lon="6.48782">
        <ele>272.5</ele>
        <time>2024-02-04T10:04:31Z</time>
      </trkpt>
      <trkpt lat="43.16323" lon="6.4878">
        <ele>272.4</ele>
        <time>2024-02-04T10:04:32Z</time>
      </trkpt>
      <trkpt lat="43.16323" lon="6.48779">
        <ele>272.4</ele>
        <time>2024-02-04T10:04:33Z</time>
      </trkpt>
      <trkpt lat="43.16323" lon="6.48778">
        <ele>272.3</ele>
        <time>2024-02-04T10:04:34Z</time>
      </trkpt>
      <trkpt lat="43.16324" lon="6.48776">
        <ele>272.2</ele>
        <time>2024-02-04T10:04:35Z</time>
      </trkpt>
      <trkpt lat="43.16324" lon="6.48775">
        <ele>272.2</ele>
        <time>2024-02-04T10:04:36Z</time>
      </trkpt>
      <trkpt lat="43.16324" lon="6.48774">
        <ele>272.1</ele>
        <time>2024-02-04T10:04:37Z</time>
      </trkpt>
      <trkpt lat="43.16324" lon="6.48772">
        <ele>272</ele>
        <time>2024-02-04T10:04:38Z</time>
      </trkpt>
      <trkpt lat="43.16324" lon="6.48772">
        <ele>271.9</ele>
        <time>2024-02-04T10:04:39Z</time>
      </trkpt>
      <trkpt lat="43.16325" lon="6.48771">
        <ele>271.9</ele>
        <time>2024-02-04T10:04:40Z</time>
      </trkpt>
      <trkpt lat="43.16326" lon="6.4877">
        <ele>271.8</ele>
        <time>2024-02-04T10:04:41Z</time>
      </trkpt>
      <trkpt lat="43.16326" lon="6.48769">
        <ele>271.7</ele>
        <time>2024-02-04T10:04:42Z</time>
      </trkpt>
      <trkpt lat="43.16327" lon="6.48768">
        <ele>271.6</ele>
        <time>2024-02-04T10:04:43Z</time>
      </trkpt>
      <trkpt lat="43.16327" lon="6.48768">
        <ele>271.5</ele>
        <time>2024-02-04T10:04:44Z</time>
      </trkpt>
      <trkpt lat="43.16327" lon="6.48767">
        <ele>271.4</ele>
        <time>2024-02-04T10:04:45Z</time>
      </trkpt>
      <trkpt lat="43.16328" lon="6.48766">
        <ele>271.3</ele>
        <time>2024-02-04T10:04:46Z</time>
      </trkpt>
      <trkpt lat="43.16328" lon="6.48765">
        <ele>271.2</ele>
        <time>2024-02-04T10:04:47Z</time>
      </trkpt>
      <trkpt lat="43.16328" lon="6.48765">
        <ele>271.2</ele>
        <time>2024-02-04T10:04:48Z</time>
      </trkpt>
      <trkpt lat="43.16328" lon="6.48764">
        <ele>271.1</ele>
        <time>2024-02-04T10:04:49Z</time>
      </trkpt>
      <trkpt lat="43.16328" lon="6.48764">
        <ele>271</ele>
        <time>2024-02-04T10:04:50Z</time>
      </trkpt>
      <trkpt lat="43.16329" lon="6.48763">
        <ele>271</ele>
        <time>2024-02-04T10:04:51Z</time>
      </trkpt>
      <trkpt lat="43.16329" lon="6.48763">
        <ele>270.9</ele>
        <time>2024-02-04T10:04:52Z</time>
      </trkpt>
      <trkpt lat="43.1633" lon="6.48762">
        <ele>270.8</ele>
        <time>2024-02-04T10:04:53Z</time>
      </trkpt>
      <trkpt lat="43.16331" lon="6.48761">
        <ele>270.7</ele>
        <time>2024-02-04T10:04:54Z</time>
      </trkpt>
      <trkpt lat="43.16332" lon="6.48759">
        <ele>270.6</ele>
        <time>2024-02-04T10:04:55Z</time>
      </trkpt>
      <trkpt lat="43.16333" lon="6.48758">
        <ele>270.5</ele>
        <time>2024-02-04T10:04:56Z</time>
      </trkpt>
      <trkpt lat="43.16334" lon="6.48757">
        <ele>270.5</ele>
        <time>2024-02-04T10:04:57Z</time>
      </trkpt>
      <trkpt lat="43.16335" lon="6.48757">
        <ele>270.4</ele>
        <time>2024-02-04T10:04:58Z</time>
      </trkpt>
      <trkpt lat="43.16335" lon="6.48756">
        <ele>270.4</ele>
        <time>2024-02-04T10:04:59Z</time>
      </trkpt>
      <trkpt lat="43.16336" lon="6.48755">
        <ele>270.3</ele>
        <time>2024-02-04T10:05:00Z</time>
      </trkpt>
      <trkpt lat="43.16337" lon="6.48753">
        <ele>270.3</ele>
        <time>2024-02-04T10:05:01Z</time>
      </trkpt>
      <trkpt lat="43.16338" lon="6.48753">
        <ele>270.3</ele>
        <time>2024-02-04T10:05:02Z</time>
      </trkpt>
      <trkpt lat="43.16338" lon="6.48752">
        <ele>270.3</ele>
        <time>2024-02-04T10:05:03Z</time>
      </trkpt>
      <trkpt lat="43.16339" lon="6.48751">
        <ele>270.3</ele>
        <time>2024-02-04T10:05:04Z</time>
      </trkpt>
      <trkpt lat="43.1634" lon="6.4875">
        <ele>270.3</ele>
        <time>2024-02-04T10:05:05Z</time>
      </trkpt>
      <trkpt lat="43.16341" lon="6.48749">
        <ele>270.2</ele>
        <time>2024-02-04T10:05:06Z</time>
      </trkpt>
      <trkpt lat="43.16341" lon="6.48747">
        <ele>270.1</ele>
        <time>2024-02-04T10:05:07Z</time>
      </trkpt>
      <trkpt lat="43.16342" lon="6.48746">
        <ele>270.1</ele>
        <time>2024-02-04T10:05:08Z</time>
      </trkpt>
      <trkpt lat="43.16342" lon="6.48745">
        <ele>270</ele>
        <time>2024-02-04T10:05:09Z</time>
      </trkpt>
      <trkpt lat="43.16343" lon="6.48744">
        <ele>269.9</ele>
        <time>2024-02-04T10:05:10Z</time>
      </trkpt>
      <trkpt lat="43.16343" lon="6.48743">
        <ele>269.9</ele>
        <time>2024-02-04T10:05:11Z</time>
      </trkpt>
      <trkpt lat="43.16344" lon="6.48742">
        <ele>269.9</ele>
        <time>2024-02-04T10:05:12Z</time>
      </trkpt>
      <trkpt lat="43.16344" lon="6.48741">
        <ele>269.8</ele>
        <time>2024-02-04T10:05:13Z</time>
      </trkpt>
      <trkpt lat="43.16344" lon="6.48739">
        <ele>269.8</ele>
        <time>2024-02-04T10:05:14Z</time>
      </trkpt>
      <trkpt lat="43.16345" lon="6.48738">
        <ele>269.8</ele>
        <time>2024-02-04T10:05:15Z</time>
      </trkpt>
      <trkpt lat="43.16346" lon="6.48738">
        <ele>269.8</ele>
        <time>2024-02-04T10:05:16Z</time>
      </trkpt>
      <trkpt lat="43.16346" lon="6.48737">
        <ele>269.8</ele>
        <time>2024-02-04T10:05:17Z</time>
      </trkpt>
      <trkpt lat="43.16347" lon="6.48736">
        <ele>269.7</ele>
        <time>2024-02-04T10:05:18Z</time>
      </trkpt>
      <trkpt lat="43.16347" lon="6.48735">
        <ele>269.7</ele>
        <time>2024-02-04T10:05:19Z</time>
      </trkpt>
      <trkpt lat="43.16347" lon="6.48734">
        <ele>269.6</ele>
        <time>2024-02-04T10:05:20Z</time>
      </trkpt>
      <trkpt lat="43.16348" lon="6.48734">
        <ele>269.6</ele>
        <time>2024-02-04T10:05:21Z</time>
      </trkpt>
      <trkpt lat="43.16348" lon="6.48733">
        <ele>269.5</ele>
        <time>2024-02-04T10:05:22Z</time>
      </trkpt>
      <trkpt lat="43.16348" lon="6.48733">
        <ele>269.4</ele>
        <time>2024-02-04T10:05:23Z</time>
      </trkpt>
      <trkpt lat="43.16348" lon="6.48733">
        <ele>269.3</ele>
        <time>2024-02-04T10:05:24Z</time>
      </trkpt>
      <trkpt lat="43.16349" lon="6.48733">
        <ele>269.3</ele>
        <time>2024-02-04T10:05:25Z</time>
      </trkpt>
      <trkpt lat="43.16349" lon="6.48733">
        <ele>269.1</ele>
        <time>2024-02-04T10:05:26Z</time>
      </trkpt>
      <trkpt lat="43.16349" lon="6.48733">
        <ele>269</ele>
        <time>2024-02-04T10:05:27Z</time>
      </trkpt>
      <trkpt lat="43.16349" lon="6.48732">
        <ele>269</ele>
        <time>2024-02-04T10:05:28Z</time>
      </trkpt>
      <trkpt lat="43.16349" lon="6.48732">
        <ele>268.9</ele>
        <time>2024-02-04T10:05:29Z</time>
      </trkpt>
      <trkpt lat="43.16349" lon="6.48732">
        <ele>268.9</ele>
        <time>2024-02-04T10:05:30Z</time>
      </trkpt>
      <trkpt lat="43.16349" lon="6.48732">
        <ele>268.8</ele>
        <time>2024-02-04T10:05:31Z</time>
      </trkpt>
      <trkpt lat="43.1635" lon="6.48732">
        <ele>268.7</ele>
        <time>2024-02-04T10:05:32Z</time>
      </trkpt>
      <trkpt lat="43.1635" lon="6.48732">
        <ele>268.5</ele>
        <time>2024-02-04T10:05:33Z</time>
      </trkpt>
      <trkpt lat="43.1635" lon="6.48732">
        <ele>268.3</ele>
        <time>2024-02-04T10:05:34Z</time>
      </trkpt>
      <trkpt lat="43.1635" lon="6.48732">
        <ele>268.2</ele>
        <time>2024-02-04T10:05:35Z</time>
      </trkpt>
      <trkpt lat="43.1635" lon="6.48732">
        <ele>268</ele>
        <time>2024-02-04T10:05:36Z</time>
      </trkpt>
      <trkpt lat="43.1635" lon="6.48732">
        <ele>268</ele>
        <time>2024-02-04T10:05:37Z</time>
      </trkpt>
      <trkpt lat="43.1635" lon="6.48732">
        <ele>267.9</ele>
        <time>2024-02-04T10:05:38Z</time>
      </trkpt>
      <trkpt lat="43.1635" lon="6.48731">
        <ele>268</ele>
        <time>2024-02-04T10:05:39Z</time>
      </trkpt>
      <trkpt lat="43.1635" lon="6.48731">
        <ele>267.9</ele>
        <time>2024-02-04T10:05:40Z</time>
      </trkpt>
      <trkpt lat="43.1635" lon="6.48731">
        <ele>267.9</ele>
        <time>2024-02-04T10:05:41Z</time>
      </trkpt>
      <trkpt lat="43.16351" lon="6.48731">
        <ele>267.8</ele>
        <time>2024-02-04T10:05:42Z</time>
      </trkpt>
      <trkpt lat="43.16351" lon="6.48731">
        <ele>267.8</ele>
        <time>2024-02-04T10:05:43Z</time>
      </trkpt>
      <trkpt lat="43.16351" lon="6.4873">
        <ele>267.8</ele>
        <time>2024-02-04T10:05:44Z</time>
      </trkpt>
      <trkpt lat="43.16351" lon="6.4873">
        <ele>267.8</ele>
        <time>2024-02-04T10:05:45Z</time>
      </trkpt>
      <trkpt lat="43.1635" lon="6.4873">
        <ele>267.8</ele>
        <time>2024-02-04T10:05:46Z</time>
      </trkpt>
      <trkpt lat="43.1635" lon="6.4873">
        <ele>267.8</ele>
        <time>2024-02-04T10:05:47Z</time>
      </trkpt>
      <trkpt lat="43.1635" lon="6.4873">
        <ele>267.7</ele>
        <time>2024-02-04T10:05:48Z</time>
      </trkpt>
      <trkpt lat="43.1635" lon="6.4873">
        <ele>267.7</ele>
        <time>2024-02-04T10:05:49Z</time>
      </trkpt>
      <trkpt lat="43.1635" lon="6.4873">
        <ele>267.7</ele>
        <time>2024-02-04T10:05:50Z</time>
      </trkpt>
      <trkpt lat="43.1635" lon="6.4873">
        <ele>267.6</ele>
        <time>2024-02-04T10:05:51Z</time>
      </trkpt>
      <trkpt lat="43.1635" lon="6.4873">
        <ele>267.6</ele>
        <time>2024-02-04T10:05:52Z</time>
      </trkpt>
      <trkpt lat="43.16351" lon="6.4873">
        <ele>267.5</ele>
        <time>2024-02-04T10:05:53Z</time>
      </trkpt>
      <trkpt lat="43.16351" lon="6.4873">
        <ele>267.4</ele>
        <time>2024-02-04T10:05:54Z</time>
      </trkpt>
      <trkpt lat="43.1635" lon="6.4873">
        <ele>267.5</ele>
        <time>2024-02-04T10:05:55Z</time>
      </trkpt>
      <trkpt lat="43.1635" lon="6.4873">
        <ele>267.6</ele>
        <time>2024-02-04T10:05:56Z</time>
      </trkpt>
      <trkpt lat="43.1635" lon="6.48729">
        <ele>267.6</ele>
        <time>2024-02-04T10:05:57Z</time>
      </trkpt>
      <trkpt lat="43.16351" lon="6.48728">
        <ele>267.7</ele>
        <time>2024-02-04T10:05:58Z</time>
      </trkpt>
      <trkpt lat="43.16352" lon="6.48727">
        <ele>267.7</ele>
        <time>2024-02-04T10:05:59Z</time>
      </trkpt>
      <trkpt lat="43.16352" lon="6.48726">
        <ele>267.7</ele>
        <time>2024-02-04T10:06:00Z</time>
      </trkpt>
      <trkpt lat="43.16352" lon="6.48726">
        <ele>267.6</ele>
        <time>2024-02-04T10:06:01Z</time>
      </trkpt>
      <trkpt lat="43.16353" lon="6.48725">
        <ele>267.6</ele>
        <time>2024-02-04T10:06:02Z</time>
      </trkpt>
      <trkpt lat="43.16354" lon="6.48724">
        <ele>267.6</ele>
        <time>2024-02-04T10:06:03Z</time>
      </trkpt>
      <trkpt lat="43.16355" lon="6.48723">
        <ele>267.5</ele>
        <time>2024-02-04T10:06:04Z</time>
      </trkpt>
      <trkpt lat="43.16355" lon="6.48721">
        <ele>267.5</ele>
        <time>2024-02-04T10:06:05Z</time>
      </trkpt>
      <trkpt lat="43.16356" lon="6.4872">
        <ele>267.5</ele>
        <time>2024-02-04T10:06:06Z</time>
      </trkpt>
      <trkpt lat="43.16356" lon="6.48719">
        <ele>267.6</ele>
        <time>2024-02-04T10:06:07Z</time>
      </trkpt>
      <trkpt lat="43.16357" lon="6.48719">
        <ele>267.5</ele>
        <time>2024-02-04T10:06:08Z</time>
      </trkpt>
      <trkpt lat="43.16359" lon="6.48719">
        <ele>267.4</ele>
        <time>2024-02-04T10:06:09Z</time>
      </trkpt>
      <trkpt lat="43.1636" lon="6.48719">
        <ele>267.4</ele>
        <time>2024-02-04T10:06:10Z</time>
      </trkpt>
      <trkpt lat="43.1636" lon="6.48718">
        <ele>267.3</ele>
        <time>2024-02-04T10:06:11Z</time>
      </trkpt>
      <trkpt lat="43.16361" lon="6.48717">
        <ele>267.1</ele>
        <time>2024-02-04T10:06:12Z</time>
      </trkpt>
      <trkpt lat="43.16362" lon="6.48717">
        <ele>266.9</ele>
        <time>2024-02-04T10:06:13Z</time>
      </trkpt>
      <trkpt lat="43.16363" lon="6.48717">
        <ele>266.7</ele>
        <time>2024-02-04T10:06:14Z</time>
      </trkpt>
      <trkpt lat="43.16364" lon="6.48717">
        <ele>266.5</ele>
        <time>2024-02-04T10:06:15Z</time>
      </trkpt>
      <trkpt lat="43.16365" lon="6.48717">
        <ele>266.3</ele>
        <time>2024-02-04T10:06:16Z</time>
      </trkpt>
      <trkpt lat="43.16366" lon="6.48717">
        <ele>266.2</ele>
        <time>2024-02-04T10:06:17Z</time>
      </trkpt>
      <trkpt lat="43.16367" lon="6.48717">
        <ele>266</ele>
        <time>2024-02-04T10:06:18Z</time>
      </trkpt>
      <trkpt lat="43.16368" lon="6.48718">
        <ele>265.9</ele>
        <time>2024-02-04T10:06:19Z</time>
      </trkpt>
      <trkpt lat="43.16369" lon="6.48717">
        <ele>265.8</ele>
        <time>2024-02-04T10:06:20Z</time>
      </trkpt>
      <trkpt lat="43.16369" lon="6.48718">
        <ele>265.7</ele>
        <time>2024-02-04T10:06:21Z</time>
      </trkpt>
      <trkpt lat="43.1637" lon="6.48718">
        <ele>265.5</ele>
        <time>2024-02-04T10:06:22Z</time>
      </trkpt>
      <trkpt lat="43.16371" lon="6.48718">
        <ele>265.3</ele>
        <time>2024-02-04T10:06:23Z</time>
      </trkpt>
      <trkpt lat="43.16372" lon="6.48718">
        <ele>265.1</ele>
        <time>2024-02-04T10:06:24Z</time>
      </trkpt>
      <trkpt lat="43.16373" lon="6.48718">
        <ele>265</ele>
        <time>2024-02-04T10:06:25Z</time>
      </trkpt>
      <trkpt lat="43.16374" lon="6.48719">
        <ele>264.8</ele>
        <time>2024-02-04T10:06:26Z</time>
      </trkpt>
      <trkpt lat="43.16375" lon="6.48719">
        <ele>264.7</ele>
        <time>2024-02-04T10:06:27Z</time>
      </trkpt>
      <trkpt lat="43.16376" lon="6.4872">
        <ele>264.6</ele>
        <time>2024-02-04T10:06:28Z</time>
      </trkpt>
      <trkpt lat="43.16377" lon="6.4872">
        <ele>264.4</ele>
        <time>2024-02-04T10:06:29Z</time>
      </trkpt>
      <trkpt lat="43.16378" lon="6.4872">
        <ele>264.2</ele>
        <time>2024-02-04T10:06:30Z</time>
      </trkpt>
      <trkpt lat="43.16379" lon="6.4872">
        <ele>264.1</ele>
        <time>2024-02-04T10:06:31Z</time>
      </trkpt>
      <trkpt lat="43.1638" lon="6.4872">
        <ele>263.8</ele>
        <time>2024-02-04T10:06:32Z</time>
      </trkpt>
      <trkpt lat="43.16381" lon="6.4872">
        <ele>263.7</ele>
        <time>2024-02-04T10:06:33Z</time>
      </trkpt>
      <trkpt lat="43.16382" lon="6.4872">
        <ele>263.5</ele>
        <time>2024-02-04T10:06:34Z</time>
      </trkpt>
      <trkpt lat="43.16382" lon="6.4872">
        <ele>263.3</ele>
        <time>2024-02-04T10:06:35Z</time>
      </trkpt>
      <trkpt lat="43.16383" lon="6.4872">
        <ele>263.1</ele>
        <time>2024-02-04T10:06:36Z</time>
      </trkpt>
      <trkpt lat="43.16384" lon="6.48721">
        <ele>263</ele>
        <time>2024-02-04T10:06:37Z</time>
      </trkpt>
      <trkpt lat="43.16385" lon="6.48721">
        <ele>262.9</ele>
        <time>2024-02-04T10:06:38Z</time>
      </trkpt>
      <trkpt lat="43.16387" lon="6.48721">
        <ele>262.7</ele>
        <time>2024-02-04T10:06:39Z</time>
      </trkpt>
      <trkpt lat="43.16388" lon="6.48722">
        <ele>262.6</ele>
        <time>2024-02-04T10:06:40Z</time>
      </trkpt>
      <trkpt lat="43.16389" lon="6.48722">
        <ele>262.4</ele>
        <time>2024-02-04T10:06:41Z</time>
      </trkpt>
      <trkpt lat="43.1639" lon="6.48722">
        <ele>262.2</ele>
        <time>2024-02-04T10:06:42Z</time>
      </trkpt>
      <trkpt lat="43.16391" lon="6.48722">
        <ele>262</ele>
        <time>2024-02-04T10:06:43Z</time>
      </trkpt>
      <trkpt lat="43.16392" lon="6.48722">
        <ele>261.9</ele>
        <time>2024-02-04T10:06:44Z</time>
      </trkpt>
      <trkpt lat="43.16393" lon="6.48722">
        <ele>261.7</ele>
        <time>2024-02-04T10:06:45Z</time>
      </trkpt>
      <trkpt lat="43.16394" lon="6.48723">
        <ele>261.6</ele>
        <time>2024-02-04T10:06:46Z</time>
      </trkpt>
      <trkpt lat="43.16395" lon="6.48723">
        <ele>261.5</ele>
        <time>2024-02-04T10:06:47Z</time>
      </trkpt>
      <trkpt lat="43.16396" lon="6.48723">
        <ele>261.3</ele>
        <time>2024-02-04T10:06:48Z</time>
      </trkpt>
      <trkpt lat="43.16397" lon="6.48722">
        <ele>261.2</ele>
        <time>2024-02-04T10:06:49Z</time>
      </trkpt>
      <trkpt lat="43.16398" lon="6.48721">
        <ele>261</ele>
        <time>2024-02-04T10:06:50Z</time>
      </trkpt>
      <trkpt lat="43.16399" lon="6.48721">
        <ele>261</ele>
        <time>2024-02-04T10:06:51Z</time>
      </trkpt>
      <trkpt lat="43.164" lon="6.4872">
        <ele>260.9</ele>
        <time>2024-02-04T10:06:52Z</time>
      </trkpt>
      <trkpt lat="43.16401" lon="6.4872">
        <ele>260.8</ele>
        <time>2024-02-04T10:06:53Z</time>
      </trkpt>
      <trkpt lat="43.16402" lon="6.4872">
        <ele>260.7</ele>
        <time>2024-02-04T10:06:54Z</time>
      </trkpt>
      <trkpt lat="43.16403" lon="6.4872">
        <ele>260.6</ele>
        <time>2024-02-04T10:06:55Z</time>
      </trkpt>
      <trkpt lat="43.16404" lon="6.4872">
        <ele>260.5</ele>
        <time>2024-02-04T10:06:56Z</time>
      </trkpt>
      <trkpt lat="43.16405" lon="6.48719">
        <ele>260.4</ele>
        <time>2024-02-04T10:06:57Z</time>
      </trkpt>
      <trkpt lat="43.16406" lon="6.48718">
        <ele>260.3</ele>
        <time>2024-02-04T10:06:58Z</time>
      </trkpt>
      <trkpt lat="43.16407" lon="6.48717">
        <ele>260.2</ele>
        <time>2024-02-04T10:06:59Z</time>
      </trkpt>
      <trkpt lat="43.16408" lon="6.48716">
        <ele>260.1</ele>
        <time>2024-02-04T10:07:00Z</time>
      </trkpt>
      <trkpt lat="43.16409" lon="6.48716">
        <ele>260</ele>
        <time>2024-02-04T10:07:01Z</time>
      </trkpt>
      <trkpt lat="43.1641" lon="6.48715">
        <ele>260</ele>
        <time>2024-02-04T10:07:02Z</time>
      </trkpt>
      <trkpt lat="43.16411" lon="6.48715">
        <ele>259.9</ele>
        <time>2024-02-04T10:07:03Z</time>
      </trkpt>
      <trkpt lat="43.16412" lon="6.48714">
        <ele>259.9</ele>
        <time>2024-02-04T10:07:04Z</time>
      </trkpt>
      <trkpt lat="43.16413" lon="6.48714">
        <ele>259.8</ele>
        <time>2024-02-04T10:07:05Z</time>
      </trkpt>
      <trkpt lat="43.16414" lon="6.48713">
        <ele>259.7</ele>
        <time>2024-02-04T10:07:06Z</time>
      </trkpt>
      <trkpt lat="43.16415" lon="6.48712">
        <ele>259.5</ele>
        <time>2024-02-04T10:07:07Z</time>
      </trkpt>
      <trkpt lat="43.16416" lon="6.48712">
        <ele>259.3</ele>
        <time>2024-02-04T10:07:08Z</time>
      </trkpt>
      <trkpt lat="43.16417" lon="6.48711">
        <ele>259.1</ele>
        <time>2024-02-04T10:07:09Z</time>
      </trkpt>
      <trkpt lat="43.16417" lon="6.4871">
        <ele>258.9</ele>
        <time>2024-02-04T10:07:10Z</time>
      </trkpt>
      <trkpt lat="43.16419" lon="6.4871">
        <ele>258.8</ele>
        <time>2024-02-04T10:07:11Z</time>
      </trkpt>
      <trkpt lat="43.16419" lon="6.4871">
        <ele>258.6</ele>
        <time>2024-02-04T10:07:12Z</time>
      </trkpt>
      <trkpt lat="43.1642" lon="6.48709">
        <ele>258.4</ele>
        <time>2024-02-04T10:07:13Z</time>
      </trkpt>
      <trkpt lat="43.16421" lon="6.48709">
        <ele>258.3</ele>
        <time>2024-02-04T10:07:14Z</time>
      </trkpt>
      <trkpt lat="43.16422" lon="6.48708">
        <ele>258.2</ele>
        <time>2024-02-04T10:07:15Z</time>
      </trkpt>
      <trkpt lat="43.16422" lon="6.48708">
        <ele>258</ele>
        <time>2024-02-04T10:07:16Z</time>
      </trkpt>
      <trkpt lat="43.16422" lon="6.48707">
        <ele>257.9</ele>
        <time>2024-02-04T10:07:17Z</time>
      </trkpt>
      <trkpt lat="43.16423" lon="6.48707">
        <ele>257.9</ele>
        <time>2024-02-04T10:07:18Z</time>
      </trkpt>
      <trkpt lat="43.16424" lon="6.48707">
        <ele>257.8</ele>
        <time>2024-02-04T10:07:19Z</time>
      </trkpt>
      <trkpt lat="43.16425" lon="6.48706">
        <ele>257.7</ele>
        <time>2024-02-04T10:07:20Z</time>
      </trkpt>
      <trkpt lat="43.16425" lon="6.48705">
        <ele>257.5</ele>
        <time>2024-02-04T10:07:21Z</time>
      </trkpt>
      <trkpt lat="43.16426" lon="6.48704">
        <ele>257.3</ele>
        <time>2024-02-04T10:07:22Z</time>
      </trkpt>
      <trkpt lat="43.16427" lon="6.48703">
        <ele>257.2</ele>
        <time>2024-02-04T10:07:23Z</time>
      </trkpt>
      <trkpt lat="43.16428" lon="6.48702">
        <ele>257</ele>
        <time>2024-02-04T10:07:24Z</time>
      </trkpt>
      <trkpt lat="43.16429" lon="6.48701">
        <ele>256.8</ele>
        <time>2024-02-04T10:07:25Z</time>
      </trkpt>
      <trkpt lat="43.1643" lon="6.487">
        <ele>256.6</ele>
        <time>2024-02-04T10:07:26Z</time>
      </trkpt>
      <trkpt lat="43.1643" lon="6.487">
        <ele>256.4</ele>
        <time>2024-02-04T10:07:27Z</time>
      </trkpt>
      <trkpt lat="43.16431" lon="6.48699">
        <ele>256.3</ele>
        <time>2024-02-04T10:07:28Z</time>
      </trkpt>
      <trkpt lat="43.16432" lon="6.48699">
        <ele>256</ele>
        <time>2024-02-04T10:07:29Z</time>
      </trkpt>
      <trkpt lat="43.16433" lon="6.48698">
        <ele>255.8</ele>
        <time>2024-02-04T10:07:30Z</time>
      </trkpt>
      <trkpt lat="43.16434" lon="6.48698">
        <ele>255.7</ele>
        <time>2024-02-04T10:07:31Z</time>
      </trkpt>
      <trkpt lat="43.16435" lon="6.48698">
        <ele>255.6</ele>
        <time>2024-02-04T10:07:32Z</time>
      </trkpt>
      <trkpt lat="43.16436" lon="6.48697">
        <ele>255.5</ele>
        <time>2024-02-04T10:07:33Z</time>
      </trkpt>
      <trkpt lat="43.16437" lon="6.48697">
        <ele>255.4</ele>
        <time>2024-02-04T10:07:34Z</time>
      </trkpt>
      <trkpt lat="43.16438" lon="6.48697">
        <ele>255.3</ele>
        <time>2024-02-04T10:07:35Z</time>
      </trkpt>
      <trkpt lat="43.16439" lon="6.48697">
        <ele>255.3</ele>
        <time>2024-02-04T10:07:36Z</time>
      </trkpt>
      <trkpt lat="43.1644" lon="6.48697">
        <ele>255.2</ele>
        <time>2024-02-04T10:07:37Z</time>
      </trkpt>
      <trkpt lat="43.16441" lon="6.48697">
        <ele>255.1</ele>
        <time>2024-02-04T10:07:38Z</time>
      </trkpt>
      <trkpt lat="43.16442" lon="6.48697">
        <ele>255.1</ele>
        <time>2024-02-04T10:07:39Z</time>
      </trkpt>
      <trkpt lat="43.16443" lon="6.48697">
        <ele>254.9</ele>
        <time>2024-02-04T10:07:40Z</time>
      </trkpt>
      <trkpt lat="43.16445" lon="6.48696">
        <ele>254.8</ele>
        <time>2024-02-04T10:07:41Z</time>
      </trkpt>
      <trkpt lat="43.16445" lon="6.48697">
        <ele>254.7</ele>
        <time>2024-02-04T10:07:42Z</time>
      </trkpt>
      <trkpt lat="43.16446" lon="6.48697">
        <ele>254.5</ele>
        <time>2024-02-04T10:07:43Z</time>
      </trkpt>
      <trkpt lat="43.16447" lon="6.48697">
        <ele>254.4</ele>
        <time>2024-02-04T10:07:44Z</time>
      </trkpt>
      <trkpt lat="43.16448" lon="6.48697">
        <ele>254.4</ele>
        <time>2024-02-04T10:07:45Z</time>
      </trkpt>
      <trkpt lat="43.16449" lon="6.48697">
        <ele>254.3</ele>
        <time>2024-02-04T10:07:46Z</time>
      </trkpt>
      <trkpt lat="43.1645" lon="6.48697">
        <ele>254.3</ele>
        <time>2024-02-04T10:07:47Z</time>
      </trkpt>
      <trkpt lat="43.16451" lon="6.48696">
        <ele>254.2</ele>
        <time>2024-02-04T10:07:48Z</time>
      </trkpt>
      <trkpt lat="43.16452" lon="6.48697">
        <ele>254.1</ele>
        <time>2024-02-04T10:07:49Z</time>
      </trkpt>
      <trkpt lat="43.16453" lon="6.48696">
        <ele>253.9</ele>
        <time>2024-02-04T10:07:50Z</time>
      </trkpt>
      <trkpt lat="43.16453" lon="6.48696">
        <ele>253.8</ele>
        <time>2024-02-04T10:07:51Z</time>
      </trkpt>
      <trkpt lat="43.16454" lon="6.48696">
        <ele>253.8</ele>
        <time>2024-02-04T10:07:52Z</time>
      </trkpt>
      <trkpt lat="43.16455" lon="6.48696">
        <ele>253.8</ele>
        <time>2024-02-04T10:07:53Z</time>
      </trkpt>
      <trkpt lat="43.16456" lon="6.48696">
        <ele>253.7</ele>
        <time>2024-02-04T10:07:54Z</time>
      </trkpt>
      <trkpt lat="43.16456" lon="6.48696">
        <ele>253.6</ele>
        <time>2024-02-04T10:07:55Z</time>
      </trkpt>
      <trkpt lat="43.16456" lon="6.48696">
        <ele>253.5</ele>
        <time>2024-02-04T10:07:56Z</time>
      </trkpt>
      <trkpt lat="43.16457" lon="6.48695">
        <ele>253.3</ele>
        <time>2024-02-04T10:07:57Z</time>
      </trkpt>
      <trkpt lat="43.16457" lon="6.48696">
        <ele>253.1</ele>
        <time>2024-02-04T10:07:58Z</time>
      </trkpt>
      <trkpt lat="43.16458" lon="6.48695">
        <ele>253</ele>
        <time>2024-02-04T10:07:59Z</time>
      </trkpt>
      <trkpt lat="43.16459" lon="6.48694">
        <ele>252.9</ele>
        <time>2024-02-04T10:08:00Z</time>
      </trkpt>
      <trkpt lat="43.1646" lon="6.48694">
        <ele>252.8</ele>
        <time>2024-02-04T10:08:01Z</time>
      </trkpt>
      <trkpt lat="43.16461" lon="6.48693">
        <ele>252.6</ele>
        <time>2024-02-04T10:08:02Z</time>
      </trkpt>
      <trkpt lat="43.16462" lon="6.48692">
        <ele>252.5</ele>
        <time>2024-02-04T10:08:03Z</time>
      </trkpt>
      <trkpt lat="43.16462" lon="6.48691">
        <ele>252.4</ele>
        <time>2024-02-04T10:08:04Z</time>
      </trkpt>
      <trkpt lat="43.16463" lon="6.48691">
        <ele>252.3</ele>
        <time>2024-02-04T10:08:05Z</time>
      </trkpt>
      <trkpt lat="43.16464" lon="6.48691">
        <ele>252.2</ele>
        <time>2024-02-04T10:08:06Z</time>
      </trkpt>
      <trkpt lat="43.16465" lon="6.4869">
        <ele>252</ele>
        <time>2024-02-04T10:08:07Z</time>
      </trkpt>
      <trkpt lat="43.16466" lon="6.48689">
        <ele>251.9</ele>
        <time>2024-02-04T10:08:08Z</time>
      </trkpt>
      <trkpt lat="43.16467" lon="6.48689">
        <ele>251.7</ele>
        <time>2024-02-04T10:08:09Z</time>
      </trkpt>
      <trkpt lat="43.16468" lon="6.48688">
        <ele>251.4</ele>
        <time>2024-02-04T10:08:10Z</time>
      </trkpt>
      <trkpt lat="43.16469" lon="6.48687">
        <ele>251.2</ele>
        <time>2024-02-04T10:08:11Z</time>
      </trkpt>
      <trkpt lat="43.1647" lon="6.48687">
        <ele>251</ele>
        <time>2024-02-04T10:08:12Z</time>
      </trkpt>
      <trkpt lat="43.1647" lon="6.48686">
        <ele>250.9</ele>
        <time>2024-02-04T10:08:13Z</time>
      </trkpt>
      <trkpt lat="43.16472" lon="6.48686">
        <ele>250.7</ele>
        <time>2024-02-04T10:08:14Z</time>
      </trkpt>
      <trkpt lat="43.16473" lon="6.48685">
        <ele>250.5</ele>
        <time>2024-02-04T10:08:15Z</time>
      </trkpt>
      <trkpt lat="43.16473" lon="6.48685">
        <ele>250.4</ele>
        <time>2024-02-04T10:08:16Z</time>
      </trkpt>
      <trkpt lat="43.16474" lon="6.48686">
        <ele>250.2</ele>
        <time>2024-02-04T10:08:17Z</time>
      </trkpt>
      <trkpt lat="43.16475" lon="6.48685">
        <ele>250</ele>
        <time>2024-02-04T10:08:18Z</time>
      </trkpt>
      <trkpt lat="43.16476" lon="6.48685">
        <ele>249.9</ele>
        <time>2024-02-04T10:08:19Z</time>
      </trkpt>
      <trkpt lat="43.16477" lon="6.48685">
        <ele>249.7</ele>
        <time>2024-02-04T10:08:20Z</time>
      </trkpt>
      <trkpt lat="43.16478" lon="6.48684">
        <ele>249.5</ele>
        <time>2024-02-04T10:08:21Z</time>
      </trkpt>
      <trkpt lat="43.16479" lon="6.48683">
        <ele>249.3</ele>
        <time>2024-02-04T10:08:22Z</time>
      </trkpt>
      <trkpt lat="43.1648" lon="6.48683">
        <ele>249.2</ele>
        <time>2024-02-04T10:08:23Z</time>
      </trkpt>
      <trkpt lat="43.16481" lon="6.48682">
        <ele>249.1</ele>
        <time>2024-02-04T10:08:24Z</time>
      </trkpt>
      <trkpt lat="43.16482" lon="6.48682">
        <ele>249</ele>
        <time>2024-02-04T10:08:25Z</time>
      </trkpt>
      <trkpt lat="43.16483" lon="6.48681">
        <ele>249</ele>
        <time>2024-02-04T10:08:26Z</time>
      </trkpt>
      <trkpt lat="43.16484" lon="6.48681">
        <ele>248.8</ele>
        <time>2024-02-04T10:08:27Z</time>
      </trkpt>
      <trkpt lat="43.16484" lon="6.48681">
        <ele>248.6</ele>
        <time>2024-02-04T10:08:28Z</time>
      </trkpt>
      <trkpt lat="43.16484" lon="6.48681">
        <ele>248.5</ele>
        <time>2024-02-04T10:08:29Z</time>
      </trkpt>
      <trkpt lat="43.16485" lon="6.48681">
        <ele>248.3</ele>
        <time>2024-02-04T10:08:30Z</time>
      </trkpt>
      <trkpt lat="43.16485" lon="6.48681">
        <ele>248.2</ele>
        <time>2024-02-04T10:08:31Z</time>
      </trkpt>
      <trkpt lat="43.16486" lon="6.48681">
        <ele>248</ele>
        <time>2024-02-04T10:08:32Z</time>
      </trkpt>
      <trkpt lat="43.16487" lon="6.4868">
        <ele>247.9</ele>
        <time>2024-02-04T10:08:33Z</time>
      </trkpt>
      <trkpt lat="43.16487" lon="6.4868">
        <ele>247.8</ele>
        <time>2024-02-04T10:08:34Z</time>
      </trkpt>
      <trkpt lat="43.16488" lon="6.4868">
        <ele>247.6</ele>
        <time>2024-02-04T10:08:35Z</time>
      </trkpt>
      <trkpt lat="43.16489" lon="6.48679">
        <ele>247.5</ele>
        <time>2024-02-04T10:08:36Z</time>
      </trkpt>
      <trkpt lat="43.16489" lon="6.48679">
        <ele>247.4</ele>
        <time>2024-02-04T10:08:37Z</time>
      </trkpt>
      <trkpt lat="43.1649" lon="6.48678">
        <ele>247.3</ele>
        <time>2024-02-04T10:08:38Z</time>
      </trkpt>
      <trkpt lat="43.16491" lon="6.48677">
        <ele>247.2</ele>
        <time>2024-02-04T10:08:39Z</time>
      </trkpt>
      <trkpt lat="43.16491" lon="6.48678">
        <ele>247.1</ele>
        <time>2024-02-04T10:08:40Z</time>
      </trkpt>
      <trkpt lat="43.16493" lon="6.48677">
        <ele>247</ele>
        <time>2024-02-04T10:08:41Z</time>
      </trkpt>
      <trkpt lat="43.16493" lon="6.48678">
        <ele>246.9</ele>
        <time>2024-02-04T10:08:42Z</time>
      </trkpt>
      <trkpt lat="43.16494" lon="6.48678">
        <ele>246.7</ele>
        <time>2024-02-04T10:08:43Z</time>
      </trkpt>
      <trkpt lat="43.16494" lon="6.48678">
        <ele>246.5</ele>
        <time>2024-02-04T10:08:44Z</time>
      </trkpt>
      <trkpt lat="43.16495" lon="6.48678">
        <ele>246.4</ele>
        <time>2024-02-04T10:08:45Z</time>
      </trkpt>
      <trkpt lat="43.16496" lon="6.48678">
        <ele>246.1</ele>
        <time>2024-02-04T10:08:46Z</time>
      </trkpt>
      <trkpt lat="43.16497" lon="6.48678">
        <ele>246</ele>
        <time>2024-02-04T10:08:47Z</time>
      </trkpt>
      <trkpt lat="43.16497" lon="6.48678">
        <ele>245.8</ele>
        <time>2024-02-04T10:08:48Z</time>
      </trkpt>
      <trkpt lat="43.16498" lon="6.48678">
        <ele>245.6</ele>
        <time>2024-02-04T10:08:49Z</time>
      </trkpt>
      <trkpt lat="43.16498" lon="6.48679">
        <ele>245.4</ele>
        <time>2024-02-04T10:08:50Z</time>
      </trkpt>
      <trkpt lat="43.16499" lon="6.48679">
        <ele>245.3</ele>
        <time>2024-02-04T10:08:51Z</time>
      </trkpt>
      <trkpt lat="43.165" lon="6.48679">
        <ele>245.1</ele>
        <time>2024-02-04T10:08:52Z</time>
      </trkpt>
      <trkpt lat="43.165" lon="6.48679">
        <ele>245</ele>
        <time>2024-02-04T10:08:53Z</time>
      </trkpt>
      <trkpt lat="43.16501" lon="6.48678">
        <ele>244.8</ele>
        <time>2024-02-04T10:08:54Z</time>
      </trkpt>
      <trkpt lat="43.16502" lon="6.48677">
        <ele>244.6</ele>
        <time>2024-02-04T10:08:55Z</time>
      </trkpt>
      <trkpt lat="43.16503" lon="6.48676">
        <ele>244.4</ele>
        <time>2024-02-04T10:08:56Z</time>
      </trkpt>
      <trkpt lat="43.16504" lon="6.48676">
        <ele>244.2</ele>
        <time>2024-02-04T10:08:57Z</time>
      </trkpt>
      <trkpt lat="43.16504" lon="6.48676">
        <ele>243.9</ele>
        <time>2024-02-04T10:08:58Z</time>
      </trkpt>
      <trkpt lat="43.16505" lon="6.48676">
        <ele>243.6</ele>
        <time>2024-02-04T10:08:59Z</time>
      </trkpt>
      <trkpt lat="43.16506" lon="6.48676">
        <ele>243.2</ele>
        <time>2024-02-04T10:09:00Z</time>
      </trkpt>
      <trkpt lat="43.16507" lon="6.48675">
        <ele>243</ele>
        <time>2024-02-04T10:09:01Z</time>
      </trkpt>
      <trkpt lat="43.16508" lon="6.48675">
        <ele>242.8</ele>
        <time>2024-02-04T10:09:02Z</time>
      </trkpt>
      <trkpt lat="43.16508" lon="6.48675">
        <ele>242.6</ele>
        <time>2024-02-04T10:09:03Z</time>
      </trkpt>
      <trkpt lat="43.16509" lon="6.48675">
        <ele>242.4</ele>
        <time>2024-02-04T10:09:04Z</time>
      </trkpt>
      <trkpt lat="43.1651" lon="6.48674">
        <ele>242.1</ele>
        <time>2024-02-04T10:09:05Z</time>
      </trkpt>
      <trkpt lat="43.16511" lon="6.48674">
        <ele>241.9</ele>
        <time>2024-02-04T10:09:06Z</time>
      </trkpt>
      <trkpt lat="43.16512" lon="6.48673">
        <ele>241.7</ele>
        <time>2024-02-04T10:09:07Z</time>
      </trkpt>
      <trkpt lat="43.16513" lon="6.48673">
        <ele>241.5</ele>
        <time>2024-02-04T10:09:08Z</time>
      </trkpt>
      <trkpt lat="43.16514" lon="6.48673">
        <ele>241.4</ele>
        <time>2024-02-04T10:09:09Z</time>
      </trkpt>
      <trkpt lat="43.16514" lon="6.48673">
        <ele>241.2</ele>
        <time>2024-02-04T10:09:10Z</time>
      </trkpt>
      <trkpt lat="43.16515" lon="6.48673">
        <ele>241</ele>
        <time>2024-02-04T10:09:11Z</time>
      </trkpt>
      <trkpt lat="43.16515" lon="6.48673">
        <ele>240.9</ele>
        <time>2024-02-04T10:09:12Z</time>
      </trkpt>
      <trkpt lat="43.16515" lon="6.48673">
        <ele>240.8</ele>
        <time>2024-02-04T10:09:13Z</time>
      </trkpt>
      <trkpt lat="43.16516" lon="6.48673">
        <ele>240.6</ele>
        <time>2024-02-04T10:09:14Z</time>
      </trkpt>
      <trkpt lat="43.16517" lon="6.48672">
        <ele>240.5</ele>
        <time>2024-02-04T10:09:15Z</time>
      </trkpt>
      <trkpt lat="43.16517" lon="6.48672">
        <ele>240.3</ele>
        <time>2024-02-04T10:09:16Z</time>
      </trkpt>
      <trkpt lat="43.16517" lon="6.48672">
        <ele>240.3</ele>
        <time>2024-02-04T10:09:17Z</time>
      </trkpt>
      <trkpt lat="43.16517" lon="6.48672">
        <ele>240.2</ele>
        <time>2024-02-04T10:09:18Z</time>
      </trkpt>
      <trkpt lat="43.16518" lon="6.48672">
        <ele>240.2</ele>
        <time>2024-02-04T10:09:19Z</time>
      </trkpt>
      <trkpt lat="43.16518" lon="6.48672">
        <ele>240.1</ele>
        <time>2024-02-04T10:09:20Z</time>
      </trkpt>
      <trkpt lat="43.16518" lon="6.48672">
        <ele>240.1</ele>
        <time>2024-02-04T10:09:21Z</time>
      </trkpt>
      <trkpt lat="43.16518" lon="6.48672">
        <ele>240</ele>
        <time>2024-02-04T10:09:22Z</time>
      </trkpt>
      <trkpt lat="43.16518" lon="6.48672">
        <ele>240</ele>
        <time>2024-02-04T10:09:23Z</time>
      </trkpt>
      <trkpt lat="43.16518" lon="6.48672">
        <ele>239.9</ele>
        <time>2024-02-04T10:09:24Z</time>
      </trkpt>
      <trkpt lat="43.16519" lon="6.48672">
        <ele>240</ele>
        <time>2024-02-04T10:09:25Z</time>
      </trkpt>
      <trkpt lat="43.16519" lon="6.48672">
        <ele>240</ele>
        <time>2024-02-04T10:09:26Z</time>
      </trkpt>
      <trkpt lat="43.16519" lon="6.48672">
        <ele>239.9</ele>
        <time>2024-02-04T10:09:27Z</time>
      </trkpt>
      <trkpt lat="43.16519" lon="6.48672">
        <ele>239.7</ele>
        <time>2024-02-04T10:09:28Z</time>
      </trkpt>
      <trkpt lat="43.16519" lon="6.48672">
        <ele>239.6</ele>
        <time>2024-02-04T10:09:29Z</time>
      </trkpt>
      <trkpt lat="43.16519" lon="6.48672">
        <ele>239.6</ele>
        <time>2024-02-04T10:09:30Z</time>
      </trkpt>
      <trkpt lat="43.1652" lon="6.48672">
        <ele>239.6</ele>
        <time>2024-02-04T10:09:31Z</time>
      </trkpt>
      <trkpt lat="43.1652" lon="6.48672">
        <ele>239.6</ele>
        <time>2024-02-04T10:09:32Z</time>
      </trkpt>
      <trkpt lat="43.1652" lon="6.48672">
        <ele>239.5</ele>
        <time>2024-02-04T10:09:33Z</time>
      </trkpt>
      <trkpt lat="43.16521" lon="6.48671">
        <ele>239.4</ele>
        <time>2024-02-04T10:09:34Z</time>
      </trkpt>
      <trkpt lat="43.16522" lon="6.48671">
        <ele>239.3</ele>
        <time>2024-02-04T10:09:35Z</time>
      </trkpt>
      <trkpt lat="43.16522" lon="6.48671">
        <ele>239.2</ele>
        <time>2024-02-04T10:09:36Z</time>
      </trkpt>
      <trkpt lat="43.16523" lon="6.4867">
        <ele>239.1</ele>
        <time>2024-02-04T10:09:37Z</time>
      </trkpt>
      <trkpt lat="43.16524" lon="6.48669">
        <ele>238.9</ele>
        <time>2024-02-04T10:09:38Z</time>
      </trkpt>
      <trkpt lat="43.16524" lon="6.48669">
        <ele>238.7</ele>
        <time>2024-02-04T10:09:39Z</time>
      </trkpt>
      <trkpt lat="43.16524" lon="6.48669">
        <ele>238.5</ele>
        <time>2024-02-04T10:09:40Z</time>
      </trkpt>
      <trkpt lat="43.16524" lon="6.48669">
        <ele>238.4</ele>
        <time>2024-02-04T10:09:41Z</time>
      </trkpt>
      <trkpt lat="43.16524" lon="6.48669">
        <ele>238.2</ele>
        <time>2024-02-04T10:09:42Z</time>
      </trkpt>
      <trkpt lat="43.16524" lon="6.48669">
        <ele>238.1</ele>
        <time>2024-02-04T10:09:43Z</time>
      </trkpt>
      <trkpt lat="43.16525" lon="6.48669">
        <ele>238</ele>
        <time>2024-02-04T10:09:44Z</time>
      </trkpt>
      <trkpt lat="43.16525" lon="6.48669">
        <ele>238</ele>
        <time>2024-02-04T10:09:45Z</time>
      </trkpt>
      <trkpt lat="43.16525" lon="6.48669">
        <ele>238</ele>
        <time>2024-02-04T10:09:46Z</time>
      </trkpt>
      <trkpt lat="43.16526" lon="6.48669">
        <ele>237.9</ele>
        <time>2024-02-04T10:09:47Z</time>
      </trkpt>
      <trkpt lat="43.16526" lon="6.48669">
        <ele>237.9</ele>
        <time>2024-02-04T10:09:48Z</time>
      </trkpt>
      <trkpt lat="43.16526" lon="6.48669">
        <ele>237.9</ele>
        <time>2024-02-04T10:09:49Z</time>
      </trkpt>
      <trkpt lat="43.16526" lon="6.48669">
        <ele>237.8</ele>
        <time>2024-02-04T10:09:50Z</time>
      </trkpt>
      <trkpt lat="43.16526" lon="6.48669">
        <ele>237.8</ele>
        <time>2024-02-04T10:09:51Z</time>
      </trkpt>
      <trkpt lat="43.16526" lon="6.48669">
        <ele>237.8</ele>
        <time>2024-02-04T10:09:52Z</time>
      </trkpt>
      <trkpt lat="43.16526" lon="6.48668">
        <ele>237.7</ele>
        <time>2024-02-04T10:09:53Z</time>
      </trkpt>
      <trkpt lat="43.16527" lon="6.48668">
        <ele>237.7</ele>
        <time>2024-02-04T10:09:54Z</time>
      </trkpt>
      <trkpt lat="43.16527" lon="6.48668">
        <ele>237.7</ele>
        <time>2024-02-04T10:09:55Z</time>
      </trkpt>
      <trkpt lat="43.16527" lon="6.48668">
        <ele>237.6</ele>
        <time>2024-02-04T10:09:56Z</time>
      </trkpt>
      <trkpt lat="43.16527" lon="6.48668">
        <ele>237.6</ele>
        <time>2024-02-04T10:09:57Z</time>
      </trkpt>
      <trkpt lat="43.16527" lon="6.48668">
        <ele>237.5</ele>
        <time>2024-02-04T10:09:58Z</time>
      </trkpt>
      <trkpt lat="43.16527" lon="6.48668">
        <ele>237.5</ele>
        <time>2024-02-04T10:09:59Z</time>
      </trkpt>
      <trkpt lat="43.16527" lon="6.48668">
        <ele>237.5</ele>
        <time>2024-02-04T10:10:00Z</time>
      </trkpt>
      <trkpt lat="43.16527" lon="6.48668">
        <ele>237.5</ele>
        <time>2024-02-04T10:10:01Z</time>
      </trkpt>
      <trkpt lat="43.16527" lon="6.48668">
        <ele>237.5</ele>
        <time>2024-02-04T10:10:02Z</time>
      </trkpt>
      <trkpt lat="43.16527" lon="6.48668">
        <ele>237.5</ele>
        <time>2024-02-04T10:10:03Z</time>
      </trkpt>
      <trkpt lat="43.16527" lon="6.48668">
        <ele>237.5</ele>
        <time>2024-02-04T10:10:04Z</time>
      </trkpt>
      <trkpt lat="43.16527" lon="6.48668">
        <ele>237.5</ele>
        <time>2024-02-04T10:10:05Z</time>
      </trkpt>
      <trkpt lat="43.16528" lon="6.48668">
        <ele>237.5</ele>
        <time>2024-02-04T10:10:06Z</time>
      </trkpt>
      <trkpt lat="43.16528" lon="6.48668">
        <ele>237.4</ele>
        <time>2024-02-04T10:10:07Z</time>
      </trkpt>
      <trkpt lat="43.16528" lon="6.48668">
        <ele>237.2</ele>
        <time>2024-02-04T10:10:08Z</time>
      </trkpt>
      <trkpt lat="43.16528" lon="6.48668">
        <ele>237.2</ele>
        <time>2024-02-04T10:10:09Z</time>
      </trkpt>
      <trkpt lat="43.16528" lon="6.48668">
        <ele>237.2</ele>
        <time>2024-02-04T10:10:10Z</time>
      </trkpt>
      <trkpt lat="43.16528" lon="6.48668">
        <ele>237.2</ele>
        <time>2024-02-04T10:10:11Z</time>
      </trkpt>
      <trkpt lat="43.16528" lon="6.48668">
        <ele>237.1</ele>
        <time>2024-02-04T10:10:12Z</time>
      </trkpt>
      <trkpt lat="43.16528" lon="6.48668">
        <ele>237.1</ele>
        <time>2024-02-04T10:10:13Z</time>
      </trkpt>
      <trkpt lat="43.16528" lon="6.48668">
        <ele>237.1</ele>
        <time>2024-02-04T10:10:14Z</time>
      </trkpt>
      <trkpt lat="43.16528" lon="6.48668">
        <ele>237.1</ele>
        <time>2024-02-04T10:10:15Z</time>
      </trkpt>
      <trkpt lat="43.16528" lon="6.48668">
        <ele>237.1</ele>
        <time>2024-02-04T10:10:16Z</time>
      </trkpt>
      <trkpt lat="43.16528" lon="6.48668">
        <ele>237.1</ele>
        <time>2024-02-04T10:10:17Z</time>
      </trkpt>
      <trkpt lat="43.16528" lon="6.48668">
        <ele>237.1</ele>
        <time>2024-02-04T10:10:18Z</time>
      </trkpt>
      <trkpt lat="43.16529" lon="6.48667">
        <ele>237.1</ele>
        <time>2024-02-04T10:10:19Z</time>
      </trkpt>
      <trkpt lat="43.16529" lon="6.48667">
        <ele>237.1</ele>
        <time>2024-02-04T10:10:20Z</time>
      </trkpt>
      <trkpt lat="43.16529" lon="6.48667">
        <ele>237.1</ele>
        <time>2024-02-04T10:10:21Z</time>
      </trkpt>
      <trkpt lat="43.16529" lon="6.48667">
        <ele>237.1</ele>
        <time>2024-02-04T10:10:22Z</time>
      </trkpt>
      <trkpt lat="43.16529" lon="6.48667">
        <ele>237.1</ele>
        <time>2024-02-04T10:10:23Z</time>
      </trkpt>
      <trkpt lat="43.16529" lon="6.48667">
        <ele>237.1</ele>
        <time>2024-02-04T10:10:24Z</time>
      </trkpt>
      <trkpt lat="43.16529" lon="6.48667">
        <ele>237.1</ele>
        <time>2024-02-04T10:10:25Z</time>
      </trkpt>
      <trkpt lat="43.16529" lon="6.48667">
        <ele>237</ele>
        <time>2024-02-04T10:10:26Z</time>
      </trkpt>
      <trkpt lat="43.16529" lon="6.48667">
        <ele>236.9</ele>
        <time>2024-02-04T10:10:27Z</time>
      </trkpt>
      <trkpt lat="43.16529" lon="6.48667">
        <ele>236.8</ele>
        <time>2024-02-04T10:10:28Z</time>
      </trkpt>
      <trkpt lat="43.16529" lon="6.48667">
        <ele>236.7</ele>
        <time>2024-02-04T10:10:29Z</time>
      </trkpt>
      <trkpt lat="43.16529" lon="6.48667">
        <ele>236.6</ele>
        <time>2024-02-04T10:10:30Z</time>
      </trkpt>
      <trkpt lat="43.16529" lon="6.48668">
        <ele>236.6</ele>
        <time>2024-02-04T10:10:31Z</time>
      </trkpt>
      <trkpt lat="43.16529" lon="6.48668">
        <ele>236.5</ele>
        <time>2024-02-04T10:10:32Z</time>
      </trkpt>
      <trkpt lat="43.16529" lon="6.48667">
        <ele>236.5</ele>
        <time>2024-02-04T10:10:33Z</time>
      </trkpt>
      <trkpt lat="43.16529" lon="6.48667">
        <ele>236.5</ele>
        <time>2024-02-04T10:10:34Z</time>
      </trkpt>
      <trkpt lat="43.16529" lon="6.48667">
        <ele>236.4</ele>
        <time>2024-02-04T10:10:35Z</time>
      </trkpt>
      <trkpt lat="43.16529" lon="6.48667">
        <ele>236.4</ele>
        <time>2024-02-04T10:10:36Z</time>
      </trkpt>
      <trkpt lat="43.16529" lon="6.48667">
        <ele>236.4</ele>
        <time>2024-02-04T10:10:37Z</time>
      </trkpt>
      <trkpt lat="43.16529" lon="6.48668">
        <ele>236.5</ele>
        <time>2024-02-04T10:10:38Z</time>
      </trkpt>
      <trkpt lat="43.16529" lon="6.48668">
        <ele>236.4</ele>
        <time>2024-02-04T10:10:39Z</time>
      </trkpt>
      <trkpt lat="43.16529" lon="6.48668">
        <ele>236.4</ele>
        <time>2024-02-04T10:10:40Z</time>
      </trkpt>
      <trkpt lat="43.16529" lon="6.48668">
        <ele>236.3</ele>
        <time>2024-02-04T10:10:41Z</time>
      </trkpt>
      <trkpt lat="43.16529" lon="6.48668">
        <ele>236.3</ele>
        <time>2024-02-04T10:10:42Z</time>
      </trkpt>
      <trkpt lat="43.16529" lon="6.48669">
        <ele>236.2</ele>
        <time>2024-02-04T10:10:43Z</time>
      </trkpt>
      <trkpt lat="43.16529" lon="6.48669">
        <ele>236.2</ele>
        <time>2024-02-04T10:10:44Z</time>
      </trkpt>
      <trkpt lat="43.16529" lon="6.48669">
        <ele>236.1</ele>
        <time>2024-02-04T10:10:45Z</time>
      </trkpt>
      <trkpt lat="43.16529" lon="6.48669">
        <ele>236.1</ele>
        <time>2024-02-04T10:10:46Z</time>
      </trkpt>
      <trkpt lat="43.16528" lon="6.4867">
        <ele>236.1</ele>
        <time>2024-02-04T10:10:47Z</time>
      </trkpt>
      <trkpt lat="43.16528" lon="6.4867">
        <ele>236.1</ele>
        <time>2024-02-04T10:10:48Z</time>
      </trkpt>
      <trkpt lat="43.16528" lon="6.4867">
        <ele>236.1</ele>
        <time>2024-02-04T10:10:49Z</time>
      </trkpt>
      <trkpt lat="43.16528" lon="6.4867">
        <ele>236</ele>
        <time>2024-02-04T10:10:50Z</time>
      </trkpt>
      <trkpt lat="43.16529" lon="6.4867">
        <ele>235.9</ele>
        <time>2024-02-04T10:10:51Z</time>
      </trkpt>
      <trkpt lat="43.16529" lon="6.4867">
        <ele>235.9</ele>
        <time>2024-02-04T10:10:52Z</time>
      </trkpt>
      <trkpt lat="43.16528" lon="6.4867">
        <ele>235.9</ele>
        <time>2024-02-04T10:10:53Z</time>
      </trkpt>
      <trkpt lat="43.16528" lon="6.4867">
        <ele>235.9</ele>
        <time>2024-02-04T10:10:54Z</time>
      </trkpt>
      <trkpt lat="43.16528" lon="6.4867">
        <ele>235.9</ele>
        <time>2024-02-04T10:10:55Z</time>
      </trkpt>
      <trkpt lat="43.16528" lon="6.4867">
        <ele>235.8</ele>
        <time>2024-02-04T10:10:56Z</time>
      </trkpt>
      <trkpt lat="43.16528" lon="6.4867">
        <ele>235.8</ele>
        <time>2024-02-04T10:10:57Z</time>
      </trkpt>
      <trkpt lat="43.16528" lon="6.4867">
        <ele>235.8</ele>
        <time>2024-02-04T10:10:58Z</time>
      </trkpt>
      <trkpt lat="43.16528" lon="6.4867">
        <ele>235.8</ele>
        <time>2024-02-04T10:10:59Z</time>
      </trkpt>
      <trkpt lat="43.16528" lon="6.4867">
        <ele>235.7</ele>
        <time>2024-02-04T10:11:00Z</time>
      </trkpt>
      <trkpt lat="43.16528" lon="6.4867">
        <ele>235.7</ele>
        <time>2024-02-04T10:11:01Z</time>
      </trkpt>
      <trkpt lat="43.16528" lon="6.4867">
        <ele>235.7</ele>
        <time>2024-02-04T10:11:02Z</time>
      </trkpt>
      <trkpt lat="43.16528" lon="6.4867">
        <ele>235.7</ele>
        <time>2024-02-04T10:11:03Z</time>
      </trkpt>
      <trkpt lat="43.16528" lon="6.4867">
        <ele>235.7</ele>
        <time>2024-02-04T10:11:04Z</time>
      </trkpt>
      <trkpt lat="43.16529" lon="6.4867">
        <ele>235.7</ele>
        <time>2024-02-04T10:11:05Z</time>
      </trkpt>
      <trkpt lat="43.16529" lon="6.4867">
        <ele>235.7</ele>
        <time>2024-02-04T10:11:06Z</time>
      </trkpt>
      <trkpt lat="43.16529" lon="6.4867">
        <ele>235.6</ele>
        <time>2024-02-04T10:11:07Z</time>
      </trkpt>
      <trkpt lat="43.16529" lon="6.48671">
        <ele>235.6</ele>
        <time>2024-02-04T10:11:08Z</time>
      </trkpt>
      <trkpt lat="43.16529" lon="6.48671">
        <ele>235.5</ele>
        <time>2024-02-04T10:11:09Z</time>
      </trkpt>
      <trkpt lat="43.16529" lon="6.48671">
        <ele>235.5</ele>
        <time>2024-02-04T10:11:10Z</time>
      </trkpt>
      <trkpt lat="43.16529" lon="6.48671">
        <ele>235.4</ele>
        <time>2024-02-04T10:11:11Z</time>
      </trkpt>
      <trkpt lat="43.16529" lon="6.48671">
        <ele>235.4</ele>
        <time>2024-02-04T10:11:12Z</time>
      </trkpt>
      <trkpt lat="43.16529" lon="6.48671">
        <ele>235.3</ele>
        <time>2024-02-04T10:11:13Z</time>
      </trkpt>
      <trkpt lat="43.16529" lon="6.48671">
        <ele>235.3</ele>
        <time>2024-02-04T10:11:14Z</time>
      </trkpt>
      <trkpt lat="43.16529" lon="6.48671">
        <ele>235.2</ele>
        <time>2024-02-04T10:11:15Z</time>
      </trkpt>
      <trkpt lat="43.16529" lon="6.48671">
        <ele>235.2</ele>
        <time>2024-02-04T10:11:16Z</time>
      </trkpt>
      <trkpt lat="43.16529" lon="6.48671">
        <ele>235.2</ele>
        <time>2024-02-04T10:11:17Z</time>
      </trkpt>
      <trkpt lat="43.1653" lon="6.48671">
        <ele>235.2</ele>
        <time>2024-02-04T10:11:18Z</time>
      </trkpt>
      <trkpt lat="43.1653" lon="6.48671">
        <ele>235.1</ele>
        <time>2024-02-04T10:11:19Z</time>
      </trkpt>
      <trkpt lat="43.1653" lon="6.48671">
        <ele>235.1</ele>
        <time>2024-02-04T10:11:20Z</time>
      </trkpt>
      <trkpt lat="43.1653" lon="6.48671">
        <ele>235</ele>
        <time>2024-02-04T10:11:21Z</time>
      </trkpt>
      <trkpt lat="43.1653" lon="6.48671">
        <ele>234.9</ele>
        <time>2024-02-04T10:11:22Z</time>
      </trkpt>
      <trkpt lat="43.1653" lon="6.48671">
        <ele>234.8</ele>
        <time>2024-02-04T10:11:23Z</time>
      </trkpt>
      <trkpt lat="43.16531" lon="6.48671">
        <ele>234.7</ele>
        <time>2024-02-04T10:11:24Z</time>
      </trkpt>
      <trkpt lat="43.16531" lon="6.48671">
        <ele>234.7</ele>
        <time>2024-02-04T10:11:25Z</time>
      </trkpt>
      <trkpt lat="43.16531" lon="6.48671">
        <ele>234.7</ele>
        <time>2024-02-04T10:11:26Z</time>
      </trkpt>
      <trkpt lat="43.16531" lon="6.48671">
        <ele>234.6</ele>
        <time>2024-02-04T10:11:27Z</time>
      </trkpt>
      <trkpt lat="43.16531" lon="6.48671">
        <ele>234.6</ele>
        <time>2024-02-04T10:11:28Z</time>
      </trkpt>
      <trkpt lat="43.16531" lon="6.48671">
        <ele>234.6</ele>
        <time>2024-02-04T10:11:29Z</time>
      </trkpt>
      <trkpt lat="43.1653" lon="6.4867">
        <ele>234.5</ele>
        <time>2024-02-04T10:11:30Z</time>
      </trkpt>
      <trkpt lat="43.1653" lon="6.4867">
        <ele>234.4</ele>
        <time>2024-02-04T10:11:31Z</time>
      </trkpt>
      <trkpt lat="43.1653" lon="6.48669">
        <ele>234.4</ele>
        <time>2024-02-04T10:11:32Z</time>
      </trkpt>
      <trkpt lat="43.1653" lon="6.48668">
        <ele>234.4</ele>
        <time>2024-02-04T10:11:33Z</time>
      </trkpt>
      <trkpt lat="43.1653" lon="6.48668">
        <ele>234.4</ele>
        <time>2024-02-04T10:11:34Z</time>
      </trkpt>
      <trkpt lat="43.1653" lon="6.48668">
        <ele>234.4</ele>
        <time>2024-02-04T10:11:35Z</time>
      </trkpt>
      <trkpt lat="43.16529" lon="6.48667">
        <ele>234.4</ele>
        <time>2024-02-04T10:11:36Z</time>
      </trkpt>
      <trkpt lat="43.16529" lon="6.48667">
        <ele>234.4</ele>
        <time>2024-02-04T10:11:37Z</time>
      </trkpt>
      <trkpt lat="43.16529" lon="6.48667">
        <ele>234.4</ele>
        <time>2024-02-04T10:11:38Z</time>
      </trkpt>
      <trkpt lat="43.16529" lon="6.48667">
        <ele>234.4</ele>
        <time>2024-02-04T10:11:39Z</time>
      </trkpt>
      <trkpt lat="43.16529" lon="6.48666">
        <ele>234.4</ele>
        <time>2024-02-04T10:11:40Z</time>
      </trkpt>
      <trkpt lat="43.16529" lon="6.48666">
        <ele>234.3</ele>
        <time>2024-02-04T10:11:41Z</time>
      </trkpt>
      <trkpt lat="43.16529" lon="6.48666">
        <ele>234.3</ele>
        <time>2024-02-04T10:11:42Z</time>
      </trkpt>
      <trkpt lat="43.16529" lon="6.48666">
        <ele>234.3</ele>
        <time>2024-02-04T10:11:43Z</time>
      </trkpt>
      <trkpt lat="43.16528" lon="6.48666">
        <ele>234.3</ele>
        <time>2024-02-04T10:11:44Z</time>
      </trkpt>
      <trkpt lat="43.16528" lon="6.48666">
        <ele>234.3</ele>
        <time>2024-02-04T10:11:45Z</time>
      </trkpt>
      <trkpt lat="43.16529" lon="6.48665">
        <ele>234.3</ele>
        <time>2024-02-04T10:11:46Z</time>
      </trkpt>
      <trkpt lat="43.16529" lon="6.48665">
        <ele>234.3</ele>
        <time>2024-02-04T10:11:47Z</time>
      </trkpt>
      <trkpt lat="43.16529" lon="6.48665">
        <ele>234.3</ele>
        <time>2024-02-04T10:11:48Z</time>
      </trkpt>
      <trkpt lat="43.16529" lon="6.48665">
        <ele>234.3</ele>
        <time>2024-02-04T10:11:49Z</time>
      </trkpt>
      <trkpt lat="43.16529" lon="6.48665">
        <ele>234.3</ele>
        <time>2024-02-04T10:11:50Z</time>
      </trkpt>
      <trkpt lat="43.1653" lon="6.48664">
        <ele>234.2</ele>
        <time>2024-02-04T10:11:51Z</time>
      </trkpt>
      <trkpt lat="43.1653" lon="6.48664">
        <ele>234.3</ele>
        <time>2024-02-04T10:11:52Z</time>
      </trkpt>
      <trkpt lat="43.1653" lon="6.48664">
        <ele>234.3</ele>
        <time>2024-02-04T10:11:53Z</time>
      </trkpt>
      <trkpt lat="43.1653" lon="6.48664">
        <ele>234.2</ele>
        <time>2024-02-04T10:11:54Z</time>
      </trkpt>
      <trkpt lat="43.16531" lon="6.48663">
        <ele>234.1</ele>
        <time>2024-02-04T10:11:55Z</time>
      </trkpt>
      <trkpt lat="43.16531" lon="6.48663">
        <ele>234.1</ele>
        <time>2024-02-04T10:11:56Z</time>
      </trkpt>
      <trkpt lat="43.16531" lon="6.48663">
        <ele>234</ele>
        <time>2024-02-04T10:11:57Z</time>
      </trkpt>
      <trkpt lat="43.16531" lon="6.48664">
        <ele>234</ele>
        <time>2024-02-04T10:11:58Z</time>
      </trkpt>
      <trkpt lat="43.16532" lon="6.48664">
        <ele>233.9</ele>
        <time>2024-02-04T10:11:59Z</time>
      </trkpt>
      <trkpt lat="43.16532" lon="6.48664">
        <ele>233.8</ele>
        <time>2024-02-04T10:12:00Z</time>
      </trkpt>
      <trkpt lat="43.16532" lon="6.48664">
        <ele>233.7</ele>
        <time>2024-02-04T10:12:01Z</time>
      </trkpt>
      <trkpt lat="43.16532" lon="6.48664">
        <ele>233.9</ele>
        <time>2024-02-04T10:12:02Z</time>
      </trkpt>
      <trkpt lat="43.16532" lon="6.48663">
        <ele>233.9</ele>
        <time>2024-02-04T10:12:03Z</time>
      </trkpt>
      <trkpt lat="43.16532" lon="6.48662">
        <ele>233.8</ele>
        <time>2024-02-04T10:12:04Z</time>
      </trkpt>
      <trkpt lat="43.16533" lon="6.48661">
        <ele>233.7</ele>
        <time>2024-02-04T10:12:05Z</time>
      </trkpt>
      <trkpt lat="43.16532" lon="6.48661">
        <ele>233.6</ele>
        <time>2024-02-04T10:12:06Z</time>
      </trkpt>
      <trkpt lat="43.16532" lon="6.4866">
        <ele>233.6</ele>
        <time>2024-02-04T10:12:07Z</time>
      </trkpt>
      <trkpt lat="43.16532" lon="6.4866">
        <ele>233.5</ele>
        <time>2024-02-04T10:12:08Z</time>
      </trkpt>
      <trkpt lat="43.16532" lon="6.4866">
        <ele>233.5</ele>
        <time>2024-02-04T10:12:09Z</time>
      </trkpt>
      <trkpt lat="43.16532" lon="6.48659">
        <ele>233.6</ele>
        <time>2024-02-04T10:12:10Z</time>
      </trkpt>
      <trkpt lat="43.16533" lon="6.48659">
        <ele>233.6</ele>
        <time>2024-02-04T10:12:11Z</time>
      </trkpt>
      <trkpt lat="43.16533" lon="6.48658">
        <ele>233.6</ele>
        <time>2024-02-04T10:12:12Z</time>
      </trkpt>
      <trkpt lat="43.16533" lon="6.48657">
        <ele>233.7</ele>
        <time>2024-02-04T10:12:13Z</time>
      </trkpt>
      <trkpt lat="43.16534" lon="6.48657">
        <ele>233.6</ele>
        <time>2024-02-04T10:12:14Z</time>
      </trkpt>
      <trkpt lat="43.16534" lon="6.48656">
        <ele>233.7</ele>
        <time>2024-02-04T10:12:15Z</time>
      </trkpt>
      <trkpt lat="43.16535" lon="6.48655">
        <ele>233.7</ele>
        <time>2024-02-04T10:12:16Z</time>
      </trkpt>
      <trkpt lat="43.16535" lon="6.48654">
        <ele>233.8</ele>
        <time>2024-02-04T10:12:17Z</time>
      </trkpt>
      <trkpt lat="43.16535" lon="6.48653">
        <ele>233.8</ele>
        <time>2024-02-04T10:12:18Z</time>
      </trkpt>
      <trkpt lat="43.16536" lon="6.48652">
        <ele>233.8</ele>
        <time>2024-02-04T10:12:19Z</time>
      </trkpt>
      <trkpt lat="43.16535" lon="6.48652">
        <ele>233.8</ele>
        <time>2024-02-04T10:12:20Z</time>
      </trkpt>
      <trkpt lat="43.16535" lon="6.48651">
        <ele>233.8</ele>
        <time>2024-02-04T10:12:21Z</time>
      </trkpt>
      <trkpt lat="43.16536" lon="6.4865">
        <ele>233.8</ele>
        <time>2024-02-04T10:12:22Z</time>
      </trkpt>
      <trkpt lat="43.16536" lon="6.48649">
        <ele>233.8</ele>
        <time>2024-02-04T10:12:23Z</time>
      </trkpt>
      <trkpt lat="43.16536" lon="6.48649">
        <ele>233.8</ele>
        <time>2024-02-04T10:12:24Z</time>
      </trkpt>
      <trkpt lat="43.16536" lon="6.48649">
        <ele>233.8</ele>
        <time>2024-02-04T10:12:25Z</time>
      </trkpt>
      <trkpt lat="43.16537" lon="6.48648">
        <ele>233.8</ele>
        <time>2024-02-04T10:12:26Z</time>
      </trkpt>
      <trkpt lat="43.16537" lon="6.48647">
        <ele>233.7</ele>
        <time>2024-02-04T10:12:27Z</time>
      </trkpt>
      <trkpt lat="43.16538" lon="6.48647">
        <ele>233.7</ele>
        <time>2024-02-04T10:12:28Z</time>
      </trkpt>
      <trkpt lat="43.16538" lon="6.48646">
        <ele>233.6</ele>
        <time>2024-02-04T10:12:29Z</time>
      </trkpt>
      <trkpt lat="43.16539" lon="6.48646">
        <ele>233.5</ele>
        <time>2024-02-04T10:12:30Z</time>
      </trkpt>
      <trkpt lat="43.16539" lon="6.48647">
        <ele>233.4</ele>
        <time>2024-02-04T10:12:31Z</time>
      </trkpt>
      <trkpt lat="43.16539" lon="6.48647">
        <ele>233.3</ele>
        <time>2024-02-04T10:12:32Z</time>
      </trkpt>
      <trkpt lat="43.16539" lon="6.48646">
        <ele>233.3</ele>
        <time>2024-02-04T10:12:33Z</time>
      </trkpt>
      <trkpt lat="43.16539" lon="6.48645">
        <ele>233.4</ele>
        <time>2024-02-04T10:12:34Z</time>
      </trkpt>
      <trkpt lat="43.1654" lon="6.48645">
        <ele>233.4</ele>
        <time>2024-02-04T10:12:35Z</time>
      </trkpt>
      <trkpt lat="43.1654" lon="6.48644">
        <ele>233.3</ele>
        <time>2024-02-04T10:12:36Z</time>
      </trkpt>
      <trkpt lat="43.16541" lon="6.48643">
        <ele>233.3</ele>
        <time>2024-02-04T10:12:37Z</time>
      </trkpt>
      <trkpt lat="43.16542" lon="6.48642">
        <ele>233.2</ele>
        <time>2024-02-04T10:12:38Z</time>
      </trkpt>
      <trkpt lat="43.16543" lon="6.48641">
        <ele>233.2</ele>
        <time>2024-02-04T10:12:39Z</time>
      </trkpt>
      <trkpt lat="43.16543" lon="6.4864">
        <ele>233.2</ele>
        <time>2024-02-04T10:12:40Z</time>
      </trkpt>
      <trkpt lat="43.16544" lon="6.48639">
        <ele>233.3</ele>
        <time>2024-02-04T10:12:41Z</time>
      </trkpt>
      <trkpt lat="43.16544" lon="6.48638">
        <ele>233.3</ele>
        <time>2024-02-04T10:12:42Z</time>
      </trkpt>
      <trkpt lat="43.16545" lon="6.48637">
        <ele>233.3</ele>
        <time>2024-02-04T10:12:43Z</time>
      </trkpt>
      <trkpt lat="43.16546" lon="6.48636">
        <ele>233.2</ele>
        <time>2024-02-04T10:12:44Z</time>
      </trkpt>
      <trkpt lat="43.16547" lon="6.48635">
        <ele>233.2</ele>
        <time>2024-02-04T10:12:45Z</time>
      </trkpt>
      <trkpt lat="43.16547" lon="6.48635">
        <ele>233.2</ele>
        <time>2024-02-04T10:12:46Z</time>
      </trkpt>
      <trkpt lat="43.16548" lon="6.48634">
        <ele>233.2</ele>
        <time>2024-02-04T10:12:47Z</time>
      </trkpt>
      <trkpt lat="43.16548" lon="6.48634">
        <ele>233.3</ele>
        <time>2024-02-04T10:12:48Z</time>
      </trkpt>
      <trkpt lat="43.16549" lon="6.48633">
        <ele>233.4</ele>
        <time>2024-02-04T10:12:49Z</time>
      </trkpt>
      <trkpt lat="43.16549" lon="6.48633">
        <ele>233.4</ele>
        <time>2024-02-04T10:12:50Z</time>
      </trkpt>
      <trkpt lat="43.1655" lon="6.48631">
        <ele>233.4</ele>
        <time>2024-02-04T10:12:51Z</time>
      </trkpt>
      <trkpt lat="43.16551" lon="6.4863">
        <ele>233.3</ele>
        <time>2024-02-04T10:12:52Z</time>
      </trkpt>
      <trkpt lat="43.16551" lon="6.48629">
        <ele>233.3</ele>
        <time>2024-02-04T10:12:53Z</time>
      </trkpt>
      <trkpt lat="43.16552" lon="6.48628">
        <ele>233.3</ele>
        <time>2024-02-04T10:12:54Z</time>
      </trkpt>
      <trkpt lat="43.16553" lon="6.48628">
        <ele>233.3</ele>
        <time>2024-02-04T10:12:55Z</time>
      </trkpt>
      <trkpt lat="43.16553" lon="6.48627">
        <ele>233.3</ele>
        <time>2024-02-04T10:12:56Z</time>
      </trkpt>
      <trkpt lat="43.16554" lon="6.48626">
        <ele>233.3</ele>
        <time>2024-02-04T10:12:57Z</time>
      </trkpt>
      <trkpt lat="43.16554" lon="6.48625">
        <ele>233.4</ele>
        <time>2024-02-04T10:12:58Z</time>
      </trkpt>
      <trkpt lat="43.16555" lon="6.48624">
        <ele>233.4</ele>
        <time>2024-02-04T10:12:59Z</time>
      </trkpt>
      <trkpt lat="43.16555" lon="6.48623">
        <ele>233.5</ele>
        <time>2024-02-04T10:13:00Z</time>
      </trkpt>
      <trkpt lat="43.16556" lon="6.48623">
        <ele>233.4</ele>
        <time>2024-02-04T10:13:01Z</time>
      </trkpt>
      <trkpt lat="43.16556" lon="6.48622">
        <ele>233.4</ele>
        <time>2024-02-04T10:13:02Z</time>
      </trkpt>
      <trkpt lat="43.16557" lon="6.48621">
        <ele>233.4</ele>
        <time>2024-02-04T10:13:03Z</time>
      </trkpt>
      <trkpt lat="43.16558" lon="6.48621">
        <ele>233.4</ele>
        <time>2024-02-04T10:13:04Z</time>
      </trkpt>
      <trkpt lat="43.16559" lon="6.4862">
        <ele>233.3</ele>
        <time>2024-02-04T10:13:05Z</time>
      </trkpt>
      <trkpt lat="43.1656" lon="6.4862">
        <ele>233.2</ele>
        <time>2024-02-04T10:13:06Z</time>
      </trkpt>
      <trkpt lat="43.16561" lon="6.4862">
        <ele>233.1</ele>
        <time>2024-02-04T10:13:07Z</time>
      </trkpt>
      <trkpt lat="43.16562" lon="6.4862">
        <ele>233</ele>
        <time>2024-02-04T10:13:08Z</time>
      </trkpt>
      <trkpt lat="43.16563" lon="6.48619">
        <ele>232.9</ele>
        <time>2024-02-04T10:13:09Z</time>
      </trkpt>
      <trkpt lat="43.16564" lon="6.48618">
        <ele>232.9</ele>
        <time>2024-02-04T10:13:10Z</time>
      </trkpt>
      <trkpt lat="43.16565" lon="6.48617">
        <ele>232.9</ele>
        <time>2024-02-04T10:13:11Z</time>
      </trkpt>
      <trkpt lat="43.16566" lon="6.48616">
        <ele>232.8</ele>
        <time>2024-02-04T10:13:12Z</time>
      </trkpt>
      <trkpt lat="43.16567" lon="6.48616">
        <ele>232.7</ele>
        <time>2024-02-04T10:13:13Z</time>
      </trkpt>
      <trkpt lat="43.16568" lon="6.48615">
        <ele>232.6</ele>
        <time>2024-02-04T10:13:14Z</time>
      </trkpt>
      <trkpt lat="43.16569" lon="6.48614">
        <ele>232.5</ele>
        <time>2024-02-04T10:13:15Z</time>
      </trkpt>
      <trkpt lat="43.1657" lon="6.48613">
        <ele>232.4</ele>
        <time>2024-02-04T10:13:16Z</time>
      </trkpt>
      <trkpt lat="43.1657" lon="6.48612">
        <ele>232.4</ele>
        <time>2024-02-04T10:13:17Z</time>
      </trkpt>
      <trkpt lat="43.16571" lon="6.4861">
        <ele>232.3</ele>
        <time>2024-02-04T10:13:18Z</time>
      </trkpt>
      <trkpt lat="43.16572" lon="6.4861">
        <ele>232.2</ele>
        <time>2024-02-04T10:13:19Z</time>
      </trkpt>
      <trkpt lat="43.16572" lon="6.48609">
        <ele>232.2</ele>
        <time>2024-02-04T10:13:20Z</time>
      </trkpt>
      <trkpt lat="43.16573" lon="6.48608">
        <ele>232.2</ele>
        <time>2024-02-04T10:13:21Z</time>
      </trkpt>
      <trkpt lat="43.16574" lon="6.48607">
        <ele>232.2</ele>
        <time>2024-02-04T10:13:22Z</time>
      </trkpt>
      <trkpt lat="43.16575" lon="6.48606">
        <ele>232.1</ele>
        <time>2024-02-04T10:13:23Z</time>
      </trkpt>
      <trkpt lat="43.16576" lon="6.48605">
        <ele>232.1</ele>
        <time>2024-02-04T10:13:24Z</time>
      </trkpt>
      <trkpt lat="43.16576" lon="6.48604">
        <ele>232</ele>
        <time>2024-02-04T10:13:25Z</time>
      </trkpt>
      <trkpt lat="43.16577" lon="6.48604">
        <ele>232</ele>
        <time>2024-02-04T10:13:26Z</time>
      </trkpt>
      <trkpt lat="43.16578" lon="6.48603">
        <ele>232</ele>
        <time>2024-02-04T10:13:27Z</time>
      </trkpt>
      <trkpt lat="43.16579" lon="6.48602">
        <ele>232</ele>
        <time>2024-02-04T10:13:28Z</time>
      </trkpt>
      <trkpt lat="43.1658" lon="6.48601">
        <ele>232</ele>
        <time>2024-02-04T10:13:29Z</time>
      </trkpt>
      <trkpt lat="43.16581" lon="6.48601">
        <ele>232</ele>
        <time>2024-02-04T10:13:30Z</time>
      </trkpt>
      <trkpt lat="43.16582" lon="6.486">
        <ele>232</ele>
        <time>2024-02-04T10:13:31Z</time>
      </trkpt>
      <trkpt lat="43.16582" lon="6.48599">
        <ele>232</ele>
        <time>2024-02-04T10:13:32Z</time>
      </trkpt>
      <trkpt lat="43.16583" lon="6.48599">
        <ele>231.9</ele>
        <time>2024-02-04T10:13:33Z</time>
      </trkpt>
      <trkpt lat="43.16584" lon="6.48599">
        <ele>231.9</ele>
        <time>2024-02-04T10:13:34Z</time>
      </trkpt>
      <trkpt lat="43.16585" lon="6.48599">
        <ele>231.9</ele>
        <time>2024-02-04T10:13:35Z</time>
      </trkpt>
      <trkpt lat="43.16586" lon="6.48599">
        <ele>231.9</ele>
        <time>2024-02-04T10:13:36Z</time>
      </trkpt>
      <trkpt lat="43.16586" lon="6.48599">
        <ele>231.8</ele>
        <time>2024-02-04T10:13:37Z</time>
      </trkpt>
      <trkpt lat="43.16588" lon="6.48598">
        <ele>231.7</ele>
        <time>2024-02-04T10:13:38Z</time>
      </trkpt>
      <trkpt lat="43.16589" lon="6.48599">
        <ele>231.6</ele>
        <time>2024-02-04T10:13:39Z</time>
      </trkpt>
      <trkpt lat="43.1659" lon="6.48599">
        <ele>231.5</ele>
        <time>2024-02-04T10:13:40Z</time>
      </trkpt>
      <trkpt lat="43.1659" lon="6.48599">
        <ele>231.3</ele>
        <time>2024-02-04T10:13:41Z</time>
      </trkpt>
      <trkpt lat="43.16591" lon="6.48599">
        <ele>231.2</ele>
        <time>2024-02-04T10:13:42Z</time>
      </trkpt>
      <trkpt lat="43.16592" lon="6.48599">
        <ele>231</ele>
        <time>2024-02-04T10:13:43Z</time>
      </trkpt>
      <trkpt lat="43.16593" lon="6.48598">
        <ele>230.9</ele>
        <time>2024-02-04T10:13:44Z</time>
      </trkpt>
      <trkpt lat="43.16594" lon="6.48597">
        <ele>230.8</ele>
        <time>2024-02-04T10:13:45Z</time>
      </trkpt>
      <trkpt lat="43.16595" lon="6.48597">
        <ele>230.7</ele>
        <time>2024-02-04T10:13:46Z</time>
      </trkpt>
      <trkpt lat="43.16596" lon="6.48596">
        <ele>230.6</ele>
        <time>2024-02-04T10:13:47Z</time>
      </trkpt>
      <trkpt lat="43.16596" lon="6.48595">
        <ele>230.5</ele>
        <time>2024-02-04T10:13:48Z</time>
      </trkpt>
      <trkpt lat="43.16598" lon="6.48594">
        <ele>230.4</ele>
        <time>2024-02-04T10:13:49Z</time>
      </trkpt>
      <trkpt lat="43.16599" lon="6.48594">
        <ele>230.2</ele>
        <time>2024-02-04T10:13:50Z</time>
      </trkpt>
      <trkpt lat="43.166" lon="6.48593">
        <ele>230.1</ele>
        <time>2024-02-04T10:13:51Z</time>
      </trkpt>
      <trkpt lat="43.166" lon="6.48592">
        <ele>230</ele>
        <time>2024-02-04T10:13:52Z</time>
      </trkpt>
      <trkpt lat="43.16601" lon="6.48591">
        <ele>229.9</ele>
        <time>2024-02-04T10:13:53Z</time>
      </trkpt>
      <trkpt lat="43.16602" lon="6.4859">
        <ele>229.9</ele>
        <time>2024-02-04T10:13:54Z</time>
      </trkpt>
      <trkpt lat="43.16603" lon="6.48589">
        <ele>229.8</ele>
        <time>2024-02-04T10:13:55Z</time>
      </trkpt>
      <trkpt lat="43.16603" lon="6.48588">
        <ele>229.6</ele>
        <time>2024-02-04T10:13:56Z</time>
      </trkpt>
      <trkpt lat="43.16604" lon="6.48587">
        <ele>229.5</ele>
        <time>2024-02-04T10:13:57Z</time>
      </trkpt>
      <trkpt lat="43.16604" lon="6.48587">
        <ele>229.2</ele>
        <time>2024-02-04T10:13:58Z</time>
      </trkpt>
      <trkpt lat="43.16605" lon="6.48586">
        <ele>228.9</ele>
        <time>2024-02-04T10:13:59Z</time>
      </trkpt>
      <trkpt lat="43.16606" lon="6.48585">
        <ele>228.7</ele>
        <time>2024-02-04T10:14:00Z</time>
      </trkpt>
      <trkpt lat="43.16607" lon="6.48584">
        <ele>228.5</ele>
        <time>2024-02-04T10:14:01Z</time>
      </trkpt>
      <trkpt lat="43.16607" lon="6.48584">
        <ele>228.3</ele>
        <time>2024-02-04T10:14:02Z</time>
      </trkpt>
      <trkpt lat="43.16608" lon="6.48583">
        <ele>228.1</ele>
        <time>2024-02-04T10:14:03Z</time>
      </trkpt>
      <trkpt lat="43.16609" lon="6.48583">
        <ele>227.9</ele>
        <time>2024-02-04T10:14:04Z</time>
      </trkpt>
      <trkpt lat="43.16609" lon="6.48583">
        <ele>227.7</ele>
        <time>2024-02-04T10:14:05Z</time>
      </trkpt>
      <trkpt lat="43.1661" lon="6.48582">
        <ele>227.5</ele>
        <time>2024-02-04T10:14:06Z</time>
      </trkpt>
      <trkpt lat="43.16611" lon="6.48582">
        <ele>227.3</ele>
        <time>2024-02-04T10:14:07Z</time>
      </trkpt>
      <trkpt lat="43.16611" lon="6.48582">
        <ele>227.1</ele>
        <time>2024-02-04T10:14:08Z</time>
      </trkpt>
      <trkpt lat="43.16611" lon="6.48582">
        <ele>227</ele>
        <time>2024-02-04T10:14:09Z</time>
      </trkpt>
      <trkpt lat="43.16612" lon="6.48582">
        <ele>226.6</ele>
        <time>2024-02-04T10:14:10Z</time>
      </trkpt>
      <trkpt lat="43.16613" lon="6.48581">
        <ele>226.3</ele>
        <time>2024-02-04T10:14:11Z</time>
      </trkpt>
      <trkpt lat="43.16613" lon="6.4858">
        <ele>225.9</ele>
        <time>2024-02-04T10:14:12Z</time>
      </trkpt>
      <trkpt lat="43.16614" lon="6.4858">
        <ele>225.5</ele>
        <time>2024-02-04T10:14:13Z</time>
      </trkpt>
      <trkpt lat="43.16615" lon="6.48579">
        <ele>225.2</ele>
        <time>2024-02-04T10:14:14Z</time>
      </trkpt>
      <trkpt lat="43.16616" lon="6.48578">
        <ele>225</ele>
        <time>2024-02-04T10:14:15Z</time>
      </trkpt>
      <trkpt lat="43.16617" lon="6.48577">
        <ele>224.7</ele>
        <time>2024-02-04T10:14:16Z</time>
      </trkpt>
      <trkpt lat="43.16618" lon="6.48577">
        <ele>224.4</ele>
        <time>2024-02-04T10:14:17Z</time>
      </trkpt>
      <trkpt lat="43.16619" lon="6.48576">
        <ele>224.2</ele>
        <time>2024-02-04T10:14:18Z</time>
      </trkpt>
      <trkpt lat="43.1662" lon="6.48575">
        <ele>224</ele>
        <time>2024-02-04T10:14:19Z</time>
      </trkpt>
      <trkpt lat="43.16621" lon="6.48573">
        <ele>223.7</ele>
        <time>2024-02-04T10:14:20Z</time>
      </trkpt>
      <trkpt lat="43.16621" lon="6.48571">
        <ele>223.4</ele>
        <time>2024-02-04T10:14:21Z</time>
      </trkpt>
      <trkpt lat="43.16622" lon="6.4857">
        <ele>223.2</ele>
        <time>2024-02-04T10:14:22Z</time>
      </trkpt>
      <trkpt lat="43.16622" lon="6.48569">
        <ele>223</ele>
        <time>2024-02-04T10:14:23Z</time>
      </trkpt>
      <trkpt lat="43.16622" lon="6.48568">
        <ele>222.8</ele>
        <time>2024-02-04T10:14:24Z</time>
      </trkpt>
      <trkpt lat="43.16623" lon="6.48567">
        <ele>222.7</ele>
        <time>2024-02-04T10:14:25Z</time>
      </trkpt>
      <trkpt lat="43.16623" lon="6.48566">
        <ele>222.5</ele>
        <time>2024-02-04T10:14:26Z</time>
      </trkpt>
      <trkpt lat="43.16624" lon="6.48564">
        <ele>222.4</ele>
        <time>2024-02-04T10:14:27Z</time>
      </trkpt>
      <trkpt lat="43.16624" lon="6.48564">
        <ele>222.3</ele>
        <time>2024-02-04T10:14:28Z</time>
      </trkpt>
      <trkpt lat="43.16625" lon="6.48563">
        <ele>222.1</ele>
        <time>2024-02-04T10:14:29Z</time>
      </trkpt>
      <trkpt lat="43.16626" lon="6.48563">
        <ele>221.9</ele>
        <time>2024-02-04T10:14:30Z</time>
      </trkpt>
      <trkpt lat="43.16626" lon="6.48562">
        <ele>221.7</ele>
        <time>2024-02-04T10:14:31Z</time>
      </trkpt>
      <trkpt lat="43.16627" lon="6.48562">
        <ele>221.5</ele>
        <time>2024-02-04T10:14:32Z</time>
      </trkpt>
      <trkpt lat="43.16628" lon="6.48561">
        <ele>221.4</ele>
        <time>2024-02-04T10:14:33Z</time>
      </trkpt>
      <trkpt lat="43.16629" lon="6.4856">
        <ele>221.2</ele>
        <time>2024-02-04T10:14:34Z</time>
      </trkpt>
      <trkpt lat="43.1663" lon="6.48559">
        <ele>221</ele>
        <time>2024-02-04T10:14:35Z</time>
      </trkpt>
      <trkpt lat="43.1663" lon="6.48558">
        <ele>220.7</ele>
        <time>2024-02-04T10:14:36Z</time>
      </trkpt>
      <trkpt lat="43.16631" lon="6.48557">
        <ele>220.4</ele>
        <time>2024-02-04T10:14:37Z</time>
      </trkpt>
      <trkpt lat="43.16632" lon="6.48556">
        <ele>220.1</ele>
        <time>2024-02-04T10:14:38Z</time>
      </trkpt>
      <trkpt lat="43.16632" lon="6.48555">
        <ele>219.8</ele>
        <time>2024-02-04T10:14:39Z</time>
      </trkpt>
      <trkpt lat="43.16633" lon="6.48555">
        <ele>219.6</ele>
        <time>2024-02-04T10:14:40Z</time>
      </trkpt>
      <trkpt lat="43.16635" lon="6.48554">
        <ele>219.3</ele>
        <time>2024-02-04T10:14:41Z</time>
      </trkpt>
      <trkpt lat="43.16636" lon="6.48553">
        <ele>219.2</ele>
        <time>2024-02-04T10:14:42Z</time>
      </trkpt>
      <trkpt lat="43.16636" lon="6.48553">
        <ele>219</ele>
        <time>2024-02-04T10:14:43Z</time>
      </trkpt>
      <trkpt lat="43.16637" lon="6.48551">
        <ele>218.8</ele>
        <time>2024-02-04T10:14:44Z</time>
      </trkpt>
      <trkpt lat="43.16638" lon="6.4855">
        <ele>218.6</ele>
        <time>2024-02-04T10:14:45Z</time>
      </trkpt>
      <trkpt lat="43.16639" lon="6.48549">
        <ele>218.4</ele>
        <time>2024-02-04T10:14:46Z</time>
      </trkpt>
      <trkpt lat="43.16639" lon="6.48548">
        <ele>218.4</ele>
        <time>2024-02-04T10:14:47Z</time>
      </trkpt>
      <trkpt lat="43.1664" lon="6.48548">
        <ele>218.3</ele>
        <time>2024-02-04T10:14:48Z</time>
      </trkpt>
      <trkpt lat="43.1664" lon="6.48547">
        <ele>218.3</ele>
        <time>2024-02-04T10:14:49Z</time>
      </trkpt>
      <trkpt lat="43.16641" lon="6.48546">
        <ele>218.3</ele>
        <time>2024-02-04T10:14:50Z</time>
      </trkpt>
      <trkpt lat="43.16642" lon="6.48545">
        <ele>218.3</ele>
        <time>2024-02-04T10:14:51Z</time>
      </trkpt>
      <trkpt lat="43.16642" lon="6.48545">
        <ele>218.2</ele>
        <time>2024-02-04T10:14:52Z</time>
      </trkpt>
      <trkpt lat="43.16643" lon="6.48545">
        <ele>218.2</ele>
        <time>2024-02-04T10:14:53Z</time>
      </trkpt>
      <trkpt lat="43.16644" lon="6.48544">
        <ele>218.1</ele>
        <time>2024-02-04T10:14:54Z</time>
      </trkpt>
      <trkpt lat="43.16645" lon="6.48544">
        <ele>218</ele>
        <time>2024-02-04T10:14:55Z</time>
      </trkpt>
      <trkpt lat="43.16646" lon="6.48543">
        <ele>217.8</ele>
        <time>2024-02-04T10:14:56Z</time>
      </trkpt>
      <trkpt lat="43.16646" lon="6.48542">
        <ele>217.7</ele>
        <time>2024-02-04T10:14:57Z</time>
      </trkpt>
      <trkpt lat="43.16648" lon="6.48541">
        <ele>217.6</ele>
        <time>2024-02-04T10:14:58Z</time>
      </trkpt>
      <trkpt lat="43.16648" lon="6.4854">
        <ele>217.4</ele>
        <time>2024-02-04T10:14:59Z</time>
      </trkpt>
      <trkpt lat="43.16649" lon="6.48539">
        <ele>217.3</ele>
        <time>2024-02-04T10:15:00Z</time>
      </trkpt>
      <trkpt lat="43.1665" lon="6.48539">
        <ele>217.1</ele>
        <time>2024-02-04T10:15:01Z</time>
      </trkpt>
      <trkpt lat="43.16651" lon="6.48538">
        <ele>216.9</ele>
        <time>2024-02-04T10:15:02Z</time>
      </trkpt>
      <trkpt lat="43.16652" lon="6.48538">
        <ele>216.6</ele>
        <time>2024-02-04T10:15:03Z</time>
      </trkpt>
      <trkpt lat="43.16653" lon="6.48537">
        <ele>216.4</ele>
        <time>2024-02-04T10:15:04Z</time>
      </trkpt>
      <trkpt lat="43.16653" lon="6.48537">
        <ele>216.2</ele>
        <time>2024-02-04T10:15:05Z</time>
      </trkpt>
      <trkpt lat="43.16654" lon="6.48536">
        <ele>216.1</ele>
        <time>2024-02-04T10:15:06Z</time>
      </trkpt>
      <trkpt lat="43.16655" lon="6.48535">
        <ele>215.9</ele>
        <time>2024-02-04T10:15:07Z</time>
      </trkpt>
      <trkpt lat="43.16656" lon="6.48534">
        <ele>215.8</ele>
        <time>2024-02-04T10:15:08Z</time>
      </trkpt>
      <trkpt lat="43.16657" lon="6.48534">
        <ele>215.7</ele>
        <time>2024-02-04T10:15:09Z</time>
      </trkpt>
      <trkpt lat="43.16658" lon="6.48533">
        <ele>215.6</ele>
        <time>2024-02-04T10:15:10Z</time>
      </trkpt>
      <trkpt lat="43.16659" lon="6.48532">
        <ele>215.5</ele>
        <time>2024-02-04T10:15:11Z</time>
      </trkpt>
      <trkpt lat="43.1666" lon="6.48531">
        <ele>215.3</ele>
        <time>2024-02-04T10:15:12Z</time>
      </trkpt>
      <trkpt lat="43.16661" lon="6.48531">
        <ele>215.1</ele>
        <time>2024-02-04T10:15:13Z</time>
      </trkpt>
      <trkpt lat="43.16661" lon="6.4853">
        <ele>214.9</ele>
        <time>2024-02-04T10:15:14Z</time>
      </trkpt>
      <trkpt lat="43.16662" lon="6.4853">
        <ele>214.7</ele>
        <time>2024-02-04T10:15:15Z</time>
      </trkpt>
      <trkpt lat="43.16663" lon="6.48529">
        <ele>214.6</ele>
        <time>2024-02-04T10:15:16Z</time>
      </trkpt>
      <trkpt lat="43.16664" lon="6.48528">
        <ele>214.5</ele>
        <time>2024-02-04T10:15:17Z</time>
      </trkpt>
      <trkpt lat="43.16665" lon="6.48527">
        <ele>214.2</ele>
        <time>2024-02-04T10:15:18Z</time>
      </trkpt>
      <trkpt lat="43.16667" lon="6.48526">
        <ele>214.1</ele>
        <time>2024-02-04T10:15:19Z</time>
      </trkpt>
      <trkpt lat="43.16668" lon="6.48526">
        <ele>213.9</ele>
        <time>2024-02-04T10:15:20Z</time>
      </trkpt>
      <trkpt lat="43.16669" lon="6.48526">
        <ele>213.8</ele>
        <time>2024-02-04T10:15:21Z</time>
      </trkpt>
      <trkpt lat="43.1667" lon="6.48526">
        <ele>213.6</ele>
        <time>2024-02-04T10:15:22Z</time>
      </trkpt>
      <trkpt lat="43.16671" lon="6.48526">
        <ele>213.5</ele>
        <time>2024-02-04T10:15:23Z</time>
      </trkpt>
      <trkpt lat="43.16672" lon="6.48526">
        <ele>213.4</ele>
        <time>2024-02-04T10:15:24Z</time>
      </trkpt>
      <trkpt lat="43.16673" lon="6.48525">
        <ele>213.3</ele>
        <time>2024-02-04T10:15:25Z</time>
      </trkpt>
      <trkpt lat="43.16674" lon="6.48525">
        <ele>213.2</ele>
        <time>2024-02-04T10:15:26Z</time>
      </trkpt>
      <trkpt lat="43.16675" lon="6.48525">
        <ele>213</ele>
        <time>2024-02-04T10:15:27Z</time>
      </trkpt>
      <trkpt lat="43.16676" lon="6.48524">
        <ele>212.9</ele>
        <time>2024-02-04T10:15:28Z</time>
      </trkpt>
      <trkpt lat="43.16677" lon="6.48523">
        <ele>212.6</ele>
        <time>2024-02-04T10:15:29Z</time>
      </trkpt>
      <trkpt lat="43.16679" lon="6.48523">
        <ele>212.4</ele>
        <time>2024-02-04T10:15:30Z</time>
      </trkpt>
      <trkpt lat="43.16679" lon="6.48523">
        <ele>212.3</ele>
        <time>2024-02-04T10:15:31Z</time>
      </trkpt>
      <trkpt lat="43.1668" lon="6.48522">
        <ele>212.1</ele>
        <time>2024-02-04T10:15:32Z</time>
      </trkpt>
      <trkpt lat="43.1668" lon="6.48522">
        <ele>212</ele>
        <time>2024-02-04T10:15:33Z</time>
      </trkpt>
      <trkpt lat="43.16681" lon="6.4852">
        <ele>212</ele>
        <time>2024-02-04T10:15:34Z</time>
      </trkpt>
      <trkpt lat="43.16682" lon="6.48519">
        <ele>211.9</ele>
        <time>2024-02-04T10:15:35Z</time>
      </trkpt>
      <trkpt lat="43.16682" lon="6.48519">
        <ele>211.9</ele>
        <time>2024-02-04T10:15:36Z</time>
      </trkpt>
      <trkpt lat="43.16683" lon="6.48519">
        <ele>211.8</ele>
        <time>2024-02-04T10:15:37Z</time>
      </trkpt>
      <trkpt lat="43.16684" lon="6.48518">
        <ele>211.8</ele>
        <time>2024-02-04T10:15:38Z</time>
      </trkpt>
      <trkpt lat="43.16686" lon="6.48519">
        <ele>211.6</ele>
        <time>2024-02-04T10:15:39Z</time>
      </trkpt>
      <trkpt lat="43.16687" lon="6.48519">
        <ele>211.4</ele>
        <time>2024-02-04T10:15:40Z</time>
      </trkpt>
      <trkpt lat="43.16688" lon="6.48519">
        <ele>211.3</ele>
        <time>2024-02-04T10:15:41Z</time>
      </trkpt>
      <trkpt lat="43.1669" lon="6.48519">
        <ele>211.1</ele>
        <time>2024-02-04T10:15:42Z</time>
      </trkpt>
      <trkpt lat="43.16691" lon="6.48518">
        <ele>211</ele>
        <time>2024-02-04T10:15:43Z</time>
      </trkpt>
      <trkpt lat="43.16693" lon="6.48518">
        <ele>210.9</ele>
        <time>2024-02-04T10:15:44Z</time>
      </trkpt>
      <trkpt lat="43.16694" lon="6.48518">
        <ele>210.7</ele>
        <time>2024-02-04T10:15:45Z</time>
      </trkpt>
      <trkpt lat="43.16695" lon="6.48518">
        <ele>210.5</ele>
        <time>2024-02-04T10:15:46Z</time>
      </trkpt>
      <trkpt lat="43.16696" lon="6.48517">
        <ele>210.3</ele>
        <time>2024-02-04T10:15:47Z</time>
      </trkpt>
      <trkpt lat="43.16698" lon="6.48516">
        <ele>209.9</ele>
        <time>2024-02-04T10:15:48Z</time>
      </trkpt>
      <trkpt lat="43.16699" lon="6.48515">
        <ele>209.8</ele>
        <time>2024-02-04T10:15:49Z</time>
      </trkpt>
      <trkpt lat="43.167" lon="6.48515">
        <ele>209.6</ele>
        <time>2024-02-04T10:15:50Z</time>
      </trkpt>
      <trkpt lat="43.16701" lon="6.48514">
        <ele>209.5</ele>
        <time>2024-02-04T10:15:51Z</time>
      </trkpt>
      <trkpt lat="43.16702" lon="6.48514">
        <ele>209.2</ele>
        <time>2024-02-04T10:15:52Z</time>
      </trkpt>
      <trkpt lat="43.16703" lon="6.48514">
        <ele>209</ele>
        <time>2024-02-04T10:15:53Z</time>
      </trkpt>
      <trkpt lat="43.16703" lon="6.48514">
        <ele>208.8</ele>
        <time>2024-02-04T10:15:54Z</time>
      </trkpt>
      <trkpt lat="43.16703" lon="6.48513">
        <ele>208.7</ele>
        <time>2024-02-04T10:15:55Z</time>
      </trkpt>
      <trkpt lat="43.16704" lon="6.48513">
        <ele>208.5</ele>
        <time>2024-02-04T10:15:56Z</time>
      </trkpt>
      <trkpt lat="43.16705" lon="6.48512">
        <ele>208.4</ele>
        <time>2024-02-04T10:15:57Z</time>
      </trkpt>
      <trkpt lat="43.16706" lon="6.48511">
        <ele>208.2</ele>
        <time>2024-02-04T10:15:58Z</time>
      </trkpt>
      <trkpt lat="43.16706" lon="6.4851">
        <ele>208.1</ele>
        <time>2024-02-04T10:15:59Z</time>
      </trkpt>
      <trkpt lat="43.16707" lon="6.4851">
        <ele>207.9</ele>
        <time>2024-02-04T10:16:00Z</time>
      </trkpt>
      <trkpt lat="43.16708" lon="6.48508">
        <ele>207.7</ele>
        <time>2024-02-04T10:16:01Z</time>
      </trkpt>
      <trkpt lat="43.16708" lon="6.48508">
        <ele>207.6</ele>
        <time>2024-02-04T10:16:02Z</time>
      </trkpt>
      <trkpt lat="43.16708" lon="6.48507">
        <ele>207.5</ele>
        <time>2024-02-04T10:16:03Z</time>
      </trkpt>
      <trkpt lat="43.16709" lon="6.48506">
        <ele>207.4</ele>
        <time>2024-02-04T10:16:04Z</time>
      </trkpt>
      <trkpt lat="43.16709" lon="6.48505">
        <ele>207.1</ele>
        <time>2024-02-04T10:16:05Z</time>
      </trkpt>
      <trkpt lat="43.1671" lon="6.48504">
        <ele>207</ele>
        <time>2024-02-04T10:16:06Z</time>
      </trkpt>
      <trkpt lat="43.1671" lon="6.48503">
        <ele>207</ele>
        <time>2024-02-04T10:16:07Z</time>
      </trkpt>
      <trkpt lat="43.16711" lon="6.48502">
        <ele>206.9</ele>
        <time>2024-02-04T10:16:08Z</time>
      </trkpt>
      <trkpt lat="43.16711" lon="6.48501">
        <ele>206.9</ele>
        <time>2024-02-04T10:16:09Z</time>
      </trkpt>
      <trkpt lat="43.16711" lon="6.485">
        <ele>206.8</ele>
        <time>2024-02-04T10:16:10Z</time>
      </trkpt>
      <trkpt lat="43.16712" lon="6.48499">
        <ele>206.7</ele>
        <time>2024-02-04T10:16:11Z</time>
      </trkpt>
      <trkpt lat="43.16712" lon="6.48498">
        <ele>206.6</ele>
        <time>2024-02-04T10:16:12Z</time>
      </trkpt>
      <trkpt lat="43.16712" lon="6.48497">
        <ele>206.4</ele>
        <time>2024-02-04T10:16:13Z</time>
      </trkpt>
      <trkpt lat="43.16712" lon="6.48494">
        <ele>206.3</ele>
        <time>2024-02-04T10:16:14Z</time>
      </trkpt>
      <trkpt lat="43.16713" lon="6.48493">
        <ele>206.1</ele>
        <time>2024-02-04T10:16:15Z</time>
      </trkpt>
      <trkpt lat="43.16713" lon="6.48492">
        <ele>206</ele>
        <time>2024-02-04T10:16:16Z</time>
      </trkpt>
      <trkpt lat="43.16714" lon="6.48491">
        <ele>205.9</ele>
        <time>2024-02-04T10:16:17Z</time>
      </trkpt>
      <trkpt lat="43.16714" lon="6.4849">
        <ele>205.8</ele>
        <time>2024-02-04T10:16:18Z</time>
      </trkpt>
      <trkpt lat="43.16714" lon="6.48489">
        <ele>205.8</ele>
        <time>2024-02-04T10:16:19Z</time>
      </trkpt>
      <trkpt lat="43.16715" lon="6.48488">
        <ele>205.7</ele>
        <time>2024-02-04T10:16:20Z</time>
      </trkpt>
      <trkpt lat="43.16715" lon="6.48487">
        <ele>205.4</ele>
        <time>2024-02-04T10:16:21Z</time>
      </trkpt>
      <trkpt lat="43.16716" lon="6.48486">
        <ele>205.3</ele>
        <time>2024-02-04T10:16:22Z</time>
      </trkpt>
      <trkpt lat="43.16717" lon="6.48485">
        <ele>205.2</ele>
        <time>2024-02-04T10:16:23Z</time>
      </trkpt>
      <trkpt lat="43.16717" lon="6.48483">
        <ele>205.1</ele>
        <time>2024-02-04T10:16:24Z</time>
      </trkpt>
      <trkpt lat="43.16717" lon="6.48482">
        <ele>205</ele>
        <time>2024-02-04T10:16:25Z</time>
      </trkpt>
      <trkpt lat="43.16718" lon="6.4848">
        <ele>204.9</ele>
        <time>2024-02-04T10:16:26Z</time>
      </trkpt>
      <trkpt lat="43.16718" lon="6.48479">
        <ele>204.9</ele>
        <time>2024-02-04T10:16:27Z</time>
      </trkpt>
      <trkpt lat="43.16718" lon="6.48478">
        <ele>204.7</ele>
        <time>2024-02-04T10:16:28Z</time>
      </trkpt>
      <trkpt lat="43.16719" lon="6.48477">
        <ele>204.5</ele>
        <time>2024-02-04T10:16:29Z</time>
      </trkpt>
      <trkpt lat="43.1672" lon="6.48475">
        <ele>204.3</ele>
        <time>2024-02-04T10:16:30Z</time>
      </trkpt>
      <trkpt lat="43.1672" lon="6.48474">
        <ele>204.2</ele>
        <time>2024-02-04T10:16:31Z</time>
      </trkpt>
      <trkpt lat="43.16721" lon="6.48473">
        <ele>204.1</ele>
        <time>2024-02-04T10:16:32Z</time>
      </trkpt>
      <trkpt lat="43.16722" lon="6.48472">
        <ele>204</ele>
        <time>2024-02-04T10:16:33Z</time>
      </trkpt>
      <trkpt lat="43.16723" lon="6.48471">
        <ele>203.8</ele>
        <time>2024-02-04T10:16:34Z</time>
      </trkpt>
      <trkpt lat="43.16724" lon="6.4847">
        <ele>203.6</ele>
        <time>2024-02-04T10:16:35Z</time>
      </trkpt>
      <trkpt lat="43.16724" lon="6.48468">
        <ele>203.3</ele>
        <time>2024-02-04T10:16:36Z</time>
      </trkpt>
      <trkpt lat="43.16725" lon="6.48467">
        <ele>203.1</ele>
        <time>2024-02-04T10:16:37Z</time>
      </trkpt>
      <trkpt lat="43.16725" lon="6.48466">
        <ele>202.9</ele>
        <time>2024-02-04T10:16:38Z</time>
      </trkpt>
      <trkpt lat="43.16726" lon="6.48465">
        <ele>202.7</ele>
        <time>2024-02-04T10:16:39Z</time>
      </trkpt>
      <trkpt lat="43.16726" lon="6.48464">
        <ele>202.5</ele>
        <time>2024-02-04T10:16:40Z</time>
      </trkpt>
      <trkpt lat="43.16726" lon="6.48463">
        <ele>202.4</ele>
        <time>2024-02-04T10:16:41Z</time>
      </trkpt>
      <trkpt lat="43.16727" lon="6.48461">
        <ele>202.2</ele>
        <time>2024-02-04T10:16:42Z</time>
      </trkpt>
      <trkpt lat="43.16727" lon="6.4846">
        <ele>202.1</ele>
        <time>2024-02-04T10:16:43Z</time>
      </trkpt>
      <trkpt lat="43.16727" lon="6.48459">
        <ele>201.9</ele>
        <time>2024-02-04T10:16:44Z</time>
      </trkpt>
      <trkpt lat="43.16727" lon="6.48458">
        <ele>201.8</ele>
        <time>2024-02-04T10:16:45Z</time>
      </trkpt>
      <trkpt lat="43.16728" lon="6.48458">
        <ele>201.6</ele>
        <time>2024-02-04T10:16:46Z</time>
      </trkpt>
      <trkpt lat="43.16729" lon="6.48457">
        <ele>201.5</ele>
        <time>2024-02-04T10:16:47Z</time>
      </trkpt>
      <trkpt lat="43.16729" lon="6.48458">
        <ele>201.3</ele>
        <time>2024-02-04T10:16:48Z</time>
      </trkpt>
      <trkpt lat="43.16731" lon="6.48457">
        <ele>201.3</ele>
        <time>2024-02-04T10:16:49Z</time>
      </trkpt>
      <trkpt lat="43.16731" lon="6.48457">
        <ele>201.2</ele>
        <time>2024-02-04T10:16:50Z</time>
      </trkpt>
      <trkpt lat="43.16732" lon="6.48457">
        <ele>201.1</ele>
        <time>2024-02-04T10:16:51Z</time>
      </trkpt>
      <trkpt lat="43.16733" lon="6.48457">
        <ele>201.1</ele>
        <time>2024-02-04T10:16:52Z</time>
      </trkpt>
      <trkpt lat="43.16734" lon="6.48457">
        <ele>201</ele>
        <time>2024-02-04T10:16:53Z</time>
      </trkpt>
      <trkpt lat="43.16734" lon="6.48458">
        <ele>201</ele>
        <time>2024-02-04T10:16:54Z</time>
      </trkpt>
      <trkpt lat="43.16735" lon="6.48457">
        <ele>201</ele>
        <time>2024-02-04T10:16:55Z</time>
      </trkpt>
      <trkpt lat="43.16736" lon="6.48458">
        <ele>201</ele>
        <time>2024-02-04T10:16:56Z</time>
      </trkpt>
      <trkpt lat="43.16737" lon="6.48459">
        <ele>200.9</ele>
        <time>2024-02-04T10:16:57Z</time>
      </trkpt>
      <trkpt lat="43.16738" lon="6.48459">
        <ele>200.8</ele>
        <time>2024-02-04T10:16:58Z</time>
      </trkpt>
      <trkpt lat="43.16739" lon="6.4846">
        <ele>200.7</ele>
        <time>2024-02-04T10:16:59Z</time>
      </trkpt>
      <trkpt lat="43.1674" lon="6.4846">
        <ele>200.6</ele>
        <time>2024-02-04T10:17:00Z</time>
      </trkpt>
      <trkpt lat="43.16741" lon="6.4846">
        <ele>200.6</ele>
        <time>2024-02-04T10:17:01Z</time>
      </trkpt>
      <trkpt lat="43.16742" lon="6.4846">
        <ele>200.5</ele>
        <time>2024-02-04T10:17:02Z</time>
      </trkpt>
      <trkpt lat="43.16743" lon="6.4846">
        <ele>200.5</ele>
        <time>2024-02-04T10:17:03Z</time>
      </trkpt>
      <trkpt lat="43.16743" lon="6.4846">
        <ele>200.6</ele>
        <time>2024-02-04T10:17:04Z</time>
      </trkpt>
      <trkpt lat="43.16744" lon="6.48459">
        <ele>200.6</ele>
        <time>2024-02-04T10:17:05Z</time>
      </trkpt>
      <trkpt lat="43.16745" lon="6.48459">
        <ele>200.7</ele>
        <time>2024-02-04T10:17:06Z</time>
      </trkpt>
      <trkpt lat="43.16745" lon="6.48459">
        <ele>200.7</ele>
        <time>2024-02-04T10:17:07Z</time>
      </trkpt>
      <trkpt lat="43.16746" lon="6.48458">
        <ele>200.8</ele>
        <time>2024-02-04T10:17:08Z</time>
      </trkpt>
      <trkpt lat="43.16747" lon="6.48458">
        <ele>200.8</ele>
        <time>2024-02-04T10:17:09Z</time>
      </trkpt>
      <trkpt lat="43.16747" lon="6.48458">
        <ele>200.8</ele>
        <time>2024-02-04T10:17:10Z</time>
      </trkpt>
      <trkpt lat="43.16748" lon="6.48458">
        <ele>200.6</ele>
        <time>2024-02-04T10:17:11Z</time>
      </trkpt>
      <trkpt lat="43.16748" lon="6.48458">
        <ele>200.5</ele>
        <time>2024-02-04T10:17:12Z</time>
      </trkpt>
      <trkpt lat="43.16749" lon="6.48459">
        <ele>200.3</ele>
        <time>2024-02-04T10:17:13Z</time>
      </trkpt>
      <trkpt lat="43.1675" lon="6.48459">
        <ele>200.1</ele>
        <time>2024-02-04T10:17:14Z</time>
      </trkpt>
      <trkpt lat="43.1675" lon="6.48459">
        <ele>200</ele>
        <time>2024-02-04T10:17:15Z</time>
      </trkpt>
      <trkpt lat="43.16751" lon="6.48459">
        <ele>199.9</ele>
        <time>2024-02-04T10:17:16Z</time>
      </trkpt>
      <trkpt lat="43.16752" lon="6.48458">
        <ele>199.7</ele>
        <time>2024-02-04T10:17:17Z</time>
      </trkpt>
      <trkpt lat="43.16752" lon="6.48458">
        <ele>199.7</ele>
        <time>2024-02-04T10:17:18Z</time>
      </trkpt>
      <trkpt lat="43.16753" lon="6.48457">
        <ele>199.7</ele>
        <time>2024-02-04T10:17:19Z</time>
      </trkpt>
      <trkpt lat="43.16753" lon="6.48457">
        <ele>199.6</ele>
        <time>2024-02-04T10:17:20Z</time>
      </trkpt>
      <trkpt lat="43.16754" lon="6.48456">
        <ele>199.5</ele>
        <time>2024-02-04T10:17:21Z</time>
      </trkpt>
      <trkpt lat="43.16755" lon="6.48455">
        <ele>199.4</ele>
        <time>2024-02-04T10:17:22Z</time>
      </trkpt>
      <trkpt lat="43.16756" lon="6.48455">
        <ele>199.4</ele>
        <time>2024-02-04T10:17:23Z</time>
      </trkpt>
      <trkpt lat="43.16756" lon="6.48454">
        <ele>199.3</ele>
        <time>2024-02-04T10:17:24Z</time>
      </trkpt>
      <trkpt lat="43.16757" lon="6.48453">
        <ele>199.2</ele>
        <time>2024-02-04T10:17:25Z</time>
      </trkpt>
      <trkpt lat="43.16758" lon="6.48452">
        <ele>199</ele>
        <time>2024-02-04T10:17:26Z</time>
      </trkpt>
      <trkpt lat="43.16759" lon="6.48451">
        <ele>198.9</ele>
        <time>2024-02-04T10:17:27Z</time>
      </trkpt>
      <trkpt lat="43.1676" lon="6.4845">
        <ele>198.9</ele>
        <time>2024-02-04T10:17:28Z</time>
      </trkpt>
      <trkpt lat="43.16761" lon="6.48451">
        <ele>198.8</ele>
        <time>2024-02-04T10:17:29Z</time>
      </trkpt>
      <trkpt lat="43.16761" lon="6.4845">
        <ele>198.7</ele>
        <time>2024-02-04T10:17:30Z</time>
      </trkpt>
      <trkpt lat="43.16762" lon="6.4845">
        <ele>198.6</ele>
        <time>2024-02-04T10:17:31Z</time>
      </trkpt>
      <trkpt lat="43.16763" lon="6.4845">
        <ele>198.5</ele>
        <time>2024-02-04T10:17:32Z</time>
      </trkpt>
      <trkpt lat="43.16765" lon="6.48449">
        <ele>198.4</ele>
        <time>2024-02-04T10:17:33Z</time>
      </trkpt>
      <trkpt lat="43.16766" lon="6.48449">
        <ele>198.3</ele>
        <time>2024-02-04T10:17:34Z</time>
      </trkpt>
      <trkpt lat="43.16767" lon="6.48448">
        <ele>198.2</ele>
        <time>2024-02-04T10:17:35Z</time>
      </trkpt>
      <trkpt lat="43.16767" lon="6.48446">
        <ele>198.1</ele>
        <time>2024-02-04T10:17:36Z</time>
      </trkpt>
      <trkpt lat="43.16768" lon="6.48447">
        <ele>198</ele>
        <time>2024-02-04T10:17:37Z</time>
      </trkpt>
      <trkpt lat="43.16769" lon="6.48447">
        <ele>198</ele>
        <time>2024-02-04T10:17:38Z</time>
      </trkpt>
      <trkpt lat="43.16769" lon="6.48447">
        <ele>197.9</ele>
        <time>2024-02-04T10:17:39Z</time>
      </trkpt>
      <trkpt lat="43.1677" lon="6.48447">
        <ele>197.8</ele>
        <time>2024-02-04T10:17:40Z</time>
      </trkpt>
      <trkpt lat="43.16771" lon="6.48448">
        <ele>197.7</ele>
        <time>2024-02-04T10:17:41Z</time>
      </trkpt>
      <trkpt lat="43.16772" lon="6.48448">
        <ele>197.5</ele>
        <time>2024-02-04T10:17:42Z</time>
      </trkpt>
      <trkpt lat="43.16773" lon="6.48448">
        <ele>197.3</ele>
        <time>2024-02-04T10:17:43Z</time>
      </trkpt>
      <trkpt lat="43.16774" lon="6.48449">
        <ele>197.1</ele>
        <time>2024-02-04T10:17:44Z</time>
      </trkpt>
      <trkpt lat="43.16776" lon="6.48448">
        <ele>196.9</ele>
        <time>2024-02-04T10:17:45Z</time>
      </trkpt>
      <trkpt lat="43.16777" lon="6.48448">
        <ele>196.6</ele>
        <time>2024-02-04T10:17:46Z</time>
      </trkpt>
      <trkpt lat="43.16778" lon="6.48448">
        <ele>196.4</ele>
        <time>2024-02-04T10:17:47Z</time>
      </trkpt>
      <trkpt lat="43.16779" lon="6.48447">
        <ele>196.2</ele>
        <time>2024-02-04T10:17:48Z</time>
      </trkpt>
      <trkpt lat="43.1678" lon="6.48447">
        <ele>196</ele>
        <time>2024-02-04T10:17:49Z</time>
      </trkpt>
      <trkpt lat="43.16781" lon="6.48447">
        <ele>195.9</ele>
        <time>2024-02-04T10:17:50Z</time>
      </trkpt>
      <trkpt lat="43.16782" lon="6.48446">
        <ele>195.7</ele>
        <time>2024-02-04T10:17:51Z</time>
      </trkpt>
      <trkpt lat="43.16783" lon="6.48446">
        <ele>195.6</ele>
        <time>2024-02-04T10:17:52Z</time>
      </trkpt>
      <trkpt lat="43.16784" lon="6.48445">
        <ele>195.5</ele>
        <time>2024-02-04T10:17:53Z</time>
      </trkpt>
      <trkpt lat="43.16785" lon="6.48445">
        <ele>195.5</ele>
        <time>2024-02-04T10:17:54Z</time>
      </trkpt>
      <trkpt lat="43.16786" lon="6.48445">
        <ele>195.4</ele>
        <time>2024-02-04T10:17:55Z</time>
      </trkpt>
      <trkpt lat="43.16787" lon="6.48445">
        <ele>195.4</ele>
        <time>2024-02-04T10:17:56Z</time>
      </trkpt>
      <trkpt lat="43.16788" lon="6.48445">
        <ele>195.3</ele>
        <time>2024-02-04T10:17:57Z</time>
      </trkpt>
      <trkpt lat="43.16789" lon="6.48443">
        <ele>195.3</ele>
        <time>2024-02-04T10:17:58Z</time>
      </trkpt>
      <trkpt lat="43.1679" lon="6.48443">
        <ele>195.3</ele>
        <time>2024-02-04T10:17:59Z</time>
      </trkpt>
      <trkpt lat="43.1679" lon="6.48443">
        <ele>195.3</ele>
        <time>2024-02-04T10:18:00Z</time>
      </trkpt>
      <trkpt lat="43.16791" lon="6.48443">
        <ele>195.3</ele>
        <time>2024-02-04T10:18:01Z</time>
      </trkpt>
      <trkpt lat="43.16791" lon="6.48441">
        <ele>195.3</ele>
        <time>2024-02-04T10:18:02Z</time>
      </trkpt>
      <trkpt lat="43.16792" lon="6.4844">
        <ele>195.3</ele>
        <time>2024-02-04T10:18:03Z</time>
      </trkpt>
      <trkpt lat="43.16793" lon="6.48439">
        <ele>195.3</ele>
        <time>2024-02-04T10:18:04Z</time>
      </trkpt>
      <trkpt lat="43.16794" lon="6.48439">
        <ele>195.3</ele>
        <time>2024-02-04T10:18:05Z</time>
      </trkpt>
      <trkpt lat="43.16795" lon="6.48439">
        <ele>195.4</ele>
        <time>2024-02-04T10:18:06Z</time>
      </trkpt>
      <trkpt lat="43.16796" lon="6.48439">
        <ele>195.3</ele>
        <time>2024-02-04T10:18:07Z</time>
      </trkpt>
      <trkpt lat="43.16797" lon="6.48438">
        <ele>195.2</ele>
        <time>2024-02-04T10:18:08Z</time>
      </trkpt>
      <trkpt lat="43.16798" lon="6.48438">
        <ele>195.2</ele>
        <time>2024-02-04T10:18:09Z</time>
      </trkpt>
      <trkpt lat="43.16799" lon="6.48437">
        <ele>195.1</ele>
        <time>2024-02-04T10:18:10Z</time>
      </trkpt>
      <trkpt lat="43.168" lon="6.48437">
        <ele>195.1</ele>
        <time>2024-02-04T10:18:11Z</time>
      </trkpt>
      <trkpt lat="43.16801" lon="6.48436">
        <ele>195</ele>
        <time>2024-02-04T10:18:12Z</time>
      </trkpt>
      <trkpt lat="43.16803" lon="6.48436">
        <ele>195</ele>
        <time>2024-02-04T10:18:13Z</time>
      </trkpt>
      <trkpt lat="43.16804" lon="6.48437">
        <ele>194.9</ele>
        <time>2024-02-04T10:18:14Z</time>
      </trkpt>
      <trkpt lat="43.16805" lon="6.48436">
        <ele>194.7</ele>
        <time>2024-02-04T10:18:15Z</time>
      </trkpt>
      <trkpt lat="43.16806" lon="6.48436">
        <ele>194.5</ele>
        <time>2024-02-04T10:18:16Z</time>
      </trkpt>
      <trkpt lat="43.16807" lon="6.48436">
        <ele>194.4</ele>
        <time>2024-02-04T10:18:17Z</time>
      </trkpt>
      <trkpt lat="43.16809" lon="6.48436">
        <ele>194.2</ele>
        <time>2024-02-04T10:18:18Z</time>
      </trkpt>
      <trkpt lat="43.1681" lon="6.48435">
        <ele>194</ele>
        <time>2024-02-04T10:18:19Z</time>
      </trkpt>
      <trkpt lat="43.16811" lon="6.48435">
        <ele>194</ele>
        <time>2024-02-04T10:18:20Z</time>
      </trkpt>
      <trkpt lat="43.16812" lon="6.48434">
        <ele>194</ele>
        <time>2024-02-04T10:18:21Z</time>
      </trkpt>
      <trkpt lat="43.16813" lon="6.48433">
        <ele>194</ele>
        <time>2024-02-04T10:18:22Z</time>
      </trkpt>
      <trkpt lat="43.16814" lon="6.48432">
        <ele>194.1</ele>
        <time>2024-02-04T10:18:23Z</time>
      </trkpt>
      <trkpt lat="43.16814" lon="6.48433">
        <ele>194.2</ele>
        <time>2024-02-04T10:18:24Z</time>
      </trkpt>
      <trkpt lat="43.16814" lon="6.48433">
        <ele>194.3</ele>
        <time>2024-02-04T10:18:25Z</time>
      </trkpt>
      <trkpt lat="43.16815" lon="6.48433">
        <ele>194.4</ele>
        <time>2024-02-04T10:18:26Z</time>
      </trkpt>
      <trkpt lat="43.16816" lon="6.48432">
        <ele>194.4</ele>
        <time>2024-02-04T10:18:27Z</time>
      </trkpt>
      <trkpt lat="43.16817" lon="6.48431">
        <ele>194.5</ele>
        <time>2024-02-04T10:18:28Z</time>
      </trkpt>
      <trkpt lat="43.16818" lon="6.48431">
        <ele>194.6</ele>
        <time>2024-02-04T10:18:29Z</time>
      </trkpt>
      <trkpt lat="43.16819" lon="6.48431">
        <ele>194.7</ele>
        <time>2024-02-04T10:18:30Z</time>
      </trkpt>
      <trkpt lat="43.1682" lon="6.48431">
        <ele>194.7</ele>
        <time>2024-02-04T10:18:31Z</time>
      </trkpt>
      <trkpt lat="43.16821" lon="6.48431">
        <ele>194.7</ele>
        <time>2024-02-04T10:18:32Z</time>
      </trkpt>
      <trkpt lat="43.16823" lon="6.4843">
        <ele>194.6</ele>
        <time>2024-02-04T10:18:33Z</time>
      </trkpt>
      <trkpt lat="43.16824" lon="6.4843">
        <ele>194.5</ele>
        <time>2024-02-04T10:18:34Z</time>
      </trkpt>
      <trkpt lat="43.16825" lon="6.48429">
        <ele>194.5</ele>
        <time>2024-02-04T10:18:35Z</time>
      </trkpt>
      <trkpt lat="43.16826" lon="6.4843">
        <ele>194.5</ele>
        <time>2024-02-04T10:18:36Z</time>
      </trkpt>
      <trkpt lat="43.16827" lon="6.48429">
        <ele>194.6</ele>
        <time>2024-02-04T10:18:37Z</time>
      </trkpt>
      <trkpt lat="43.16828" lon="6.48429">
        <ele>194.6</ele>
        <time>2024-02-04T10:18:38Z</time>
      </trkpt>
      <trkpt lat="43.16829" lon="6.4843">
        <ele>194.6</ele>
        <time>2024-02-04T10:18:39Z</time>
      </trkpt>
      <trkpt lat="43.1683" lon="6.4843">
        <ele>194.6</ele>
        <time>2024-02-04T10:18:40Z</time>
      </trkpt>
      <trkpt lat="43.16831" lon="6.48429">
        <ele>194.6</ele>
        <time>2024-02-04T10:18:41Z</time>
      </trkpt>
      <trkpt lat="43.16832" lon="6.48428">
        <ele>194.6</ele>
        <time>2024-02-04T10:18:42Z</time>
      </trkpt>
      <trkpt lat="43.16833" lon="6.48427">
        <ele>194.7</ele>
        <time>2024-02-04T10:18:43Z</time>
      </trkpt>
      <trkpt lat="43.16834" lon="6.48426">
        <ele>194.7</ele>
        <time>2024-02-04T10:18:44Z</time>
      </trkpt>
      <trkpt lat="43.16834" lon="6.48426">
        <ele>194.7</ele>
        <time>2024-02-04T10:18:45Z</time>
      </trkpt>
      <trkpt lat="43.16835" lon="6.48425">
        <ele>194.7</ele>
        <time>2024-02-04T10:18:46Z</time>
      </trkpt>
      <trkpt lat="43.16836" lon="6.48425">
        <ele>194.8</ele>
        <time>2024-02-04T10:18:47Z</time>
      </trkpt>
      <trkpt lat="43.16837" lon="6.48426">
        <ele>194.8</ele>
        <time>2024-02-04T10:18:48Z</time>
      </trkpt>
      <trkpt lat="43.16837" lon="6.48425">
        <ele>194.9</ele>
        <time>2024-02-04T10:18:49Z</time>
      </trkpt>
      <trkpt lat="43.16838" lon="6.48425">
        <ele>194.9</ele>
        <time>2024-02-04T10:18:50Z</time>
      </trkpt>
      <trkpt lat="43.16838" lon="6.48425">
        <ele>194.9</ele>
        <time>2024-02-04T10:18:51Z</time>
      </trkpt>
      <trkpt lat="43.16839" lon="6.48424">
        <ele>194.9</ele>
        <time>2024-02-04T10:18:52Z</time>
      </trkpt>
      <trkpt lat="43.16839" lon="6.48424">
        <ele>195</ele>
        <time>2024-02-04T10:18:53Z</time>
      </trkpt>
      <trkpt lat="43.1684" lon="6.48423">
        <ele>195.1</ele>
        <time>2024-02-04T10:18:54Z</time>
      </trkpt>
      <trkpt lat="43.16841" lon="6.48424">
        <ele>195.1</ele>
        <time>2024-02-04T10:18:55Z</time>
      </trkpt>
      <trkpt lat="43.16841" lon="6.48424">
        <ele>195.3</ele>
        <time>2024-02-04T10:18:56Z</time>
      </trkpt>
      <trkpt lat="43.16842" lon="6.48423">
        <ele>195.4</ele>
        <time>2024-02-04T10:18:57Z</time>
      </trkpt>
      <trkpt lat="43.16842" lon="6.48422">
        <ele>195.6</ele>
        <time>2024-02-04T10:18:58Z</time>
      </trkpt>
      <trkpt lat="43.16842" lon="6.48422">
        <ele>195.7</ele>
        <time>2024-02-04T10:18:59Z</time>
      </trkpt>
      <trkpt lat="43.16842" lon="6.48422">
        <ele>195.7</ele>
        <time>2024-02-04T10:19:00Z</time>
      </trkpt>
      <trkpt lat="43.16842" lon="6.48422">
        <ele>195.8</ele>
        <time>2024-02-04T10:19:01Z</time>
      </trkpt>
      <trkpt lat="43.16843" lon="6.48422">
        <ele>195.8</ele>
        <time>2024-02-04T10:19:02Z</time>
      </trkpt>
      <trkpt lat="43.16843" lon="6.48422">
        <ele>195.8</ele>
        <time>2024-02-04T10:19:03Z</time>
      </trkpt>
      <trkpt lat="43.16843" lon="6.48422">
        <ele>195.8</ele>
        <time>2024-02-04T10:19:04Z</time>
      </trkpt>
      <trkpt lat="43.16843" lon="6.48422">
        <ele>195.8</ele>
        <time>2024-02-04T10:19:05Z</time>
      </trkpt>
      <trkpt lat="43.16843" lon="6.48421">
        <ele>195.7</ele>
        <time>2024-02-04T10:19:06Z</time>
      </trkpt>
      <trkpt lat="43.16843" lon="6.48421">
        <ele>195.7</ele>
        <time>2024-02-04T10:19:07Z</time>
      </trkpt>
      <trkpt lat="43.16843" lon="6.48421">
        <ele>195.7</ele>
        <time>2024-02-04T10:19:08Z</time>
      </trkpt>
      <trkpt lat="43.16843" lon="6.48421">
        <ele>195.7</ele>
        <time>2024-02-04T10:19:09Z</time>
      </trkpt>
      <trkpt lat="43.16843" lon="6.48421">
        <ele>195.7</ele>
        <time>2024-02-04T10:19:10Z</time>
      </trkpt>
      <trkpt lat="43.16843" lon="6.48421">
        <ele>195.7</ele>
        <time>2024-02-04T10:19:11Z</time>
      </trkpt>
      <trkpt lat="43.16843" lon="6.48421">
        <ele>195.7</ele>
        <time>2024-02-04T10:19:12Z</time>
      </trkpt>
      <trkpt lat="43.16843" lon="6.48421">
        <ele>195.8</ele>
        <time>2024-02-04T10:19:13Z</time>
      </trkpt>
      <trkpt lat="43.16843" lon="6.48421">
        <ele>195.8</ele>
        <time>2024-02-04T10:19:14Z</time>
      </trkpt>
      <trkpt lat="43.16843" lon="6.48421">
        <ele>195.8</ele>
        <time>2024-02-04T10:19:15Z</time>
      </trkpt>
      <trkpt lat="43.16844" lon="6.48421">
        <ele>195.7</ele>
        <time>2024-02-04T10:19:16Z</time>
      </trkpt>
      <trkpt lat="43.16844" lon="6.48421">
        <ele>195.6</ele>
        <time>2024-02-04T10:19:17Z</time>
      </trkpt>
      <trkpt lat="43.16844" lon="6.48421">
        <ele>195.6</ele>
        <time>2024-02-04T10:19:18Z</time>
      </trkpt>
      <trkpt lat="43.16845" lon="6.48421">
        <ele>195.6</ele>
        <time>2024-02-04T10:19:19Z</time>
      </trkpt>
      <trkpt lat="43.16845" lon="6.48421">
        <ele>195.6</ele>
        <time>2024-02-04T10:19:20Z</time>
      </trkpt>
      <trkpt lat="43.16845" lon="6.48421">
        <ele>195.6</ele>
        <time>2024-02-04T10:19:21Z</time>
      </trkpt>
      <trkpt lat="43.16846" lon="6.48421">
        <ele>195.6</ele>
        <time>2024-02-04T10:19:22Z</time>
      </trkpt>
      <trkpt lat="43.16847" lon="6.48422">
        <ele>195.5</ele>
        <time>2024-02-04T10:19:23Z</time>
      </trkpt>
      <trkpt lat="43.16847" lon="6.48422">
        <ele>195.5</ele>
        <time>2024-02-04T10:19:24Z</time>
      </trkpt>
      <trkpt lat="43.16848" lon="6.48422">
        <ele>195.5</ele>
        <time>2024-02-04T10:19:25Z</time>
      </trkpt>
      <trkpt lat="43.16849" lon="6.48422">
        <ele>195.5</ele>
        <time>2024-02-04T10:19:26Z</time>
      </trkpt>
      <trkpt lat="43.16849" lon="6.48423">
        <ele>195.5</ele>
        <time>2024-02-04T10:19:27Z</time>
      </trkpt>
      <trkpt lat="43.1685" lon="6.48424">
        <ele>195.5</ele>
        <time>2024-02-04T10:19:28Z</time>
      </trkpt>
      <trkpt lat="43.16851" lon="6.48424">
        <ele>195.6</ele>
        <time>2024-02-04T10:19:29Z</time>
      </trkpt>
      <trkpt lat="43.16851" lon="6.48424">
        <ele>195.6</ele>
        <time>2024-02-04T10:19:30Z</time>
      </trkpt>
      <trkpt lat="43.16852" lon="6.48424">
        <ele>195.6</ele>
        <time>2024-02-04T10:19:31Z</time>
      </trkpt>
      <trkpt lat="43.16853" lon="6.48425">
        <ele>195.5</ele>
        <time>2024-02-04T10:19:32Z</time>
      </trkpt>
      <trkpt lat="43.16853" lon="6.48425">
        <ele>195.4</ele>
        <time>2024-02-04T10:19:33Z</time>
      </trkpt>
      <trkpt lat="43.16854" lon="6.48425">
        <ele>195.4</ele>
        <time>2024-02-04T10:19:34Z</time>
      </trkpt>
      <trkpt lat="43.16854" lon="6.48425">
        <ele>195.3</ele>
        <time>2024-02-04T10:19:35Z</time>
      </trkpt>
      <trkpt lat="43.16855" lon="6.48425">
        <ele>195.2</ele>
        <time>2024-02-04T10:19:36Z</time>
      </trkpt>
      <trkpt lat="43.16856" lon="6.48426">
        <ele>195.2</ele>
        <time>2024-02-04T10:19:37Z</time>
      </trkpt>
      <trkpt lat="43.16858" lon="6.48426">
        <ele>195.1</ele>
        <time>2024-02-04T10:19:38Z</time>
      </trkpt>
      <trkpt lat="43.16859" lon="6.48427">
        <ele>195.1</ele>
        <time>2024-02-04T10:19:39Z</time>
      </trkpt>
      <trkpt lat="43.16859" lon="6.48427">
        <ele>195.1</ele>
        <time>2024-02-04T10:19:40Z</time>
      </trkpt>
      <trkpt lat="43.1686" lon="6.48428">
        <ele>195</ele>
        <time>2024-02-04T10:19:41Z</time>
      </trkpt>
      <trkpt lat="43.1686" lon="6.48428">
        <ele>195</ele>
        <time>2024-02-04T10:19:42Z</time>
      </trkpt>
      <trkpt lat="43.1686" lon="6.48428">
        <ele>194.9</ele>
        <time>2024-02-04T10:19:43Z</time>
      </trkpt>
      <trkpt lat="43.16861" lon="6.48429">
        <ele>194.8</ele>
        <time>2024-02-04T10:19:44Z</time>
      </trkpt>
      <trkpt lat="43.16861" lon="6.4843">
        <ele>194.8</ele>
        <time>2024-02-04T10:19:45Z</time>
      </trkpt>
      <trkpt lat="43.16861" lon="6.48431">
        <ele>194.7</ele>
        <time>2024-02-04T10:19:46Z</time>
      </trkpt>
      <trkpt lat="43.16861" lon="6.48431">
        <ele>194.6</ele>
        <time>2024-02-04T10:19:47Z</time>
      </trkpt>
      <trkpt lat="43.16861" lon="6.48431">
        <ele>194.6</ele>
        <time>2024-02-04T10:19:48Z</time>
      </trkpt>
      <trkpt lat="43.16861" lon="6.48431">
        <ele>194.5</ele>
        <time>2024-02-04T10:19:49Z</time>
      </trkpt>
      <trkpt lat="43.16861" lon="6.48431">
        <ele>194.4</ele>
        <time>2024-02-04T10:19:50Z</time>
      </trkpt>
      <trkpt lat="43.1686" lon="6.48431">
        <ele>194.3</ele>
        <time>2024-02-04T10:19:51Z</time>
      </trkpt>
      <trkpt lat="43.1686" lon="6.48431">
        <ele>194.2</ele>
        <time>2024-02-04T10:19:52Z</time>
      </trkpt>
      <trkpt lat="43.1686" lon="6.48432">
        <ele>194.2</ele>
        <time>2024-02-04T10:19:53Z</time>
      </trkpt>
      <trkpt lat="43.1686" lon="6.48432">
        <ele>194.1</ele>
        <time>2024-02-04T10:19:54Z</time>
      </trkpt>
      <trkpt lat="43.1686" lon="6.48432">
        <ele>194.1</ele>
        <time>2024-02-04T10:19:55Z</time>
      </trkpt>
      <trkpt lat="43.1686" lon="6.48432">
        <ele>194</ele>
        <time>2024-02-04T10:19:56Z</time>
      </trkpt>
      <trkpt lat="43.1686" lon="6.48432">
        <ele>194</ele>
        <time>2024-02-04T10:19:57Z</time>
      </trkpt>
      <trkpt lat="43.1686" lon="6.48432">
        <ele>194</ele>
        <time>2024-02-04T10:19:58Z</time>
      </trkpt>
      <trkpt lat="43.1686" lon="6.48432">
        <ele>194</ele>
        <time>2024-02-04T10:19:59Z</time>
      </trkpt>
      <trkpt lat="43.1686" lon="6.48432">
        <ele>193.9</ele>
        <time>2024-02-04T10:20:00Z</time>
      </trkpt>
      <trkpt lat="43.1686" lon="6.48432">
        <ele>193.8</ele>
        <time>2024-02-04T10:20:01Z</time>
      </trkpt>
      <trkpt lat="43.1686" lon="6.48432">
        <ele>193.7</ele>
        <time>2024-02-04T10:20:02Z</time>
      </trkpt>
      <trkpt lat="43.1686" lon="6.48431">
        <ele>193.6</ele>
        <time>2024-02-04T10:20:03Z</time>
      </trkpt>
      <trkpt lat="43.1686" lon="6.48431">
        <ele>193.6</ele>
        <time>2024-02-04T10:20:04Z</time>
      </trkpt>
      <trkpt lat="43.1686" lon="6.48431">
        <ele>193.5</ele>
        <time>2024-02-04T10:20:05Z</time>
      </trkpt>
      <trkpt lat="43.1686" lon="6.48431">
        <ele>193.4</ele>
        <time>2024-02-04T10:20:06Z</time>
      </trkpt>
      <trkpt lat="43.1686" lon="6.48431">
        <ele>193.3</ele>
        <time>2024-02-04T10:20:07Z</time>
      </trkpt>
      <trkpt lat="43.16861" lon="6.48431">
        <ele>193.2</ele>
        <time>2024-02-04T10:20:08Z</time>
      </trkpt>
      <trkpt lat="43.16861" lon="6.48431">
        <ele>193.1</ele>
        <time>2024-02-04T10:20:09Z</time>
      </trkpt>
      <trkpt lat="43.16862" lon="6.48432">
        <ele>193.1</ele>
        <time>2024-02-04T10:20:10Z</time>
      </trkpt>
      <trkpt lat="43.16862" lon="6.48432">
        <ele>193</ele>
        <time>2024-02-04T10:20:11Z</time>
      </trkpt>
      <trkpt lat="43.16862" lon="6.48432">
        <ele>193</ele>
        <time>2024-02-04T10:20:12Z</time>
      </trkpt>
      <trkpt lat="43.16862" lon="6.48431">
        <ele>192.8</ele>
        <time>2024-02-04T10:20:13Z</time>
      </trkpt>
      <trkpt lat="43.16862" lon="6.48431">
        <ele>192.9</ele>
        <time>2024-02-04T10:20:14Z</time>
      </trkpt>
      <trkpt lat="43.16862" lon="6.48431">
        <ele>192.8</ele>
        <time>2024-02-04T10:20:15Z</time>
      </trkpt>
      <trkpt lat="43.16862" lon="6.48431">
        <ele>192.8</ele>
        <time>2024-02-04T10:20:16Z</time>
      </trkpt>
      <trkpt lat="43.16862" lon="6.48432">
        <ele>192.8</ele>
        <time>2024-02-04T10:20:17Z</time>
      </trkpt>
      <trkpt lat="43.16862" lon="6.48432">
        <ele>192.8</ele>
        <time>2024-02-04T10:20:18Z</time>
      </trkpt>
      <trkpt lat="43.16862" lon="6.48432">
        <ele>192.7</ele>
        <time>2024-02-04T10:20:19Z</time>
      </trkpt>
      <trkpt lat="43.16862" lon="6.48432">
        <ele>192.7</ele>
        <time>2024-02-04T10:20:20Z</time>
      </trkpt>
      <trkpt lat="43.16862" lon="6.48432">
        <ele>192.6</ele>
        <time>2024-02-04T10:20:21Z</time>
      </trkpt>
      <trkpt lat="43.16862" lon="6.48433">
        <ele>192.7</ele>
        <time>2024-02-04T10:20:22Z</time>
      </trkpt>
      <trkpt lat="43.16862" lon="6.48433">
        <ele>192.7</ele>
        <time>2024-02-04T10:20:23Z</time>
      </trkpt>
      <trkpt lat="43.16862" lon="6.48434">
        <ele>192.6</ele>
        <time>2024-02-04T10:20:24Z</time>
      </trkpt>
      <trkpt lat="43.16862" lon="6.48434">
        <ele>192.4</ele>
        <time>2024-02-04T10:20:25Z</time>
      </trkpt>
      <trkpt lat="43.16862" lon="6.48435">
        <ele>192.2</ele>
        <time>2024-02-04T10:20:26Z</time>
      </trkpt>
      <trkpt lat="43.16862" lon="6.48436">
        <ele>191.9</ele>
        <time>2024-02-04T10:20:27Z</time>
      </trkpt>
      <trkpt lat="43.16863" lon="6.48436">
        <ele>191.8</ele>
        <time>2024-02-04T10:20:28Z</time>
      </trkpt>
      <trkpt lat="43.16864" lon="6.48437">
        <ele>191.3</ele>
        <time>2024-02-04T10:20:29Z</time>
      </trkpt>
      <trkpt lat="43.16864" lon="6.48438">
        <ele>190.9</ele>
        <time>2024-02-04T10:20:30Z</time>
      </trkpt>
      <trkpt lat="43.16865" lon="6.48438">
        <ele>190.6</ele>
        <time>2024-02-04T10:20:31Z</time>
      </trkpt>
      <trkpt lat="43.16866" lon="6.48439">
        <ele>190.3</ele>
        <time>2024-02-04T10:20:32Z</time>
      </trkpt>
      <trkpt lat="43.16866" lon="6.48438">
        <ele>190.1</ele>
        <time>2024-02-04T10:20:33Z</time>
      </trkpt>
      <trkpt lat="43.16867" lon="6.48438">
        <ele>189.8</ele>
        <time>2024-02-04T10:20:34Z</time>
      </trkpt>
      <trkpt lat="43.16867" lon="6.48438">
        <ele>189.6</ele>
        <time>2024-02-04T10:20:35Z</time>
      </trkpt>
      <trkpt lat="43.16869" lon="6.48437">
        <ele>189.4</ele>
        <time>2024-02-04T10:20:36Z</time>
      </trkpt>
      <trkpt lat="43.1687" lon="6.48437">
        <ele>189.2</ele>
        <time>2024-02-04T10:20:37Z</time>
      </trkpt>
      <trkpt lat="43.16871" lon="6.48436">
        <ele>189</ele>
        <time>2024-02-04T10:20:38Z</time>
      </trkpt>
      <trkpt lat="43.16871" lon="6.48436">
        <ele>188.8</ele>
        <time>2024-02-04T10:20:39Z</time>
      </trkpt>
      <trkpt lat="43.16872" lon="6.48436">
        <ele>188.6</ele>
        <time>2024-02-04T10:20:40Z</time>
      </trkpt>
      <trkpt lat="43.16873" lon="6.48436">
        <ele>188.5</ele>
        <time>2024-02-04T10:20:41Z</time>
      </trkpt>
      <trkpt lat="43.16873" lon="6.48436">
        <ele>188.4</ele>
        <time>2024-02-04T10:20:42Z</time>
      </trkpt>
      <trkpt lat="43.16873" lon="6.48437">
        <ele>188.3</ele>
        <time>2024-02-04T10:20:43Z</time>
      </trkpt>
      <trkpt lat="43.16873" lon="6.48438">
        <ele>188.2</ele>
        <time>2024-02-04T10:20:44Z</time>
      </trkpt>
      <trkpt lat="43.16874" lon="6.48439">
        <ele>188.1</ele>
        <time>2024-02-04T10:20:45Z</time>
      </trkpt>
      <trkpt lat="43.16874" lon="6.4844">
        <ele>188</ele>
        <time>2024-02-04T10:20:46Z</time>
      </trkpt>
      <trkpt lat="43.16874" lon="6.48441">
        <ele>187.8</ele>
        <time>2024-02-04T10:20:47Z</time>
      </trkpt>
      <trkpt lat="43.16873" lon="6.48442">
        <ele>187.6</ele>
        <time>2024-02-04T10:20:48Z</time>
      </trkpt>
      <trkpt lat="43.16873" lon="6.48443">
        <ele>187.4</ele>
        <time>2024-02-04T10:20:49Z</time>
      </trkpt>
      <trkpt lat="43.16872" lon="6.48445">
        <ele>187.2</ele>
        <time>2024-02-04T10:20:50Z</time>
      </trkpt>
      <trkpt lat="43.16871" lon="6.48447">
        <ele>187.1</ele>
        <time>2024-02-04T10:20:51Z</time>
      </trkpt>
      <trkpt lat="43.16871" lon="6.48447">
        <ele>187</ele>
        <time>2024-02-04T10:20:52Z</time>
      </trkpt>
      <trkpt lat="43.16871" lon="6.48448">
        <ele>186.9</ele>
        <time>2024-02-04T10:20:53Z</time>
      </trkpt>
      <trkpt lat="43.1687" lon="6.48448">
        <ele>186.7</ele>
        <time>2024-02-04T10:20:54Z</time>
      </trkpt>
      <trkpt lat="43.1687" lon="6.48447">
        <ele>186.6</ele>
        <time>2024-02-04T10:20:55Z</time>
      </trkpt>
      <trkpt lat="43.1687" lon="6.48447">
        <ele>186.5</ele>
        <time>2024-02-04T10:20:56Z</time>
      </trkpt>
      <trkpt lat="43.16871" lon="6.48447">
        <ele>186.4</ele>
        <time>2024-02-04T10:20:57Z</time>
      </trkpt>
      <trkpt lat="43.16871" lon="6.48447">
        <ele>186.3</ele>
        <time>2024-02-04T10:20:58Z</time>
      </trkpt>
      <trkpt lat="43.16871" lon="6.48448">
        <ele>186.1</ele>
        <time>2024-02-04T10:20:59Z</time>
      </trkpt>
      <trkpt lat="43.16871" lon="6.48448">
        <ele>186</ele>
        <time>2024-02-04T10:21:00Z</time>
      </trkpt>
      <trkpt lat="43.16871" lon="6.48448">
        <ele>185.9</ele>
        <time>2024-02-04T10:21:01Z</time>
      </trkpt>
      <trkpt lat="43.16871" lon="6.48448">
        <ele>185.8</ele>
        <time>2024-02-04T10:21:02Z</time>
      </trkpt>
      <trkpt lat="43.16871" lon="6.48448">
        <ele>185.8</ele>
        <time>2024-02-04T10:21:03Z</time>
      </trkpt>
      <trkpt lat="43.16871" lon="6.48448">
        <ele>185.8</ele>
        <time>2024-02-04T10:21:04Z</time>
      </trkpt>
      <trkpt lat="43.16871" lon="6.48448">
        <ele>185.8</ele>
        <time>2024-02-04T10:21:05Z</time>
      </trkpt>
      <trkpt lat="43.16871" lon="6.48448">
        <ele>185.8</ele>
        <time>2024-02-04T10:21:06Z</time>
      </trkpt>
      <trkpt lat="43.16871" lon="6.48448">
        <ele>185.8</ele>
        <time>2024-02-04T10:21:07Z</time>
      </trkpt>
      <trkpt lat="43.16871" lon="6.48448">
        <ele>185.7</ele>
        <time>2024-02-04T10:21:08Z</time>
      </trkpt>
      <trkpt lat="43.16871" lon="6.48448">
        <ele>185.6</ele>
        <time>2024-02-04T10:21:09Z</time>
      </trkpt>
      <trkpt lat="43.1687" lon="6.48448">
        <ele>185.6</ele>
        <time>2024-02-04T10:21:10Z</time>
      </trkpt>
      <trkpt lat="43.1687" lon="6.48448">
        <ele>185.6</ele>
        <time>2024-02-04T10:21:11Z</time>
      </trkpt>
      <trkpt lat="43.1687" lon="6.48448">
        <ele>185.5</ele>
        <time>2024-02-04T10:21:12Z</time>
      </trkpt>
      <trkpt lat="43.1687" lon="6.48448">
        <ele>185.5</ele>
        <time>2024-02-04T10:21:13Z</time>
      </trkpt>
      <trkpt lat="43.1687" lon="6.48448">
        <ele>185.4</ele>
        <time>2024-02-04T10:21:14Z</time>
      </trkpt>
      <trkpt lat="43.1687" lon="6.48448">
        <ele>185.4</ele>
        <time>2024-02-04T10:21:15Z</time>
      </trkpt>
      <trkpt lat="43.1687" lon="6.48448">
        <ele>185.4</ele>
        <time>2024-02-04T10:21:16Z</time>
      </trkpt>
      <trkpt lat="43.1687" lon="6.48448">
        <ele>185.3</ele>
        <time>2024-02-04T10:21:17Z</time>
      </trkpt>
      <trkpt lat="43.1687" lon="6.48448">
        <ele>185.3</ele>
        <time>2024-02-04T10:21:18Z</time>
      </trkpt>
      <trkpt lat="43.1687" lon="6.48448">
        <ele>185.3</ele>
        <time>2024-02-04T10:21:19Z</time>
      </trkpt>
      <trkpt lat="43.1687" lon="6.48448">
        <ele>185.3</ele>
        <time>2024-02-04T10:21:20Z</time>
      </trkpt>
      <trkpt lat="43.1687" lon="6.48448">
        <ele>185.2</ele>
        <time>2024-02-04T10:21:21Z</time>
      </trkpt>
      <trkpt lat="43.1687" lon="6.48447">
        <ele>185.1</ele>
        <time>2024-02-04T10:21:22Z</time>
      </trkpt>
      <trkpt lat="43.1687" lon="6.48447">
        <ele>185.1</ele>
        <time>2024-02-04T10:21:23Z</time>
      </trkpt>
      <trkpt lat="43.1687" lon="6.48447">
        <ele>185.1</ele>
        <time>2024-02-04T10:21:24Z</time>
      </trkpt>
      <trkpt lat="43.1687" lon="6.48447">
        <ele>185.1</ele>
        <time>2024-02-04T10:21:25Z</time>
      </trkpt>
      <trkpt lat="43.1687" lon="6.48447">
        <ele>185</ele>
        <time>2024-02-04T10:21:26Z</time>
      </trkpt>
      <trkpt lat="43.1687" lon="6.48447">
        <ele>185</ele>
        <time>2024-02-04T10:21:27Z</time>
      </trkpt>
      <trkpt lat="43.1687" lon="6.48447">
        <ele>185</ele>
        <time>2024-02-04T10:21:28Z</time>
      </trkpt>
      <trkpt lat="43.1687" lon="6.48447">
        <ele>185</ele>
        <time>2024-02-04T10:21:29Z</time>
      </trkpt>
      <trkpt lat="43.1687" lon="6.48447">
        <ele>185</ele>
        <time>2024-02-04T10:21:30Z</time>
      </trkpt>
      <trkpt lat="43.16869" lon="6.48448">
        <ele>185</ele>
        <time>2024-02-04T10:21:31Z</time>
      </trkpt>
      <trkpt lat="43.16869" lon="6.4845">
        <ele>185</ele>
        <time>2024-02-04T10:21:32Z</time>
      </trkpt>
      <trkpt lat="43.16869" lon="6.48451">
        <ele>184.9</ele>
        <time>2024-02-04T10:21:33Z</time>
      </trkpt>
      <trkpt lat="43.16868" lon="6.48452">
        <ele>184.7</ele>
        <time>2024-02-04T10:21:34Z</time>
      </trkpt>
      <trkpt lat="43.16867" lon="6.48452">
        <ele>184.7</ele>
        <time>2024-02-04T10:21:35Z</time>
      </trkpt>
      <trkpt lat="43.16867" lon="6.48453">
        <ele>184.6</ele>
        <time>2024-02-04T10:21:36Z</time>
      </trkpt>
      <trkpt lat="43.16866" lon="6.48453">
        <ele>184.5</ele>
        <time>2024-02-04T10:21:37Z</time>
      </trkpt>
      <trkpt lat="43.16866" lon="6.48453">
        <ele>184.5</ele>
        <time>2024-02-04T10:21:38Z</time>
      </trkpt>
      <trkpt lat="43.16866" lon="6.48453">
        <ele>184.4</ele>
        <time>2024-02-04T10:21:39Z</time>
      </trkpt>
      <trkpt lat="43.16866" lon="6.48454">
        <ele>184.2</ele>
        <time>2024-02-04T10:21:40Z</time>
      </trkpt>
      <trkpt lat="43.16865" lon="6.48454">
        <ele>184</ele>
        <time>2024-02-04T10:21:41Z</time>
      </trkpt>
      <trkpt lat="43.16865" lon="6.48454">
        <ele>183.8</ele>
        <time>2024-02-04T10:21:42Z</time>
      </trkpt>
      <trkpt lat="43.16866" lon="6.48454">
        <ele>183.8</ele>
        <time>2024-02-04T10:21:43Z</time>
      </trkpt>
      <trkpt lat="43.16866" lon="6.48454">
        <ele>183.8</ele>
        <time>2024-02-04T10:21:44Z</time>
      </trkpt>
      <trkpt lat="43.16867" lon="6.48455">
        <ele>183.7</ele>
        <time>2024-02-04T10:21:45Z</time>
      </trkpt>
      <trkpt lat="43.16867" lon="6.48455">
        <ele>183.7</ele>
        <time>2024-02-04T10:21:46Z</time>
      </trkpt>
      <trkpt lat="43.16868" lon="6.48455">
        <ele>183.7</ele>
        <time>2024-02-04T10:21:47Z</time>
      </trkpt>
      <trkpt lat="43.16869" lon="6.48454">
        <ele>183.6</ele>
        <time>2024-02-04T10:21:48Z</time>
      </trkpt>
      <trkpt lat="43.1687" lon="6.48453">
        <ele>183.6</ele>
        <time>2024-02-04T10:21:49Z</time>
      </trkpt>
      <trkpt lat="43.1687" lon="6.48453">
        <ele>183.8</ele>
        <time>2024-02-04T10:21:50Z</time>
      </trkpt>
      <trkpt lat="43.1687" lon="6.48454">
        <ele>183.9</ele>
        <time>2024-02-04T10:21:51Z</time>
      </trkpt>
      <trkpt lat="43.16871" lon="6.48455">
        <ele>184.1</ele>
        <time>2024-02-04T10:21:52Z</time>
      </trkpt>
      <trkpt lat="43.16871" lon="6.48455">
        <ele>184.3</ele>
        <time>2024-02-04T10:21:53Z</time>
      </trkpt>
      <trkpt lat="43.16872" lon="6.48455">
        <ele>184.5</ele>
        <time>2024-02-04T10:21:54Z</time>
      </trkpt>
      <trkpt lat="43.16873" lon="6.48454">
        <ele>184.6</ele>
        <time>2024-02-04T10:21:55Z</time>
      </trkpt>
      <trkpt lat="43.16873" lon="6.48454">
        <ele>184.9</ele>
        <time>2024-02-04T10:21:56Z</time>
      </trkpt>
      <trkpt lat="43.16873" lon="6.48453">
        <ele>185.1</ele>
        <time>2024-02-04T10:21:57Z</time>
      </trkpt>
      <trkpt lat="43.16873" lon="6.48452">
        <ele>185.2</ele>
        <time>2024-02-04T10:21:58Z</time>
      </trkpt>
      <trkpt lat="43.16874" lon="6.48452">
        <ele>185.4</ele>
        <time>2024-02-04T10:21:59Z</time>
      </trkpt>
      <trkpt lat="43.16874" lon="6.48451">
        <ele>185.4</ele>
        <time>2024-02-04T10:22:00Z</time>
      </trkpt>
      <trkpt lat="43.16875" lon="6.48451">
        <ele>185.4</ele>
        <time>2024-02-04T10:22:01Z</time>
      </trkpt>
      <trkpt lat="43.16875" lon="6.48452">
        <ele>185.4</ele>
        <time>2024-02-04T10:22:02Z</time>
      </trkpt>
      <trkpt lat="43.16875" lon="6.48451">
        <ele>185.5</ele>
        <time>2024-02-04T10:22:03Z</time>
      </trkpt>
      <trkpt lat="43.16875" lon="6.48451">
        <ele>185.5</ele>
        <time>2024-02-04T10:22:04Z</time>
      </trkpt>
      <trkpt lat="43.16875" lon="6.48452">
        <ele>185.5</ele>
        <time>2024-02-04T10:22:05Z</time>
      </trkpt>
      <trkpt lat="43.16875" lon="6.48452">
        <ele>185.6</ele>
        <time>2024-02-04T10:22:06Z</time>
      </trkpt>
      <trkpt lat="43.16876" lon="6.48454">
        <ele>185.7</ele>
        <time>2024-02-04T10:22:07Z</time>
      </trkpt>
      <trkpt lat="43.16876" lon="6.48455">
        <ele>185.8</ele>
        <time>2024-02-04T10:22:08Z</time>
      </trkpt>
      <trkpt lat="43.16877" lon="6.48456">
        <ele>186</ele>
        <time>2024-02-04T10:22:09Z</time>
      </trkpt>
      <trkpt lat="43.16877" lon="6.48456">
        <ele>186.2</ele>
        <time>2024-02-04T10:22:10Z</time>
      </trkpt>
      <trkpt lat="43.16877" lon="6.48456">
        <ele>186.3</ele>
        <time>2024-02-04T10:22:11Z</time>
      </trkpt>
      <trkpt lat="43.16878" lon="6.48456">
        <ele>186.6</ele>
        <time>2024-02-04T10:22:12Z</time>
      </trkpt>
      <trkpt lat="43.16879" lon="6.48456">
        <ele>186.8</ele>
        <time>2024-02-04T10:22:13Z</time>
      </trkpt>
      <trkpt lat="43.1688" lon="6.48456">
        <ele>187</ele>
        <time>2024-02-04T10:22:14Z</time>
      </trkpt>
      <trkpt lat="43.16881" lon="6.48456">
        <ele>187.3</ele>
        <time>2024-02-04T10:22:15Z</time>
      </trkpt>
      <trkpt lat="43.16882" lon="6.48456">
        <ele>187.5</ele>
        <time>2024-02-04T10:22:16Z</time>
      </trkpt>
      <trkpt lat="43.16883" lon="6.48456">
        <ele>187.6</ele>
        <time>2024-02-04T10:22:17Z</time>
      </trkpt>
      <trkpt lat="43.16883" lon="6.48456">
        <ele>187.8</ele>
        <time>2024-02-04T10:22:18Z</time>
      </trkpt>
      <trkpt lat="43.16884" lon="6.48456">
        <ele>188.1</ele>
        <time>2024-02-04T10:22:19Z</time>
      </trkpt>
      <trkpt lat="43.16885" lon="6.48456">
        <ele>188.2</ele>
        <time>2024-02-04T10:22:20Z</time>
      </trkpt>
      <trkpt lat="43.16886" lon="6.48456">
        <ele>188.4</ele>
        <time>2024-02-04T10:22:21Z</time>
      </trkpt>
      <trkpt lat="43.16886" lon="6.48456">
        <ele>188.6</ele>
        <time>2024-02-04T10:22:22Z</time>
      </trkpt>
      <trkpt lat="43.16887" lon="6.48456">
        <ele>188.9</ele>
        <time>2024-02-04T10:22:23Z</time>
      </trkpt>
      <trkpt lat="43.16888" lon="6.48456">
        <ele>189.1</ele>
        <time>2024-02-04T10:22:24Z</time>
      </trkpt>
      <trkpt lat="43.16889" lon="6.48457">
        <ele>189.4</ele>
        <time>2024-02-04T10:22:25Z</time>
      </trkpt>
      <trkpt lat="43.1689" lon="6.48457">
        <ele>189.6</ele>
        <time>2024-02-04T10:22:26Z</time>
      </trkpt>
      <trkpt lat="43.16891" lon="6.48457">
        <ele>189.8</ele>
        <time>2024-02-04T10:22:27Z</time>
      </trkpt>
      <trkpt lat="43.16892" lon="6.48457">
        <ele>190</ele>
        <time>2024-02-04T10:22:28Z</time>
      </trkpt>
      <trkpt lat="43.16893" lon="6.48457">
        <ele>190.3</ele>
        <time>2024-02-04T10:22:29Z</time>
      </trkpt>
      <trkpt lat="43.16893" lon="6.48457">
        <ele>190.6</ele>
        <time>2024-02-04T10:22:30Z</time>
      </trkpt>
      <trkpt lat="43.16894" lon="6.48458">
        <ele>190.8</ele>
        <time>2024-02-04T10:22:31Z</time>
      </trkpt>
      <trkpt lat="43.16895" lon="6.48458">
        <ele>191</ele>
        <time>2024-02-04T10:22:32Z</time>
      </trkpt>
      <trkpt lat="43.16895" lon="6.48459">
        <ele>191.3</ele>
        <time>2024-02-04T10:22:33Z</time>
      </trkpt>
      <trkpt lat="43.16896" lon="6.4846">
        <ele>191.5</ele>
        <time>2024-02-04T10:22:34Z</time>
      </trkpt>
      <trkpt lat="43.16896" lon="6.48461">
        <ele>191.8</ele>
        <time>2024-02-04T10:22:35Z</time>
      </trkpt>
      <trkpt lat="43.16897" lon="6.48462">
        <ele>192</ele>
        <time>2024-02-04T10:22:36Z</time>
      </trkpt>
      <trkpt lat="43.16898" lon="6.48462">
        <ele>192.2</ele>
        <time>2024-02-04T10:22:37Z</time>
      </trkpt>
      <trkpt lat="43.16898" lon="6.48462">
        <ele>192.3</ele>
        <time>2024-02-04T10:22:38Z</time>
      </trkpt>
      <trkpt lat="43.16899" lon="6.48463">
        <ele>192.5</ele>
        <time>2024-02-04T10:22:39Z</time>
      </trkpt>
      <trkpt lat="43.16899" lon="6.48463">
        <ele>192.8</ele>
        <time>2024-02-04T10:22:40Z</time>
      </trkpt>
      <trkpt lat="43.169" lon="6.48463">
        <ele>192.9</ele>
        <time>2024-02-04T10:22:41Z</time>
      </trkpt>
      <trkpt lat="43.16901" lon="6.48463">
        <ele>193.1</ele>
        <time>2024-02-04T10:22:42Z</time>
      </trkpt>
      <trkpt lat="43.16902" lon="6.48464">
        <ele>193.3</ele>
        <time>2024-02-04T10:22:43Z</time>
      </trkpt>
      <trkpt lat="43.16903" lon="6.48464">
        <ele>193.6</ele>
        <time>2024-02-04T10:22:44Z</time>
      </trkpt>
      <trkpt lat="43.16904" lon="6.48464">
        <ele>193.8</ele>
        <time>2024-02-04T10:22:45Z</time>
      </trkpt>
      <trkpt lat="43.16904" lon="6.48464">
        <ele>194.1</ele>
        <time>2024-02-04T10:22:46Z</time>
      </trkpt>
      <trkpt lat="43.16905" lon="6.48464">
        <ele>194.4</ele>
        <time>2024-02-04T10:22:47Z</time>
      </trkpt>
      <trkpt lat="43.16906" lon="6.48465">
        <ele>194.6</ele>
        <time>2024-02-04T10:22:48Z</time>
      </trkpt>
      <trkpt lat="43.16906" lon="6.48465">
        <ele>194.8</ele>
        <time>2024-02-04T10:22:49Z</time>
      </trkpt>
      <trkpt lat="43.16907" lon="6.48465">
        <ele>195.1</ele>
        <time>2024-02-04T10:22:50Z</time>
      </trkpt>
      <trkpt lat="43.16907" lon="6.48465">
        <ele>195.3</ele>
        <time>2024-02-04T10:22:51Z</time>
      </trkpt>
      <trkpt lat="43.16908" lon="6.48464">
        <ele>195.6</ele>
        <time>2024-02-04T10:22:52Z</time>
      </trkpt>
      <trkpt lat="43.16908" lon="6.48463">
        <ele>195.8</ele>
        <time>2024-02-04T10:22:53Z</time>
      </trkpt>
      <trkpt lat="43.16909" lon="6.48462">
        <ele>196</ele>
        <time>2024-02-04T10:22:54Z</time>
      </trkpt>
      <trkpt lat="43.16909" lon="6.4846">
        <ele>196.1</ele>
        <time>2024-02-04T10:22:55Z</time>
      </trkpt>
      <trkpt lat="43.1691" lon="6.48459">
        <ele>196.2</ele>
        <time>2024-02-04T10:22:56Z</time>
      </trkpt>
      <trkpt lat="43.1691" lon="6.48458">
        <ele>196.2</ele>
        <time>2024-02-04T10:22:57Z</time>
      </trkpt>
      <trkpt lat="43.16911" lon="6.48456">
        <ele>196.2</ele>
        <time>2024-02-04T10:22:58Z</time>
      </trkpt>
      <trkpt lat="43.16911" lon="6.48454">
        <ele>196.2</ele>
        <time>2024-02-04T10:22:59Z</time>
      </trkpt>
      <trkpt lat="43.16912" lon="6.48453">
        <ele>196.3</ele>
        <time>2024-02-04T10:23:00Z</time>
      </trkpt>
      <trkpt lat="43.16913" lon="6.48451">
        <ele>196.3</ele>
        <time>2024-02-04T10:23:01Z</time>
      </trkpt>
      <trkpt lat="43.16913" lon="6.4845">
        <ele>196.3</ele>
        <time>2024-02-04T10:23:02Z</time>
      </trkpt>
      <trkpt lat="43.16914" lon="6.48449">
        <ele>196.3</ele>
        <time>2024-02-04T10:23:03Z</time>
      </trkpt>
      <trkpt lat="43.16914" lon="6.48448">
        <ele>196.3</ele>
        <time>2024-02-04T10:23:04Z</time>
      </trkpt>
      <trkpt lat="43.16915" lon="6.48447">
        <ele>196.2</ele>
        <time>2024-02-04T10:23:05Z</time>
      </trkpt>
      <trkpt lat="43.16916" lon="6.48446">
        <ele>196.2</ele>
        <time>2024-02-04T10:23:06Z</time>
      </trkpt>
      <trkpt lat="43.16916" lon="6.48444">
        <ele>196.2</ele>
        <time>2024-02-04T10:23:07Z</time>
      </trkpt>
      <trkpt lat="43.16917" lon="6.48443">
        <ele>196.2</ele>
        <time>2024-02-04T10:23:08Z</time>
      </trkpt>
      <trkpt lat="43.16918" lon="6.48442">
        <ele>196.2</ele>
        <time>2024-02-04T10:23:09Z</time>
      </trkpt>
      <trkpt lat="43.16919" lon="6.48441">
        <ele>196.4</ele>
        <time>2024-02-04T10:23:10Z</time>
      </trkpt>
      <trkpt lat="43.16919" lon="6.4844">
        <ele>196.4</ele>
        <time>2024-02-04T10:23:11Z</time>
      </trkpt>
      <trkpt lat="43.1692" lon="6.4844">
        <ele>196.5</ele>
        <time>2024-02-04T10:23:12Z</time>
      </trkpt>
      <trkpt lat="43.16921" lon="6.4844">
        <ele>196.6</ele>
        <time>2024-02-04T10:23:13Z</time>
      </trkpt>
      <trkpt lat="43.16922" lon="6.4844">
        <ele>196.7</ele>
        <time>2024-02-04T10:23:14Z</time>
      </trkpt>
      <trkpt lat="43.16922" lon="6.4844">
        <ele>196.8</ele>
        <time>2024-02-04T10:23:15Z</time>
      </trkpt>
      <trkpt lat="43.16923" lon="6.4844">
        <ele>196.9</ele>
        <time>2024-02-04T10:23:16Z</time>
      </trkpt>
      <trkpt lat="43.16923" lon="6.48441">
        <ele>197</ele>
        <time>2024-02-04T10:23:17Z</time>
      </trkpt>
      <trkpt lat="43.16924" lon="6.48442">
        <ele>197.2</ele>
        <time>2024-02-04T10:23:18Z</time>
      </trkpt>
      <trkpt lat="43.16925" lon="6.48442">
        <ele>197.4</ele>
        <time>2024-02-04T10:23:19Z</time>
      </trkpt>
      <trkpt lat="43.16925" lon="6.48443">
        <ele>197.5</ele>
        <time>2024-02-04T10:23:20Z</time>
      </trkpt>
      <trkpt lat="43.16926" lon="6.48444">
        <ele>197.7</ele>
        <time>2024-02-04T10:23:21Z</time>
      </trkpt>
      <trkpt lat="43.16926" lon="6.48444">
        <ele>197.9</ele>
        <time>2024-02-04T10:23:22Z</time>
      </trkpt>
      <trkpt lat="43.16927" lon="6.48444">
        <ele>198.1</ele>
        <time>2024-02-04T10:23:23Z</time>
      </trkpt>
      <trkpt lat="43.16928" lon="6.48444">
        <ele>198.3</ele>
        <time>2024-02-04T10:23:24Z</time>
      </trkpt>
      <trkpt lat="43.16928" lon="6.48444">
        <ele>198.5</ele>
        <time>2024-02-04T10:23:25Z</time>
      </trkpt>
      <trkpt lat="43.16929" lon="6.48445">
        <ele>198.7</ele>
        <time>2024-02-04T10:23:26Z</time>
      </trkpt>
      <trkpt lat="43.1693" lon="6.48445">
        <ele>198.9</ele>
        <time>2024-02-04T10:23:27Z</time>
      </trkpt>
      <trkpt lat="43.1693" lon="6.48445">
        <ele>199.2</ele>
        <time>2024-02-04T10:23:28Z</time>
      </trkpt>
      <trkpt lat="43.16931" lon="6.48445">
        <ele>199.4</ele>
        <time>2024-02-04T10:23:29Z</time>
      </trkpt>
      <trkpt lat="43.16931" lon="6.48445">
        <ele>199.6</ele>
        <time>2024-02-04T10:23:30Z</time>
      </trkpt>
      <trkpt lat="43.16931" lon="6.48446">
        <ele>199.8</ele>
        <time>2024-02-04T10:23:31Z</time>
      </trkpt>
      <trkpt lat="43.16932" lon="6.48446">
        <ele>200</ele>
        <time>2024-02-04T10:23:32Z</time>
      </trkpt>
      <trkpt lat="43.16933" lon="6.48446">
        <ele>200.1</ele>
        <time>2024-02-04T10:23:33Z</time>
      </trkpt>
      <trkpt lat="43.16933" lon="6.48447">
        <ele>200.2</ele>
        <time>2024-02-04T10:23:34Z</time>
      </trkpt>
      <trkpt lat="43.16934" lon="6.48447">
        <ele>200.3</ele>
        <time>2024-02-04T10:23:35Z</time>
      </trkpt>
      <trkpt lat="43.16935" lon="6.48448">
        <ele>200.6</ele>
        <time>2024-02-04T10:23:36Z</time>
      </trkpt>
      <trkpt lat="43.16935" lon="6.48449">
        <ele>200.8</ele>
        <time>2024-02-04T10:23:37Z</time>
      </trkpt>
      <trkpt lat="43.16936" lon="6.48449">
        <ele>201</ele>
        <time>2024-02-04T10:23:38Z</time>
      </trkpt>
      <trkpt lat="43.16936" lon="6.4845">
        <ele>201.2</ele>
        <time>2024-02-04T10:23:39Z</time>
      </trkpt>
      <trkpt lat="43.16937" lon="6.48451">
        <ele>201.3</ele>
        <time>2024-02-04T10:23:40Z</time>
      </trkpt>
      <trkpt lat="43.16937" lon="6.48452">
        <ele>201.5</ele>
        <time>2024-02-04T10:23:41Z</time>
      </trkpt>
      <trkpt lat="43.16938" lon="6.48452">
        <ele>201.6</ele>
        <time>2024-02-04T10:23:42Z</time>
      </trkpt>
      <trkpt lat="43.16938" lon="6.48453">
        <ele>201.8</ele>
        <time>2024-02-04T10:23:43Z</time>
      </trkpt>
      <trkpt lat="43.16939" lon="6.48454">
        <ele>202.1</ele>
        <time>2024-02-04T10:23:44Z</time>
      </trkpt>
      <trkpt lat="43.1694" lon="6.48455">
        <ele>202.3</ele>
        <time>2024-02-04T10:23:45Z</time>
      </trkpt>
      <trkpt lat="43.16941" lon="6.48455">
        <ele>202.5</ele>
        <time>2024-02-04T10:23:46Z</time>
      </trkpt>
      <trkpt lat="43.16941" lon="6.48456">
        <ele>202.7</ele>
        <time>2024-02-04T10:23:47Z</time>
      </trkpt>
      <trkpt lat="43.16942" lon="6.48457">
        <ele>202.9</ele>
        <time>2024-02-04T10:23:48Z</time>
      </trkpt>
      <trkpt lat="43.16942" lon="6.48457">
        <ele>203.1</ele>
        <time>2024-02-04T10:23:49Z</time>
      </trkpt>
      <trkpt lat="43.16942" lon="6.48457">
        <ele>203.2</ele>
        <time>2024-02-04T10:23:50Z</time>
      </trkpt>
      <trkpt lat="43.16942" lon="6.48457">
        <ele>203.3</ele>
        <time>2024-02-04T10:23:51Z</time>
      </trkpt>
      <trkpt lat="43.16942" lon="6.48457">
        <ele>203.3</ele>
        <time>2024-02-04T10:23:52Z</time>
      </trkpt>
      <trkpt lat="43.16942" lon="6.48457">
        <ele>203.4</ele>
        <time>2024-02-04T10:23:53Z</time>
      </trkpt>
      <trkpt lat="43.16942" lon="6.48457">
        <ele>203.5</ele>
        <time>2024-02-04T10:23:54Z</time>
      </trkpt>
      <trkpt lat="43.16942" lon="6.48457">
        <ele>203.4</ele>
        <time>2024-02-04T10:23:55Z</time>
      </trkpt>
      <trkpt lat="43.16942" lon="6.48457">
        <ele>203.4</ele>
        <time>2024-02-04T10:23:56Z</time>
      </trkpt>
      <trkpt lat="43.16942" lon="6.48457">
        <ele>203.4</ele>
        <time>2024-02-04T10:23:57Z</time>
      </trkpt>
      <trkpt lat="43.16942" lon="6.48457">
        <ele>203.4</ele>
        <time>2024-02-04T10:23:58Z</time>
      </trkpt>
      <trkpt lat="43.16942" lon="6.48457">
        <ele>203.4</ele>
        <time>2024-02-04T10:23:59Z</time>
      </trkpt>
      <trkpt lat="43.16942" lon="6.48458">
        <ele>203.4</ele>
        <time>2024-02-04T10:24:00Z</time>
      </trkpt>
      <trkpt lat="43.16942" lon="6.48458">
        <ele>203.3</ele>
        <time>2024-02-04T10:24:01Z</time>
      </trkpt>
      <trkpt lat="43.16942" lon="6.48458">
        <ele>203.4</ele>
        <time>2024-02-04T10:24:02Z</time>
      </trkpt>
      <trkpt lat="43.16942" lon="6.48459">
        <ele>203.4</ele>
        <time>2024-02-04T10:24:03Z</time>
      </trkpt>
      <trkpt lat="43.16942" lon="6.48459">
        <ele>203.4</ele>
        <time>2024-02-04T10:24:04Z</time>
      </trkpt>
      <trkpt lat="43.16942" lon="6.48458">
        <ele>203.5</ele>
        <time>2024-02-04T10:24:05Z</time>
      </trkpt>
      <trkpt lat="43.16942" lon="6.48459">
        <ele>203.5</ele>
        <time>2024-02-04T10:24:06Z</time>
      </trkpt>
      <trkpt lat="43.16941" lon="6.48459">
        <ele>203.5</ele>
        <time>2024-02-04T10:24:07Z</time>
      </trkpt>
      <trkpt lat="43.16942" lon="6.4846">
        <ele>203.5</ele>
        <time>2024-02-04T10:24:08Z</time>
      </trkpt>
      <trkpt lat="43.16942" lon="6.4846">
        <ele>203.5</ele>
        <time>2024-02-04T10:24:09Z</time>
      </trkpt>
      <trkpt lat="43.16942" lon="6.4846">
        <ele>203.6</ele>
        <time>2024-02-04T10:24:10Z</time>
      </trkpt>
      <trkpt lat="43.16942" lon="6.4846">
        <ele>203.6</ele>
        <time>2024-02-04T10:24:11Z</time>
      </trkpt>
      <trkpt lat="43.16942" lon="6.4846">
        <ele>203.6</ele>
        <time>2024-02-04T10:24:12Z</time>
      </trkpt>
      <trkpt lat="43.16942" lon="6.4846">
        <ele>203.7</ele>
        <time>2024-02-04T10:24:13Z</time>
      </trkpt>
      <trkpt lat="43.16942" lon="6.48461">
        <ele>203.7</ele>
        <time>2024-02-04T10:24:14Z</time>
      </trkpt>
      <trkpt lat="43.16942" lon="6.48462">
        <ele>203.7</ele>
        <time>2024-02-04T10:24:15Z</time>
      </trkpt>
      <trkpt lat="43.16943" lon="6.48463">
        <ele>203.8</ele>
        <time>2024-02-04T10:24:16Z</time>
      </trkpt>
      <trkpt lat="43.16943" lon="6.48463">
        <ele>203.9</ele>
        <time>2024-02-04T10:24:17Z</time>
      </trkpt>
      <trkpt lat="43.16944" lon="6.48463">
        <ele>203.9</ele>
        <time>2024-02-04T10:24:18Z</time>
      </trkpt>
      <trkpt lat="43.16944" lon="6.48464">
        <ele>203.9</ele>
        <time>2024-02-04T10:24:19Z</time>
      </trkpt>
      <trkpt lat="43.16945" lon="6.48464">
        <ele>204</ele>
        <time>2024-02-04T10:24:20Z</time>
      </trkpt>
      <trkpt lat="43.16945" lon="6.48464">
        <ele>204</ele>
        <time>2024-02-04T10:24:21Z</time>
      </trkpt>
      <trkpt lat="43.16946" lon="6.48465">
        <ele>204</ele>
        <time>2024-02-04T10:24:22Z</time>
      </trkpt>
      <trkpt lat="43.16946" lon="6.48465">
        <ele>204.1</ele>
        <time>2024-02-04T10:24:23Z</time>
      </trkpt>
      <trkpt lat="43.16947" lon="6.48465">
        <ele>204.1</ele>
        <time>2024-02-04T10:24:24Z</time>
      </trkpt>
      <trkpt lat="43.16947" lon="6.48465">
        <ele>204.1</ele>
        <time>2024-02-04T10:24:25Z</time>
      </trkpt>
      <trkpt lat="43.16948" lon="6.48465">
        <ele>204.1</ele>
        <time>2024-02-04T10:24:26Z</time>
      </trkpt>
      <trkpt lat="43.16948" lon="6.48465">
        <ele>204.1</ele>
        <time>2024-02-04T10:24:27Z</time>
      </trkpt>
      <trkpt lat="43.16949" lon="6.48464">
        <ele>204.1</ele>
        <time>2024-02-04T10:24:28Z</time>
      </trkpt>
      <trkpt lat="43.16949" lon="6.48464">
        <ele>204.1</ele>
        <time>2024-02-04T10:24:29Z</time>
      </trkpt>
      <trkpt lat="43.16949" lon="6.48464">
        <ele>204.1</ele>
        <time>2024-02-04T10:24:30Z</time>
      </trkpt>
      <trkpt lat="43.1695" lon="6.48464">
        <ele>204.1</ele>
        <time>2024-02-04T10:24:31Z</time>
      </trkpt>
      <trkpt lat="43.1695" lon="6.48463">
        <ele>204.1</ele>
        <time>2024-02-04T10:24:32Z</time>
      </trkpt>
      <trkpt lat="43.16951" lon="6.48463">
        <ele>204.2</ele>
        <time>2024-02-04T10:24:33Z</time>
      </trkpt>
      <trkpt lat="43.16952" lon="6.48463">
        <ele>204.4</ele>
        <time>2024-02-04T10:24:34Z</time>
      </trkpt>
      <trkpt lat="43.16953" lon="6.48464">
        <ele>204.5</ele>
        <time>2024-02-04T10:24:35Z</time>
      </trkpt>
      <trkpt lat="43.16954" lon="6.48464">
        <ele>204.6</ele>
        <time>2024-02-04T10:24:36Z</time>
      </trkpt>
      <trkpt lat="43.16954" lon="6.48464">
        <ele>204.7</ele>
        <time>2024-02-04T10:24:37Z</time>
      </trkpt>
      <trkpt lat="43.16955" lon="6.48464">
        <ele>204.7</ele>
        <time>2024-02-04T10:24:38Z</time>
      </trkpt>
      <trkpt lat="43.16955" lon="6.48463">
        <ele>204.8</ele>
        <time>2024-02-04T10:24:39Z</time>
      </trkpt>
      <trkpt lat="43.16956" lon="6.48463">
        <ele>204.9</ele>
        <time>2024-02-04T10:24:40Z</time>
      </trkpt>
      <trkpt lat="43.16957" lon="6.48463">
        <ele>205</ele>
        <time>2024-02-04T10:24:41Z</time>
      </trkpt>
      <trkpt lat="43.16958" lon="6.48463">
        <ele>205.2</ele>
        <time>2024-02-04T10:24:42Z</time>
      </trkpt>
      <trkpt lat="43.16958" lon="6.48462">
        <ele>205.4</ele>
        <time>2024-02-04T10:24:43Z</time>
      </trkpt>
      <trkpt lat="43.16959" lon="6.48463">
        <ele>205.5</ele>
        <time>2024-02-04T10:24:44Z</time>
      </trkpt>
      <trkpt lat="43.1696" lon="6.48462">
        <ele>205.6</ele>
        <time>2024-02-04T10:24:45Z</time>
      </trkpt>
      <trkpt lat="43.1696" lon="6.48463">
        <ele>205.7</ele>
        <time>2024-02-04T10:24:46Z</time>
      </trkpt>
      <trkpt lat="43.16961" lon="6.48463">
        <ele>205.8</ele>
        <time>2024-02-04T10:24:47Z</time>
      </trkpt>
      <trkpt lat="43.16962" lon="6.48463">
        <ele>205.9</ele>
        <time>2024-02-04T10:24:48Z</time>
      </trkpt>
      <trkpt lat="43.16963" lon="6.48463">
        <ele>206</ele>
        <time>2024-02-04T10:24:49Z</time>
      </trkpt>
      <trkpt lat="43.16964" lon="6.48463">
        <ele>206</ele>
        <time>2024-02-04T10:24:50Z</time>
      </trkpt>
      <trkpt lat="43.16964" lon="6.48462">
        <ele>206</ele>
        <time>2024-02-04T10:24:51Z</time>
      </trkpt>
      <trkpt lat="43.16965" lon="6.48462">
        <ele>206.1</ele>
        <time>2024-02-04T10:24:52Z</time>
      </trkpt>
      <trkpt lat="43.16965" lon="6.48462">
        <ele>206.2</ele>
        <time>2024-02-04T10:24:53Z</time>
      </trkpt>
      <trkpt lat="43.16965" lon="6.48461">
        <ele>206.3</ele>
        <time>2024-02-04T10:24:54Z</time>
      </trkpt>
      <trkpt lat="43.16966" lon="6.48461">
        <ele>206.3</ele>
        <time>2024-02-04T10:24:55Z</time>
      </trkpt>
      <trkpt lat="43.16966" lon="6.4846">
        <ele>206.4</ele>
        <time>2024-02-04T10:24:56Z</time>
      </trkpt>
      <trkpt lat="43.16967" lon="6.4846">
        <ele>206.5</ele>
        <time>2024-02-04T10:24:57Z</time>
      </trkpt>
      <trkpt lat="43.16967" lon="6.4846">
        <ele>206.6</ele>
        <time>2024-02-04T10:24:58Z</time>
      </trkpt>
      <trkpt lat="43.16968" lon="6.48459">
        <ele>206.7</ele>
        <time>2024-02-04T10:24:59Z</time>
      </trkpt>
      <trkpt lat="43.16969" lon="6.48459">
        <ele>206.7</ele>
        <time>2024-02-04T10:25:00Z</time>
      </trkpt>
      <trkpt lat="43.16969" lon="6.48459">
        <ele>206.8</ele>
        <time>2024-02-04T10:25:01Z</time>
      </trkpt>
      <trkpt lat="43.1697" lon="6.48459">
        <ele>206.9</ele>
        <time>2024-02-04T10:25:02Z</time>
      </trkpt>
      <trkpt lat="43.1697" lon="6.48458">
        <ele>207</ele>
        <time>2024-02-04T10:25:03Z</time>
      </trkpt>
      <trkpt lat="43.16971" lon="6.48458">
        <ele>207.1</ele>
        <time>2024-02-04T10:25:04Z</time>
      </trkpt>
      <trkpt lat="43.16971" lon="6.48458">
        <ele>207.2</ele>
        <time>2024-02-04T10:25:05Z</time>
      </trkpt>
      <trkpt lat="43.16972" lon="6.48458">
        <ele>207.3</ele>
        <time>2024-02-04T10:25:06Z</time>
      </trkpt>
      <trkpt lat="43.16973" lon="6.48458">
        <ele>207.4</ele>
        <time>2024-02-04T10:25:07Z</time>
      </trkpt>
      <trkpt lat="43.16973" lon="6.48458">
        <ele>207.6</ele>
        <time>2024-02-04T10:25:08Z</time>
      </trkpt>
      <trkpt lat="43.16974" lon="6.48457">
        <ele>207.6</ele>
        <time>2024-02-04T10:25:09Z</time>
      </trkpt>
      <trkpt lat="43.16974" lon="6.48457">
        <ele>207.7</ele>
        <time>2024-02-04T10:25:10Z</time>
      </trkpt>
      <trkpt lat="43.16975" lon="6.48457">
        <ele>207.8</ele>
        <time>2024-02-04T10:25:11Z</time>
      </trkpt>
      <trkpt lat="43.16976" lon="6.48457">
        <ele>207.9</ele>
        <time>2024-02-04T10:25:12Z</time>
      </trkpt>
      <trkpt lat="43.16976" lon="6.48456">
        <ele>208</ele>
        <time>2024-02-04T10:25:13Z</time>
      </trkpt>
      <trkpt lat="43.16977" lon="6.48456">
        <ele>208.2</ele>
        <time>2024-02-04T10:25:14Z</time>
      </trkpt>
      <trkpt lat="43.16978" lon="6.48456">
        <ele>208.3</ele>
        <time>2024-02-04T10:25:15Z</time>
      </trkpt>
      <trkpt lat="43.16978" lon="6.48456">
        <ele>208.4</ele>
        <time>2024-02-04T10:25:16Z</time>
      </trkpt>
      <trkpt lat="43.16979" lon="6.48455">
        <ele>208.5</ele>
        <time>2024-02-04T10:25:17Z</time>
      </trkpt>
      <trkpt lat="43.1698" lon="6.48455">
        <ele>208.6</ele>
        <time>2024-02-04T10:25:18Z</time>
      </trkpt>
      <trkpt lat="43.1698" lon="6.48456">
        <ele>208.8</ele>
        <time>2024-02-04T10:25:19Z</time>
      </trkpt>
      <trkpt lat="43.16981" lon="6.48456">
        <ele>208.8</ele>
        <time>2024-02-04T10:25:20Z</time>
      </trkpt>
      <trkpt lat="43.16982" lon="6.48457">
        <ele>208.7</ele>
        <time>2024-02-04T10:25:21Z</time>
      </trkpt>
      <trkpt lat="43.16982" lon="6.48457">
        <ele>208.8</ele>
        <time>2024-02-04T10:25:22Z</time>
      </trkpt>
      <trkpt lat="43.16983" lon="6.48457">
        <ele>208.8</ele>
        <time>2024-02-04T10:25:23Z</time>
      </trkpt>
      <trkpt lat="43.16983" lon="6.48457">
        <ele>209</ele>
        <time>2024-02-04T10:25:24Z</time>
      </trkpt>
      <trkpt lat="43.16984" lon="6.48457">
        <ele>209.2</ele>
        <time>2024-02-04T10:25:25Z</time>
      </trkpt>
      <trkpt lat="43.16984" lon="6.48457">
        <ele>209.2</ele>
        <time>2024-02-04T10:25:26Z</time>
      </trkpt>
      <trkpt lat="43.16985" lon="6.48457">
        <ele>209.3</ele>
        <time>2024-02-04T10:25:27Z</time>
      </trkpt>
      <trkpt lat="43.16985" lon="6.48457">
        <ele>209.3</ele>
        <time>2024-02-04T10:25:28Z</time>
      </trkpt>
      <trkpt lat="43.16986" lon="6.48457">
        <ele>209.4</ele>
        <time>2024-02-04T10:25:29Z</time>
      </trkpt>
      <trkpt lat="43.16987" lon="6.48457">
        <ele>209.4</ele>
        <time>2024-02-04T10:25:30Z</time>
      </trkpt>
      <trkpt lat="43.16987" lon="6.48457">
        <ele>209.5</ele>
        <time>2024-02-04T10:25:31Z</time>
      </trkpt>
      <trkpt lat="43.16988" lon="6.48458">
        <ele>209.6</ele>
        <time>2024-02-04T10:25:32Z</time>
      </trkpt>
      <trkpt lat="43.16989" lon="6.48458">
        <ele>209.5</ele>
        <time>2024-02-04T10:25:33Z</time>
      </trkpt>
      <trkpt lat="43.1699" lon="6.48459">
        <ele>209.5</ele>
        <time>2024-02-04T10:25:34Z</time>
      </trkpt>
      <trkpt lat="43.1699" lon="6.48459">
        <ele>209.4</ele>
        <time>2024-02-04T10:25:35Z</time>
      </trkpt>
      <trkpt lat="43.16991" lon="6.48459">
        <ele>209.4</ele>
        <time>2024-02-04T10:25:36Z</time>
      </trkpt>
      <trkpt lat="43.16992" lon="6.48459">
        <ele>209.4</ele>
        <time>2024-02-04T10:25:37Z</time>
      </trkpt>
      <trkpt lat="43.16993" lon="6.48459">
        <ele>209.4</ele>
        <time>2024-02-04T10:25:38Z</time>
      </trkpt>
      <trkpt lat="43.16994" lon="6.4846">
        <ele>209.4</ele>
        <time>2024-02-04T10:25:39Z</time>
      </trkpt>
      <trkpt lat="43.16994" lon="6.4846">
        <ele>209.4</ele>
        <time>2024-02-04T10:25:40Z</time>
      </trkpt>
      <trkpt lat="43.16995" lon="6.4846">
        <ele>209.5</ele>
        <time>2024-02-04T10:25:41Z</time>
      </trkpt>
      <trkpt lat="43.16996" lon="6.4846">
        <ele>209.5</ele>
        <time>2024-02-04T10:25:42Z</time>
      </trkpt>
      <trkpt lat="43.16996" lon="6.4846">
        <ele>209.5</ele>
        <time>2024-02-04T10:25:43Z</time>
      </trkpt>
      <trkpt lat="43.16997" lon="6.4846">
        <ele>209.6</ele>
        <time>2024-02-04T10:25:44Z</time>
      </trkpt>
      <trkpt lat="43.16997" lon="6.4846">
        <ele>209.7</ele>
        <time>2024-02-04T10:25:45Z</time>
      </trkpt>
      <trkpt lat="43.16998" lon="6.48459">
        <ele>209.8</ele>
        <time>2024-02-04T10:25:46Z</time>
      </trkpt>
      <trkpt lat="43.16998" lon="6.48459">
        <ele>209.8</ele>
        <time>2024-02-04T10:25:47Z</time>
      </trkpt>
      <trkpt lat="43.16999" lon="6.48458">
        <ele>209.9</ele>
        <time>2024-02-04T10:25:48Z</time>
      </trkpt>
      <trkpt lat="43.16999" lon="6.48457">
        <ele>210</ele>
        <time>2024-02-04T10:25:49Z</time>
      </trkpt>
      <trkpt lat="43.17" lon="6.48456">
        <ele>210.1</ele>
        <time>2024-02-04T10:25:50Z</time>
      </trkpt>
      <trkpt lat="43.17" lon="6.48456">
        <ele>210.2</ele>
        <time>2024-02-04T10:25:51Z</time>
      </trkpt>
      <trkpt lat="43.17001" lon="6.48455">
        <ele>210.4</ele>
        <time>2024-02-04T10:25:52Z</time>
      </trkpt>
      <trkpt lat="43.17001" lon="6.48454">
        <ele>210.6</ele>
        <time>2024-02-04T10:25:53Z</time>
      </trkpt>
      <trkpt lat="43.17002" lon="6.48454">
        <ele>210.7</ele>
        <time>2024-02-04T10:25:54Z</time>
      </trkpt>
      <trkpt lat="43.17002" lon="6.48453">
        <ele>211</ele>
        <time>2024-02-04T10:25:55Z</time>
      </trkpt>
      <trkpt lat="43.17002" lon="6.48453">
        <ele>211</ele>
        <time>2024-02-04T10:25:56Z</time>
      </trkpt>
      <trkpt lat="43.17003" lon="6.48452">
        <ele>211.1</ele>
        <time>2024-02-04T10:25:57Z</time>
      </trkpt>
      <trkpt lat="43.17004" lon="6.48451">
        <ele>211.1</ele>
        <time>2024-02-04T10:25:58Z</time>
      </trkpt>
      <trkpt lat="43.17004" lon="6.4845">
        <ele>211.2</ele>
        <time>2024-02-04T10:25:59Z</time>
      </trkpt>
      <trkpt lat="43.17005" lon="6.4845">
        <ele>211.4</ele>
        <time>2024-02-04T10:26:00Z</time>
      </trkpt>
      <trkpt lat="43.17005" lon="6.48449">
        <ele>211.5</ele>
        <time>2024-02-04T10:26:01Z</time>
      </trkpt>
      <trkpt lat="43.17006" lon="6.48449">
        <ele>211.6</ele>
        <time>2024-02-04T10:26:02Z</time>
      </trkpt>
      <trkpt lat="43.17007" lon="6.48448">
        <ele>211.7</ele>
        <time>2024-02-04T10:26:03Z</time>
      </trkpt>
      <trkpt lat="43.17007" lon="6.48448">
        <ele>211.9</ele>
        <time>2024-02-04T10:26:04Z</time>
      </trkpt>
      <trkpt lat="43.17008" lon="6.48447">
        <ele>212.1</ele>
        <time>2024-02-04T10:26:05Z</time>
      </trkpt>
      <trkpt lat="43.17009" lon="6.48447">
        <ele>212.3</ele>
        <time>2024-02-04T10:26:06Z</time>
      </trkpt>
      <trkpt lat="43.17009" lon="6.48446">
        <ele>212.5</ele>
        <time>2024-02-04T10:26:07Z</time>
      </trkpt>
      <trkpt lat="43.17009" lon="6.48445">
        <ele>212.7</ele>
        <time>2024-02-04T10:26:08Z</time>
      </trkpt>
      <trkpt lat="43.1701" lon="6.48445">
        <ele>212.8</ele>
        <time>2024-02-04T10:26:09Z</time>
      </trkpt>
      <trkpt lat="43.1701" lon="6.48444">
        <ele>212.8</ele>
        <time>2024-02-04T10:26:10Z</time>
      </trkpt>
      <trkpt lat="43.17011" lon="6.48443">
        <ele>213</ele>
        <time>2024-02-04T10:26:11Z</time>
      </trkpt>
      <trkpt lat="43.17011" lon="6.48442">
        <ele>213.1</ele>
        <time>2024-02-04T10:26:12Z</time>
      </trkpt>
      <trkpt lat="43.17011" lon="6.48441">
        <ele>213.3</ele>
        <time>2024-02-04T10:26:13Z</time>
      </trkpt>
      <trkpt lat="43.17012" lon="6.48441">
        <ele>213.5</ele>
        <time>2024-02-04T10:26:14Z</time>
      </trkpt>
      <trkpt lat="43.17012" lon="6.4844">
        <ele>213.7</ele>
        <time>2024-02-04T10:26:15Z</time>
      </trkpt>
      <trkpt lat="43.17012" lon="6.48439">
        <ele>213.8</ele>
        <time>2024-02-04T10:26:16Z</time>
      </trkpt>
      <trkpt lat="43.17013" lon="6.48438">
        <ele>213.9</ele>
        <time>2024-02-04T10:26:17Z</time>
      </trkpt>
      <trkpt lat="43.17013" lon="6.48438">
        <ele>214.1</ele>
        <time>2024-02-04T10:26:18Z</time>
      </trkpt>
      <trkpt lat="43.17013" lon="6.48438">
        <ele>214.3</ele>
        <time>2024-02-04T10:26:19Z</time>
      </trkpt>
      <trkpt lat="43.17014" lon="6.48437">
        <ele>214.4</ele>
        <time>2024-02-04T10:26:20Z</time>
      </trkpt>
      <trkpt lat="43.17014" lon="6.48437">
        <ele>214.6</ele>
        <time>2024-02-04T10:26:21Z</time>
      </trkpt>
      <trkpt lat="43.17015" lon="6.48436">
        <ele>214.8</ele>
        <time>2024-02-04T10:26:22Z</time>
      </trkpt>
      <trkpt lat="43.17015" lon="6.48435">
        <ele>214.9</ele>
        <time>2024-02-04T10:26:23Z</time>
      </trkpt>
      <trkpt lat="43.17016" lon="6.48434">
        <ele>215.1</ele>
        <time>2024-02-04T10:26:24Z</time>
      </trkpt>
      <trkpt lat="43.17016" lon="6.48433">
        <ele>215.2</ele>
        <time>2024-02-04T10:26:25Z</time>
      </trkpt>
      <trkpt lat="43.17016" lon="6.48432">
        <ele>215.4</ele>
        <time>2024-02-04T10:26:26Z</time>
      </trkpt>
      <trkpt lat="43.17016" lon="6.48431">
        <ele>215.6</ele>
        <time>2024-02-04T10:26:27Z</time>
      </trkpt>
      <trkpt lat="43.17016" lon="6.4843">
        <ele>215.9</ele>
        <time>2024-02-04T10:26:28Z</time>
      </trkpt>
      <trkpt lat="43.17017" lon="6.48429">
        <ele>216.2</ele>
        <time>2024-02-04T10:26:29Z</time>
      </trkpt>
      <trkpt lat="43.17017" lon="6.48428">
        <ele>216.3</ele>
        <time>2024-02-04T10:26:30Z</time>
      </trkpt>
      <trkpt lat="43.17018" lon="6.48427">
        <ele>216.6</ele>
        <time>2024-02-04T10:26:31Z</time>
      </trkpt>
      <trkpt lat="43.17018" lon="6.48425">
        <ele>216.8</ele>
        <time>2024-02-04T10:26:32Z</time>
      </trkpt>
      <trkpt lat="43.17018" lon="6.48424">
        <ele>217.2</ele>
        <time>2024-02-04T10:26:33Z</time>
      </trkpt>
      <trkpt lat="43.17018" lon="6.48422">
        <ele>217.5</ele>
        <time>2024-02-04T10:26:34Z</time>
      </trkpt>
      <trkpt lat="43.17018" lon="6.48421">
        <ele>217.7</ele>
        <time>2024-02-04T10:26:35Z</time>
      </trkpt>
      <trkpt lat="43.17018" lon="6.4842">
        <ele>218</ele>
        <time>2024-02-04T10:26:36Z</time>
      </trkpt>
      <trkpt lat="43.17018" lon="6.48419">
        <ele>218.3</ele>
        <time>2024-02-04T10:26:37Z</time>
      </trkpt>
      <trkpt lat="43.17019" lon="6.48418">
        <ele>218.5</ele>
        <time>2024-02-04T10:26:38Z</time>
      </trkpt>
      <trkpt lat="43.17019" lon="6.48417">
        <ele>218.7</ele>
        <time>2024-02-04T10:26:39Z</time>
      </trkpt>
      <trkpt lat="43.17019" lon="6.48417">
        <ele>219</ele>
        <time>2024-02-04T10:26:40Z</time>
      </trkpt>
      <trkpt lat="43.1702" lon="6.48416">
        <ele>219.3</ele>
        <time>2024-02-04T10:26:41Z</time>
      </trkpt>
      <trkpt lat="43.17021" lon="6.48415">
        <ele>219.5</ele>
        <time>2024-02-04T10:26:42Z</time>
      </trkpt>
      <trkpt lat="43.17021" lon="6.48414">
        <ele>219.7</ele>
        <time>2024-02-04T10:26:43Z</time>
      </trkpt>
      <trkpt lat="43.17022" lon="6.48413">
        <ele>219.9</ele>
        <time>2024-02-04T10:26:44Z</time>
      </trkpt>
      <trkpt lat="43.17022" lon="6.48412">
        <ele>220.1</ele>
        <time>2024-02-04T10:26:45Z</time>
      </trkpt>
      <trkpt lat="43.17023" lon="6.48411">
        <ele>220.3</ele>
        <time>2024-02-04T10:26:46Z</time>
      </trkpt>
      <trkpt lat="43.17023" lon="6.4841">
        <ele>220.6</ele>
        <time>2024-02-04T10:26:47Z</time>
      </trkpt>
      <trkpt lat="43.17023" lon="6.4841">
        <ele>220.9</ele>
        <time>2024-02-04T10:26:48Z</time>
      </trkpt>
      <trkpt lat="43.17023" lon="6.48409">
        <ele>221.1</ele>
        <time>2024-02-04T10:26:49Z</time>
      </trkpt>
      <trkpt lat="43.17023" lon="6.48407">
        <ele>221.3</ele>
        <time>2024-02-04T10:26:50Z</time>
      </trkpt>
      <trkpt lat="43.17023" lon="6.48407">
        <ele>221.5</ele>
        <time>2024-02-04T10:26:51Z</time>
      </trkpt>
      <trkpt lat="43.17023" lon="6.48406">
        <ele>221.7</ele>
        <time>2024-02-04T10:26:52Z</time>
      </trkpt>
      <trkpt lat="43.17023" lon="6.48405">
        <ele>221.9</ele>
        <time>2024-02-04T10:26:53Z</time>
      </trkpt>
      <trkpt lat="43.17023" lon="6.48404">
        <ele>222.1</ele>
        <time>2024-02-04T10:26:54Z</time>
      </trkpt>
      <trkpt lat="43.17024" lon="6.48403">
        <ele>222.3</ele>
        <time>2024-02-04T10:26:55Z</time>
      </trkpt>
      <trkpt lat="43.17024" lon="6.48402">
        <ele>222.5</ele>
        <time>2024-02-04T10:26:56Z</time>
      </trkpt>
      <trkpt lat="43.17024" lon="6.48401">
        <ele>222.6</ele>
        <time>2024-02-04T10:26:57Z</time>
      </trkpt>
      <trkpt lat="43.17024" lon="6.484">
        <ele>222.9</ele>
        <time>2024-02-04T10:26:58Z</time>
      </trkpt>
      <trkpt lat="43.17024" lon="6.48399">
        <ele>223.2</ele>
        <time>2024-02-04T10:26:59Z</time>
      </trkpt>
      <trkpt lat="43.17023" lon="6.48398">
        <ele>223.3</ele>
        <time>2024-02-04T10:27:00Z</time>
      </trkpt>
      <trkpt lat="43.17023" lon="6.48397">
        <ele>223.5</ele>
        <time>2024-02-04T10:27:01Z</time>
      </trkpt>
      <trkpt lat="43.17023" lon="6.48396">
        <ele>223.7</ele>
        <time>2024-02-04T10:27:02Z</time>
      </trkpt>
      <trkpt lat="43.17023" lon="6.48395">
        <ele>223.9</ele>
        <time>2024-02-04T10:27:03Z</time>
      </trkpt>
      <trkpt lat="43.17023" lon="6.48394">
        <ele>224.2</ele>
        <time>2024-02-04T10:27:04Z</time>
      </trkpt>
      <trkpt lat="43.17023" lon="6.48393">
        <ele>224.4</ele>
        <time>2024-02-04T10:27:05Z</time>
      </trkpt>
      <trkpt lat="43.17023" lon="6.48391">
        <ele>224.6</ele>
        <time>2024-02-04T10:27:06Z</time>
      </trkpt>
      <trkpt lat="43.17023" lon="6.48389">
        <ele>224.7</ele>
        <time>2024-02-04T10:27:07Z</time>
      </trkpt>
      <trkpt lat="43.17023" lon="6.48388">
        <ele>224.8</ele>
        <time>2024-02-04T10:27:08Z</time>
      </trkpt>
      <trkpt lat="43.17023" lon="6.48386">
        <ele>224.9</ele>
        <time>2024-02-04T10:27:09Z</time>
      </trkpt>
      <trkpt lat="43.17023" lon="6.48385">
        <ele>225</ele>
        <time>2024-02-04T10:27:10Z</time>
      </trkpt>
      <trkpt lat="43.17023" lon="6.48384">
        <ele>225.2</ele>
        <time>2024-02-04T10:27:11Z</time>
      </trkpt>
      <trkpt lat="43.17024" lon="6.48382">
        <ele>225.3</ele>
        <time>2024-02-04T10:27:12Z</time>
      </trkpt>
      <trkpt lat="43.17023" lon="6.48381">
        <ele>225.4</ele>
        <time>2024-02-04T10:27:13Z</time>
      </trkpt>
      <trkpt lat="43.17023" lon="6.4838">
        <ele>225.5</ele>
        <time>2024-02-04T10:27:14Z</time>
      </trkpt>
      <trkpt lat="43.17023" lon="6.48378">
        <ele>225.9</ele>
        <time>2024-02-04T10:27:15Z</time>
      </trkpt>
      <trkpt lat="43.17023" lon="6.48377">
        <ele>226.1</ele>
        <time>2024-02-04T10:27:16Z</time>
      </trkpt>
      <trkpt lat="43.17023" lon="6.48376">
        <ele>226.3</ele>
        <time>2024-02-04T10:27:17Z</time>
      </trkpt>
      <trkpt lat="43.17023" lon="6.48375">
        <ele>226.5</ele>
        <time>2024-02-04T10:27:18Z</time>
      </trkpt>
      <trkpt lat="43.17023" lon="6.48374">
        <ele>226.6</ele>
        <time>2024-02-04T10:27:19Z</time>
      </trkpt>
      <trkpt lat="43.17023" lon="6.48372">
        <ele>226.7</ele>
        <time>2024-02-04T10:27:20Z</time>
      </trkpt>
      <trkpt lat="43.17023" lon="6.48371">
        <ele>226.9</ele>
        <time>2024-02-04T10:27:21Z</time>
      </trkpt>
      <trkpt lat="43.17023" lon="6.4837">
        <ele>227.1</ele>
        <time>2024-02-04T10:27:22Z</time>
      </trkpt>
      <trkpt lat="43.17023" lon="6.48369">
        <ele>227.3</ele>
        <time>2024-02-04T10:27:23Z</time>
      </trkpt>
      <trkpt lat="43.17024" lon="6.48369">
        <ele>227.6</ele>
        <time>2024-02-04T10:27:24Z</time>
      </trkpt>
      <trkpt lat="43.17024" lon="6.48368">
        <ele>227.7</ele>
        <time>2024-02-04T10:27:25Z</time>
      </trkpt>
      <trkpt lat="43.17025" lon="6.48368">
        <ele>227.8</ele>
        <time>2024-02-04T10:27:26Z</time>
      </trkpt>
      <trkpt lat="43.17025" lon="6.48367">
        <ele>228</ele>
        <time>2024-02-04T10:27:27Z</time>
      </trkpt>
      <trkpt lat="43.17026" lon="6.48367">
        <ele>228.2</ele>
        <time>2024-02-04T10:27:28Z</time>
      </trkpt>
      <trkpt lat="43.17026" lon="6.48367">
        <ele>228.4</ele>
        <time>2024-02-04T10:27:29Z</time>
      </trkpt>
      <trkpt lat="43.17027" lon="6.48367">
        <ele>228.6</ele>
        <time>2024-02-04T10:27:30Z</time>
      </trkpt>
      <trkpt lat="43.17027" lon="6.48368">
        <ele>228.7</ele>
        <time>2024-02-04T10:27:31Z</time>
      </trkpt>
      <trkpt lat="43.17028" lon="6.48368">
        <ele>228.8</ele>
        <time>2024-02-04T10:27:32Z</time>
      </trkpt>
      <trkpt lat="43.17029" lon="6.48368">
        <ele>229</ele>
        <time>2024-02-04T10:27:33Z</time>
      </trkpt>
      <trkpt lat="43.1703" lon="6.48368">
        <ele>229.2</ele>
        <time>2024-02-04T10:27:34Z</time>
      </trkpt>
      <trkpt lat="43.1703" lon="6.48368">
        <ele>229.3</ele>
        <time>2024-02-04T10:27:35Z</time>
      </trkpt>
      <trkpt lat="43.17031" lon="6.48369">
        <ele>229.4</ele>
        <time>2024-02-04T10:27:36Z</time>
      </trkpt>
      <trkpt lat="43.17032" lon="6.48369">
        <ele>229.6</ele>
        <time>2024-02-04T10:27:37Z</time>
      </trkpt>
      <trkpt lat="43.17033" lon="6.48369">
        <ele>229.8</ele>
        <time>2024-02-04T10:27:38Z</time>
      </trkpt>
      <trkpt lat="43.17034" lon="6.48369">
        <ele>229.9</ele>
        <time>2024-02-04T10:27:39Z</time>
      </trkpt>
      <trkpt lat="43.17035" lon="6.48369">
        <ele>230</ele>
        <time>2024-02-04T10:27:40Z</time>
      </trkpt>
      <trkpt lat="43.17036" lon="6.48369">
        <ele>230.1</ele>
        <time>2024-02-04T10:27:41Z</time>
      </trkpt>
      <trkpt lat="43.17037" lon="6.48369">
        <ele>230.3</ele>
        <time>2024-02-04T10:27:42Z</time>
      </trkpt>
      <trkpt lat="43.17038" lon="6.48369">
        <ele>230.4</ele>
        <time>2024-02-04T10:27:43Z</time>
      </trkpt>
      <trkpt lat="43.17038" lon="6.48369">
        <ele>230.5</ele>
        <time>2024-02-04T10:27:44Z</time>
      </trkpt>
      <trkpt lat="43.17039" lon="6.48369">
        <ele>230.6</ele>
        <time>2024-02-04T10:27:45Z</time>
      </trkpt>
      <trkpt lat="43.1704" lon="6.48369">
        <ele>230.6</ele>
        <time>2024-02-04T10:27:46Z</time>
      </trkpt>
      <trkpt lat="43.17041" lon="6.48369">
        <ele>230.9</ele>
        <time>2024-02-04T10:27:47Z</time>
      </trkpt>
      <trkpt lat="43.17041" lon="6.48369">
        <ele>231.1</ele>
        <time>2024-02-04T10:27:48Z</time>
      </trkpt>
      <trkpt lat="43.17042" lon="6.48369">
        <ele>231.3</ele>
        <time>2024-02-04T10:27:49Z</time>
      </trkpt>
      <trkpt lat="43.17042" lon="6.4837">
        <ele>231.5</ele>
        <time>2024-02-04T10:27:50Z</time>
      </trkpt>
      <trkpt lat="43.17043" lon="6.4837">
        <ele>231.6</ele>
        <time>2024-02-04T10:27:51Z</time>
      </trkpt>
      <trkpt lat="43.17043" lon="6.4837">
        <ele>231.7</ele>
        <time>2024-02-04T10:27:52Z</time>
      </trkpt>
      <trkpt lat="43.17044" lon="6.4837">
        <ele>231.8</ele>
        <time>2024-02-04T10:27:53Z</time>
      </trkpt>
      <trkpt lat="43.17045" lon="6.4837">
        <ele>232</ele>
        <time>2024-02-04T10:27:54Z</time>
      </trkpt>
      <trkpt lat="43.17046" lon="6.4837">
        <ele>232.2</ele>
        <time>2024-02-04T10:27:55Z</time>
      </trkpt>
      <trkpt lat="43.17046" lon="6.4837">
        <ele>232.3</ele>
        <time>2024-02-04T10:27:56Z</time>
      </trkpt>
      <trkpt lat="43.17047" lon="6.48371">
        <ele>232.5</ele>
        <time>2024-02-04T10:27:57Z</time>
      </trkpt>
      <trkpt lat="43.17048" lon="6.4837">
        <ele>232.7</ele>
        <time>2024-02-04T10:27:58Z</time>
      </trkpt>
      <trkpt lat="43.17049" lon="6.4837">
        <ele>232.8</ele>
        <time>2024-02-04T10:27:59Z</time>
      </trkpt>
      <trkpt lat="43.17049" lon="6.4837">
        <ele>232.9</ele>
        <time>2024-02-04T10:28:00Z</time>
      </trkpt>
      <trkpt lat="43.1705" lon="6.4837">
        <ele>233</ele>
        <time>2024-02-04T10:28:01Z</time>
      </trkpt>
      <trkpt lat="43.17051" lon="6.48369">
        <ele>233</ele>
        <time>2024-02-04T10:28:02Z</time>
      </trkpt>
      <trkpt lat="43.17051" lon="6.48368">
        <ele>233</ele>
        <time>2024-02-04T10:28:03Z</time>
      </trkpt>
      <trkpt lat="43.17052" lon="6.48368">
        <ele>233.1</ele>
        <time>2024-02-04T10:28:04Z</time>
      </trkpt>
      <trkpt lat="43.17052" lon="6.48367">
        <ele>233</ele>
        <time>2024-02-04T10:28:05Z</time>
      </trkpt>
      <trkpt lat="43.17053" lon="6.48366">
        <ele>233.1</ele>
        <time>2024-02-04T10:28:06Z</time>
      </trkpt>
      <trkpt lat="43.17053" lon="6.48365">
        <ele>233.1</ele>
        <time>2024-02-04T10:28:07Z</time>
      </trkpt>
      <trkpt lat="43.17053" lon="6.48365">
        <ele>233.2</ele>
        <time>2024-02-04T10:28:08Z</time>
      </trkpt>
      <trkpt lat="43.17053" lon="6.48364">
        <ele>233.2</ele>
        <time>2024-02-04T10:28:09Z</time>
      </trkpt>
      <trkpt lat="43.17053" lon="6.48364">
        <ele>233.2</ele>
        <time>2024-02-04T10:28:10Z</time>
      </trkpt>
      <trkpt lat="43.17053" lon="6.48363">
        <ele>233.2</ele>
        <time>2024-02-04T10:28:11Z</time>
      </trkpt>
      <trkpt lat="43.17054" lon="6.48363">
        <ele>233.3</ele>
        <time>2024-02-04T10:28:12Z</time>
      </trkpt>
      <trkpt lat="43.17054" lon="6.48362">
        <ele>233.3</ele>
        <time>2024-02-04T10:28:13Z</time>
      </trkpt>
      <trkpt lat="43.17054" lon="6.4836">
        <ele>233.4</ele>
        <time>2024-02-04T10:28:14Z</time>
      </trkpt>
      <trkpt lat="43.17054" lon="6.48359">
        <ele>233.4</ele>
        <time>2024-02-04T10:28:15Z</time>
      </trkpt>
      <trkpt lat="43.17055" lon="6.48358">
        <ele>233.4</ele>
        <time>2024-02-04T10:28:16Z</time>
      </trkpt>
      <trkpt lat="43.17055" lon="6.48357">
        <ele>233.4</ele>
        <time>2024-02-04T10:28:17Z</time>
      </trkpt>
      <trkpt lat="43.17055" lon="6.48357">
        <ele>233.4</ele>
        <time>2024-02-04T10:28:18Z</time>
      </trkpt>
      <trkpt lat="43.17055" lon="6.48356">
        <ele>233.4</ele>
        <time>2024-02-04T10:28:19Z</time>
      </trkpt>
      <trkpt lat="43.17056" lon="6.48355">
        <ele>233.5</ele>
        <time>2024-02-04T10:28:20Z</time>
      </trkpt>
      <trkpt lat="43.17056" lon="6.48355">
        <ele>233.4</ele>
        <time>2024-02-04T10:28:21Z</time>
      </trkpt>
      <trkpt lat="43.17056" lon="6.48354">
        <ele>233.4</ele>
        <time>2024-02-04T10:28:22Z</time>
      </trkpt>
      <trkpt lat="43.17057" lon="6.48353">
        <ele>233.4</ele>
        <time>2024-02-04T10:28:23Z</time>
      </trkpt>
      <trkpt lat="43.17057" lon="6.48352">
        <ele>233.4</ele>
        <time>2024-02-04T10:28:24Z</time>
      </trkpt>
      <trkpt lat="43.17057" lon="6.48351">
        <ele>233.5</ele>
        <time>2024-02-04T10:28:25Z</time>
      </trkpt>
      <trkpt lat="43.17056" lon="6.4835">
        <ele>233.5</ele>
        <time>2024-02-04T10:28:26Z</time>
      </trkpt>
      <trkpt lat="43.17057" lon="6.48349">
        <ele>233.6</ele>
        <time>2024-02-04T10:28:27Z</time>
      </trkpt>
      <trkpt lat="43.17057" lon="6.48347">
        <ele>233.7</ele>
        <time>2024-02-04T10:28:28Z</time>
      </trkpt>
      <trkpt lat="43.17057" lon="6.48346">
        <ele>233.7</ele>
        <time>2024-02-04T10:28:29Z</time>
      </trkpt>
      <trkpt lat="43.17057" lon="6.48344">
        <ele>233.7</ele>
        <time>2024-02-04T10:28:30Z</time>
      </trkpt>
      <trkpt lat="43.17057" lon="6.48343">
        <ele>233.7</ele>
        <time>2024-02-04T10:28:31Z</time>
      </trkpt>
      <trkpt lat="43.17058" lon="6.48342">
        <ele>233.8</ele>
        <time>2024-02-04T10:28:32Z</time>
      </trkpt>
      <trkpt lat="43.17058" lon="6.48341">
        <ele>233.8</ele>
        <time>2024-02-04T10:28:33Z</time>
      </trkpt>
      <trkpt lat="43.17058" lon="6.4834">
        <ele>233.8</ele>
        <time>2024-02-04T10:28:34Z</time>
      </trkpt>
      <trkpt lat="43.17058" lon="6.4834">
        <ele>233.9</ele>
        <time>2024-02-04T10:28:35Z</time>
      </trkpt>
      <trkpt lat="43.17058" lon="6.48339">
        <ele>233.9</ele>
        <time>2024-02-04T10:28:36Z</time>
      </trkpt>
      <trkpt lat="43.17058" lon="6.48339">
        <ele>234</ele>
        <time>2024-02-04T10:28:37Z</time>
      </trkpt>
      <trkpt lat="43.17059" lon="6.4834">
        <ele>234</ele>
        <time>2024-02-04T10:28:38Z</time>
      </trkpt>
      <trkpt lat="43.17059" lon="6.48339">
        <ele>234.2</ele>
        <time>2024-02-04T10:28:39Z</time>
      </trkpt>
      <trkpt lat="43.17059" lon="6.48339">
        <ele>234.3</ele>
        <time>2024-02-04T10:28:40Z</time>
      </trkpt>
      <trkpt lat="43.1706" lon="6.48338">
        <ele>234.5</ele>
        <time>2024-02-04T10:28:41Z</time>
      </trkpt>
      <trkpt lat="43.17061" lon="6.48338">
        <ele>234.6</ele>
        <time>2024-02-04T10:28:42Z</time>
      </trkpt>
      <trkpt lat="43.17062" lon="6.48337">
        <ele>234.8</ele>
        <time>2024-02-04T10:28:43Z</time>
      </trkpt>
      <trkpt lat="43.17062" lon="6.48337">
        <ele>235</ele>
        <time>2024-02-04T10:28:44Z</time>
      </trkpt>
      <trkpt lat="43.17063" lon="6.48337">
        <ele>235.2</ele>
        <time>2024-02-04T10:28:45Z</time>
      </trkpt>
      <trkpt lat="43.17064" lon="6.48336">
        <ele>235.4</ele>
        <time>2024-02-04T10:28:46Z</time>
      </trkpt>
      <trkpt lat="43.17065" lon="6.48336">
        <ele>235.6</ele>
        <time>2024-02-04T10:28:47Z</time>
      </trkpt>
      <trkpt lat="43.17065" lon="6.48336">
        <ele>235.7</ele>
        <time>2024-02-04T10:28:48Z</time>
      </trkpt>
      <trkpt lat="43.17065" lon="6.48335">
        <ele>235.7</ele>
        <time>2024-02-04T10:28:49Z</time>
      </trkpt>
      <trkpt lat="43.17066" lon="6.48335">
        <ele>235.8</ele>
        <time>2024-02-04T10:28:50Z</time>
      </trkpt>
      <trkpt lat="43.17066" lon="6.48335">
        <ele>235.9</ele>
        <time>2024-02-04T10:28:51Z</time>
      </trkpt>
      <trkpt lat="43.17067" lon="6.48335">
        <ele>236</ele>
        <time>2024-02-04T10:28:52Z</time>
      </trkpt>
      <trkpt lat="43.17067" lon="6.48335">
        <ele>236.1</ele>
        <time>2024-02-04T10:28:53Z</time>
      </trkpt>
      <trkpt lat="43.17067" lon="6.48334">
        <ele>236.2</ele>
        <time>2024-02-04T10:28:54Z</time>
      </trkpt>
      <trkpt lat="43.17068" lon="6.48334">
        <ele>236.3</ele>
        <time>2024-02-04T10:28:55Z</time>
      </trkpt>
      <trkpt lat="43.17068" lon="6.48334">
        <ele>236.5</ele>
        <time>2024-02-04T10:28:56Z</time>
      </trkpt>
      <trkpt lat="43.17068" lon="6.48334">
        <ele>236.6</ele>
        <time>2024-02-04T10:28:57Z</time>
      </trkpt>
      <trkpt lat="43.17069" lon="6.48334">
        <ele>236.7</ele>
        <time>2024-02-04T10:28:58Z</time>
      </trkpt>
      <trkpt lat="43.17069" lon="6.48334">
        <ele>236.7</ele>
        <time>2024-02-04T10:28:59Z</time>
      </trkpt>
      <trkpt lat="43.1707" lon="6.48334">
        <ele>236.9</ele>
        <time>2024-02-04T10:29:00Z</time>
      </trkpt>
      <trkpt lat="43.1707" lon="6.48333">
        <ele>236.9</ele>
        <time>2024-02-04T10:29:01Z</time>
      </trkpt>
      <trkpt lat="43.17071" lon="6.48334">
        <ele>237</ele>
        <time>2024-02-04T10:29:02Z</time>
      </trkpt>
      <trkpt lat="43.17071" lon="6.48334">
        <ele>237.1</ele>
        <time>2024-02-04T10:29:03Z</time>
      </trkpt>
      <trkpt lat="43.17071" lon="6.48333">
        <ele>237.2</ele>
        <time>2024-02-04T10:29:04Z</time>
      </trkpt>
      <trkpt lat="43.17071" lon="6.48333">
        <ele>237.3</ele>
        <time>2024-02-04T10:29:05Z</time>
      </trkpt>
      <trkpt lat="43.17072" lon="6.48333">
        <ele>237.3</ele>
        <time>2024-02-04T10:29:06Z</time>
      </trkpt>
      <trkpt lat="43.17073" lon="6.48333">
        <ele>237.3</ele>
        <time>2024-02-04T10:29:07Z</time>
      </trkpt>
      <trkpt lat="43.17074" lon="6.48333">
        <ele>237.4</ele>
        <time>2024-02-04T10:29:08Z</time>
      </trkpt>
      <trkpt lat="43.17074" lon="6.48333">
        <ele>237.4</ele>
        <time>2024-02-04T10:29:09Z</time>
      </trkpt>
      <trkpt lat="43.17075" lon="6.48334">
        <ele>237.4</ele>
        <time>2024-02-04T10:29:10Z</time>
      </trkpt>
      <trkpt lat="43.17075" lon="6.48334">
        <ele>237.4</ele>
        <time>2024-02-04T10:29:11Z</time>
      </trkpt>
      <trkpt lat="43.17076" lon="6.48335">
        <ele>237.4</ele>
        <time>2024-02-04T10:29:12Z</time>
      </trkpt>
      <trkpt lat="43.17077" lon="6.48334">
        <ele>237.4</ele>
        <time>2024-02-04T10:29:13Z</time>
      </trkpt>
      <trkpt lat="43.17078" lon="6.48334">
        <ele>237.4</ele>
        <time>2024-02-04T10:29:14Z</time>
      </trkpt>
      <trkpt lat="43.17079" lon="6.48334">
        <ele>237.3</ele>
        <time>2024-02-04T10:29:15Z</time>
      </trkpt>
      <trkpt lat="43.1708" lon="6.48333">
        <ele>237.2</ele>
        <time>2024-02-04T10:29:16Z</time>
      </trkpt>
      <trkpt lat="43.1708" lon="6.48333">
        <ele>237.3</ele>
        <time>2024-02-04T10:29:17Z</time>
      </trkpt>
      <trkpt lat="43.17081" lon="6.48333">
        <ele>237.2</ele>
        <time>2024-02-04T10:29:18Z</time>
      </trkpt>
      <trkpt lat="43.17082" lon="6.48333">
        <ele>237.3</ele>
        <time>2024-02-04T10:29:19Z</time>
      </trkpt>
      <trkpt lat="43.17082" lon="6.48333">
        <ele>237.3</ele>
        <time>2024-02-04T10:29:20Z</time>
      </trkpt>
      <trkpt lat="43.17082" lon="6.48333">
        <ele>237.3</ele>
        <time>2024-02-04T10:29:21Z</time>
      </trkpt>
      <trkpt lat="43.17082" lon="6.48334">
        <ele>237.3</ele>
        <time>2024-02-04T10:29:22Z</time>
      </trkpt>
      <trkpt lat="43.17083" lon="6.48334">
        <ele>237.2</ele>
        <time>2024-02-04T10:29:23Z</time>
      </trkpt>
      <trkpt lat="43.17083" lon="6.48334">
        <ele>237.2</ele>
        <time>2024-02-04T10:29:24Z</time>
      </trkpt>
      <trkpt lat="43.17083" lon="6.48334">
        <ele>237.2</ele>
        <time>2024-02-04T10:29:25Z</time>
      </trkpt>
      <trkpt lat="43.17083" lon="6.48334">
        <ele>237.2</ele>
        <time>2024-02-04T10:29:26Z</time>
      </trkpt>
      <trkpt lat="43.17083" lon="6.48335">
        <ele>237.2</ele>
        <time>2024-02-04T10:29:27Z</time>
      </trkpt>
      <trkpt lat="43.17083" lon="6.48335">
        <ele>237.2</ele>
        <time>2024-02-04T10:29:28Z</time>
      </trkpt>
      <trkpt lat="43.17083" lon="6.48336">
        <ele>237.2</ele>
        <time>2024-02-04T10:29:29Z</time>
      </trkpt>
      <trkpt lat="43.17083" lon="6.48336">
        <ele>237.2</ele>
        <time>2024-02-04T10:29:30Z</time>
      </trkpt>
      <trkpt lat="43.17084" lon="6.48335">
        <ele>237.3</ele>
        <time>2024-02-04T10:29:31Z</time>
      </trkpt>
      <trkpt lat="43.17083" lon="6.48334">
        <ele>237.3</ele>
        <time>2024-02-04T10:29:32Z</time>
      </trkpt>
      <trkpt lat="43.17082" lon="6.48333">
        <ele>237.2</ele>
        <time>2024-02-04T10:29:33Z</time>
      </trkpt>
      <trkpt lat="43.17082" lon="6.48333">
        <ele>237.1</ele>
        <time>2024-02-04T10:29:34Z</time>
      </trkpt>
      <trkpt lat="43.17082" lon="6.48332">
        <ele>237</ele>
        <time>2024-02-04T10:29:35Z</time>
      </trkpt>
      <trkpt lat="43.17081" lon="6.48332">
        <ele>236.9</ele>
        <time>2024-02-04T10:29:36Z</time>
      </trkpt>
      <trkpt lat="43.1708" lon="6.48331">
        <ele>236.9</ele>
        <time>2024-02-04T10:29:37Z</time>
      </trkpt>
      <trkpt lat="43.17079" lon="6.48331">
        <ele>236.8</ele>
        <time>2024-02-04T10:29:38Z</time>
      </trkpt>
      <trkpt lat="43.17079" lon="6.48331">
        <ele>236.7</ele>
        <time>2024-02-04T10:29:39Z</time>
      </trkpt>
      <trkpt lat="43.17079" lon="6.48332">
        <ele>236.6</ele>
        <time>2024-02-04T10:29:40Z</time>
      </trkpt>
      <trkpt lat="43.17078" lon="6.48332">
        <ele>236.5</ele>
        <time>2024-02-04T10:29:41Z</time>
      </trkpt>
      <trkpt lat="43.17078" lon="6.48333">
        <ele>236.3</ele>
        <time>2024-02-04T10:29:42Z</time>
      </trkpt>
      <trkpt lat="43.17078" lon="6.48333">
        <ele>236.2</ele>
        <time>2024-02-04T10:29:43Z</time>
      </trkpt>
      <trkpt lat="43.17078" lon="6.48333">
        <ele>236.1</ele>
        <time>2024-02-04T10:29:44Z</time>
      </trkpt>
      <trkpt lat="43.17078" lon="6.48333">
        <ele>236</ele>
        <time>2024-02-04T10:29:45Z</time>
      </trkpt>
      <trkpt lat="43.17078" lon="6.48333">
        <ele>236</ele>
        <time>2024-02-04T10:29:46Z</time>
      </trkpt>
      <trkpt lat="43.17077" lon="6.48333">
        <ele>235.9</ele>
        <time>2024-02-04T10:29:47Z</time>
      </trkpt>
      <trkpt lat="43.17078" lon="6.48333">
        <ele>235.9</ele>
        <time>2024-02-04T10:29:48Z</time>
      </trkpt>
      <trkpt lat="43.17078" lon="6.48333">
        <ele>236.1</ele>
        <time>2024-02-04T10:29:49Z</time>
      </trkpt>
      <trkpt lat="43.17077" lon="6.48333">
        <ele>236.2</ele>
        <time>2024-02-04T10:29:50Z</time>
      </trkpt>
      <trkpt lat="43.17078" lon="6.48332">
        <ele>236.2</ele>
        <time>2024-02-04T10:29:51Z</time>
      </trkpt>
      <trkpt lat="43.17078" lon="6.48333">
        <ele>236.3</ele>
        <time>2024-02-04T10:29:52Z</time>
      </trkpt>
      <trkpt lat="43.17078" lon="6.48333">
        <ele>236.3</ele>
        <time>2024-02-04T10:29:53Z</time>
      </trkpt>
      <trkpt lat="43.17078" lon="6.48333">
        <ele>236.4</ele>
        <time>2024-02-04T10:29:54Z</time>
      </trkpt>
      <trkpt lat="43.17078" lon="6.48333">
        <ele>236.4</ele>
        <time>2024-02-04T10:29:55Z</time>
      </trkpt>
      <trkpt lat="43.17077" lon="6.48333">
        <ele>236.4</ele>
        <time>2024-02-04T10:29:56Z</time>
      </trkpt>
      <trkpt lat="43.17076" lon="6.48332">
        <ele>236.4</ele>
        <time>2024-02-04T10:29:57Z</time>
      </trkpt>
      <trkpt lat="43.17076" lon="6.48331">
        <ele>236.4</ele>
        <time>2024-02-04T10:29:58Z</time>
      </trkpt>
      <trkpt lat="43.17075" lon="6.48331">
        <ele>236.4</ele>
        <time>2024-02-04T10:29:59Z</time>
      </trkpt>
      <trkpt lat="43.17076" lon="6.48331">
        <ele>236.3</ele>
        <time>2024-02-04T10:30:00Z</time>
      </trkpt>
      <trkpt lat="43.17076" lon="6.48331">
        <ele>236.4</ele>
        <time>2024-02-04T10:30:01Z</time>
      </trkpt>
      <trkpt lat="43.17075" lon="6.48331">
        <ele>236.4</ele>
        <time>2024-02-04T10:30:02Z</time>
      </trkpt>
      <trkpt lat="43.17075" lon="6.48331">
        <ele>236.4</ele>
        <time>2024-02-04T10:30:03Z</time>
      </trkpt>
      <trkpt lat="43.17075" lon="6.48331">
        <ele>236.4</ele>
        <time>2024-02-04T10:30:04Z</time>
      </trkpt>
      <trkpt lat="43.17075" lon="6.4833">
        <ele>236.4</ele>
        <time>2024-02-04T10:30:05Z</time>
      </trkpt>
      <trkpt lat="43.17075" lon="6.4833">
        <ele>236.4</ele>
        <time>2024-02-04T10:30:06Z</time>
      </trkpt>
      <trkpt lat="43.17075" lon="6.48331">
        <ele>236.4</ele>
        <time>2024-02-04T10:30:07Z</time>
      </trkpt>
      <trkpt lat="43.17075" lon="6.48331">
        <ele>236.4</ele>
        <time>2024-02-04T10:30:08Z</time>
      </trkpt>
      <trkpt lat="43.17074" lon="6.48331">
        <ele>236.3</ele>
        <time>2024-02-04T10:30:09Z</time>
      </trkpt>
      <trkpt lat="43.17074" lon="6.48331">
        <ele>236.3</ele>
        <time>2024-02-04T10:30:10Z</time>
      </trkpt>
      <trkpt lat="43.17074" lon="6.48331">
        <ele>236.3</ele>
        <time>2024-02-04T10:30:11Z</time>
      </trkpt>
      <trkpt lat="43.17074" lon="6.48331">
        <ele>236.3</ele>
        <time>2024-02-04T10:30:12Z</time>
      </trkpt>
      <trkpt lat="43.17073" lon="6.48331">
        <ele>236.2</ele>
        <time>2024-02-04T10:30:13Z</time>
      </trkpt>
      <trkpt lat="43.17073" lon="6.48332">
        <ele>236.1</ele>
        <time>2024-02-04T10:30:14Z</time>
      </trkpt>
      <trkpt lat="43.17072" lon="6.48331">
        <ele>236</ele>
        <time>2024-02-04T10:30:15Z</time>
      </trkpt>
      <trkpt lat="43.17073" lon="6.48328">
        <ele>235.9</ele>
        <time>2024-02-04T10:30:16Z</time>
      </trkpt>
      <trkpt lat="43.17072" lon="6.48327">
        <ele>235.8</ele>
        <time>2024-02-04T10:30:17Z</time>
      </trkpt>
      <trkpt lat="43.17072" lon="6.48325">
        <ele>235.7</ele>
        <time>2024-02-04T10:30:18Z</time>
      </trkpt>
      <trkpt lat="43.17072" lon="6.48324">
        <ele>235.6</ele>
        <time>2024-02-04T10:30:19Z</time>
      </trkpt>
      <trkpt lat="43.17072" lon="6.48323">
        <ele>235.5</ele>
        <time>2024-02-04T10:30:20Z</time>
      </trkpt>
      <trkpt lat="43.17072" lon="6.48321">
        <ele>235.6</ele>
        <time>2024-02-04T10:30:21Z</time>
      </trkpt>
      <trkpt lat="43.17072" lon="6.4832">
        <ele>235.6</ele>
        <time>2024-02-04T10:30:22Z</time>
      </trkpt>
      <trkpt lat="43.17071" lon="6.4832">
        <ele>235.6</ele>
        <time>2024-02-04T10:30:23Z</time>
      </trkpt>
      <trkpt lat="43.17072" lon="6.48318">
        <ele>235.7</ele>
        <time>2024-02-04T10:30:24Z</time>
      </trkpt>
      <trkpt lat="43.17072" lon="6.48317">
        <ele>235.8</ele>
        <time>2024-02-04T10:30:25Z</time>
      </trkpt>
      <trkpt lat="43.17072" lon="6.48317">
        <ele>235.9</ele>
        <time>2024-02-04T10:30:26Z</time>
      </trkpt>
      <trkpt lat="43.17072" lon="6.48317">
        <ele>236</ele>
        <time>2024-02-04T10:30:27Z</time>
      </trkpt>
      <trkpt lat="43.17072" lon="6.48316">
        <ele>236</ele>
        <time>2024-02-04T10:30:28Z</time>
      </trkpt>
      <trkpt lat="43.17073" lon="6.48315">
        <ele>236.2</ele>
        <time>2024-02-04T10:30:29Z</time>
      </trkpt>
      <trkpt lat="43.17073" lon="6.48315">
        <ele>236.3</ele>
        <time>2024-02-04T10:30:30Z</time>
      </trkpt>
      <trkpt lat="43.17073" lon="6.48315">
        <ele>236.5</ele>
        <time>2024-02-04T10:30:31Z</time>
      </trkpt>
      <trkpt lat="43.17074" lon="6.48313">
        <ele>236.6</ele>
        <time>2024-02-04T10:30:32Z</time>
      </trkpt>
      <trkpt lat="43.17074" lon="6.48312">
        <ele>236.7</ele>
        <time>2024-02-04T10:30:33Z</time>
      </trkpt>
      <trkpt lat="43.17074" lon="6.48311">
        <ele>236.8</ele>
        <time>2024-02-04T10:30:34Z</time>
      </trkpt>
      <trkpt lat="43.17075" lon="6.48311">
        <ele>236.9</ele>
        <time>2024-02-04T10:30:35Z</time>
      </trkpt>
      <trkpt lat="43.17075" lon="6.4831">
        <ele>237</ele>
        <time>2024-02-04T10:30:36Z</time>
      </trkpt>
      <trkpt lat="43.17075" lon="6.4831">
        <ele>237.1</ele>
        <time>2024-02-04T10:30:37Z</time>
      </trkpt>
      <trkpt lat="43.17076" lon="6.4831">
        <ele>237.1</ele>
        <time>2024-02-04T10:30:38Z</time>
      </trkpt>
      <trkpt lat="43.17076" lon="6.4831">
        <ele>237.2</ele>
        <time>2024-02-04T10:30:39Z</time>
      </trkpt>
      <trkpt lat="43.17076" lon="6.4831">
        <ele>237.1</ele>
        <time>2024-02-04T10:30:40Z</time>
      </trkpt>
      <trkpt lat="43.17076" lon="6.4831">
        <ele>237.1</ele>
        <time>2024-02-04T10:30:41Z</time>
      </trkpt>
      <trkpt lat="43.17076" lon="6.48309">
        <ele>237.1</ele>
        <time>2024-02-04T10:30:42Z</time>
      </trkpt>
      <trkpt lat="43.17076" lon="6.48309">
        <ele>237.3</ele>
        <time>2024-02-04T10:30:43Z</time>
      </trkpt>
      <trkpt lat="43.17077" lon="6.48309">
        <ele>237.3</ele>
        <time>2024-02-04T10:30:44Z</time>
      </trkpt>
      <trkpt lat="43.17077" lon="6.48309">
        <ele>237.3</ele>
        <time>2024-02-04T10:30:45Z</time>
      </trkpt>
      <trkpt lat="43.17077" lon="6.48309">
        <ele>237.2</ele>
        <time>2024-02-04T10:30:46Z</time>
      </trkpt>
      <trkpt lat="43.17078" lon="6.48308">
        <ele>237.3</ele>
        <time>2024-02-04T10:30:47Z</time>
      </trkpt>
      <trkpt lat="43.17078" lon="6.48308">
        <ele>237.4</ele>
        <time>2024-02-04T10:30:48Z</time>
      </trkpt>
      <trkpt lat="43.17079" lon="6.48308">
        <ele>237.3</ele>
        <time>2024-02-04T10:30:49Z</time>
      </trkpt>
      <trkpt lat="43.17079" lon="6.48308">
        <ele>237.4</ele>
        <time>2024-02-04T10:30:50Z</time>
      </trkpt>
      <trkpt lat="43.1708" lon="6.48307">
        <ele>237.5</ele>
        <time>2024-02-04T10:30:51Z</time>
      </trkpt>
      <trkpt lat="43.1708" lon="6.48307">
        <ele>237.6</ele>
        <time>2024-02-04T10:30:52Z</time>
      </trkpt>
      <trkpt lat="43.17081" lon="6.48307">
        <ele>237.6</ele>
        <time>2024-02-04T10:30:53Z</time>
      </trkpt>
      <trkpt lat="43.17081" lon="6.48307">
        <ele>237.7</ele>
        <time>2024-02-04T10:30:54Z</time>
      </trkpt>
      <trkpt lat="43.17081" lon="6.48307">
        <ele>237.8</ele>
        <time>2024-02-04T10:30:55Z</time>
      </trkpt>
      <trkpt lat="43.17081" lon="6.48307">
        <ele>237.9</ele>
        <time>2024-02-04T10:30:56Z</time>
      </trkpt>
      <trkpt lat="43.17082" lon="6.48306">
        <ele>237.9</ele>
        <time>2024-02-04T10:30:57Z</time>
      </trkpt>
      <trkpt lat="43.17082" lon="6.48306">
        <ele>237.9</ele>
        <time>2024-02-04T10:30:58Z</time>
      </trkpt>
      <trkpt lat="43.17082" lon="6.48306">
        <ele>238</ele>
        <time>2024-02-04T10:30:59Z</time>
      </trkpt>
      <trkpt lat="43.17083" lon="6.48306">
        <ele>238.1</ele>
        <time>2024-02-04T10:31:00Z</time>
      </trkpt>
      <trkpt lat="43.17083" lon="6.48305">
        <ele>238.2</ele>
        <time>2024-02-04T10:31:01Z</time>
      </trkpt>
      <trkpt lat="43.17084" lon="6.48305">
        <ele>238.3</ele>
        <time>2024-02-04T10:31:02Z</time>
      </trkpt>
      <trkpt lat="43.17084" lon="6.48305">
        <ele>238.5</ele>
        <time>2024-02-04T10:31:03Z</time>
      </trkpt>
      <trkpt lat="43.17084" lon="6.48304">
        <ele>238.8</ele>
        <time>2024-02-04T10:31:04Z</time>
      </trkpt>
      <trkpt lat="43.17085" lon="6.48304">
        <ele>238.9</ele>
        <time>2024-02-04T10:31:05Z</time>
      </trkpt>
      <trkpt lat="43.17085" lon="6.48304">
        <ele>239.2</ele>
        <time>2024-02-04T10:31:06Z</time>
      </trkpt>
      <trkpt lat="43.17085" lon="6.48303">
        <ele>239.2</ele>
        <time>2024-02-04T10:31:07Z</time>
      </trkpt>
      <trkpt lat="43.17086" lon="6.48303">
        <ele>239.3</ele>
        <time>2024-02-04T10:31:08Z</time>
      </trkpt>
      <trkpt lat="43.17086" lon="6.48303">
        <ele>239.4</ele>
        <time>2024-02-04T10:31:09Z</time>
      </trkpt>
      <trkpt lat="43.17086" lon="6.48303">
        <ele>239.5</ele>
        <time>2024-02-04T10:31:10Z</time>
      </trkpt>
      <trkpt lat="43.17087" lon="6.48303">
        <ele>239.7</ele>
        <time>2024-02-04T10:31:11Z</time>
      </trkpt>
      <trkpt lat="43.17087" lon="6.48302">
        <ele>239.8</ele>
        <time>2024-02-04T10:31:12Z</time>
      </trkpt>
      <trkpt lat="43.17088" lon="6.48302">
        <ele>240</ele>
        <time>2024-02-04T10:31:13Z</time>
      </trkpt>
      <trkpt lat="43.17088" lon="6.48301">
        <ele>240.1</ele>
        <time>2024-02-04T10:31:14Z</time>
      </trkpt>
      <trkpt lat="43.17089" lon="6.48301">
        <ele>240.2</ele>
        <time>2024-02-04T10:31:15Z</time>
      </trkpt>
      <trkpt lat="43.17089" lon="6.48301">
        <ele>240.4</ele>
        <time>2024-02-04T10:31:16Z</time>
      </trkpt>
      <trkpt lat="43.17089" lon="6.483">
        <ele>240.5</ele>
        <time>2024-02-04T10:31:17Z</time>
      </trkpt>
      <trkpt lat="43.17089" lon="6.483">
        <ele>240.6</ele>
        <time>2024-02-04T10:31:18Z</time>
      </trkpt>
      <trkpt lat="43.1709" lon="6.48299">
        <ele>240.6</ele>
        <time>2024-02-04T10:31:19Z</time>
      </trkpt>
      <trkpt lat="43.1709" lon="6.48299">
        <ele>240.7</ele>
        <time>2024-02-04T10:31:20Z</time>
      </trkpt>
      <trkpt lat="43.1709" lon="6.48299">
        <ele>240.8</ele>
        <time>2024-02-04T10:31:21Z</time>
      </trkpt>
      <trkpt lat="43.1709" lon="6.48299">
        <ele>241</ele>
        <time>2024-02-04T10:31:22Z</time>
      </trkpt>
      <trkpt lat="43.17091" lon="6.48299">
        <ele>241.1</ele>
        <time>2024-02-04T10:31:23Z</time>
      </trkpt>
      <trkpt lat="43.17091" lon="6.48298">
        <ele>241.2</ele>
        <time>2024-02-04T10:31:24Z</time>
      </trkpt>
      <trkpt lat="43.17091" lon="6.48298">
        <ele>241.3</ele>
        <time>2024-02-04T10:31:25Z</time>
      </trkpt>
      <trkpt lat="43.17092" lon="6.48298">
        <ele>241.4</ele>
        <time>2024-02-04T10:31:26Z</time>
      </trkpt>
      <trkpt lat="43.17092" lon="6.48297">
        <ele>241.5</ele>
        <time>2024-02-04T10:31:27Z</time>
      </trkpt>
      <trkpt lat="43.17093" lon="6.48297">
        <ele>241.6</ele>
        <time>2024-02-04T10:31:28Z</time>
      </trkpt>
      <trkpt lat="43.17093" lon="6.48297">
        <ele>241.8</ele>
        <time>2024-02-04T10:31:29Z</time>
      </trkpt>
      <trkpt lat="43.17093" lon="6.48296">
        <ele>242</ele>
        <time>2024-02-04T10:31:30Z</time>
      </trkpt>
      <trkpt lat="43.17094" lon="6.48296">
        <ele>242.1</ele>
        <time>2024-02-04T10:31:31Z</time>
      </trkpt>
      <trkpt lat="43.17094" lon="6.48296">
        <ele>242.3</ele>
        <time>2024-02-04T10:31:32Z</time>
      </trkpt>
      <trkpt lat="43.17094" lon="6.48296">
        <ele>242.5</ele>
        <time>2024-02-04T10:31:33Z</time>
      </trkpt>
      <trkpt lat="43.17094" lon="6.48296">
        <ele>242.7</ele>
        <time>2024-02-04T10:31:34Z</time>
      </trkpt>
      <trkpt lat="43.17094" lon="6.48296">
        <ele>242.9</ele>
        <time>2024-02-04T10:31:35Z</time>
      </trkpt>
      <trkpt lat="43.17095" lon="6.48295">
        <ele>243</ele>
        <time>2024-02-04T10:31:36Z</time>
      </trkpt>
      <trkpt lat="43.17095" lon="6.48295">
        <ele>243.2</ele>
        <time>2024-02-04T10:31:37Z</time>
      </trkpt>
      <trkpt lat="43.17096" lon="6.48295">
        <ele>243.2</ele>
        <time>2024-02-04T10:31:38Z</time>
      </trkpt>
      <trkpt lat="43.17096" lon="6.48295">
        <ele>243.2</ele>
        <time>2024-02-04T10:31:39Z</time>
      </trkpt>
      <trkpt lat="43.17096" lon="6.48294">
        <ele>243.4</ele>
        <time>2024-02-04T10:31:40Z</time>
      </trkpt>
      <trkpt lat="43.17096" lon="6.48294">
        <ele>243.5</ele>
        <time>2024-02-04T10:31:41Z</time>
      </trkpt>
      <trkpt lat="43.17095" lon="6.48294">
        <ele>243.6</ele>
        <time>2024-02-04T10:31:42Z</time>
      </trkpt>
      <trkpt lat="43.17096" lon="6.48294">
        <ele>243.7</ele>
        <time>2024-02-04T10:31:43Z</time>
      </trkpt>
      <trkpt lat="43.17096" lon="6.48294">
        <ele>243.7</ele>
        <time>2024-02-04T10:31:44Z</time>
      </trkpt>
      <trkpt lat="43.17096" lon="6.48293">
        <ele>243.7</ele>
        <time>2024-02-04T10:31:45Z</time>
      </trkpt>
      <trkpt lat="43.17096" lon="6.48293">
        <ele>243.8</ele>
        <time>2024-02-04T10:31:46Z</time>
      </trkpt>
      <trkpt lat="43.17096" lon="6.48293">
        <ele>243.9</ele>
        <time>2024-02-04T10:31:47Z</time>
      </trkpt>
      <trkpt lat="43.17096" lon="6.48293">
        <ele>243.9</ele>
        <time>2024-02-04T10:31:48Z</time>
      </trkpt>
      <trkpt lat="43.17097" lon="6.48293">
        <ele>244</ele>
        <time>2024-02-04T10:31:49Z</time>
      </trkpt>
      <trkpt lat="43.17097" lon="6.48293">
        <ele>244.1</ele>
        <time>2024-02-04T10:31:50Z</time>
      </trkpt>
      <trkpt lat="43.17097" lon="6.48293">
        <ele>244.1</ele>
        <time>2024-02-04T10:31:51Z</time>
      </trkpt>
      <trkpt lat="43.17097" lon="6.48293">
        <ele>244.2</ele>
        <time>2024-02-04T10:31:52Z</time>
      </trkpt>
      <trkpt lat="43.17097" lon="6.48294">
        <ele>244.3</ele>
        <time>2024-02-04T10:31:53Z</time>
      </trkpt>
      <trkpt lat="43.17098" lon="6.48294">
        <ele>244.3</ele>
        <time>2024-02-04T10:31:54Z</time>
      </trkpt>
      <trkpt lat="43.17098" lon="6.48294">
        <ele>244.3</ele>
        <time>2024-02-04T10:31:55Z</time>
      </trkpt>
      <trkpt lat="43.17098" lon="6.48295">
        <ele>244.3</ele>
        <time>2024-02-04T10:31:56Z</time>
      </trkpt>
      <trkpt lat="43.17098" lon="6.48295">
        <ele>244.3</ele>
        <time>2024-02-04T10:31:57Z</time>
      </trkpt>
      <trkpt lat="43.17098" lon="6.48295">
        <ele>244.3</ele>
        <time>2024-02-04T10:31:58Z</time>
      </trkpt>
      <trkpt lat="43.17099" lon="6.48296">
        <ele>244.4</ele>
        <time>2024-02-04T10:31:59Z</time>
      </trkpt>
      <trkpt lat="43.17099" lon="6.48297">
        <ele>244.4</ele>
        <time>2024-02-04T10:32:00Z</time>
      </trkpt>
      <trkpt lat="43.17099" lon="6.48298">
        <ele>244.4</ele>
        <time>2024-02-04T10:32:01Z</time>
      </trkpt>
      <trkpt lat="43.171" lon="6.48298">
        <ele>244.4</ele>
        <time>2024-02-04T10:32:02Z</time>
      </trkpt>
      <trkpt lat="43.171" lon="6.48298">
        <ele>244.5</ele>
        <time>2024-02-04T10:32:03Z</time>
      </trkpt>
      <trkpt lat="43.171" lon="6.48299">
        <ele>244.5</ele>
        <time>2024-02-04T10:32:04Z</time>
      </trkpt>
      <trkpt lat="43.171" lon="6.48299">
        <ele>244.6</ele>
        <time>2024-02-04T10:32:05Z</time>
      </trkpt>
      <trkpt lat="43.171" lon="6.48299">
        <ele>244.6</ele>
        <time>2024-02-04T10:32:06Z</time>
      </trkpt>
      <trkpt lat="43.17101" lon="6.48299">
        <ele>244.7</ele>
        <time>2024-02-04T10:32:07Z</time>
      </trkpt>
      <trkpt lat="43.17101" lon="6.48299">
        <ele>244.8</ele>
        <time>2024-02-04T10:32:08Z</time>
      </trkpt>
      <trkpt lat="43.17102" lon="6.48299">
        <ele>244.9</ele>
        <time>2024-02-04T10:32:09Z</time>
      </trkpt>
      <trkpt lat="43.17102" lon="6.48299">
        <ele>245</ele>
        <time>2024-02-04T10:32:10Z</time>
      </trkpt>
      <trkpt lat="43.17102" lon="6.48299">
        <ele>245.1</ele>
        <time>2024-02-04T10:32:11Z</time>
      </trkpt>
      <trkpt lat="43.17102" lon="6.48299">
        <ele>245.1</ele>
        <time>2024-02-04T10:32:12Z</time>
      </trkpt>
      <trkpt lat="43.17102" lon="6.48299">
        <ele>245.2</ele>
        <time>2024-02-04T10:32:13Z</time>
      </trkpt>
      <trkpt lat="43.17102" lon="6.48299">
        <ele>245.3</ele>
        <time>2024-02-04T10:32:14Z</time>
      </trkpt>
      <trkpt lat="43.17102" lon="6.48298">
        <ele>245.2</ele>
        <time>2024-02-04T10:32:15Z</time>
      </trkpt>
      <trkpt lat="43.17102" lon="6.48298">
        <ele>245.3</ele>
        <time>2024-02-04T10:32:16Z</time>
      </trkpt>
      <trkpt lat="43.17102" lon="6.48298">
        <ele>245.2</ele>
        <time>2024-02-04T10:32:17Z</time>
      </trkpt>
      <trkpt lat="43.17102" lon="6.48297">
        <ele>245.1</ele>
        <time>2024-02-04T10:32:18Z</time>
      </trkpt>
      <trkpt lat="43.17102" lon="6.48296">
        <ele>245</ele>
        <time>2024-02-04T10:32:19Z</time>
      </trkpt>
      <trkpt lat="43.17101" lon="6.48296">
        <ele>244.9</ele>
        <time>2024-02-04T10:32:20Z</time>
      </trkpt>
      <trkpt lat="43.17101" lon="6.48295">
        <ele>244.8</ele>
        <time>2024-02-04T10:32:21Z</time>
      </trkpt>
      <trkpt lat="43.17101" lon="6.48294">
        <ele>244.7</ele>
        <time>2024-02-04T10:32:22Z</time>
      </trkpt>
      <trkpt lat="43.171" lon="6.48293">
        <ele>244.6</ele>
        <time>2024-02-04T10:32:23Z</time>
      </trkpt>
      <trkpt lat="43.171" lon="6.48292">
        <ele>244.5</ele>
        <time>2024-02-04T10:32:24Z</time>
      </trkpt>
      <trkpt lat="43.171" lon="6.48292">
        <ele>244.4</ele>
        <time>2024-02-04T10:32:25Z</time>
      </trkpt>
      <trkpt lat="43.17101" lon="6.48291">
        <ele>244.4</ele>
        <time>2024-02-04T10:32:26Z</time>
      </trkpt>
      <trkpt lat="43.17101" lon="6.4829">
        <ele>244.3</ele>
        <time>2024-02-04T10:32:27Z</time>
      </trkpt>
      <trkpt lat="43.17101" lon="6.48289">
        <ele>244.4</ele>
        <time>2024-02-04T10:32:28Z</time>
      </trkpt>
      <trkpt lat="43.171" lon="6.48288">
        <ele>244.5</ele>
        <time>2024-02-04T10:32:29Z</time>
      </trkpt>
      <trkpt lat="43.171" lon="6.48288">
        <ele>244.5</ele>
        <time>2024-02-04T10:32:30Z</time>
      </trkpt>
      <trkpt lat="43.171" lon="6.48287">
        <ele>244.6</ele>
        <time>2024-02-04T10:32:31Z</time>
      </trkpt>
      <trkpt lat="43.171" lon="6.48287">
        <ele>244.6</ele>
        <time>2024-02-04T10:32:32Z</time>
      </trkpt>
      <trkpt lat="43.171" lon="6.48286">
        <ele>244.7</ele>
        <time>2024-02-04T10:32:33Z</time>
      </trkpt>
      <trkpt lat="43.171" lon="6.48286">
        <ele>244.8</ele>
        <time>2024-02-04T10:32:34Z</time>
      </trkpt>
      <trkpt lat="43.17099" lon="6.48286">
        <ele>244.8</ele>
        <time>2024-02-04T10:32:35Z</time>
      </trkpt>
      <trkpt lat="43.17098" lon="6.48286">
        <ele>244.8</ele>
        <time>2024-02-04T10:32:36Z</time>
      </trkpt>
      <trkpt lat="43.17098" lon="6.48286">
        <ele>244.9</ele>
        <time>2024-02-04T10:32:37Z</time>
      </trkpt>
      <trkpt lat="43.17098" lon="6.48286">
        <ele>245</ele>
        <time>2024-02-04T10:32:38Z</time>
      </trkpt>
      <trkpt lat="43.17098" lon="6.48286">
        <ele>245</ele>
        <time>2024-02-04T10:32:39Z</time>
      </trkpt>
      <trkpt lat="43.17098" lon="6.48287">
        <ele>245.1</ele>
        <time>2024-02-04T10:32:40Z</time>
      </trkpt>
      <trkpt lat="43.17099" lon="6.48287">
        <ele>245.2</ele>
        <time>2024-02-04T10:32:41Z</time>
      </trkpt>
      <trkpt lat="43.171" lon="6.48287">
        <ele>245.3</ele>
        <time>2024-02-04T10:32:42Z</time>
      </trkpt>
      <trkpt lat="43.17101" lon="6.48287">
        <ele>245.4</ele>
        <time>2024-02-04T10:32:43Z</time>
      </trkpt>
      <trkpt lat="43.17101" lon="6.48287">
        <ele>245.6</ele>
        <time>2024-02-04T10:32:44Z</time>
      </trkpt>
      <trkpt lat="43.17102" lon="6.48288">
        <ele>245.7</ele>
        <time>2024-02-04T10:32:45Z</time>
      </trkpt>
      <trkpt lat="43.17103" lon="6.48288">
        <ele>245.9</ele>
        <time>2024-02-04T10:32:46Z</time>
      </trkpt>
      <trkpt lat="43.17103" lon="6.48289">
        <ele>246.1</ele>
        <time>2024-02-04T10:32:47Z</time>
      </trkpt>
      <trkpt lat="43.17104" lon="6.4829">
        <ele>246.4</ele>
        <time>2024-02-04T10:32:48Z</time>
      </trkpt>
      <trkpt lat="43.17105" lon="6.48291">
        <ele>246.6</ele>
        <time>2024-02-04T10:32:49Z</time>
      </trkpt>
      <trkpt lat="43.17106" lon="6.48292">
        <ele>246.8</ele>
        <time>2024-02-04T10:32:50Z</time>
      </trkpt>
      <trkpt lat="43.17106" lon="6.48292">
        <ele>247</ele>
        <time>2024-02-04T10:32:51Z</time>
      </trkpt>
      <trkpt lat="43.17107" lon="6.48292">
        <ele>247.1</ele>
        <time>2024-02-04T10:32:52Z</time>
      </trkpt>
      <trkpt lat="43.17107" lon="6.48293">
        <ele>247.2</ele>
        <time>2024-02-04T10:32:53Z</time>
      </trkpt>
      <trkpt lat="43.17108" lon="6.48294">
        <ele>247.2</ele>
        <time>2024-02-04T10:32:54Z</time>
      </trkpt>
      <trkpt lat="43.17109" lon="6.48295">
        <ele>247.3</ele>
        <time>2024-02-04T10:32:55Z</time>
      </trkpt>
      <trkpt lat="43.17109" lon="6.48296">
        <ele>247.5</ele>
        <time>2024-02-04T10:32:56Z</time>
      </trkpt>
      <trkpt lat="43.1711" lon="6.48296">
        <ele>247.7</ele>
        <time>2024-02-04T10:32:57Z</time>
      </trkpt>
      <trkpt lat="43.17111" lon="6.48296">
        <ele>247.8</ele>
        <time>2024-02-04T10:32:58Z</time>
      </trkpt>
      <trkpt lat="43.17111" lon="6.48296">
        <ele>248</ele>
        <time>2024-02-04T10:32:59Z</time>
      </trkpt>
      <trkpt lat="43.17112" lon="6.48296">
        <ele>248.2</ele>
        <time>2024-02-04T10:33:00Z</time>
      </trkpt>
      <trkpt lat="43.17113" lon="6.48297">
        <ele>248.4</ele>
        <time>2024-02-04T10:33:01Z</time>
      </trkpt>
      <trkpt lat="43.17114" lon="6.48297">
        <ele>248.7</ele>
        <time>2024-02-04T10:33:02Z</time>
      </trkpt>
      <trkpt lat="43.17115" lon="6.48297">
        <ele>249.1</ele>
        <time>2024-02-04T10:33:03Z</time>
      </trkpt>
      <trkpt lat="43.17115" lon="6.48297">
        <ele>249.4</ele>
        <time>2024-02-04T10:33:04Z</time>
      </trkpt>
      <trkpt lat="43.17116" lon="6.48297">
        <ele>249.6</ele>
        <time>2024-02-04T10:33:05Z</time>
      </trkpt>
      <trkpt lat="43.17117" lon="6.48297">
        <ele>249.8</ele>
        <time>2024-02-04T10:33:06Z</time>
      </trkpt>
      <trkpt lat="43.17118" lon="6.48297">
        <ele>250</ele>
        <time>2024-02-04T10:33:07Z</time>
      </trkpt>
      <trkpt lat="43.17118" lon="6.48297">
        <ele>250.2</ele>
        <time>2024-02-04T10:33:08Z</time>
      </trkpt>
      <trkpt lat="43.17119" lon="6.48297">
        <ele>250.4</ele>
        <time>2024-02-04T10:33:09Z</time>
      </trkpt>
      <trkpt lat="43.1712" lon="6.48296">
        <ele>250.6</ele>
        <time>2024-02-04T10:33:10Z</time>
      </trkpt>
      <trkpt lat="43.1712" lon="6.48296">
        <ele>250.8</ele>
        <time>2024-02-04T10:33:11Z</time>
      </trkpt>
      <trkpt lat="43.17121" lon="6.48296">
        <ele>250.9</ele>
        <time>2024-02-04T10:33:12Z</time>
      </trkpt>
      <trkpt lat="43.17121" lon="6.48296">
        <ele>251.1</ele>
        <time>2024-02-04T10:33:13Z</time>
      </trkpt>
      <trkpt lat="43.17122" lon="6.48297">
        <ele>251.2</ele>
        <time>2024-02-04T10:33:14Z</time>
      </trkpt>
      <trkpt lat="43.17121" lon="6.48297">
        <ele>251.3</ele>
        <time>2024-02-04T10:33:15Z</time>
      </trkpt>
      <trkpt lat="43.17122" lon="6.48297">
        <ele>251.5</ele>
        <time>2024-02-04T10:33:16Z</time>
      </trkpt>
      <trkpt lat="43.17122" lon="6.48297">
        <ele>251.6</ele>
        <time>2024-02-04T10:33:17Z</time>
      </trkpt>
      <trkpt lat="43.17122" lon="6.48297">
        <ele>251.7</ele>
        <time>2024-02-04T10:33:18Z</time>
      </trkpt>
      <trkpt lat="43.17122" lon="6.48297">
        <ele>251.8</ele>
        <time>2024-02-04T10:33:19Z</time>
      </trkpt>
      <trkpt lat="43.17122" lon="6.48297">
        <ele>251.9</ele>
        <time>2024-02-04T10:33:20Z</time>
      </trkpt>
      <trkpt lat="43.17122" lon="6.48296">
        <ele>252</ele>
        <time>2024-02-04T10:33:21Z</time>
      </trkpt>
      <trkpt lat="43.17122" lon="6.48296">
        <ele>252.1</ele>
        <time>2024-02-04T10:33:22Z</time>
      </trkpt>
      <trkpt lat="43.17122" lon="6.48296">
        <ele>252.2</ele>
        <time>2024-02-04T10:33:23Z</time>
      </trkpt>
      <trkpt lat="43.17123" lon="6.48296">
        <ele>252.2</ele>
        <time>2024-02-04T10:33:24Z</time>
      </trkpt>
      <trkpt lat="43.17123" lon="6.48296">
        <ele>252.1</ele>
        <time>2024-02-04T10:33:25Z</time>
      </trkpt>
      <trkpt lat="43.17123" lon="6.48296">
        <ele>252.2</ele>
        <time>2024-02-04T10:33:26Z</time>
      </trkpt>
      <trkpt lat="43.17123" lon="6.48296">
        <ele>252.2</ele>
        <time>2024-02-04T10:33:27Z</time>
      </trkpt>
      <trkpt lat="43.17123" lon="6.48296">
        <ele>252.2</ele>
        <time>2024-02-04T10:33:28Z</time>
      </trkpt>
      <trkpt lat="43.17123" lon="6.48296">
        <ele>252.2</ele>
        <time>2024-02-04T10:33:29Z</time>
      </trkpt>
      <trkpt lat="43.17123" lon="6.48296">
        <ele>252.2</ele>
        <time>2024-02-04T10:33:30Z</time>
      </trkpt>
      <trkpt lat="43.17123" lon="6.48296">
        <ele>252.3</ele>
        <time>2024-02-04T10:33:31Z</time>
      </trkpt>
      <trkpt lat="43.17124" lon="6.48296">
        <ele>252.3</ele>
        <time>2024-02-04T10:33:32Z</time>
      </trkpt>
      <trkpt lat="43.17124" lon="6.48296">
        <ele>252.3</ele>
        <time>2024-02-04T10:33:33Z</time>
      </trkpt>
      <trkpt lat="43.17124" lon="6.48296">
        <ele>252.4</ele>
        <time>2024-02-04T10:33:34Z</time>
      </trkpt>
      <trkpt lat="43.17124" lon="6.48296">
        <ele>252.3</ele>
        <time>2024-02-04T10:33:35Z</time>
      </trkpt>
      <trkpt lat="43.17125" lon="6.48296">
        <ele>252.4</ele>
        <time>2024-02-04T10:33:36Z</time>
      </trkpt>
      <trkpt lat="43.17125" lon="6.48296">
        <ele>252.4</ele>
        <time>2024-02-04T10:33:37Z</time>
      </trkpt>
      <trkpt lat="43.17125" lon="6.48296">
        <ele>252.4</ele>
        <time>2024-02-04T10:33:38Z</time>
      </trkpt>
      <trkpt lat="43.17124" lon="6.48296">
        <ele>252.4</ele>
        <time>2024-02-04T10:33:39Z</time>
      </trkpt>
      <trkpt lat="43.17124" lon="6.48296">
        <ele>252.5</ele>
        <time>2024-02-04T10:33:40Z</time>
      </trkpt>
      <trkpt lat="43.17124" lon="6.48295">
        <ele>252.5</ele>
        <time>2024-02-04T10:33:41Z</time>
      </trkpt>
      <trkpt lat="43.17125" lon="6.48295">
        <ele>252.6</ele>
        <time>2024-02-04T10:33:42Z</time>
      </trkpt>
      <trkpt lat="43.17125" lon="6.48294">
        <ele>252.6</ele>
        <time>2024-02-04T10:33:43Z</time>
      </trkpt>
      <trkpt lat="43.17125" lon="6.48294">
        <ele>252.6</ele>
        <time>2024-02-04T10:33:44Z</time>
      </trkpt>
      <trkpt lat="43.17125" lon="6.48293">
        <ele>252.6</ele>
        <time>2024-02-04T10:33:45Z</time>
      </trkpt>
      <trkpt lat="43.17125" lon="6.48293">
        <ele>252.6</ele>
        <time>2024-02-04T10:33:46Z</time>
      </trkpt>
      <trkpt lat="43.17125" lon="6.48293">
        <ele>252.6</ele>
        <time>2024-02-04T10:33:47Z</time>
      </trkpt>
      <trkpt lat="43.17125" lon="6.48292">
        <ele>252.6</ele>
        <time>2024-02-04T10:33:48Z</time>
      </trkpt>
      <trkpt lat="43.17125" lon="6.48292">
        <ele>252.6</ele>
        <time>2024-02-04T10:33:49Z</time>
      </trkpt>
      <trkpt lat="43.17125" lon="6.48292">
        <ele>252.5</ele>
        <time>2024-02-04T10:33:50Z</time>
      </trkpt>
      <trkpt lat="43.17125" lon="6.48292">
        <ele>252.4</ele>
        <time>2024-02-04T10:33:51Z</time>
      </trkpt>
      <trkpt lat="43.17126" lon="6.48292">
        <ele>252.4</ele>
        <time>2024-02-04T10:33:52Z</time>
      </trkpt>
      <trkpt lat="43.17127" lon="6.48293">
        <ele>252.5</ele>
        <time>2024-02-04T10:33:53Z</time>
      </trkpt>
      <trkpt lat="43.17127" lon="6.48293">
        <ele>252.4</ele>
        <time>2024-02-04T10:33:54Z</time>
      </trkpt>
      <trkpt lat="43.17128" lon="6.48294">
        <ele>252.3</ele>
        <time>2024-02-04T10:33:55Z</time>
      </trkpt>
      <trkpt lat="43.17128" lon="6.48295">
        <ele>252.2</ele>
        <time>2024-02-04T10:33:56Z</time>
      </trkpt>
      <trkpt lat="43.17128" lon="6.48296">
        <ele>252.1</ele>
        <time>2024-02-04T10:33:57Z</time>
      </trkpt>
      <trkpt lat="43.17129" lon="6.48296">
        <ele>251.9</ele>
        <time>2024-02-04T10:33:58Z</time>
      </trkpt>
      <trkpt lat="43.17129" lon="6.48297">
        <ele>251.8</ele>
        <time>2024-02-04T10:33:59Z</time>
      </trkpt>
      <trkpt lat="43.17129" lon="6.48298">
        <ele>251.6</ele>
        <time>2024-02-04T10:34:00Z</time>
      </trkpt>
      <trkpt lat="43.17129" lon="6.48299">
        <ele>251.6</ele>
        <time>2024-02-04T10:34:01Z</time>
      </trkpt>
      <trkpt lat="43.1713" lon="6.48299">
        <ele>251.5</ele>
        <time>2024-02-04T10:34:02Z</time>
      </trkpt>
      <trkpt lat="43.1713" lon="6.483">
        <ele>251.3</ele>
        <time>2024-02-04T10:34:03Z</time>
      </trkpt>
      <trkpt lat="43.1713" lon="6.48301">
        <ele>251.2</ele>
        <time>2024-02-04T10:34:04Z</time>
      </trkpt>
      <trkpt lat="43.1713" lon="6.48302">
        <ele>251.1</ele>
        <time>2024-02-04T10:34:05Z</time>
      </trkpt>
      <trkpt lat="43.1713" lon="6.48303">
        <ele>250.9</ele>
        <time>2024-02-04T10:34:06Z</time>
      </trkpt>
      <trkpt lat="43.1713" lon="6.48304">
        <ele>250.8</ele>
        <time>2024-02-04T10:34:07Z</time>
      </trkpt>
      <trkpt lat="43.1713" lon="6.48304">
        <ele>250.6</ele>
        <time>2024-02-04T10:34:08Z</time>
      </trkpt>
      <trkpt lat="43.1713" lon="6.48305">
        <ele>250.5</ele>
        <time>2024-02-04T10:34:09Z</time>
      </trkpt>
      <trkpt lat="43.1713" lon="6.48306">
        <ele>250.3</ele>
        <time>2024-02-04T10:34:10Z</time>
      </trkpt>
      <trkpt lat="43.17131" lon="6.48307">
        <ele>250.1</ele>
        <time>2024-02-04T10:34:11Z</time>
      </trkpt>
      <trkpt lat="43.17131" lon="6.48309">
        <ele>249.9</ele>
        <time>2024-02-04T10:34:12Z</time>
      </trkpt>
      <trkpt lat="43.17131" lon="6.48309">
        <ele>249.8</ele>
        <time>2024-02-04T10:34:13Z</time>
      </trkpt>
      <trkpt lat="43.17132" lon="6.4831">
        <ele>249.7</ele>
        <time>2024-02-04T10:34:14Z</time>
      </trkpt>
      <trkpt lat="43.17132" lon="6.48311">
        <ele>249.4</ele>
        <time>2024-02-04T10:34:15Z</time>
      </trkpt>
      <trkpt lat="43.17133" lon="6.48312">
        <ele>249.2</ele>
        <time>2024-02-04T10:34:16Z</time>
      </trkpt>
      <trkpt lat="43.17133" lon="6.48312">
        <ele>249</ele>
        <time>2024-02-04T10:34:17Z</time>
      </trkpt>
      <trkpt lat="43.17134" lon="6.48313">
        <ele>248.8</ele>
        <time>2024-02-04T10:34:18Z</time>
      </trkpt>
      <trkpt lat="43.17134" lon="6.48314">
        <ele>248.5</ele>
        <time>2024-02-04T10:34:19Z</time>
      </trkpt>
      <trkpt lat="43.17134" lon="6.48315">
        <ele>248.3</ele>
        <time>2024-02-04T10:34:20Z</time>
      </trkpt>
      <trkpt lat="43.17135" lon="6.48316">
        <ele>248.1</ele>
        <time>2024-02-04T10:34:21Z</time>
      </trkpt>
      <trkpt lat="43.17135" lon="6.48317">
        <ele>247.8</ele>
        <time>2024-02-04T10:34:22Z</time>
      </trkpt>
      <trkpt lat="43.17136" lon="6.48317">
        <ele>247.7</ele>
        <time>2024-02-04T10:34:23Z</time>
      </trkpt>
      <trkpt lat="43.17136" lon="6.48318">
        <ele>247.4</ele>
        <time>2024-02-04T10:34:24Z</time>
      </trkpt>
      <trkpt lat="43.17136" lon="6.4832">
        <ele>247.2</ele>
        <time>2024-02-04T10:34:25Z</time>
      </trkpt>
      <trkpt lat="43.17137" lon="6.48321">
        <ele>247</ele>
        <time>2024-02-04T10:34:26Z</time>
      </trkpt>
      <trkpt lat="43.17137" lon="6.48322">
        <ele>246.9</ele>
        <time>2024-02-04T10:34:27Z</time>
      </trkpt>
      <trkpt lat="43.17137" lon="6.48323">
        <ele>246.7</ele>
        <time>2024-02-04T10:34:28Z</time>
      </trkpt>
      <trkpt lat="43.17139" lon="6.48324">
        <ele>246.6</ele>
        <time>2024-02-04T10:34:29Z</time>
      </trkpt>
      <trkpt lat="43.1714" lon="6.48325">
        <ele>246.3</ele>
        <time>2024-02-04T10:34:30Z</time>
      </trkpt>
      <trkpt lat="43.17141" lon="6.48325">
        <ele>246.1</ele>
        <time>2024-02-04T10:34:31Z</time>
      </trkpt>
      <trkpt lat="43.17141" lon="6.48326">
        <ele>245.8</ele>
        <time>2024-02-04T10:34:32Z</time>
      </trkpt>
      <trkpt lat="43.17142" lon="6.48327">
        <ele>245.6</ele>
        <time>2024-02-04T10:34:33Z</time>
      </trkpt>
      <trkpt lat="43.17143" lon="6.48327">
        <ele>245.4</ele>
        <time>2024-02-04T10:34:34Z</time>
      </trkpt>
      <trkpt lat="43.17143" lon="6.48328">
        <ele>245.3</ele>
        <time>2024-02-04T10:34:35Z</time>
      </trkpt>
      <trkpt lat="43.17144" lon="6.48329">
        <ele>245.2</ele>
        <time>2024-02-04T10:34:36Z</time>
      </trkpt>
      <trkpt lat="43.17144" lon="6.4833">
        <ele>245</ele>
        <time>2024-02-04T10:34:37Z</time>
      </trkpt>
      <trkpt lat="43.17145" lon="6.48332">
        <ele>244.8</ele>
        <time>2024-02-04T10:34:38Z</time>
      </trkpt>
      <trkpt lat="43.17145" lon="6.48333">
        <ele>244.7</ele>
        <time>2024-02-04T10:34:39Z</time>
      </trkpt>
      <trkpt lat="43.17146" lon="6.48333">
        <ele>244.6</ele>
        <time>2024-02-04T10:34:40Z</time>
      </trkpt>
      <trkpt lat="43.17147" lon="6.48333">
        <ele>244.3</ele>
        <time>2024-02-04T10:34:41Z</time>
      </trkpt>
      <trkpt lat="43.17148" lon="6.48334">
        <ele>244.1</ele>
        <time>2024-02-04T10:34:42Z</time>
      </trkpt>
      <trkpt lat="43.17148" lon="6.48335">
        <ele>244</ele>
        <time>2024-02-04T10:34:43Z</time>
      </trkpt>
      <trkpt lat="43.17149" lon="6.48336">
        <ele>243.9</ele>
        <time>2024-02-04T10:34:44Z</time>
      </trkpt>
      <trkpt lat="43.17149" lon="6.48337">
        <ele>243.8</ele>
        <time>2024-02-04T10:34:45Z</time>
      </trkpt>
      <trkpt lat="43.1715" lon="6.48338">
        <ele>243.7</ele>
        <time>2024-02-04T10:34:46Z</time>
      </trkpt>
      <trkpt lat="43.17151" lon="6.48339">
        <ele>243.5</ele>
        <time>2024-02-04T10:34:47Z</time>
      </trkpt>
      <trkpt lat="43.17151" lon="6.4834">
        <ele>243.4</ele>
        <time>2024-02-04T10:34:48Z</time>
      </trkpt>
      <trkpt lat="43.17152" lon="6.48341">
        <ele>243.1</ele>
        <time>2024-02-04T10:34:49Z</time>
      </trkpt>
      <trkpt lat="43.17153" lon="6.48342">
        <ele>242.9</ele>
        <time>2024-02-04T10:34:50Z</time>
      </trkpt>
      <trkpt lat="43.17153" lon="6.48342">
        <ele>242.7</ele>
        <time>2024-02-04T10:34:51Z</time>
      </trkpt>
      <trkpt lat="43.17154" lon="6.48342">
        <ele>242.6</ele>
        <time>2024-02-04T10:34:52Z</time>
      </trkpt>
      <trkpt lat="43.17155" lon="6.48343">
        <ele>242.4</ele>
        <time>2024-02-04T10:34:53Z</time>
      </trkpt>
      <trkpt lat="43.17156" lon="6.48344">
        <ele>242.3</ele>
        <time>2024-02-04T10:34:54Z</time>
      </trkpt>
      <trkpt lat="43.17157" lon="6.48346">
        <ele>242.2</ele>
        <time>2024-02-04T10:34:55Z</time>
      </trkpt>
      <trkpt lat="43.17157" lon="6.48347">
        <ele>242.1</ele>
        <time>2024-02-04T10:34:56Z</time>
      </trkpt>
      <trkpt lat="43.17157" lon="6.48348">
        <ele>242</ele>
        <time>2024-02-04T10:34:57Z</time>
      </trkpt>
      <trkpt lat="43.17157" lon="6.4835">
        <ele>241.8</ele>
        <time>2024-02-04T10:34:58Z</time>
      </trkpt>
      <trkpt lat="43.17157" lon="6.48351">
        <ele>241.7</ele>
        <time>2024-02-04T10:34:59Z</time>
      </trkpt>
      <trkpt lat="43.17157" lon="6.48352">
        <ele>241.5</ele>
        <time>2024-02-04T10:35:00Z</time>
      </trkpt>
      <trkpt lat="43.17158" lon="6.48354">
        <ele>241.3</ele>
        <time>2024-02-04T10:35:01Z</time>
      </trkpt>
      <trkpt lat="43.17158" lon="6.48355">
        <ele>241.2</ele>
        <time>2024-02-04T10:35:02Z</time>
      </trkpt>
      <trkpt lat="43.17159" lon="6.48356">
        <ele>241.1</ele>
        <time>2024-02-04T10:35:03Z</time>
      </trkpt>
      <trkpt lat="43.17159" lon="6.48357">
        <ele>240.9</ele>
        <time>2024-02-04T10:35:04Z</time>
      </trkpt>
      <trkpt lat="43.17159" lon="6.48358">
        <ele>240.8</ele>
        <time>2024-02-04T10:35:05Z</time>
      </trkpt>
      <trkpt lat="43.1716" lon="6.4836">
        <ele>240.7</ele>
        <time>2024-02-04T10:35:06Z</time>
      </trkpt>
      <trkpt lat="43.1716" lon="6.4836">
        <ele>240.6</ele>
        <time>2024-02-04T10:35:07Z</time>
      </trkpt>
      <trkpt lat="43.17161" lon="6.48361">
        <ele>240.4</ele>
        <time>2024-02-04T10:35:08Z</time>
      </trkpt>
      <trkpt lat="43.17162" lon="6.48362">
        <ele>240.3</ele>
        <time>2024-02-04T10:35:09Z</time>
      </trkpt>
      <trkpt lat="43.17162" lon="6.48364">
        <ele>240.2</ele>
        <time>2024-02-04T10:35:10Z</time>
      </trkpt>
      <trkpt lat="43.17163" lon="6.48365">
        <ele>240.1</ele>
        <time>2024-02-04T10:35:11Z</time>
      </trkpt>
      <trkpt lat="43.17163" lon="6.48366">
        <ele>239.9</ele>
        <time>2024-02-04T10:35:12Z</time>
      </trkpt>
      <trkpt lat="43.17163" lon="6.48368">
        <ele>239.8</ele>
        <time>2024-02-04T10:35:13Z</time>
      </trkpt>
      <trkpt lat="43.17163" lon="6.48369">
        <ele>239.6</ele>
        <time>2024-02-04T10:35:14Z</time>
      </trkpt>
      <trkpt lat="43.17164" lon="6.4837">
        <ele>239.5</ele>
        <time>2024-02-04T10:35:15Z</time>
      </trkpt>
      <trkpt lat="43.17164" lon="6.48371">
        <ele>239.4</ele>
        <time>2024-02-04T10:35:16Z</time>
      </trkpt>
      <trkpt lat="43.17165" lon="6.48372">
        <ele>239.3</ele>
        <time>2024-02-04T10:35:17Z</time>
      </trkpt>
      <trkpt lat="43.17166" lon="6.48373">
        <ele>239.2</ele>
        <time>2024-02-04T10:35:18Z</time>
      </trkpt>
      <trkpt lat="43.17167" lon="6.48374">
        <ele>239.1</ele>
        <time>2024-02-04T10:35:19Z</time>
      </trkpt>
      <trkpt lat="43.17167" lon="6.48375">
        <ele>238.9</ele>
        <time>2024-02-04T10:35:20Z</time>
      </trkpt>
      <trkpt lat="43.17168" lon="6.48377">
        <ele>238.8</ele>
        <time>2024-02-04T10:35:21Z</time>
      </trkpt>
      <trkpt lat="43.17168" lon="6.48378">
        <ele>238.7</ele>
        <time>2024-02-04T10:35:22Z</time>
      </trkpt>
      <trkpt lat="43.17169" lon="6.48378">
        <ele>238.6</ele>
        <time>2024-02-04T10:35:23Z</time>
      </trkpt>
      <trkpt lat="43.1717" lon="6.48379">
        <ele>238.6</ele>
        <time>2024-02-04T10:35:24Z</time>
      </trkpt>
      <trkpt lat="43.17171" lon="6.48381">
        <ele>238.5</ele>
        <time>2024-02-04T10:35:25Z</time>
      </trkpt>
      <trkpt lat="43.17171" lon="6.48382">
        <ele>238.5</ele>
        <time>2024-02-04T10:35:26Z</time>
      </trkpt>
      <trkpt lat="43.17172" lon="6.48384">
        <ele>238.4</ele>
        <time>2024-02-04T10:35:27Z</time>
      </trkpt>
      <trkpt lat="43.17172" lon="6.48385">
        <ele>238.4</ele>
        <time>2024-02-04T10:35:28Z</time>
      </trkpt>
      <trkpt lat="43.17173" lon="6.48387">
        <ele>238.4</ele>
        <time>2024-02-04T10:35:29Z</time>
      </trkpt>
      <trkpt lat="43.17174" lon="6.48387">
        <ele>238.3</ele>
        <time>2024-02-04T10:35:30Z</time>
      </trkpt>
      <trkpt lat="43.17175" lon="6.48389">
        <ele>238.2</ele>
        <time>2024-02-04T10:35:31Z</time>
      </trkpt>
      <trkpt lat="43.17176" lon="6.4839">
        <ele>238</ele>
        <time>2024-02-04T10:35:32Z</time>
      </trkpt>
      <trkpt lat="43.17177" lon="6.48391">
        <ele>237.9</ele>
        <time>2024-02-04T10:35:33Z</time>
      </trkpt>
      <trkpt lat="43.17178" lon="6.48391">
        <ele>237.8</ele>
        <time>2024-02-04T10:35:34Z</time>
      </trkpt>
      <trkpt lat="43.17179" lon="6.48392">
        <ele>237.8</ele>
        <time>2024-02-04T10:35:35Z</time>
      </trkpt>
      <trkpt lat="43.1718" lon="6.48392">
        <ele>237.7</ele>
        <time>2024-02-04T10:35:36Z</time>
      </trkpt>
      <trkpt lat="43.17181" lon="6.48393">
        <ele>237.7</ele>
        <time>2024-02-04T10:35:37Z</time>
      </trkpt>
      <trkpt lat="43.17182" lon="6.48394">
        <ele>237.6</ele>
        <time>2024-02-04T10:35:38Z</time>
      </trkpt>
      <trkpt lat="43.17183" lon="6.48394">
        <ele>237.5</ele>
        <time>2024-02-04T10:35:39Z</time>
      </trkpt>
      <trkpt lat="43.17184" lon="6.48395">
        <ele>237.5</ele>
        <time>2024-02-04T10:35:40Z</time>
      </trkpt>
      <trkpt lat="43.17185" lon="6.48395">
        <ele>237.6</ele>
        <time>2024-02-04T10:35:41Z</time>
      </trkpt>
      <trkpt lat="43.17185" lon="6.48395">
        <ele>237.7</ele>
        <time>2024-02-04T10:35:42Z</time>
      </trkpt>
      <trkpt lat="43.17186" lon="6.48395">
        <ele>237.8</ele>
        <time>2024-02-04T10:35:43Z</time>
      </trkpt>
      <trkpt lat="43.17187" lon="6.48396">
        <ele>237.9</ele>
        <time>2024-02-04T10:35:44Z</time>
      </trkpt>
      <trkpt lat="43.17188" lon="6.48396">
        <ele>238</ele>
        <time>2024-02-04T10:35:45Z</time>
      </trkpt>
      <trkpt lat="43.17189" lon="6.48396">
        <ele>238.3</ele>
        <time>2024-02-04T10:35:46Z</time>
      </trkpt>
      <trkpt lat="43.1719" lon="6.48396">
        <ele>238.4</ele>
        <time>2024-02-04T10:35:47Z</time>
      </trkpt>
      <trkpt lat="43.17191" lon="6.48397">
        <ele>238.6</ele>
        <time>2024-02-04T10:35:48Z</time>
      </trkpt>
      <trkpt lat="43.17191" lon="6.48398">
        <ele>238.8</ele>
        <time>2024-02-04T10:35:49Z</time>
      </trkpt>
      <trkpt lat="43.17192" lon="6.48398">
        <ele>238.9</ele>
        <time>2024-02-04T10:35:50Z</time>
      </trkpt>
      <trkpt lat="43.17193" lon="6.48398">
        <ele>239</ele>
        <time>2024-02-04T10:35:51Z</time>
      </trkpt>
      <trkpt lat="43.17194" lon="6.48398">
        <ele>239.1</ele>
        <time>2024-02-04T10:35:52Z</time>
      </trkpt>
      <trkpt lat="43.17195" lon="6.48397">
        <ele>239.3</ele>
        <time>2024-02-04T10:35:53Z</time>
      </trkpt>
      <trkpt lat="43.17196" lon="6.48398">
        <ele>239.4</ele>
        <time>2024-02-04T10:35:54Z</time>
      </trkpt>
      <trkpt lat="43.17196" lon="6.48398">
        <ele>239.6</ele>
        <time>2024-02-04T10:35:55Z</time>
      </trkpt>
      <trkpt lat="43.17197" lon="6.48397">
        <ele>239.7</ele>
        <time>2024-02-04T10:35:56Z</time>
      </trkpt>
      <trkpt lat="43.17198" lon="6.48398">
        <ele>239.8</ele>
        <time>2024-02-04T10:35:57Z</time>
      </trkpt>
      <trkpt lat="43.17199" lon="6.48397">
        <ele>239.9</ele>
        <time>2024-02-04T10:35:58Z</time>
      </trkpt>
      <trkpt lat="43.17199" lon="6.48398">
        <ele>240.1</ele>
        <time>2024-02-04T10:35:59Z</time>
      </trkpt>
      <trkpt lat="43.172" lon="6.48398">
        <ele>240.2</ele>
        <time>2024-02-04T10:36:00Z</time>
      </trkpt>
      <trkpt lat="43.17201" lon="6.48397">
        <ele>240.3</ele>
        <time>2024-02-04T10:36:01Z</time>
      </trkpt>
      <trkpt lat="43.17201" lon="6.48397">
        <ele>240.4</ele>
        <time>2024-02-04T10:36:02Z</time>
      </trkpt>
      <trkpt lat="43.17202" lon="6.48397">
        <ele>240.5</ele>
        <time>2024-02-04T10:36:03Z</time>
      </trkpt>
      <trkpt lat="43.17202" lon="6.48396">
        <ele>240.5</ele>
        <time>2024-02-04T10:36:04Z</time>
      </trkpt>
      <trkpt lat="43.17203" lon="6.48396">
        <ele>240.6</ele>
        <time>2024-02-04T10:36:05Z</time>
      </trkpt>
      <trkpt lat="43.17203" lon="6.48397">
        <ele>240.9</ele>
        <time>2024-02-04T10:36:06Z</time>
      </trkpt>
      <trkpt lat="43.17204" lon="6.48397">
        <ele>240.9</ele>
        <time>2024-02-04T10:36:07Z</time>
      </trkpt>
      <trkpt lat="43.17204" lon="6.48397">
        <ele>241</ele>
        <time>2024-02-04T10:36:08Z</time>
      </trkpt>
      <trkpt lat="43.17204" lon="6.48397">
        <ele>241.1</ele>
        <time>2024-02-04T10:36:09Z</time>
      </trkpt>
      <trkpt lat="43.17205" lon="6.48397">
        <ele>241.3</ele>
        <time>2024-02-04T10:36:10Z</time>
      </trkpt>
      <trkpt lat="43.17205" lon="6.48397">
        <ele>241.4</ele>
        <time>2024-02-04T10:36:11Z</time>
      </trkpt>
      <trkpt lat="43.17206" lon="6.48396">
        <ele>241.5</ele>
        <time>2024-02-04T10:36:12Z</time>
      </trkpt>
      <trkpt lat="43.17206" lon="6.48396">
        <ele>241.7</ele>
        <time>2024-02-04T10:36:13Z</time>
      </trkpt>
      <trkpt lat="43.17206" lon="6.48396">
        <ele>241.9</ele>
        <time>2024-02-04T10:36:14Z</time>
      </trkpt>
      <trkpt lat="43.17207" lon="6.48395">
        <ele>242</ele>
        <time>2024-02-04T10:36:15Z</time>
      </trkpt>
      <trkpt lat="43.17207" lon="6.48394">
        <ele>242.1</ele>
        <time>2024-02-04T10:36:16Z</time>
      </trkpt>
      <trkpt lat="43.17208" lon="6.48394">
        <ele>242.2</ele>
        <time>2024-02-04T10:36:17Z</time>
      </trkpt>
      <trkpt lat="43.17208" lon="6.48394">
        <ele>242.3</ele>
        <time>2024-02-04T10:36:18Z</time>
      </trkpt>
      <trkpt lat="43.17209" lon="6.48393">
        <ele>242.3</ele>
        <time>2024-02-04T10:36:19Z</time>
      </trkpt>
      <trkpt lat="43.17209" lon="6.48393">
        <ele>242.4</ele>
        <time>2024-02-04T10:36:20Z</time>
      </trkpt>
      <trkpt lat="43.1721" lon="6.48393">
        <ele>242.5</ele>
        <time>2024-02-04T10:36:21Z</time>
      </trkpt>
      <trkpt lat="43.1721" lon="6.48393">
        <ele>242.6</ele>
        <time>2024-02-04T10:36:22Z</time>
      </trkpt>
      <trkpt lat="43.1721" lon="6.48394">
        <ele>242.8</ele>
        <time>2024-02-04T10:36:23Z</time>
      </trkpt>
      <trkpt lat="43.17211" lon="6.48394">
        <ele>242.9</ele>
        <time>2024-02-04T10:36:24Z</time>
      </trkpt>
      <trkpt lat="43.17211" lon="6.48394">
        <ele>243</ele>
        <time>2024-02-04T10:36:25Z</time>
      </trkpt>
      <trkpt lat="43.17211" lon="6.48394">
        <ele>243.1</ele>
        <time>2024-02-04T10:36:26Z</time>
      </trkpt>
      <trkpt lat="43.17211" lon="6.48393">
        <ele>243.3</ele>
        <time>2024-02-04T10:36:27Z</time>
      </trkpt>
      <trkpt lat="43.17212" lon="6.48392">
        <ele>243.3</ele>
        <time>2024-02-04T10:36:28Z</time>
      </trkpt>
      <trkpt lat="43.17213" lon="6.48391">
        <ele>243.5</ele>
        <time>2024-02-04T10:36:29Z</time>
      </trkpt>
      <trkpt lat="43.17214" lon="6.4839">
        <ele>243.6</ele>
        <time>2024-02-04T10:36:30Z</time>
      </trkpt>
      <trkpt lat="43.17215" lon="6.4839">
        <ele>243.6</ele>
        <time>2024-02-04T10:36:31Z</time>
      </trkpt>
      <trkpt lat="43.17215" lon="6.48388">
        <ele>243.7</ele>
        <time>2024-02-04T10:36:32Z</time>
      </trkpt>
      <trkpt lat="43.17216" lon="6.48387">
        <ele>243.7</ele>
        <time>2024-02-04T10:36:33Z</time>
      </trkpt>
      <trkpt lat="43.17216" lon="6.48387">
        <ele>243.8</ele>
        <time>2024-02-04T10:36:34Z</time>
      </trkpt>
      <trkpt lat="43.17217" lon="6.48387">
        <ele>243.9</ele>
        <time>2024-02-04T10:36:35Z</time>
      </trkpt>
      <trkpt lat="43.17217" lon="6.48386">
        <ele>244</ele>
        <time>2024-02-04T10:36:36Z</time>
      </trkpt>
      <trkpt lat="43.17218" lon="6.48386">
        <ele>244.2</ele>
        <time>2024-02-04T10:36:37Z</time>
      </trkpt>
      <trkpt lat="43.17218" lon="6.48385">
        <ele>244.2</ele>
        <time>2024-02-04T10:36:38Z</time>
      </trkpt>
      <trkpt lat="43.17219" lon="6.48385">
        <ele>244.2</ele>
        <time>2024-02-04T10:36:39Z</time>
      </trkpt>
      <trkpt lat="43.17219" lon="6.48385">
        <ele>244.4</ele>
        <time>2024-02-04T10:36:40Z</time>
      </trkpt>
      <trkpt lat="43.17219" lon="6.48384">
        <ele>244.5</ele>
        <time>2024-02-04T10:36:41Z</time>
      </trkpt>
      <trkpt lat="43.1722" lon="6.48384">
        <ele>244.7</ele>
        <time>2024-02-04T10:36:42Z</time>
      </trkpt>
      <trkpt lat="43.1722" lon="6.48384">
        <ele>244.7</ele>
        <time>2024-02-04T10:36:43Z</time>
      </trkpt>
      <trkpt lat="43.1722" lon="6.48384">
        <ele>244.7</ele>
        <time>2024-02-04T10:36:44Z</time>
      </trkpt>
      <trkpt lat="43.17221" lon="6.48383">
        <ele>244.8</ele>
        <time>2024-02-04T10:36:45Z</time>
      </trkpt>
      <trkpt lat="43.17221" lon="6.48383">
        <ele>245</ele>
        <time>2024-02-04T10:36:46Z</time>
      </trkpt>
      <trkpt lat="43.17222" lon="6.48382">
        <ele>245.1</ele>
        <time>2024-02-04T10:36:47Z</time>
      </trkpt>
      <trkpt lat="43.17222" lon="6.48381">
        <ele>245.3</ele>
        <time>2024-02-04T10:36:48Z</time>
      </trkpt>
      <trkpt lat="43.17223" lon="6.4838">
        <ele>245.5</ele>
        <time>2024-02-04T10:36:49Z</time>
      </trkpt>
      <trkpt lat="43.17223" lon="6.48379">
        <ele>245.6</ele>
        <time>2024-02-04T10:36:50Z</time>
      </trkpt>
      <trkpt lat="43.17224" lon="6.48379">
        <ele>245.7</ele>
        <time>2024-02-04T10:36:51Z</time>
      </trkpt>
      <trkpt lat="43.17224" lon="6.48378">
        <ele>245.9</ele>
        <time>2024-02-04T10:36:52Z</time>
      </trkpt>
      <trkpt lat="43.17225" lon="6.48378">
        <ele>246</ele>
        <time>2024-02-04T10:36:53Z</time>
      </trkpt>
      <trkpt lat="43.17225" lon="6.48377">
        <ele>246.2</ele>
        <time>2024-02-04T10:36:54Z</time>
      </trkpt>
      <trkpt lat="43.17225" lon="6.48377">
        <ele>246.4</ele>
        <time>2024-02-04T10:36:55Z</time>
      </trkpt>
      <trkpt lat="43.17226" lon="6.48376">
        <ele>246.6</ele>
        <time>2024-02-04T10:36:56Z</time>
      </trkpt>
      <trkpt lat="43.17226" lon="6.48375">
        <ele>246.7</ele>
        <time>2024-02-04T10:36:57Z</time>
      </trkpt>
      <trkpt lat="43.17227" lon="6.48374">
        <ele>246.9</ele>
        <time>2024-02-04T10:36:58Z</time>
      </trkpt>
      <trkpt lat="43.17228" lon="6.48373">
        <ele>247</ele>
        <time>2024-02-04T10:36:59Z</time>
      </trkpt>
      <trkpt lat="43.17229" lon="6.48372">
        <ele>247.2</ele>
        <time>2024-02-04T10:37:00Z</time>
      </trkpt>
      <trkpt lat="43.17229" lon="6.48372">
        <ele>247.4</ele>
        <time>2024-02-04T10:37:01Z</time>
      </trkpt>
      <trkpt lat="43.1723" lon="6.48372">
        <ele>247.5</ele>
        <time>2024-02-04T10:37:02Z</time>
      </trkpt>
      <trkpt lat="43.17231" lon="6.48371">
        <ele>247.7</ele>
        <time>2024-02-04T10:37:03Z</time>
      </trkpt>
      <trkpt lat="43.17231" lon="6.4837">
        <ele>247.8</ele>
        <time>2024-02-04T10:37:04Z</time>
      </trkpt>
      <trkpt lat="43.17232" lon="6.4837">
        <ele>247.9</ele>
        <time>2024-02-04T10:37:05Z</time>
      </trkpt>
      <trkpt lat="43.17232" lon="6.48369">
        <ele>248</ele>
        <time>2024-02-04T10:37:06Z</time>
      </trkpt>
      <trkpt lat="43.17233" lon="6.4837">
        <ele>248.2</ele>
        <time>2024-02-04T10:37:07Z</time>
      </trkpt>
      <trkpt lat="43.17233" lon="6.48368">
        <ele>248.4</ele>
        <time>2024-02-04T10:37:08Z</time>
      </trkpt>
      <trkpt lat="43.17233" lon="6.48368">
        <ele>248.5</ele>
        <time>2024-02-04T10:37:09Z</time>
      </trkpt>
      <trkpt lat="43.17234" lon="6.48367">
        <ele>248.6</ele>
        <time>2024-02-04T10:37:10Z</time>
      </trkpt>
      <trkpt lat="43.17235" lon="6.48366">
        <ele>248.7</ele>
        <time>2024-02-04T10:37:11Z</time>
      </trkpt>
      <trkpt lat="43.17235" lon="6.48365">
        <ele>248.8</ele>
        <time>2024-02-04T10:37:12Z</time>
      </trkpt>
      <trkpt lat="43.17236" lon="6.48365">
        <ele>248.9</ele>
        <time>2024-02-04T10:37:13Z</time>
      </trkpt>
      <trkpt lat="43.17236" lon="6.48365">
        <ele>249</ele>
        <time>2024-02-04T10:37:14Z</time>
      </trkpt>
      <trkpt lat="43.17236" lon="6.48365">
        <ele>249.2</ele>
        <time>2024-02-04T10:37:15Z</time>
      </trkpt>
      <trkpt lat="43.17237" lon="6.48364">
        <ele>249.3</ele>
        <time>2024-02-04T10:37:16Z</time>
      </trkpt>
      <trkpt lat="43.17237" lon="6.48363">
        <ele>249.4</ele>
        <time>2024-02-04T10:37:17Z</time>
      </trkpt>
      <trkpt lat="43.17238" lon="6.48363">
        <ele>249.6</ele>
        <time>2024-02-04T10:37:18Z</time>
      </trkpt>
      <trkpt lat="43.17238" lon="6.48362">
        <ele>249.7</ele>
        <time>2024-02-04T10:37:19Z</time>
      </trkpt>
      <trkpt lat="43.17238" lon="6.48362">
        <ele>249.9</ele>
        <time>2024-02-04T10:37:20Z</time>
      </trkpt>
      <trkpt lat="43.17239" lon="6.48362">
        <ele>250.1</ele>
        <time>2024-02-04T10:37:21Z</time>
      </trkpt>
      <trkpt lat="43.1724" lon="6.48361">
        <ele>250.4</ele>
        <time>2024-02-04T10:37:22Z</time>
      </trkpt>
      <trkpt lat="43.1724" lon="6.48361">
        <ele>250.5</ele>
        <time>2024-02-04T10:37:23Z</time>
      </trkpt>
      <trkpt lat="43.17241" lon="6.4836">
        <ele>250.6</ele>
        <time>2024-02-04T10:37:24Z</time>
      </trkpt>
      <trkpt lat="43.17242" lon="6.4836">
        <ele>250.8</ele>
        <time>2024-02-04T10:37:25Z</time>
      </trkpt>
      <trkpt lat="43.17243" lon="6.48359">
        <ele>250.9</ele>
        <time>2024-02-04T10:37:26Z</time>
      </trkpt>
      <trkpt lat="43.17244" lon="6.48358">
        <ele>251</ele>
        <time>2024-02-04T10:37:27Z</time>
      </trkpt>
      <trkpt lat="43.17244" lon="6.48358">
        <ele>251.2</ele>
        <time>2024-02-04T10:37:28Z</time>
      </trkpt>
      <trkpt lat="43.17245" lon="6.48357">
        <ele>251.3</ele>
        <time>2024-02-04T10:37:29Z</time>
      </trkpt>
      <trkpt lat="43.17245" lon="6.48357">
        <ele>251.5</ele>
        <time>2024-02-04T10:37:30Z</time>
      </trkpt>
      <trkpt lat="43.17246" lon="6.48357">
        <ele>251.6</ele>
        <time>2024-02-04T10:37:31Z</time>
      </trkpt>
      <trkpt lat="43.17246" lon="6.48356">
        <ele>251.8</ele>
        <time>2024-02-04T10:37:32Z</time>
      </trkpt>
      <trkpt lat="43.17247" lon="6.48356">
        <ele>252</ele>
        <time>2024-02-04T10:37:33Z</time>
      </trkpt>
      <trkpt lat="43.17248" lon="6.48356">
        <ele>252.2</ele>
        <time>2024-02-04T10:37:34Z</time>
      </trkpt>
      <trkpt lat="43.17249" lon="6.48355">
        <ele>252.3</ele>
        <time>2024-02-04T10:37:35Z</time>
      </trkpt>
      <trkpt lat="43.1725" lon="6.48355">
        <ele>252.5</ele>
        <time>2024-02-04T10:37:36Z</time>
      </trkpt>
      <trkpt lat="43.1725" lon="6.48355">
        <ele>252.6</ele>
        <time>2024-02-04T10:37:37Z</time>
      </trkpt>
      <trkpt lat="43.17251" lon="6.48355">
        <ele>252.8</ele>
        <time>2024-02-04T10:37:38Z</time>
      </trkpt>
      <trkpt lat="43.17252" lon="6.48354">
        <ele>252.9</ele>
        <time>2024-02-04T10:37:39Z</time>
      </trkpt>
      <trkpt lat="43.17253" lon="6.48353">
        <ele>252.9</ele>
        <time>2024-02-04T10:37:40Z</time>
      </trkpt>
      <trkpt lat="43.17254" lon="6.48354">
        <ele>252.9</ele>
        <time>2024-02-04T10:37:41Z</time>
      </trkpt>
      <trkpt lat="43.17255" lon="6.48353">
        <ele>253</ele>
        <time>2024-02-04T10:37:42Z</time>
      </trkpt>
      <trkpt lat="43.17256" lon="6.48352">
        <ele>253.1</ele>
        <time>2024-02-04T10:37:43Z</time>
      </trkpt>
      <trkpt lat="43.17257" lon="6.48352">
        <ele>253.1</ele>
        <time>2024-02-04T10:37:44Z</time>
      </trkpt>
      <trkpt lat="43.17257" lon="6.48353">
        <ele>253.2</ele>
        <time>2024-02-04T10:37:45Z</time>
      </trkpt>
      <trkpt lat="43.17258" lon="6.48353">
        <ele>253.3</ele>
        <time>2024-02-04T10:37:46Z</time>
      </trkpt>
      <trkpt lat="43.17258" lon="6.48353">
        <ele>253.5</ele>
        <time>2024-02-04T10:37:47Z</time>
      </trkpt>
      <trkpt lat="43.17259" lon="6.48353">
        <ele>253.6</ele>
        <time>2024-02-04T10:37:48Z</time>
      </trkpt>
      <trkpt lat="43.1726" lon="6.48354">
        <ele>253.7</ele>
        <time>2024-02-04T10:37:49Z</time>
      </trkpt>
      <trkpt lat="43.1726" lon="6.48355">
        <ele>253.7</ele>
        <time>2024-02-04T10:37:50Z</time>
      </trkpt>
      <trkpt lat="43.17261" lon="6.48355">
        <ele>253.8</ele>
        <time>2024-02-04T10:37:51Z</time>
      </trkpt>
      <trkpt lat="43.17261" lon="6.48356">
        <ele>253.9</ele>
        <time>2024-02-04T10:37:52Z</time>
      </trkpt>
      <trkpt lat="43.17262" lon="6.48356">
        <ele>253.9</ele>
        <time>2024-02-04T10:37:53Z</time>
      </trkpt>
      <trkpt lat="43.17263" lon="6.48357">
        <ele>253.9</ele>
        <time>2024-02-04T10:37:54Z</time>
      </trkpt>
      <trkpt lat="43.17264" lon="6.48358">
        <ele>253.9</ele>
        <time>2024-02-04T10:37:55Z</time>
      </trkpt>
      <trkpt lat="43.17264" lon="6.48358">
        <ele>254</ele>
        <time>2024-02-04T10:37:56Z</time>
      </trkpt>
      <trkpt lat="43.17265" lon="6.48359">
        <ele>254</ele>
        <time>2024-02-04T10:37:57Z</time>
      </trkpt>
      <trkpt lat="43.17266" lon="6.48359">
        <ele>254</ele>
        <time>2024-02-04T10:37:58Z</time>
      </trkpt>
      <trkpt lat="43.17266" lon="6.48361">
        <ele>254</ele>
        <time>2024-02-04T10:37:59Z</time>
      </trkpt>
      <trkpt lat="43.17267" lon="6.48361">
        <ele>254</ele>
        <time>2024-02-04T10:38:00Z</time>
      </trkpt>
      <trkpt lat="43.17267" lon="6.48362">
        <ele>254.1</ele>
        <time>2024-02-04T10:38:01Z</time>
      </trkpt>
      <trkpt lat="43.17267" lon="6.48363">
        <ele>254.3</ele>
        <time>2024-02-04T10:38:02Z</time>
      </trkpt>
      <trkpt lat="43.17267" lon="6.48364">
        <ele>254.3</ele>
        <time>2024-02-04T10:38:03Z</time>
      </trkpt>
      <trkpt lat="43.17267" lon="6.48364">
        <ele>254.6</ele>
        <time>2024-02-04T10:38:04Z</time>
      </trkpt>
      <trkpt lat="43.17267" lon="6.48365">
        <ele>254.8</ele>
        <time>2024-02-04T10:38:05Z</time>
      </trkpt>
      <trkpt lat="43.17268" lon="6.48365">
        <ele>255</ele>
        <time>2024-02-04T10:38:06Z</time>
      </trkpt>
      <trkpt lat="43.17268" lon="6.48366">
        <ele>255</ele>
        <time>2024-02-04T10:38:07Z</time>
      </trkpt>
      <trkpt lat="43.17268" lon="6.48367">
        <ele>255.2</ele>
        <time>2024-02-04T10:38:08Z</time>
      </trkpt>
      <trkpt lat="43.17268" lon="6.48368">
        <ele>255.3</ele>
        <time>2024-02-04T10:38:09Z</time>
      </trkpt>
      <trkpt lat="43.17268" lon="6.48369">
        <ele>255.3</ele>
        <time>2024-02-04T10:38:10Z</time>
      </trkpt>
      <trkpt lat="43.17269" lon="6.4837">
        <ele>255.3</ele>
        <time>2024-02-04T10:38:11Z</time>
      </trkpt>
      <trkpt lat="43.17269" lon="6.48371">
        <ele>255.4</ele>
        <time>2024-02-04T10:38:12Z</time>
      </trkpt>
      <trkpt lat="43.17269" lon="6.48372">
        <ele>255.6</ele>
        <time>2024-02-04T10:38:13Z</time>
      </trkpt>
      <trkpt lat="43.17269" lon="6.48372">
        <ele>255.6</ele>
        <time>2024-02-04T10:38:14Z</time>
      </trkpt>
      <trkpt lat="43.1727" lon="6.48374">
        <ele>255.7</ele>
        <time>2024-02-04T10:38:15Z</time>
      </trkpt>
      <trkpt lat="43.1727" lon="6.48375">
        <ele>255.8</ele>
        <time>2024-02-04T10:38:16Z</time>
      </trkpt>
      <trkpt lat="43.1727" lon="6.48376">
        <ele>255.9</ele>
        <time>2024-02-04T10:38:17Z</time>
      </trkpt>
      <trkpt lat="43.1727" lon="6.48377">
        <ele>256</ele>
        <time>2024-02-04T10:38:18Z</time>
      </trkpt>
      <trkpt lat="43.17271" lon="6.48378">
        <ele>256.1</ele>
        <time>2024-02-04T10:38:19Z</time>
      </trkpt>
      <trkpt lat="43.17271" lon="6.48379">
        <ele>256.2</ele>
        <time>2024-02-04T10:38:20Z</time>
      </trkpt>
      <trkpt lat="43.17271" lon="6.4838">
        <ele>256.3</ele>
        <time>2024-02-04T10:38:21Z</time>
      </trkpt>
      <trkpt lat="43.1727" lon="6.48381">
        <ele>256.4</ele>
        <time>2024-02-04T10:38:22Z</time>
      </trkpt>
      <trkpt lat="43.17271" lon="6.48382">
        <ele>256.5</ele>
        <time>2024-02-04T10:38:23Z</time>
      </trkpt>
      <trkpt lat="43.17271" lon="6.48383">
        <ele>256.6</ele>
        <time>2024-02-04T10:38:24Z</time>
      </trkpt>
      <trkpt lat="43.17271" lon="6.48385">
        <ele>256.6</ele>
        <time>2024-02-04T10:38:25Z</time>
      </trkpt>
      <trkpt lat="43.17271" lon="6.48386">
        <ele>256.7</ele>
        <time>2024-02-04T10:38:26Z</time>
      </trkpt>
      <trkpt lat="43.17271" lon="6.48387">
        <ele>256.6</ele>
        <time>2024-02-04T10:38:27Z</time>
      </trkpt>
      <trkpt lat="43.17271" lon="6.48388">
        <ele>256.7</ele>
        <time>2024-02-04T10:38:28Z</time>
      </trkpt>
      <trkpt lat="43.17271" lon="6.48389">
        <ele>256.8</ele>
        <time>2024-02-04T10:38:29Z</time>
      </trkpt>
      <trkpt lat="43.17271" lon="6.4839">
        <ele>256.8</ele>
        <time>2024-02-04T10:38:30Z</time>
      </trkpt>
      <trkpt lat="43.17271" lon="6.48391">
        <ele>256.9</ele>
        <time>2024-02-04T10:38:31Z</time>
      </trkpt>
      <trkpt lat="43.17271" lon="6.48393">
        <ele>256.9</ele>
        <time>2024-02-04T10:38:32Z</time>
      </trkpt>
      <trkpt lat="43.17271" lon="6.48394">
        <ele>256.9</ele>
        <time>2024-02-04T10:38:33Z</time>
      </trkpt>
      <trkpt lat="43.17271" lon="6.48395">
        <ele>257.1</ele>
        <time>2024-02-04T10:38:34Z</time>
      </trkpt>
      <trkpt lat="43.17271" lon="6.48396">
        <ele>257.2</ele>
        <time>2024-02-04T10:38:35Z</time>
      </trkpt>
      <trkpt lat="43.17271" lon="6.48397">
        <ele>257.3</ele>
        <time>2024-02-04T10:38:36Z</time>
      </trkpt>
      <trkpt lat="43.17271" lon="6.48399">
        <ele>257.3</ele>
        <time>2024-02-04T10:38:37Z</time>
      </trkpt>
      <trkpt lat="43.17271" lon="6.48399">
        <ele>257.3</ele>
        <time>2024-02-04T10:38:38Z</time>
      </trkpt>
      <trkpt lat="43.17271" lon="6.48401">
        <ele>257.3</ele>
        <time>2024-02-04T10:38:39Z</time>
      </trkpt>
      <trkpt lat="43.17271" lon="6.48402">
        <ele>257.4</ele>
        <time>2024-02-04T10:38:40Z</time>
      </trkpt>
      <trkpt lat="43.17271" lon="6.48403">
        <ele>257.4</ele>
        <time>2024-02-04T10:38:41Z</time>
      </trkpt>
      <trkpt lat="43.17271" lon="6.48404">
        <ele>257.4</ele>
        <time>2024-02-04T10:38:42Z</time>
      </trkpt>
      <trkpt lat="43.17271" lon="6.48405">
        <ele>257.5</ele>
        <time>2024-02-04T10:38:43Z</time>
      </trkpt>
      <trkpt lat="43.17271" lon="6.48406">
        <ele>257.5</ele>
        <time>2024-02-04T10:38:44Z</time>
      </trkpt>
      <trkpt lat="43.1727" lon="6.48407">
        <ele>257.7</ele>
        <time>2024-02-04T10:38:45Z</time>
      </trkpt>
      <trkpt lat="43.1727" lon="6.48409">
        <ele>257.8</ele>
        <time>2024-02-04T10:38:46Z</time>
      </trkpt>
      <trkpt lat="43.1727" lon="6.4841">
        <ele>257.8</ele>
        <time>2024-02-04T10:38:47Z</time>
      </trkpt>
      <trkpt lat="43.17271" lon="6.48412">
        <ele>257.8</ele>
        <time>2024-02-04T10:38:48Z</time>
      </trkpt>
      <trkpt lat="43.1727" lon="6.48413">
        <ele>257.8</ele>
        <time>2024-02-04T10:38:49Z</time>
      </trkpt>
      <trkpt lat="43.1727" lon="6.48414">
        <ele>257.8</ele>
        <time>2024-02-04T10:38:50Z</time>
      </trkpt>
      <trkpt lat="43.17271" lon="6.48416">
        <ele>257.8</ele>
        <time>2024-02-04T10:38:51Z</time>
      </trkpt>
      <trkpt lat="43.17271" lon="6.48417">
        <ele>257.9</ele>
        <time>2024-02-04T10:38:52Z</time>
      </trkpt>
      <trkpt lat="43.1727" lon="6.48419">
        <ele>257.8</ele>
        <time>2024-02-04T10:38:53Z</time>
      </trkpt>
      <trkpt lat="43.1727" lon="6.4842">
        <ele>257.8</ele>
        <time>2024-02-04T10:38:54Z</time>
      </trkpt>
      <trkpt lat="43.1727" lon="6.48421">
        <ele>257.8</ele>
        <time>2024-02-04T10:38:55Z</time>
      </trkpt>
      <trkpt lat="43.17271" lon="6.48423">
        <ele>257.8</ele>
        <time>2024-02-04T10:38:56Z</time>
      </trkpt>
      <trkpt lat="43.17271" lon="6.48424">
        <ele>257.8</ele>
        <time>2024-02-04T10:38:57Z</time>
      </trkpt>
      <trkpt lat="43.17271" lon="6.48425">
        <ele>257.9</ele>
        <time>2024-02-04T10:38:58Z</time>
      </trkpt>
      <trkpt lat="43.17271" lon="6.48427">
        <ele>257.9</ele>
        <time>2024-02-04T10:38:59Z</time>
      </trkpt>
      <trkpt lat="43.17271" lon="6.48428">
        <ele>258</ele>
        <time>2024-02-04T10:39:00Z</time>
      </trkpt>
      <trkpt lat="43.17271" lon="6.48429">
        <ele>258</ele>
        <time>2024-02-04T10:39:01Z</time>
      </trkpt>
      <trkpt lat="43.17271" lon="6.48431">
        <ele>258</ele>
        <time>2024-02-04T10:39:02Z</time>
      </trkpt>
      <trkpt lat="43.17271" lon="6.48432">
        <ele>258</ele>
        <time>2024-02-04T10:39:03Z</time>
      </trkpt>
      <trkpt lat="43.17271" lon="6.48433">
        <ele>258.1</ele>
        <time>2024-02-04T10:39:04Z</time>
      </trkpt>
      <trkpt lat="43.17271" lon="6.48435">
        <ele>258.1</ele>
        <time>2024-02-04T10:39:05Z</time>
      </trkpt>
      <trkpt lat="43.17271" lon="6.48436">
        <ele>258.2</ele>
        <time>2024-02-04T10:39:06Z</time>
      </trkpt>
      <trkpt lat="43.17272" lon="6.48437">
        <ele>258.3</ele>
        <time>2024-02-04T10:39:07Z</time>
      </trkpt>
      <trkpt lat="43.17272" lon="6.48439">
        <ele>258.3</ele>
        <time>2024-02-04T10:39:08Z</time>
      </trkpt>
      <trkpt lat="43.17272" lon="6.4844">
        <ele>258.4</ele>
        <time>2024-02-04T10:39:09Z</time>
      </trkpt>
      <trkpt lat="43.17272" lon="6.48441">
        <ele>258.4</ele>
        <time>2024-02-04T10:39:10Z</time>
      </trkpt>
      <trkpt lat="43.17273" lon="6.48443">
        <ele>258.5</ele>
        <time>2024-02-04T10:39:11Z</time>
      </trkpt>
      <trkpt lat="43.17273" lon="6.48444">
        <ele>258.6</ele>
        <time>2024-02-04T10:39:12Z</time>
      </trkpt>
      <trkpt lat="43.17273" lon="6.48445">
        <ele>258.7</ele>
        <time>2024-02-04T10:39:13Z</time>
      </trkpt>
      <trkpt lat="43.17274" lon="6.48446">
        <ele>258.7</ele>
        <time>2024-02-04T10:39:14Z</time>
      </trkpt>
      <trkpt lat="43.17274" lon="6.48447">
        <ele>258.7</ele>
        <time>2024-02-04T10:39:15Z</time>
      </trkpt>
      <trkpt lat="43.17274" lon="6.48449">
        <ele>258.7</ele>
        <time>2024-02-04T10:39:16Z</time>
      </trkpt>
      <trkpt lat="43.17274" lon="6.4845">
        <ele>258.7</ele>
        <time>2024-02-04T10:39:17Z</time>
      </trkpt>
      <trkpt lat="43.17274" lon="6.48451">
        <ele>258.8</ele>
        <time>2024-02-04T10:39:18Z</time>
      </trkpt>
      <trkpt lat="43.17275" lon="6.48453">
        <ele>258.9</ele>
        <time>2024-02-04T10:39:19Z</time>
      </trkpt>
      <trkpt lat="43.17275" lon="6.48454">
        <ele>259</ele>
        <time>2024-02-04T10:39:20Z</time>
      </trkpt>
      <trkpt lat="43.17275" lon="6.48455">
        <ele>259.2</ele>
        <time>2024-02-04T10:39:21Z</time>
      </trkpt>
      <trkpt lat="43.17276" lon="6.48457">
        <ele>259.3</ele>
        <time>2024-02-04T10:39:22Z</time>
      </trkpt>
      <trkpt lat="43.17276" lon="6.48458">
        <ele>259.4</ele>
        <time>2024-02-04T10:39:23Z</time>
      </trkpt>
      <trkpt lat="43.17276" lon="6.4846">
        <ele>259.4</ele>
        <time>2024-02-04T10:39:24Z</time>
      </trkpt>
      <trkpt lat="43.17277" lon="6.48461">
        <ele>259.8</ele>
        <time>2024-02-04T10:39:25Z</time>
      </trkpt>
      <trkpt lat="43.17277" lon="6.48462">
        <ele>259.9</ele>
        <time>2024-02-04T10:39:26Z</time>
      </trkpt>
      <trkpt lat="43.17277" lon="6.48463">
        <ele>260</ele>
        <time>2024-02-04T10:39:27Z</time>
      </trkpt>
      <trkpt lat="43.17278" lon="6.48464">
        <ele>260</ele>
        <time>2024-02-04T10:39:28Z</time>
      </trkpt>
      <trkpt lat="43.17278" lon="6.48465">
        <ele>260.1</ele>
        <time>2024-02-04T10:39:29Z</time>
      </trkpt>
      <trkpt lat="43.17278" lon="6.48466">
        <ele>260.1</ele>
        <time>2024-02-04T10:39:30Z</time>
      </trkpt>
      <trkpt lat="43.17279" lon="6.48468">
        <ele>260.2</ele>
        <time>2024-02-04T10:39:31Z</time>
      </trkpt>
      <trkpt lat="43.17279" lon="6.48469">
        <ele>260.3</ele>
        <time>2024-02-04T10:39:32Z</time>
      </trkpt>
      <trkpt lat="43.17279" lon="6.4847">
        <ele>260.4</ele>
        <time>2024-02-04T10:39:33Z</time>
      </trkpt>
      <trkpt lat="43.17279" lon="6.48471">
        <ele>260.6</ele>
        <time>2024-02-04T10:39:34Z</time>
      </trkpt>
      <trkpt lat="43.1728" lon="6.48472">
        <ele>260.7</ele>
        <time>2024-02-04T10:39:35Z</time>
      </trkpt>
      <trkpt lat="43.1728" lon="6.48473">
        <ele>260.9</ele>
        <time>2024-02-04T10:39:36Z</time>
      </trkpt>
      <trkpt lat="43.1728" lon="6.48474">
        <ele>261</ele>
        <time>2024-02-04T10:39:37Z</time>
      </trkpt>
      <trkpt lat="43.1728" lon="6.48475">
        <ele>261</ele>
        <time>2024-02-04T10:39:38Z</time>
      </trkpt>
      <trkpt lat="43.1728" lon="6.48477">
        <ele>261.1</ele>
        <time>2024-02-04T10:39:39Z</time>
      </trkpt>
      <trkpt lat="43.17281" lon="6.48478">
        <ele>261.3</ele>
        <time>2024-02-04T10:39:40Z</time>
      </trkpt>
      <trkpt lat="43.17281" lon="6.48479">
        <ele>261.4</ele>
        <time>2024-02-04T10:39:41Z</time>
      </trkpt>
      <trkpt lat="43.17281" lon="6.48481">
        <ele>261.6</ele>
        <time>2024-02-04T10:39:42Z</time>
      </trkpt>
      <trkpt lat="43.17281" lon="6.48482">
        <ele>261.7</ele>
        <time>2024-02-04T10:39:43Z</time>
      </trkpt>
      <trkpt lat="43.17281" lon="6.48483">
        <ele>261.8</ele>
        <time>2024-02-04T10:39:44Z</time>
      </trkpt>
      <trkpt lat="43.17282" lon="6.48484">
        <ele>262</ele>
        <time>2024-02-04T10:39:45Z</time>
      </trkpt>
      <trkpt lat="43.17282" lon="6.48486">
        <ele>262.1</ele>
        <time>2024-02-04T10:39:46Z</time>
      </trkpt>
      <trkpt lat="43.17282" lon="6.48487">
        <ele>262.2</ele>
        <time>2024-02-04T10:39:47Z</time>
      </trkpt>
      <trkpt lat="43.17282" lon="6.48489">
        <ele>262.3</ele>
        <time>2024-02-04T10:39:48Z</time>
      </trkpt>
      <trkpt lat="43.17283" lon="6.4849">
        <ele>262.3</ele>
        <time>2024-02-04T10:39:49Z</time>
      </trkpt>
      <trkpt lat="43.17283" lon="6.48492">
        <ele>262.4</ele>
        <time>2024-02-04T10:39:50Z</time>
      </trkpt>
      <trkpt lat="43.17283" lon="6.48493">
        <ele>262.4</ele>
        <time>2024-02-04T10:39:51Z</time>
      </trkpt>
      <trkpt lat="43.17283" lon="6.48495">
        <ele>262.4</ele>
        <time>2024-02-04T10:39:52Z</time>
      </trkpt>
      <trkpt lat="43.17283" lon="6.48496">
        <ele>262.4</ele>
        <time>2024-02-04T10:39:53Z</time>
      </trkpt>
      <trkpt lat="43.17284" lon="6.48497">
        <ele>262.5</ele>
        <time>2024-02-04T10:39:54Z</time>
      </trkpt>
      <trkpt lat="43.17284" lon="6.48499">
        <ele>262.5</ele>
        <time>2024-02-04T10:39:55Z</time>
      </trkpt>
      <trkpt lat="43.17284" lon="6.48501">
        <ele>262.5</ele>
        <time>2024-02-04T10:39:56Z</time>
      </trkpt>
      <trkpt lat="43.17284" lon="6.48502">
        <ele>262.6</ele>
        <time>2024-02-04T10:39:57Z</time>
      </trkpt>
      <trkpt lat="43.17284" lon="6.48503">
        <ele>262.7</ele>
        <time>2024-02-04T10:39:58Z</time>
      </trkpt>
      <trkpt lat="43.17284" lon="6.48505">
        <ele>262.8</ele>
        <time>2024-02-04T10:39:59Z</time>
      </trkpt>
      <trkpt lat="43.17285" lon="6.48506">
        <ele>262.9</ele>
        <time>2024-02-04T10:40:00Z</time>
      </trkpt>
      <trkpt lat="43.17285" lon="6.48508">
        <ele>262.9</ele>
        <time>2024-02-04T10:40:01Z</time>
      </trkpt>
      <trkpt lat="43.17285" lon="6.48509">
        <ele>262.9</ele>
        <time>2024-02-04T10:40:02Z</time>
      </trkpt>
      <trkpt lat="43.17285" lon="6.4851">
        <ele>263</ele>
        <time>2024-02-04T10:40:03Z</time>
      </trkpt>
      <trkpt lat="43.17285" lon="6.48512">
        <ele>263</ele>
        <time>2024-02-04T10:40:04Z</time>
      </trkpt>
      <trkpt lat="43.17285" lon="6.48514">
        <ele>263.1</ele>
        <time>2024-02-04T10:40:05Z</time>
      </trkpt>
      <trkpt lat="43.17285" lon="6.48515">
        <ele>263.1</ele>
        <time>2024-02-04T10:40:06Z</time>
      </trkpt>
      <trkpt lat="43.17285" lon="6.48516">
        <ele>263.1</ele>
        <time>2024-02-04T10:40:07Z</time>
      </trkpt>
      <trkpt lat="43.17285" lon="6.48517">
        <ele>263.1</ele>
        <time>2024-02-04T10:40:08Z</time>
      </trkpt>
      <trkpt lat="43.17285" lon="6.48519">
        <ele>263.2</ele>
        <time>2024-02-04T10:40:09Z</time>
      </trkpt>
      <trkpt lat="43.17285" lon="6.4852">
        <ele>263.2</ele>
        <time>2024-02-04T10:40:10Z</time>
      </trkpt>
      <trkpt lat="43.17285" lon="6.48522">
        <ele>263.2</ele>
        <time>2024-02-04T10:40:11Z</time>
      </trkpt>
      <trkpt lat="43.17285" lon="6.48523">
        <ele>263.3</ele>
        <time>2024-02-04T10:40:12Z</time>
      </trkpt>
      <trkpt lat="43.17285" lon="6.48524">
        <ele>263.3</ele>
        <time>2024-02-04T10:40:13Z</time>
      </trkpt>
      <trkpt lat="43.17286" lon="6.48526">
        <ele>263.3</ele>
        <time>2024-02-04T10:40:14Z</time>
      </trkpt>
      <trkpt lat="43.17286" lon="6.48527">
        <ele>263.3</ele>
        <time>2024-02-04T10:40:15Z</time>
      </trkpt>
      <trkpt lat="43.17286" lon="6.48528">
        <ele>263.3</ele>
        <time>2024-02-04T10:40:16Z</time>
      </trkpt>
      <trkpt lat="43.17286" lon="6.4853">
        <ele>263.2</ele>
        <time>2024-02-04T10:40:17Z</time>
      </trkpt>
      <trkpt lat="43.17285" lon="6.48531">
        <ele>263.3</ele>
        <time>2024-02-04T10:40:18Z</time>
      </trkpt>
      <trkpt lat="43.17285" lon="6.48533">
        <ele>263.3</ele>
        <time>2024-02-04T10:40:19Z</time>
      </trkpt>
      <trkpt lat="43.17286" lon="6.48534">
        <ele>263.2</ele>
        <time>2024-02-04T10:40:20Z</time>
      </trkpt>
      <trkpt lat="43.17286" lon="6.48536">
        <ele>263</ele>
        <time>2024-02-04T10:40:21Z</time>
      </trkpt>
      <trkpt lat="43.17286" lon="6.48537">
        <ele>263</ele>
        <time>2024-02-04T10:40:22Z</time>
      </trkpt>
      <trkpt lat="43.17286" lon="6.48538">
        <ele>263</ele>
        <time>2024-02-04T10:40:23Z</time>
      </trkpt>
      <trkpt lat="43.17286" lon="6.4854">
        <ele>263</ele>
        <time>2024-02-04T10:40:24Z</time>
      </trkpt>
      <trkpt lat="43.17286" lon="6.48542">
        <ele>263.1</ele>
        <time>2024-02-04T10:40:25Z</time>
      </trkpt>
      <trkpt lat="43.17286" lon="6.48543">
        <ele>263.1</ele>
        <time>2024-02-04T10:40:26Z</time>
      </trkpt>
      <trkpt lat="43.17286" lon="6.48545">
        <ele>263</ele>
        <time>2024-02-04T10:40:27Z</time>
      </trkpt>
      <trkpt lat="43.17286" lon="6.48546">
        <ele>262.9</ele>
        <time>2024-02-04T10:40:28Z</time>
      </trkpt>
      <trkpt lat="43.17286" lon="6.48548">
        <ele>262.9</ele>
        <time>2024-02-04T10:40:29Z</time>
      </trkpt>
      <trkpt lat="43.17286" lon="6.48549">
        <ele>262.7</ele>
        <time>2024-02-04T10:40:30Z</time>
      </trkpt>
      <trkpt lat="43.17286" lon="6.4855">
        <ele>262.6</ele>
        <time>2024-02-04T10:40:31Z</time>
      </trkpt>
      <trkpt lat="43.17287" lon="6.48552">
        <ele>262.5</ele>
        <time>2024-02-04T10:40:32Z</time>
      </trkpt>
      <trkpt lat="43.17287" lon="6.48554">
        <ele>262.5</ele>
        <time>2024-02-04T10:40:33Z</time>
      </trkpt>
      <trkpt lat="43.17286" lon="6.48555">
        <ele>262.5</ele>
        <time>2024-02-04T10:40:34Z</time>
      </trkpt>
      <trkpt lat="43.17286" lon="6.48556">
        <ele>262.5</ele>
        <time>2024-02-04T10:40:35Z</time>
      </trkpt>
      <trkpt lat="43.17286" lon="6.48558">
        <ele>262.4</ele>
        <time>2024-02-04T10:40:36Z</time>
      </trkpt>
      <trkpt lat="43.17286" lon="6.48559">
        <ele>262.3</ele>
        <time>2024-02-04T10:40:37Z</time>
      </trkpt>
      <trkpt lat="43.17286" lon="6.4856">
        <ele>262.2</ele>
        <time>2024-02-04T10:40:38Z</time>
      </trkpt>
      <trkpt lat="43.17286" lon="6.48562">
        <ele>262.1</ele>
        <time>2024-02-04T10:40:39Z</time>
      </trkpt>
      <trkpt lat="43.17286" lon="6.48563">
        <ele>262</ele>
        <time>2024-02-04T10:40:40Z</time>
      </trkpt>
      <trkpt lat="43.17286" lon="6.48565">
        <ele>261.9</ele>
        <time>2024-02-04T10:40:41Z</time>
      </trkpt>
      <trkpt lat="43.17286" lon="6.48566">
        <ele>261.9</ele>
        <time>2024-02-04T10:40:42Z</time>
      </trkpt>
      <trkpt lat="43.17285" lon="6.48567">
        <ele>261.7</ele>
        <time>2024-02-04T10:40:43Z</time>
      </trkpt>
      <trkpt lat="43.17286" lon="6.48569">
        <ele>261.6</ele>
        <time>2024-02-04T10:40:44Z</time>
      </trkpt>
      <trkpt lat="43.17285" lon="6.4857">
        <ele>261.5</ele>
        <time>2024-02-04T10:40:45Z</time>
      </trkpt>
      <trkpt lat="43.17286" lon="6.48572">
        <ele>261.4</ele>
        <time>2024-02-04T10:40:46Z</time>
      </trkpt>
      <trkpt lat="43.17286" lon="6.48573">
        <ele>261.4</ele>
        <time>2024-02-04T10:40:47Z</time>
      </trkpt>
      <trkpt lat="43.17286" lon="6.48574">
        <ele>261.1</ele>
        <time>2024-02-04T10:40:48Z</time>
      </trkpt>
      <trkpt lat="43.17285" lon="6.48576">
        <ele>261</ele>
        <time>2024-02-04T10:40:49Z</time>
      </trkpt>
      <trkpt lat="43.17285" lon="6.48577">
        <ele>260.8</ele>
        <time>2024-02-04T10:40:50Z</time>
      </trkpt>
      <trkpt lat="43.17285" lon="6.48578">
        <ele>260.7</ele>
        <time>2024-02-04T10:40:51Z</time>
      </trkpt>
      <trkpt lat="43.17285" lon="6.48579">
        <ele>260.6</ele>
        <time>2024-02-04T10:40:52Z</time>
      </trkpt>
      <trkpt lat="43.17285" lon="6.48581">
        <ele>260.5</ele>
        <time>2024-02-04T10:40:53Z</time>
      </trkpt>
      <trkpt lat="43.17285" lon="6.48583">
        <ele>260.3</ele>
        <time>2024-02-04T10:40:54Z</time>
      </trkpt>
      <trkpt lat="43.17284" lon="6.48584">
        <ele>260.2</ele>
        <time>2024-02-04T10:40:55Z</time>
      </trkpt>
      <trkpt lat="43.17285" lon="6.48585">
        <ele>260.2</ele>
        <time>2024-02-04T10:40:56Z</time>
      </trkpt>
      <trkpt lat="43.17284" lon="6.48587">
        <ele>260.1</ele>
        <time>2024-02-04T10:40:57Z</time>
      </trkpt>
      <trkpt lat="43.17284" lon="6.48588">
        <ele>260</ele>
        <time>2024-02-04T10:40:58Z</time>
      </trkpt>
      <trkpt lat="43.17284" lon="6.48589">
        <ele>259.9</ele>
        <time>2024-02-04T10:40:59Z</time>
      </trkpt>
      <trkpt lat="43.17284" lon="6.48591">
        <ele>259.8</ele>
        <time>2024-02-04T10:41:00Z</time>
      </trkpt>
      <trkpt lat="43.17283" lon="6.48592">
        <ele>259.6</ele>
        <time>2024-02-04T10:41:01Z</time>
      </trkpt>
      <trkpt lat="43.17283" lon="6.48593">
        <ele>259.4</ele>
        <time>2024-02-04T10:41:02Z</time>
      </trkpt>
      <trkpt lat="43.17282" lon="6.48594">
        <ele>259.3</ele>
        <time>2024-02-04T10:41:03Z</time>
      </trkpt>
      <trkpt lat="43.17282" lon="6.48595">
        <ele>259.2</ele>
        <time>2024-02-04T10:41:04Z</time>
      </trkpt>
      <trkpt lat="43.17282" lon="6.48597">
        <ele>259</ele>
        <time>2024-02-04T10:41:05Z</time>
      </trkpt>
      <trkpt lat="43.17281" lon="6.48598">
        <ele>258.9</ele>
        <time>2024-02-04T10:41:06Z</time>
      </trkpt>
      <trkpt lat="43.17281" lon="6.48599">
        <ele>258.8</ele>
        <time>2024-02-04T10:41:07Z</time>
      </trkpt>
      <trkpt lat="43.1728" lon="6.486">
        <ele>258.8</ele>
        <time>2024-02-04T10:41:08Z</time>
      </trkpt>
      <trkpt lat="43.1728" lon="6.48602">
        <ele>258.6</ele>
        <time>2024-02-04T10:41:09Z</time>
      </trkpt>
      <trkpt lat="43.1728" lon="6.48603">
        <ele>258.5</ele>
        <time>2024-02-04T10:41:10Z</time>
      </trkpt>
      <trkpt lat="43.17279" lon="6.48604">
        <ele>258.4</ele>
        <time>2024-02-04T10:41:11Z</time>
      </trkpt>
      <trkpt lat="43.17279" lon="6.48606">
        <ele>258.2</ele>
        <time>2024-02-04T10:41:12Z</time>
      </trkpt>
      <trkpt lat="43.17278" lon="6.48607">
        <ele>258.1</ele>
        <time>2024-02-04T10:41:13Z</time>
      </trkpt>
      <trkpt lat="43.17277" lon="6.48608">
        <ele>258</ele>
        <time>2024-02-04T10:41:14Z</time>
      </trkpt>
      <trkpt lat="43.17276" lon="6.48609">
        <ele>257.9</ele>
        <time>2024-02-04T10:41:15Z</time>
      </trkpt>
      <trkpt lat="43.17275" lon="6.4861">
        <ele>257.8</ele>
        <time>2024-02-04T10:41:16Z</time>
      </trkpt>
      <trkpt lat="43.17275" lon="6.48611">
        <ele>257.7</ele>
        <time>2024-02-04T10:41:17Z</time>
      </trkpt>
      <trkpt lat="43.17274" lon="6.48612">
        <ele>257.6</ele>
        <time>2024-02-04T10:41:18Z</time>
      </trkpt>
      <trkpt lat="43.17273" lon="6.48614">
        <ele>257.6</ele>
        <time>2024-02-04T10:41:19Z</time>
      </trkpt>
      <trkpt lat="43.17273" lon="6.48615">
        <ele>257.5</ele>
        <time>2024-02-04T10:41:20Z</time>
      </trkpt>
      <trkpt lat="43.17272" lon="6.48616">
        <ele>257.4</ele>
        <time>2024-02-04T10:41:21Z</time>
      </trkpt>
      <trkpt lat="43.17272" lon="6.48617">
        <ele>257.3</ele>
        <time>2024-02-04T10:41:22Z</time>
      </trkpt>
      <trkpt lat="43.17271" lon="6.48617">
        <ele>257.2</ele>
        <time>2024-02-04T10:41:23Z</time>
      </trkpt>
      <trkpt lat="43.1727" lon="6.48618">
        <ele>257</ele>
        <time>2024-02-04T10:41:24Z</time>
      </trkpt>
      <trkpt lat="43.1727" lon="6.4862">
        <ele>256.9</ele>
        <time>2024-02-04T10:41:25Z</time>
      </trkpt>
      <trkpt lat="43.17269" lon="6.48621">
        <ele>256.9</ele>
        <time>2024-02-04T10:41:26Z</time>
      </trkpt>
      <trkpt lat="43.17268" lon="6.48622">
        <ele>256.8</ele>
        <time>2024-02-04T10:41:27Z</time>
      </trkpt>
      <trkpt lat="43.17268" lon="6.48623">
        <ele>256.7</ele>
        <time>2024-02-04T10:41:28Z</time>
      </trkpt>
      <trkpt lat="43.17267" lon="6.48624">
        <ele>256.7</ele>
        <time>2024-02-04T10:41:29Z</time>
      </trkpt>
      <trkpt lat="43.17266" lon="6.48625">
        <ele>256.6</ele>
        <time>2024-02-04T10:41:30Z</time>
      </trkpt>
      <trkpt lat="43.17266" lon="6.48626">
        <ele>256.6</ele>
        <time>2024-02-04T10:41:31Z</time>
      </trkpt>
      <trkpt lat="43.17265" lon="6.48627">
        <ele>256.6</ele>
        <time>2024-02-04T10:41:32Z</time>
      </trkpt>
      <trkpt lat="43.17265" lon="6.48628">
        <ele>256.6</ele>
        <time>2024-02-04T10:41:33Z</time>
      </trkpt>
      <trkpt lat="43.17264" lon="6.48629">
        <ele>256.5</ele>
        <time>2024-02-04T10:41:34Z</time>
      </trkpt>
      <trkpt lat="43.17264" lon="6.4863">
        <ele>256.4</ele>
        <time>2024-02-04T10:41:35Z</time>
      </trkpt>
      <trkpt lat="43.17263" lon="6.48632">
        <ele>256.3</ele>
        <time>2024-02-04T10:41:36Z</time>
      </trkpt>
      <trkpt lat="43.17263" lon="6.48633">
        <ele>256.3</ele>
        <time>2024-02-04T10:41:37Z</time>
      </trkpt>
      <trkpt lat="43.17262" lon="6.48634">
        <ele>256.3</ele>
        <time>2024-02-04T10:41:38Z</time>
      </trkpt>
      <trkpt lat="43.17261" lon="6.48634">
        <ele>256.2</ele>
        <time>2024-02-04T10:41:39Z</time>
      </trkpt>
      <trkpt lat="43.17261" lon="6.48635">
        <ele>256</ele>
        <time>2024-02-04T10:41:40Z</time>
      </trkpt>
      <trkpt lat="43.1726" lon="6.48636">
        <ele>255.9</ele>
        <time>2024-02-04T10:41:41Z</time>
      </trkpt>
      <trkpt lat="43.1726" lon="6.48637">
        <ele>255.8</ele>
        <time>2024-02-04T10:41:42Z</time>
      </trkpt>
      <trkpt lat="43.17259" lon="6.48639">
        <ele>255.7</ele>
        <time>2024-02-04T10:41:43Z</time>
      </trkpt>
      <trkpt lat="43.17259" lon="6.4864">
        <ele>255.6</ele>
        <time>2024-02-04T10:41:44Z</time>
      </trkpt>
      <trkpt lat="43.17258" lon="6.48641">
        <ele>255.5</ele>
        <time>2024-02-04T10:41:45Z</time>
      </trkpt>
      <trkpt lat="43.17257" lon="6.48642">
        <ele>255.4</ele>
        <time>2024-02-04T10:41:46Z</time>
      </trkpt>
      <trkpt lat="43.17257" lon="6.48643">
        <ele>255.4</ele>
        <time>2024-02-04T10:41:47Z</time>
      </trkpt>
      <trkpt lat="43.17257" lon="6.48645">
        <ele>255.4</ele>
        <time>2024-02-04T10:41:48Z</time>
      </trkpt>
      <trkpt lat="43.17256" lon="6.48646">
        <ele>255.4</ele>
        <time>2024-02-04T10:41:49Z</time>
      </trkpt>
      <trkpt lat="43.17256" lon="6.48647">
        <ele>255.3</ele>
        <time>2024-02-04T10:41:50Z</time>
      </trkpt>
      <trkpt lat="43.17255" lon="6.48648">
        <ele>255.3</ele>
        <time>2024-02-04T10:41:51Z</time>
      </trkpt>
      <trkpt lat="43.17254" lon="6.48649">
        <ele>255.3</ele>
        <time>2024-02-04T10:41:52Z</time>
      </trkpt>
      <trkpt lat="43.17254" lon="6.4865">
        <ele>255.3</ele>
        <time>2024-02-04T10:41:53Z</time>
      </trkpt>
      <trkpt lat="43.17253" lon="6.48651">
        <ele>255.2</ele>
        <time>2024-02-04T10:41:54Z</time>
      </trkpt>
      <trkpt lat="43.17253" lon="6.48652">
        <ele>255.1</ele>
        <time>2024-02-04T10:41:55Z</time>
      </trkpt>
      <trkpt lat="43.17253" lon="6.48653">
        <ele>255.1</ele>
        <time>2024-02-04T10:41:56Z</time>
      </trkpt>
      <trkpt lat="43.17253" lon="6.48654">
        <ele>255.1</ele>
        <time>2024-02-04T10:41:57Z</time>
      </trkpt>
      <trkpt lat="43.17253" lon="6.48655">
        <ele>255</ele>
        <time>2024-02-04T10:41:58Z</time>
      </trkpt>
      <trkpt lat="43.17253" lon="6.48656">
        <ele>254.9</ele>
        <time>2024-02-04T10:41:59Z</time>
      </trkpt>
      <trkpt lat="43.17252" lon="6.48656">
        <ele>255</ele>
        <time>2024-02-04T10:42:00Z</time>
      </trkpt>
      <trkpt lat="43.17252" lon="6.48658">
        <ele>255</ele>
        <time>2024-02-04T10:42:01Z</time>
      </trkpt>
      <trkpt lat="43.17252" lon="6.48659">
        <ele>255</ele>
        <time>2024-02-04T10:42:02Z</time>
      </trkpt>
      <trkpt lat="43.17252" lon="6.4866">
        <ele>255</ele>
        <time>2024-02-04T10:42:03Z</time>
      </trkpt>
      <trkpt lat="43.17251" lon="6.48662">
        <ele>254.9</ele>
        <time>2024-02-04T10:42:04Z</time>
      </trkpt>
      <trkpt lat="43.17251" lon="6.48663">
        <ele>254.9</ele>
        <time>2024-02-04T10:42:05Z</time>
      </trkpt>
      <trkpt lat="43.17251" lon="6.48665">
        <ele>254.9</ele>
        <time>2024-02-04T10:42:06Z</time>
      </trkpt>
      <trkpt lat="43.17251" lon="6.48666">
        <ele>254.9</ele>
        <time>2024-02-04T10:42:07Z</time>
      </trkpt>
      <trkpt lat="43.17251" lon="6.48668">
        <ele>254.9</ele>
        <time>2024-02-04T10:42:08Z</time>
      </trkpt>
      <trkpt lat="43.17251" lon="6.4867">
        <ele>255</ele>
        <time>2024-02-04T10:42:09Z</time>
      </trkpt>
      <trkpt lat="43.17251" lon="6.48671">
        <ele>255</ele>
        <time>2024-02-04T10:42:10Z</time>
      </trkpt>
      <trkpt lat="43.1725" lon="6.48673">
        <ele>255</ele>
        <time>2024-02-04T10:42:11Z</time>
      </trkpt>
      <trkpt lat="43.1725" lon="6.48675">
        <ele>254.9</ele>
        <time>2024-02-04T10:42:12Z</time>
      </trkpt>
      <trkpt lat="43.1725" lon="6.48676">
        <ele>254.8</ele>
        <time>2024-02-04T10:42:13Z</time>
      </trkpt>
      <trkpt lat="43.1725" lon="6.48678">
        <ele>254.8</ele>
        <time>2024-02-04T10:42:14Z</time>
      </trkpt>
      <trkpt lat="43.1725" lon="6.4868">
        <ele>254.7</ele>
        <time>2024-02-04T10:42:15Z</time>
      </trkpt>
      <trkpt lat="43.1725" lon="6.48681">
        <ele>254.6</ele>
        <time>2024-02-04T10:42:16Z</time>
      </trkpt>
      <trkpt lat="43.1725" lon="6.48683">
        <ele>254.6</ele>
        <time>2024-02-04T10:42:17Z</time>
      </trkpt>
      <trkpt lat="43.1725" lon="6.48684">
        <ele>254.5</ele>
        <time>2024-02-04T10:42:18Z</time>
      </trkpt>
      <trkpt lat="43.17251" lon="6.48686">
        <ele>254.6</ele>
        <time>2024-02-04T10:42:19Z</time>
      </trkpt>
      <trkpt lat="43.17251" lon="6.48687">
        <ele>254.6</ele>
        <time>2024-02-04T10:42:20Z</time>
      </trkpt>
      <trkpt lat="43.17251" lon="6.48688">
        <ele>254.6</ele>
        <time>2024-02-04T10:42:21Z</time>
      </trkpt>
      <trkpt lat="43.17251" lon="6.4869">
        <ele>254.6</ele>
        <time>2024-02-04T10:42:22Z</time>
      </trkpt>
      <trkpt lat="43.17251" lon="6.48691">
        <ele>254.6</ele>
        <time>2024-02-04T10:42:23Z</time>
      </trkpt>
      <trkpt lat="43.17252" lon="6.48692">
        <ele>254.6</ele>
        <time>2024-02-04T10:42:24Z</time>
      </trkpt>
      <trkpt lat="43.17253" lon="6.48693">
        <ele>254.7</ele>
        <time>2024-02-04T10:42:25Z</time>
      </trkpt>
      <trkpt lat="43.17254" lon="6.48695">
        <ele>254.8</ele>
        <time>2024-02-04T10:42:26Z</time>
      </trkpt>
      <trkpt lat="43.17254" lon="6.48695">
        <ele>254.9</ele>
        <time>2024-02-04T10:42:27Z</time>
      </trkpt>
      <trkpt lat="43.17255" lon="6.48695">
        <ele>255</ele>
        <time>2024-02-04T10:42:28Z</time>
      </trkpt>
      <trkpt lat="43.17256" lon="6.48696">
        <ele>255.1</ele>
        <time>2024-02-04T10:42:29Z</time>
      </trkpt>
      <trkpt lat="43.17256" lon="6.48696">
        <ele>255.2</ele>
        <time>2024-02-04T10:42:30Z</time>
      </trkpt>
      <trkpt lat="43.17257" lon="6.48696">
        <ele>255.3</ele>
        <time>2024-02-04T10:42:31Z</time>
      </trkpt>
      <trkpt lat="43.17257" lon="6.48696">
        <ele>255.5</ele>
        <time>2024-02-04T10:42:32Z</time>
      </trkpt>
      <trkpt lat="43.17258" lon="6.48696">
        <ele>255.8</ele>
        <time>2024-02-04T10:42:33Z</time>
      </trkpt>
      <trkpt lat="43.17258" lon="6.48696">
        <ele>255.9</ele>
        <time>2024-02-04T10:42:34Z</time>
      </trkpt>
      <trkpt lat="43.17259" lon="6.48695">
        <ele>256.1</ele>
        <time>2024-02-04T10:42:35Z</time>
      </trkpt>
      <trkpt lat="43.1726" lon="6.48695">
        <ele>256.2</ele>
        <time>2024-02-04T10:42:36Z</time>
      </trkpt>
      <trkpt lat="43.1726" lon="6.48695">
        <ele>256.5</ele>
        <time>2024-02-04T10:42:37Z</time>
      </trkpt>
      <trkpt lat="43.17261" lon="6.48695">
        <ele>256.7</ele>
        <time>2024-02-04T10:42:38Z</time>
      </trkpt>
      <trkpt lat="43.17262" lon="6.48695">
        <ele>256.9</ele>
        <time>2024-02-04T10:42:39Z</time>
      </trkpt>
      <trkpt lat="43.17262" lon="6.48695">
        <ele>257.1</ele>
        <time>2024-02-04T10:42:40Z</time>
      </trkpt>
      <trkpt lat="43.17263" lon="6.48695">
        <ele>257.3</ele>
        <time>2024-02-04T10:42:41Z</time>
      </trkpt>
      <trkpt lat="43.17263" lon="6.48695">
        <ele>257.5</ele>
        <time>2024-02-04T10:42:42Z</time>
      </trkpt>
      <trkpt lat="43.17264" lon="6.48694">
        <ele>257.8</ele>
        <time>2024-02-04T10:42:43Z</time>
      </trkpt>
      <trkpt lat="43.17265" lon="6.48694">
        <ele>257.9</ele>
        <time>2024-02-04T10:42:44Z</time>
      </trkpt>
      <trkpt lat="43.17265" lon="6.48695">
        <ele>258.2</ele>
        <time>2024-02-04T10:42:45Z</time>
      </trkpt>
      <trkpt lat="43.17265" lon="6.48694">
        <ele>258.3</ele>
        <time>2024-02-04T10:42:46Z</time>
      </trkpt>
      <trkpt lat="43.17266" lon="6.48694">
        <ele>258.5</ele>
        <time>2024-02-04T10:42:47Z</time>
      </trkpt>
      <trkpt lat="43.17266" lon="6.48694">
        <ele>258.6</ele>
        <time>2024-02-04T10:42:48Z</time>
      </trkpt>
      <trkpt lat="43.17266" lon="6.48694">
        <ele>258.9</ele>
        <time>2024-02-04T10:42:49Z</time>
      </trkpt>
      <trkpt lat="43.17267" lon="6.48694">
        <ele>259</ele>
        <time>2024-02-04T10:42:50Z</time>
      </trkpt>
      <trkpt lat="43.17267" lon="6.48694">
        <ele>259.2</ele>
        <time>2024-02-04T10:42:51Z</time>
      </trkpt>
      <trkpt lat="43.17268" lon="6.48694">
        <ele>259.4</ele>
        <time>2024-02-04T10:42:52Z</time>
      </trkpt>
      <trkpt lat="43.17269" lon="6.48694">
        <ele>259.7</ele>
        <time>2024-02-04T10:42:53Z</time>
      </trkpt>
      <trkpt lat="43.17269" lon="6.48694">
        <ele>259.9</ele>
        <time>2024-02-04T10:42:54Z</time>
      </trkpt>
      <trkpt lat="43.1727" lon="6.48694">
        <ele>260.1</ele>
        <time>2024-02-04T10:42:55Z</time>
      </trkpt>
      <trkpt lat="43.1727" lon="6.48693">
        <ele>260.2</ele>
        <time>2024-02-04T10:42:56Z</time>
      </trkpt>
      <trkpt lat="43.1727" lon="6.48693">
        <ele>260.4</ele>
        <time>2024-02-04T10:42:57Z</time>
      </trkpt>
      <trkpt lat="43.17271" lon="6.48692">
        <ele>260.7</ele>
        <time>2024-02-04T10:42:58Z</time>
      </trkpt>
      <trkpt lat="43.17271" lon="6.48692">
        <ele>260.9</ele>
        <time>2024-02-04T10:42:59Z</time>
      </trkpt>
      <trkpt lat="43.17272" lon="6.48691">
        <ele>261.1</ele>
        <time>2024-02-04T10:43:00Z</time>
      </trkpt>
      <trkpt lat="43.17272" lon="6.48691">
        <ele>261.3</ele>
        <time>2024-02-04T10:43:01Z</time>
      </trkpt>
      <trkpt lat="43.17272" lon="6.48691">
        <ele>261.5</ele>
        <time>2024-02-04T10:43:02Z</time>
      </trkpt>
      <trkpt lat="43.17272" lon="6.4869">
        <ele>261.7</ele>
        <time>2024-02-04T10:43:03Z</time>
      </trkpt>
      <trkpt lat="43.17273" lon="6.4869">
        <ele>261.9</ele>
        <time>2024-02-04T10:43:04Z</time>
      </trkpt>
      <trkpt lat="43.17273" lon="6.48689">
        <ele>262.1</ele>
        <time>2024-02-04T10:43:05Z</time>
      </trkpt>
      <trkpt lat="43.17273" lon="6.48689">
        <ele>262.2</ele>
        <time>2024-02-04T10:43:06Z</time>
      </trkpt>
      <trkpt lat="43.17274" lon="6.48689">
        <ele>262.3</ele>
        <time>2024-02-04T10:43:07Z</time>
      </trkpt>
      <trkpt lat="43.17274" lon="6.48688">
        <ele>262.5</ele>
        <time>2024-02-04T10:43:08Z</time>
      </trkpt>
      <trkpt lat="43.17275" lon="6.48688">
        <ele>262.7</ele>
        <time>2024-02-04T10:43:09Z</time>
      </trkpt>
      <trkpt lat="43.17275" lon="6.48688">
        <ele>262.9</ele>
        <time>2024-02-04T10:43:10Z</time>
      </trkpt>
      <trkpt lat="43.17275" lon="6.48687">
        <ele>263.1</ele>
        <time>2024-02-04T10:43:11Z</time>
      </trkpt>
      <trkpt lat="43.17276" lon="6.48687">
        <ele>263.2</ele>
        <time>2024-02-04T10:43:12Z</time>
      </trkpt>
      <trkpt lat="43.17276" lon="6.48687">
        <ele>263.4</ele>
        <time>2024-02-04T10:43:13Z</time>
      </trkpt>
      <trkpt lat="43.17276" lon="6.48686">
        <ele>263.5</ele>
        <time>2024-02-04T10:43:14Z</time>
      </trkpt>
      <trkpt lat="43.17277" lon="6.48686">
        <ele>263.6</ele>
        <time>2024-02-04T10:43:15Z</time>
      </trkpt>
      <trkpt lat="43.17277" lon="6.48685">
        <ele>263.9</ele>
        <time>2024-02-04T10:43:16Z</time>
      </trkpt>
      <trkpt lat="43.17278" lon="6.48685">
        <ele>264.1</ele>
        <time>2024-02-04T10:43:17Z</time>
      </trkpt>
      <trkpt lat="43.17279" lon="6.48685">
        <ele>264.3</ele>
        <time>2024-02-04T10:43:18Z</time>
      </trkpt>
      <trkpt lat="43.17279" lon="6.48684">
        <ele>264.5</ele>
        <time>2024-02-04T10:43:19Z</time>
      </trkpt>
      <trkpt lat="43.17279" lon="6.48684">
        <ele>264.6</ele>
        <time>2024-02-04T10:43:20Z</time>
      </trkpt>
      <trkpt lat="43.17279" lon="6.48684">
        <ele>264.7</ele>
        <time>2024-02-04T10:43:21Z</time>
      </trkpt>
      <trkpt lat="43.1728" lon="6.48684">
        <ele>264.9</ele>
        <time>2024-02-04T10:43:22Z</time>
      </trkpt>
      <trkpt lat="43.1728" lon="6.48684">
        <ele>265</ele>
        <time>2024-02-04T10:43:23Z</time>
      </trkpt>
      <trkpt lat="43.17281" lon="6.48684">
        <ele>265.2</ele>
        <time>2024-02-04T10:43:24Z</time>
      </trkpt>
      <trkpt lat="43.17281" lon="6.48684">
        <ele>265.4</ele>
        <time>2024-02-04T10:43:25Z</time>
      </trkpt>
      <trkpt lat="43.17281" lon="6.48684">
        <ele>265.5</ele>
        <time>2024-02-04T10:43:26Z</time>
      </trkpt>
      <trkpt lat="43.17282" lon="6.48684">
        <ele>265.7</ele>
        <time>2024-02-04T10:43:27Z</time>
      </trkpt>
      <trkpt lat="43.17283" lon="6.48684">
        <ele>265.9</ele>
        <time>2024-02-04T10:43:28Z</time>
      </trkpt>
      <trkpt lat="43.17283" lon="6.48683">
        <ele>266.2</ele>
        <time>2024-02-04T10:43:29Z</time>
      </trkpt>
      <trkpt lat="43.17283" lon="6.48683">
        <ele>266.5</ele>
        <time>2024-02-04T10:43:30Z</time>
      </trkpt>
      <trkpt lat="43.17284" lon="6.48683">
        <ele>266.8</ele>
        <time>2024-02-04T10:43:31Z</time>
      </trkpt>
      <trkpt lat="43.17284" lon="6.48682">
        <ele>267.1</ele>
        <time>2024-02-04T10:43:32Z</time>
      </trkpt>
      <trkpt lat="43.17285" lon="6.48682">
        <ele>267.3</ele>
        <time>2024-02-04T10:43:33Z</time>
      </trkpt>
      <trkpt lat="43.17285" lon="6.48682">
        <ele>267.5</ele>
        <time>2024-02-04T10:43:34Z</time>
      </trkpt>
      <trkpt lat="43.17286" lon="6.48682">
        <ele>267.7</ele>
        <time>2024-02-04T10:43:35Z</time>
      </trkpt>
      <trkpt lat="43.17286" lon="6.48682">
        <ele>268</ele>
        <time>2024-02-04T10:43:36Z</time>
      </trkpt>
      <trkpt lat="43.17287" lon="6.48681">
        <ele>268.3</ele>
        <time>2024-02-04T10:43:37Z</time>
      </trkpt>
      <trkpt lat="43.17287" lon="6.48681">
        <ele>268.5</ele>
        <time>2024-02-04T10:43:38Z</time>
      </trkpt>
      <trkpt lat="43.17287" lon="6.48681">
        <ele>268.7</ele>
        <time>2024-02-04T10:43:39Z</time>
      </trkpt>
      <trkpt lat="43.17288" lon="6.4868">
        <ele>268.9</ele>
        <time>2024-02-04T10:43:40Z</time>
      </trkpt>
      <trkpt lat="43.17288" lon="6.4868">
        <ele>269.1</ele>
        <time>2024-02-04T10:43:41Z</time>
      </trkpt>
      <trkpt lat="43.17288" lon="6.4868">
        <ele>269.3</ele>
        <time>2024-02-04T10:43:42Z</time>
      </trkpt>
      <trkpt lat="43.17289" lon="6.48679">
        <ele>269.5</ele>
        <time>2024-02-04T10:43:43Z</time>
      </trkpt>
      <trkpt lat="43.17289" lon="6.48679">
        <ele>269.7</ele>
        <time>2024-02-04T10:43:44Z</time>
      </trkpt>
      <trkpt lat="43.1729" lon="6.48679">
        <ele>269.8</ele>
        <time>2024-02-04T10:43:45Z</time>
      </trkpt>
      <trkpt lat="43.1729" lon="6.48679">
        <ele>269.9</ele>
        <time>2024-02-04T10:43:46Z</time>
      </trkpt>
      <trkpt lat="43.17291" lon="6.48679">
        <ele>270.1</ele>
        <time>2024-02-04T10:43:47Z</time>
      </trkpt>
      <trkpt lat="43.17292" lon="6.48679">
        <ele>270.3</ele>
        <time>2024-02-04T10:43:48Z</time>
      </trkpt>
      <trkpt lat="43.17292" lon="6.48679">
        <ele>270.4</ele>
        <time>2024-02-04T10:43:49Z</time>
      </trkpt>
      <trkpt lat="43.17292" lon="6.48679">
        <ele>270.5</ele>
        <time>2024-02-04T10:43:50Z</time>
      </trkpt>
      <trkpt lat="43.17293" lon="6.4868">
        <ele>270.6</ele>
        <time>2024-02-04T10:43:51Z</time>
      </trkpt>
      <trkpt lat="43.17293" lon="6.4868">
        <ele>270.8</ele>
        <time>2024-02-04T10:43:52Z</time>
      </trkpt>
      <trkpt lat="43.17294" lon="6.4868">
        <ele>270.9</ele>
        <time>2024-02-04T10:43:53Z</time>
      </trkpt>
      <trkpt lat="43.17295" lon="6.48679">
        <ele>271.1</ele>
        <time>2024-02-04T10:43:54Z</time>
      </trkpt>
      <trkpt lat="43.17295" lon="6.48679">
        <ele>271.3</ele>
        <time>2024-02-04T10:43:55Z</time>
      </trkpt>
      <trkpt lat="43.17295" lon="6.48679">
        <ele>271.4</ele>
        <time>2024-02-04T10:43:56Z</time>
      </trkpt>
      <trkpt lat="43.17295" lon="6.48679">
        <ele>271.6</ele>
        <time>2024-02-04T10:43:57Z</time>
      </trkpt>
      <trkpt lat="43.17296" lon="6.48679">
        <ele>271.8</ele>
        <time>2024-02-04T10:43:58Z</time>
      </trkpt>
      <trkpt lat="43.17296" lon="6.48678">
        <ele>271.9</ele>
        <time>2024-02-04T10:43:59Z</time>
      </trkpt>
      <trkpt lat="43.17296" lon="6.48678">
        <ele>272</ele>
        <time>2024-02-04T10:44:00Z</time>
      </trkpt>
      <trkpt lat="43.17297" lon="6.48677">
        <ele>272.2</ele>
        <time>2024-02-04T10:44:01Z</time>
      </trkpt>
      <trkpt lat="43.17297" lon="6.48677">
        <ele>272.4</ele>
        <time>2024-02-04T10:44:02Z</time>
      </trkpt>
      <trkpt lat="43.17297" lon="6.48676">
        <ele>272.5</ele>
        <time>2024-02-04T10:44:03Z</time>
      </trkpt>
      <trkpt lat="43.17298" lon="6.48676">
        <ele>272.7</ele>
        <time>2024-02-04T10:44:04Z</time>
      </trkpt>
      <trkpt lat="43.17298" lon="6.48676">
        <ele>272.7</ele>
        <time>2024-02-04T10:44:05Z</time>
      </trkpt>
      <trkpt lat="43.17299" lon="6.48675">
        <ele>272.7</ele>
        <time>2024-02-04T10:44:06Z</time>
      </trkpt>
      <trkpt lat="43.173" lon="6.48675">
        <ele>272.8</ele>
        <time>2024-02-04T10:44:07Z</time>
      </trkpt>
      <trkpt lat="43.173" lon="6.48675">
        <ele>272.9</ele>
        <time>2024-02-04T10:44:08Z</time>
      </trkpt>
      <trkpt lat="43.17301" lon="6.48674">
        <ele>273</ele>
        <time>2024-02-04T10:44:09Z</time>
      </trkpt>
      <trkpt lat="43.17302" lon="6.48674">
        <ele>273.1</ele>
        <time>2024-02-04T10:44:10Z</time>
      </trkpt>
      <trkpt lat="43.17302" lon="6.48674">
        <ele>273.3</ele>
        <time>2024-02-04T10:44:11Z</time>
      </trkpt>
      <trkpt lat="43.17303" lon="6.48674">
        <ele>273.5</ele>
        <time>2024-02-04T10:44:12Z</time>
      </trkpt>
      <trkpt lat="43.17304" lon="6.48673">
        <ele>273.6</ele>
        <time>2024-02-04T10:44:13Z</time>
      </trkpt>
      <trkpt lat="43.17305" lon="6.48673">
        <ele>273.6</ele>
        <time>2024-02-04T10:44:14Z</time>
      </trkpt>
      <trkpt lat="43.17305" lon="6.48673">
        <ele>273.7</ele>
        <time>2024-02-04T10:44:15Z</time>
      </trkpt>
      <trkpt lat="43.17306" lon="6.48673">
        <ele>273.9</ele>
        <time>2024-02-04T10:44:16Z</time>
      </trkpt>
      <trkpt lat="43.17307" lon="6.48673">
        <ele>274</ele>
        <time>2024-02-04T10:44:17Z</time>
      </trkpt>
      <trkpt lat="43.17307" lon="6.48673">
        <ele>274.1</ele>
        <time>2024-02-04T10:44:18Z</time>
      </trkpt>
      <trkpt lat="43.17307" lon="6.48672">
        <ele>274.4</ele>
        <time>2024-02-04T10:44:19Z</time>
      </trkpt>
      <trkpt lat="43.17308" lon="6.48672">
        <ele>274.4</ele>
        <time>2024-02-04T10:44:20Z</time>
      </trkpt>
      <trkpt lat="43.17309" lon="6.48672">
        <ele>274.5</ele>
        <time>2024-02-04T10:44:21Z</time>
      </trkpt>
      <trkpt lat="43.17309" lon="6.48671">
        <ele>274.5</ele>
        <time>2024-02-04T10:44:22Z</time>
      </trkpt>
      <trkpt lat="43.1731" lon="6.48671">
        <ele>274.6</ele>
        <time>2024-02-04T10:44:23Z</time>
      </trkpt>
      <trkpt lat="43.17311" lon="6.48671">
        <ele>274.7</ele>
        <time>2024-02-04T10:44:24Z</time>
      </trkpt>
      <trkpt lat="43.17312" lon="6.4867">
        <ele>274.9</ele>
        <time>2024-02-04T10:44:25Z</time>
      </trkpt>
      <trkpt lat="43.17312" lon="6.4867">
        <ele>275</ele>
        <time>2024-02-04T10:44:26Z</time>
      </trkpt>
      <trkpt lat="43.17312" lon="6.4867">
        <ele>275.2</ele>
        <time>2024-02-04T10:44:27Z</time>
      </trkpt>
      <trkpt lat="43.17313" lon="6.4867">
        <ele>275.2</ele>
        <time>2024-02-04T10:44:28Z</time>
      </trkpt>
      <trkpt lat="43.17313" lon="6.4867">
        <ele>275.4</ele>
        <time>2024-02-04T10:44:29Z</time>
      </trkpt>
      <trkpt lat="43.17314" lon="6.4867">
        <ele>275.6</ele>
        <time>2024-02-04T10:44:30Z</time>
      </trkpt>
      <trkpt lat="43.17314" lon="6.4867">
        <ele>275.6</ele>
        <time>2024-02-04T10:44:31Z</time>
      </trkpt>
      <trkpt lat="43.17315" lon="6.4867">
        <ele>275.7</ele>
        <time>2024-02-04T10:44:32Z</time>
      </trkpt>
      <trkpt lat="43.17315" lon="6.48669">
        <ele>275.8</ele>
        <time>2024-02-04T10:44:33Z</time>
      </trkpt>
      <trkpt lat="43.17315" lon="6.48669">
        <ele>275.9</ele>
        <time>2024-02-04T10:44:34Z</time>
      </trkpt>
      <trkpt lat="43.17316" lon="6.48669">
        <ele>276</ele>
        <time>2024-02-04T10:44:35Z</time>
      </trkpt>
      <trkpt lat="43.17316" lon="6.48669">
        <ele>276.1</ele>
        <time>2024-02-04T10:44:36Z</time>
      </trkpt>
      <trkpt lat="43.17317" lon="6.48669">
        <ele>276.2</ele>
        <time>2024-02-04T10:44:37Z</time>
      </trkpt>
      <trkpt lat="43.17318" lon="6.48669">
        <ele>276.3</ele>
        <time>2024-02-04T10:44:38Z</time>
      </trkpt>
      <trkpt lat="43.17318" lon="6.48669">
        <ele>276.3</ele>
        <time>2024-02-04T10:44:39Z</time>
      </trkpt>
      <trkpt lat="43.17319" lon="6.48669">
        <ele>276.4</ele>
        <time>2024-02-04T10:44:40Z</time>
      </trkpt>
      <trkpt lat="43.17319" lon="6.48668">
        <ele>276.5</ele>
        <time>2024-02-04T10:44:41Z</time>
      </trkpt>
      <trkpt lat="43.17319" lon="6.48668">
        <ele>276.6</ele>
        <time>2024-02-04T10:44:42Z</time>
      </trkpt>
      <trkpt lat="43.1732" lon="6.48668">
        <ele>276.7</ele>
        <time>2024-02-04T10:44:43Z</time>
      </trkpt>
      <trkpt lat="43.1732" lon="6.48668">
        <ele>276.8</ele>
        <time>2024-02-04T10:44:44Z</time>
      </trkpt>
      <trkpt lat="43.17321" lon="6.48667">
        <ele>277</ele>
        <time>2024-02-04T10:44:45Z</time>
      </trkpt>
      <trkpt lat="43.17321" lon="6.48667">
        <ele>277.2</ele>
        <time>2024-02-04T10:44:46Z</time>
      </trkpt>
      <trkpt lat="43.17322" lon="6.48667">
        <ele>277.3</ele>
        <time>2024-02-04T10:44:47Z</time>
      </trkpt>
      <trkpt lat="43.17322" lon="6.48667">
        <ele>277.4</ele>
        <time>2024-02-04T10:44:48Z</time>
      </trkpt>
      <trkpt lat="43.17322" lon="6.48667">
        <ele>277.5</ele>
        <time>2024-02-04T10:44:49Z</time>
      </trkpt>
      <trkpt lat="43.17323" lon="6.48667">
        <ele>277.6</ele>
        <time>2024-02-04T10:44:50Z</time>
      </trkpt>
      <trkpt lat="43.17323" lon="6.48667">
        <ele>277.8</ele>
        <time>2024-02-04T10:44:51Z</time>
      </trkpt>
      <trkpt lat="43.17323" lon="6.48667">
        <ele>277.9</ele>
        <time>2024-02-04T10:44:52Z</time>
      </trkpt>
      <trkpt lat="43.17324" lon="6.48666">
        <ele>277.9</ele>
        <time>2024-02-04T10:44:53Z</time>
      </trkpt>
      <trkpt lat="43.17325" lon="6.48665">
        <ele>278.1</ele>
        <time>2024-02-04T10:44:54Z</time>
      </trkpt>
      <trkpt lat="43.17325" lon="6.48665">
        <ele>278.2</ele>
        <time>2024-02-04T10:44:55Z</time>
      </trkpt>
      <trkpt lat="43.17325" lon="6.48665">
        <ele>278.3</ele>
        <time>2024-02-04T10:44:56Z</time>
      </trkpt>
      <trkpt lat="43.17326" lon="6.48665">
        <ele>278.4</ele>
        <time>2024-02-04T10:44:57Z</time>
      </trkpt>
      <trkpt lat="43.17326" lon="6.48664">
        <ele>278.5</ele>
        <time>2024-02-04T10:44:58Z</time>
      </trkpt>
      <trkpt lat="43.17327" lon="6.48664">
        <ele>278.7</ele>
        <time>2024-02-04T10:44:59Z</time>
      </trkpt>
      <trkpt lat="43.17327" lon="6.48664">
        <ele>278.8</ele>
        <time>2024-02-04T10:45:00Z</time>
      </trkpt>
      <trkpt lat="43.17327" lon="6.48664">
        <ele>278.9</ele>
        <time>2024-02-04T10:45:01Z</time>
      </trkpt>
      <trkpt lat="43.17328" lon="6.48663">
        <ele>279</ele>
        <time>2024-02-04T10:45:02Z</time>
      </trkpt>
      <trkpt lat="43.17328" lon="6.48663">
        <ele>279.1</ele>
        <time>2024-02-04T10:45:03Z</time>
      </trkpt>
      <trkpt lat="43.17328" lon="6.48662">
        <ele>279.1</ele>
        <time>2024-02-04T10:45:04Z</time>
      </trkpt>
      <trkpt lat="43.17329" lon="6.48662">
        <ele>279.2</ele>
        <time>2024-02-04T10:45:05Z</time>
      </trkpt>
      <trkpt lat="43.17329" lon="6.48662">
        <ele>279.2</ele>
        <time>2024-02-04T10:45:06Z</time>
      </trkpt>
      <trkpt lat="43.17329" lon="6.48662">
        <ele>279.3</ele>
        <time>2024-02-04T10:45:07Z</time>
      </trkpt>
      <trkpt lat="43.1733" lon="6.48662">
        <ele>279.4</ele>
        <time>2024-02-04T10:45:08Z</time>
      </trkpt>
      <trkpt lat="43.17331" lon="6.48662">
        <ele>279.5</ele>
        <time>2024-02-04T10:45:09Z</time>
      </trkpt>
      <trkpt lat="43.17332" lon="6.48662">
        <ele>279.7</ele>
        <time>2024-02-04T10:45:10Z</time>
      </trkpt>
      <trkpt lat="43.17332" lon="6.48661">
        <ele>279.8</ele>
        <time>2024-02-04T10:45:11Z</time>
      </trkpt>
      <trkpt lat="43.17332" lon="6.48661">
        <ele>279.9</ele>
        <time>2024-02-04T10:45:12Z</time>
      </trkpt>
      <trkpt lat="43.17333" lon="6.48661">
        <ele>280.1</ele>
        <time>2024-02-04T10:45:13Z</time>
      </trkpt>
      <trkpt lat="43.17333" lon="6.48662">
        <ele>280.2</ele>
        <time>2024-02-04T10:45:14Z</time>
      </trkpt>
      <trkpt lat="43.17334" lon="6.48662">
        <ele>280.4</ele>
        <time>2024-02-04T10:45:15Z</time>
      </trkpt>
      <trkpt lat="43.17334" lon="6.48661">
        <ele>280.5</ele>
        <time>2024-02-04T10:45:16Z</time>
      </trkpt>
      <trkpt lat="43.17335" lon="6.48661">
        <ele>280.7</ele>
        <time>2024-02-04T10:45:17Z</time>
      </trkpt>
      <trkpt lat="43.17335" lon="6.48661">
        <ele>280.8</ele>
        <time>2024-02-04T10:45:18Z</time>
      </trkpt>
      <trkpt lat="43.17335" lon="6.4866">
        <ele>280.9</ele>
        <time>2024-02-04T10:45:19Z</time>
      </trkpt>
      <trkpt lat="43.17335" lon="6.4866">
        <ele>281</ele>
        <time>2024-02-04T10:45:20Z</time>
      </trkpt>
      <trkpt lat="43.17336" lon="6.4866">
        <ele>281.2</ele>
        <time>2024-02-04T10:45:21Z</time>
      </trkpt>
      <trkpt lat="43.17336" lon="6.4866">
        <ele>281.4</ele>
        <time>2024-02-04T10:45:22Z</time>
      </trkpt>
      <trkpt lat="43.17337" lon="6.48659">
        <ele>281.5</ele>
        <time>2024-02-04T10:45:23Z</time>
      </trkpt>
      <trkpt lat="43.17337" lon="6.48659">
        <ele>281.7</ele>
        <time>2024-02-04T10:45:24Z</time>
      </trkpt>
      <trkpt lat="43.17337" lon="6.48658">
        <ele>281.7</ele>
        <time>2024-02-04T10:45:25Z</time>
      </trkpt>
      <trkpt lat="43.17337" lon="6.48658">
        <ele>282</ele>
        <time>2024-02-04T10:45:26Z</time>
      </trkpt>
      <trkpt lat="43.17338" lon="6.48657">
        <ele>282.1</ele>
        <time>2024-02-04T10:45:27Z</time>
      </trkpt>
      <trkpt lat="43.17338" lon="6.48657">
        <ele>282.2</ele>
        <time>2024-02-04T10:45:28Z</time>
      </trkpt>
      <trkpt lat="43.17338" lon="6.48657">
        <ele>282.3</ele>
        <time>2024-02-04T10:45:29Z</time>
      </trkpt>
      <trkpt lat="43.17339" lon="6.48656">
        <ele>282.4</ele>
        <time>2024-02-04T10:45:30Z</time>
      </trkpt>
      <trkpt lat="43.17339" lon="6.48656">
        <ele>282.6</ele>
        <time>2024-02-04T10:45:31Z</time>
      </trkpt>
      <trkpt lat="43.1734" lon="6.48655">
        <ele>282.7</ele>
        <time>2024-02-04T10:45:32Z</time>
      </trkpt>
      <trkpt lat="43.1734" lon="6.48655">
        <ele>282.8</ele>
        <time>2024-02-04T10:45:33Z</time>
      </trkpt>
      <trkpt lat="43.1734" lon="6.48655">
        <ele>282.9</ele>
        <time>2024-02-04T10:45:34Z</time>
      </trkpt>
      <trkpt lat="43.1734" lon="6.48654">
        <ele>283</ele>
        <time>2024-02-04T10:45:35Z</time>
      </trkpt>
      <trkpt lat="43.17341" lon="6.48654">
        <ele>283.1</ele>
        <time>2024-02-04T10:45:36Z</time>
      </trkpt>
      <trkpt lat="43.17342" lon="6.48653">
        <ele>283.2</ele>
        <time>2024-02-04T10:45:37Z</time>
      </trkpt>
      <trkpt lat="43.17342" lon="6.48653">
        <ele>283.3</ele>
        <time>2024-02-04T10:45:38Z</time>
      </trkpt>
      <trkpt lat="43.17342" lon="6.48652">
        <ele>283.5</ele>
        <time>2024-02-04T10:45:39Z</time>
      </trkpt>
      <trkpt lat="43.17343" lon="6.4865">
        <ele>283.7</ele>
        <time>2024-02-04T10:45:40Z</time>
      </trkpt>
      <trkpt lat="43.17343" lon="6.48649">
        <ele>283.8</ele>
        <time>2024-02-04T10:45:41Z</time>
      </trkpt>
      <trkpt lat="43.17343" lon="6.48648">
        <ele>283.9</ele>
        <time>2024-02-04T10:45:42Z</time>
      </trkpt>
      <trkpt lat="43.17344" lon="6.48647">
        <ele>284</ele>
        <time>2024-02-04T10:45:43Z</time>
      </trkpt>
      <trkpt lat="43.17344" lon="6.48647">
        <ele>284.1</ele>
        <time>2024-02-04T10:45:44Z</time>
      </trkpt>
      <trkpt lat="43.17344" lon="6.48646">
        <ele>284.1</ele>
        <time>2024-02-04T10:45:45Z</time>
      </trkpt>
      <trkpt lat="43.17344" lon="6.48646">
        <ele>284.2</ele>
        <time>2024-02-04T10:45:46Z</time>
      </trkpt>
      <trkpt lat="43.17345" lon="6.48646">
        <ele>284.3</ele>
        <time>2024-02-04T10:45:47Z</time>
      </trkpt>
      <trkpt lat="43.17345" lon="6.48646">
        <ele>284.3</ele>
        <time>2024-02-04T10:45:48Z</time>
      </trkpt>
      <trkpt lat="43.17345" lon="6.48645">
        <ele>284.3</ele>
        <time>2024-02-04T10:45:49Z</time>
      </trkpt>
      <trkpt lat="43.17345" lon="6.48645">
        <ele>284.4</ele>
        <time>2024-02-04T10:45:50Z</time>
      </trkpt>
      <trkpt lat="43.17346" lon="6.48645">
        <ele>284.6</ele>
        <time>2024-02-04T10:45:51Z</time>
      </trkpt>
      <trkpt lat="43.17346" lon="6.48645">
        <ele>284.7</ele>
        <time>2024-02-04T10:45:52Z</time>
      </trkpt>
      <trkpt lat="43.17346" lon="6.48644">
        <ele>284.8</ele>
        <time>2024-02-04T10:45:53Z</time>
      </trkpt>
      <trkpt lat="43.17347" lon="6.48644">
        <ele>284.9</ele>
        <time>2024-02-04T10:45:54Z</time>
      </trkpt>
      <trkpt lat="43.17347" lon="6.48644">
        <ele>285.1</ele>
        <time>2024-02-04T10:45:55Z</time>
      </trkpt>
      <trkpt lat="43.17347" lon="6.48643">
        <ele>285.3</ele>
        <time>2024-02-04T10:45:56Z</time>
      </trkpt>
      <trkpt lat="43.17347" lon="6.48643">
        <ele>285.5</ele>
        <time>2024-02-04T10:45:57Z</time>
      </trkpt>
      <trkpt lat="43.17348" lon="6.48642">
        <ele>285.6</ele>
        <time>2024-02-04T10:45:58Z</time>
      </trkpt>
      <trkpt lat="43.17348" lon="6.48642">
        <ele>285.7</ele>
        <time>2024-02-04T10:45:59Z</time>
      </trkpt>
      <trkpt lat="43.17348" lon="6.48641">
        <ele>285.9</ele>
        <time>2024-02-04T10:46:00Z</time>
      </trkpt>
      <trkpt lat="43.17349" lon="6.48641">
        <ele>286</ele>
        <time>2024-02-04T10:46:01Z</time>
      </trkpt>
      <trkpt lat="43.17349" lon="6.4864">
        <ele>286.1</ele>
        <time>2024-02-04T10:46:02Z</time>
      </trkpt>
      <trkpt lat="43.17349" lon="6.4864">
        <ele>286.2</ele>
        <time>2024-02-04T10:46:03Z</time>
      </trkpt>
      <trkpt lat="43.1735" lon="6.48639">
        <ele>286.3</ele>
        <time>2024-02-04T10:46:04Z</time>
      </trkpt>
      <trkpt lat="43.1735" lon="6.48639">
        <ele>286.4</ele>
        <time>2024-02-04T10:46:05Z</time>
      </trkpt>
      <trkpt lat="43.1735" lon="6.48638">
        <ele>286.5</ele>
        <time>2024-02-04T10:46:06Z</time>
      </trkpt>
      <trkpt lat="43.1735" lon="6.48638">
        <ele>286.6</ele>
        <time>2024-02-04T10:46:07Z</time>
      </trkpt>
      <trkpt lat="43.1735" lon="6.48638">
        <ele>286.6</ele>
        <time>2024-02-04T10:46:08Z</time>
      </trkpt>
      <trkpt lat="43.1735" lon="6.48638">
        <ele>286.7</ele>
        <time>2024-02-04T10:46:09Z</time>
      </trkpt>
      <trkpt lat="43.17351" lon="6.48638">
        <ele>286.8</ele>
        <time>2024-02-04T10:46:10Z</time>
      </trkpt>
      <trkpt lat="43.17351" lon="6.48638">
        <ele>286.8</ele>
        <time>2024-02-04T10:46:11Z</time>
      </trkpt>
      <trkpt lat="43.17351" lon="6.48637">
        <ele>286.9</ele>
        <time>2024-02-04T10:46:12Z</time>
      </trkpt>
      <trkpt lat="43.17352" lon="6.48637">
        <ele>287</ele>
        <time>2024-02-04T10:46:13Z</time>
      </trkpt>
      <trkpt lat="43.17352" lon="6.48636">
        <ele>287.1</ele>
        <time>2024-02-04T10:46:14Z</time>
      </trkpt>
      <trkpt lat="43.17352" lon="6.48636">
        <ele>287.2</ele>
        <time>2024-02-04T10:46:15Z</time>
      </trkpt>
      <trkpt lat="43.17353" lon="6.48635">
        <ele>287.3</ele>
        <time>2024-02-04T10:46:16Z</time>
      </trkpt>
      <trkpt lat="43.17353" lon="6.48635">
        <ele>287.5</ele>
        <time>2024-02-04T10:46:17Z</time>
      </trkpt>
      <trkpt lat="43.17353" lon="6.48635">
        <ele>287.6</ele>
        <time>2024-02-04T10:46:18Z</time>
      </trkpt>
      <trkpt lat="43.17353" lon="6.48634">
        <ele>287.6</ele>
        <time>2024-02-04T10:46:19Z</time>
      </trkpt>
      <trkpt lat="43.17353" lon="6.48633">
        <ele>287.6</ele>
        <time>2024-02-04T10:46:20Z</time>
      </trkpt>
      <trkpt lat="43.17354" lon="6.48633">
        <ele>287.7</ele>
        <time>2024-02-04T10:46:21Z</time>
      </trkpt>
      <trkpt lat="43.17354" lon="6.48632">
        <ele>287.8</ele>
        <time>2024-02-04T10:46:22Z</time>
      </trkpt>
      <trkpt lat="43.17354" lon="6.48632">
        <ele>287.9</ele>
        <time>2024-02-04T10:46:23Z</time>
      </trkpt>
      <trkpt lat="43.17355" lon="6.48632">
        <ele>288</ele>
        <time>2024-02-04T10:46:24Z</time>
      </trkpt>
      <trkpt lat="43.17355" lon="6.48631">
        <ele>288</ele>
        <time>2024-02-04T10:46:25Z</time>
      </trkpt>
      <trkpt lat="43.17356" lon="6.48631">
        <ele>288.1</ele>
        <time>2024-02-04T10:46:26Z</time>
      </trkpt>
      <trkpt lat="43.17356" lon="6.48631">
        <ele>288.3</ele>
        <time>2024-02-04T10:46:27Z</time>
      </trkpt>
      <trkpt lat="43.17357" lon="6.4863">
        <ele>288.5</ele>
        <time>2024-02-04T10:46:28Z</time>
      </trkpt>
      <trkpt lat="43.17357" lon="6.4863">
        <ele>288.6</ele>
        <time>2024-02-04T10:46:29Z</time>
      </trkpt>
      <trkpt lat="43.17358" lon="6.4863">
        <ele>288.8</ele>
        <time>2024-02-04T10:46:30Z</time>
      </trkpt>
      <trkpt lat="43.17358" lon="6.4863">
        <ele>288.9</ele>
        <time>2024-02-04T10:46:31Z</time>
      </trkpt>
      <trkpt lat="43.17358" lon="6.48629">
        <ele>289</ele>
        <time>2024-02-04T10:46:32Z</time>
      </trkpt>
      <trkpt lat="43.17359" lon="6.48629">
        <ele>289.1</ele>
        <time>2024-02-04T10:46:33Z</time>
      </trkpt>
      <trkpt lat="43.17359" lon="6.48629">
        <ele>289.4</ele>
        <time>2024-02-04T10:46:34Z</time>
      </trkpt>
      <trkpt lat="43.17359" lon="6.48629">
        <ele>289.6</ele>
        <time>2024-02-04T10:46:35Z</time>
      </trkpt>
      <trkpt lat="43.1736" lon="6.48629">
        <ele>289.8</ele>
        <time>2024-02-04T10:46:36Z</time>
      </trkpt>
      <trkpt lat="43.1736" lon="6.48629">
        <ele>289.9</ele>
        <time>2024-02-04T10:46:37Z</time>
      </trkpt>
      <trkpt lat="43.1736" lon="6.48628">
        <ele>290</ele>
        <time>2024-02-04T10:46:38Z</time>
      </trkpt>
      <trkpt lat="43.1736" lon="6.48628">
        <ele>290.2</ele>
        <time>2024-02-04T10:46:39Z</time>
      </trkpt>
      <trkpt lat="43.1736" lon="6.48628">
        <ele>290.4</ele>
        <time>2024-02-04T10:46:40Z</time>
      </trkpt>
      <trkpt lat="43.17361" lon="6.48627">
        <ele>290.5</ele>
        <time>2024-02-04T10:46:41Z</time>
      </trkpt>
      <trkpt lat="43.17361" lon="6.48627">
        <ele>290.6</ele>
        <time>2024-02-04T10:46:42Z</time>
      </trkpt>
      <trkpt lat="43.17362" lon="6.48626">
        <ele>290.7</ele>
        <time>2024-02-04T10:46:43Z</time>
      </trkpt>
      <trkpt lat="43.17363" lon="6.48626">
        <ele>290.9</ele>
        <time>2024-02-04T10:46:44Z</time>
      </trkpt>
      <trkpt lat="43.17363" lon="6.48627">
        <ele>291</ele>
        <time>2024-02-04T10:46:45Z</time>
      </trkpt>
      <trkpt lat="43.17364" lon="6.48627">
        <ele>291.2</ele>
        <time>2024-02-04T10:46:46Z</time>
      </trkpt>
      <trkpt lat="43.17365" lon="6.48626">
        <ele>291.4</ele>
        <time>2024-02-04T10:46:47Z</time>
      </trkpt>
      <trkpt lat="43.17365" lon="6.48625">
        <ele>291.5</ele>
        <time>2024-02-04T10:46:48Z</time>
      </trkpt>
      <trkpt lat="43.17365" lon="6.48625">
        <ele>291.7</ele>
        <time>2024-02-04T10:46:49Z</time>
      </trkpt>
      <trkpt lat="43.17365" lon="6.48625">
        <ele>291.9</ele>
        <time>2024-02-04T10:46:50Z</time>
      </trkpt>
      <trkpt lat="43.17365" lon="6.48624">
        <ele>291.9</ele>
        <time>2024-02-04T10:46:51Z</time>
      </trkpt>
      <trkpt lat="43.17366" lon="6.48624">
        <ele>292.1</ele>
        <time>2024-02-04T10:46:52Z</time>
      </trkpt>
      <trkpt lat="43.17366" lon="6.48624">
        <ele>292.2</ele>
        <time>2024-02-04T10:46:53Z</time>
      </trkpt>
      <trkpt lat="43.17367" lon="6.48623">
        <ele>292.2</ele>
        <time>2024-02-04T10:46:54Z</time>
      </trkpt>
      <trkpt lat="43.17367" lon="6.48622">
        <ele>292.4</ele>
        <time>2024-02-04T10:46:55Z</time>
      </trkpt>
      <trkpt lat="43.17368" lon="6.48621">
        <ele>292.5</ele>
        <time>2024-02-04T10:46:56Z</time>
      </trkpt>
      <trkpt lat="43.17368" lon="6.4862">
        <ele>292.6</ele>
        <time>2024-02-04T10:46:57Z</time>
      </trkpt>
      <trkpt lat="43.17369" lon="6.48619">
        <ele>292.6</ele>
        <time>2024-02-04T10:46:58Z</time>
      </trkpt>
      <trkpt lat="43.17369" lon="6.48619">
        <ele>292.6</ele>
        <time>2024-02-04T10:46:59Z</time>
      </trkpt>
      <trkpt lat="43.17369" lon="6.48618">
        <ele>292.6</ele>
        <time>2024-02-04T10:47:00Z</time>
      </trkpt>
      <trkpt lat="43.1737" lon="6.48618">
        <ele>292.6</ele>
        <time>2024-02-04T10:47:01Z</time>
      </trkpt>
      <trkpt lat="43.1737" lon="6.48617">
        <ele>292.7</ele>
        <time>2024-02-04T10:47:02Z</time>
      </trkpt>
      <trkpt lat="43.1737" lon="6.48617">
        <ele>292.8</ele>
        <time>2024-02-04T10:47:03Z</time>
      </trkpt>
      <trkpt lat="43.17371" lon="6.48617">
        <ele>292.9</ele>
        <time>2024-02-04T10:47:04Z</time>
      </trkpt>
      <trkpt lat="43.17371" lon="6.48617">
        <ele>292.9</ele>
        <time>2024-02-04T10:47:05Z</time>
      </trkpt>
      <trkpt lat="43.17372" lon="6.48617">
        <ele>293</ele>
        <time>2024-02-04T10:47:06Z</time>
      </trkpt>
      <trkpt lat="43.17372" lon="6.48617">
        <ele>293.2</ele>
        <time>2024-02-04T10:47:07Z</time>
      </trkpt>
      <trkpt lat="43.17373" lon="6.48617">
        <ele>293.8</ele>
        <time>2024-02-04T10:47:08Z</time>
      </trkpt>
      <trkpt lat="43.17374" lon="6.48616">
        <ele>293.9</ele>
        <time>2024-02-04T10:47:09Z</time>
      </trkpt>
      <trkpt lat="43.17374" lon="6.48616">
        <ele>294</ele>
        <time>2024-02-04T10:47:10Z</time>
      </trkpt>
      <trkpt lat="43.17375" lon="6.48616">
        <ele>294.1</ele>
        <time>2024-02-04T10:47:11Z</time>
      </trkpt>
      <trkpt lat="43.17375" lon="6.48615">
        <ele>294.2</ele>
        <time>2024-02-04T10:47:12Z</time>
      </trkpt>
      <trkpt lat="43.17375" lon="6.48615">
        <ele>294.3</ele>
        <time>2024-02-04T10:47:13Z</time>
      </trkpt>
      <trkpt lat="43.17376" lon="6.48615">
        <ele>294.4</ele>
        <time>2024-02-04T10:47:14Z</time>
      </trkpt>
      <trkpt lat="43.17376" lon="6.48614">
        <ele>294.5</ele>
        <time>2024-02-04T10:47:15Z</time>
      </trkpt>
      <trkpt lat="43.17376" lon="6.48614">
        <ele>294.6</ele>
        <time>2024-02-04T10:47:16Z</time>
      </trkpt>
      <trkpt lat="43.17377" lon="6.48613">
        <ele>294.8</ele>
        <time>2024-02-04T10:47:17Z</time>
      </trkpt>
      <trkpt lat="43.17377" lon="6.48612">
        <ele>295</ele>
        <time>2024-02-04T10:47:18Z</time>
      </trkpt>
      <trkpt lat="43.17377" lon="6.48612">
        <ele>295.1</ele>
        <time>2024-02-04T10:47:19Z</time>
      </trkpt>
      <trkpt lat="43.17377" lon="6.48611">
        <ele>295.2</ele>
        <time>2024-02-04T10:47:20Z</time>
      </trkpt>
      <trkpt lat="43.17378" lon="6.48611">
        <ele>295.2</ele>
        <time>2024-02-04T10:47:21Z</time>
      </trkpt>
      <trkpt lat="43.17378" lon="6.4861">
        <ele>295.3</ele>
        <time>2024-02-04T10:47:22Z</time>
      </trkpt>
      <trkpt lat="43.17379" lon="6.4861">
        <ele>295.4</ele>
        <time>2024-02-04T10:47:23Z</time>
      </trkpt>
      <trkpt lat="43.17379" lon="6.48609">
        <ele>295.5</ele>
        <time>2024-02-04T10:47:24Z</time>
      </trkpt>
      <trkpt lat="43.17379" lon="6.48609">
        <ele>295.6</ele>
        <time>2024-02-04T10:47:25Z</time>
      </trkpt>
      <trkpt lat="43.1738" lon="6.48609">
        <ele>295.7</ele>
        <time>2024-02-04T10:47:26Z</time>
      </trkpt>
      <trkpt lat="43.1738" lon="6.48609">
        <ele>295.8</ele>
        <time>2024-02-04T10:47:27Z</time>
      </trkpt>
      <trkpt lat="43.1738" lon="6.48608">
        <ele>295.8</ele>
        <time>2024-02-04T10:47:28Z</time>
      </trkpt>
      <trkpt lat="43.17381" lon="6.48608">
        <ele>295.9</ele>
        <time>2024-02-04T10:47:29Z</time>
      </trkpt>
      <trkpt lat="43.17381" lon="6.48608">
        <ele>296</ele>
        <time>2024-02-04T10:47:30Z</time>
      </trkpt>
      <trkpt lat="43.17382" lon="6.48608">
        <ele>296</ele>
        <time>2024-02-04T10:47:31Z</time>
      </trkpt>
      <trkpt lat="43.17383" lon="6.48607">
        <ele>296.2</ele>
        <time>2024-02-04T10:47:32Z</time>
      </trkpt>
      <trkpt lat="43.17383" lon="6.48607">
        <ele>296.3</ele>
        <time>2024-02-04T10:47:33Z</time>
      </trkpt>
      <trkpt lat="43.17383" lon="6.48607">
        <ele>296.5</ele>
        <time>2024-02-04T10:47:34Z</time>
      </trkpt>
      <trkpt lat="43.17384" lon="6.48606">
        <ele>296.6</ele>
        <time>2024-02-04T10:47:35Z</time>
      </trkpt>
      <trkpt lat="43.17384" lon="6.48607">
        <ele>296.6</ele>
        <time>2024-02-04T10:47:36Z</time>
      </trkpt>
      <trkpt lat="43.17385" lon="6.48607">
        <ele>296.8</ele>
        <time>2024-02-04T10:47:37Z</time>
      </trkpt>
      <trkpt lat="43.17386" lon="6.48607">
        <ele>296.9</ele>
        <time>2024-02-04T10:47:38Z</time>
      </trkpt>
      <trkpt lat="43.17386" lon="6.48607">
        <ele>297</ele>
        <time>2024-02-04T10:47:39Z</time>
      </trkpt>
      <trkpt lat="43.17387" lon="6.48607">
        <ele>297.1</ele>
        <time>2024-02-04T10:47:40Z</time>
      </trkpt>
      <trkpt lat="43.17387" lon="6.48606">
        <ele>297.3</ele>
        <time>2024-02-04T10:47:41Z</time>
      </trkpt>
      <trkpt lat="43.17387" lon="6.48606">
        <ele>297.4</ele>
        <time>2024-02-04T10:47:42Z</time>
      </trkpt>
      <trkpt lat="43.17387" lon="6.48606">
        <ele>297.6</ele>
        <time>2024-02-04T10:47:43Z</time>
      </trkpt>
      <trkpt lat="43.17388" lon="6.48606">
        <ele>297.7</ele>
        <time>2024-02-04T10:47:44Z</time>
      </trkpt>
      <trkpt lat="43.17388" lon="6.48606">
        <ele>297.8</ele>
        <time>2024-02-04T10:47:45Z</time>
      </trkpt>
      <trkpt lat="43.17389" lon="6.48606">
        <ele>297.9</ele>
        <time>2024-02-04T10:47:46Z</time>
      </trkpt>
      <trkpt lat="43.17389" lon="6.48606">
        <ele>298</ele>
        <time>2024-02-04T10:47:47Z</time>
      </trkpt>
      <trkpt lat="43.1739" lon="6.48606">
        <ele>298.1</ele>
        <time>2024-02-04T10:47:48Z</time>
      </trkpt>
      <trkpt lat="43.1739" lon="6.48606">
        <ele>298.2</ele>
        <time>2024-02-04T10:47:49Z</time>
      </trkpt>
      <trkpt lat="43.1739" lon="6.48606">
        <ele>298.2</ele>
        <time>2024-02-04T10:47:50Z</time>
      </trkpt>
      <trkpt lat="43.17391" lon="6.48606">
        <ele>298.3</ele>
        <time>2024-02-04T10:47:51Z</time>
      </trkpt>
      <trkpt lat="43.17391" lon="6.48606">
        <ele>298.4</ele>
        <time>2024-02-04T10:47:52Z</time>
      </trkpt>
      <trkpt lat="43.17392" lon="6.48606">
        <ele>298.6</ele>
        <time>2024-02-04T10:47:53Z</time>
      </trkpt>
      <trkpt lat="43.17393" lon="6.48607">
        <ele>298.7</ele>
        <time>2024-02-04T10:47:54Z</time>
      </trkpt>
      <trkpt lat="43.17393" lon="6.48608">
        <ele>298.9</ele>
        <time>2024-02-04T10:47:55Z</time>
      </trkpt>
      <trkpt lat="43.17394" lon="6.48608">
        <ele>299.1</ele>
        <time>2024-02-04T10:47:56Z</time>
      </trkpt>
      <trkpt lat="43.17395" lon="6.48608">
        <ele>299.4</ele>
        <time>2024-02-04T10:47:57Z</time>
      </trkpt>
      <trkpt lat="43.17396" lon="6.48608">
        <ele>299.6</ele>
        <time>2024-02-04T10:47:58Z</time>
      </trkpt>
      <trkpt lat="43.17397" lon="6.48609">
        <ele>299.8</ele>
        <time>2024-02-04T10:47:59Z</time>
      </trkpt>
      <trkpt lat="43.17397" lon="6.4861">
        <ele>299.9</ele>
        <time>2024-02-04T10:48:00Z</time>
      </trkpt>
      <trkpt lat="43.17397" lon="6.48611">
        <ele>300.1</ele>
        <time>2024-02-04T10:48:01Z</time>
      </trkpt>
      <trkpt lat="43.17398" lon="6.48611">
        <ele>300.2</ele>
        <time>2024-02-04T10:48:02Z</time>
      </trkpt>
      <trkpt lat="43.17398" lon="6.48612">
        <ele>300.5</ele>
        <time>2024-02-04T10:48:03Z</time>
      </trkpt>
      <trkpt lat="43.17398" lon="6.48613">
        <ele>300.8</ele>
        <time>2024-02-04T10:48:04Z</time>
      </trkpt>
      <trkpt lat="43.17399" lon="6.48614">
        <ele>300.9</ele>
        <time>2024-02-04T10:48:05Z</time>
      </trkpt>
      <trkpt lat="43.17399" lon="6.48614">
        <ele>301</ele>
        <time>2024-02-04T10:48:06Z</time>
      </trkpt>
      <trkpt lat="43.17399" lon="6.48614">
        <ele>301.1</ele>
        <time>2024-02-04T10:48:07Z</time>
      </trkpt>
      <trkpt lat="43.17399" lon="6.48614">
        <ele>301.1</ele>
        <time>2024-02-04T10:48:08Z</time>
      </trkpt>
      <trkpt lat="43.17399" lon="6.48614">
        <ele>301.2</ele>
        <time>2024-02-04T10:48:09Z</time>
      </trkpt>
      <trkpt lat="43.17399" lon="6.48614">
        <ele>301.3</ele>
        <time>2024-02-04T10:48:10Z</time>
      </trkpt>
      <trkpt lat="43.17399" lon="6.48614">
        <ele>301.3</ele>
        <time>2024-02-04T10:48:11Z</time>
      </trkpt>
      <trkpt lat="43.174" lon="6.48614">
        <ele>301.4</ele>
        <time>2024-02-04T10:48:12Z</time>
      </trkpt>
      <trkpt lat="43.174" lon="6.48614">
        <ele>301.4</ele>
        <time>2024-02-04T10:48:13Z</time>
      </trkpt>
      <trkpt lat="43.174" lon="6.48614">
        <ele>301.5</ele>
        <time>2024-02-04T10:48:14Z</time>
      </trkpt>
      <trkpt lat="43.174" lon="6.48614">
        <ele>301.5</ele>
        <time>2024-02-04T10:48:15Z</time>
      </trkpt>
      <trkpt lat="43.174" lon="6.48614">
        <ele>301.5</ele>
        <time>2024-02-04T10:48:16Z</time>
      </trkpt>
      <trkpt lat="43.174" lon="6.48614">
        <ele>301.4</ele>
        <time>2024-02-04T10:48:17Z</time>
      </trkpt>
      <trkpt lat="43.174" lon="6.48614">
        <ele>301.4</ele>
        <time>2024-02-04T10:48:18Z</time>
      </trkpt>
      <trkpt lat="43.174" lon="6.48614">
        <ele>301.4</ele>
        <time>2024-02-04T10:48:19Z</time>
      </trkpt>
      <trkpt lat="43.174" lon="6.48614">
        <ele>301.5</ele>
        <time>2024-02-04T10:48:20Z</time>
      </trkpt>
      <trkpt lat="43.174" lon="6.48615">
        <ele>301.5</ele>
        <time>2024-02-04T10:48:21Z</time>
      </trkpt>
      <trkpt lat="43.174" lon="6.48616">
        <ele>301.7</ele>
        <time>2024-02-04T10:48:22Z</time>
      </trkpt>
      <trkpt lat="43.17401" lon="6.48617">
        <ele>301.8</ele>
        <time>2024-02-04T10:48:23Z</time>
      </trkpt>
      <trkpt lat="43.17401" lon="6.48618">
        <ele>301.9</ele>
        <time>2024-02-04T10:48:24Z</time>
      </trkpt>
      <trkpt lat="43.17402" lon="6.48619">
        <ele>302</ele>
        <time>2024-02-04T10:48:25Z</time>
      </trkpt>
      <trkpt lat="43.17402" lon="6.4862">
        <ele>302.1</ele>
        <time>2024-02-04T10:48:26Z</time>
      </trkpt>
      <trkpt lat="43.17403" lon="6.48621">
        <ele>302.3</ele>
        <time>2024-02-04T10:48:27Z</time>
      </trkpt>
      <trkpt lat="43.17403" lon="6.48622">
        <ele>302.4</ele>
        <time>2024-02-04T10:48:28Z</time>
      </trkpt>
      <trkpt lat="43.17404" lon="6.48623">
        <ele>302.4</ele>
        <time>2024-02-04T10:48:29Z</time>
      </trkpt>
      <trkpt lat="43.17405" lon="6.48624">
        <ele>302.5</ele>
        <time>2024-02-04T10:48:30Z</time>
      </trkpt>
      <trkpt lat="43.17405" lon="6.48624">
        <ele>302.6</ele>
        <time>2024-02-04T10:48:31Z</time>
      </trkpt>
      <trkpt lat="43.17405" lon="6.48625">
        <ele>302.7</ele>
        <time>2024-02-04T10:48:32Z</time>
      </trkpt>
      <trkpt lat="43.17406" lon="6.48626">
        <ele>302.8</ele>
        <time>2024-02-04T10:48:33Z</time>
      </trkpt>
      <trkpt lat="43.17406" lon="6.48627">
        <ele>303</ele>
        <time>2024-02-04T10:48:34Z</time>
      </trkpt>
      <trkpt lat="43.17407" lon="6.48628">
        <ele>303</ele>
        <time>2024-02-04T10:48:35Z</time>
      </trkpt>
      <trkpt lat="43.17407" lon="6.4863">
        <ele>303.1</ele>
        <time>2024-02-04T10:48:36Z</time>
      </trkpt>
      <trkpt lat="43.17408" lon="6.48631">
        <ele>303.1</ele>
        <time>2024-02-04T10:48:37Z</time>
      </trkpt>
      <trkpt lat="43.17408" lon="6.48632">
        <ele>303.2</ele>
        <time>2024-02-04T10:48:38Z</time>
      </trkpt>
      <trkpt lat="43.17408" lon="6.48634">
        <ele>303.3</ele>
        <time>2024-02-04T10:48:39Z</time>
      </trkpt>
      <trkpt lat="43.17408" lon="6.48635">
        <ele>303.3</ele>
        <time>2024-02-04T10:48:40Z</time>
      </trkpt>
      <trkpt lat="43.17408" lon="6.48636">
        <ele>303.4</ele>
        <time>2024-02-04T10:48:41Z</time>
      </trkpt>
      <trkpt lat="43.17408" lon="6.48637">
        <ele>303.5</ele>
        <time>2024-02-04T10:48:42Z</time>
      </trkpt>
      <trkpt lat="43.17408" lon="6.48638">
        <ele>303.5</ele>
        <time>2024-02-04T10:48:43Z</time>
      </trkpt>
      <trkpt lat="43.17408" lon="6.4864">
        <ele>303.6</ele>
        <time>2024-02-04T10:48:44Z</time>
      </trkpt>
      <trkpt lat="43.17409" lon="6.48641">
        <ele>303.7</ele>
        <time>2024-02-04T10:48:45Z</time>
      </trkpt>
      <trkpt lat="43.17409" lon="6.48642">
        <ele>303.8</ele>
        <time>2024-02-04T10:48:46Z</time>
      </trkpt>
      <trkpt lat="43.17409" lon="6.48643">
        <ele>303.9</ele>
        <time>2024-02-04T10:48:47Z</time>
      </trkpt>
      <trkpt lat="43.1741" lon="6.48645">
        <ele>304</ele>
        <time>2024-02-04T10:48:48Z</time>
      </trkpt>
      <trkpt lat="43.1741" lon="6.48646">
        <ele>304</ele>
        <time>2024-02-04T10:48:49Z</time>
      </trkpt>
      <trkpt lat="43.1741" lon="6.48647">
        <ele>304.1</ele>
        <time>2024-02-04T10:48:50Z</time>
      </trkpt>
      <trkpt lat="43.1741" lon="6.48648">
        <ele>304.1</ele>
        <time>2024-02-04T10:48:51Z</time>
      </trkpt>
      <trkpt lat="43.17411" lon="6.48649">
        <ele>304.2</ele>
        <time>2024-02-04T10:48:52Z</time>
      </trkpt>
      <trkpt lat="43.17411" lon="6.48651">
        <ele>304.3</ele>
        <time>2024-02-04T10:48:53Z</time>
      </trkpt>
      <trkpt lat="43.17411" lon="6.48652">
        <ele>304.4</ele>
        <time>2024-02-04T10:48:54Z</time>
      </trkpt>
      <trkpt lat="43.17412" lon="6.48654">
        <ele>304.5</ele>
        <time>2024-02-04T10:48:55Z</time>
      </trkpt>
      <trkpt lat="43.17412" lon="6.48655">
        <ele>304.5</ele>
        <time>2024-02-04T10:48:56Z</time>
      </trkpt>
      <trkpt lat="43.17412" lon="6.48656">
        <ele>304.6</ele>
        <time>2024-02-04T10:48:57Z</time>
      </trkpt>
      <trkpt lat="43.17413" lon="6.48658">
        <ele>304.7</ele>
        <time>2024-02-04T10:48:58Z</time>
      </trkpt>
      <trkpt lat="43.17414" lon="6.48659">
        <ele>304.8</ele>
        <time>2024-02-04T10:48:59Z</time>
      </trkpt>
      <trkpt lat="43.17414" lon="6.48661">
        <ele>304.8</ele>
        <time>2024-02-04T10:49:00Z</time>
      </trkpt>
      <trkpt lat="43.17414" lon="6.48662">
        <ele>304.9</ele>
        <time>2024-02-04T10:49:01Z</time>
      </trkpt>
      <trkpt lat="43.17415" lon="6.48663">
        <ele>304.9</ele>
        <time>2024-02-04T10:49:02Z</time>
      </trkpt>
      <trkpt lat="43.17415" lon="6.48664">
        <ele>304.9</ele>
        <time>2024-02-04T10:49:03Z</time>
      </trkpt>
      <trkpt lat="43.17416" lon="6.48666">
        <ele>304.9</ele>
        <time>2024-02-04T10:49:04Z</time>
      </trkpt>
      <trkpt lat="43.17416" lon="6.48667">
        <ele>304.9</ele>
        <time>2024-02-04T10:49:05Z</time>
      </trkpt>
      <trkpt lat="43.17417" lon="6.48668">
        <ele>305</ele>
        <time>2024-02-04T10:49:06Z</time>
      </trkpt>
      <trkpt lat="43.17417" lon="6.4867">
        <ele>305.1</ele>
        <time>2024-02-04T10:49:07Z</time>
      </trkpt>
      <trkpt lat="43.17418" lon="6.48671">
        <ele>305.2</ele>
        <time>2024-02-04T10:49:08Z</time>
      </trkpt>
      <trkpt lat="43.17418" lon="6.48672">
        <ele>305.3</ele>
        <time>2024-02-04T10:49:09Z</time>
      </trkpt>
      <trkpt lat="43.17419" lon="6.48673">
        <ele>305.5</ele>
        <time>2024-02-04T10:49:10Z</time>
      </trkpt>
      <trkpt lat="43.1742" lon="6.48674">
        <ele>305.7</ele>
        <time>2024-02-04T10:49:11Z</time>
      </trkpt>
      <trkpt lat="43.1742" lon="6.48676">
        <ele>305.8</ele>
        <time>2024-02-04T10:49:12Z</time>
      </trkpt>
      <trkpt lat="43.1742" lon="6.48677">
        <ele>305.8</ele>
        <time>2024-02-04T10:49:13Z</time>
      </trkpt>
      <trkpt lat="43.17421" lon="6.48679">
        <ele>305.9</ele>
        <time>2024-02-04T10:49:14Z</time>
      </trkpt>
      <trkpt lat="43.17422" lon="6.4868">
        <ele>306</ele>
        <time>2024-02-04T10:49:15Z</time>
      </trkpt>
      <trkpt lat="43.17422" lon="6.48681">
        <ele>306.1</ele>
        <time>2024-02-04T10:49:16Z</time>
      </trkpt>
      <trkpt lat="43.17423" lon="6.48682">
        <ele>306.1</ele>
        <time>2024-02-04T10:49:17Z</time>
      </trkpt>
      <trkpt lat="43.17423" lon="6.48684">
        <ele>306.2</ele>
        <time>2024-02-04T10:49:18Z</time>
      </trkpt>
      <trkpt lat="43.17424" lon="6.48685">
        <ele>306.4</ele>
        <time>2024-02-04T10:49:19Z</time>
      </trkpt>
      <trkpt lat="43.17425" lon="6.48686">
        <ele>306.5</ele>
        <time>2024-02-04T10:49:20Z</time>
      </trkpt>
      <trkpt lat="43.17426" lon="6.48687">
        <ele>306.7</ele>
        <time>2024-02-04T10:49:21Z</time>
      </trkpt>
      <trkpt lat="43.17426" lon="6.48688">
        <ele>306.7</ele>
        <time>2024-02-04T10:49:22Z</time>
      </trkpt>
      <trkpt lat="43.17427" lon="6.48689">
        <ele>306.7</ele>
        <time>2024-02-04T10:49:23Z</time>
      </trkpt>
      <trkpt lat="43.17427" lon="6.4869">
        <ele>306.8</ele>
        <time>2024-02-04T10:49:24Z</time>
      </trkpt>
      <trkpt lat="43.17428" lon="6.48691">
        <ele>306.8</ele>
        <time>2024-02-04T10:49:25Z</time>
      </trkpt>
      <trkpt lat="43.17429" lon="6.48692">
        <ele>306.9</ele>
        <time>2024-02-04T10:49:26Z</time>
      </trkpt>
      <trkpt lat="43.17429" lon="6.48693">
        <ele>307</ele>
        <time>2024-02-04T10:49:27Z</time>
      </trkpt>
      <trkpt lat="43.1743" lon="6.48694">
        <ele>307.1</ele>
        <time>2024-02-04T10:49:28Z</time>
      </trkpt>
      <trkpt lat="43.1743" lon="6.48695">
        <ele>307.2</ele>
        <time>2024-02-04T10:49:29Z</time>
      </trkpt>
      <trkpt lat="43.17431" lon="6.48696">
        <ele>307.3</ele>
        <time>2024-02-04T10:49:30Z</time>
      </trkpt>
      <trkpt lat="43.17432" lon="6.48697">
        <ele>307.5</ele>
        <time>2024-02-04T10:49:31Z</time>
      </trkpt>
      <trkpt lat="43.17432" lon="6.48698">
        <ele>307.6</ele>
        <time>2024-02-04T10:49:32Z</time>
      </trkpt>
      <trkpt lat="43.17433" lon="6.48699">
        <ele>307.7</ele>
        <time>2024-02-04T10:49:33Z</time>
      </trkpt>
      <trkpt lat="43.17434" lon="6.487">
        <ele>307.9</ele>
        <time>2024-02-04T10:49:34Z</time>
      </trkpt>
      <trkpt lat="43.17434" lon="6.48701">
        <ele>308.1</ele>
        <time>2024-02-04T10:49:35Z</time>
      </trkpt>
      <trkpt lat="43.17435" lon="6.48702">
        <ele>308.2</ele>
        <time>2024-02-04T10:49:36Z</time>
      </trkpt>
      <trkpt lat="43.17435" lon="6.48703">
        <ele>308.3</ele>
        <time>2024-02-04T10:49:37Z</time>
      </trkpt>
      <trkpt lat="43.17436" lon="6.48703">
        <ele>308.4</ele>
        <time>2024-02-04T10:49:38Z</time>
      </trkpt>
      <trkpt lat="43.17437" lon="6.48704">
        <ele>308.5</ele>
        <time>2024-02-04T10:49:39Z</time>
      </trkpt>
      <trkpt lat="43.17437" lon="6.48705">
        <ele>308.6</ele>
        <time>2024-02-04T10:49:40Z</time>
      </trkpt>
      <trkpt lat="43.17438" lon="6.48706">
        <ele>308.6</ele>
        <time>2024-02-04T10:49:41Z</time>
      </trkpt>
      <trkpt lat="43.17439" lon="6.48707">
        <ele>308.8</ele>
        <time>2024-02-04T10:49:42Z</time>
      </trkpt>
      <trkpt lat="43.17439" lon="6.48707">
        <ele>308.9</ele>
        <time>2024-02-04T10:49:43Z</time>
      </trkpt>
      <trkpt lat="43.1744" lon="6.48708">
        <ele>309.2</ele>
        <time>2024-02-04T10:49:44Z</time>
      </trkpt>
      <trkpt lat="43.17441" lon="6.48709">
        <ele>309.4</ele>
        <time>2024-02-04T10:49:45Z</time>
      </trkpt>
      <trkpt lat="43.17442" lon="6.48709">
        <ele>309.6</ele>
        <time>2024-02-04T10:49:46Z</time>
      </trkpt>
      <trkpt lat="43.17442" lon="6.48709">
        <ele>309.7</ele>
        <time>2024-02-04T10:49:47Z</time>
      </trkpt>
      <trkpt lat="43.17443" lon="6.4871">
        <ele>309.9</ele>
        <time>2024-02-04T10:49:48Z</time>
      </trkpt>
      <trkpt lat="43.17444" lon="6.4871">
        <ele>310</ele>
        <time>2024-02-04T10:49:49Z</time>
      </trkpt>
      <trkpt lat="43.17444" lon="6.48711">
        <ele>310.2</ele>
        <time>2024-02-04T10:49:50Z</time>
      </trkpt>
      <trkpt lat="43.17445" lon="6.48712">
        <ele>310.4</ele>
        <time>2024-02-04T10:49:51Z</time>
      </trkpt>
      <trkpt lat="43.17446" lon="6.48713">
        <ele>310.6</ele>
        <time>2024-02-04T10:49:52Z</time>
      </trkpt>
      <trkpt lat="43.17447" lon="6.48713">
        <ele>310.7</ele>
        <time>2024-02-04T10:49:53Z</time>
      </trkpt>
      <trkpt lat="43.17447" lon="6.48713">
        <ele>310.8</ele>
        <time>2024-02-04T10:49:54Z</time>
      </trkpt>
      <trkpt lat="43.17448" lon="6.48714">
        <ele>310.9</ele>
        <time>2024-02-04T10:49:55Z</time>
      </trkpt>
      <trkpt lat="43.17448" lon="6.48715">
        <ele>311</ele>
        <time>2024-02-04T10:49:56Z</time>
      </trkpt>
      <trkpt lat="43.17449" lon="6.48716">
        <ele>311.1</ele>
        <time>2024-02-04T10:49:57Z</time>
      </trkpt>
      <trkpt lat="43.17449" lon="6.48716">
        <ele>311.2</ele>
        <time>2024-02-04T10:49:58Z</time>
      </trkpt>
      <trkpt lat="43.17449" lon="6.48716">
        <ele>311.3</ele>
        <time>2024-02-04T10:49:59Z</time>
      </trkpt>
      <trkpt lat="43.1745" lon="6.48716">
        <ele>311.4</ele>
        <time>2024-02-04T10:50:00Z</time>
      </trkpt>
      <trkpt lat="43.1745" lon="6.48716">
        <ele>311.5</ele>
        <time>2024-02-04T10:50:01Z</time>
      </trkpt>
      <trkpt lat="43.17449" lon="6.48717">
        <ele>311.7</ele>
        <time>2024-02-04T10:50:02Z</time>
      </trkpt>
      <trkpt lat="43.17449" lon="6.48717">
        <ele>311.7</ele>
        <time>2024-02-04T10:50:03Z</time>
      </trkpt>
      <trkpt lat="43.17449" lon="6.48717">
        <ele>311.8</ele>
        <time>2024-02-04T10:50:04Z</time>
      </trkpt>
      <trkpt lat="43.17449" lon="6.48717">
        <ele>311.9</ele>
        <time>2024-02-04T10:50:05Z</time>
      </trkpt>
      <trkpt lat="43.17449" lon="6.48717">
        <ele>311.9</ele>
        <time>2024-02-04T10:50:06Z</time>
      </trkpt>
      <trkpt lat="43.17449" lon="6.48718">
        <ele>311.9</ele>
        <time>2024-02-04T10:50:07Z</time>
      </trkpt>
      <trkpt lat="43.17449" lon="6.48719">
        <ele>311.9</ele>
        <time>2024-02-04T10:50:08Z</time>
      </trkpt>
      <trkpt lat="43.17449" lon="6.4872">
        <ele>311.9</ele>
        <time>2024-02-04T10:50:09Z</time>
      </trkpt>
      <trkpt lat="43.17449" lon="6.48721">
        <ele>312</ele>
        <time>2024-02-04T10:50:10Z</time>
      </trkpt>
      <trkpt lat="43.1745" lon="6.48722">
        <ele>312.1</ele>
        <time>2024-02-04T10:50:11Z</time>
      </trkpt>
      <trkpt lat="43.1745" lon="6.48723">
        <ele>312.1</ele>
        <time>2024-02-04T10:50:12Z</time>
      </trkpt>
      <trkpt lat="43.1745" lon="6.48723">
        <ele>312.1</ele>
        <time>2024-02-04T10:50:13Z</time>
      </trkpt>
      <trkpt lat="43.1745" lon="6.48724">
        <ele>312.1</ele>
        <time>2024-02-04T10:50:14Z</time>
      </trkpt>
      <trkpt lat="43.1745" lon="6.48725">
        <ele>312.2</ele>
        <time>2024-02-04T10:50:15Z</time>
      </trkpt>
      <trkpt lat="43.1745" lon="6.48726">
        <ele>312.2</ele>
        <time>2024-02-04T10:50:16Z</time>
      </trkpt>
      <trkpt lat="43.17451" lon="6.48727">
        <ele>312.2</ele>
        <time>2024-02-04T10:50:17Z</time>
      </trkpt>
      <trkpt lat="43.17451" lon="6.48728">
        <ele>312.2</ele>
        <time>2024-02-04T10:50:18Z</time>
      </trkpt>
      <trkpt lat="43.17452" lon="6.48729">
        <ele>312.2</ele>
        <time>2024-02-04T10:50:19Z</time>
      </trkpt>
      <trkpt lat="43.17452" lon="6.4873">
        <ele>312.3</ele>
        <time>2024-02-04T10:50:20Z</time>
      </trkpt>
      <trkpt lat="43.17453" lon="6.48731">
        <ele>312.3</ele>
        <time>2024-02-04T10:50:21Z</time>
      </trkpt>
      <trkpt lat="43.17453" lon="6.48732">
        <ele>312.3</ele>
        <time>2024-02-04T10:50:22Z</time>
      </trkpt>
      <trkpt lat="43.17454" lon="6.48733">
        <ele>312.3</ele>
        <time>2024-02-04T10:50:23Z</time>
      </trkpt>
      <trkpt lat="43.17454" lon="6.48734">
        <ele>312.4</ele>
        <time>2024-02-04T10:50:24Z</time>
      </trkpt>
      <trkpt lat="43.17455" lon="6.48735">
        <ele>312.3</ele>
        <time>2024-02-04T10:50:25Z</time>
      </trkpt>
      <trkpt lat="43.17455" lon="6.48737">
        <ele>312.3</ele>
        <time>2024-02-04T10:50:26Z</time>
      </trkpt>
      <trkpt lat="43.17456" lon="6.48738">
        <ele>312.3</ele>
        <time>2024-02-04T10:50:27Z</time>
      </trkpt>
      <trkpt lat="43.17457" lon="6.48738">
        <ele>312.4</ele>
        <time>2024-02-04T10:50:28Z</time>
      </trkpt>
      <trkpt lat="43.17457" lon="6.4874">
        <ele>312.4</ele>
        <time>2024-02-04T10:50:29Z</time>
      </trkpt>
      <trkpt lat="43.17458" lon="6.48741">
        <ele>312.5</ele>
        <time>2024-02-04T10:50:30Z</time>
      </trkpt>
      <trkpt lat="43.17458" lon="6.48742">
        <ele>312.6</ele>
        <time>2024-02-04T10:50:31Z</time>
      </trkpt>
      <trkpt lat="43.17459" lon="6.48743">
        <ele>312.6</ele>
        <time>2024-02-04T10:50:32Z</time>
      </trkpt>
      <trkpt lat="43.1746" lon="6.48744">
        <ele>312.7</ele>
        <time>2024-02-04T10:50:33Z</time>
      </trkpt>
      <trkpt lat="43.1746" lon="6.48746">
        <ele>312.8</ele>
        <time>2024-02-04T10:50:34Z</time>
      </trkpt>
      <trkpt lat="43.17461" lon="6.48747">
        <ele>312.9</ele>
        <time>2024-02-04T10:50:35Z</time>
      </trkpt>
      <trkpt lat="43.17462" lon="6.48748">
        <ele>312.9</ele>
        <time>2024-02-04T10:50:36Z</time>
      </trkpt>
      <trkpt lat="43.17463" lon="6.48749">
        <ele>313</ele>
        <time>2024-02-04T10:50:37Z</time>
      </trkpt>
      <trkpt lat="43.17464" lon="6.4875">
        <ele>313</ele>
        <time>2024-02-04T10:50:38Z</time>
      </trkpt>
      <trkpt lat="43.17464" lon="6.48751">
        <ele>313.1</ele>
        <time>2024-02-04T10:50:39Z</time>
      </trkpt>
      <trkpt lat="43.17465" lon="6.48752">
        <ele>313.2</ele>
        <time>2024-02-04T10:50:40Z</time>
      </trkpt>
      <trkpt lat="43.17466" lon="6.48754">
        <ele>313.3</ele>
        <time>2024-02-04T10:50:41Z</time>
      </trkpt>
      <trkpt lat="43.17467" lon="6.48755">
        <ele>313.3</ele>
        <time>2024-02-04T10:50:42Z</time>
      </trkpt>
      <trkpt lat="43.17467" lon="6.48756">
        <ele>313.4</ele>
        <time>2024-02-04T10:50:43Z</time>
      </trkpt>
      <trkpt lat="43.17468" lon="6.48757">
        <ele>313.5</ele>
        <time>2024-02-04T10:50:44Z</time>
      </trkpt>
      <trkpt lat="43.17469" lon="6.48758">
        <ele>313.6</ele>
        <time>2024-02-04T10:50:45Z</time>
      </trkpt>
      <trkpt lat="43.1747" lon="6.48759">
        <ele>313.7</ele>
        <time>2024-02-04T10:50:46Z</time>
      </trkpt>
      <trkpt lat="43.1747" lon="6.48761">
        <ele>313.7</ele>
        <time>2024-02-04T10:50:47Z</time>
      </trkpt>
      <trkpt lat="43.17471" lon="6.48761">
        <ele>313.6</ele>
        <time>2024-02-04T10:50:48Z</time>
      </trkpt>
      <trkpt lat="43.17472" lon="6.48763">
        <ele>313.8</ele>
        <time>2024-02-04T10:50:49Z</time>
      </trkpt>
      <trkpt lat="43.17473" lon="6.48764">
        <ele>313.8</ele>
        <time>2024-02-04T10:50:50Z</time>
      </trkpt>
      <trkpt lat="43.17474" lon="6.48765">
        <ele>313.8</ele>
        <time>2024-02-04T10:50:51Z</time>
      </trkpt>
      <trkpt lat="43.17475" lon="6.48766">
        <ele>313.8</ele>
        <time>2024-02-04T10:50:52Z</time>
      </trkpt>
      <trkpt lat="43.17476" lon="6.48767">
        <ele>313.9</ele>
        <time>2024-02-04T10:50:53Z</time>
      </trkpt>
      <trkpt lat="43.17476" lon="6.48768">
        <ele>314</ele>
        <time>2024-02-04T10:50:54Z</time>
      </trkpt>
      <trkpt lat="43.17477" lon="6.48769">
        <ele>314</ele>
        <time>2024-02-04T10:50:55Z</time>
      </trkpt>
      <trkpt lat="43.17478" lon="6.4877">
        <ele>314.1</ele>
        <time>2024-02-04T10:50:56Z</time>
      </trkpt>
      <trkpt lat="43.17479" lon="6.48771">
        <ele>314.2</ele>
        <time>2024-02-04T10:50:57Z</time>
      </trkpt>
      <trkpt lat="43.1748" lon="6.48772">
        <ele>314.3</ele>
        <time>2024-02-04T10:50:58Z</time>
      </trkpt>
      <trkpt lat="43.17481" lon="6.48773">
        <ele>314.4</ele>
        <time>2024-02-04T10:50:59Z</time>
      </trkpt>
      <trkpt lat="43.17482" lon="6.48774">
        <ele>314.4</ele>
        <time>2024-02-04T10:51:00Z</time>
      </trkpt>
      <trkpt lat="43.17482" lon="6.48775">
        <ele>314.5</ele>
        <time>2024-02-04T10:51:01Z</time>
      </trkpt>
      <trkpt lat="43.17483" lon="6.48776">
        <ele>314.5</ele>
        <time>2024-02-04T10:51:02Z</time>
      </trkpt>
      <trkpt lat="43.17484" lon="6.48777">
        <ele>314.5</ele>
        <time>2024-02-04T10:51:03Z</time>
      </trkpt>
      <trkpt lat="43.17485" lon="6.48778">
        <ele>314.5</ele>
        <time>2024-02-04T10:51:04Z</time>
      </trkpt>
      <trkpt lat="43.17486" lon="6.48779">
        <ele>314.5</ele>
        <time>2024-02-04T10:51:05Z</time>
      </trkpt>
      <trkpt lat="43.17486" lon="6.4878">
        <ele>314.5</ele>
        <time>2024-02-04T10:51:06Z</time>
      </trkpt>
      <trkpt lat="43.17487" lon="6.48781">
        <ele>314.6</ele>
        <time>2024-02-04T10:51:07Z</time>
      </trkpt>
      <trkpt lat="43.17488" lon="6.48782">
        <ele>314.7</ele>
        <time>2024-02-04T10:51:08Z</time>
      </trkpt>
      <trkpt lat="43.17489" lon="6.48783">
        <ele>314.8</ele>
        <time>2024-02-04T10:51:09Z</time>
      </trkpt>
      <trkpt lat="43.1749" lon="6.48785">
        <ele>314.9</ele>
        <time>2024-02-04T10:51:10Z</time>
      </trkpt>
      <trkpt lat="43.1749" lon="6.48786">
        <ele>315</ele>
        <time>2024-02-04T10:51:11Z</time>
      </trkpt>
      <trkpt lat="43.17491" lon="6.48787">
        <ele>315</ele>
        <time>2024-02-04T10:51:12Z</time>
      </trkpt>
      <trkpt lat="43.17492" lon="6.48788">
        <ele>315.2</ele>
        <time>2024-02-04T10:51:13Z</time>
      </trkpt>
      <trkpt lat="43.17493" lon="6.48789">
        <ele>315.4</ele>
        <time>2024-02-04T10:51:14Z</time>
      </trkpt>
      <trkpt lat="43.17493" lon="6.4879">
        <ele>315.5</ele>
        <time>2024-02-04T10:51:15Z</time>
      </trkpt>
      <trkpt lat="43.17494" lon="6.48791">
        <ele>315.6</ele>
        <time>2024-02-04T10:51:16Z</time>
      </trkpt>
      <trkpt lat="43.17495" lon="6.48792">
        <ele>315.6</ele>
        <time>2024-02-04T10:51:17Z</time>
      </trkpt>
      <trkpt lat="43.17496" lon="6.48793">
        <ele>315.7</ele>
        <time>2024-02-04T10:51:18Z</time>
      </trkpt>
      <trkpt lat="43.17497" lon="6.48794">
        <ele>315.8</ele>
        <time>2024-02-04T10:51:19Z</time>
      </trkpt>
      <trkpt lat="43.17497" lon="6.48795">
        <ele>315.8</ele>
        <time>2024-02-04T10:51:20Z</time>
      </trkpt>
      <trkpt lat="43.17498" lon="6.48796">
        <ele>315.9</ele>
        <time>2024-02-04T10:51:21Z</time>
      </trkpt>
      <trkpt lat="43.17499" lon="6.48797">
        <ele>316.1</ele>
        <time>2024-02-04T10:51:22Z</time>
      </trkpt>
      <trkpt lat="43.175" lon="6.48798">
        <ele>316.2</ele>
        <time>2024-02-04T10:51:23Z</time>
      </trkpt>
      <trkpt lat="43.17501" lon="6.48799">
        <ele>316.3</ele>
        <time>2024-02-04T10:51:24Z</time>
      </trkpt>
      <trkpt lat="43.17502" lon="6.48799">
        <ele>316.3</ele>
        <time>2024-02-04T10:51:25Z</time>
      </trkpt>
      <trkpt lat="43.17503" lon="6.488">
        <ele>316.4</ele>
        <time>2024-02-04T10:51:26Z</time>
      </trkpt>
      <trkpt lat="43.17504" lon="6.48801">
        <ele>316.6</ele>
        <time>2024-02-04T10:51:27Z</time>
      </trkpt>
      <trkpt lat="43.17504" lon="6.48802">
        <ele>316.7</ele>
        <time>2024-02-04T10:51:28Z</time>
      </trkpt>
      <trkpt lat="43.17505" lon="6.48803">
        <ele>316.8</ele>
        <time>2024-02-04T10:51:29Z</time>
      </trkpt>
      <trkpt lat="43.17506" lon="6.48804">
        <ele>316.8</ele>
        <time>2024-02-04T10:51:30Z</time>
      </trkpt>
      <trkpt lat="43.17506" lon="6.48805">
        <ele>316.9</ele>
        <time>2024-02-04T10:51:31Z</time>
      </trkpt>
      <trkpt lat="43.17506" lon="6.48806">
        <ele>316.9</ele>
        <time>2024-02-04T10:51:32Z</time>
      </trkpt>
      <trkpt lat="43.17507" lon="6.48807">
        <ele>317</ele>
        <time>2024-02-04T10:51:33Z</time>
      </trkpt>
      <trkpt lat="43.17508" lon="6.48808">
        <ele>317.1</ele>
        <time>2024-02-04T10:51:34Z</time>
      </trkpt>
      <trkpt lat="43.17508" lon="6.48809">
        <ele>317.1</ele>
        <time>2024-02-04T10:51:35Z</time>
      </trkpt>
      <trkpt lat="43.17509" lon="6.4881">
        <ele>317.2</ele>
        <time>2024-02-04T10:51:36Z</time>
      </trkpt>
      <trkpt lat="43.1751" lon="6.48811">
        <ele>317.2</ele>
        <time>2024-02-04T10:51:37Z</time>
      </trkpt>
      <trkpt lat="43.17511" lon="6.48812">
        <ele>317.2</ele>
        <time>2024-02-04T10:51:38Z</time>
      </trkpt>
      <trkpt lat="43.17511" lon="6.48813">
        <ele>317.2</ele>
        <time>2024-02-04T10:51:39Z</time>
      </trkpt>
      <trkpt lat="43.17512" lon="6.48815">
        <ele>317.2</ele>
        <time>2024-02-04T10:51:40Z</time>
      </trkpt>
      <trkpt lat="43.17513" lon="6.48816">
        <ele>317.3</ele>
        <time>2024-02-04T10:51:41Z</time>
      </trkpt>
      <trkpt lat="43.17514" lon="6.48816">
        <ele>317.3</ele>
        <time>2024-02-04T10:51:42Z</time>
      </trkpt>
      <trkpt lat="43.17515" lon="6.48817">
        <ele>317.4</ele>
        <time>2024-02-04T10:51:43Z</time>
      </trkpt>
      <trkpt lat="43.17515" lon="6.48818">
        <ele>317.5</ele>
        <time>2024-02-04T10:51:44Z</time>
      </trkpt>
      <trkpt lat="43.17516" lon="6.48819">
        <ele>317.6</ele>
        <time>2024-02-04T10:51:45Z</time>
      </trkpt>
      <trkpt lat="43.17516" lon="6.48821">
        <ele>317.7</ele>
        <time>2024-02-04T10:51:46Z</time>
      </trkpt>
      <trkpt lat="43.17517" lon="6.48822">
        <ele>317.8</ele>
        <time>2024-02-04T10:51:47Z</time>
      </trkpt>
      <trkpt lat="43.17518" lon="6.48823">
        <ele>317.9</ele>
        <time>2024-02-04T10:51:48Z</time>
      </trkpt>
      <trkpt lat="43.17518" lon="6.48825">
        <ele>318</ele>
        <time>2024-02-04T10:51:49Z</time>
      </trkpt>
      <trkpt lat="43.17519" lon="6.48826">
        <ele>318.1</ele>
        <time>2024-02-04T10:51:50Z</time>
      </trkpt>
      <trkpt lat="43.17519" lon="6.48827">
        <ele>318.3</ele>
        <time>2024-02-04T10:51:51Z</time>
      </trkpt>
      <trkpt lat="43.1752" lon="6.48828">
        <ele>318.4</ele>
        <time>2024-02-04T10:51:52Z</time>
      </trkpt>
      <trkpt lat="43.17521" lon="6.48829">
        <ele>318.6</ele>
        <time>2024-02-04T10:51:53Z</time>
      </trkpt>
      <trkpt lat="43.17521" lon="6.4883">
        <ele>318.7</ele>
        <time>2024-02-04T10:51:54Z</time>
      </trkpt>
      <trkpt lat="43.17522" lon="6.48832">
        <ele>318.8</ele>
        <time>2024-02-04T10:51:55Z</time>
      </trkpt>
      <trkpt lat="43.17522" lon="6.48833">
        <ele>318.9</ele>
        <time>2024-02-04T10:51:56Z</time>
      </trkpt>
      <trkpt lat="43.17522" lon="6.48834">
        <ele>318.9</ele>
        <time>2024-02-04T10:51:57Z</time>
      </trkpt>
      <trkpt lat="43.17523" lon="6.48835">
        <ele>318.9</ele>
        <time>2024-02-04T10:51:58Z</time>
      </trkpt>
      <trkpt lat="43.17523" lon="6.48837">
        <ele>319</ele>
        <time>2024-02-04T10:51:59Z</time>
      </trkpt>
      <trkpt lat="43.17524" lon="6.48837">
        <ele>319</ele>
        <time>2024-02-04T10:52:00Z</time>
      </trkpt>
      <trkpt lat="43.17524" lon="6.48838">
        <ele>319</ele>
        <time>2024-02-04T10:52:01Z</time>
      </trkpt>
      <trkpt lat="43.17525" lon="6.4884">
        <ele>319.1</ele>
        <time>2024-02-04T10:52:02Z</time>
      </trkpt>
      <trkpt lat="43.17525" lon="6.48841">
        <ele>319.2</ele>
        <time>2024-02-04T10:52:03Z</time>
      </trkpt>
      <trkpt lat="43.17525" lon="6.48842">
        <ele>319.3</ele>
        <time>2024-02-04T10:52:04Z</time>
      </trkpt>
      <trkpt lat="43.17526" lon="6.48843">
        <ele>319.3</ele>
        <time>2024-02-04T10:52:05Z</time>
      </trkpt>
      <trkpt lat="43.17526" lon="6.48845">
        <ele>319.3</ele>
        <time>2024-02-04T10:52:06Z</time>
      </trkpt>
      <trkpt lat="43.17526" lon="6.48846">
        <ele>319.3</ele>
        <time>2024-02-04T10:52:07Z</time>
      </trkpt>
      <trkpt lat="43.17527" lon="6.48847">
        <ele>319.3</ele>
        <time>2024-02-04T10:52:08Z</time>
      </trkpt>
      <trkpt lat="43.17527" lon="6.48848">
        <ele>319.4</ele>
        <time>2024-02-04T10:52:09Z</time>
      </trkpt>
      <trkpt lat="43.17527" lon="6.4885">
        <ele>319.4</ele>
        <time>2024-02-04T10:52:10Z</time>
      </trkpt>
      <trkpt lat="43.17527" lon="6.48851">
        <ele>319.4</ele>
        <time>2024-02-04T10:52:11Z</time>
      </trkpt>
      <trkpt lat="43.17528" lon="6.48852">
        <ele>319.5</ele>
        <time>2024-02-04T10:52:12Z</time>
      </trkpt>
      <trkpt lat="43.17528" lon="6.48854">
        <ele>319.5</ele>
        <time>2024-02-04T10:52:13Z</time>
      </trkpt>
      <trkpt lat="43.17528" lon="6.48855">
        <ele>319.6</ele>
        <time>2024-02-04T10:52:14Z</time>
      </trkpt>
      <trkpt lat="43.17528" lon="6.48856">
        <ele>319.7</ele>
        <time>2024-02-04T10:52:15Z</time>
      </trkpt>
      <trkpt lat="43.17528" lon="6.48858">
        <ele>319.7</ele>
        <time>2024-02-04T10:52:16Z</time>
      </trkpt>
      <trkpt lat="43.17529" lon="6.48859">
        <ele>319.8</ele>
        <time>2024-02-04T10:52:17Z</time>
      </trkpt>
      <trkpt lat="43.17529" lon="6.4886">
        <ele>319.9</ele>
        <time>2024-02-04T10:52:18Z</time>
      </trkpt>
      <trkpt lat="43.17529" lon="6.48862">
        <ele>319.9</ele>
        <time>2024-02-04T10:52:19Z</time>
      </trkpt>
      <trkpt lat="43.17529" lon="6.48863">
        <ele>320</ele>
        <time>2024-02-04T10:52:20Z</time>
      </trkpt>
      <trkpt lat="43.17529" lon="6.48865">
        <ele>320.1</ele>
        <time>2024-02-04T10:52:21Z</time>
      </trkpt>
      <trkpt lat="43.1753" lon="6.48867">
        <ele>320.2</ele>
        <time>2024-02-04T10:52:22Z</time>
      </trkpt>
      <trkpt lat="43.1753" lon="6.48868">
        <ele>320.2</ele>
        <time>2024-02-04T10:52:23Z</time>
      </trkpt>
      <trkpt lat="43.1753" lon="6.4887">
        <ele>320.3</ele>
        <time>2024-02-04T10:52:24Z</time>
      </trkpt>
      <trkpt lat="43.1753" lon="6.48871">
        <ele>320.3</ele>
        <time>2024-02-04T10:52:25Z</time>
      </trkpt>
      <trkpt lat="43.17531" lon="6.48873">
        <ele>320.4</ele>
        <time>2024-02-04T10:52:26Z</time>
      </trkpt>
      <trkpt lat="43.17531" lon="6.48874">
        <ele>320.6</ele>
        <time>2024-02-04T10:52:27Z</time>
      </trkpt>
      <trkpt lat="43.17531" lon="6.48876">
        <ele>320.7</ele>
        <time>2024-02-04T10:52:28Z</time>
      </trkpt>
      <trkpt lat="43.17531" lon="6.48878">
        <ele>320.7</ele>
        <time>2024-02-04T10:52:29Z</time>
      </trkpt>
      <trkpt lat="43.17531" lon="6.4888">
        <ele>320.8</ele>
        <time>2024-02-04T10:52:30Z</time>
      </trkpt>
      <trkpt lat="43.17532" lon="6.48882">
        <ele>320.9</ele>
        <time>2024-02-04T10:52:31Z</time>
      </trkpt>
      <trkpt lat="43.17532" lon="6.48883">
        <ele>321</ele>
        <time>2024-02-04T10:52:32Z</time>
      </trkpt>
      <trkpt lat="43.17532" lon="6.48885">
        <ele>321.1</ele>
        <time>2024-02-04T10:52:33Z</time>
      </trkpt>
      <trkpt lat="43.17533" lon="6.48886">
        <ele>321.1</ele>
        <time>2024-02-04T10:52:34Z</time>
      </trkpt>
      <trkpt lat="43.17532" lon="6.48887">
        <ele>321.2</ele>
        <time>2024-02-04T10:52:35Z</time>
      </trkpt>
      <trkpt lat="43.17533" lon="6.48888">
        <ele>321.3</ele>
        <time>2024-02-04T10:52:36Z</time>
      </trkpt>
      <trkpt lat="43.17533" lon="6.4889">
        <ele>321.3</ele>
        <time>2024-02-04T10:52:37Z</time>
      </trkpt>
      <trkpt lat="43.17533" lon="6.48891">
        <ele>321.4</ele>
        <time>2024-02-04T10:52:38Z</time>
      </trkpt>
      <trkpt lat="43.17533" lon="6.48893">
        <ele>321.5</ele>
        <time>2024-02-04T10:52:39Z</time>
      </trkpt>
      <trkpt lat="43.17533" lon="6.48894">
        <ele>321.6</ele>
        <time>2024-02-04T10:52:40Z</time>
      </trkpt>
      <trkpt lat="43.17533" lon="6.48895">
        <ele>321.7</ele>
        <time>2024-02-04T10:52:41Z</time>
      </trkpt>
      <trkpt lat="43.17533" lon="6.48897">
        <ele>321.8</ele>
        <time>2024-02-04T10:52:42Z</time>
      </trkpt>
      <trkpt lat="43.17533" lon="6.48898">
        <ele>321.9</ele>
        <time>2024-02-04T10:52:43Z</time>
      </trkpt>
      <trkpt lat="43.17533" lon="6.489">
        <ele>322</ele>
        <time>2024-02-04T10:52:44Z</time>
      </trkpt>
      <trkpt lat="43.17534" lon="6.48901">
        <ele>322</ele>
        <time>2024-02-04T10:52:45Z</time>
      </trkpt>
      <trkpt lat="43.17534" lon="6.48902">
        <ele>322.1</ele>
        <time>2024-02-04T10:52:46Z</time>
      </trkpt>
      <trkpt lat="43.17533" lon="6.48904">
        <ele>322.2</ele>
        <time>2024-02-04T10:52:47Z</time>
      </trkpt>
      <trkpt lat="43.17533" lon="6.48905">
        <ele>322.2</ele>
        <time>2024-02-04T10:52:48Z</time>
      </trkpt>
      <trkpt lat="43.17533" lon="6.48906">
        <ele>322.3</ele>
        <time>2024-02-04T10:52:49Z</time>
      </trkpt>
      <trkpt lat="43.17532" lon="6.48908">
        <ele>322.3</ele>
        <time>2024-02-04T10:52:50Z</time>
      </trkpt>
      <trkpt lat="43.17532" lon="6.48909">
        <ele>322.4</ele>
        <time>2024-02-04T10:52:51Z</time>
      </trkpt>
      <trkpt lat="43.17532" lon="6.48911">
        <ele>322.5</ele>
        <time>2024-02-04T10:52:52Z</time>
      </trkpt>
      <trkpt lat="43.17533" lon="6.48913">
        <ele>322.6</ele>
        <time>2024-02-04T10:52:53Z</time>
      </trkpt>
      <trkpt lat="43.17534" lon="6.48914">
        <ele>322.7</ele>
        <time>2024-02-04T10:52:54Z</time>
      </trkpt>
      <trkpt lat="43.17534" lon="6.48915">
        <ele>322.7</ele>
        <time>2024-02-04T10:52:55Z</time>
      </trkpt>
      <trkpt lat="43.17535" lon="6.48917">
        <ele>322.8</ele>
        <time>2024-02-04T10:52:56Z</time>
      </trkpt>
      <trkpt lat="43.17535" lon="6.48918">
        <ele>322.8</ele>
        <time>2024-02-04T10:52:57Z</time>
      </trkpt>
      <trkpt lat="43.17535" lon="6.4892">
        <ele>322.8</ele>
        <time>2024-02-04T10:52:58Z</time>
      </trkpt>
      <trkpt lat="43.17536" lon="6.48921">
        <ele>322.9</ele>
        <time>2024-02-04T10:52:59Z</time>
      </trkpt>
      <trkpt lat="43.17536" lon="6.48923">
        <ele>322.9</ele>
        <time>2024-02-04T10:53:00Z</time>
      </trkpt>
      <trkpt lat="43.17536" lon="6.48924">
        <ele>322.9</ele>
        <time>2024-02-04T10:53:01Z</time>
      </trkpt>
      <trkpt lat="43.17536" lon="6.48926">
        <ele>322.9</ele>
        <time>2024-02-04T10:53:02Z</time>
      </trkpt>
      <trkpt lat="43.17537" lon="6.48927">
        <ele>322.9</ele>
        <time>2024-02-04T10:53:03Z</time>
      </trkpt>
      <trkpt lat="43.17537" lon="6.48929">
        <ele>323</ele>
        <time>2024-02-04T10:53:04Z</time>
      </trkpt>
      <trkpt lat="43.17537" lon="6.48931">
        <ele>323</ele>
        <time>2024-02-04T10:53:05Z</time>
      </trkpt>
      <trkpt lat="43.17537" lon="6.48932">
        <ele>323.1</ele>
        <time>2024-02-04T10:53:06Z</time>
      </trkpt>
      <trkpt lat="43.17538" lon="6.48934">
        <ele>323.3</ele>
        <time>2024-02-04T10:53:07Z</time>
      </trkpt>
      <trkpt lat="43.17538" lon="6.48936">
        <ele>323.3</ele>
        <time>2024-02-04T10:53:08Z</time>
      </trkpt>
      <trkpt lat="43.17538" lon="6.48937">
        <ele>323.3</ele>
        <time>2024-02-04T10:53:09Z</time>
      </trkpt>
      <trkpt lat="43.17539" lon="6.48939">
        <ele>323.4</ele>
        <time>2024-02-04T10:53:10Z</time>
      </trkpt>
      <trkpt lat="43.17539" lon="6.4894">
        <ele>323.5</ele>
        <time>2024-02-04T10:53:11Z</time>
      </trkpt>
      <trkpt lat="43.17539" lon="6.48942">
        <ele>323.6</ele>
        <time>2024-02-04T10:53:12Z</time>
      </trkpt>
      <trkpt lat="43.17539" lon="6.48943">
        <ele>323.7</ele>
        <time>2024-02-04T10:53:13Z</time>
      </trkpt>
      <trkpt lat="43.17539" lon="6.48945">
        <ele>323.8</ele>
        <time>2024-02-04T10:53:14Z</time>
      </trkpt>
      <trkpt lat="43.17539" lon="6.48947">
        <ele>323.8</ele>
        <time>2024-02-04T10:53:15Z</time>
      </trkpt>
      <trkpt lat="43.1754" lon="6.48948">
        <ele>323.9</ele>
        <time>2024-02-04T10:53:16Z</time>
      </trkpt>
      <trkpt lat="43.1754" lon="6.4895">
        <ele>324.1</ele>
        <time>2024-02-04T10:53:17Z</time>
      </trkpt>
      <trkpt lat="43.1754" lon="6.48951">
        <ele>324.2</ele>
        <time>2024-02-04T10:53:18Z</time>
      </trkpt>
      <trkpt lat="43.1754" lon="6.48953">
        <ele>324.2</ele>
        <time>2024-02-04T10:53:19Z</time>
      </trkpt>
      <trkpt lat="43.17541" lon="6.48955">
        <ele>324.2</ele>
        <time>2024-02-04T10:53:20Z</time>
      </trkpt>
      <trkpt lat="43.17541" lon="6.48956">
        <ele>324.2</ele>
        <time>2024-02-04T10:53:21Z</time>
      </trkpt>
      <trkpt lat="43.17542" lon="6.48957">
        <ele>324.3</ele>
        <time>2024-02-04T10:53:22Z</time>
      </trkpt>
      <trkpt lat="43.17542" lon="6.48959">
        <ele>324.3</ele>
        <time>2024-02-04T10:53:23Z</time>
      </trkpt>
      <trkpt lat="43.17542" lon="6.48961">
        <ele>324.4</ele>
        <time>2024-02-04T10:53:24Z</time>
      </trkpt>
      <trkpt lat="43.17542" lon="6.48963">
        <ele>324.4</ele>
        <time>2024-02-04T10:53:25Z</time>
      </trkpt>
      <trkpt lat="43.17542" lon="6.48964">
        <ele>324.4</ele>
        <time>2024-02-04T10:53:26Z</time>
      </trkpt>
      <trkpt lat="43.17543" lon="6.48966">
        <ele>324.6</ele>
        <time>2024-02-04T10:53:27Z</time>
      </trkpt>
      <trkpt lat="43.17543" lon="6.48967">
        <ele>324.7</ele>
        <time>2024-02-04T10:53:28Z</time>
      </trkpt>
      <trkpt lat="43.17543" lon="6.48968">
        <ele>324.8</ele>
        <time>2024-02-04T10:53:29Z</time>
      </trkpt>
      <trkpt lat="43.17544" lon="6.4897">
        <ele>324.9</ele>
        <time>2024-02-04T10:53:30Z</time>
      </trkpt>
      <trkpt lat="43.17544" lon="6.48971">
        <ele>325</ele>
        <time>2024-02-04T10:53:31Z</time>
      </trkpt>
      <trkpt lat="43.17545" lon="6.48972">
        <ele>325</ele>
        <time>2024-02-04T10:53:32Z</time>
      </trkpt>
      <trkpt lat="43.17545" lon="6.48973">
        <ele>325</ele>
        <time>2024-02-04T10:53:33Z</time>
      </trkpt>
      <trkpt lat="43.17545" lon="6.48974">
        <ele>325</ele>
        <time>2024-02-04T10:53:34Z</time>
      </trkpt>
      <trkpt lat="43.17545" lon="6.48975">
        <ele>325.1</ele>
        <time>2024-02-04T10:53:35Z</time>
      </trkpt>
      <trkpt lat="43.17545" lon="6.48975">
        <ele>325.1</ele>
        <time>2024-02-04T10:53:36Z</time>
      </trkpt>
      <trkpt lat="43.17545" lon="6.48976">
        <ele>325.1</ele>
        <time>2024-02-04T10:53:37Z</time>
      </trkpt>
      <trkpt lat="43.17545" lon="6.48976">
        <ele>325.2</ele>
        <time>2024-02-04T10:53:38Z</time>
      </trkpt>
      <trkpt lat="43.17545" lon="6.48976">
        <ele>325.2</ele>
        <time>2024-02-04T10:53:39Z</time>
      </trkpt>
      <trkpt lat="43.17545" lon="6.48976">
        <ele>325.2</ele>
        <time>2024-02-04T10:53:40Z</time>
      </trkpt>
      <trkpt lat="43.17545" lon="6.48977">
        <ele>325.2</ele>
        <time>2024-02-04T10:53:41Z</time>
      </trkpt>
      <trkpt lat="43.17545" lon="6.48978">
        <ele>325.2</ele>
        <time>2024-02-04T10:53:42Z</time>
      </trkpt>
      <trkpt lat="43.17545" lon="6.48979">
        <ele>325.3</ele>
        <time>2024-02-04T10:53:43Z</time>
      </trkpt>
      <trkpt lat="43.17546" lon="6.4898">
        <ele>325.3</ele>
        <time>2024-02-04T10:53:44Z</time>
      </trkpt>
      <trkpt lat="43.17546" lon="6.48981">
        <ele>325.4</ele>
        <time>2024-02-04T10:53:45Z</time>
      </trkpt>
      <trkpt lat="43.17546" lon="6.48982">
        <ele>325.5</ele>
        <time>2024-02-04T10:53:46Z</time>
      </trkpt>
      <trkpt lat="43.17547" lon="6.48984">
        <ele>325.5</ele>
        <time>2024-02-04T10:53:47Z</time>
      </trkpt>
      <trkpt lat="43.17547" lon="6.48985">
        <ele>325.6</ele>
        <time>2024-02-04T10:53:48Z</time>
      </trkpt>
      <trkpt lat="43.17547" lon="6.48986">
        <ele>325.7</ele>
        <time>2024-02-04T10:53:49Z</time>
      </trkpt>
      <trkpt lat="43.17548" lon="6.48987">
        <ele>325.7</ele>
        <time>2024-02-04T10:53:50Z</time>
      </trkpt>
      <trkpt lat="43.17548" lon="6.48988">
        <ele>325.7</ele>
        <time>2024-02-04T10:53:51Z</time>
      </trkpt>
      <trkpt lat="43.17549" lon="6.48989">
        <ele>325.7</ele>
        <time>2024-02-04T10:53:52Z</time>
      </trkpt>
      <trkpt lat="43.17549" lon="6.4899">
        <ele>325.7</ele>
        <time>2024-02-04T10:53:53Z</time>
      </trkpt>
      <trkpt lat="43.1755" lon="6.4899">
        <ele>325.7</ele>
        <time>2024-02-04T10:53:54Z</time>
      </trkpt>
      <trkpt lat="43.1755" lon="6.48992">
        <ele>325.7</ele>
        <time>2024-02-04T10:53:55Z</time>
      </trkpt>
      <trkpt lat="43.17551" lon="6.48993">
        <ele>325.8</ele>
        <time>2024-02-04T10:53:56Z</time>
      </trkpt>
      <trkpt lat="43.17552" lon="6.48994">
        <ele>325.8</ele>
        <time>2024-02-04T10:53:57Z</time>
      </trkpt>
      <trkpt lat="43.17553" lon="6.48995">
        <ele>325.8</ele>
        <time>2024-02-04T10:53:58Z</time>
      </trkpt>
      <trkpt lat="43.17553" lon="6.48996">
        <ele>325.8</ele>
        <time>2024-02-04T10:53:59Z</time>
      </trkpt>
      <trkpt lat="43.17554" lon="6.48998">
        <ele>325.8</ele>
        <time>2024-02-04T10:54:00Z</time>
      </trkpt>
      <trkpt lat="43.17555" lon="6.48999">
        <ele>325.8</ele>
        <time>2024-02-04T10:54:01Z</time>
      </trkpt>
      <trkpt lat="43.17556" lon="6.49">
        <ele>325.8</ele>
        <time>2024-02-04T10:54:02Z</time>
      </trkpt>
      <trkpt lat="43.17557" lon="6.49001">
        <ele>325.8</ele>
        <time>2024-02-04T10:54:03Z</time>
      </trkpt>
      <trkpt lat="43.17558" lon="6.49002">
        <ele>325.8</ele>
        <time>2024-02-04T10:54:04Z</time>
      </trkpt>
      <trkpt lat="43.17559" lon="6.49003">
        <ele>325.9</ele>
        <time>2024-02-04T10:54:05Z</time>
      </trkpt>
      <trkpt lat="43.1756" lon="6.49004">
        <ele>326.1</ele>
        <time>2024-02-04T10:54:06Z</time>
      </trkpt>
      <trkpt lat="43.1756" lon="6.49005">
        <ele>326.2</ele>
        <time>2024-02-04T10:54:07Z</time>
      </trkpt>
      <trkpt lat="43.17561" lon="6.49006">
        <ele>326.4</ele>
        <time>2024-02-04T10:54:08Z</time>
      </trkpt>
      <trkpt lat="43.17561" lon="6.49007">
        <ele>326.5</ele>
        <time>2024-02-04T10:54:09Z</time>
      </trkpt>
      <trkpt lat="43.17562" lon="6.49009">
        <ele>326.5</ele>
        <time>2024-02-04T10:54:10Z</time>
      </trkpt>
      <trkpt lat="43.17563" lon="6.49009">
        <ele>326.6</ele>
        <time>2024-02-04T10:54:11Z</time>
      </trkpt>
      <trkpt lat="43.17563" lon="6.4901">
        <ele>326.7</ele>
        <time>2024-02-04T10:54:12Z</time>
      </trkpt>
      <trkpt lat="43.17563" lon="6.49011">
        <ele>326.8</ele>
        <time>2024-02-04T10:54:13Z</time>
      </trkpt>
      <trkpt lat="43.17564" lon="6.49012">
        <ele>326.9</ele>
        <time>2024-02-04T10:54:14Z</time>
      </trkpt>
      <trkpt lat="43.17564" lon="6.49013">
        <ele>327</ele>
        <time>2024-02-04T10:54:15Z</time>
      </trkpt>
      <trkpt lat="43.17564" lon="6.49015">
        <ele>327</ele>
        <time>2024-02-04T10:54:16Z</time>
      </trkpt>
      <trkpt lat="43.17565" lon="6.49016">
        <ele>327.1</ele>
        <time>2024-02-04T10:54:17Z</time>
      </trkpt>
      <trkpt lat="43.17565" lon="6.49017">
        <ele>327.2</ele>
        <time>2024-02-04T10:54:18Z</time>
      </trkpt>
      <trkpt lat="43.17565" lon="6.49018">
        <ele>327.3</ele>
        <time>2024-02-04T10:54:19Z</time>
      </trkpt>
      <trkpt lat="43.17566" lon="6.4902">
        <ele>327.4</ele>
        <time>2024-02-04T10:54:20Z</time>
      </trkpt>
      <trkpt lat="43.17566" lon="6.49021">
        <ele>327.5</ele>
        <time>2024-02-04T10:54:21Z</time>
      </trkpt>
      <trkpt lat="43.17566" lon="6.49022">
        <ele>327.6</ele>
        <time>2024-02-04T10:54:22Z</time>
      </trkpt>
      <trkpt lat="43.17567" lon="6.49024">
        <ele>327.8</ele>
        <time>2024-02-04T10:54:23Z</time>
      </trkpt>
      <trkpt lat="43.17567" lon="6.49025">
        <ele>328</ele>
        <time>2024-02-04T10:54:24Z</time>
      </trkpt>
      <trkpt lat="43.17568" lon="6.49026">
        <ele>328.1</ele>
        <time>2024-02-04T10:54:25Z</time>
      </trkpt>
      <trkpt lat="43.17568" lon="6.49027">
        <ele>328.2</ele>
        <time>2024-02-04T10:54:26Z</time>
      </trkpt>
      <trkpt lat="43.17569" lon="6.49028">
        <ele>328.4</ele>
        <time>2024-02-04T10:54:27Z</time>
      </trkpt>
      <trkpt lat="43.17569" lon="6.49029">
        <ele>328.5</ele>
        <time>2024-02-04T10:54:28Z</time>
      </trkpt>
      <trkpt lat="43.1757" lon="6.49031">
        <ele>328.6</ele>
        <time>2024-02-04T10:54:29Z</time>
      </trkpt>
      <trkpt lat="43.1757" lon="6.49032">
        <ele>328.7</ele>
        <time>2024-02-04T10:54:30Z</time>
      </trkpt>
      <trkpt lat="43.17571" lon="6.49033">
        <ele>328.8</ele>
        <time>2024-02-04T10:54:31Z</time>
      </trkpt>
      <trkpt lat="43.17571" lon="6.49034">
        <ele>329</ele>
        <time>2024-02-04T10:54:32Z</time>
      </trkpt>
      <trkpt lat="43.17572" lon="6.49035">
        <ele>329.2</ele>
        <time>2024-02-04T10:54:33Z</time>
      </trkpt>
      <trkpt lat="43.17573" lon="6.49036">
        <ele>329.3</ele>
        <time>2024-02-04T10:54:34Z</time>
      </trkpt>
      <trkpt lat="43.17573" lon="6.49037">
        <ele>329.5</ele>
        <time>2024-02-04T10:54:35Z</time>
      </trkpt>
      <trkpt lat="43.17574" lon="6.49038">
        <ele>329.6</ele>
        <time>2024-02-04T10:54:36Z</time>
      </trkpt>
      <trkpt lat="43.17574" lon="6.49039">
        <ele>329.7</ele>
        <time>2024-02-04T10:54:37Z</time>
      </trkpt>
      <trkpt lat="43.17575" lon="6.4904">
        <ele>329.9</ele>
        <time>2024-02-04T10:54:38Z</time>
      </trkpt>
      <trkpt lat="43.17576" lon="6.49042">
        <ele>330.1</ele>
        <time>2024-02-04T10:54:39Z</time>
      </trkpt>
      <trkpt lat="43.17577" lon="6.49043">
        <ele>330.2</ele>
        <time>2024-02-04T10:54:40Z</time>
      </trkpt>
      <trkpt lat="43.17578" lon="6.49044">
        <ele>330.4</ele>
        <time>2024-02-04T10:54:41Z</time>
      </trkpt>
      <trkpt lat="43.17578" lon="6.49045">
        <ele>330.5</ele>
        <time>2024-02-04T10:54:42Z</time>
      </trkpt>
      <trkpt lat="43.17579" lon="6.49046">
        <ele>330.7</ele>
        <time>2024-02-04T10:54:43Z</time>
      </trkpt>
      <trkpt lat="43.1758" lon="6.49046">
        <ele>330.7</ele>
        <time>2024-02-04T10:54:44Z</time>
      </trkpt>
      <trkpt lat="43.17581" lon="6.49047">
        <ele>330.8</ele>
        <time>2024-02-04T10:54:45Z</time>
      </trkpt>
      <trkpt lat="43.17581" lon="6.49048">
        <ele>330.9</ele>
        <time>2024-02-04T10:54:46Z</time>
      </trkpt>
      <trkpt lat="43.17582" lon="6.49049">
        <ele>330.9</ele>
        <time>2024-02-04T10:54:47Z</time>
      </trkpt>
      <trkpt lat="43.17583" lon="6.4905">
        <ele>331.1</ele>
        <time>2024-02-04T10:54:48Z</time>
      </trkpt>
      <trkpt lat="43.17584" lon="6.4905">
        <ele>331.2</ele>
        <time>2024-02-04T10:54:49Z</time>
      </trkpt>
      <trkpt lat="43.17584" lon="6.49051">
        <ele>331.3</ele>
        <time>2024-02-04T10:54:50Z</time>
      </trkpt>
      <trkpt lat="43.17585" lon="6.49051">
        <ele>331.4</ele>
        <time>2024-02-04T10:54:51Z</time>
      </trkpt>
      <trkpt lat="43.17586" lon="6.49052">
        <ele>331.6</ele>
        <time>2024-02-04T10:54:52Z</time>
      </trkpt>
      <trkpt lat="43.17586" lon="6.49052">
        <ele>331.7</ele>
        <time>2024-02-04T10:54:53Z</time>
      </trkpt>
      <trkpt lat="43.17586" lon="6.49052">
        <ele>331.9</ele>
        <time>2024-02-04T10:54:54Z</time>
      </trkpt>
      <trkpt lat="43.17586" lon="6.49052">
        <ele>331.9</ele>
        <time>2024-02-04T10:54:55Z</time>
      </trkpt>
      <trkpt lat="43.17586" lon="6.49052">
        <ele>332</ele>
        <time>2024-02-04T10:54:56Z</time>
      </trkpt>
      <trkpt lat="43.17586" lon="6.49052">
        <ele>332.1</ele>
        <time>2024-02-04T10:54:57Z</time>
      </trkpt>
      <trkpt lat="43.17586" lon="6.49052">
        <ele>332.1</ele>
        <time>2024-02-04T10:54:58Z</time>
      </trkpt>
      <trkpt lat="43.17586" lon="6.49052">
        <ele>332</ele>
        <time>2024-02-04T10:54:59Z</time>
      </trkpt>
      <trkpt lat="43.17586" lon="6.49052">
        <ele>332</ele>
        <time>2024-02-04T10:55:00Z</time>
      </trkpt>
      <trkpt lat="43.17586" lon="6.49052">
        <ele>332.1</ele>
        <time>2024-02-04T10:55:01Z</time>
      </trkpt>
      <trkpt lat="43.17586" lon="6.49052">
        <ele>332.1</ele>
        <time>2024-02-04T10:55:02Z</time>
      </trkpt>
      <trkpt lat="43.17586" lon="6.49052">
        <ele>332.1</ele>
        <time>2024-02-04T10:55:03Z</time>
      </trkpt>
      <trkpt lat="43.17587" lon="6.49051">
        <ele>332.1</ele>
        <time>2024-02-04T10:55:04Z</time>
      </trkpt>
      <trkpt lat="43.17587" lon="6.49051">
        <ele>332.2</ele>
        <time>2024-02-04T10:55:05Z</time>
      </trkpt>
      <trkpt lat="43.17587" lon="6.49051">
        <ele>332.2</ele>
        <time>2024-02-04T10:55:06Z</time>
      </trkpt>
      <trkpt lat="43.17587" lon="6.49051">
        <ele>332.2</ele>
        <time>2024-02-04T10:55:07Z</time>
      </trkpt>
      <trkpt lat="43.17587" lon="6.49051">
        <ele>332.1</ele>
        <time>2024-02-04T10:55:08Z</time>
      </trkpt>
      <trkpt lat="43.17587" lon="6.49051">
        <ele>332.2</ele>
        <time>2024-02-04T10:55:09Z</time>
      </trkpt>
      <trkpt lat="43.17587" lon="6.49051">
        <ele>332.1</ele>
        <time>2024-02-04T10:55:10Z</time>
      </trkpt>
      <trkpt lat="43.17588" lon="6.49051">
        <ele>332.1</ele>
        <time>2024-02-04T10:55:11Z</time>
      </trkpt>
      <trkpt lat="43.17588" lon="6.49051">
        <ele>332.1</ele>
        <time>2024-02-04T10:55:12Z</time>
      </trkpt>
      <trkpt lat="43.17588" lon="6.49051">
        <ele>332.1</ele>
        <time>2024-02-04T10:55:13Z</time>
      </trkpt>
      <trkpt lat="43.17588" lon="6.49051">
        <ele>332</ele>
        <time>2024-02-04T10:55:14Z</time>
      </trkpt>
      <trkpt lat="43.17588" lon="6.49051">
        <ele>331.9</ele>
        <time>2024-02-04T10:55:15Z</time>
      </trkpt>
      <trkpt lat="43.17588" lon="6.49051">
        <ele>332</ele>
        <time>2024-02-04T10:55:16Z</time>
      </trkpt>
      <trkpt lat="43.17588" lon="6.49052">
        <ele>332</ele>
        <time>2024-02-04T10:55:17Z</time>
      </trkpt>
      <trkpt lat="43.17587" lon="6.49052">
        <ele>332</ele>
        <time>2024-02-04T10:55:18Z</time>
      </trkpt>
      <trkpt lat="43.17587" lon="6.49052">
        <ele>332</ele>
        <time>2024-02-04T10:55:19Z</time>
      </trkpt>
      <trkpt lat="43.17587" lon="6.49052">
        <ele>332.1</ele>
        <time>2024-02-04T10:55:20Z</time>
      </trkpt>
      <trkpt lat="43.17587" lon="6.49052">
        <ele>332.1</ele>
        <time>2024-02-04T10:55:21Z</time>
      </trkpt>
      <trkpt lat="43.17588" lon="6.49053">
        <ele>332.1</ele>
        <time>2024-02-04T10:55:22Z</time>
      </trkpt>
      <trkpt lat="43.17588" lon="6.49053">
        <ele>332.1</ele>
        <time>2024-02-04T10:55:23Z</time>
      </trkpt>
      <trkpt lat="43.17589" lon="6.49054">
        <ele>332.3</ele>
        <time>2024-02-04T10:55:24Z</time>
      </trkpt>
      <trkpt lat="43.17589" lon="6.49054">
        <ele>332.3</ele>
        <time>2024-02-04T10:55:25Z</time>
      </trkpt>
      <trkpt lat="43.1759" lon="6.49054">
        <ele>332.4</ele>
        <time>2024-02-04T10:55:26Z</time>
      </trkpt>
      <trkpt lat="43.17591" lon="6.49055">
        <ele>332.5</ele>
        <time>2024-02-04T10:55:27Z</time>
      </trkpt>
      <trkpt lat="43.17591" lon="6.49056">
        <ele>332.5</ele>
        <time>2024-02-04T10:55:28Z</time>
      </trkpt>
      <trkpt lat="43.17592" lon="6.49056">
        <ele>332.4</ele>
        <time>2024-02-04T10:55:29Z</time>
      </trkpt>
      <trkpt lat="43.17593" lon="6.49056">
        <ele>332.4</ele>
        <time>2024-02-04T10:55:30Z</time>
      </trkpt>
      <trkpt lat="43.17593" lon="6.49057">
        <ele>332.5</ele>
        <time>2024-02-04T10:55:31Z</time>
      </trkpt>
      <trkpt lat="43.17594" lon="6.49057">
        <ele>332.5</ele>
        <time>2024-02-04T10:55:32Z</time>
      </trkpt>
      <trkpt lat="43.17595" lon="6.49058">
        <ele>332.6</ele>
        <time>2024-02-04T10:55:33Z</time>
      </trkpt>
      <trkpt lat="43.17596" lon="6.49059">
        <ele>332.6</ele>
        <time>2024-02-04T10:55:34Z</time>
      </trkpt>
      <trkpt lat="43.17597" lon="6.4906">
        <ele>332.6</ele>
        <time>2024-02-04T10:55:35Z</time>
      </trkpt>
      <trkpt lat="43.17597" lon="6.4906">
        <ele>332.7</ele>
        <time>2024-02-04T10:55:36Z</time>
      </trkpt>
      <trkpt lat="43.17598" lon="6.4906">
        <ele>332.9</ele>
        <time>2024-02-04T10:55:37Z</time>
      </trkpt>
      <trkpt lat="43.17599" lon="6.49061">
        <ele>333.1</ele>
        <time>2024-02-04T10:55:38Z</time>
      </trkpt>
      <trkpt lat="43.176" lon="6.49061">
        <ele>333.1</ele>
        <time>2024-02-04T10:55:39Z</time>
      </trkpt>
      <trkpt lat="43.17601" lon="6.49062">
        <ele>333.1</ele>
        <time>2024-02-04T10:55:40Z</time>
      </trkpt>
      <trkpt lat="43.17601" lon="6.49062">
        <ele>333.3</ele>
        <time>2024-02-04T10:55:41Z</time>
      </trkpt>
      <trkpt lat="43.17602" lon="6.49063">
        <ele>333.5</ele>
        <time>2024-02-04T10:55:42Z</time>
      </trkpt>
      <trkpt lat="43.17603" lon="6.49064">
        <ele>333.6</ele>
        <time>2024-02-04T10:55:43Z</time>
      </trkpt>
      <trkpt lat="43.17603" lon="6.49064">
        <ele>333.8</ele>
        <time>2024-02-04T10:55:44Z</time>
      </trkpt>
      <trkpt lat="43.17603" lon="6.49064">
        <ele>334</ele>
        <time>2024-02-04T10:55:45Z</time>
      </trkpt>
      <trkpt lat="43.17603" lon="6.49064">
        <ele>334.1</ele>
        <time>2024-02-04T10:55:46Z</time>
      </trkpt>
      <trkpt lat="43.17604" lon="6.49064">
        <ele>334.2</ele>
        <time>2024-02-04T10:55:47Z</time>
      </trkpt>
      <trkpt lat="43.17604" lon="6.49064">
        <ele>334.2</ele>
        <time>2024-02-04T10:55:48Z</time>
      </trkpt>
      <trkpt lat="43.17604" lon="6.49064">
        <ele>334.2</ele>
        <time>2024-02-04T10:55:49Z</time>
      </trkpt>
      <trkpt lat="43.17604" lon="6.49064">
        <ele>334.2</ele>
        <time>2024-02-04T10:55:50Z</time>
      </trkpt>
      <trkpt lat="43.17604" lon="6.49064">
        <ele>334.2</ele>
        <time>2024-02-04T10:55:51Z</time>
      </trkpt>
      <trkpt lat="43.17603" lon="6.49064">
        <ele>334.3</ele>
        <time>2024-02-04T10:55:52Z</time>
      </trkpt>
      <trkpt lat="43.17603" lon="6.49064">
        <ele>334.3</ele>
        <time>2024-02-04T10:55:53Z</time>
      </trkpt>
      <trkpt lat="43.17603" lon="6.49064">
        <ele>334.4</ele>
        <time>2024-02-04T10:55:54Z</time>
      </trkpt>
      <trkpt lat="43.17604" lon="6.49064">
        <ele>334.4</ele>
        <time>2024-02-04T10:55:55Z</time>
      </trkpt>
      <trkpt lat="43.17604" lon="6.49064">
        <ele>334.4</ele>
        <time>2024-02-04T10:55:56Z</time>
      </trkpt>
      <trkpt lat="43.17604" lon="6.49064">
        <ele>334.4</ele>
        <time>2024-02-04T10:55:57Z</time>
      </trkpt>
      <trkpt lat="43.17604" lon="6.49064">
        <ele>334.4</ele>
        <time>2024-02-04T10:55:58Z</time>
      </trkpt>
      <trkpt lat="43.17604" lon="6.49064">
        <ele>334.4</ele>
        <time>2024-02-04T10:55:59Z</time>
      </trkpt>
      <trkpt lat="43.17604" lon="6.49063">
        <ele>334.3</ele>
        <time>2024-02-04T10:56:00Z</time>
      </trkpt>
      <trkpt lat="43.17604" lon="6.49063">
        <ele>334.3</ele>
        <time>2024-02-04T10:56:01Z</time>
      </trkpt>
      <trkpt lat="43.17604" lon="6.49063">
        <ele>334.3</ele>
        <time>2024-02-04T10:56:02Z</time>
      </trkpt>
      <trkpt lat="43.17604" lon="6.49063">
        <ele>334.3</ele>
        <time>2024-02-04T10:56:03Z</time>
      </trkpt>
      <trkpt lat="43.17604" lon="6.49063">
        <ele>334.2</ele>
        <time>2024-02-04T10:56:04Z</time>
      </trkpt>
      <trkpt lat="43.17604" lon="6.49063">
        <ele>334.1</ele>
        <time>2024-02-04T10:56:05Z</time>
      </trkpt>
      <trkpt lat="43.17604" lon="6.49063">
        <ele>334.1</ele>
        <time>2024-02-04T10:56:06Z</time>
      </trkpt>
      <trkpt lat="43.17604" lon="6.49063">
        <ele>334.1</ele>
        <time>2024-02-04T10:56:07Z</time>
      </trkpt>
      <trkpt lat="43.17605" lon="6.49062">
        <ele>334</ele>
        <time>2024-02-04T10:56:08Z</time>
      </trkpt>
      <trkpt lat="43.17605" lon="6.49062">
        <ele>334</ele>
        <time>2024-02-04T10:56:09Z</time>
      </trkpt>
      <trkpt lat="43.17605" lon="6.49062">
        <ele>334</ele>
        <time>2024-02-04T10:56:10Z</time>
      </trkpt>
      <trkpt lat="43.17605" lon="6.49062">
        <ele>334</ele>
        <time>2024-02-04T10:56:11Z</time>
      </trkpt>
      <trkpt lat="43.17605" lon="6.49062">
        <ele>334</ele>
        <time>2024-02-04T10:56:12Z</time>
      </trkpt>
      <trkpt lat="43.17605" lon="6.49063">
        <ele>334</ele>
        <time>2024-02-04T10:56:13Z</time>
      </trkpt>
      <trkpt lat="43.17605" lon="6.49064">
        <ele>334.1</ele>
        <time>2024-02-04T10:56:14Z</time>
      </trkpt>
      <trkpt lat="43.17605" lon="6.49064">
        <ele>334.1</ele>
        <time>2024-02-04T10:56:15Z</time>
      </trkpt>
      <trkpt lat="43.17606" lon="6.49065">
        <ele>334.2</ele>
        <time>2024-02-04T10:56:16Z</time>
      </trkpt>
      <trkpt lat="43.17606" lon="6.49066">
        <ele>334.3</ele>
        <time>2024-02-04T10:56:17Z</time>
      </trkpt>
      <trkpt lat="43.17607" lon="6.49066">
        <ele>334.4</ele>
        <time>2024-02-04T10:56:18Z</time>
      </trkpt>
      <trkpt lat="43.17608" lon="6.49067">
        <ele>334.5</ele>
        <time>2024-02-04T10:56:19Z</time>
      </trkpt>
      <trkpt lat="43.17608" lon="6.49067">
        <ele>334.6</ele>
        <time>2024-02-04T10:56:20Z</time>
      </trkpt>
      <trkpt lat="43.17609" lon="6.49068">
        <ele>334.8</ele>
        <time>2024-02-04T10:56:21Z</time>
      </trkpt>
      <trkpt lat="43.1761" lon="6.49069">
        <ele>334.9</ele>
        <time>2024-02-04T10:56:22Z</time>
      </trkpt>
      <trkpt lat="43.17611" lon="6.4907">
        <ele>334.9</ele>
        <time>2024-02-04T10:56:23Z</time>
      </trkpt>
      <trkpt lat="43.17611" lon="6.49071">
        <ele>335</ele>
        <time>2024-02-04T10:56:24Z</time>
      </trkpt>
      <trkpt lat="43.17612" lon="6.49072">
        <ele>335.3</ele>
        <time>2024-02-04T10:56:25Z</time>
      </trkpt>
      <trkpt lat="43.17613" lon="6.49073">
        <ele>335.4</ele>
        <time>2024-02-04T10:56:26Z</time>
      </trkpt>
      <trkpt lat="43.17614" lon="6.49074">
        <ele>335.6</ele>
        <time>2024-02-04T10:56:27Z</time>
      </trkpt>
      <trkpt lat="43.17615" lon="6.49074">
        <ele>335.6</ele>
        <time>2024-02-04T10:56:28Z</time>
      </trkpt>
      <trkpt lat="43.17616" lon="6.49076">
        <ele>335.7</ele>
        <time>2024-02-04T10:56:29Z</time>
      </trkpt>
      <trkpt lat="43.17616" lon="6.49076">
        <ele>335.7</ele>
        <time>2024-02-04T10:56:30Z</time>
      </trkpt>
      <trkpt lat="43.17617" lon="6.49077">
        <ele>335.9</ele>
        <time>2024-02-04T10:56:31Z</time>
      </trkpt>
      <trkpt lat="43.17618" lon="6.49078">
        <ele>336.1</ele>
        <time>2024-02-04T10:56:32Z</time>
      </trkpt>
      <trkpt lat="43.17619" lon="6.4908">
        <ele>336.2</ele>
        <time>2024-02-04T10:56:33Z</time>
      </trkpt>
      <trkpt lat="43.17619" lon="6.4908">
        <ele>336.3</ele>
        <time>2024-02-04T10:56:34Z</time>
      </trkpt>
      <trkpt lat="43.1762" lon="6.49081">
        <ele>336.5</ele>
        <time>2024-02-04T10:56:35Z</time>
      </trkpt>
      <trkpt lat="43.17621" lon="6.49082">
        <ele>336.6</ele>
        <time>2024-02-04T10:56:36Z</time>
      </trkpt>
      <trkpt lat="43.17622" lon="6.49083">
        <ele>336.7</ele>
        <time>2024-02-04T10:56:37Z</time>
      </trkpt>
      <trkpt lat="43.17622" lon="6.49085">
        <ele>336.7</ele>
        <time>2024-02-04T10:56:38Z</time>
      </trkpt>
      <trkpt lat="43.17622" lon="6.49086">
        <ele>336.7</ele>
        <time>2024-02-04T10:56:39Z</time>
      </trkpt>
      <trkpt lat="43.17623" lon="6.49087">
        <ele>336.9</ele>
        <time>2024-02-04T10:56:40Z</time>
      </trkpt>
      <trkpt lat="43.17624" lon="6.49088">
        <ele>337.1</ele>
        <time>2024-02-04T10:56:41Z</time>
      </trkpt>
      <trkpt lat="43.17624" lon="6.49089">
        <ele>337.3</ele>
        <time>2024-02-04T10:56:42Z</time>
      </trkpt>
      <trkpt lat="43.17625" lon="6.4909">
        <ele>337.4</ele>
        <time>2024-02-04T10:56:43Z</time>
      </trkpt>
      <trkpt lat="43.17626" lon="6.49091">
        <ele>337.6</ele>
        <time>2024-02-04T10:56:44Z</time>
      </trkpt>
      <trkpt lat="43.17626" lon="6.49093">
        <ele>337.7</ele>
        <time>2024-02-04T10:56:45Z</time>
      </trkpt>
      <trkpt lat="43.17627" lon="6.49094">
        <ele>337.8</ele>
        <time>2024-02-04T10:56:46Z</time>
      </trkpt>
      <trkpt lat="43.17627" lon="6.49095">
        <ele>337.8</ele>
        <time>2024-02-04T10:56:47Z</time>
      </trkpt>
      <trkpt lat="43.17628" lon="6.49096">
        <ele>337.9</ele>
        <time>2024-02-04T10:56:48Z</time>
      </trkpt>
      <trkpt lat="43.17628" lon="6.49098">
        <ele>338.1</ele>
        <time>2024-02-04T10:56:49Z</time>
      </trkpt>
      <trkpt lat="43.17629" lon="6.49099">
        <ele>338.3</ele>
        <time>2024-02-04T10:56:50Z</time>
      </trkpt>
      <trkpt lat="43.17629" lon="6.491">
        <ele>338.5</ele>
        <time>2024-02-04T10:56:51Z</time>
      </trkpt>
      <trkpt lat="43.1763" lon="6.49101">
        <ele>338.7</ele>
        <time>2024-02-04T10:56:52Z</time>
      </trkpt>
      <trkpt lat="43.1763" lon="6.49103">
        <ele>338.7</ele>
        <time>2024-02-04T10:56:53Z</time>
      </trkpt>
      <trkpt lat="43.1763" lon="6.49104">
        <ele>338.9</ele>
        <time>2024-02-04T10:56:54Z</time>
      </trkpt>
      <trkpt lat="43.1763" lon="6.49105">
        <ele>338.9</ele>
        <time>2024-02-04T10:56:55Z</time>
      </trkpt>
      <trkpt lat="43.17631" lon="6.49106">
        <ele>339.1</ele>
        <time>2024-02-04T10:56:56Z</time>
      </trkpt>
      <trkpt lat="43.17631" lon="6.49107">
        <ele>339.2</ele>
        <time>2024-02-04T10:56:57Z</time>
      </trkpt>
      <trkpt lat="43.17632" lon="6.49108">
        <ele>339.3</ele>
        <time>2024-02-04T10:56:58Z</time>
      </trkpt>
      <trkpt lat="43.17632" lon="6.49109">
        <ele>339.5</ele>
        <time>2024-02-04T10:56:59Z</time>
      </trkpt>
      <trkpt lat="43.17632" lon="6.4911">
        <ele>339.7</ele>
        <time>2024-02-04T10:57:00Z</time>
      </trkpt>
      <trkpt lat="43.17633" lon="6.49111">
        <ele>339.8</ele>
        <time>2024-02-04T10:57:01Z</time>
      </trkpt>
      <trkpt lat="43.17633" lon="6.49111">
        <ele>339.9</ele>
        <time>2024-02-04T10:57:02Z</time>
      </trkpt>
      <trkpt lat="43.17633" lon="6.49111">
        <ele>340</ele>
        <time>2024-02-04T10:57:03Z</time>
      </trkpt>
      <trkpt lat="43.17633" lon="6.49111">
        <ele>340</ele>
        <time>2024-02-04T10:57:04Z</time>
      </trkpt>
      <trkpt lat="43.17633" lon="6.49111">
        <ele>340.1</ele>
        <time>2024-02-04T10:57:05Z</time>
      </trkpt>
      <trkpt lat="43.17633" lon="6.49111">
        <ele>340.1</ele>
        <time>2024-02-04T10:57:06Z</time>
      </trkpt>
      <trkpt lat="43.17634" lon="6.49111">
        <ele>340.2</ele>
        <time>2024-02-04T10:57:07Z</time>
      </trkpt>
      <trkpt lat="43.17634" lon="6.49111">
        <ele>340.2</ele>
        <time>2024-02-04T10:57:08Z</time>
      </trkpt>
      <trkpt lat="43.17634" lon="6.49111">
        <ele>340.2</ele>
        <time>2024-02-04T10:57:09Z</time>
      </trkpt>
      <trkpt lat="43.17634" lon="6.49111">
        <ele>340.3</ele>
        <time>2024-02-04T10:57:10Z</time>
      </trkpt>
      <trkpt lat="43.17634" lon="6.49111">
        <ele>340.3</ele>
        <time>2024-02-04T10:57:11Z</time>
      </trkpt>
      <trkpt lat="43.17634" lon="6.49111">
        <ele>340.3</ele>
        <time>2024-02-04T10:57:12Z</time>
      </trkpt>
      <trkpt lat="43.17634" lon="6.49111">
        <ele>340.3</ele>
        <time>2024-02-04T10:57:13Z</time>
      </trkpt>
      <trkpt lat="43.17634" lon="6.49111">
        <ele>340.3</ele>
        <time>2024-02-04T10:57:14Z</time>
      </trkpt>
      <trkpt lat="43.17634" lon="6.49111">
        <ele>340.3</ele>
        <time>2024-02-04T10:57:15Z</time>
      </trkpt>
      <trkpt lat="43.17635" lon="6.49111">
        <ele>340.4</ele>
        <time>2024-02-04T10:57:16Z</time>
      </trkpt>
      <trkpt lat="43.17635" lon="6.49111">
        <ele>340.4</ele>
        <time>2024-02-04T10:57:17Z</time>
      </trkpt>
      <trkpt lat="43.17635" lon="6.49111">
        <ele>340.4</ele>
        <time>2024-02-04T10:57:18Z</time>
      </trkpt>
      <trkpt lat="43.17635" lon="6.49111">
        <ele>340.4</ele>
        <time>2024-02-04T10:57:19Z</time>
      </trkpt>
      <trkpt lat="43.17635" lon="6.49111">
        <ele>340.3</ele>
        <time>2024-02-04T10:57:20Z</time>
      </trkpt>
      <trkpt lat="43.17635" lon="6.49111">
        <ele>340.3</ele>
        <time>2024-02-04T10:57:21Z</time>
      </trkpt>
      <trkpt lat="43.17635" lon="6.49111">
        <ele>340.4</ele>
        <time>2024-02-04T10:57:22Z</time>
      </trkpt>
      <trkpt lat="43.17635" lon="6.49111">
        <ele>340.4</ele>
        <time>2024-02-04T10:57:23Z</time>
      </trkpt>
      <trkpt lat="43.17635" lon="6.49111">
        <ele>340.4</ele>
        <time>2024-02-04T10:57:24Z</time>
      </trkpt>
      <trkpt lat="43.17635" lon="6.49111">
        <ele>340.4</ele>
        <time>2024-02-04T10:57:25Z</time>
      </trkpt>
      <trkpt lat="43.17635" lon="6.4911">
        <ele>340.4</ele>
        <time>2024-02-04T10:57:26Z</time>
      </trkpt>
      <trkpt lat="43.17635" lon="6.4911">
        <ele>340.5</ele>
        <time>2024-02-04T10:57:27Z</time>
      </trkpt>
      <trkpt lat="43.17635" lon="6.49111">
        <ele>340.5</ele>
        <time>2024-02-04T10:57:28Z</time>
      </trkpt>
      <trkpt lat="43.17635" lon="6.49111">
        <ele>340.6</ele>
        <time>2024-02-04T10:57:29Z</time>
      </trkpt>
      <trkpt lat="43.17636" lon="6.49111">
        <ele>340.7</ele>
        <time>2024-02-04T10:57:30Z</time>
      </trkpt>
      <trkpt lat="43.17636" lon="6.49111">
        <ele>340.8</ele>
        <time>2024-02-04T10:57:31Z</time>
      </trkpt>
      <trkpt lat="43.17636" lon="6.49112">
        <ele>340.7</ele>
        <time>2024-02-04T10:57:32Z</time>
      </trkpt>
      <trkpt lat="43.17636" lon="6.49112">
        <ele>340.6</ele>
        <time>2024-02-04T10:57:33Z</time>
      </trkpt>
      <trkpt lat="43.17636" lon="6.49112">
        <ele>340.6</ele>
        <time>2024-02-04T10:57:34Z</time>
      </trkpt>
      <trkpt lat="43.17635" lon="6.49112">
        <ele>340.6</ele>
        <time>2024-02-04T10:57:35Z</time>
      </trkpt>
      <trkpt lat="43.17635" lon="6.49112">
        <ele>340.5</ele>
        <time>2024-02-04T10:57:36Z</time>
      </trkpt>
      <trkpt lat="43.17635" lon="6.49113">
        <ele>340.6</ele>
        <time>2024-02-04T10:57:37Z</time>
      </trkpt>
      <trkpt lat="43.17636" lon="6.49113">
        <ele>340.6</ele>
        <time>2024-02-04T10:57:38Z</time>
      </trkpt>
      <trkpt lat="43.17636" lon="6.49114">
        <ele>340.6</ele>
        <time>2024-02-04T10:57:39Z</time>
      </trkpt>
      <trkpt lat="43.17636" lon="6.49115">
        <ele>340.6</ele>
        <time>2024-02-04T10:57:40Z</time>
      </trkpt>
      <trkpt lat="43.17637" lon="6.49117">
        <ele>340.7</ele>
        <time>2024-02-04T10:57:41Z</time>
      </trkpt>
      <trkpt lat="43.17636" lon="6.49118">
        <ele>340.8</ele>
        <time>2024-02-04T10:57:42Z</time>
      </trkpt>
      <trkpt lat="43.17637" lon="6.49119">
        <ele>340.9</ele>
        <time>2024-02-04T10:57:43Z</time>
      </trkpt>
      <trkpt lat="43.17637" lon="6.4912">
        <ele>340.9</ele>
        <time>2024-02-04T10:57:44Z</time>
      </trkpt>
      <trkpt lat="43.17637" lon="6.49122">
        <ele>341</ele>
        <time>2024-02-04T10:57:45Z</time>
      </trkpt>
      <trkpt lat="43.17638" lon="6.49123">
        <ele>341.1</ele>
        <time>2024-02-04T10:57:46Z</time>
      </trkpt>
      <trkpt lat="43.17638" lon="6.49124">
        <ele>341.1</ele>
        <time>2024-02-04T10:57:47Z</time>
      </trkpt>
      <trkpt lat="43.17638" lon="6.49125">
        <ele>341.3</ele>
        <time>2024-02-04T10:57:48Z</time>
      </trkpt>
      <trkpt lat="43.17639" lon="6.49126">
        <ele>341.4</ele>
        <time>2024-02-04T10:57:49Z</time>
      </trkpt>
      <trkpt lat="43.17639" lon="6.49127">
        <ele>341.5</ele>
        <time>2024-02-04T10:57:50Z</time>
      </trkpt>
      <trkpt lat="43.1764" lon="6.49128">
        <ele>341.5</ele>
        <time>2024-02-04T10:57:51Z</time>
      </trkpt>
      <trkpt lat="43.1764" lon="6.49129">
        <ele>341.6</ele>
        <time>2024-02-04T10:57:52Z</time>
      </trkpt>
      <trkpt lat="43.1764" lon="6.49131">
        <ele>341.6</ele>
        <time>2024-02-04T10:57:53Z</time>
      </trkpt>
      <trkpt lat="43.17641" lon="6.49131">
        <ele>341.7</ele>
        <time>2024-02-04T10:57:54Z</time>
      </trkpt>
      <trkpt lat="43.17642" lon="6.49132">
        <ele>341.9</ele>
        <time>2024-02-04T10:57:55Z</time>
      </trkpt>
      <trkpt lat="43.17642" lon="6.49133">
        <ele>342</ele>
        <time>2024-02-04T10:57:56Z</time>
      </trkpt>
      <trkpt lat="43.17642" lon="6.49133">
        <ele>342.1</ele>
        <time>2024-02-04T10:57:57Z</time>
      </trkpt>
      <trkpt lat="43.17642" lon="6.49134">
        <ele>342.2</ele>
        <time>2024-02-04T10:57:58Z</time>
      </trkpt>
      <trkpt lat="43.17642" lon="6.49135">
        <ele>342.3</ele>
        <time>2024-02-04T10:57:59Z</time>
      </trkpt>
      <trkpt lat="43.17643" lon="6.49136">
        <ele>342.6</ele>
        <time>2024-02-04T10:58:00Z</time>
      </trkpt>
      <trkpt lat="43.17643" lon="6.49137">
        <ele>342.8</ele>
        <time>2024-02-04T10:58:01Z</time>
      </trkpt>
      <trkpt lat="43.17643" lon="6.49138">
        <ele>342.9</ele>
        <time>2024-02-04T10:58:02Z</time>
      </trkpt>
      <trkpt lat="43.17644" lon="6.4914">
        <ele>343.1</ele>
        <time>2024-02-04T10:58:03Z</time>
      </trkpt>
      <trkpt lat="43.17644" lon="6.49141">
        <ele>343.2</ele>
        <time>2024-02-04T10:58:04Z</time>
      </trkpt>
      <trkpt lat="43.17645" lon="6.49142">
        <ele>343.3</ele>
        <time>2024-02-04T10:58:05Z</time>
      </trkpt>
      <trkpt lat="43.17645" lon="6.49142">
        <ele>343.4</ele>
        <time>2024-02-04T10:58:06Z</time>
      </trkpt>
      <trkpt lat="43.17646" lon="6.49143">
        <ele>343.5</ele>
        <time>2024-02-04T10:58:07Z</time>
      </trkpt>
      <trkpt lat="43.17647" lon="6.49144">
        <ele>343.6</ele>
        <time>2024-02-04T10:58:08Z</time>
      </trkpt>
      <trkpt lat="43.17648" lon="6.49145">
        <ele>343.7</ele>
        <time>2024-02-04T10:58:09Z</time>
      </trkpt>
      <trkpt lat="43.17647" lon="6.49146">
        <ele>343.9</ele>
        <time>2024-02-04T10:58:10Z</time>
      </trkpt>
      <trkpt lat="43.17648" lon="6.49147">
        <ele>344.1</ele>
        <time>2024-02-04T10:58:11Z</time>
      </trkpt>
      <trkpt lat="43.17648" lon="6.49148">
        <ele>344.2</ele>
        <time>2024-02-04T10:58:12Z</time>
      </trkpt>
      <trkpt lat="43.17648" lon="6.49149">
        <ele>344.3</ele>
        <time>2024-02-04T10:58:13Z</time>
      </trkpt>
      <trkpt lat="43.17649" lon="6.49149">
        <ele>344.4</ele>
        <time>2024-02-04T10:58:14Z</time>
      </trkpt>
      <trkpt lat="43.17649" lon="6.4915">
        <ele>344.5</ele>
        <time>2024-02-04T10:58:15Z</time>
      </trkpt>
      <trkpt lat="43.1765" lon="6.49151">
        <ele>344.6</ele>
        <time>2024-02-04T10:58:16Z</time>
      </trkpt>
      <trkpt lat="43.1765" lon="6.49152">
        <ele>344.8</ele>
        <time>2024-02-04T10:58:17Z</time>
      </trkpt>
      <trkpt lat="43.17651" lon="6.49153">
        <ele>344.9</ele>
        <time>2024-02-04T10:58:18Z</time>
      </trkpt>
      <trkpt lat="43.17651" lon="6.49154">
        <ele>345</ele>
        <time>2024-02-04T10:58:19Z</time>
      </trkpt>
      <trkpt lat="43.17651" lon="6.49155">
        <ele>345</ele>
        <time>2024-02-04T10:58:20Z</time>
      </trkpt>
      <trkpt lat="43.17652" lon="6.49155">
        <ele>345.2</ele>
        <time>2024-02-04T10:58:21Z</time>
      </trkpt>
      <trkpt lat="43.17652" lon="6.49156">
        <ele>345.3</ele>
        <time>2024-02-04T10:58:22Z</time>
      </trkpt>
      <trkpt lat="43.17653" lon="6.49157">
        <ele>345.4</ele>
        <time>2024-02-04T10:58:23Z</time>
      </trkpt>
      <trkpt lat="43.17653" lon="6.49158">
        <ele>345.5</ele>
        <time>2024-02-04T10:58:24Z</time>
      </trkpt>
      <trkpt lat="43.17653" lon="6.49158">
        <ele>345.8</ele>
        <time>2024-02-04T10:58:25Z</time>
      </trkpt>
      <trkpt lat="43.17654" lon="6.49159">
        <ele>346</ele>
        <time>2024-02-04T10:58:26Z</time>
      </trkpt>
      <trkpt lat="43.17654" lon="6.4916">
        <ele>346.2</ele>
        <time>2024-02-04T10:58:27Z</time>
      </trkpt>
      <trkpt lat="43.17655" lon="6.49161">
        <ele>346.3</ele>
        <time>2024-02-04T10:58:28Z</time>
      </trkpt>
      <trkpt lat="43.17655" lon="6.49161">
        <ele>346.4</ele>
        <time>2024-02-04T10:58:29Z</time>
      </trkpt>
      <trkpt lat="43.17655" lon="6.49162">
        <ele>346.6</ele>
        <time>2024-02-04T10:58:30Z</time>
      </trkpt>
      <trkpt lat="43.17656" lon="6.49163">
        <ele>346.7</ele>
        <time>2024-02-04T10:58:31Z</time>
      </trkpt>
      <trkpt lat="43.17656" lon="6.49164">
        <ele>346.8</ele>
        <time>2024-02-04T10:58:32Z</time>
      </trkpt>
      <trkpt lat="43.17657" lon="6.49164">
        <ele>347</ele>
        <time>2024-02-04T10:58:33Z</time>
      </trkpt>
      <trkpt lat="43.17657" lon="6.49165">
        <ele>347.2</ele>
        <time>2024-02-04T10:58:34Z</time>
      </trkpt>
      <trkpt lat="43.17657" lon="6.49166">
        <ele>347.2</ele>
        <time>2024-02-04T10:58:35Z</time>
      </trkpt>
      <trkpt lat="43.17658" lon="6.49167">
        <ele>347.3</ele>
        <time>2024-02-04T10:58:36Z</time>
      </trkpt>
      <trkpt lat="43.17658" lon="6.49167">
        <ele>347.4</ele>
        <time>2024-02-04T10:58:37Z</time>
      </trkpt>
      <trkpt lat="43.17658" lon="6.49168">
        <ele>347.5</ele>
        <time>2024-02-04T10:58:38Z</time>
      </trkpt>
      <trkpt lat="43.17658" lon="6.49168">
        <ele>347.5</ele>
        <time>2024-02-04T10:58:39Z</time>
      </trkpt>
      <trkpt lat="43.17658" lon="6.49169">
        <ele>347.7</ele>
        <time>2024-02-04T10:58:40Z</time>
      </trkpt>
      <trkpt lat="43.17658" lon="6.49169">
        <ele>347.8</ele>
        <time>2024-02-04T10:58:41Z</time>
      </trkpt>
      <trkpt lat="43.17658" lon="6.4917">
        <ele>347.8</ele>
        <time>2024-02-04T10:58:42Z</time>
      </trkpt>
      <trkpt lat="43.17658" lon="6.49171">
        <ele>347.9</ele>
        <time>2024-02-04T10:58:43Z</time>
      </trkpt>
      <trkpt lat="43.17659" lon="6.49171">
        <ele>348.1</ele>
        <time>2024-02-04T10:58:44Z</time>
      </trkpt>
      <trkpt lat="43.17658" lon="6.49172">
        <ele>348.2</ele>
        <time>2024-02-04T10:58:45Z</time>
      </trkpt>
      <trkpt lat="43.17658" lon="6.49174">
        <ele>348.3</ele>
        <time>2024-02-04T10:58:46Z</time>
      </trkpt>
      <trkpt lat="43.17658" lon="6.49174">
        <ele>348.4</ele>
        <time>2024-02-04T10:58:47Z</time>
      </trkpt>
      <trkpt lat="43.17659" lon="6.49176">
        <ele>348.5</ele>
        <time>2024-02-04T10:58:48Z</time>
      </trkpt>
      <trkpt lat="43.17659" lon="6.49177">
        <ele>348.7</ele>
        <time>2024-02-04T10:58:49Z</time>
      </trkpt>
      <trkpt lat="43.17659" lon="6.49178">
        <ele>348.8</ele>
        <time>2024-02-04T10:58:50Z</time>
      </trkpt>
      <trkpt lat="43.17659" lon="6.49179">
        <ele>349.1</ele>
        <time>2024-02-04T10:58:51Z</time>
      </trkpt>
      <trkpt lat="43.17659" lon="6.4918">
        <ele>349.1</ele>
        <time>2024-02-04T10:58:52Z</time>
      </trkpt>
      <trkpt lat="43.1766" lon="6.49181">
        <ele>349.2</ele>
        <time>2024-02-04T10:58:53Z</time>
      </trkpt>
      <trkpt lat="43.1766" lon="6.49183">
        <ele>349.3</ele>
        <time>2024-02-04T10:58:54Z</time>
      </trkpt>
      <trkpt lat="43.1766" lon="6.49183">
        <ele>349.4</ele>
        <time>2024-02-04T10:58:55Z</time>
      </trkpt>
      <trkpt lat="43.17661" lon="6.49184">
        <ele>349.5</ele>
        <time>2024-02-04T10:58:56Z</time>
      </trkpt>
      <trkpt lat="43.17661" lon="6.49185">
        <ele>349.6</ele>
        <time>2024-02-04T10:58:57Z</time>
      </trkpt>
      <trkpt lat="43.17661" lon="6.49186">
        <ele>349.7</ele>
        <time>2024-02-04T10:58:58Z</time>
      </trkpt>
      <trkpt lat="43.17661" lon="6.49187">
        <ele>349.9</ele>
        <time>2024-02-04T10:58:59Z</time>
      </trkpt>
      <trkpt lat="43.17661" lon="6.49188">
        <ele>350</ele>
        <time>2024-02-04T10:59:00Z</time>
      </trkpt>
      <trkpt lat="43.17662" lon="6.49189">
        <ele>350.1</ele>
        <time>2024-02-04T10:59:01Z</time>
      </trkpt>
      <trkpt lat="43.17662" lon="6.4919">
        <ele>350.3</ele>
        <time>2024-02-04T10:59:02Z</time>
      </trkpt>
      <trkpt lat="43.17662" lon="6.49191">
        <ele>350.3</ele>
        <time>2024-02-04T10:59:03Z</time>
      </trkpt>
      <trkpt lat="43.17661" lon="6.49192">
        <ele>350.4</ele>
        <time>2024-02-04T10:59:04Z</time>
      </trkpt>
      <trkpt lat="43.17661" lon="6.49193">
        <ele>350.5</ele>
        <time>2024-02-04T10:59:05Z</time>
      </trkpt>
      <trkpt lat="43.17661" lon="6.49194">
        <ele>350.6</ele>
        <time>2024-02-04T10:59:06Z</time>
      </trkpt>
      <trkpt lat="43.17661" lon="6.49195">
        <ele>350.8</ele>
        <time>2024-02-04T10:59:07Z</time>
      </trkpt>
      <trkpt lat="43.17661" lon="6.49195">
        <ele>350.9</ele>
        <time>2024-02-04T10:59:08Z</time>
      </trkpt>
      <trkpt lat="43.17661" lon="6.49196">
        <ele>351</ele>
        <time>2024-02-04T10:59:09Z</time>
      </trkpt>
      <trkpt lat="43.17661" lon="6.49197">
        <ele>351</ele>
        <time>2024-02-04T10:59:10Z</time>
      </trkpt>
      <trkpt lat="43.1766" lon="6.49198">
        <ele>351.2</ele>
        <time>2024-02-04T10:59:11Z</time>
      </trkpt>
      <trkpt lat="43.1766" lon="6.49199">
        <ele>351.3</ele>
        <time>2024-02-04T10:59:12Z</time>
      </trkpt>
      <trkpt lat="43.17659" lon="6.49199">
        <ele>351.5</ele>
        <time>2024-02-04T10:59:13Z</time>
      </trkpt>
      <trkpt lat="43.17659" lon="6.492">
        <ele>351.6</ele>
        <time>2024-02-04T10:59:14Z</time>
      </trkpt>
      <trkpt lat="43.17659" lon="6.49201">
        <ele>351.7</ele>
        <time>2024-02-04T10:59:15Z</time>
      </trkpt>
      <trkpt lat="43.17659" lon="6.49202">
        <ele>351.9</ele>
        <time>2024-02-04T10:59:16Z</time>
      </trkpt>
      <trkpt lat="43.17659" lon="6.49203">
        <ele>352</ele>
        <time>2024-02-04T10:59:17Z</time>
      </trkpt>
      <trkpt lat="43.17659" lon="6.49204">
        <ele>352.1</ele>
        <time>2024-02-04T10:59:18Z</time>
      </trkpt>
      <trkpt lat="43.1766" lon="6.49204">
        <ele>352.1</ele>
        <time>2024-02-04T10:59:19Z</time>
      </trkpt>
      <trkpt lat="43.1766" lon="6.49205">
        <ele>352.2</ele>
        <time>2024-02-04T10:59:20Z</time>
      </trkpt>
      <trkpt lat="43.1766" lon="6.49206">
        <ele>352.3</ele>
        <time>2024-02-04T10:59:21Z</time>
      </trkpt>
      <trkpt lat="43.1766" lon="6.49207">
        <ele>352.3</ele>
        <time>2024-02-04T10:59:22Z</time>
      </trkpt>
      <trkpt lat="43.1766" lon="6.49208">
        <ele>352.4</ele>
        <time>2024-02-04T10:59:23Z</time>
      </trkpt>
      <trkpt lat="43.1766" lon="6.49209">
        <ele>352.5</ele>
        <time>2024-02-04T10:59:24Z</time>
      </trkpt>
      <trkpt lat="43.17659" lon="6.4921">
        <ele>352.7</ele>
        <time>2024-02-04T10:59:25Z</time>
      </trkpt>
      <trkpt lat="43.17659" lon="6.49211">
        <ele>352.8</ele>
        <time>2024-02-04T10:59:26Z</time>
      </trkpt>
      <trkpt lat="43.17659" lon="6.49212">
        <ele>352.8</ele>
        <time>2024-02-04T10:59:27Z</time>
      </trkpt>
      <trkpt lat="43.17659" lon="6.49213">
        <ele>352.9</ele>
        <time>2024-02-04T10:59:28Z</time>
      </trkpt>
      <trkpt lat="43.1766" lon="6.49214">
        <ele>353.1</ele>
        <time>2024-02-04T10:59:29Z</time>
      </trkpt>
      <trkpt lat="43.1766" lon="6.49214">
        <ele>353.1</ele>
        <time>2024-02-04T10:59:30Z</time>
      </trkpt>
      <trkpt lat="43.1766" lon="6.49214">
        <ele>353.2</ele>
        <time>2024-02-04T10:59:31Z</time>
      </trkpt>
      <trkpt lat="43.1766" lon="6.49215">
        <ele>353.3</ele>
        <time>2024-02-04T10:59:32Z</time>
      </trkpt>
      <trkpt lat="43.1766" lon="6.49215">
        <ele>353.4</ele>
        <time>2024-02-04T10:59:33Z</time>
      </trkpt>
      <trkpt lat="43.1766" lon="6.49216">
        <ele>353.5</ele>
        <time>2024-02-04T10:59:34Z</time>
      </trkpt>
      <trkpt lat="43.17659" lon="6.49217">
        <ele>353.6</ele>
        <time>2024-02-04T10:59:35Z</time>
      </trkpt>
      <trkpt lat="43.17659" lon="6.49218">
        <ele>353.8</ele>
        <time>2024-02-04T10:59:36Z</time>
      </trkpt>
      <trkpt lat="43.17659" lon="6.49219">
        <ele>353.8</ele>
        <time>2024-02-04T10:59:37Z</time>
      </trkpt>
      <trkpt lat="43.17659" lon="6.4922">
        <ele>353.9</ele>
        <time>2024-02-04T10:59:38Z</time>
      </trkpt>
      <trkpt lat="43.17659" lon="6.49221">
        <ele>354.1</ele>
        <time>2024-02-04T10:59:39Z</time>
      </trkpt>
      <trkpt lat="43.17659" lon="6.49223">
        <ele>354.3</ele>
        <time>2024-02-04T10:59:40Z</time>
      </trkpt>
      <trkpt lat="43.17659" lon="6.49224">
        <ele>354.5</ele>
        <time>2024-02-04T10:59:41Z</time>
      </trkpt>
      <trkpt lat="43.17659" lon="6.49225">
        <ele>354.7</ele>
        <time>2024-02-04T10:59:42Z</time>
      </trkpt>
      <trkpt lat="43.17659" lon="6.49226">
        <ele>354.9</ele>
        <time>2024-02-04T10:59:43Z</time>
      </trkpt>
      <trkpt lat="43.17659" lon="6.49227">
        <ele>355</ele>
        <time>2024-02-04T10:59:44Z</time>
      </trkpt>
      <trkpt lat="43.17659" lon="6.49228">
        <ele>355.1</ele>
        <time>2024-02-04T10:59:45Z</time>
      </trkpt>
      <trkpt lat="43.17659" lon="6.49229">
        <ele>355.3</ele>
        <time>2024-02-04T10:59:46Z</time>
      </trkpt>
      <trkpt lat="43.17658" lon="6.4923">
        <ele>355.4</ele>
        <time>2024-02-04T10:59:47Z</time>
      </trkpt>
      <trkpt lat="43.17658" lon="6.49231">
        <ele>355.5</ele>
        <time>2024-02-04T10:59:48Z</time>
      </trkpt>
      <trkpt lat="43.17658" lon="6.49233">
        <ele>355.7</ele>
        <time>2024-02-04T10:59:49Z</time>
      </trkpt>
      <trkpt lat="43.17658" lon="6.49233">
        <ele>355.7</ele>
        <time>2024-02-04T10:59:50Z</time>
      </trkpt>
      <trkpt lat="43.17658" lon="6.49234">
        <ele>355.7</ele>
        <time>2024-02-04T10:59:51Z</time>
      </trkpt>
      <trkpt lat="43.17658" lon="6.49235">
        <ele>355.7</ele>
        <time>2024-02-04T10:59:52Z</time>
      </trkpt>
      <trkpt lat="43.17658" lon="6.49236">
        <ele>355.7</ele>
        <time>2024-02-04T10:59:53Z</time>
      </trkpt>
      <trkpt lat="43.17658" lon="6.49237">
        <ele>355.8</ele>
        <time>2024-02-04T10:59:54Z</time>
      </trkpt>
      <trkpt lat="43.17659" lon="6.49238">
        <ele>355.8</ele>
        <time>2024-02-04T10:59:55Z</time>
      </trkpt>
      <trkpt lat="43.17659" lon="6.49239">
        <ele>355.9</ele>
        <time>2024-02-04T10:59:56Z</time>
      </trkpt>
      <trkpt lat="43.17659" lon="6.49239">
        <ele>356</ele>
        <time>2024-02-04T10:59:57Z</time>
      </trkpt>
      <trkpt lat="43.17659" lon="6.49239">
        <ele>355.9</ele>
        <time>2024-02-04T10:59:58Z</time>
      </trkpt>
      <trkpt lat="43.17659" lon="6.49239">
        <ele>356</ele>
        <time>2024-02-04T10:59:59Z</time>
      </trkpt>
      <trkpt lat="43.17659" lon="6.49239">
        <ele>356</ele>
        <time>2024-02-04T11:00:00Z</time>
      </trkpt>
      <trkpt lat="43.17659" lon="6.49239">
        <ele>356.1</ele>
        <time>2024-02-04T11:00:01Z</time>
      </trkpt>
      <trkpt lat="43.1766" lon="6.4924">
        <ele>356.2</ele>
        <time>2024-02-04T11:00:02Z</time>
      </trkpt>
      <trkpt lat="43.1766" lon="6.4924">
        <ele>356.3</ele>
        <time>2024-02-04T11:00:03Z</time>
      </trkpt>
      <trkpt lat="43.1766" lon="6.4924">
        <ele>356.2</ele>
        <time>2024-02-04T11:00:04Z</time>
      </trkpt>
      <trkpt lat="43.1766" lon="6.4924">
        <ele>356.4</ele>
        <time>2024-02-04T11:00:05Z</time>
      </trkpt>
      <trkpt lat="43.1766" lon="6.4924">
        <ele>356.4</ele>
        <time>2024-02-04T11:00:06Z</time>
      </trkpt>
      <trkpt lat="43.1766" lon="6.4924">
        <ele>356.5</ele>
        <time>2024-02-04T11:00:07Z</time>
      </trkpt>
      <trkpt lat="43.1766" lon="6.4924">
        <ele>356.6</ele>
        <time>2024-02-04T11:00:08Z</time>
      </trkpt>
      <trkpt lat="43.1766" lon="6.4924">
        <ele>356.7</ele>
        <time>2024-02-04T11:00:09Z</time>
      </trkpt>
      <trkpt lat="43.1766" lon="6.49241">
        <ele>356.7</ele>
        <time>2024-02-04T11:00:10Z</time>
      </trkpt>
      <trkpt lat="43.1766" lon="6.49242">
        <ele>356.7</ele>
        <time>2024-02-04T11:00:11Z</time>
      </trkpt>
      <trkpt lat="43.1766" lon="6.49243">
        <ele>356.7</ele>
        <time>2024-02-04T11:00:12Z</time>
      </trkpt>
      <trkpt lat="43.1766" lon="6.49244">
        <ele>356.7</ele>
        <time>2024-02-04T11:00:13Z</time>
      </trkpt>
      <trkpt lat="43.1766" lon="6.49245">
        <ele>356.8</ele>
        <time>2024-02-04T11:00:14Z</time>
      </trkpt>
      <trkpt lat="43.17661" lon="6.49247">
        <ele>356.8</ele>
        <time>2024-02-04T11:00:15Z</time>
      </trkpt>
      <trkpt lat="43.17661" lon="6.49248">
        <ele>356.9</ele>
        <time>2024-02-04T11:00:16Z</time>
      </trkpt>
      <trkpt lat="43.17661" lon="6.49249">
        <ele>356.8</ele>
        <time>2024-02-04T11:00:17Z</time>
      </trkpt>
      <trkpt lat="43.17661" lon="6.4925">
        <ele>356.8</ele>
        <time>2024-02-04T11:00:18Z</time>
      </trkpt>
      <trkpt lat="43.17661" lon="6.49251">
        <ele>356.8</ele>
        <time>2024-02-04T11:00:19Z</time>
      </trkpt>
      <trkpt lat="43.17661" lon="6.49252">
        <ele>356.9</ele>
        <time>2024-02-04T11:00:20Z</time>
      </trkpt>
      <trkpt lat="43.17661" lon="6.49254">
        <ele>357</ele>
        <time>2024-02-04T11:00:21Z</time>
      </trkpt>
      <trkpt lat="43.17662" lon="6.49255">
        <ele>357.1</ele>
        <time>2024-02-04T11:00:22Z</time>
      </trkpt>
      <trkpt lat="43.17662" lon="6.49256">
        <ele>357.2</ele>
        <time>2024-02-04T11:00:23Z</time>
      </trkpt>
      <trkpt lat="43.17663" lon="6.49257">
        <ele>357.2</ele>
        <time>2024-02-04T11:00:24Z</time>
      </trkpt>
      <trkpt lat="43.17663" lon="6.49259">
        <ele>357.3</ele>
        <time>2024-02-04T11:00:25Z</time>
      </trkpt>
      <trkpt lat="43.17664" lon="6.4926">
        <ele>357.4</ele>
        <time>2024-02-04T11:00:26Z</time>
      </trkpt>
      <trkpt lat="43.17664" lon="6.49261">
        <ele>357.5</ele>
        <time>2024-02-04T11:00:27Z</time>
      </trkpt>
      <trkpt lat="43.17665" lon="6.49262">
        <ele>357.8</ele>
        <time>2024-02-04T11:00:28Z</time>
      </trkpt>
      <trkpt lat="43.17665" lon="6.49263">
        <ele>358</ele>
        <time>2024-02-04T11:00:29Z</time>
      </trkpt>
      <trkpt lat="43.17666" lon="6.49264">
        <ele>358.1</ele>
        <time>2024-02-04T11:00:30Z</time>
      </trkpt>
      <trkpt lat="43.17666" lon="6.49265">
        <ele>358.1</ele>
        <time>2024-02-04T11:00:31Z</time>
      </trkpt>
      <trkpt lat="43.17667" lon="6.49266">
        <ele>358.2</ele>
        <time>2024-02-04T11:00:32Z</time>
      </trkpt>
      <trkpt lat="43.17667" lon="6.49267">
        <ele>358.2</ele>
        <time>2024-02-04T11:00:33Z</time>
      </trkpt>
      <trkpt lat="43.17668" lon="6.49268">
        <ele>358.3</ele>
        <time>2024-02-04T11:00:34Z</time>
      </trkpt>
      <trkpt lat="43.17668" lon="6.49268">
        <ele>358.4</ele>
        <time>2024-02-04T11:00:35Z</time>
      </trkpt>
      <trkpt lat="43.17668" lon="6.49268">
        <ele>358.5</ele>
        <time>2024-02-04T11:00:36Z</time>
      </trkpt>
      <trkpt lat="43.17668" lon="6.49268">
        <ele>358.6</ele>
        <time>2024-02-04T11:00:37Z</time>
      </trkpt>
      <trkpt lat="43.17668" lon="6.49268">
        <ele>358.6</ele>
        <time>2024-02-04T11:00:38Z</time>
      </trkpt>
      <trkpt lat="43.17668" lon="6.49269">
        <ele>358.6</ele>
        <time>2024-02-04T11:00:39Z</time>
      </trkpt>
      <trkpt lat="43.17669" lon="6.49269">
        <ele>358.7</ele>
        <time>2024-02-04T11:00:40Z</time>
      </trkpt>
      <trkpt lat="43.17669" lon="6.4927">
        <ele>358.7</ele>
        <time>2024-02-04T11:00:41Z</time>
      </trkpt>
      <trkpt lat="43.1767" lon="6.4927">
        <ele>358.8</ele>
        <time>2024-02-04T11:00:42Z</time>
      </trkpt>
      <trkpt lat="43.17671" lon="6.49271">
        <ele>358.9</ele>
        <time>2024-02-04T11:00:43Z</time>
      </trkpt>
      <trkpt lat="43.17671" lon="6.49272">
        <ele>359</ele>
        <time>2024-02-04T11:00:44Z</time>
      </trkpt>
      <trkpt lat="43.17672" lon="6.49272">
        <ele>359</ele>
        <time>2024-02-04T11:00:45Z</time>
      </trkpt>
      <trkpt lat="43.17673" lon="6.49274">
        <ele>359</ele>
        <time>2024-02-04T11:00:46Z</time>
      </trkpt>
      <trkpt lat="43.17674" lon="6.49274">
        <ele>359.1</ele>
        <time>2024-02-04T11:00:47Z</time>
      </trkpt>
      <trkpt lat="43.17675" lon="6.49275">
        <ele>359.1</ele>
        <time>2024-02-04T11:00:48Z</time>
      </trkpt>
      <trkpt lat="43.17675" lon="6.49275">
        <ele>359.2</ele>
        <time>2024-02-04T11:00:49Z</time>
      </trkpt>
      <trkpt lat="43.17675" lon="6.49275">
        <ele>359.2</ele>
        <time>2024-02-04T11:00:50Z</time>
      </trkpt>
      <trkpt lat="43.17675" lon="6.49275">
        <ele>359.2</ele>
        <time>2024-02-04T11:00:51Z</time>
      </trkpt>
      <trkpt lat="43.17676" lon="6.49275">
        <ele>359.3</ele>
        <time>2024-02-04T11:00:52Z</time>
      </trkpt>
      <trkpt lat="43.17676" lon="6.49276">
        <ele>359.4</ele>
        <time>2024-02-04T11:00:53Z</time>
      </trkpt>
      <trkpt lat="43.17677" lon="6.49276">
        <ele>359.6</ele>
        <time>2024-02-04T11:00:54Z</time>
      </trkpt>
      <trkpt lat="43.17678" lon="6.49276">
        <ele>359.6</ele>
        <time>2024-02-04T11:00:55Z</time>
      </trkpt>
      <trkpt lat="43.17679" lon="6.49277">
        <ele>359.6</ele>
        <time>2024-02-04T11:00:56Z</time>
      </trkpt>
      <trkpt lat="43.1768" lon="6.49277">
        <ele>359.7</ele>
        <time>2024-02-04T11:00:57Z</time>
      </trkpt>
      <trkpt lat="43.1768" lon="6.49277">
        <ele>359.7</ele>
        <time>2024-02-04T11:00:58Z</time>
      </trkpt>
      <trkpt lat="43.17682" lon="6.49278">
        <ele>359.7</ele>
        <time>2024-02-04T11:00:59Z</time>
      </trkpt>
      <trkpt lat="43.17682" lon="6.49278">
        <ele>359.8</ele>
        <time>2024-02-04T11:01:00Z</time>
      </trkpt>
      <trkpt lat="43.17683" lon="6.49279">
        <ele>359.8</ele>
        <time>2024-02-04T11:01:01Z</time>
      </trkpt>
      <trkpt lat="43.17684" lon="6.49279">
        <ele>359.9</ele>
        <time>2024-02-04T11:01:02Z</time>
      </trkpt>
      <trkpt lat="43.17685" lon="6.4928">
        <ele>360</ele>
        <time>2024-02-04T11:01:03Z</time>
      </trkpt>
      <trkpt lat="43.17686" lon="6.4928">
        <ele>360</ele>
        <time>2024-02-04T11:01:04Z</time>
      </trkpt>
      <trkpt lat="43.17687" lon="6.49281">
        <ele>359.8</ele>
        <time>2024-02-04T11:01:05Z</time>
      </trkpt>
      <trkpt lat="43.17688" lon="6.49282">
        <ele>359.8</ele>
        <time>2024-02-04T11:01:06Z</time>
      </trkpt>
      <trkpt lat="43.17688" lon="6.49282">
        <ele>359.9</ele>
        <time>2024-02-04T11:01:07Z</time>
      </trkpt>
      <trkpt lat="43.1769" lon="6.49282">
        <ele>360.1</ele>
        <time>2024-02-04T11:01:08Z</time>
      </trkpt>
      <trkpt lat="43.1769" lon="6.49282">
        <ele>360.2</ele>
        <time>2024-02-04T11:01:09Z</time>
      </trkpt>
      <trkpt lat="43.17691" lon="6.49282">
        <ele>360.4</ele>
        <time>2024-02-04T11:01:10Z</time>
      </trkpt>
      <trkpt lat="43.17692" lon="6.49282">
        <ele>360.5</ele>
        <time>2024-02-04T11:01:11Z</time>
      </trkpt>
      <trkpt lat="43.17693" lon="6.49283">
        <ele>360.6</ele>
        <time>2024-02-04T11:01:12Z</time>
      </trkpt>
      <trkpt lat="43.17693" lon="6.49284">
        <ele>360.7</ele>
        <time>2024-02-04T11:01:13Z</time>
      </trkpt>
      <trkpt lat="43.17694" lon="6.49285">
        <ele>360.8</ele>
        <time>2024-02-04T11:01:14Z</time>
      </trkpt>
      <trkpt lat="43.17695" lon="6.49285">
        <ele>361</ele>
        <time>2024-02-04T11:01:15Z</time>
      </trkpt>
      <trkpt lat="43.17696" lon="6.49286">
        <ele>361.2</ele>
        <time>2024-02-04T11:01:16Z</time>
      </trkpt>
      <trkpt lat="43.17697" lon="6.49286">
        <ele>361.4</ele>
        <time>2024-02-04T11:01:17Z</time>
      </trkpt>
      <trkpt lat="43.17697" lon="6.49286">
        <ele>361.6</ele>
        <time>2024-02-04T11:01:18Z</time>
      </trkpt>
      <trkpt lat="43.17698" lon="6.49287">
        <ele>361.8</ele>
        <time>2024-02-04T11:01:19Z</time>
      </trkpt>
      <trkpt lat="43.17699" lon="6.49288">
        <ele>362.1</ele>
        <time>2024-02-04T11:01:20Z</time>
      </trkpt>
      <trkpt lat="43.177" lon="6.49288">
        <ele>362.2</ele>
        <time>2024-02-04T11:01:21Z</time>
      </trkpt>
      <trkpt lat="43.17701" lon="6.49289">
        <ele>362.4</ele>
        <time>2024-02-04T11:01:22Z</time>
      </trkpt>
      <trkpt lat="43.17701" lon="6.49289">
        <ele>362.5</ele>
        <time>2024-02-04T11:01:23Z</time>
      </trkpt>
      <trkpt lat="43.17702" lon="6.49289">
        <ele>362.6</ele>
        <time>2024-02-04T11:01:24Z</time>
      </trkpt>
      <trkpt lat="43.17703" lon="6.4929">
        <ele>362.7</ele>
        <time>2024-02-04T11:01:25Z</time>
      </trkpt>
      <trkpt lat="43.17704" lon="6.4929">
        <ele>362.9</ele>
        <time>2024-02-04T11:01:26Z</time>
      </trkpt>
      <trkpt lat="43.17705" lon="6.4929">
        <ele>363</ele>
        <time>2024-02-04T11:01:27Z</time>
      </trkpt>
      <trkpt lat="43.17706" lon="6.49291">
        <ele>363.1</ele>
        <time>2024-02-04T11:01:28Z</time>
      </trkpt>
      <trkpt lat="43.17707" lon="6.49291">
        <ele>363.2</ele>
        <time>2024-02-04T11:01:29Z</time>
      </trkpt>
      <trkpt lat="43.17707" lon="6.49292">
        <ele>363.3</ele>
        <time>2024-02-04T11:01:30Z</time>
      </trkpt>
      <trkpt lat="43.17708" lon="6.49292">
        <ele>363.4</ele>
        <time>2024-02-04T11:01:31Z</time>
      </trkpt>
      <trkpt lat="43.17709" lon="6.49293">
        <ele>363.5</ele>
        <time>2024-02-04T11:01:32Z</time>
      </trkpt>
      <trkpt lat="43.1771" lon="6.49293">
        <ele>363.6</ele>
        <time>2024-02-04T11:01:33Z</time>
      </trkpt>
      <trkpt lat="43.17711" lon="6.49294">
        <ele>363.7</ele>
        <time>2024-02-04T11:01:34Z</time>
      </trkpt>
      <trkpt lat="43.17712" lon="6.49294">
        <ele>363.7</ele>
        <time>2024-02-04T11:01:35Z</time>
      </trkpt>
      <trkpt lat="43.17713" lon="6.49294">
        <ele>363.8</ele>
        <time>2024-02-04T11:01:36Z</time>
      </trkpt>
      <trkpt lat="43.17714" lon="6.49295">
        <ele>363.9</ele>
        <time>2024-02-04T11:01:37Z</time>
      </trkpt>
      <trkpt lat="43.17715" lon="6.49295">
        <ele>363.9</ele>
        <time>2024-02-04T11:01:38Z</time>
      </trkpt>
      <trkpt lat="43.17716" lon="6.49295">
        <ele>364</ele>
        <time>2024-02-04T11:01:39Z</time>
      </trkpt>
      <trkpt lat="43.17716" lon="6.49296">
        <ele>364.1</ele>
        <time>2024-02-04T11:01:40Z</time>
      </trkpt>
      <trkpt lat="43.17717" lon="6.49296">
        <ele>364.1</ele>
        <time>2024-02-04T11:01:41Z</time>
      </trkpt>
      <trkpt lat="43.17718" lon="6.49297">
        <ele>364.1</ele>
        <time>2024-02-04T11:01:42Z</time>
      </trkpt>
      <trkpt lat="43.17719" lon="6.49297">
        <ele>364.3</ele>
        <time>2024-02-04T11:01:43Z</time>
      </trkpt>
      <trkpt lat="43.17719" lon="6.49298">
        <ele>364.4</ele>
        <time>2024-02-04T11:01:44Z</time>
      </trkpt>
      <trkpt lat="43.1772" lon="6.49299">
        <ele>364.6</ele>
        <time>2024-02-04T11:01:45Z</time>
      </trkpt>
      <trkpt lat="43.17721" lon="6.49299">
        <ele>364.8</ele>
        <time>2024-02-04T11:01:46Z</time>
      </trkpt>
      <trkpt lat="43.17721" lon="6.493">
        <ele>364.9</ele>
        <time>2024-02-04T11:01:47Z</time>
      </trkpt>
      <trkpt lat="43.17722" lon="6.49301">
        <ele>365</ele>
        <time>2024-02-04T11:01:48Z</time>
      </trkpt>
      <trkpt lat="43.17723" lon="6.49302">
        <ele>365.1</ele>
        <time>2024-02-04T11:01:49Z</time>
      </trkpt>
      <trkpt lat="43.17723" lon="6.49302">
        <ele>365.1</ele>
        <time>2024-02-04T11:01:50Z</time>
      </trkpt>
      <trkpt lat="43.17724" lon="6.49303">
        <ele>365.3</ele>
        <time>2024-02-04T11:01:51Z</time>
      </trkpt>
      <trkpt lat="43.17724" lon="6.49303">
        <ele>365.4</ele>
        <time>2024-02-04T11:01:52Z</time>
      </trkpt>
      <trkpt lat="43.17724" lon="6.49303">
        <ele>365.5</ele>
        <time>2024-02-04T11:01:53Z</time>
      </trkpt>
      <trkpt lat="43.17725" lon="6.49304">
        <ele>365.6</ele>
        <time>2024-02-04T11:01:54Z</time>
      </trkpt>
      <trkpt lat="43.17725" lon="6.49304">
        <ele>365.7</ele>
        <time>2024-02-04T11:01:55Z</time>
      </trkpt>
      <trkpt lat="43.17726" lon="6.49305">
        <ele>365.8</ele>
        <time>2024-02-04T11:01:56Z</time>
      </trkpt>
      <trkpt lat="43.17726" lon="6.49306">
        <ele>365.9</ele>
        <time>2024-02-04T11:01:57Z</time>
      </trkpt>
      <trkpt lat="43.17727" lon="6.49307">
        <ele>366</ele>
        <time>2024-02-04T11:01:58Z</time>
      </trkpt>
      <trkpt lat="43.17727" lon="6.49307">
        <ele>366.2</ele>
        <time>2024-02-04T11:01:59Z</time>
      </trkpt>
      <trkpt lat="43.17727" lon="6.49308">
        <ele>366.3</ele>
        <time>2024-02-04T11:02:00Z</time>
      </trkpt>
      <trkpt lat="43.17728" lon="6.49309">
        <ele>366.4</ele>
        <time>2024-02-04T11:02:01Z</time>
      </trkpt>
      <trkpt lat="43.17728" lon="6.4931">
        <ele>366.5</ele>
        <time>2024-02-04T11:02:02Z</time>
      </trkpt>
      <trkpt lat="43.17728" lon="6.4931">
        <ele>366.5</ele>
        <time>2024-02-04T11:02:03Z</time>
      </trkpt>
      <trkpt lat="43.17728" lon="6.49311">
        <ele>366.6</ele>
        <time>2024-02-04T11:02:04Z</time>
      </trkpt>
      <trkpt lat="43.17729" lon="6.49312">
        <ele>366.7</ele>
        <time>2024-02-04T11:02:05Z</time>
      </trkpt>
      <trkpt lat="43.17729" lon="6.49313">
        <ele>366.7</ele>
        <time>2024-02-04T11:02:06Z</time>
      </trkpt>
      <trkpt lat="43.1773" lon="6.49313">
        <ele>366.8</ele>
        <time>2024-02-04T11:02:07Z</time>
      </trkpt>
      <trkpt lat="43.1773" lon="6.49314">
        <ele>366.8</ele>
        <time>2024-02-04T11:02:08Z</time>
      </trkpt>
      <trkpt lat="43.1773" lon="6.49316">
        <ele>366.9</ele>
        <time>2024-02-04T11:02:09Z</time>
      </trkpt>
      <trkpt lat="43.17731" lon="6.49316">
        <ele>366.9</ele>
        <time>2024-02-04T11:02:10Z</time>
      </trkpt>
      <trkpt lat="43.17731" lon="6.49317">
        <ele>367</ele>
        <time>2024-02-04T11:02:11Z</time>
      </trkpt>
      <trkpt lat="43.17731" lon="6.49318">
        <ele>367.2</ele>
        <time>2024-02-04T11:02:12Z</time>
      </trkpt>
      <trkpt lat="43.17731" lon="6.49318">
        <ele>367.3</ele>
        <time>2024-02-04T11:02:13Z</time>
      </trkpt>
      <trkpt lat="43.17732" lon="6.49319">
        <ele>367.4</ele>
        <time>2024-02-04T11:02:14Z</time>
      </trkpt>
      <trkpt lat="43.17732" lon="6.4932">
        <ele>367.6</ele>
        <time>2024-02-04T11:02:15Z</time>
      </trkpt>
      <trkpt lat="43.17733" lon="6.49321">
        <ele>367.7</ele>
        <time>2024-02-04T11:02:16Z</time>
      </trkpt>
      <trkpt lat="43.17733" lon="6.49322">
        <ele>367.8</ele>
        <time>2024-02-04T11:02:17Z</time>
      </trkpt>
      <trkpt lat="43.17733" lon="6.49322">
        <ele>367.9</ele>
        <time>2024-02-04T11:02:18Z</time>
      </trkpt>
      <trkpt lat="43.17734" lon="6.49323">
        <ele>368.1</ele>
        <time>2024-02-04T11:02:19Z</time>
      </trkpt>
      <trkpt lat="43.17734" lon="6.49324">
        <ele>368.2</ele>
        <time>2024-02-04T11:02:20Z</time>
      </trkpt>
      <trkpt lat="43.17734" lon="6.49325">
        <ele>368.4</ele>
        <time>2024-02-04T11:02:21Z</time>
      </trkpt>
      <trkpt lat="43.17735" lon="6.49325">
        <ele>368.5</ele>
        <time>2024-02-04T11:02:22Z</time>
      </trkpt>
      <trkpt lat="43.17735" lon="6.49326">
        <ele>368.6</ele>
        <time>2024-02-04T11:02:23Z</time>
      </trkpt>
      <trkpt lat="43.17735" lon="6.49327">
        <ele>368.8</ele>
        <time>2024-02-04T11:02:24Z</time>
      </trkpt>
      <trkpt lat="43.17735" lon="6.49328">
        <ele>369</ele>
        <time>2024-02-04T11:02:25Z</time>
      </trkpt>
      <trkpt lat="43.17736" lon="6.49329">
        <ele>369.1</ele>
        <time>2024-02-04T11:02:26Z</time>
      </trkpt>
      <trkpt lat="43.17736" lon="6.4933">
        <ele>369.3</ele>
        <time>2024-02-04T11:02:27Z</time>
      </trkpt>
      <trkpt lat="43.17737" lon="6.49331">
        <ele>369.4</ele>
        <time>2024-02-04T11:02:28Z</time>
      </trkpt>
      <trkpt lat="43.17737" lon="6.49332">
        <ele>369.5</ele>
        <time>2024-02-04T11:02:29Z</time>
      </trkpt>
      <trkpt lat="43.17738" lon="6.49333">
        <ele>369.6</ele>
        <time>2024-02-04T11:02:30Z</time>
      </trkpt>
      <trkpt lat="43.17738" lon="6.49334">
        <ele>369.8</ele>
        <time>2024-02-04T11:02:31Z</time>
      </trkpt>
      <trkpt lat="43.17738" lon="6.49335">
        <ele>369.9</ele>
        <time>2024-02-04T11:02:32Z</time>
      </trkpt>
      <trkpt lat="43.17739" lon="6.49336">
        <ele>370</ele>
        <time>2024-02-04T11:02:33Z</time>
      </trkpt>
      <trkpt lat="43.17739" lon="6.49337">
        <ele>370.1</ele>
        <time>2024-02-04T11:02:34Z</time>
      </trkpt>
      <trkpt lat="43.17739" lon="6.49338">
        <ele>370.3</ele>
        <time>2024-02-04T11:02:35Z</time>
      </trkpt>
      <trkpt lat="43.1774" lon="6.49339">
        <ele>370.4</ele>
        <time>2024-02-04T11:02:36Z</time>
      </trkpt>
      <trkpt lat="43.1774" lon="6.49339">
        <ele>370.4</ele>
        <time>2024-02-04T11:02:37Z</time>
      </trkpt>
      <trkpt lat="43.1774" lon="6.4934">
        <ele>370.7</ele>
        <time>2024-02-04T11:02:38Z</time>
      </trkpt>
      <trkpt lat="43.17741" lon="6.49341">
        <ele>370.9</ele>
        <time>2024-02-04T11:02:39Z</time>
      </trkpt>
      <trkpt lat="43.17741" lon="6.49342">
        <ele>371</ele>
        <time>2024-02-04T11:02:40Z</time>
      </trkpt>
      <trkpt lat="43.17742" lon="6.49343">
        <ele>371.1</ele>
        <time>2024-02-04T11:02:41Z</time>
      </trkpt>
      <trkpt lat="43.17742" lon="6.49343">
        <ele>371.2</ele>
        <time>2024-02-04T11:02:42Z</time>
      </trkpt>
      <trkpt lat="43.17742" lon="6.49344">
        <ele>371.2</ele>
        <time>2024-02-04T11:02:43Z</time>
      </trkpt>
      <trkpt lat="43.17743" lon="6.49344">
        <ele>371.3</ele>
        <time>2024-02-04T11:02:44Z</time>
      </trkpt>
      <trkpt lat="43.17743" lon="6.49346">
        <ele>371.4</ele>
        <time>2024-02-04T11:02:45Z</time>
      </trkpt>
      <trkpt lat="43.17744" lon="6.49347">
        <ele>371.4</ele>
        <time>2024-02-04T11:02:46Z</time>
      </trkpt>
      <trkpt lat="43.17744" lon="6.49348">
        <ele>371.5</ele>
        <time>2024-02-04T11:02:47Z</time>
      </trkpt>
      <trkpt lat="43.17744" lon="6.49349">
        <ele>371.5</ele>
        <time>2024-02-04T11:02:48Z</time>
      </trkpt>
      <trkpt lat="43.17744" lon="6.4935">
        <ele>371.7</ele>
        <time>2024-02-04T11:02:49Z</time>
      </trkpt>
      <trkpt lat="43.17745" lon="6.4935">
        <ele>371.8</ele>
        <time>2024-02-04T11:02:50Z</time>
      </trkpt>
      <trkpt lat="43.17745" lon="6.49351">
        <ele>371.9</ele>
        <time>2024-02-04T11:02:51Z</time>
      </trkpt>
      <trkpt lat="43.17745" lon="6.49351">
        <ele>372</ele>
        <time>2024-02-04T11:02:52Z</time>
      </trkpt>
      <trkpt lat="43.17745" lon="6.49351">
        <ele>372</ele>
        <time>2024-02-04T11:02:53Z</time>
      </trkpt>
      <trkpt lat="43.17746" lon="6.49352">
        <ele>372.1</ele>
        <time>2024-02-04T11:02:54Z</time>
      </trkpt>
      <trkpt lat="43.17746" lon="6.49352">
        <ele>372.1</ele>
        <time>2024-02-04T11:02:55Z</time>
      </trkpt>
      <trkpt lat="43.17746" lon="6.49354">
        <ele>372.2</ele>
        <time>2024-02-04T11:02:56Z</time>
      </trkpt>
      <trkpt lat="43.17746" lon="6.49354">
        <ele>372.3</ele>
        <time>2024-02-04T11:02:57Z</time>
      </trkpt>
      <trkpt lat="43.17747" lon="6.49356">
        <ele>372.3</ele>
        <time>2024-02-04T11:02:58Z</time>
      </trkpt>
      <trkpt lat="43.17747" lon="6.49357">
        <ele>372.4</ele>
        <time>2024-02-04T11:02:59Z</time>
      </trkpt>
      <trkpt lat="43.17748" lon="6.49357">
        <ele>372.4</ele>
        <time>2024-02-04T11:03:00Z</time>
      </trkpt>
      <trkpt lat="43.17748" lon="6.49358">
        <ele>372.6</ele>
        <time>2024-02-04T11:03:01Z</time>
      </trkpt>
      <trkpt lat="43.17749" lon="6.49359">
        <ele>372.7</ele>
        <time>2024-02-04T11:03:02Z</time>
      </trkpt>
      <trkpt lat="43.17749" lon="6.4936">
        <ele>372.7</ele>
        <time>2024-02-04T11:03:03Z</time>
      </trkpt>
      <trkpt lat="43.17749" lon="6.49362">
        <ele>372.8</ele>
        <time>2024-02-04T11:03:04Z</time>
      </trkpt>
      <trkpt lat="43.17749" lon="6.49362">
        <ele>372.9</ele>
        <time>2024-02-04T11:03:05Z</time>
      </trkpt>
      <trkpt lat="43.1775" lon="6.49363">
        <ele>372.9</ele>
        <time>2024-02-04T11:03:06Z</time>
      </trkpt>
      <trkpt lat="43.1775" lon="6.49365">
        <ele>373</ele>
        <time>2024-02-04T11:03:07Z</time>
      </trkpt>
      <trkpt lat="43.1775" lon="6.49366">
        <ele>373</ele>
        <time>2024-02-04T11:03:08Z</time>
      </trkpt>
      <trkpt lat="43.17751" lon="6.49367">
        <ele>373.2</ele>
        <time>2024-02-04T11:03:09Z</time>
      </trkpt>
      <trkpt lat="43.17752" lon="6.49368">
        <ele>373.2</ele>
        <time>2024-02-04T11:03:10Z</time>
      </trkpt>
      <trkpt lat="43.17752" lon="6.49369">
        <ele>373.3</ele>
        <time>2024-02-04T11:03:11Z</time>
      </trkpt>
      <trkpt lat="43.17752" lon="6.4937">
        <ele>373.4</ele>
        <time>2024-02-04T11:03:12Z</time>
      </trkpt>
      <trkpt lat="43.17753" lon="6.49371">
        <ele>373.4</ele>
        <time>2024-02-04T11:03:13Z</time>
      </trkpt>
      <trkpt lat="43.17753" lon="6.49372">
        <ele>373.5</ele>
        <time>2024-02-04T11:03:14Z</time>
      </trkpt>
      <trkpt lat="43.17753" lon="6.49373">
        <ele>373.6</ele>
        <time>2024-02-04T11:03:15Z</time>
      </trkpt>
      <trkpt lat="43.17753" lon="6.49374">
        <ele>373.7</ele>
        <time>2024-02-04T11:03:16Z</time>
      </trkpt>
      <trkpt lat="43.17753" lon="6.49375">
        <ele>373.7</ele>
        <time>2024-02-04T11:03:17Z</time>
      </trkpt>
      <trkpt lat="43.17754" lon="6.49376">
        <ele>373.8</ele>
        <time>2024-02-04T11:03:18Z</time>
      </trkpt>
      <trkpt lat="43.17754" lon="6.49377">
        <ele>373.9</ele>
        <time>2024-02-04T11:03:19Z</time>
      </trkpt>
      <trkpt lat="43.17755" lon="6.49379">
        <ele>374</ele>
        <time>2024-02-04T11:03:20Z</time>
      </trkpt>
      <trkpt lat="43.17755" lon="6.4938">
        <ele>374.1</ele>
        <time>2024-02-04T11:03:21Z</time>
      </trkpt>
      <trkpt lat="43.17756" lon="6.49381">
        <ele>374.2</ele>
        <time>2024-02-04T11:03:22Z</time>
      </trkpt>
      <trkpt lat="43.17756" lon="6.49382">
        <ele>374.2</ele>
        <time>2024-02-04T11:03:23Z</time>
      </trkpt>
      <trkpt lat="43.17756" lon="6.49383">
        <ele>374.3</ele>
        <time>2024-02-04T11:03:24Z</time>
      </trkpt>
      <trkpt lat="43.17757" lon="6.49384">
        <ele>374.5</ele>
        <time>2024-02-04T11:03:25Z</time>
      </trkpt>
      <trkpt lat="43.17757" lon="6.49385">
        <ele>374.7</ele>
        <time>2024-02-04T11:03:26Z</time>
      </trkpt>
      <trkpt lat="43.17758" lon="6.49387">
        <ele>374.8</ele>
        <time>2024-02-04T11:03:27Z</time>
      </trkpt>
      <trkpt lat="43.17758" lon="6.49388">
        <ele>374.9</ele>
        <time>2024-02-04T11:03:28Z</time>
      </trkpt>
      <trkpt lat="43.17759" lon="6.49389">
        <ele>375</ele>
        <time>2024-02-04T11:03:29Z</time>
      </trkpt>
      <trkpt lat="43.17759" lon="6.4939">
        <ele>375.1</ele>
        <time>2024-02-04T11:03:30Z</time>
      </trkpt>
      <trkpt lat="43.17759" lon="6.49391">
        <ele>375.2</ele>
        <time>2024-02-04T11:03:31Z</time>
      </trkpt>
      <trkpt lat="43.1776" lon="6.49392">
        <ele>375.3</ele>
        <time>2024-02-04T11:03:32Z</time>
      </trkpt>
      <trkpt lat="43.1776" lon="6.49393">
        <ele>375.5</ele>
        <time>2024-02-04T11:03:33Z</time>
      </trkpt>
      <trkpt lat="43.17761" lon="6.49394">
        <ele>375.6</ele>
        <time>2024-02-04T11:03:34Z</time>
      </trkpt>
      <trkpt lat="43.17761" lon="6.49395">
        <ele>375.7</ele>
        <time>2024-02-04T11:03:35Z</time>
      </trkpt>
      <trkpt lat="43.17761" lon="6.49395">
        <ele>375.9</ele>
        <time>2024-02-04T11:03:36Z</time>
      </trkpt>
      <trkpt lat="43.17762" lon="6.49395">
        <ele>376.1</ele>
        <time>2024-02-04T11:03:37Z</time>
      </trkpt>
      <trkpt lat="43.17762" lon="6.49395">
        <ele>376.2</ele>
        <time>2024-02-04T11:03:38Z</time>
      </trkpt>
      <trkpt lat="43.17762" lon="6.49396">
        <ele>376.2</ele>
        <time>2024-02-04T11:03:39Z</time>
      </trkpt>
      <trkpt lat="43.17762" lon="6.49396">
        <ele>376.3</ele>
        <time>2024-02-04T11:03:40Z</time>
      </trkpt>
      <trkpt lat="43.17762" lon="6.49396">
        <ele>376.3</ele>
        <time>2024-02-04T11:03:41Z</time>
      </trkpt>
      <trkpt lat="43.17762" lon="6.49396">
        <ele>376.4</ele>
        <time>2024-02-04T11:03:42Z</time>
      </trkpt>
      <trkpt lat="43.17762" lon="6.49396">
        <ele>376.6</ele>
        <time>2024-02-04T11:03:43Z</time>
      </trkpt>
      <trkpt lat="43.17762" lon="6.49396">
        <ele>376.6</ele>
        <time>2024-02-04T11:03:44Z</time>
      </trkpt>
      <trkpt lat="43.17761" lon="6.49396">
        <ele>376.7</ele>
        <time>2024-02-04T11:03:45Z</time>
      </trkpt>
      <trkpt lat="43.17761" lon="6.49396">
        <ele>376.7</ele>
        <time>2024-02-04T11:03:46Z</time>
      </trkpt>
      <trkpt lat="43.17761" lon="6.49396">
        <ele>376.7</ele>
        <time>2024-02-04T11:03:47Z</time>
      </trkpt>
      <trkpt lat="43.17761" lon="6.49396">
        <ele>376.7</ele>
        <time>2024-02-04T11:03:48Z</time>
      </trkpt>
      <trkpt lat="43.17761" lon="6.49396">
        <ele>376.6</ele>
        <time>2024-02-04T11:03:49Z</time>
      </trkpt>
      <trkpt lat="43.17761" lon="6.49396">
        <ele>376.7</ele>
        <time>2024-02-04T11:03:50Z</time>
      </trkpt>
      <trkpt lat="43.17762" lon="6.49396">
        <ele>376.7</ele>
        <time>2024-02-04T11:03:51Z</time>
      </trkpt>
      <trkpt lat="43.17762" lon="6.49396">
        <ele>376.6</ele>
        <time>2024-02-04T11:03:52Z</time>
      </trkpt>
      <trkpt lat="43.17762" lon="6.49396">
        <ele>376.5</ele>
        <time>2024-02-04T11:03:53Z</time>
      </trkpt>
      <trkpt lat="43.17761" lon="6.49396">
        <ele>376.5</ele>
        <time>2024-02-04T11:03:54Z</time>
      </trkpt>
      <trkpt lat="43.17761" lon="6.49396">
        <ele>376.6</ele>
        <time>2024-02-04T11:03:55Z</time>
      </trkpt>
      <trkpt lat="43.17761" lon="6.49396">
        <ele>376.7</ele>
        <time>2024-02-04T11:03:56Z</time>
      </trkpt>
      <trkpt lat="43.17761" lon="6.49396">
        <ele>376.7</ele>
        <time>2024-02-04T11:03:57Z</time>
      </trkpt>
      <trkpt lat="43.17761" lon="6.49396">
        <ele>376.6</ele>
        <time>2024-02-04T11:03:58Z</time>
      </trkpt>
      <trkpt lat="43.17762" lon="6.49396">
        <ele>376.5</ele>
        <time>2024-02-04T11:03:59Z</time>
      </trkpt>
      <trkpt lat="43.17762" lon="6.49396">
        <ele>376.5</ele>
        <time>2024-02-04T11:04:00Z</time>
      </trkpt>
      <trkpt lat="43.17762" lon="6.49396">
        <ele>376.6</ele>
        <time>2024-02-04T11:04:01Z</time>
      </trkpt>
      <trkpt lat="43.17762" lon="6.49396">
        <ele>376.6</ele>
        <time>2024-02-04T11:04:02Z</time>
      </trkpt>
      <trkpt lat="43.17762" lon="6.49397">
        <ele>376.6</ele>
        <time>2024-02-04T11:04:03Z</time>
      </trkpt>
      <trkpt lat="43.17762" lon="6.49397">
        <ele>376.6</ele>
        <time>2024-02-04T11:04:04Z</time>
      </trkpt>
      <trkpt lat="43.17762" lon="6.49397">
        <ele>376.7</ele>
        <time>2024-02-04T11:04:05Z</time>
      </trkpt>
      <trkpt lat="43.17763" lon="6.49397">
        <ele>376.7</ele>
        <time>2024-02-04T11:04:06Z</time>
      </trkpt>
      <trkpt lat="43.17763" lon="6.49398">
        <ele>376.8</ele>
        <time>2024-02-04T11:04:07Z</time>
      </trkpt>
      <trkpt lat="43.17763" lon="6.49399">
        <ele>376.8</ele>
        <time>2024-02-04T11:04:08Z</time>
      </trkpt>
      <trkpt lat="43.17764" lon="6.494">
        <ele>377</ele>
        <time>2024-02-04T11:04:09Z</time>
      </trkpt>
      <trkpt lat="43.17764" lon="6.49401">
        <ele>377.1</ele>
        <time>2024-02-04T11:04:10Z</time>
      </trkpt>
      <trkpt lat="43.17765" lon="6.49402">
        <ele>377.1</ele>
        <time>2024-02-04T11:04:11Z</time>
      </trkpt>
      <trkpt lat="43.17765" lon="6.49403">
        <ele>377.2</ele>
        <time>2024-02-04T11:04:12Z</time>
      </trkpt>
      <trkpt lat="43.17766" lon="6.49404">
        <ele>377.2</ele>
        <time>2024-02-04T11:04:13Z</time>
      </trkpt>
      <trkpt lat="43.17766" lon="6.49404">
        <ele>377.3</ele>
        <time>2024-02-04T11:04:14Z</time>
      </trkpt>
      <trkpt lat="43.17766" lon="6.49405">
        <ele>377.4</ele>
        <time>2024-02-04T11:04:15Z</time>
      </trkpt>
      <trkpt lat="43.17767" lon="6.49405">
        <ele>377.5</ele>
        <time>2024-02-04T11:04:16Z</time>
      </trkpt>
      <trkpt lat="43.17767" lon="6.49406">
        <ele>377.6</ele>
        <time>2024-02-04T11:04:17Z</time>
      </trkpt>
      <trkpt lat="43.17768" lon="6.49407">
        <ele>377.6</ele>
        <time>2024-02-04T11:04:18Z</time>
      </trkpt>
      <trkpt lat="43.17768" lon="6.49407">
        <ele>377.7</ele>
        <time>2024-02-04T11:04:19Z</time>
      </trkpt>
      <trkpt lat="43.17769" lon="6.49408">
        <ele>377.8</ele>
        <time>2024-02-04T11:04:20Z</time>
      </trkpt>
      <trkpt lat="43.17769" lon="6.49409">
        <ele>377.9</ele>
        <time>2024-02-04T11:04:21Z</time>
      </trkpt>
      <trkpt lat="43.1777" lon="6.4941">
        <ele>378</ele>
        <time>2024-02-04T11:04:22Z</time>
      </trkpt>
      <trkpt lat="43.17771" lon="6.4941">
        <ele>378.2</ele>
        <time>2024-02-04T11:04:23Z</time>
      </trkpt>
      <trkpt lat="43.17771" lon="6.49411">
        <ele>378.4</ele>
        <time>2024-02-04T11:04:24Z</time>
      </trkpt>
      <trkpt lat="43.17772" lon="6.49412">
        <ele>378.6</ele>
        <time>2024-02-04T11:04:25Z</time>
      </trkpt>
      <trkpt lat="43.17773" lon="6.49413">
        <ele>378.8</ele>
        <time>2024-02-04T11:04:26Z</time>
      </trkpt>
      <trkpt lat="43.17773" lon="6.49414">
        <ele>378.9</ele>
        <time>2024-02-04T11:04:27Z</time>
      </trkpt>
      <trkpt lat="43.17774" lon="6.49414">
        <ele>379</ele>
        <time>2024-02-04T11:04:28Z</time>
      </trkpt>
      <trkpt lat="43.17775" lon="6.49415">
        <ele>379.2</ele>
        <time>2024-02-04T11:04:29Z</time>
      </trkpt>
      <trkpt lat="43.17775" lon="6.49415">
        <ele>379.3</ele>
        <time>2024-02-04T11:04:30Z</time>
      </trkpt>
      <trkpt lat="43.17776" lon="6.49416">
        <ele>379.4</ele>
        <time>2024-02-04T11:04:31Z</time>
      </trkpt>
      <trkpt lat="43.17776" lon="6.49416">
        <ele>379.4</ele>
        <time>2024-02-04T11:04:32Z</time>
      </trkpt>
      <trkpt lat="43.17777" lon="6.49416">
        <ele>379.6</ele>
        <time>2024-02-04T11:04:33Z</time>
      </trkpt>
      <trkpt lat="43.17777" lon="6.49417">
        <ele>379.8</ele>
        <time>2024-02-04T11:04:34Z</time>
      </trkpt>
      <trkpt lat="43.17778" lon="6.49418">
        <ele>380.1</ele>
        <time>2024-02-04T11:04:35Z</time>
      </trkpt>
      <trkpt lat="43.17779" lon="6.49419">
        <ele>380.3</ele>
        <time>2024-02-04T11:04:36Z</time>
      </trkpt>
      <trkpt lat="43.1778" lon="6.4942">
        <ele>380.5</ele>
        <time>2024-02-04T11:04:37Z</time>
      </trkpt>
      <trkpt lat="43.1778" lon="6.4942">
        <ele>380.6</ele>
        <time>2024-02-04T11:04:38Z</time>
      </trkpt>
      <trkpt lat="43.17781" lon="6.49421">
        <ele>380.7</ele>
        <time>2024-02-04T11:04:39Z</time>
      </trkpt>
      <trkpt lat="43.17781" lon="6.49422">
        <ele>380.9</ele>
        <time>2024-02-04T11:04:40Z</time>
      </trkpt>
      <trkpt lat="43.17782" lon="6.49423">
        <ele>381</ele>
        <time>2024-02-04T11:04:41Z</time>
      </trkpt>
      <trkpt lat="43.17782" lon="6.49424">
        <ele>381.2</ele>
        <time>2024-02-04T11:04:42Z</time>
      </trkpt>
      <trkpt lat="43.17783" lon="6.49425">
        <ele>381.4</ele>
        <time>2024-02-04T11:04:43Z</time>
      </trkpt>
      <trkpt lat="43.17784" lon="6.49426">
        <ele>381.5</ele>
        <time>2024-02-04T11:04:44Z</time>
      </trkpt>
      <trkpt lat="43.17784" lon="6.49427">
        <ele>381.7</ele>
        <time>2024-02-04T11:04:45Z</time>
      </trkpt>
      <trkpt lat="43.17785" lon="6.49427">
        <ele>381.9</ele>
        <time>2024-02-04T11:04:46Z</time>
      </trkpt>
      <trkpt lat="43.17786" lon="6.49428">
        <ele>382.1</ele>
        <time>2024-02-04T11:04:47Z</time>
      </trkpt>
      <trkpt lat="43.17786" lon="6.49429">
        <ele>382.3</ele>
        <time>2024-02-04T11:04:48Z</time>
      </trkpt>
      <trkpt lat="43.17787" lon="6.49429">
        <ele>382.5</ele>
        <time>2024-02-04T11:04:49Z</time>
      </trkpt>
      <trkpt lat="43.17788" lon="6.4943">
        <ele>382.7</ele>
        <time>2024-02-04T11:04:50Z</time>
      </trkpt>
      <trkpt lat="43.17789" lon="6.49431">
        <ele>383</ele>
        <time>2024-02-04T11:04:51Z</time>
      </trkpt>
      <trkpt lat="43.17789" lon="6.49431">
        <ele>383.2</ele>
        <time>2024-02-04T11:04:52Z</time>
      </trkpt>
      <trkpt lat="43.1779" lon="6.49431">
        <ele>383.4</ele>
        <time>2024-02-04T11:04:53Z</time>
      </trkpt>
      <trkpt lat="43.17791" lon="6.49432">
        <ele>383.6</ele>
        <time>2024-02-04T11:04:54Z</time>
      </trkpt>
      <trkpt lat="43.17791" lon="6.49433">
        <ele>383.7</ele>
        <time>2024-02-04T11:04:55Z</time>
      </trkpt>
      <trkpt lat="43.17792" lon="6.49433">
        <ele>383.8</ele>
        <time>2024-02-04T11:04:56Z</time>
      </trkpt>
      <trkpt lat="43.17793" lon="6.49434">
        <ele>384</ele>
        <time>2024-02-04T11:04:57Z</time>
      </trkpt>
      <trkpt lat="43.17794" lon="6.49435">
        <ele>384.2</ele>
        <time>2024-02-04T11:04:58Z</time>
      </trkpt>
      <trkpt lat="43.17794" lon="6.49436">
        <ele>384.3</ele>
        <time>2024-02-04T11:04:59Z</time>
      </trkpt>
      <trkpt lat="43.17795" lon="6.49436">
        <ele>384.3</ele>
        <time>2024-02-04T11:05:00Z</time>
      </trkpt>
      <trkpt lat="43.17796" lon="6.49437">
        <ele>384.5</ele>
        <time>2024-02-04T11:05:01Z</time>
      </trkpt>
      <trkpt lat="43.17796" lon="6.49438">
        <ele>384.7</ele>
        <time>2024-02-04T11:05:02Z</time>
      </trkpt>
      <trkpt lat="43.17797" lon="6.49438">
        <ele>384.9</ele>
        <time>2024-02-04T11:05:03Z</time>
      </trkpt>
      <trkpt lat="43.17797" lon="6.49439">
        <ele>385</ele>
        <time>2024-02-04T11:05:04Z</time>
      </trkpt>
      <trkpt lat="43.17797" lon="6.4944">
        <ele>385.1</ele>
        <time>2024-02-04T11:05:05Z</time>
      </trkpt>
      <trkpt lat="43.17798" lon="6.49441">
        <ele>385.2</ele>
        <time>2024-02-04T11:05:06Z</time>
      </trkpt>
      <trkpt lat="43.17799" lon="6.49442">
        <ele>385.2</ele>
        <time>2024-02-04T11:05:07Z</time>
      </trkpt>
      <trkpt lat="43.17799" lon="6.49444">
        <ele>385.3</ele>
        <time>2024-02-04T11:05:08Z</time>
      </trkpt>
      <trkpt lat="43.17799" lon="6.49445">
        <ele>385.4</ele>
        <time>2024-02-04T11:05:09Z</time>
      </trkpt>
      <trkpt lat="43.178" lon="6.49446">
        <ele>385.6</ele>
        <time>2024-02-04T11:05:10Z</time>
      </trkpt>
      <trkpt lat="43.17801" lon="6.49447">
        <ele>385.7</ele>
        <time>2024-02-04T11:05:11Z</time>
      </trkpt>
      <trkpt lat="43.17801" lon="6.49448">
        <ele>385.8</ele>
        <time>2024-02-04T11:05:12Z</time>
      </trkpt>
      <trkpt lat="43.17801" lon="6.4945">
        <ele>385.8</ele>
        <time>2024-02-04T11:05:13Z</time>
      </trkpt>
      <trkpt lat="43.17802" lon="6.49451">
        <ele>385.9</ele>
        <time>2024-02-04T11:05:14Z</time>
      </trkpt>
      <trkpt lat="43.17802" lon="6.49453">
        <ele>386.1</ele>
        <time>2024-02-04T11:05:15Z</time>
      </trkpt>
      <trkpt lat="43.17803" lon="6.49454">
        <ele>386.3</ele>
        <time>2024-02-04T11:05:16Z</time>
      </trkpt>
      <trkpt lat="43.17803" lon="6.49455">
        <ele>386.5</ele>
        <time>2024-02-04T11:05:17Z</time>
      </trkpt>
      <trkpt lat="43.17803" lon="6.49457">
        <ele>386.6</ele>
        <time>2024-02-04T11:05:18Z</time>
      </trkpt>
      <trkpt lat="43.17804" lon="6.49458">
        <ele>386.7</ele>
        <time>2024-02-04T11:05:19Z</time>
      </trkpt>
      <trkpt lat="43.17804" lon="6.49459">
        <ele>386.8</ele>
        <time>2024-02-04T11:05:20Z</time>
      </trkpt>
      <trkpt lat="43.17804" lon="6.49461">
        <ele>386.8</ele>
        <time>2024-02-04T11:05:21Z</time>
      </trkpt>
      <trkpt lat="43.17804" lon="6.49463">
        <ele>386.8</ele>
        <time>2024-02-04T11:05:22Z</time>
      </trkpt>
      <trkpt lat="43.17804" lon="6.49464">
        <ele>386.9</ele>
        <time>2024-02-04T11:05:23Z</time>
      </trkpt>
      <trkpt lat="43.17804" lon="6.49466">
        <ele>387</ele>
        <time>2024-02-04T11:05:24Z</time>
      </trkpt>
      <trkpt lat="43.17805" lon="6.49467">
        <ele>387.2</ele>
        <time>2024-02-04T11:05:25Z</time>
      </trkpt>
      <trkpt lat="43.17805" lon="6.49468">
        <ele>387.3</ele>
        <time>2024-02-04T11:05:26Z</time>
      </trkpt>
      <trkpt lat="43.17805" lon="6.49469">
        <ele>387.4</ele>
        <time>2024-02-04T11:05:27Z</time>
      </trkpt>
      <trkpt lat="43.17805" lon="6.49471">
        <ele>387.5</ele>
        <time>2024-02-04T11:05:28Z</time>
      </trkpt>
      <trkpt lat="43.17805" lon="6.49473">
        <ele>387.5</ele>
        <time>2024-02-04T11:05:29Z</time>
      </trkpt>
      <trkpt lat="43.17806" lon="6.49474">
        <ele>387.7</ele>
        <time>2024-02-04T11:05:30Z</time>
      </trkpt>
      <trkpt lat="43.17806" lon="6.49475">
        <ele>387.8</ele>
        <time>2024-02-04T11:05:31Z</time>
      </trkpt>
      <trkpt lat="43.17806" lon="6.49477">
        <ele>387.9</ele>
        <time>2024-02-04T11:05:32Z</time>
      </trkpt>
      <trkpt lat="43.17806" lon="6.49478">
        <ele>388</ele>
        <time>2024-02-04T11:05:33Z</time>
      </trkpt>
      <trkpt lat="43.17807" lon="6.49479">
        <ele>388.2</ele>
        <time>2024-02-04T11:05:34Z</time>
      </trkpt>
      <trkpt lat="43.17807" lon="6.4948">
        <ele>388.3</ele>
        <time>2024-02-04T11:05:35Z</time>
      </trkpt>
      <trkpt lat="43.17807" lon="6.49482">
        <ele>388.3</ele>
        <time>2024-02-04T11:05:36Z</time>
      </trkpt>
      <trkpt lat="43.17808" lon="6.49483">
        <ele>388.5</ele>
        <time>2024-02-04T11:05:37Z</time>
      </trkpt>
      <trkpt lat="43.17808" lon="6.49485">
        <ele>388.5</ele>
        <time>2024-02-04T11:05:38Z</time>
      </trkpt>
      <trkpt lat="43.17808" lon="6.49486">
        <ele>388.6</ele>
        <time>2024-02-04T11:05:39Z</time>
      </trkpt>
      <trkpt lat="43.17808" lon="6.49488">
        <ele>388.6</ele>
        <time>2024-02-04T11:05:40Z</time>
      </trkpt>
      <trkpt lat="43.17808" lon="6.49489">
        <ele>388.7</ele>
        <time>2024-02-04T11:05:41Z</time>
      </trkpt>
      <trkpt lat="43.17808" lon="6.4949">
        <ele>388.8</ele>
        <time>2024-02-04T11:05:42Z</time>
      </trkpt>
      <trkpt lat="43.17808" lon="6.49492">
        <ele>388.9</ele>
        <time>2024-02-04T11:05:43Z</time>
      </trkpt>
      <trkpt lat="43.17808" lon="6.49493">
        <ele>389</ele>
        <time>2024-02-04T11:05:44Z</time>
      </trkpt>
      <trkpt lat="43.17808" lon="6.49493">
        <ele>389.1</ele>
        <time>2024-02-04T11:05:45Z</time>
      </trkpt>
      <trkpt lat="43.17809" lon="6.49493">
        <ele>389.2</ele>
        <time>2024-02-04T11:05:46Z</time>
      </trkpt>
      <trkpt lat="43.17809" lon="6.49493">
        <ele>389.3</ele>
        <time>2024-02-04T11:05:47Z</time>
      </trkpt>
      <trkpt lat="43.17809" lon="6.49494">
        <ele>389.3</ele>
        <time>2024-02-04T11:05:48Z</time>
      </trkpt>
      <trkpt lat="43.17809" lon="6.49494">
        <ele>389.4</ele>
        <time>2024-02-04T11:05:49Z</time>
      </trkpt>
      <trkpt lat="43.17809" lon="6.49494">
        <ele>389.4</ele>
        <time>2024-02-04T11:05:50Z</time>
      </trkpt>
      <trkpt lat="43.17809" lon="6.49494">
        <ele>389.4</ele>
        <time>2024-02-04T11:05:51Z</time>
      </trkpt>
      <trkpt lat="43.17809" lon="6.49494">
        <ele>389.4</ele>
        <time>2024-02-04T11:05:52Z</time>
      </trkpt>
      <trkpt lat="43.17809" lon="6.49495">
        <ele>389.4</ele>
        <time>2024-02-04T11:05:53Z</time>
      </trkpt>
      <trkpt lat="43.17809" lon="6.49495">
        <ele>389.4</ele>
        <time>2024-02-04T11:05:54Z</time>
      </trkpt>
      <trkpt lat="43.17809" lon="6.49496">
        <ele>389.4</ele>
        <time>2024-02-04T11:05:55Z</time>
      </trkpt>
      <trkpt lat="43.17809" lon="6.49497">
        <ele>389.5</ele>
        <time>2024-02-04T11:05:56Z</time>
      </trkpt>
      <trkpt lat="43.17809" lon="6.49498">
        <ele>389.5</ele>
        <time>2024-02-04T11:05:57Z</time>
      </trkpt>
      <trkpt lat="43.17809" lon="6.49499">
        <ele>389.5</ele>
        <time>2024-02-04T11:05:58Z</time>
      </trkpt>
      <trkpt lat="43.17809" lon="6.495">
        <ele>389.5</ele>
        <time>2024-02-04T11:05:59Z</time>
      </trkpt>
      <trkpt lat="43.17809" lon="6.495">
        <ele>389.7</ele>
        <time>2024-02-04T11:06:00Z</time>
      </trkpt>
      <trkpt lat="43.17809" lon="6.49501">
        <ele>389.8</ele>
        <time>2024-02-04T11:06:01Z</time>
      </trkpt>
      <trkpt lat="43.17809" lon="6.49502">
        <ele>389.8</ele>
        <time>2024-02-04T11:06:02Z</time>
      </trkpt>
      <trkpt lat="43.17809" lon="6.49502">
        <ele>389.8</ele>
        <time>2024-02-04T11:06:03Z</time>
      </trkpt>
      <trkpt lat="43.17809" lon="6.49502">
        <ele>389.8</ele>
        <time>2024-02-04T11:06:04Z</time>
      </trkpt>
      <trkpt lat="43.1781" lon="6.49503">
        <ele>389.9</ele>
        <time>2024-02-04T11:06:05Z</time>
      </trkpt>
      <trkpt lat="43.1781" lon="6.49504">
        <ele>390</ele>
        <time>2024-02-04T11:06:06Z</time>
      </trkpt>
      <trkpt lat="43.1781" lon="6.49505">
        <ele>390.1</ele>
        <time>2024-02-04T11:06:07Z</time>
      </trkpt>
      <trkpt lat="43.1781" lon="6.49505">
        <ele>390.2</ele>
        <time>2024-02-04T11:06:08Z</time>
      </trkpt>
      <trkpt lat="43.1781" lon="6.49506">
        <ele>390.2</ele>
        <time>2024-02-04T11:06:09Z</time>
      </trkpt>
      <trkpt lat="43.1781" lon="6.49506">
        <ele>390.2</ele>
        <time>2024-02-04T11:06:10Z</time>
      </trkpt>
      <trkpt lat="43.1781" lon="6.49507">
        <ele>390.3</ele>
        <time>2024-02-04T11:06:11Z</time>
      </trkpt>
      <trkpt lat="43.17811" lon="6.49508">
        <ele>390.4</ele>
        <time>2024-02-04T11:06:12Z</time>
      </trkpt>
      <trkpt lat="43.17811" lon="6.49508">
        <ele>390.5</ele>
        <time>2024-02-04T11:06:13Z</time>
      </trkpt>
      <trkpt lat="43.17811" lon="6.49508">
        <ele>390.5</ele>
        <time>2024-02-04T11:06:14Z</time>
      </trkpt>
      <trkpt lat="43.17811" lon="6.49508">
        <ele>390.6</ele>
        <time>2024-02-04T11:06:15Z</time>
      </trkpt>
      <trkpt lat="43.1781" lon="6.49508">
        <ele>390.6</ele>
        <time>2024-02-04T11:06:16Z</time>
      </trkpt>
      <trkpt lat="43.1781" lon="6.49507">
        <ele>390.5</ele>
        <time>2024-02-04T11:06:17Z</time>
      </trkpt>
      <trkpt lat="43.1781" lon="6.49507">
        <ele>390.4</ele>
        <time>2024-02-04T11:06:18Z</time>
      </trkpt>
      <trkpt lat="43.1781" lon="6.49506">
        <ele>390.5</ele>
        <time>2024-02-04T11:06:19Z</time>
      </trkpt>
      <trkpt lat="43.1781" lon="6.49506">
        <ele>390.5</ele>
        <time>2024-02-04T11:06:20Z</time>
      </trkpt>
      <trkpt lat="43.1781" lon="6.49506">
        <ele>390.4</ele>
        <time>2024-02-04T11:06:21Z</time>
      </trkpt>
      <trkpt lat="43.1781" lon="6.49506">
        <ele>390.4</ele>
        <time>2024-02-04T11:06:22Z</time>
      </trkpt>
      <trkpt lat="43.17809" lon="6.49506">
        <ele>390.4</ele>
        <time>2024-02-04T11:06:23Z</time>
      </trkpt>
      <trkpt lat="43.17809" lon="6.49506">
        <ele>390.3</ele>
        <time>2024-02-04T11:06:24Z</time>
      </trkpt>
      <trkpt lat="43.17809" lon="6.49506">
        <ele>390.2</ele>
        <time>2024-02-04T11:06:25Z</time>
      </trkpt>
      <trkpt lat="43.17809" lon="6.49506">
        <ele>390.2</ele>
        <time>2024-02-04T11:06:26Z</time>
      </trkpt>
      <trkpt lat="43.17809" lon="6.49506">
        <ele>390.1</ele>
        <time>2024-02-04T11:06:27Z</time>
      </trkpt>
      <trkpt lat="43.17809" lon="6.49506">
        <ele>390.1</ele>
        <time>2024-02-04T11:06:28Z</time>
      </trkpt>
      <trkpt lat="43.17809" lon="6.49506">
        <ele>390</ele>
        <time>2024-02-04T11:06:29Z</time>
      </trkpt>
      <trkpt lat="43.17809" lon="6.49506">
        <ele>390.1</ele>
        <time>2024-02-04T11:06:30Z</time>
      </trkpt>
      <trkpt lat="43.17809" lon="6.49507">
        <ele>390</ele>
        <time>2024-02-04T11:06:31Z</time>
      </trkpt>
      <trkpt lat="43.1781" lon="6.49507">
        <ele>389.9</ele>
        <time>2024-02-04T11:06:32Z</time>
      </trkpt>
      <trkpt lat="43.1781" lon="6.49508">
        <ele>389.9</ele>
        <time>2024-02-04T11:06:33Z</time>
      </trkpt>
      <trkpt lat="43.17811" lon="6.49509">
        <ele>389.8</ele>
        <time>2024-02-04T11:06:34Z</time>
      </trkpt>
      <trkpt lat="43.17811" lon="6.4951">
        <ele>389.9</ele>
        <time>2024-02-04T11:06:35Z</time>
      </trkpt>
      <trkpt lat="43.17812" lon="6.4951">
        <ele>389.9</ele>
        <time>2024-02-04T11:06:36Z</time>
      </trkpt>
      <trkpt lat="43.17812" lon="6.49511">
        <ele>389.9</ele>
        <time>2024-02-04T11:06:37Z</time>
      </trkpt>
      <trkpt lat="43.17812" lon="6.49513">
        <ele>390</ele>
        <time>2024-02-04T11:06:38Z</time>
      </trkpt>
      <trkpt lat="43.17813" lon="6.49514">
        <ele>390</ele>
        <time>2024-02-04T11:06:39Z</time>
      </trkpt>
      <trkpt lat="43.17814" lon="6.49515">
        <ele>390.1</ele>
        <time>2024-02-04T11:06:40Z</time>
      </trkpt>
      <trkpt lat="43.17814" lon="6.49516">
        <ele>390.1</ele>
        <time>2024-02-04T11:06:41Z</time>
      </trkpt>
      <trkpt lat="43.17814" lon="6.49517">
        <ele>390.3</ele>
        <time>2024-02-04T11:06:42Z</time>
      </trkpt>
      <trkpt lat="43.17815" lon="6.49517">
        <ele>390.4</ele>
        <time>2024-02-04T11:06:43Z</time>
      </trkpt>
      <trkpt lat="43.17815" lon="6.49518">
        <ele>390.5</ele>
        <time>2024-02-04T11:06:44Z</time>
      </trkpt>
      <trkpt lat="43.17816" lon="6.49519">
        <ele>390.7</ele>
        <time>2024-02-04T11:06:45Z</time>
      </trkpt>
      <trkpt lat="43.17816" lon="6.4952">
        <ele>390.8</ele>
        <time>2024-02-04T11:06:46Z</time>
      </trkpt>
      <trkpt lat="43.17817" lon="6.49521">
        <ele>391</ele>
        <time>2024-02-04T11:06:47Z</time>
      </trkpt>
      <trkpt lat="43.17817" lon="6.49522">
        <ele>391.1</ele>
        <time>2024-02-04T11:06:48Z</time>
      </trkpt>
      <trkpt lat="43.17817" lon="6.49522">
        <ele>391.2</ele>
        <time>2024-02-04T11:06:49Z</time>
      </trkpt>
      <trkpt lat="43.17818" lon="6.49523">
        <ele>391.4</ele>
        <time>2024-02-04T11:06:50Z</time>
      </trkpt>
      <trkpt lat="43.17819" lon="6.49524">
        <ele>391.6</ele>
        <time>2024-02-04T11:06:51Z</time>
      </trkpt>
      <trkpt lat="43.17819" lon="6.49525">
        <ele>391.7</ele>
        <time>2024-02-04T11:06:52Z</time>
      </trkpt>
      <trkpt lat="43.17819" lon="6.49525">
        <ele>391.8</ele>
        <time>2024-02-04T11:06:53Z</time>
      </trkpt>
      <trkpt lat="43.1782" lon="6.49525">
        <ele>392</ele>
        <time>2024-02-04T11:06:54Z</time>
      </trkpt>
      <trkpt lat="43.1782" lon="6.49525">
        <ele>392.1</ele>
        <time>2024-02-04T11:06:55Z</time>
      </trkpt>
      <trkpt lat="43.1782" lon="6.49525">
        <ele>392.2</ele>
        <time>2024-02-04T11:06:56Z</time>
      </trkpt>
      <trkpt lat="43.1782" lon="6.49525">
        <ele>392.2</ele>
        <time>2024-02-04T11:06:57Z</time>
      </trkpt>
      <trkpt lat="43.1782" lon="6.49525">
        <ele>392.3</ele>
        <time>2024-02-04T11:06:58Z</time>
      </trkpt>
      <trkpt lat="43.1782" lon="6.49526">
        <ele>392.3</ele>
        <time>2024-02-04T11:06:59Z</time>
      </trkpt>
      <trkpt lat="43.17821" lon="6.49527">
        <ele>392.3</ele>
        <time>2024-02-04T11:07:00Z</time>
      </trkpt>
      <trkpt lat="43.17821" lon="6.49528">
        <ele>392.3</ele>
        <time>2024-02-04T11:07:01Z</time>
      </trkpt>
      <trkpt lat="43.17822" lon="6.49528">
        <ele>392.4</ele>
        <time>2024-02-04T11:07:02Z</time>
      </trkpt>
      <trkpt lat="43.17822" lon="6.49529">
        <ele>392.5</ele>
        <time>2024-02-04T11:07:03Z</time>
      </trkpt>
      <trkpt lat="43.17823" lon="6.4953">
        <ele>392.6</ele>
        <time>2024-02-04T11:07:04Z</time>
      </trkpt>
      <trkpt lat="43.17823" lon="6.4953">
        <ele>392.7</ele>
        <time>2024-02-04T11:07:05Z</time>
      </trkpt>
      <trkpt lat="43.17824" lon="6.49531">
        <ele>392.8</ele>
        <time>2024-02-04T11:07:06Z</time>
      </trkpt>
      <trkpt lat="43.17825" lon="6.49532">
        <ele>392.8</ele>
        <time>2024-02-04T11:07:07Z</time>
      </trkpt>
      <trkpt lat="43.17825" lon="6.49533">
        <ele>392.9</ele>
        <time>2024-02-04T11:07:08Z</time>
      </trkpt>
      <trkpt lat="43.17826" lon="6.49534">
        <ele>393.1</ele>
        <time>2024-02-04T11:07:09Z</time>
      </trkpt>
      <trkpt lat="43.17826" lon="6.49535">
        <ele>393.2</ele>
        <time>2024-02-04T11:07:10Z</time>
      </trkpt>
      <trkpt lat="43.17827" lon="6.49536">
        <ele>393.4</ele>
        <time>2024-02-04T11:07:11Z</time>
      </trkpt>
      <trkpt lat="43.17828" lon="6.49536">
        <ele>393.6</ele>
        <time>2024-02-04T11:07:12Z</time>
      </trkpt>
      <trkpt lat="43.17828" lon="6.49537">
        <ele>393.8</ele>
        <time>2024-02-04T11:07:13Z</time>
      </trkpt>
      <trkpt lat="43.17829" lon="6.49538">
        <ele>394</ele>
        <time>2024-02-04T11:07:14Z</time>
      </trkpt>
      <trkpt lat="43.1783" lon="6.49539">
        <ele>394.2</ele>
        <time>2024-02-04T11:07:15Z</time>
      </trkpt>
      <trkpt lat="43.1783" lon="6.4954">
        <ele>394.3</ele>
        <time>2024-02-04T11:07:16Z</time>
      </trkpt>
      <trkpt lat="43.17831" lon="6.4954">
        <ele>394.5</ele>
        <time>2024-02-04T11:07:17Z</time>
      </trkpt>
      <trkpt lat="43.17831" lon="6.49541">
        <ele>394.6</ele>
        <time>2024-02-04T11:07:18Z</time>
      </trkpt>
      <trkpt lat="43.17832" lon="6.49542">
        <ele>394.8</ele>
        <time>2024-02-04T11:07:19Z</time>
      </trkpt>
      <trkpt lat="43.17832" lon="6.49542">
        <ele>395</ele>
        <time>2024-02-04T11:07:20Z</time>
      </trkpt>
      <trkpt lat="43.17832" lon="6.49542">
        <ele>395.1</ele>
        <time>2024-02-04T11:07:21Z</time>
      </trkpt>
      <trkpt lat="43.17832" lon="6.49542">
        <ele>395.3</ele>
        <time>2024-02-04T11:07:22Z</time>
      </trkpt>
      <trkpt lat="43.17832" lon="6.49542">
        <ele>395.4</ele>
        <time>2024-02-04T11:07:23Z</time>
      </trkpt>
      <trkpt lat="43.17832" lon="6.49542">
        <ele>395.5</ele>
        <time>2024-02-04T11:07:24Z</time>
      </trkpt>
      <trkpt lat="43.17832" lon="6.49542">
        <ele>395.6</ele>
        <time>2024-02-04T11:07:25Z</time>
      </trkpt>
      <trkpt lat="43.17832" lon="6.49542">
        <ele>395.6</ele>
        <time>2024-02-04T11:07:26Z</time>
      </trkpt>
      <trkpt lat="43.17832" lon="6.49542">
        <ele>395.6</ele>
        <time>2024-02-04T11:07:27Z</time>
      </trkpt>
      <trkpt lat="43.17832" lon="6.49542">
        <ele>395.6</ele>
        <time>2024-02-04T11:07:28Z</time>
      </trkpt>
      <trkpt lat="43.17833" lon="6.49542">
        <ele>395.6</ele>
        <time>2024-02-04T11:07:29Z</time>
      </trkpt>
      <trkpt lat="43.17834" lon="6.49543">
        <ele>395.6</ele>
        <time>2024-02-04T11:07:30Z</time>
      </trkpt>
      <trkpt lat="43.17834" lon="6.49543">
        <ele>395.7</ele>
        <time>2024-02-04T11:07:31Z</time>
      </trkpt>
      <trkpt lat="43.17835" lon="6.49544">
        <ele>395.7</ele>
        <time>2024-02-04T11:07:32Z</time>
      </trkpt>
      <trkpt lat="43.17836" lon="6.49545">
        <ele>395.8</ele>
        <time>2024-02-04T11:07:33Z</time>
      </trkpt>
      <trkpt lat="43.17836" lon="6.49545">
        <ele>395.9</ele>
        <time>2024-02-04T11:07:34Z</time>
      </trkpt>
      <trkpt lat="43.17837" lon="6.49545">
        <ele>395.9</ele>
        <time>2024-02-04T11:07:35Z</time>
      </trkpt>
      <trkpt lat="43.17837" lon="6.49546">
        <ele>396</ele>
        <time>2024-02-04T11:07:36Z</time>
      </trkpt>
      <trkpt lat="43.17838" lon="6.49547">
        <ele>396.2</ele>
        <time>2024-02-04T11:07:37Z</time>
      </trkpt>
      <trkpt lat="43.17839" lon="6.49547">
        <ele>396.3</ele>
        <time>2024-02-04T11:07:38Z</time>
      </trkpt>
      <trkpt lat="43.1784" lon="6.49548">
        <ele>396.4</ele>
        <time>2024-02-04T11:07:39Z</time>
      </trkpt>
      <trkpt lat="43.17841" lon="6.49548">
        <ele>396.5</ele>
        <time>2024-02-04T11:07:40Z</time>
      </trkpt>
      <trkpt lat="43.17841" lon="6.49548">
        <ele>396.6</ele>
        <time>2024-02-04T11:07:41Z</time>
      </trkpt>
      <trkpt lat="43.17842" lon="6.49548">
        <ele>396.6</ele>
        <time>2024-02-04T11:07:42Z</time>
      </trkpt>
      <trkpt lat="43.17843" lon="6.49548">
        <ele>396.7</ele>
        <time>2024-02-04T11:07:43Z</time>
      </trkpt>
      <trkpt lat="43.17844" lon="6.49549">
        <ele>396.8</ele>
        <time>2024-02-04T11:07:44Z</time>
      </trkpt>
      <trkpt lat="43.17845" lon="6.49549">
        <ele>396.9</ele>
        <time>2024-02-04T11:07:45Z</time>
      </trkpt>
      <trkpt lat="43.17846" lon="6.49549">
        <ele>397</ele>
        <time>2024-02-04T11:07:46Z</time>
      </trkpt>
      <trkpt lat="43.17847" lon="6.4955">
        <ele>397.1</ele>
        <time>2024-02-04T11:07:47Z</time>
      </trkpt>
      <trkpt lat="43.17848" lon="6.4955">
        <ele>397.2</ele>
        <time>2024-02-04T11:07:48Z</time>
      </trkpt>
      <trkpt lat="43.17848" lon="6.49549">
        <ele>397.5</ele>
        <time>2024-02-04T11:07:49Z</time>
      </trkpt>
      <trkpt lat="43.17849" lon="6.4955">
        <ele>397.6</ele>
        <time>2024-02-04T11:07:50Z</time>
      </trkpt>
      <trkpt lat="43.1785" lon="6.4955">
        <ele>397.8</ele>
        <time>2024-02-04T11:07:51Z</time>
      </trkpt>
      <trkpt lat="43.17851" lon="6.4955">
        <ele>397.9</ele>
        <time>2024-02-04T11:07:52Z</time>
      </trkpt>
      <trkpt lat="43.17852" lon="6.49551">
        <ele>398</ele>
        <time>2024-02-04T11:07:53Z</time>
      </trkpt>
      <trkpt lat="43.17853" lon="6.49551">
        <ele>398</ele>
        <time>2024-02-04T11:07:54Z</time>
      </trkpt>
      <trkpt lat="43.17854" lon="6.49551">
        <ele>398.2</ele>
        <time>2024-02-04T11:07:55Z</time>
      </trkpt>
      <trkpt lat="43.17855" lon="6.49552">
        <ele>398.3</ele>
        <time>2024-02-04T11:07:56Z</time>
      </trkpt>
      <trkpt lat="43.17856" lon="6.49552">
        <ele>398.5</ele>
        <time>2024-02-04T11:07:57Z</time>
      </trkpt>
      <trkpt lat="43.17857" lon="6.49553">
        <ele>398.7</ele>
        <time>2024-02-04T11:07:58Z</time>
      </trkpt>
      <trkpt lat="43.17858" lon="6.49554">
        <ele>399</ele>
        <time>2024-02-04T11:07:59Z</time>
      </trkpt>
      <trkpt lat="43.17858" lon="6.49554">
        <ele>399.1</ele>
        <time>2024-02-04T11:08:00Z</time>
      </trkpt>
      <trkpt lat="43.17859" lon="6.49555">
        <ele>399.3</ele>
        <time>2024-02-04T11:08:01Z</time>
      </trkpt>
      <trkpt lat="43.1786" lon="6.49555">
        <ele>399.5</ele>
        <time>2024-02-04T11:08:02Z</time>
      </trkpt>
      <trkpt lat="43.17861" lon="6.49556">
        <ele>399.6</ele>
        <time>2024-02-04T11:08:03Z</time>
      </trkpt>
      <trkpt lat="43.17862" lon="6.49556">
        <ele>399.8</ele>
        <time>2024-02-04T11:08:04Z</time>
      </trkpt>
      <trkpt lat="43.17863" lon="6.49557">
        <ele>399.9</ele>
        <time>2024-02-04T11:08:05Z</time>
      </trkpt>
      <trkpt lat="43.17863" lon="6.49557">
        <ele>400</ele>
        <time>2024-02-04T11:08:06Z</time>
      </trkpt>
      <trkpt lat="43.17864" lon="6.49558">
        <ele>400.2</ele>
        <time>2024-02-04T11:08:07Z</time>
      </trkpt>
      <trkpt lat="43.17865" lon="6.49558">
        <ele>400.3</ele>
        <time>2024-02-04T11:08:08Z</time>
      </trkpt>
      <trkpt lat="43.17866" lon="6.49559">
        <ele>400.4</ele>
        <time>2024-02-04T11:08:09Z</time>
      </trkpt>
      <trkpt lat="43.17867" lon="6.49559">
        <ele>400.5</ele>
        <time>2024-02-04T11:08:10Z</time>
      </trkpt>
      <trkpt lat="43.17867" lon="6.4956">
        <ele>400.6</ele>
        <time>2024-02-04T11:08:11Z</time>
      </trkpt>
      <trkpt lat="43.17868" lon="6.4956">
        <ele>400.7</ele>
        <time>2024-02-04T11:08:12Z</time>
      </trkpt>
      <trkpt lat="43.17869" lon="6.4956">
        <ele>400.9</ele>
        <time>2024-02-04T11:08:13Z</time>
      </trkpt>
      <trkpt lat="43.1787" lon="6.4956">
        <ele>401</ele>
        <time>2024-02-04T11:08:14Z</time>
      </trkpt>
      <trkpt lat="43.17871" lon="6.49561">
        <ele>401</ele>
        <time>2024-02-04T11:08:15Z</time>
      </trkpt>
      <trkpt lat="43.17872" lon="6.49561">
        <ele>401.1</ele>
        <time>2024-02-04T11:08:16Z</time>
      </trkpt>
      <trkpt lat="43.17872" lon="6.49562">
        <ele>401.2</ele>
        <time>2024-02-04T11:08:17Z</time>
      </trkpt>
      <trkpt lat="43.17873" lon="6.49562">
        <ele>401.3</ele>
        <time>2024-02-04T11:08:18Z</time>
      </trkpt>
      <trkpt lat="43.17874" lon="6.49563">
        <ele>401.4</ele>
        <time>2024-02-04T11:08:19Z</time>
      </trkpt>
      <trkpt lat="43.17875" lon="6.49563">
        <ele>401.5</ele>
        <time>2024-02-04T11:08:20Z</time>
      </trkpt>
      <trkpt lat="43.17876" lon="6.49564">
        <ele>401.6</ele>
        <time>2024-02-04T11:08:21Z</time>
      </trkpt>
      <trkpt lat="43.17876" lon="6.49565">
        <ele>401.6</ele>
        <time>2024-02-04T11:08:22Z</time>
      </trkpt>
      <trkpt lat="43.17878" lon="6.49565">
        <ele>401.8</ele>
        <time>2024-02-04T11:08:23Z</time>
      </trkpt>
      <trkpt lat="43.17878" lon="6.49565">
        <ele>401.9</ele>
        <time>2024-02-04T11:08:24Z</time>
      </trkpt>
      <trkpt lat="43.17879" lon="6.49566">
        <ele>402</ele>
        <time>2024-02-04T11:08:25Z</time>
      </trkpt>
      <trkpt lat="43.1788" lon="6.49567">
        <ele>402.1</ele>
        <time>2024-02-04T11:08:26Z</time>
      </trkpt>
      <trkpt lat="43.17881" lon="6.49567">
        <ele>402.2</ele>
        <time>2024-02-04T11:08:27Z</time>
      </trkpt>
      <trkpt lat="43.17882" lon="6.49567">
        <ele>402.3</ele>
        <time>2024-02-04T11:08:28Z</time>
      </trkpt>
      <trkpt lat="43.17883" lon="6.49568">
        <ele>402.4</ele>
        <time>2024-02-04T11:08:29Z</time>
      </trkpt>
      <trkpt lat="43.17884" lon="6.49568">
        <ele>402.5</ele>
        <time>2024-02-04T11:08:30Z</time>
      </trkpt>
      <trkpt lat="43.17885" lon="6.49568">
        <ele>402.5</ele>
        <time>2024-02-04T11:08:31Z</time>
      </trkpt>
      <trkpt lat="43.17885" lon="6.49568">
        <ele>402.7</ele>
        <time>2024-02-04T11:08:32Z</time>
      </trkpt>
      <trkpt lat="43.17886" lon="6.49569">
        <ele>402.9</ele>
        <time>2024-02-04T11:08:33Z</time>
      </trkpt>
      <trkpt lat="43.17887" lon="6.49569">
        <ele>403</ele>
        <time>2024-02-04T11:08:34Z</time>
      </trkpt>
      <trkpt lat="43.17888" lon="6.49569">
        <ele>403.1</ele>
        <time>2024-02-04T11:08:35Z</time>
      </trkpt>
      <trkpt lat="43.17889" lon="6.4957">
        <ele>403.1</ele>
        <time>2024-02-04T11:08:36Z</time>
      </trkpt>
      <trkpt lat="43.1789" lon="6.49571">
        <ele>403.1</ele>
        <time>2024-02-04T11:08:37Z</time>
      </trkpt>
      <trkpt lat="43.17891" lon="6.49571">
        <ele>403.2</ele>
        <time>2024-02-04T11:08:38Z</time>
      </trkpt>
      <trkpt lat="43.17892" lon="6.49571">
        <ele>403.2</ele>
        <time>2024-02-04T11:08:39Z</time>
      </trkpt>
      <trkpt lat="43.17893" lon="6.49572">
        <ele>403.3</ele>
        <time>2024-02-04T11:08:40Z</time>
      </trkpt>
      <trkpt lat="43.17893" lon="6.49573">
        <ele>403.5</ele>
        <time>2024-02-04T11:08:41Z</time>
      </trkpt>
      <trkpt lat="43.17894" lon="6.49574">
        <ele>403.6</ele>
        <time>2024-02-04T11:08:42Z</time>
      </trkpt>
      <trkpt lat="43.17895" lon="6.49575">
        <ele>403.8</ele>
        <time>2024-02-04T11:08:43Z</time>
      </trkpt>
      <trkpt lat="43.17896" lon="6.49575">
        <ele>404</ele>
        <time>2024-02-04T11:08:44Z</time>
      </trkpt>
      <trkpt lat="43.17897" lon="6.49576">
        <ele>404.1</ele>
        <time>2024-02-04T11:08:45Z</time>
      </trkpt>
      <trkpt lat="43.17898" lon="6.49577">
        <ele>404.2</ele>
        <time>2024-02-04T11:08:46Z</time>
      </trkpt>
      <trkpt lat="43.17898" lon="6.49578">
        <ele>404.4</ele>
        <time>2024-02-04T11:08:47Z</time>
      </trkpt>
      <trkpt lat="43.17899" lon="6.49578">
        <ele>404.5</ele>
        <time>2024-02-04T11:08:48Z</time>
      </trkpt>
      <trkpt lat="43.179" lon="6.49579">
        <ele>404.6</ele>
        <time>2024-02-04T11:08:49Z</time>
      </trkpt>
      <trkpt lat="43.17901" lon="6.49579">
        <ele>404.8</ele>
        <time>2024-02-04T11:08:50Z</time>
      </trkpt>
      <trkpt lat="43.17901" lon="6.49579">
        <ele>404.9</ele>
        <time>2024-02-04T11:08:51Z</time>
      </trkpt>
      <trkpt lat="43.17902" lon="6.4958">
        <ele>405.2</ele>
        <time>2024-02-04T11:08:52Z</time>
      </trkpt>
      <trkpt lat="43.17903" lon="6.49581">
        <ele>405.3</ele>
        <time>2024-02-04T11:08:53Z</time>
      </trkpt>
      <trkpt lat="43.17903" lon="6.49581">
        <ele>405.4</ele>
        <time>2024-02-04T11:08:54Z</time>
      </trkpt>
      <trkpt lat="43.17904" lon="6.49582">
        <ele>405.5</ele>
        <time>2024-02-04T11:08:55Z</time>
      </trkpt>
      <trkpt lat="43.17905" lon="6.49582">
        <ele>405.6</ele>
        <time>2024-02-04T11:08:56Z</time>
      </trkpt>
      <trkpt lat="43.17906" lon="6.49583">
        <ele>405.8</ele>
        <time>2024-02-04T11:08:57Z</time>
      </trkpt>
      <trkpt lat="43.17907" lon="6.49583">
        <ele>405.8</ele>
        <time>2024-02-04T11:08:58Z</time>
      </trkpt>
      <trkpt lat="43.17907" lon="6.49583">
        <ele>405.9</ele>
        <time>2024-02-04T11:08:59Z</time>
      </trkpt>
      <trkpt lat="43.17908" lon="6.49584">
        <ele>406</ele>
        <time>2024-02-04T11:09:00Z</time>
      </trkpt>
      <trkpt lat="43.17908" lon="6.49584">
        <ele>406.2</ele>
        <time>2024-02-04T11:09:01Z</time>
      </trkpt>
      <trkpt lat="43.17909" lon="6.49585">
        <ele>406.4</ele>
        <time>2024-02-04T11:09:02Z</time>
      </trkpt>
      <trkpt lat="43.17909" lon="6.49586">
        <ele>406.6</ele>
        <time>2024-02-04T11:09:03Z</time>
      </trkpt>
      <trkpt lat="43.1791" lon="6.49587">
        <ele>406.8</ele>
        <time>2024-02-04T11:09:04Z</time>
      </trkpt>
      <trkpt lat="43.17911" lon="6.49588">
        <ele>407</ele>
        <time>2024-02-04T11:09:05Z</time>
      </trkpt>
      <trkpt lat="43.17912" lon="6.49588">
        <ele>407.1</ele>
        <time>2024-02-04T11:09:06Z</time>
      </trkpt>
      <trkpt lat="43.17912" lon="6.49589">
        <ele>407.2</ele>
        <time>2024-02-04T11:09:07Z</time>
      </trkpt>
      <trkpt lat="43.17913" lon="6.4959">
        <ele>407.4</ele>
        <time>2024-02-04T11:09:08Z</time>
      </trkpt>
      <trkpt lat="43.17914" lon="6.4959">
        <ele>407.6</ele>
        <time>2024-02-04T11:09:09Z</time>
      </trkpt>
      <trkpt lat="43.17914" lon="6.49591">
        <ele>407.8</ele>
        <time>2024-02-04T11:09:10Z</time>
      </trkpt>
      <trkpt lat="43.17914" lon="6.49591">
        <ele>407.9</ele>
        <time>2024-02-04T11:09:11Z</time>
      </trkpt>
      <trkpt lat="43.17915" lon="6.49592">
        <ele>408.1</ele>
        <time>2024-02-04T11:09:12Z</time>
      </trkpt>
      <trkpt lat="43.17916" lon="6.49593">
        <ele>408.3</ele>
        <time>2024-02-04T11:09:13Z</time>
      </trkpt>
      <trkpt lat="43.17916" lon="6.49594">
        <ele>408.5</ele>
        <time>2024-02-04T11:09:14Z</time>
      </trkpt>
      <trkpt lat="43.17917" lon="6.49595">
        <ele>408.6</ele>
        <time>2024-02-04T11:09:15Z</time>
      </trkpt>
      <trkpt lat="43.17918" lon="6.49595">
        <ele>408.8</ele>
        <time>2024-02-04T11:09:16Z</time>
      </trkpt>
      <trkpt lat="43.17918" lon="6.49596">
        <ele>408.8</ele>
        <time>2024-02-04T11:09:17Z</time>
      </trkpt>
      <trkpt lat="43.17919" lon="6.49597">
        <ele>408.9</ele>
        <time>2024-02-04T11:09:18Z</time>
      </trkpt>
      <trkpt lat="43.1792" lon="6.49598">
        <ele>409</ele>
        <time>2024-02-04T11:09:19Z</time>
      </trkpt>
      <trkpt lat="43.17921" lon="6.49599">
        <ele>409.1</ele>
        <time>2024-02-04T11:09:20Z</time>
      </trkpt>
      <trkpt lat="43.17921" lon="6.49601">
        <ele>409.1</ele>
        <time>2024-02-04T11:09:21Z</time>
      </trkpt>
      <trkpt lat="43.17922" lon="6.49601">
        <ele>409.2</ele>
        <time>2024-02-04T11:09:22Z</time>
      </trkpt>
      <trkpt lat="43.17923" lon="6.49602">
        <ele>409.2</ele>
        <time>2024-02-04T11:09:23Z</time>
      </trkpt>
      <trkpt lat="43.17923" lon="6.49603">
        <ele>409.4</ele>
        <time>2024-02-04T11:09:24Z</time>
      </trkpt>
      <trkpt lat="43.17924" lon="6.49604">
        <ele>409.5</ele>
        <time>2024-02-04T11:09:25Z</time>
      </trkpt>
      <trkpt lat="43.17925" lon="6.49605">
        <ele>409.6</ele>
        <time>2024-02-04T11:09:26Z</time>
      </trkpt>
      <trkpt lat="43.17926" lon="6.49605">
        <ele>409.7</ele>
        <time>2024-02-04T11:09:27Z</time>
      </trkpt>
      <trkpt lat="43.17926" lon="6.49606">
        <ele>409.7</ele>
        <time>2024-02-04T11:09:28Z</time>
      </trkpt>
      <trkpt lat="43.17927" lon="6.49607">
        <ele>409.8</ele>
        <time>2024-02-04T11:09:29Z</time>
      </trkpt>
      <trkpt lat="43.17928" lon="6.49608">
        <ele>409.9</ele>
        <time>2024-02-04T11:09:30Z</time>
      </trkpt>
      <trkpt lat="43.17928" lon="6.49609">
        <ele>410</ele>
        <time>2024-02-04T11:09:31Z</time>
      </trkpt>
      <trkpt lat="43.17929" lon="6.49609">
        <ele>410</ele>
        <time>2024-02-04T11:09:32Z</time>
      </trkpt>
      <trkpt lat="43.17929" lon="6.4961">
        <ele>410.1</ele>
        <time>2024-02-04T11:09:33Z</time>
      </trkpt>
      <trkpt lat="43.1793" lon="6.49611">
        <ele>410.1</ele>
        <time>2024-02-04T11:09:34Z</time>
      </trkpt>
      <trkpt lat="43.17931" lon="6.49612">
        <ele>410.2</ele>
        <time>2024-02-04T11:09:35Z</time>
      </trkpt>
      <trkpt lat="43.17932" lon="6.49613">
        <ele>410.4</ele>
        <time>2024-02-04T11:09:36Z</time>
      </trkpt>
      <trkpt lat="43.17932" lon="6.49613">
        <ele>410.5</ele>
        <time>2024-02-04T11:09:37Z</time>
      </trkpt>
      <trkpt lat="43.17933" lon="6.49614">
        <ele>410.7</ele>
        <time>2024-02-04T11:09:38Z</time>
      </trkpt>
      <trkpt lat="43.17934" lon="6.49615">
        <ele>410.7</ele>
        <time>2024-02-04T11:09:39Z</time>
      </trkpt>
      <trkpt lat="43.17934" lon="6.49616">
        <ele>410.8</ele>
        <time>2024-02-04T11:09:40Z</time>
      </trkpt>
      <trkpt lat="43.17935" lon="6.49617">
        <ele>410.9</ele>
        <time>2024-02-04T11:09:41Z</time>
      </trkpt>
      <trkpt lat="43.17936" lon="6.49618">
        <ele>411</ele>
        <time>2024-02-04T11:09:42Z</time>
      </trkpt>
      <trkpt lat="43.17936" lon="6.49618">
        <ele>411.1</ele>
        <time>2024-02-04T11:09:43Z</time>
      </trkpt>
      <trkpt lat="43.17937" lon="6.49619">
        <ele>411.2</ele>
        <time>2024-02-04T11:09:44Z</time>
      </trkpt>
      <trkpt lat="43.17938" lon="6.4962">
        <ele>411.3</ele>
        <time>2024-02-04T11:09:45Z</time>
      </trkpt>
      <trkpt lat="43.17938" lon="6.49621">
        <ele>411.4</ele>
        <time>2024-02-04T11:09:46Z</time>
      </trkpt>
      <trkpt lat="43.17939" lon="6.49622">
        <ele>411.5</ele>
        <time>2024-02-04T11:09:47Z</time>
      </trkpt>
      <trkpt lat="43.17939" lon="6.49623">
        <ele>411.6</ele>
        <time>2024-02-04T11:09:48Z</time>
      </trkpt>
      <trkpt lat="43.1794" lon="6.49624">
        <ele>411.8</ele>
        <time>2024-02-04T11:09:49Z</time>
      </trkpt>
      <trkpt lat="43.17941" lon="6.49624">
        <ele>411.9</ele>
        <time>2024-02-04T11:09:50Z</time>
      </trkpt>
      <trkpt lat="43.17941" lon="6.49625">
        <ele>412.1</ele>
        <time>2024-02-04T11:09:51Z</time>
      </trkpt>
      <trkpt lat="43.17942" lon="6.49626">
        <ele>412.2</ele>
        <time>2024-02-04T11:09:52Z</time>
      </trkpt>
      <trkpt lat="43.17942" lon="6.49627">
        <ele>412.5</ele>
        <time>2024-02-04T11:09:53Z</time>
      </trkpt>
      <trkpt lat="43.17943" lon="6.49627">
        <ele>412.6</ele>
        <time>2024-02-04T11:09:54Z</time>
      </trkpt>
      <trkpt lat="43.17944" lon="6.49628">
        <ele>412.8</ele>
        <time>2024-02-04T11:09:55Z</time>
      </trkpt>
      <trkpt lat="43.17944" lon="6.49629">
        <ele>413</ele>
        <time>2024-02-04T11:09:56Z</time>
      </trkpt>
      <trkpt lat="43.17945" lon="6.4963">
        <ele>413.1</ele>
        <time>2024-02-04T11:09:57Z</time>
      </trkpt>
      <trkpt lat="43.17946" lon="6.49631">
        <ele>413.3</ele>
        <time>2024-02-04T11:09:58Z</time>
      </trkpt>
      <trkpt lat="43.17946" lon="6.49631">
        <ele>413.5</ele>
        <time>2024-02-04T11:09:59Z</time>
      </trkpt>
      <trkpt lat="43.17947" lon="6.49632">
        <ele>413.6</ele>
        <time>2024-02-04T11:10:00Z</time>
      </trkpt>
      <trkpt lat="43.17948" lon="6.49633">
        <ele>413.8</ele>
        <time>2024-02-04T11:10:01Z</time>
      </trkpt>
      <trkpt lat="43.17948" lon="6.49634">
        <ele>413.9</ele>
        <time>2024-02-04T11:10:02Z</time>
      </trkpt>
      <trkpt lat="43.17949" lon="6.49635">
        <ele>414.1</ele>
        <time>2024-02-04T11:10:03Z</time>
      </trkpt>
      <trkpt lat="43.17949" lon="6.49636">
        <ele>414.3</ele>
        <time>2024-02-04T11:10:04Z</time>
      </trkpt>
      <trkpt lat="43.1795" lon="6.49636">
        <ele>414.4</ele>
        <time>2024-02-04T11:10:05Z</time>
      </trkpt>
      <trkpt lat="43.1795" lon="6.49637">
        <ele>414.6</ele>
        <time>2024-02-04T11:10:06Z</time>
      </trkpt>
      <trkpt lat="43.17951" lon="6.49638">
        <ele>414.7</ele>
        <time>2024-02-04T11:10:07Z</time>
      </trkpt>
      <trkpt lat="43.17951" lon="6.49639">
        <ele>414.9</ele>
        <time>2024-02-04T11:10:08Z</time>
      </trkpt>
      <trkpt lat="43.17952" lon="6.4964">
        <ele>415</ele>
        <time>2024-02-04T11:10:09Z</time>
      </trkpt>
      <trkpt lat="43.17952" lon="6.49642">
        <ele>415.1</ele>
        <time>2024-02-04T11:10:10Z</time>
      </trkpt>
      <trkpt lat="43.17953" lon="6.49642">
        <ele>415.3</ele>
        <time>2024-02-04T11:10:11Z</time>
      </trkpt>
      <trkpt lat="43.17954" lon="6.49643">
        <ele>415.4</ele>
        <time>2024-02-04T11:10:12Z</time>
      </trkpt>
      <trkpt lat="43.17954" lon="6.49644">
        <ele>415.6</ele>
        <time>2024-02-04T11:10:13Z</time>
      </trkpt>
      <trkpt lat="43.17955" lon="6.49645">
        <ele>415.8</ele>
        <time>2024-02-04T11:10:14Z</time>
      </trkpt>
      <trkpt lat="43.17956" lon="6.49645">
        <ele>416</ele>
        <time>2024-02-04T11:10:15Z</time>
      </trkpt>
      <trkpt lat="43.17956" lon="6.49646">
        <ele>416.1</ele>
        <time>2024-02-04T11:10:16Z</time>
      </trkpt>
      <trkpt lat="43.17957" lon="6.49646">
        <ele>416.3</ele>
        <time>2024-02-04T11:10:17Z</time>
      </trkpt>
      <trkpt lat="43.17957" lon="6.49647">
        <ele>416.4</ele>
        <time>2024-02-04T11:10:18Z</time>
      </trkpt>
      <trkpt lat="43.17958" lon="6.49648">
        <ele>416.7</ele>
        <time>2024-02-04T11:10:19Z</time>
      </trkpt>
      <trkpt lat="43.17959" lon="6.49649">
        <ele>416.9</ele>
        <time>2024-02-04T11:10:20Z</time>
      </trkpt>
      <trkpt lat="43.17959" lon="6.4965">
        <ele>417</ele>
        <time>2024-02-04T11:10:21Z</time>
      </trkpt>
      <trkpt lat="43.1796" lon="6.4965">
        <ele>417.1</ele>
        <time>2024-02-04T11:10:22Z</time>
      </trkpt>
      <trkpt lat="43.17961" lon="6.49651">
        <ele>417.2</ele>
        <time>2024-02-04T11:10:23Z</time>
      </trkpt>
      <trkpt lat="43.17961" lon="6.49652">
        <ele>417.4</ele>
        <time>2024-02-04T11:10:24Z</time>
      </trkpt>
      <trkpt lat="43.17962" lon="6.49653">
        <ele>417.6</ele>
        <time>2024-02-04T11:10:25Z</time>
      </trkpt>
      <trkpt lat="43.17963" lon="6.49653">
        <ele>417.8</ele>
        <time>2024-02-04T11:10:26Z</time>
      </trkpt>
      <trkpt lat="43.17963" lon="6.49654">
        <ele>417.9</ele>
        <time>2024-02-04T11:10:27Z</time>
      </trkpt>
      <trkpt lat="43.17964" lon="6.49655">
        <ele>418</ele>
        <time>2024-02-04T11:10:28Z</time>
      </trkpt>
      <trkpt lat="43.17964" lon="6.49655">
        <ele>418.1</ele>
        <time>2024-02-04T11:10:29Z</time>
      </trkpt>
      <trkpt lat="43.17965" lon="6.49657">
        <ele>418.3</ele>
        <time>2024-02-04T11:10:30Z</time>
      </trkpt>
      <trkpt lat="43.17965" lon="6.49658">
        <ele>418.5</ele>
        <time>2024-02-04T11:10:31Z</time>
      </trkpt>
      <trkpt lat="43.17965" lon="6.49659">
        <ele>418.6</ele>
        <time>2024-02-04T11:10:32Z</time>
      </trkpt>
      <trkpt lat="43.17966" lon="6.4966">
        <ele>418.7</ele>
        <time>2024-02-04T11:10:33Z</time>
      </trkpt>
      <trkpt lat="43.17966" lon="6.49661">
        <ele>418.9</ele>
        <time>2024-02-04T11:10:34Z</time>
      </trkpt>
      <trkpt lat="43.17967" lon="6.49661">
        <ele>419.2</ele>
        <time>2024-02-04T11:10:35Z</time>
      </trkpt>
      <trkpt lat="43.17967" lon="6.49662">
        <ele>419.5</ele>
        <time>2024-02-04T11:10:36Z</time>
      </trkpt>
      <trkpt lat="43.17968" lon="6.49663">
        <ele>419.7</ele>
        <time>2024-02-04T11:10:37Z</time>
      </trkpt>
      <trkpt lat="43.17968" lon="6.49664">
        <ele>420</ele>
        <time>2024-02-04T11:10:38Z</time>
      </trkpt>
      <trkpt lat="43.17969" lon="6.49665">
        <ele>420.1</ele>
        <time>2024-02-04T11:10:39Z</time>
      </trkpt>
      <trkpt lat="43.1797" lon="6.49665">
        <ele>420.2</ele>
        <time>2024-02-04T11:10:40Z</time>
      </trkpt>
      <trkpt lat="43.1797" lon="6.49666">
        <ele>420.3</ele>
        <time>2024-02-04T11:10:41Z</time>
      </trkpt>
      <trkpt lat="43.1797" lon="6.49667">
        <ele>420.6</ele>
        <time>2024-02-04T11:10:42Z</time>
      </trkpt>
      <trkpt lat="43.17971" lon="6.49668">
        <ele>420.9</ele>
        <time>2024-02-04T11:10:43Z</time>
      </trkpt>
      <trkpt lat="43.17971" lon="6.49669">
        <ele>421.1</ele>
        <time>2024-02-04T11:10:44Z</time>
      </trkpt>
      <trkpt lat="43.17972" lon="6.4967">
        <ele>421.3</ele>
        <time>2024-02-04T11:10:45Z</time>
      </trkpt>
      <trkpt lat="43.17972" lon="6.49671">
        <ele>421.5</ele>
        <time>2024-02-04T11:10:46Z</time>
      </trkpt>
      <trkpt lat="43.17972" lon="6.49671">
        <ele>421.7</ele>
        <time>2024-02-04T11:10:47Z</time>
      </trkpt>
      <trkpt lat="43.17973" lon="6.49672">
        <ele>421.9</ele>
        <time>2024-02-04T11:10:48Z</time>
      </trkpt>
      <trkpt lat="43.17973" lon="6.49673">
        <ele>422.1</ele>
        <time>2024-02-04T11:10:49Z</time>
      </trkpt>
      <trkpt lat="43.17974" lon="6.49674">
        <ele>422.2</ele>
        <time>2024-02-04T11:10:50Z</time>
      </trkpt>
      <trkpt lat="43.17974" lon="6.49675">
        <ele>422.4</ele>
        <time>2024-02-04T11:10:51Z</time>
      </trkpt>
      <trkpt lat="43.17975" lon="6.49676">
        <ele>422.6</ele>
        <time>2024-02-04T11:10:52Z</time>
      </trkpt>
      <trkpt lat="43.17975" lon="6.49677">
        <ele>422.8</ele>
        <time>2024-02-04T11:10:53Z</time>
      </trkpt>
      <trkpt lat="43.17976" lon="6.49678">
        <ele>423</ele>
        <time>2024-02-04T11:10:54Z</time>
      </trkpt>
      <trkpt lat="43.17976" lon="6.49679">
        <ele>423.2</ele>
        <time>2024-02-04T11:10:55Z</time>
      </trkpt>
      <trkpt lat="43.17977" lon="6.4968">
        <ele>423.5</ele>
        <time>2024-02-04T11:10:56Z</time>
      </trkpt>
      <trkpt lat="43.17978" lon="6.49681">
        <ele>423.7</ele>
        <time>2024-02-04T11:10:57Z</time>
      </trkpt>
      <trkpt lat="43.17978" lon="6.49681">
        <ele>423.9</ele>
        <time>2024-02-04T11:10:58Z</time>
      </trkpt>
      <trkpt lat="43.17979" lon="6.49682">
        <ele>424</ele>
        <time>2024-02-04T11:10:59Z</time>
      </trkpt>
      <trkpt lat="43.17979" lon="6.49683">
        <ele>424.1</ele>
        <time>2024-02-04T11:11:00Z</time>
      </trkpt>
      <trkpt lat="43.17979" lon="6.49684">
        <ele>424.4</ele>
        <time>2024-02-04T11:11:01Z</time>
      </trkpt>
      <trkpt lat="43.1798" lon="6.49685">
        <ele>424.6</ele>
        <time>2024-02-04T11:11:02Z</time>
      </trkpt>
      <trkpt lat="43.1798" lon="6.49686">
        <ele>424.8</ele>
        <time>2024-02-04T11:11:03Z</time>
      </trkpt>
      <trkpt lat="43.1798" lon="6.49687">
        <ele>425.1</ele>
        <time>2024-02-04T11:11:04Z</time>
      </trkpt>
      <trkpt lat="43.17981" lon="6.49688">
        <ele>425.3</ele>
        <time>2024-02-04T11:11:05Z</time>
      </trkpt>
      <trkpt lat="43.17981" lon="6.49689">
        <ele>425.4</ele>
        <time>2024-02-04T11:11:06Z</time>
      </trkpt>
      <trkpt lat="43.17982" lon="6.4969">
        <ele>425.6</ele>
        <time>2024-02-04T11:11:07Z</time>
      </trkpt>
      <trkpt lat="43.17982" lon="6.49691">
        <ele>425.7</ele>
        <time>2024-02-04T11:11:08Z</time>
      </trkpt>
      <trkpt lat="43.17983" lon="6.49691">
        <ele>425.8</ele>
        <time>2024-02-04T11:11:09Z</time>
      </trkpt>
      <trkpt lat="43.17983" lon="6.49691">
        <ele>425.9</ele>
        <time>2024-02-04T11:11:10Z</time>
      </trkpt>
      <trkpt lat="43.17983" lon="6.49692">
        <ele>426</ele>
        <time>2024-02-04T11:11:11Z</time>
      </trkpt>
      <trkpt lat="43.17983" lon="6.49692">
        <ele>426.1</ele>
        <time>2024-02-04T11:11:12Z</time>
      </trkpt>
      <trkpt lat="43.17984" lon="6.49692">
        <ele>426.3</ele>
        <time>2024-02-04T11:11:13Z</time>
      </trkpt>
      <trkpt lat="43.17984" lon="6.49693">
        <ele>426.4</ele>
        <time>2024-02-04T11:11:14Z</time>
      </trkpt>
      <trkpt lat="43.17985" lon="6.49694">
        <ele>426.4</ele>
        <time>2024-02-04T11:11:15Z</time>
      </trkpt>
      <trkpt lat="43.17985" lon="6.49694">
        <ele>426.5</ele>
        <time>2024-02-04T11:11:16Z</time>
      </trkpt>
      <trkpt lat="43.17986" lon="6.49695">
        <ele>426.6</ele>
        <time>2024-02-04T11:11:17Z</time>
      </trkpt>
      <trkpt lat="43.17987" lon="6.49696">
        <ele>426.7</ele>
        <time>2024-02-04T11:11:18Z</time>
      </trkpt>
      <trkpt lat="43.17987" lon="6.49696">
        <ele>426.8</ele>
        <time>2024-02-04T11:11:19Z</time>
      </trkpt>
      <trkpt lat="43.17988" lon="6.49697">
        <ele>426.9</ele>
        <time>2024-02-04T11:11:20Z</time>
      </trkpt>
      <trkpt lat="43.17988" lon="6.49698">
        <ele>427</ele>
        <time>2024-02-04T11:11:21Z</time>
      </trkpt>
      <trkpt lat="43.17989" lon="6.49698">
        <ele>427.1</ele>
        <time>2024-02-04T11:11:22Z</time>
      </trkpt>
      <trkpt lat="43.1799" lon="6.49698">
        <ele>427.3</ele>
        <time>2024-02-04T11:11:23Z</time>
      </trkpt>
      <trkpt lat="43.17991" lon="6.49699">
        <ele>427.4</ele>
        <time>2024-02-04T11:11:24Z</time>
      </trkpt>
      <trkpt lat="43.17991" lon="6.497">
        <ele>427.6</ele>
        <time>2024-02-04T11:11:25Z</time>
      </trkpt>
      <trkpt lat="43.17992" lon="6.49701">
        <ele>427.8</ele>
        <time>2024-02-04T11:11:26Z</time>
      </trkpt>
      <trkpt lat="43.17992" lon="6.49701">
        <ele>428</ele>
        <time>2024-02-04T11:11:27Z</time>
      </trkpt>
      <trkpt lat="43.17993" lon="6.49702">
        <ele>428.2</ele>
        <time>2024-02-04T11:11:28Z</time>
      </trkpt>
      <trkpt lat="43.17994" lon="6.49702">
        <ele>428.3</ele>
        <time>2024-02-04T11:11:29Z</time>
      </trkpt>
      <trkpt lat="43.17995" lon="6.49703">
        <ele>428.4</ele>
        <time>2024-02-04T11:11:30Z</time>
      </trkpt>
      <trkpt lat="43.17995" lon="6.49703">
        <ele>428.6</ele>
        <time>2024-02-04T11:11:31Z</time>
      </trkpt>
      <trkpt lat="43.17996" lon="6.49704">
        <ele>428.7</ele>
        <time>2024-02-04T11:11:32Z</time>
      </trkpt>
      <trkpt lat="43.17997" lon="6.49704">
        <ele>428.9</ele>
        <time>2024-02-04T11:11:33Z</time>
      </trkpt>
      <trkpt lat="43.17997" lon="6.49705">
        <ele>429</ele>
        <time>2024-02-04T11:11:34Z</time>
      </trkpt>
      <trkpt lat="43.17998" lon="6.49706">
        <ele>429.1</ele>
        <time>2024-02-04T11:11:35Z</time>
      </trkpt>
      <trkpt lat="43.17999" lon="6.49706">
        <ele>429.2</ele>
        <time>2024-02-04T11:11:36Z</time>
      </trkpt>
      <trkpt lat="43.17999" lon="6.49707">
        <ele>429.4</ele>
        <time>2024-02-04T11:11:37Z</time>
      </trkpt>
      <trkpt lat="43.18" lon="6.49707">
        <ele>429.5</ele>
        <time>2024-02-04T11:11:38Z</time>
      </trkpt>
      <trkpt lat="43.18001" lon="6.49708">
        <ele>429.6</ele>
        <time>2024-02-04T11:11:39Z</time>
      </trkpt>
      <trkpt lat="43.18001" lon="6.49709">
        <ele>429.8</ele>
        <time>2024-02-04T11:11:40Z</time>
      </trkpt>
      <trkpt lat="43.18002" lon="6.49709">
        <ele>429.9</ele>
        <time>2024-02-04T11:11:41Z</time>
      </trkpt>
      <trkpt lat="43.18002" lon="6.4971">
        <ele>430.1</ele>
        <time>2024-02-04T11:11:42Z</time>
      </trkpt>
      <trkpt lat="43.18003" lon="6.49711">
        <ele>430.2</ele>
        <time>2024-02-04T11:11:43Z</time>
      </trkpt>
      <trkpt lat="43.18003" lon="6.49712">
        <ele>430.3</ele>
        <time>2024-02-04T11:11:44Z</time>
      </trkpt>
      <trkpt lat="43.18004" lon="6.49712">
        <ele>430.5</ele>
        <time>2024-02-04T11:11:45Z</time>
      </trkpt>
      <trkpt lat="43.18004" lon="6.49712">
        <ele>430.6</ele>
        <time>2024-02-04T11:11:46Z</time>
      </trkpt>
      <trkpt lat="43.18005" lon="6.49713">
        <ele>430.8</ele>
        <time>2024-02-04T11:11:47Z</time>
      </trkpt>
      <trkpt lat="43.18006" lon="6.49714">
        <ele>431</ele>
        <time>2024-02-04T11:11:48Z</time>
      </trkpt>
      <trkpt lat="43.18006" lon="6.49714">
        <ele>431.1</ele>
        <time>2024-02-04T11:11:49Z</time>
      </trkpt>
      <trkpt lat="43.18007" lon="6.49715">
        <ele>431.4</ele>
        <time>2024-02-04T11:11:50Z</time>
      </trkpt>
      <trkpt lat="43.18008" lon="6.49715">
        <ele>431.6</ele>
        <time>2024-02-04T11:11:51Z</time>
      </trkpt>
      <trkpt lat="43.18008" lon="6.49716">
        <ele>431.7</ele>
        <time>2024-02-04T11:11:52Z</time>
      </trkpt>
      <trkpt lat="43.18009" lon="6.49716">
        <ele>431.9</ele>
        <time>2024-02-04T11:11:53Z</time>
      </trkpt>
      <trkpt lat="43.1801" lon="6.49717">
        <ele>432.1</ele>
        <time>2024-02-04T11:11:54Z</time>
      </trkpt>
      <trkpt lat="43.1801" lon="6.49718">
        <ele>432.3</ele>
        <time>2024-02-04T11:11:55Z</time>
      </trkpt>
      <trkpt lat="43.18011" lon="6.49718">
        <ele>432.4</ele>
        <time>2024-02-04T11:11:56Z</time>
      </trkpt>
      <trkpt lat="43.18011" lon="6.49719">
        <ele>432.5</ele>
        <time>2024-02-04T11:11:57Z</time>
      </trkpt>
      <trkpt lat="43.18012" lon="6.4972">
        <ele>432.7</ele>
        <time>2024-02-04T11:11:58Z</time>
      </trkpt>
      <trkpt lat="43.18013" lon="6.4972">
        <ele>432.9</ele>
        <time>2024-02-04T11:11:59Z</time>
      </trkpt>
      <trkpt lat="43.18014" lon="6.49721">
        <ele>433.1</ele>
        <time>2024-02-04T11:12:00Z</time>
      </trkpt>
      <trkpt lat="43.18014" lon="6.49722">
        <ele>433.2</ele>
        <time>2024-02-04T11:12:01Z</time>
      </trkpt>
      <trkpt lat="43.18014" lon="6.49723">
        <ele>433.3</ele>
        <time>2024-02-04T11:12:02Z</time>
      </trkpt>
      <trkpt lat="43.18015" lon="6.49724">
        <ele>433.4</ele>
        <time>2024-02-04T11:12:03Z</time>
      </trkpt>
      <trkpt lat="43.18016" lon="6.49724">
        <ele>433.6</ele>
        <time>2024-02-04T11:12:04Z</time>
      </trkpt>
      <trkpt lat="43.18016" lon="6.49725">
        <ele>433.7</ele>
        <time>2024-02-04T11:12:05Z</time>
      </trkpt>
      <trkpt lat="43.18017" lon="6.49726">
        <ele>433.8</ele>
        <time>2024-02-04T11:12:06Z</time>
      </trkpt>
      <trkpt lat="43.18018" lon="6.49727">
        <ele>434</ele>
        <time>2024-02-04T11:12:07Z</time>
      </trkpt>
      <trkpt lat="43.18018" lon="6.49728">
        <ele>434.2</ele>
        <time>2024-02-04T11:12:08Z</time>
      </trkpt>
      <trkpt lat="43.18019" lon="6.49729">
        <ele>434.3</ele>
        <time>2024-02-04T11:12:09Z</time>
      </trkpt>
      <trkpt lat="43.18019" lon="6.4973">
        <ele>434.4</ele>
        <time>2024-02-04T11:12:10Z</time>
      </trkpt>
      <trkpt lat="43.1802" lon="6.49731">
        <ele>434.7</ele>
        <time>2024-02-04T11:12:11Z</time>
      </trkpt>
      <trkpt lat="43.1802" lon="6.49732">
        <ele>434.9</ele>
        <time>2024-02-04T11:12:12Z</time>
      </trkpt>
      <trkpt lat="43.18021" lon="6.49733">
        <ele>435.1</ele>
        <time>2024-02-04T11:12:13Z</time>
      </trkpt>
      <trkpt lat="43.18021" lon="6.49733">
        <ele>435.3</ele>
        <time>2024-02-04T11:12:14Z</time>
      </trkpt>
      <trkpt lat="43.18022" lon="6.49734">
        <ele>435.4</ele>
        <time>2024-02-04T11:12:15Z</time>
      </trkpt>
      <trkpt lat="43.18023" lon="6.49735">
        <ele>435.7</ele>
        <time>2024-02-04T11:12:16Z</time>
      </trkpt>
      <trkpt lat="43.18023" lon="6.49736">
        <ele>435.9</ele>
        <time>2024-02-04T11:12:17Z</time>
      </trkpt>
      <trkpt lat="43.18023" lon="6.49736">
        <ele>436.1</ele>
        <time>2024-02-04T11:12:18Z</time>
      </trkpt>
      <trkpt lat="43.18024" lon="6.49737">
        <ele>436.3</ele>
        <time>2024-02-04T11:12:19Z</time>
      </trkpt>
      <trkpt lat="43.18024" lon="6.49738">
        <ele>436.4</ele>
        <time>2024-02-04T11:12:20Z</time>
      </trkpt>
      <trkpt lat="43.18025" lon="6.49739">
        <ele>436.6</ele>
        <time>2024-02-04T11:12:21Z</time>
      </trkpt>
      <trkpt lat="43.18025" lon="6.4974">
        <ele>436.7</ele>
        <time>2024-02-04T11:12:22Z</time>
      </trkpt>
      <trkpt lat="43.18026" lon="6.49741">
        <ele>436.9</ele>
        <time>2024-02-04T11:12:23Z</time>
      </trkpt>
      <trkpt lat="43.18026" lon="6.49742">
        <ele>437</ele>
        <time>2024-02-04T11:12:24Z</time>
      </trkpt>
      <trkpt lat="43.18027" lon="6.49743">
        <ele>437.2</ele>
        <time>2024-02-04T11:12:25Z</time>
      </trkpt>
      <trkpt lat="43.18027" lon="6.49744">
        <ele>437.3</ele>
        <time>2024-02-04T11:12:26Z</time>
      </trkpt>
      <trkpt lat="43.18028" lon="6.49745">
        <ele>437.6</ele>
        <time>2024-02-04T11:12:27Z</time>
      </trkpt>
      <trkpt lat="43.18028" lon="6.49746">
        <ele>437.7</ele>
        <time>2024-02-04T11:12:28Z</time>
      </trkpt>
      <trkpt lat="43.18029" lon="6.49746">
        <ele>437.9</ele>
        <time>2024-02-04T11:12:29Z</time>
      </trkpt>
      <trkpt lat="43.1803" lon="6.49748">
        <ele>438.1</ele>
        <time>2024-02-04T11:12:30Z</time>
      </trkpt>
      <trkpt lat="43.1803" lon="6.49749">
        <ele>438.2</ele>
        <time>2024-02-04T11:12:31Z</time>
      </trkpt>
      <trkpt lat="43.18031" lon="6.49749">
        <ele>438.4</ele>
        <time>2024-02-04T11:12:32Z</time>
      </trkpt>
      <trkpt lat="43.18031" lon="6.4975">
        <ele>438.5</ele>
        <time>2024-02-04T11:12:33Z</time>
      </trkpt>
      <trkpt lat="43.18032" lon="6.49751">
        <ele>438.6</ele>
        <time>2024-02-04T11:12:34Z</time>
      </trkpt>
      <trkpt lat="43.18032" lon="6.49752">
        <ele>438.7</ele>
        <time>2024-02-04T11:12:35Z</time>
      </trkpt>
      <trkpt lat="43.18033" lon="6.49753">
        <ele>438.8</ele>
        <time>2024-02-04T11:12:36Z</time>
      </trkpt>
      <trkpt lat="43.18033" lon="6.49754">
        <ele>439</ele>
        <time>2024-02-04T11:12:37Z</time>
      </trkpt>
      <trkpt lat="43.18034" lon="6.49755">
        <ele>439.1</ele>
        <time>2024-02-04T11:12:38Z</time>
      </trkpt>
      <trkpt lat="43.18035" lon="6.49756">
        <ele>439.3</ele>
        <time>2024-02-04T11:12:39Z</time>
      </trkpt>
      <trkpt lat="43.18035" lon="6.49757">
        <ele>439.5</ele>
        <time>2024-02-04T11:12:40Z</time>
      </trkpt>
      <trkpt lat="43.18035" lon="6.49758">
        <ele>439.6</ele>
        <time>2024-02-04T11:12:41Z</time>
      </trkpt>
      <trkpt lat="43.18036" lon="6.49759">
        <ele>439.8</ele>
        <time>2024-02-04T11:12:42Z</time>
      </trkpt>
      <trkpt lat="43.18037" lon="6.4976">
        <ele>440</ele>
        <time>2024-02-04T11:12:43Z</time>
      </trkpt>
      <trkpt lat="43.18037" lon="6.49761">
        <ele>440.1</ele>
        <time>2024-02-04T11:12:44Z</time>
      </trkpt>
      <trkpt lat="43.18038" lon="6.49762">
        <ele>440.2</ele>
        <time>2024-02-04T11:12:45Z</time>
      </trkpt>
      <trkpt lat="43.18038" lon="6.49763">
        <ele>440.4</ele>
        <time>2024-02-04T11:12:46Z</time>
      </trkpt>
      <trkpt lat="43.18039" lon="6.49764">
        <ele>440.6</ele>
        <time>2024-02-04T11:12:47Z</time>
      </trkpt>
      <trkpt lat="43.1804" lon="6.49764">
        <ele>440.8</ele>
        <time>2024-02-04T11:12:48Z</time>
      </trkpt>
      <trkpt lat="43.1804" lon="6.49765">
        <ele>441</ele>
        <time>2024-02-04T11:12:49Z</time>
      </trkpt>
      <trkpt lat="43.18041" lon="6.49766">
        <ele>441.2</ele>
        <time>2024-02-04T11:12:50Z</time>
      </trkpt>
      <trkpt lat="43.18041" lon="6.49767">
        <ele>441.4</ele>
        <time>2024-02-04T11:12:51Z</time>
      </trkpt>
      <trkpt lat="43.18042" lon="6.49768">
        <ele>441.5</ele>
        <time>2024-02-04T11:12:52Z</time>
      </trkpt>
      <trkpt lat="43.18042" lon="6.49768">
        <ele>441.8</ele>
        <time>2024-02-04T11:12:53Z</time>
      </trkpt>
      <trkpt lat="43.18043" lon="6.49769">
        <ele>442</ele>
        <time>2024-02-04T11:12:54Z</time>
      </trkpt>
      <trkpt lat="43.18043" lon="6.4977">
        <ele>442.4</ele>
        <time>2024-02-04T11:12:55Z</time>
      </trkpt>
      <trkpt lat="43.18044" lon="6.4977">
        <ele>442.6</ele>
        <time>2024-02-04T11:12:56Z</time>
      </trkpt>
      <trkpt lat="43.18044" lon="6.49771">
        <ele>442.8</ele>
        <time>2024-02-04T11:12:57Z</time>
      </trkpt>
      <trkpt lat="43.18044" lon="6.49772">
        <ele>443.1</ele>
        <time>2024-02-04T11:12:58Z</time>
      </trkpt>
      <trkpt lat="43.18045" lon="6.49772">
        <ele>443.3</ele>
        <time>2024-02-04T11:12:59Z</time>
      </trkpt>
      <trkpt lat="43.18045" lon="6.49774">
        <ele>443.4</ele>
        <time>2024-02-04T11:13:00Z</time>
      </trkpt>
      <trkpt lat="43.18045" lon="6.49775">
        <ele>443.5</ele>
        <time>2024-02-04T11:13:01Z</time>
      </trkpt>
      <trkpt lat="43.18046" lon="6.49776">
        <ele>443.7</ele>
        <time>2024-02-04T11:13:02Z</time>
      </trkpt>
      <trkpt lat="43.18046" lon="6.49777">
        <ele>444</ele>
        <time>2024-02-04T11:13:03Z</time>
      </trkpt>
      <trkpt lat="43.18047" lon="6.49778">
        <ele>444.3</ele>
        <time>2024-02-04T11:13:04Z</time>
      </trkpt>
      <trkpt lat="43.18047" lon="6.49778">
        <ele>444.5</ele>
        <time>2024-02-04T11:13:05Z</time>
      </trkpt>
      <trkpt lat="43.18048" lon="6.49779">
        <ele>444.6</ele>
        <time>2024-02-04T11:13:06Z</time>
      </trkpt>
      <trkpt lat="43.18048" lon="6.49779">
        <ele>444.7</ele>
        <time>2024-02-04T11:13:07Z</time>
      </trkpt>
      <trkpt lat="43.18048" lon="6.4978">
        <ele>444.8</ele>
        <time>2024-02-04T11:13:08Z</time>
      </trkpt>
      <trkpt lat="43.18049" lon="6.4978">
        <ele>445</ele>
        <time>2024-02-04T11:13:09Z</time>
      </trkpt>
      <trkpt lat="43.18049" lon="6.49781">
        <ele>445.2</ele>
        <time>2024-02-04T11:13:10Z</time>
      </trkpt>
      <trkpt lat="43.18049" lon="6.49782">
        <ele>445.4</ele>
        <time>2024-02-04T11:13:11Z</time>
      </trkpt>
      <trkpt lat="43.1805" lon="6.49783">
        <ele>445.5</ele>
        <time>2024-02-04T11:13:12Z</time>
      </trkpt>
      <trkpt lat="43.18049" lon="6.49783">
        <ele>445.7</ele>
        <time>2024-02-04T11:13:13Z</time>
      </trkpt>
      <trkpt lat="43.18049" lon="6.49783">
        <ele>445.8</ele>
        <time>2024-02-04T11:13:14Z</time>
      </trkpt>
      <trkpt lat="43.18049" lon="6.49783">
        <ele>446</ele>
        <time>2024-02-04T11:13:15Z</time>
      </trkpt>
      <trkpt lat="43.18049" lon="6.49784">
        <ele>446.1</ele>
        <time>2024-02-04T11:13:16Z</time>
      </trkpt>
      <trkpt lat="43.18049" lon="6.49784">
        <ele>446.2</ele>
        <time>2024-02-04T11:13:17Z</time>
      </trkpt>
      <trkpt lat="43.18049" lon="6.49784">
        <ele>446.3</ele>
        <time>2024-02-04T11:13:18Z</time>
      </trkpt>
      <trkpt lat="43.18049" lon="6.49784">
        <ele>446.4</ele>
        <time>2024-02-04T11:13:19Z</time>
      </trkpt>
      <trkpt lat="43.18049" lon="6.49784">
        <ele>446.5</ele>
        <time>2024-02-04T11:13:20Z</time>
      </trkpt>
      <trkpt lat="43.18049" lon="6.49784">
        <ele>446.5</ele>
        <time>2024-02-04T11:13:21Z</time>
      </trkpt>
      <trkpt lat="43.18049" lon="6.49783">
        <ele>446.5</ele>
        <time>2024-02-04T11:13:22Z</time>
      </trkpt>
      <trkpt lat="43.18049" lon="6.49784">
        <ele>446.5</ele>
        <time>2024-02-04T11:13:23Z</time>
      </trkpt>
      <trkpt lat="43.18049" lon="6.49784">
        <ele>446.6</ele>
        <time>2024-02-04T11:13:24Z</time>
      </trkpt>
      <trkpt lat="43.18049" lon="6.49784">
        <ele>446.5</ele>
        <time>2024-02-04T11:13:25Z</time>
      </trkpt>
      <trkpt lat="43.18049" lon="6.49784">
        <ele>446.5</ele>
        <time>2024-02-04T11:13:26Z</time>
      </trkpt>
      <trkpt lat="43.18049" lon="6.49784">
        <ele>446.6</ele>
        <time>2024-02-04T11:13:27Z</time>
      </trkpt>
      <trkpt lat="43.18049" lon="6.49784">
        <ele>446.6</ele>
        <time>2024-02-04T11:13:28Z</time>
      </trkpt>
      <trkpt lat="43.18049" lon="6.49784">
        <ele>446.6</ele>
        <time>2024-02-04T11:13:29Z</time>
      </trkpt>
      <trkpt lat="43.18049" lon="6.49784">
        <ele>446.6</ele>
        <time>2024-02-04T11:13:30Z</time>
      </trkpt>
      <trkpt lat="43.1805" lon="6.49784">
        <ele>446.6</ele>
        <time>2024-02-04T11:13:31Z</time>
      </trkpt>
      <trkpt lat="43.1805" lon="6.49784">
        <ele>446.6</ele>
        <time>2024-02-04T11:13:32Z</time>
      </trkpt>
      <trkpt lat="43.1805" lon="6.49783">
        <ele>446.6</ele>
        <time>2024-02-04T11:13:33Z</time>
      </trkpt>
      <trkpt lat="43.1805" lon="6.49784">
        <ele>446.6</ele>
        <time>2024-02-04T11:13:34Z</time>
      </trkpt>
      <trkpt lat="43.1805" lon="6.49784">
        <ele>446.6</ele>
        <time>2024-02-04T11:13:35Z</time>
      </trkpt>
      <trkpt lat="43.1805" lon="6.49784">
        <ele>446.6</ele>
        <time>2024-02-04T11:13:36Z</time>
      </trkpt>
      <trkpt lat="43.1805" lon="6.49784">
        <ele>446.7</ele>
        <time>2024-02-04T11:13:37Z</time>
      </trkpt>
      <trkpt lat="43.18049" lon="6.49784">
        <ele>446.7</ele>
        <time>2024-02-04T11:13:38Z</time>
      </trkpt>
      <trkpt lat="43.18049" lon="6.49784">
        <ele>446.7</ele>
        <time>2024-02-04T11:13:39Z</time>
      </trkpt>
      <trkpt lat="43.18049" lon="6.49784">
        <ele>446.7</ele>
        <time>2024-02-04T11:13:40Z</time>
      </trkpt>
      <trkpt lat="43.18049" lon="6.49784">
        <ele>446.7</ele>
        <time>2024-02-04T11:13:41Z</time>
      </trkpt>
      <trkpt lat="43.18049" lon="6.49784">
        <ele>446.7</ele>
        <time>2024-02-04T11:13:42Z</time>
      </trkpt>
      <trkpt lat="43.18049" lon="6.49784">
        <ele>446.7</ele>
        <time>2024-02-04T11:13:43Z</time>
      </trkpt>
      <trkpt lat="43.18049" lon="6.49784">
        <ele>446.6</ele>
        <time>2024-02-04T11:13:44Z</time>
      </trkpt>
      <trkpt lat="43.1805" lon="6.49784">
        <ele>446.6</ele>
        <time>2024-02-04T11:13:45Z</time>
      </trkpt>
      <trkpt lat="43.1805" lon="6.49784">
        <ele>446.6</ele>
        <time>2024-02-04T11:13:46Z</time>
      </trkpt>
      <trkpt lat="43.18049" lon="6.49784">
        <ele>446.6</ele>
        <time>2024-02-04T11:13:47Z</time>
      </trkpt>
      <trkpt lat="43.18049" lon="6.49784">
        <ele>446.6</ele>
        <time>2024-02-04T11:13:48Z</time>
      </trkpt>
      <trkpt lat="43.18049" lon="6.49784">
        <ele>446.6</ele>
        <time>2024-02-04T11:13:49Z</time>
      </trkpt>
      <trkpt lat="43.18049" lon="6.49784">
        <ele>446.7</ele>
        <time>2024-02-04T11:13:50Z</time>
      </trkpt>
      <trkpt lat="43.18049" lon="6.49784">
        <ele>446.7</ele>
        <time>2024-02-04T11:13:51Z</time>
      </trkpt>
      <trkpt lat="43.18049" lon="6.49784">
        <ele>446.7</ele>
        <time>2024-02-04T11:13:52Z</time>
      </trkpt>
      <trkpt lat="43.18049" lon="6.49784">
        <ele>446.7</ele>
        <time>2024-02-04T11:13:53Z</time>
      </trkpt>
      <trkpt lat="43.18049" lon="6.49784">
        <ele>446.7</ele>
        <time>2024-02-04T11:13:54Z</time>
      </trkpt>
      <trkpt lat="43.18049" lon="6.49784">
        <ele>446.7</ele>
        <time>2024-02-04T11:13:55Z</time>
      </trkpt>
      <trkpt lat="43.18049" lon="6.49784">
        <ele>446.8</ele>
        <time>2024-02-04T11:13:56Z</time>
      </trkpt>
      <trkpt lat="43.18049" lon="6.49784">
        <ele>446.8</ele>
        <time>2024-02-04T11:13:57Z</time>
      </trkpt>
      <trkpt lat="43.18049" lon="6.49784">
        <ele>446.8</ele>
        <time>2024-02-04T11:13:58Z</time>
      </trkpt>
      <trkpt lat="43.1805" lon="6.49784">
        <ele>446.8</ele>
        <time>2024-02-04T11:13:59Z</time>
      </trkpt>
      <trkpt lat="43.1805" lon="6.49784">
        <ele>446.9</ele>
        <time>2024-02-04T11:14:00Z</time>
      </trkpt>
      <trkpt lat="43.1805" lon="6.49784">
        <ele>446.9</ele>
        <time>2024-02-04T11:14:01Z</time>
      </trkpt>
      <trkpt lat="43.1805" lon="6.49784">
        <ele>447</ele>
        <time>2024-02-04T11:14:02Z</time>
      </trkpt>
      <trkpt lat="43.1805" lon="6.49784">
        <ele>447</ele>
        <time>2024-02-04T11:14:03Z</time>
      </trkpt>
      <trkpt lat="43.1805" lon="6.49784">
        <ele>447</ele>
        <time>2024-02-04T11:14:04Z</time>
      </trkpt>
      <trkpt lat="43.1805" lon="6.49784">
        <ele>447.1</ele>
        <time>2024-02-04T11:14:05Z</time>
      </trkpt>
      <trkpt lat="43.1805" lon="6.49785">
        <ele>447</ele>
        <time>2024-02-04T11:14:06Z</time>
      </trkpt>
      <trkpt lat="43.1805" lon="6.49785">
        <ele>446.9</ele>
        <time>2024-02-04T11:14:07Z</time>
      </trkpt>
      <trkpt lat="43.1805" lon="6.49785">
        <ele>446.8</ele>
        <time>2024-02-04T11:14:08Z</time>
      </trkpt>
      <trkpt lat="43.18049" lon="6.49785">
        <ele>446.8</ele>
        <time>2024-02-04T11:14:09Z</time>
      </trkpt>
      <trkpt lat="43.18049" lon="6.49785">
        <ele>446.8</ele>
        <time>2024-02-04T11:14:10Z</time>
      </trkpt>
      <trkpt lat="43.18049" lon="6.49785">
        <ele>446.8</ele>
        <time>2024-02-04T11:14:11Z</time>
      </trkpt>
      <trkpt lat="43.1805" lon="6.49785">
        <ele>446.8</ele>
        <time>2024-02-04T11:14:12Z</time>
      </trkpt>
      <trkpt lat="43.18049" lon="6.49785">
        <ele>446.8</ele>
        <time>2024-02-04T11:14:13Z</time>
      </trkpt>
      <trkpt lat="43.1805" lon="6.49785">
        <ele>446.8</ele>
        <time>2024-02-04T11:14:14Z</time>
      </trkpt>
      <trkpt lat="43.18049" lon="6.49785">
        <ele>446.7</ele>
        <time>2024-02-04T11:14:15Z</time>
      </trkpt>
      <trkpt lat="43.18049" lon="6.49785">
        <ele>446.6</ele>
        <time>2024-02-04T11:14:16Z</time>
      </trkpt>
      <trkpt lat="43.18049" lon="6.49785">
        <ele>446.6</ele>
        <time>2024-02-04T11:14:17Z</time>
      </trkpt>
      <trkpt lat="43.18049" lon="6.49785">
        <ele>446.6</ele>
        <time>2024-02-04T11:14:18Z</time>
      </trkpt>
      <trkpt lat="43.18049" lon="6.49785">
        <ele>446.6</ele>
        <time>2024-02-04T11:14:19Z</time>
      </trkpt>
      <trkpt lat="43.1805" lon="6.49785">
        <ele>446.7</ele>
        <time>2024-02-04T11:14:20Z</time>
      </trkpt>
      <trkpt lat="43.18049" lon="6.49786">
        <ele>446.7</ele>
        <time>2024-02-04T11:14:21Z</time>
      </trkpt>
      <trkpt lat="43.18049" lon="6.49786">
        <ele>446.8</ele>
        <time>2024-02-04T11:14:22Z</time>
      </trkpt>
      <trkpt lat="43.18049" lon="6.49786">
        <ele>446.8</ele>
        <time>2024-02-04T11:14:23Z</time>
      </trkpt>
      <trkpt lat="43.18049" lon="6.49786">
        <ele>446.9</ele>
        <time>2024-02-04T11:14:24Z</time>
      </trkpt>
      <trkpt lat="43.18049" lon="6.49786">
        <ele>446.9</ele>
        <time>2024-02-04T11:14:25Z</time>
      </trkpt>
      <trkpt lat="43.18049" lon="6.49786">
        <ele>447</ele>
        <time>2024-02-04T11:14:26Z</time>
      </trkpt>
      <trkpt lat="43.18049" lon="6.49786">
        <ele>447</ele>
        <time>2024-02-04T11:14:27Z</time>
      </trkpt>
      <trkpt lat="43.18049" lon="6.49786">
        <ele>447</ele>
        <time>2024-02-04T11:14:28Z</time>
      </trkpt>
      <trkpt lat="43.18049" lon="6.49786">
        <ele>447</ele>
        <time>2024-02-04T11:14:29Z</time>
      </trkpt>
      <trkpt lat="43.18049" lon="6.49786">
        <ele>447</ele>
        <time>2024-02-04T11:14:30Z</time>
      </trkpt>
      <trkpt lat="43.18049" lon="6.49786">
        <ele>447</ele>
        <time>2024-02-04T11:14:31Z</time>
      </trkpt>
      <trkpt lat="43.18049" lon="6.49786">
        <ele>447.1</ele>
        <time>2024-02-04T11:14:32Z</time>
      </trkpt>
      <trkpt lat="43.18049" lon="6.49786">
        <ele>447.1</ele>
        <time>2024-02-04T11:14:33Z</time>
      </trkpt>
      <trkpt lat="43.18049" lon="6.49786">
        <ele>447.2</ele>
        <time>2024-02-04T11:14:34Z</time>
      </trkpt>
      <trkpt lat="43.18049" lon="6.49786">
        <ele>447.1</ele>
        <time>2024-02-04T11:14:35Z</time>
      </trkpt>
      <trkpt lat="43.18049" lon="6.49786">
        <ele>447.1</ele>
        <time>2024-02-04T11:14:36Z</time>
      </trkpt>
      <trkpt lat="43.18049" lon="6.49786">
        <ele>447</ele>
        <time>2024-02-04T11:14:37Z</time>
      </trkpt>
      <trkpt lat="43.18049" lon="6.49786">
        <ele>447</ele>
        <time>2024-02-04T11:14:38Z</time>
      </trkpt>
      <trkpt lat="43.18049" lon="6.49786">
        <ele>447</ele>
        <time>2024-02-04T11:14:39Z</time>
      </trkpt>
      <trkpt lat="43.18049" lon="6.49786">
        <ele>447</ele>
        <time>2024-02-04T11:14:40Z</time>
      </trkpt>
      <trkpt lat="43.18049" lon="6.49786">
        <ele>447</ele>
        <time>2024-02-04T11:14:41Z</time>
      </trkpt>
      <trkpt lat="43.18049" lon="6.49786">
        <ele>447</ele>
        <time>2024-02-04T11:14:42Z</time>
      </trkpt>
      <trkpt lat="43.18049" lon="6.49786">
        <ele>447.1</ele>
        <time>2024-02-04T11:14:43Z</time>
      </trkpt>
      <trkpt lat="43.18049" lon="6.49786">
        <ele>447.1</ele>
        <time>2024-02-04T11:14:44Z</time>
      </trkpt>
      <trkpt lat="43.18049" lon="6.49786">
        <ele>447.2</ele>
        <time>2024-02-04T11:14:45Z</time>
      </trkpt>
      <trkpt lat="43.18049" lon="6.49787">
        <ele>447.2</ele>
        <time>2024-02-04T11:14:46Z</time>
      </trkpt>
      <trkpt lat="43.18049" lon="6.49787">
        <ele>447.2</ele>
        <time>2024-02-04T11:14:47Z</time>
      </trkpt>
      <trkpt lat="43.18049" lon="6.49787">
        <ele>447.2</ele>
        <time>2024-02-04T11:14:48Z</time>
      </trkpt>
      <trkpt lat="43.18049" lon="6.49787">
        <ele>447.3</ele>
        <time>2024-02-04T11:14:49Z</time>
      </trkpt>
      <trkpt lat="43.18049" lon="6.49787">
        <ele>447.3</ele>
        <time>2024-02-04T11:14:50Z</time>
      </trkpt>
      <trkpt lat="43.18049" lon="6.49787">
        <ele>447.3</ele>
        <time>2024-02-04T11:14:51Z</time>
      </trkpt>
      <trkpt lat="43.18049" lon="6.49787">
        <ele>447.3</ele>
        <time>2024-02-04T11:14:52Z</time>
      </trkpt>
      <trkpt lat="43.18049" lon="6.49786">
        <ele>447.3</ele>
        <time>2024-02-04T11:14:53Z</time>
      </trkpt>
      <trkpt lat="43.18049" lon="6.49786">
        <ele>447.3</ele>
        <time>2024-02-04T11:14:54Z</time>
      </trkpt>
      <trkpt lat="43.18049" lon="6.49787">
        <ele>447.3</ele>
        <time>2024-02-04T11:14:55Z</time>
      </trkpt>
      <trkpt lat="43.18049" lon="6.49787">
        <ele>447.3</ele>
        <time>2024-02-04T11:14:56Z</time>
      </trkpt>
      <trkpt lat="43.18049" lon="6.49787">
        <ele>447.3</ele>
        <time>2024-02-04T11:14:57Z</time>
      </trkpt>
      <trkpt lat="43.18049" lon="6.49787">
        <ele>447.3</ele>
        <time>2024-02-04T11:14:58Z</time>
      </trkpt>
      <trkpt lat="43.18049" lon="6.49787">
        <ele>447.3</ele>
        <time>2024-02-04T11:14:59Z</time>
      </trkpt>
      <trkpt lat="43.18049" lon="6.49787">
        <ele>447.3</ele>
        <time>2024-02-04T11:15:00Z</time>
      </trkpt>
      <trkpt lat="43.18049" lon="6.49787">
        <ele>447.3</ele>
        <time>2024-02-04T11:15:01Z</time>
      </trkpt>
      <trkpt lat="43.18049" lon="6.49787">
        <ele>447.3</ele>
        <time>2024-02-04T11:15:02Z</time>
      </trkpt>
      <trkpt lat="43.18049" lon="6.49787">
        <ele>447.3</ele>
        <time>2024-02-04T11:15:03Z</time>
      </trkpt>
      <trkpt lat="43.18048" lon="6.49787">
        <ele>447.3</ele>
        <time>2024-02-04T11:15:04Z</time>
      </trkpt>
      <trkpt lat="43.18048" lon="6.49788">
        <ele>447.3</ele>
        <time>2024-02-04T11:15:05Z</time>
      </trkpt>
      <trkpt lat="43.18048" lon="6.49788">
        <ele>447.4</ele>
        <time>2024-02-04T11:15:06Z</time>
      </trkpt>
      <trkpt lat="43.18048" lon="6.49788">
        <ele>447.4</ele>
        <time>2024-02-04T11:15:07Z</time>
      </trkpt>
      <trkpt lat="43.18048" lon="6.49788">
        <ele>447.4</ele>
        <time>2024-02-04T11:15:08Z</time>
      </trkpt>
      <trkpt lat="43.18048" lon="6.49788">
        <ele>447.4</ele>
        <time>2024-02-04T11:15:09Z</time>
      </trkpt>
      <trkpt lat="43.18048" lon="6.49788">
        <ele>447.4</ele>
        <time>2024-02-04T11:15:10Z</time>
      </trkpt>
      <trkpt lat="43.18048" lon="6.49788">
        <ele>447.4</ele>
        <time>2024-02-04T11:15:11Z</time>
      </trkpt>
      <trkpt lat="43.18048" lon="6.49787">
        <ele>447.4</ele>
        <time>2024-02-04T11:15:12Z</time>
      </trkpt>
      <trkpt lat="43.18048" lon="6.49787">
        <ele>447.4</ele>
        <time>2024-02-04T11:15:13Z</time>
      </trkpt>
      <trkpt lat="43.18048" lon="6.49787">
        <ele>447.4</ele>
        <time>2024-02-04T11:15:14Z</time>
      </trkpt>
      <trkpt lat="43.18048" lon="6.49787">
        <ele>447.3</ele>
        <time>2024-02-04T11:15:15Z</time>
      </trkpt>
      <trkpt lat="43.18049" lon="6.49787">
        <ele>447.3</ele>
        <time>2024-02-04T11:15:16Z</time>
      </trkpt>
      <trkpt lat="43.18049" lon="6.49787">
        <ele>447.3</ele>
        <time>2024-02-04T11:15:17Z</time>
      </trkpt>
      <trkpt lat="43.18049" lon="6.49787">
        <ele>447.2</ele>
        <time>2024-02-04T11:15:18Z</time>
      </trkpt>
      <trkpt lat="43.18048" lon="6.49787">
        <ele>447.1</ele>
        <time>2024-02-04T11:15:19Z</time>
      </trkpt>
      <trkpt lat="43.18049" lon="6.49787">
        <ele>447</ele>
        <time>2024-02-04T11:15:20Z</time>
      </trkpt>
      <trkpt lat="43.18049" lon="6.49787">
        <ele>447.1</ele>
        <time>2024-02-04T11:15:21Z</time>
      </trkpt>
      <trkpt lat="43.18049" lon="6.49787">
        <ele>447.1</ele>
        <time>2024-02-04T11:15:22Z</time>
      </trkpt>
      <trkpt lat="43.18048" lon="6.49787">
        <ele>447.1</ele>
        <time>2024-02-04T11:15:23Z</time>
      </trkpt>
      <trkpt lat="43.18048" lon="6.49787">
        <ele>447.2</ele>
        <time>2024-02-04T11:15:24Z</time>
      </trkpt>
      <trkpt lat="43.18048" lon="6.49787">
        <ele>447.1</ele>
        <time>2024-02-04T11:15:25Z</time>
      </trkpt>
      <trkpt lat="43.18048" lon="6.49787">
        <ele>447.1</ele>
        <time>2024-02-04T11:15:26Z</time>
      </trkpt>
      <trkpt lat="43.18048" lon="6.49787">
        <ele>447.2</ele>
        <time>2024-02-04T11:15:27Z</time>
      </trkpt>
      <trkpt lat="43.18048" lon="6.49787">
        <ele>447.2</ele>
        <time>2024-02-04T11:15:28Z</time>
      </trkpt>
      <trkpt lat="43.18048" lon="6.49787">
        <ele>447.3</ele>
        <time>2024-02-04T11:15:29Z</time>
      </trkpt>
      <trkpt lat="43.18048" lon="6.49787">
        <ele>447.3</ele>
        <time>2024-02-04T11:15:30Z</time>
      </trkpt>
      <trkpt lat="43.18048" lon="6.49787">
        <ele>447.3</ele>
        <time>2024-02-04T11:15:31Z</time>
      </trkpt>
      <trkpt lat="43.18048" lon="6.49787">
        <ele>447.3</ele>
        <time>2024-02-04T11:15:32Z</time>
      </trkpt>
      <trkpt lat="43.18048" lon="6.49787">
        <ele>447.3</ele>
        <time>2024-02-04T11:15:33Z</time>
      </trkpt>
      <trkpt lat="43.18048" lon="6.49787">
        <ele>447.3</ele>
        <time>2024-02-04T11:15:34Z</time>
      </trkpt>
      <trkpt lat="43.18048" lon="6.49787">
        <ele>447.3</ele>
        <time>2024-02-04T11:15:35Z</time>
      </trkpt>
      <trkpt lat="43.18048" lon="6.49787">
        <ele>447.3</ele>
        <time>2024-02-04T11:15:36Z</time>
      </trkpt>
      <trkpt lat="43.18048" lon="6.49787">
        <ele>447.3</ele>
        <time>2024-02-04T11:15:37Z</time>
      </trkpt>
      <trkpt lat="43.18049" lon="6.49787">
        <ele>447.3</ele>
        <time>2024-02-04T11:15:38Z</time>
      </trkpt>
      <trkpt lat="43.18049" lon="6.49787">
        <ele>447.2</ele>
        <time>2024-02-04T11:15:39Z</time>
      </trkpt>
      <trkpt lat="43.18049" lon="6.49786">
        <ele>447.2</ele>
        <time>2024-02-04T11:15:40Z</time>
      </trkpt>
      <trkpt lat="43.18049" lon="6.49786">
        <ele>447.3</ele>
        <time>2024-02-04T11:15:41Z</time>
      </trkpt>
      <trkpt lat="43.18049" lon="6.49786">
        <ele>447.4</ele>
        <time>2024-02-04T11:15:42Z</time>
      </trkpt>
      <trkpt lat="43.18049" lon="6.49786">
        <ele>447.4</ele>
        <time>2024-02-04T11:15:43Z</time>
      </trkpt>
      <trkpt lat="43.18049" lon="6.49786">
        <ele>447.4</ele>
        <time>2024-02-04T11:15:44Z</time>
      </trkpt>
      <trkpt lat="43.18049" lon="6.49786">
        <ele>447.4</ele>
        <time>2024-02-04T11:15:45Z</time>
      </trkpt>
      <trkpt lat="43.18049" lon="6.49786">
        <ele>447.4</ele>
        <time>2024-02-04T11:15:46Z</time>
      </trkpt>
      <trkpt lat="43.18049" lon="6.49786">
        <ele>447.4</ele>
        <time>2024-02-04T11:15:47Z</time>
      </trkpt>
      <trkpt lat="43.18049" lon="6.49786">
        <ele>447.4</ele>
        <time>2024-02-04T11:15:48Z</time>
      </trkpt>
      <trkpt lat="43.18049" lon="6.49786">
        <ele>447.4</ele>
        <time>2024-02-04T11:15:49Z</time>
      </trkpt>
      <trkpt lat="43.18049" lon="6.49786">
        <ele>447.4</ele>
        <time>2024-02-04T11:15:50Z</time>
      </trkpt>
      <trkpt lat="43.18049" lon="6.49786">
        <ele>447.4</ele>
        <time>2024-02-04T11:15:51Z</time>
      </trkpt>
      <trkpt lat="43.18049" lon="6.49786">
        <ele>447.4</ele>
        <time>2024-02-04T11:15:52Z</time>
      </trkpt>
      <trkpt lat="43.18049" lon="6.49786">
        <ele>447.4</ele>
        <time>2024-02-04T11:15:53Z</time>
      </trkpt>
      <trkpt lat="43.18049" lon="6.49786">
        <ele>447.4</ele>
        <time>2024-02-04T11:15:54Z</time>
      </trkpt>
      <trkpt lat="43.18049" lon="6.49786">
        <ele>447.4</ele>
        <time>2024-02-04T11:15:55Z</time>
      </trkpt>
      <trkpt lat="43.18049" lon="6.49786">
        <ele>447.3</ele>
        <time>2024-02-04T11:15:56Z</time>
      </trkpt>
      <trkpt lat="43.18049" lon="6.49786">
        <ele>447.3</ele>
        <time>2024-02-04T11:15:57Z</time>
      </trkpt>
      <trkpt lat="43.18049" lon="6.49786">
        <ele>447.3</ele>
        <time>2024-02-04T11:15:58Z</time>
      </trkpt>
      <trkpt lat="43.18049" lon="6.49786">
        <ele>447.3</ele>
        <time>2024-02-04T11:15:59Z</time>
      </trkpt>
      <trkpt lat="43.18049" lon="6.49786">
        <ele>447.2</ele>
        <time>2024-02-04T11:16:00Z</time>
      </trkpt>
      <trkpt lat="43.18049" lon="6.49786">
        <ele>447.2</ele>
        <time>2024-02-04T11:16:01Z</time>
      </trkpt>
      <trkpt lat="43.18049" lon="6.49786">
        <ele>447.1</ele>
        <time>2024-02-04T11:16:02Z</time>
      </trkpt>
      <trkpt lat="43.18049" lon="6.49785">
        <ele>447.1</ele>
        <time>2024-02-04T11:16:03Z</time>
      </trkpt>
      <trkpt lat="43.18049" lon="6.49785">
        <ele>447.1</ele>
        <time>2024-02-04T11:16:04Z</time>
      </trkpt>
      <trkpt lat="43.18049" lon="6.49785">
        <ele>447</ele>
        <time>2024-02-04T11:16:05Z</time>
      </trkpt>
      <trkpt lat="43.18049" lon="6.49786">
        <ele>446.9</ele>
        <time>2024-02-04T11:16:06Z</time>
      </trkpt>
      <trkpt lat="43.18049" lon="6.49786">
        <ele>446.8</ele>
        <time>2024-02-04T11:16:07Z</time>
      </trkpt>
      <trkpt lat="43.18049" lon="6.49786">
        <ele>446.8</ele>
        <time>2024-02-04T11:16:08Z</time>
      </trkpt>
      <trkpt lat="43.18049" lon="6.49786">
        <ele>446.8</ele>
        <time>2024-02-04T11:16:09Z</time>
      </trkpt>
      <trkpt lat="43.18049" lon="6.49785">
        <ele>446.8</ele>
        <time>2024-02-04T11:16:10Z</time>
      </trkpt>
      <trkpt lat="43.18049" lon="6.49785">
        <ele>446.8</ele>
        <time>2024-02-04T11:16:11Z</time>
      </trkpt>
      <trkpt lat="43.18049" lon="6.49785">
        <ele>446.8</ele>
        <time>2024-02-04T11:16:12Z</time>
      </trkpt>
      <trkpt lat="43.18048" lon="6.49786">
        <ele>446.8</ele>
        <time>2024-02-04T11:16:13Z</time>
      </trkpt>
      <trkpt lat="43.18048" lon="6.49786">
        <ele>446.8</ele>
        <time>2024-02-04T11:16:14Z</time>
      </trkpt>
      <trkpt lat="43.18048" lon="6.49786">
        <ele>446.8</ele>
        <time>2024-02-04T11:16:15Z</time>
      </trkpt>
      <trkpt lat="43.18048" lon="6.49786">
        <ele>446.8</ele>
        <time>2024-02-04T11:16:16Z</time>
      </trkpt>
      <trkpt lat="43.18048" lon="6.49786">
        <ele>446.8</ele>
        <time>2024-02-04T11:16:17Z</time>
      </trkpt>
      <trkpt lat="43.18048" lon="6.49786">
        <ele>446.8</ele>
        <time>2024-02-04T11:16:18Z</time>
      </trkpt>
      <trkpt lat="43.18048" lon="6.49786">
        <ele>446.8</ele>
        <time>2024-02-04T11:16:19Z</time>
      </trkpt>
      <trkpt lat="43.18049" lon="6.49786">
        <ele>446.8</ele>
        <time>2024-02-04T11:16:20Z</time>
      </trkpt>
      <trkpt lat="43.18049" lon="6.49786">
        <ele>446.9</ele>
        <time>2024-02-04T11:16:21Z</time>
      </trkpt>
      <trkpt lat="43.18048" lon="6.49786">
        <ele>447</ele>
        <time>2024-02-04T11:16:22Z</time>
      </trkpt>
      <trkpt lat="43.18049" lon="6.49786">
        <ele>447</ele>
        <time>2024-02-04T11:16:23Z</time>
      </trkpt>
      <trkpt lat="43.18049" lon="6.49786">
        <ele>447</ele>
        <time>2024-02-04T11:16:24Z</time>
      </trkpt>
      <trkpt lat="43.18049" lon="6.49786">
        <ele>447</ele>
        <time>2024-02-04T11:16:25Z</time>
      </trkpt>
      <trkpt lat="43.18049" lon="6.49786">
        <ele>447</ele>
        <time>2024-02-04T11:16:26Z</time>
      </trkpt>
      <trkpt lat="43.18049" lon="6.49785">
        <ele>447.1</ele>
        <time>2024-02-04T11:16:27Z</time>
      </trkpt>
      <trkpt lat="43.18049" lon="6.49785">
        <ele>447.1</ele>
        <time>2024-02-04T11:16:28Z</time>
      </trkpt>
      <trkpt lat="43.18049" lon="6.49785">
        <ele>447.1</ele>
        <time>2024-02-04T11:16:29Z</time>
      </trkpt>
      <trkpt lat="43.18049" lon="6.49785">
        <ele>447.1</ele>
        <time>2024-02-04T11:16:30Z</time>
      </trkpt>
      <trkpt lat="43.18049" lon="6.49785">
        <ele>447.1</ele>
        <time>2024-02-04T11:16:31Z</time>
      </trkpt>
      <trkpt lat="43.18049" lon="6.49785">
        <ele>447.1</ele>
        <time>2024-02-04T11:16:32Z</time>
      </trkpt>
      <trkpt lat="43.18049" lon="6.49785">
        <ele>447.1</ele>
        <time>2024-02-04T11:16:33Z</time>
      </trkpt>
      <trkpt lat="43.18049" lon="6.49785">
        <ele>447.1</ele>
        <time>2024-02-04T11:16:34Z</time>
      </trkpt>
      <trkpt lat="43.18049" lon="6.49785">
        <ele>447.2</ele>
        <time>2024-02-04T11:16:35Z</time>
      </trkpt>
      <trkpt lat="43.18049" lon="6.49785">
        <ele>447.2</ele>
        <time>2024-02-04T11:16:36Z</time>
      </trkpt>
      <trkpt lat="43.18049" lon="6.49785">
        <ele>447.2</ele>
        <time>2024-02-04T11:16:37Z</time>
      </trkpt>
      <trkpt lat="43.18049" lon="6.49785">
        <ele>447.1</ele>
        <time>2024-02-04T11:16:38Z</time>
      </trkpt>
      <trkpt lat="43.18049" lon="6.49785">
        <ele>447.2</ele>
        <time>2024-02-04T11:16:39Z</time>
      </trkpt>
      <trkpt lat="43.18049" lon="6.49785">
        <ele>447.2</ele>
        <time>2024-02-04T11:16:40Z</time>
      </trkpt>
      <trkpt lat="43.18049" lon="6.49785">
        <ele>447.1</ele>
        <time>2024-02-04T11:16:41Z</time>
      </trkpt>
      <trkpt lat="43.18049" lon="6.49785">
        <ele>447.1</ele>
        <time>2024-02-04T11:16:42Z</time>
      </trkpt>
      <trkpt lat="43.18049" lon="6.49785">
        <ele>447.2</ele>
        <time>2024-02-04T11:16:43Z</time>
      </trkpt>
      <trkpt lat="43.18049" lon="6.49785">
        <ele>447.2</ele>
        <time>2024-02-04T11:16:44Z</time>
      </trkpt>
      <trkpt lat="43.18049" lon="6.49785">
        <ele>447.2</ele>
        <time>2024-02-04T11:16:45Z</time>
      </trkpt>
      <trkpt lat="43.18049" lon="6.49785">
        <ele>447.2</ele>
        <time>2024-02-04T11:16:46Z</time>
      </trkpt>
      <trkpt lat="43.18049" lon="6.49785">
        <ele>447.2</ele>
        <time>2024-02-04T11:16:47Z</time>
      </trkpt>
      <trkpt lat="43.1805" lon="6.49785">
        <ele>447.2</ele>
        <time>2024-02-04T11:16:48Z</time>
      </trkpt>
      <trkpt lat="43.1805" lon="6.49785">
        <ele>447.3</ele>
        <time>2024-02-04T11:16:49Z</time>
      </trkpt>
      <trkpt lat="43.1805" lon="6.49786">
        <ele>447.2</ele>
        <time>2024-02-04T11:16:50Z</time>
      </trkpt>
      <trkpt lat="43.18049" lon="6.49786">
        <ele>447.2</ele>
        <time>2024-02-04T11:16:51Z</time>
      </trkpt>
      <trkpt lat="43.1805" lon="6.49786">
        <ele>447.3</ele>
        <time>2024-02-04T11:16:52Z</time>
      </trkpt>
      <trkpt lat="43.18049" lon="6.49786">
        <ele>447.3</ele>
        <time>2024-02-04T11:16:53Z</time>
      </trkpt>
      <trkpt lat="43.18049" lon="6.49786">
        <ele>447.3</ele>
        <time>2024-02-04T11:16:54Z</time>
      </trkpt>
      <trkpt lat="43.18049" lon="6.49786">
        <ele>447.3</ele>
        <time>2024-02-04T11:16:55Z</time>
      </trkpt>
      <trkpt lat="43.18049" lon="6.49786">
        <ele>447.3</ele>
        <time>2024-02-04T11:16:56Z</time>
      </trkpt>
      <trkpt lat="43.18049" lon="6.49786">
        <ele>447.3</ele>
        <time>2024-02-04T11:16:57Z</time>
      </trkpt>
      <trkpt lat="43.1805" lon="6.49786">
        <ele>447.4</ele>
        <time>2024-02-04T11:16:58Z</time>
      </trkpt>
      <trkpt lat="43.1805" lon="6.49786">
        <ele>447.4</ele>
        <time>2024-02-04T11:16:59Z</time>
      </trkpt>
      <trkpt lat="43.1805" lon="6.49786">
        <ele>447.3</ele>
        <time>2024-02-04T11:17:00Z</time>
      </trkpt>
      <trkpt lat="43.1805" lon="6.49786">
        <ele>447.3</ele>
        <time>2024-02-04T11:17:01Z</time>
      </trkpt>
      <trkpt lat="43.1805" lon="6.49786">
        <ele>447.2</ele>
        <time>2024-02-04T11:17:02Z</time>
      </trkpt>
      <trkpt lat="43.1805" lon="6.49786">
        <ele>447.2</ele>
        <time>2024-02-04T11:17:03Z</time>
      </trkpt>
      <trkpt lat="43.1805" lon="6.49786">
        <ele>447.1</ele>
        <time>2024-02-04T11:17:04Z</time>
      </trkpt>
      <trkpt lat="43.1805" lon="6.49786">
        <ele>447.1</ele>
        <time>2024-02-04T11:17:05Z</time>
      </trkpt>
      <trkpt lat="43.1805" lon="6.49786">
        <ele>447.2</ele>
        <time>2024-02-04T11:17:06Z</time>
      </trkpt>
      <trkpt lat="43.1805" lon="6.49786">
        <ele>447.2</ele>
        <time>2024-02-04T11:17:07Z</time>
      </trkpt>
      <trkpt lat="43.1805" lon="6.49786">
        <ele>447.2</ele>
        <time>2024-02-04T11:17:08Z</time>
      </trkpt>
      <trkpt lat="43.1805" lon="6.49786">
        <ele>447.2</ele>
        <time>2024-02-04T11:17:09Z</time>
      </trkpt>
      <trkpt lat="43.1805" lon="6.49786">
        <ele>447.2</ele>
        <time>2024-02-04T11:17:10Z</time>
      </trkpt>
      <trkpt lat="43.1805" lon="6.49786">
        <ele>447.2</ele>
        <time>2024-02-04T11:17:11Z</time>
      </trkpt>
      <trkpt lat="43.1805" lon="6.49786">
        <ele>447.3</ele>
        <time>2024-02-04T11:17:12Z</time>
      </trkpt>
      <trkpt lat="43.18049" lon="6.49786">
        <ele>447.3</ele>
        <time>2024-02-04T11:17:13Z</time>
      </trkpt>
      <trkpt lat="43.1805" lon="6.49786">
        <ele>447.3</ele>
        <time>2024-02-04T11:17:14Z</time>
      </trkpt>
      <trkpt lat="43.1805" lon="6.49786">
        <ele>447.3</ele>
        <time>2024-02-04T11:17:15Z</time>
      </trkpt>
      <trkpt lat="43.1805" lon="6.49786">
        <ele>447.2</ele>
        <time>2024-02-04T11:17:16Z</time>
      </trkpt>
      <trkpt lat="43.1805" lon="6.49786">
        <ele>447.2</ele>
        <time>2024-02-04T11:17:17Z</time>
      </trkpt>
      <trkpt lat="43.1805" lon="6.49786">
        <ele>447.2</ele>
        <time>2024-02-04T11:17:18Z</time>
      </trkpt>
      <trkpt lat="43.1805" lon="6.49786">
        <ele>447.3</ele>
        <time>2024-02-04T11:17:19Z</time>
      </trkpt>
      <trkpt lat="43.1805" lon="6.49786">
        <ele>447.3</ele>
        <time>2024-02-04T11:17:20Z</time>
      </trkpt>
      <trkpt lat="43.1805" lon="6.49786">
        <ele>447.3</ele>
        <time>2024-02-04T11:17:21Z</time>
      </trkpt>
      <trkpt lat="43.1805" lon="6.49786">
        <ele>447.3</ele>
        <time>2024-02-04T11:17:22Z</time>
      </trkpt>
      <trkpt lat="43.1805" lon="6.49786">
        <ele>447.3</ele>
        <time>2024-02-04T11:17:23Z</time>
      </trkpt>
      <trkpt lat="43.1805" lon="6.49786">
        <ele>447.3</ele>
        <time>2024-02-04T11:17:24Z</time>
      </trkpt>
      <trkpt lat="43.1805" lon="6.49786">
        <ele>447.3</ele>
        <time>2024-02-04T11:17:25Z</time>
      </trkpt>
      <trkpt lat="43.1805" lon="6.49786">
        <ele>447.3</ele>
        <time>2024-02-04T11:17:26Z</time>
      </trkpt>
      <trkpt lat="43.1805" lon="6.49786">
        <ele>447.3</ele>
        <time>2024-02-04T11:17:27Z</time>
      </trkpt>
      <trkpt lat="43.1805" lon="6.49786">
        <ele>447.3</ele>
        <time>2024-02-04T11:17:28Z</time>
      </trkpt>
      <trkpt lat="43.1805" lon="6.49786">
        <ele>447.3</ele>
        <time>2024-02-04T11:17:29Z</time>
      </trkpt>
      <trkpt lat="43.1805" lon="6.49786">
        <ele>447.4</ele>
        <time>2024-02-04T11:17:30Z</time>
      </trkpt>
      <trkpt lat="43.1805" lon="6.49785">
        <ele>447.4</ele>
        <time>2024-02-04T11:17:31Z</time>
      </trkpt>
      <trkpt lat="43.1805" lon="6.49786">
        <ele>447.4</ele>
        <time>2024-02-04T11:17:32Z</time>
      </trkpt>
      <trkpt lat="43.1805" lon="6.49786">
        <ele>447.3</ele>
        <time>2024-02-04T11:17:33Z</time>
      </trkpt>
      <trkpt lat="43.1805" lon="6.49786">
        <ele>447.3</ele>
        <time>2024-02-04T11:17:34Z</time>
      </trkpt>
      <trkpt lat="43.1805" lon="6.49786">
        <ele>447.3</ele>
        <time>2024-02-04T11:17:35Z</time>
      </trkpt>
      <trkpt lat="43.1805" lon="6.49786">
        <ele>447.2</ele>
        <time>2024-02-04T11:17:36Z</time>
      </trkpt>
      <trkpt lat="43.1805" lon="6.49785">
        <ele>447.2</ele>
        <time>2024-02-04T11:17:37Z</time>
      </trkpt>
      <trkpt lat="43.1805" lon="6.49785">
        <ele>447.2</ele>
        <time>2024-02-04T11:17:38Z</time>
      </trkpt>
      <trkpt lat="43.1805" lon="6.49786">
        <ele>447.2</ele>
        <time>2024-02-04T11:17:39Z</time>
      </trkpt>
      <trkpt lat="43.1805" lon="6.49786">
        <ele>447.2</ele>
        <time>2024-02-04T11:17:40Z</time>
      </trkpt>
      <trkpt lat="43.1805" lon="6.49786">
        <ele>447.2</ele>
        <time>2024-02-04T11:17:41Z</time>
      </trkpt>
      <trkpt lat="43.1805" lon="6.49786">
        <ele>447.2</ele>
        <time>2024-02-04T11:17:42Z</time>
      </trkpt>
      <trkpt lat="43.1805" lon="6.49786">
        <ele>447.1</ele>
        <time>2024-02-04T11:17:43Z</time>
      </trkpt>
      <trkpt lat="43.1805" lon="6.49786">
        <ele>447.1</ele>
        <time>2024-02-04T11:17:44Z</time>
      </trkpt>
      <trkpt lat="43.1805" lon="6.49786">
        <ele>447.2</ele>
        <time>2024-02-04T11:17:45Z</time>
      </trkpt>
      <trkpt lat="43.1805" lon="6.49786">
        <ele>447.3</ele>
        <time>2024-02-04T11:17:46Z</time>
      </trkpt>
      <trkpt lat="43.1805" lon="6.49786">
        <ele>447.4</ele>
        <time>2024-02-04T11:17:47Z</time>
      </trkpt>
      <trkpt lat="43.1805" lon="6.49786">
        <ele>447.3</ele>
        <time>2024-02-04T11:17:48Z</time>
      </trkpt>
      <trkpt lat="43.1805" lon="6.49786">
        <ele>447.2</ele>
        <time>2024-02-04T11:17:49Z</time>
      </trkpt>
      <trkpt lat="43.1805" lon="6.49786">
        <ele>447.1</ele>
        <time>2024-02-04T11:17:50Z</time>
      </trkpt>
      <trkpt lat="43.1805" lon="6.49786">
        <ele>447.2</ele>
        <time>2024-02-04T11:17:51Z</time>
      </trkpt>
      <trkpt lat="43.1805" lon="6.49786">
        <ele>447.1</ele>
        <time>2024-02-04T11:17:52Z</time>
      </trkpt>
      <trkpt lat="43.1805" lon="6.49786">
        <ele>447.1</ele>
        <time>2024-02-04T11:17:53Z</time>
      </trkpt>
      <trkpt lat="43.1805" lon="6.49786">
        <ele>447.2</ele>
        <time>2024-02-04T11:17:54Z</time>
      </trkpt>
      <trkpt lat="43.1805" lon="6.49786">
        <ele>447.2</ele>
        <time>2024-02-04T11:17:55Z</time>
      </trkpt>
      <trkpt lat="43.1805" lon="6.49786">
        <ele>447.2</ele>
        <time>2024-02-04T11:17:56Z</time>
      </trkpt>
      <trkpt lat="43.1805" lon="6.49786">
        <ele>447.3</ele>
        <time>2024-02-04T11:17:57Z</time>
      </trkpt>
      <trkpt lat="43.1805" lon="6.49786">
        <ele>447.3</ele>
        <time>2024-02-04T11:17:58Z</time>
      </trkpt>
      <trkpt lat="43.1805" lon="6.49786">
        <ele>447.3</ele>
        <time>2024-02-04T11:17:59Z</time>
      </trkpt>
      <trkpt lat="43.1805" lon="6.49786">
        <ele>447.4</ele>
        <time>2024-02-04T11:18:00Z</time>
      </trkpt>
      <trkpt lat="43.1805" lon="6.49786">
        <ele>447.4</ele>
        <time>2024-02-04T11:18:01Z</time>
      </trkpt>
      <trkpt lat="43.1805" lon="6.49786">
        <ele>447.4</ele>
        <time>2024-02-04T11:18:02Z</time>
      </trkpt>
      <trkpt lat="43.1805" lon="6.49786">
        <ele>447.5</ele>
        <time>2024-02-04T11:18:03Z</time>
      </trkpt>
      <trkpt lat="43.1805" lon="6.49786">
        <ele>447.6</ele>
        <time>2024-02-04T11:18:04Z</time>
      </trkpt>
      <trkpt lat="43.1805" lon="6.49786">
        <ele>447.6</ele>
        <time>2024-02-04T11:18:05Z</time>
      </trkpt>
      <trkpt lat="43.1805" lon="6.49786">
        <ele>447.6</ele>
        <time>2024-02-04T11:18:06Z</time>
      </trkpt>
      <trkpt lat="43.1805" lon="6.49786">
        <ele>447.7</ele>
        <time>2024-02-04T11:18:07Z</time>
      </trkpt>
      <trkpt lat="43.1805" lon="6.49786">
        <ele>447.7</ele>
        <time>2024-02-04T11:18:08Z</time>
      </trkpt>
      <trkpt lat="43.1805" lon="6.49786">
        <ele>447.7</ele>
        <time>2024-02-04T11:18:09Z</time>
      </trkpt>
      <trkpt lat="43.1805" lon="6.49786">
        <ele>447.7</ele>
        <time>2024-02-04T11:18:10Z</time>
      </trkpt>
      <trkpt lat="43.1805" lon="6.49786">
        <ele>447.7</ele>
        <time>2024-02-04T11:18:11Z</time>
      </trkpt>
      <trkpt lat="43.1805" lon="6.49786">
        <ele>447.7</ele>
        <time>2024-02-04T11:18:12Z</time>
      </trkpt>
      <trkpt lat="43.1805" lon="6.49786">
        <ele>447.7</ele>
        <time>2024-02-04T11:18:13Z</time>
      </trkpt>
      <trkpt lat="43.1805" lon="6.49786">
        <ele>447.7</ele>
        <time>2024-02-04T11:18:14Z</time>
      </trkpt>
      <trkpt lat="43.1805" lon="6.49786">
        <ele>447.7</ele>
        <time>2024-02-04T11:18:15Z</time>
      </trkpt>
      <trkpt lat="43.1805" lon="6.49786">
        <ele>447.7</ele>
        <time>2024-02-04T11:18:16Z</time>
      </trkpt>
      <trkpt lat="43.1805" lon="6.49786">
        <ele>447.8</ele>
        <time>2024-02-04T11:18:17Z</time>
      </trkpt>
      <trkpt lat="43.1805" lon="6.49786">
        <ele>447.8</ele>
        <time>2024-02-04T11:18:18Z</time>
      </trkpt>
      <trkpt lat="43.1805" lon="6.49786">
        <ele>447.8</ele>
        <time>2024-02-04T11:18:19Z</time>
      </trkpt>
      <trkpt lat="43.1805" lon="6.49786">
        <ele>447.8</ele>
        <time>2024-02-04T11:18:20Z</time>
      </trkpt>
      <trkpt lat="43.1805" lon="6.49786">
        <ele>447.8</ele>
        <time>2024-02-04T11:18:21Z</time>
      </trkpt>
      <trkpt lat="43.1805" lon="6.49786">
        <ele>447.8</ele>
        <time>2024-02-04T11:18:22Z</time>
      </trkpt>
      <trkpt lat="43.1805" lon="6.49786">
        <ele>447.8</ele>
        <time>2024-02-04T11:18:23Z</time>
      </trkpt>
      <trkpt lat="43.1805" lon="6.49786">
        <ele>447.7</ele>
        <time>2024-02-04T11:18:24Z</time>
      </trkpt>
      <trkpt lat="43.1805" lon="6.49786">
        <ele>447.6</ele>
        <time>2024-02-04T11:18:25Z</time>
      </trkpt>
      <trkpt lat="43.1805" lon="6.49786">
        <ele>447.6</ele>
        <time>2024-02-04T11:18:26Z</time>
      </trkpt>
      <trkpt lat="43.1805" lon="6.49786">
        <ele>447.5</ele>
        <time>2024-02-04T11:18:27Z</time>
      </trkpt>
      <trkpt lat="43.1805" lon="6.49786">
        <ele>447.5</ele>
        <time>2024-02-04T11:18:28Z</time>
      </trkpt>
      <trkpt lat="43.1805" lon="6.49786">
        <ele>447.5</ele>
        <time>2024-02-04T11:18:29Z</time>
      </trkpt>
      <trkpt lat="43.1805" lon="6.49786">
        <ele>447.5</ele>
        <time>2024-02-04T11:18:30Z</time>
      </trkpt>
      <trkpt lat="43.1805" lon="6.49786">
        <ele>447.5</ele>
        <time>2024-02-04T11:18:31Z</time>
      </trkpt>
      <trkpt lat="43.1805" lon="6.49786">
        <ele>447.4</ele>
        <time>2024-02-04T11:18:32Z</time>
      </trkpt>
      <trkpt lat="43.1805" lon="6.49786">
        <ele>447.5</ele>
        <time>2024-02-04T11:18:33Z</time>
      </trkpt>
      <trkpt lat="43.1805" lon="6.49786">
        <ele>447.5</ele>
        <time>2024-02-04T11:18:34Z</time>
      </trkpt>
      <trkpt lat="43.1805" lon="6.49786">
        <ele>447.6</ele>
        <time>2024-02-04T11:18:35Z</time>
      </trkpt>
      <trkpt lat="43.1805" lon="6.49786">
        <ele>447.6</ele>
        <time>2024-02-04T11:18:36Z</time>
      </trkpt>
      <trkpt lat="43.1805" lon="6.49786">
        <ele>447.6</ele>
        <time>2024-02-04T11:18:37Z</time>
      </trkpt>
      <trkpt lat="43.1805" lon="6.49786">
        <ele>447.5</ele>
        <time>2024-02-04T11:18:38Z</time>
      </trkpt>
      <trkpt lat="43.1805" lon="6.49786">
        <ele>447.6</ele>
        <time>2024-02-04T11:18:39Z</time>
      </trkpt>
      <trkpt lat="43.1805" lon="6.49786">
        <ele>447.7</ele>
        <time>2024-02-04T11:18:40Z</time>
      </trkpt>
      <trkpt lat="43.1805" lon="6.49786">
        <ele>447.8</ele>
        <time>2024-02-04T11:18:41Z</time>
      </trkpt>
      <trkpt lat="43.1805" lon="6.49786">
        <ele>447.8</ele>
        <time>2024-02-04T11:18:42Z</time>
      </trkpt>
      <trkpt lat="43.1805" lon="6.49786">
        <ele>447.7</ele>
        <time>2024-02-04T11:18:43Z</time>
      </trkpt>
      <trkpt lat="43.1805" lon="6.49786">
        <ele>447.7</ele>
        <time>2024-02-04T11:18:44Z</time>
      </trkpt>
      <trkpt lat="43.1805" lon="6.49786">
        <ele>447.7</ele>
        <time>2024-02-04T11:18:45Z</time>
      </trkpt>
      <trkpt lat="43.1805" lon="6.49786">
        <ele>447.7</ele>
        <time>2024-02-04T11:18:46Z</time>
      </trkpt>
      <trkpt lat="43.1805" lon="6.49786">
        <ele>447.7</ele>
        <time>2024-02-04T11:18:47Z</time>
      </trkpt>
      <trkpt lat="43.1805" lon="6.49786">
        <ele>447.7</ele>
        <time>2024-02-04T11:18:48Z</time>
      </trkpt>
      <trkpt lat="43.1805" lon="6.49786">
        <ele>447.6</ele>
        <time>2024-02-04T11:18:49Z</time>
      </trkpt>
      <trkpt lat="43.1805" lon="6.49786">
        <ele>447.6</ele>
        <time>2024-02-04T11:18:50Z</time>
      </trkpt>
      <trkpt lat="43.1805" lon="6.49786">
        <ele>447.6</ele>
        <time>2024-02-04T11:18:51Z</time>
      </trkpt>
      <trkpt lat="43.1805" lon="6.49786">
        <ele>447.6</ele>
        <time>2024-02-04T11:18:52Z</time>
      </trkpt>
      <trkpt lat="43.1805" lon="6.49786">
        <ele>447.6</ele>
        <time>2024-02-04T11:18:53Z</time>
      </trkpt>
      <trkpt lat="43.1805" lon="6.49786">
        <ele>447.6</ele>
        <time>2024-02-04T11:18:54Z</time>
      </trkpt>
      <trkpt lat="43.1805" lon="6.49786">
        <ele>447.6</ele>
        <time>2024-02-04T11:18:55Z</time>
      </trkpt>
      <trkpt lat="43.1805" lon="6.49786">
        <ele>447.6</ele>
        <time>2024-02-04T11:18:56Z</time>
      </trkpt>
      <trkpt lat="43.1805" lon="6.49786">
        <ele>447.6</ele>
        <time>2024-02-04T11:18:57Z</time>
      </trkpt>
      <trkpt lat="43.1805" lon="6.49786">
        <ele>447.6</ele>
        <time>2024-02-04T11:18:58Z</time>
      </trkpt>
      <trkpt lat="43.18049" lon="6.49786">
        <ele>447.6</ele>
        <time>2024-02-04T11:18:59Z</time>
      </trkpt>
      <trkpt lat="43.18049" lon="6.49786">
        <ele>447.6</ele>
        <time>2024-02-04T11:19:00Z</time>
      </trkpt>
      <trkpt lat="43.18049" lon="6.49786">
        <ele>447.6</ele>
        <time>2024-02-04T11:19:01Z</time>
      </trkpt>
      <trkpt lat="43.18049" lon="6.49786">
        <ele>447.7</ele>
        <time>2024-02-04T11:19:02Z</time>
      </trkpt>
      <trkpt lat="43.18049" lon="6.49786">
        <ele>447.7</ele>
        <time>2024-02-04T11:19:03Z</time>
      </trkpt>
      <trkpt lat="43.18049" lon="6.49786">
        <ele>447.7</ele>
        <time>2024-02-04T11:19:04Z</time>
      </trkpt>
      <trkpt lat="43.18049" lon="6.49786">
        <ele>447.8</ele>
        <time>2024-02-04T11:19:05Z</time>
      </trkpt>
      <trkpt lat="43.18049" lon="6.49786">
        <ele>447.8</ele>
        <time>2024-02-04T11:19:06Z</time>
      </trkpt>
      <trkpt lat="43.18049" lon="6.49786">
        <ele>447.8</ele>
        <time>2024-02-04T11:19:07Z</time>
      </trkpt>
      <trkpt lat="43.18049" lon="6.49786">
        <ele>447.8</ele>
        <time>2024-02-04T11:19:08Z</time>
      </trkpt>
      <trkpt lat="43.18049" lon="6.49786">
        <ele>447.8</ele>
        <time>2024-02-04T11:19:09Z</time>
      </trkpt>
      <trkpt lat="43.18049" lon="6.49786">
        <ele>447.8</ele>
        <time>2024-02-04T11:19:10Z</time>
      </trkpt>
      <trkpt lat="43.18049" lon="6.49787">
        <ele>447.9</ele>
        <time>2024-02-04T11:19:11Z</time>
      </trkpt>
      <trkpt lat="43.18049" lon="6.49787">
        <ele>447.7</ele>
        <time>2024-02-04T11:19:12Z</time>
      </trkpt>
      <trkpt lat="43.18049" lon="6.49787">
        <ele>447.6</ele>
        <time>2024-02-04T11:19:13Z</time>
      </trkpt>
      <trkpt lat="43.18049" lon="6.49787">
        <ele>447.6</ele>
        <time>2024-02-04T11:19:14Z</time>
      </trkpt>
      <trkpt lat="43.18049" lon="6.49787">
        <ele>447.6</ele>
        <time>2024-02-04T11:19:15Z</time>
      </trkpt>
      <trkpt lat="43.18049" lon="6.49787">
        <ele>447.6</ele>
        <time>2024-02-04T11:19:16Z</time>
      </trkpt>
      <trkpt lat="43.18049" lon="6.49787">
        <ele>447.6</ele>
        <time>2024-02-04T11:19:17Z</time>
      </trkpt>
      <trkpt lat="43.18049" lon="6.49787">
        <ele>447.6</ele>
        <time>2024-02-04T11:19:18Z</time>
      </trkpt>
      <trkpt lat="43.18049" lon="6.49787">
        <ele>447.6</ele>
        <time>2024-02-04T11:19:19Z</time>
      </trkpt>
      <trkpt lat="43.18049" lon="6.49787">
        <ele>447.7</ele>
        <time>2024-02-04T11:19:20Z</time>
      </trkpt>
      <trkpt lat="43.18049" lon="6.49787">
        <ele>447.7</ele>
        <time>2024-02-04T11:19:21Z</time>
      </trkpt>
      <trkpt lat="43.18049" lon="6.49787">
        <ele>447.7</ele>
        <time>2024-02-04T11:19:22Z</time>
      </trkpt>
      <trkpt lat="43.18049" lon="6.49787">
        <ele>447.7</ele>
        <time>2024-02-04T11:19:23Z</time>
      </trkpt>
      <trkpt lat="43.18049" lon="6.49787">
        <ele>447.7</ele>
        <time>2024-02-04T11:19:24Z</time>
      </trkpt>
      <trkpt lat="43.18049" lon="6.49787">
        <ele>447.7</ele>
        <time>2024-02-04T11:19:25Z</time>
      </trkpt>
      <trkpt lat="43.18049" lon="6.49787">
        <ele>447.8</ele>
        <time>2024-02-04T11:19:26Z</time>
      </trkpt>
      <trkpt lat="43.18049" lon="6.49787">
        <ele>447.8</ele>
        <time>2024-02-04T11:19:27Z</time>
      </trkpt>
      <trkpt lat="43.18049" lon="6.49786">
        <ele>447.8</ele>
        <time>2024-02-04T11:19:28Z</time>
      </trkpt>
      <trkpt lat="43.18049" lon="6.49786">
        <ele>447.8</ele>
        <time>2024-02-04T11:19:29Z</time>
      </trkpt>
      <trkpt lat="43.18049" lon="6.49786">
        <ele>447.8</ele>
        <time>2024-02-04T11:19:30Z</time>
      </trkpt>
      <trkpt lat="43.18049" lon="6.49786">
        <ele>447.8</ele>
        <time>2024-02-04T11:19:31Z</time>
      </trkpt>
      <trkpt lat="43.18049" lon="6.49786">
        <ele>447.8</ele>
        <time>2024-02-04T11:19:32Z</time>
      </trkpt>
      <trkpt lat="43.18049" lon="6.49786">
        <ele>447.8</ele>
        <time>2024-02-04T11:19:33Z</time>
      </trkpt>
      <trkpt lat="43.18049" lon="6.49786">
        <ele>447.7</ele>
        <time>2024-02-04T11:19:34Z</time>
      </trkpt>
      <trkpt lat="43.18049" lon="6.49786">
        <ele>447.7</ele>
        <time>2024-02-04T11:19:35Z</time>
      </trkpt>
      <trkpt lat="43.18049" lon="6.49786">
        <ele>447.7</ele>
        <time>2024-02-04T11:19:36Z</time>
      </trkpt>
      <trkpt lat="43.1805" lon="6.49786">
        <ele>447.7</ele>
        <time>2024-02-04T11:19:37Z</time>
      </trkpt>
      <trkpt lat="43.1805" lon="6.49786">
        <ele>447.7</ele>
        <time>2024-02-04T11:19:38Z</time>
      </trkpt>
      <trkpt lat="43.1805" lon="6.49786">
        <ele>447.7</ele>
        <time>2024-02-04T11:19:39Z</time>
      </trkpt>
      <trkpt lat="43.1805" lon="6.49786">
        <ele>447.7</ele>
        <time>2024-02-04T11:19:40Z</time>
      </trkpt>
      <trkpt lat="43.1805" lon="6.49786">
        <ele>447.7</ele>
        <time>2024-02-04T11:19:41Z</time>
      </trkpt>
      <trkpt lat="43.1805" lon="6.49786">
        <ele>447.7</ele>
        <time>2024-02-04T11:19:42Z</time>
      </trkpt>
      <trkpt lat="43.1805" lon="6.49786">
        <ele>447.7</ele>
        <time>2024-02-04T11:19:43Z</time>
      </trkpt>
      <trkpt lat="43.1805" lon="6.49786">
        <ele>447.7</ele>
        <time>2024-02-04T11:19:44Z</time>
      </trkpt>
      <trkpt lat="43.1805" lon="6.49786">
        <ele>447.7</ele>
        <time>2024-02-04T11:19:45Z</time>
      </trkpt>
      <trkpt lat="43.1805" lon="6.49786">
        <ele>447.7</ele>
        <time>2024-02-04T11:19:46Z</time>
      </trkpt>
      <trkpt lat="43.1805" lon="6.49786">
        <ele>447.7</ele>
        <time>2024-02-04T11:19:47Z</time>
      </trkpt>
      <trkpt lat="43.1805" lon="6.49786">
        <ele>447.7</ele>
        <time>2024-02-04T11:19:48Z</time>
      </trkpt>
      <trkpt lat="43.1805" lon="6.49786">
        <ele>447.7</ele>
        <time>2024-02-04T11:19:49Z</time>
      </trkpt>
      <trkpt lat="43.1805" lon="6.49786">
        <ele>447.7</ele>
        <time>2024-02-04T11:19:50Z</time>
      </trkpt>
      <trkpt lat="43.1805" lon="6.49786">
        <ele>447.6</ele>
        <time>2024-02-04T11:19:51Z</time>
      </trkpt>
      <trkpt lat="43.1805" lon="6.49786">
        <ele>447.6</ele>
        <time>2024-02-04T11:19:52Z</time>
      </trkpt>
      <trkpt lat="43.1805" lon="6.49786">
        <ele>447.6</ele>
        <time>2024-02-04T11:19:53Z</time>
      </trkpt>
      <trkpt lat="43.1805" lon="6.49786">
        <ele>447.7</ele>
        <time>2024-02-04T11:19:54Z</time>
      </trkpt>
      <trkpt lat="43.1805" lon="6.49786">
        <ele>447.8</ele>
        <time>2024-02-04T11:19:55Z</time>
      </trkpt>
      <trkpt lat="43.1805" lon="6.49786">
        <ele>447.8</ele>
        <time>2024-02-04T11:19:56Z</time>
      </trkpt>
      <trkpt lat="43.1805" lon="6.49786">
        <ele>447.8</ele>
        <time>2024-02-04T11:19:57Z</time>
      </trkpt>
      <trkpt lat="43.1805" lon="6.49786">
        <ele>447.8</ele>
        <time>2024-02-04T11:19:58Z</time>
      </trkpt>
      <trkpt lat="43.1805" lon="6.49786">
        <ele>447.8</ele>
        <time>2024-02-04T11:19:59Z</time>
      </trkpt>
      <trkpt lat="43.1805" lon="6.49786">
        <ele>447.9</ele>
        <time>2024-02-04T11:20:00Z</time>
      </trkpt>
      <trkpt lat="43.1805" lon="6.49786">
        <ele>447.9</ele>
        <time>2024-02-04T11:20:01Z</time>
      </trkpt>
      <trkpt lat="43.1805" lon="6.49786">
        <ele>447.9</ele>
        <time>2024-02-04T11:20:02Z</time>
      </trkpt>
      <trkpt lat="43.1805" lon="6.49786">
        <ele>447.9</ele>
        <time>2024-02-04T11:20:03Z</time>
      </trkpt>
      <trkpt lat="43.1805" lon="6.49786">
        <ele>447.9</ele>
        <time>2024-02-04T11:20:04Z</time>
      </trkpt>
      <trkpt lat="43.1805" lon="6.49786">
        <ele>447.9</ele>
        <time>2024-02-04T11:20:05Z</time>
      </trkpt>
      <trkpt lat="43.1805" lon="6.49786">
        <ele>447.9</ele>
        <time>2024-02-04T11:20:06Z</time>
      </trkpt>
      <trkpt lat="43.18051" lon="6.49786">
        <ele>447.9</ele>
        <time>2024-02-04T11:20:07Z</time>
      </trkpt>
      <trkpt lat="43.18051" lon="6.49786">
        <ele>447.9</ele>
        <time>2024-02-04T11:20:08Z</time>
      </trkpt>
      <trkpt lat="43.18051" lon="6.49786">
        <ele>447.9</ele>
        <time>2024-02-04T11:20:09Z</time>
      </trkpt>
      <trkpt lat="43.18051" lon="6.49786">
        <ele>447.9</ele>
        <time>2024-02-04T11:20:10Z</time>
      </trkpt>
      <trkpt lat="43.18051" lon="6.49786">
        <ele>448</ele>
        <time>2024-02-04T11:20:11Z</time>
      </trkpt>
      <trkpt lat="43.18051" lon="6.49786">
        <ele>448</ele>
        <time>2024-02-04T11:20:12Z</time>
      </trkpt>
      <trkpt lat="43.18051" lon="6.49786">
        <ele>447.9</ele>
        <time>2024-02-04T11:20:13Z</time>
      </trkpt>
      <trkpt lat="43.18051" lon="6.49785">
        <ele>447.9</ele>
        <time>2024-02-04T11:20:14Z</time>
      </trkpt>
      <trkpt lat="43.18051" lon="6.49785">
        <ele>447.8</ele>
        <time>2024-02-04T11:20:15Z</time>
      </trkpt>
      <trkpt lat="43.18051" lon="6.49785">
        <ele>447.8</ele>
        <time>2024-02-04T11:20:16Z</time>
      </trkpt>
      <trkpt lat="43.18051" lon="6.49785">
        <ele>447.9</ele>
        <time>2024-02-04T11:20:17Z</time>
      </trkpt>
      <trkpt lat="43.18051" lon="6.49785">
        <ele>447.8</ele>
        <time>2024-02-04T11:20:18Z</time>
      </trkpt>
      <trkpt lat="43.18051" lon="6.49785">
        <ele>447.7</ele>
        <time>2024-02-04T11:20:19Z</time>
      </trkpt>
      <trkpt lat="43.18051" lon="6.49785">
        <ele>447.9</ele>
        <time>2024-02-04T11:20:20Z</time>
      </trkpt>
      <trkpt lat="43.18051" lon="6.49785">
        <ele>448</ele>
        <time>2024-02-04T11:20:21Z</time>
      </trkpt>
      <trkpt lat="43.18051" lon="6.49785">
        <ele>448</ele>
        <time>2024-02-04T11:20:22Z</time>
      </trkpt>
      <trkpt lat="43.18051" lon="6.49785">
        <ele>448</ele>
        <time>2024-02-04T11:20:23Z</time>
      </trkpt>
      <trkpt lat="43.18051" lon="6.49785">
        <ele>448</ele>
        <time>2024-02-04T11:20:24Z</time>
      </trkpt>
      <trkpt lat="43.18051" lon="6.49785">
        <ele>448</ele>
        <time>2024-02-04T11:20:25Z</time>
      </trkpt>
      <trkpt lat="43.18051" lon="6.49785">
        <ele>448</ele>
        <time>2024-02-04T11:20:26Z</time>
      </trkpt>
      <trkpt lat="43.18051" lon="6.49785">
        <ele>448</ele>
        <time>2024-02-04T11:20:27Z</time>
      </trkpt>
      <trkpt lat="43.18051" lon="6.49785">
        <ele>448</ele>
        <time>2024-02-04T11:20:28Z</time>
      </trkpt>
      <trkpt lat="43.18051" lon="6.49785">
        <ele>448</ele>
        <time>2024-02-04T11:20:29Z</time>
      </trkpt>
      <trkpt lat="43.18051" lon="6.49785">
        <ele>448</ele>
        <time>2024-02-04T11:20:30Z</time>
      </trkpt>
      <trkpt lat="43.18051" lon="6.49785">
        <ele>448</ele>
        <time>2024-02-04T11:20:31Z</time>
      </trkpt>
      <trkpt lat="43.18051" lon="6.49785">
        <ele>448</ele>
        <time>2024-02-04T11:20:32Z</time>
      </trkpt>
      <trkpt lat="43.18051" lon="6.49785">
        <ele>448</ele>
        <time>2024-02-04T11:20:33Z</time>
      </trkpt>
      <trkpt lat="43.18051" lon="6.49785">
        <ele>448.1</ele>
        <time>2024-02-04T11:20:34Z</time>
      </trkpt>
      <trkpt lat="43.18051" lon="6.49785">
        <ele>448.1</ele>
        <time>2024-02-04T11:20:35Z</time>
      </trkpt>
      <trkpt lat="43.18051" lon="6.49785">
        <ele>448.1</ele>
        <time>2024-02-04T11:20:36Z</time>
      </trkpt>
      <trkpt lat="43.18051" lon="6.49785">
        <ele>448.1</ele>
        <time>2024-02-04T11:20:37Z</time>
      </trkpt>
      <trkpt lat="43.18051" lon="6.49784">
        <ele>448.1</ele>
        <time>2024-02-04T11:20:38Z</time>
      </trkpt>
      <trkpt lat="43.18051" lon="6.49784">
        <ele>448.1</ele>
        <time>2024-02-04T11:20:39Z</time>
      </trkpt>
      <trkpt lat="43.18051" lon="6.49784">
        <ele>448.1</ele>
        <time>2024-02-04T11:20:40Z</time>
      </trkpt>
      <trkpt lat="43.18051" lon="6.49784">
        <ele>448.1</ele>
        <time>2024-02-04T11:20:41Z</time>
      </trkpt>
      <trkpt lat="43.18051" lon="6.49784">
        <ele>448.1</ele>
        <time>2024-02-04T11:20:42Z</time>
      </trkpt>
      <trkpt lat="43.18051" lon="6.49784">
        <ele>448.1</ele>
        <time>2024-02-04T11:20:43Z</time>
      </trkpt>
      <trkpt lat="43.18051" lon="6.49784">
        <ele>448.1</ele>
        <time>2024-02-04T11:20:44Z</time>
      </trkpt>
      <trkpt lat="43.1805" lon="6.49784">
        <ele>448</ele>
        <time>2024-02-04T11:20:45Z</time>
      </trkpt>
      <trkpt lat="43.18051" lon="6.49784">
        <ele>448.1</ele>
        <time>2024-02-04T11:20:46Z</time>
      </trkpt>
      <trkpt lat="43.18051" lon="6.49784">
        <ele>448.1</ele>
        <time>2024-02-04T11:20:47Z</time>
      </trkpt>
      <trkpt lat="43.18051" lon="6.49784">
        <ele>448.1</ele>
        <time>2024-02-04T11:20:48Z</time>
      </trkpt>
      <trkpt lat="43.18051" lon="6.49784">
        <ele>448.2</ele>
        <time>2024-02-04T11:20:49Z</time>
      </trkpt>
      <trkpt lat="43.18051" lon="6.49784">
        <ele>448.2</ele>
        <time>2024-02-04T11:20:50Z</time>
      </trkpt>
      <trkpt lat="43.18051" lon="6.49784">
        <ele>448.2</ele>
        <time>2024-02-04T11:20:51Z</time>
      </trkpt>
      <trkpt lat="43.18051" lon="6.49784">
        <ele>448.1</ele>
        <time>2024-02-04T11:20:52Z</time>
      </trkpt>
      <trkpt lat="43.18051" lon="6.49784">
        <ele>448.1</ele>
        <time>2024-02-04T11:20:53Z</time>
      </trkpt>
      <trkpt lat="43.18051" lon="6.49784">
        <ele>448.1</ele>
        <time>2024-02-04T11:20:54Z</time>
      </trkpt>
      <trkpt lat="43.18051" lon="6.49784">
        <ele>448.1</ele>
        <time>2024-02-04T11:20:55Z</time>
      </trkpt>
      <trkpt lat="43.18051" lon="6.49784">
        <ele>448.1</ele>
        <time>2024-02-04T11:20:56Z</time>
      </trkpt>
      <trkpt lat="43.18051" lon="6.49784">
        <ele>448.1</ele>
        <time>2024-02-04T11:20:57Z</time>
      </trkpt>
      <trkpt lat="43.18051" lon="6.49784">
        <ele>448.1</ele>
        <time>2024-02-04T11:20:58Z</time>
      </trkpt>
      <trkpt lat="43.18051" lon="6.49784">
        <ele>448.1</ele>
        <time>2024-02-04T11:20:59Z</time>
      </trkpt>
      <trkpt lat="43.18051" lon="6.49784">
        <ele>448</ele>
        <time>2024-02-04T11:21:00Z</time>
      </trkpt>
      <trkpt lat="43.18051" lon="6.49784">
        <ele>448</ele>
        <time>2024-02-04T11:21:01Z</time>
      </trkpt>
      <trkpt lat="43.18051" lon="6.49784">
        <ele>448.1</ele>
        <time>2024-02-04T11:21:02Z</time>
      </trkpt>
      <trkpt lat="43.18051" lon="6.49784">
        <ele>448</ele>
        <time>2024-02-04T11:21:03Z</time>
      </trkpt>
      <trkpt lat="43.18051" lon="6.49784">
        <ele>447.9</ele>
        <time>2024-02-04T11:21:04Z</time>
      </trkpt>
      <trkpt lat="43.18051" lon="6.49784">
        <ele>447.9</ele>
        <time>2024-02-04T11:21:05Z</time>
      </trkpt>
      <trkpt lat="43.18051" lon="6.49784">
        <ele>447.9</ele>
        <time>2024-02-04T11:21:06Z</time>
      </trkpt>
      <trkpt lat="43.18051" lon="6.49784">
        <ele>447.8</ele>
        <time>2024-02-04T11:21:07Z</time>
      </trkpt>
      <trkpt lat="43.18051" lon="6.49784">
        <ele>447.8</ele>
        <time>2024-02-04T11:21:08Z</time>
      </trkpt>
      <trkpt lat="43.18051" lon="6.49784">
        <ele>447.8</ele>
        <time>2024-02-04T11:21:09Z</time>
      </trkpt>
      <trkpt lat="43.18051" lon="6.49784">
        <ele>447.8</ele>
        <time>2024-02-04T11:21:10Z</time>
      </trkpt>
      <trkpt lat="43.18051" lon="6.49784">
        <ele>447.8</ele>
        <time>2024-02-04T11:21:11Z</time>
      </trkpt>
      <trkpt lat="43.18051" lon="6.49784">
        <ele>447.7</ele>
        <time>2024-02-04T11:21:12Z</time>
      </trkpt>
      <trkpt lat="43.18051" lon="6.49784">
        <ele>447.7</ele>
        <time>2024-02-04T11:21:13Z</time>
      </trkpt>
      <trkpt lat="43.18051" lon="6.49784">
        <ele>447.8</ele>
        <time>2024-02-04T11:21:14Z</time>
      </trkpt>
      <trkpt lat="43.1805" lon="6.49784">
        <ele>447.8</ele>
        <time>2024-02-04T11:21:15Z</time>
      </trkpt>
      <trkpt lat="43.1805" lon="6.49784">
        <ele>447.9</ele>
        <time>2024-02-04T11:21:16Z</time>
      </trkpt>
      <trkpt lat="43.1805" lon="6.49784">
        <ele>447.9</ele>
        <time>2024-02-04T11:21:17Z</time>
      </trkpt>
      <trkpt lat="43.1805" lon="6.49784">
        <ele>448</ele>
        <time>2024-02-04T11:21:18Z</time>
      </trkpt>
      <trkpt lat="43.1805" lon="6.49784">
        <ele>448</ele>
        <time>2024-02-04T11:21:19Z</time>
      </trkpt>
      <trkpt lat="43.1805" lon="6.49784">
        <ele>448.1</ele>
        <time>2024-02-04T11:21:20Z</time>
      </trkpt>
      <trkpt lat="43.1805" lon="6.49784">
        <ele>448.1</ele>
        <time>2024-02-04T11:21:21Z</time>
      </trkpt>
      <trkpt lat="43.1805" lon="6.49784">
        <ele>448.1</ele>
        <time>2024-02-04T11:21:22Z</time>
      </trkpt>
      <trkpt lat="43.1805" lon="6.49784">
        <ele>448.1</ele>
        <time>2024-02-04T11:21:23Z</time>
      </trkpt>
      <trkpt lat="43.1805" lon="6.49784">
        <ele>448.2</ele>
        <time>2024-02-04T11:21:24Z</time>
      </trkpt>
      <trkpt lat="43.1805" lon="6.49784">
        <ele>448.2</ele>
        <time>2024-02-04T11:21:25Z</time>
      </trkpt>
      <trkpt lat="43.1805" lon="6.49784">
        <ele>448.2</ele>
        <time>2024-02-04T11:21:26Z</time>
      </trkpt>
      <trkpt lat="43.1805" lon="6.49784">
        <ele>448.3</ele>
        <time>2024-02-04T11:21:27Z</time>
      </trkpt>
      <trkpt lat="43.1805" lon="6.49784">
        <ele>448.4</ele>
        <time>2024-02-04T11:21:28Z</time>
      </trkpt>
      <trkpt lat="43.1805" lon="6.49784">
        <ele>448.5</ele>
        <time>2024-02-04T11:21:29Z</time>
      </trkpt>
      <trkpt lat="43.1805" lon="6.49784">
        <ele>448.6</ele>
        <time>2024-02-04T11:21:30Z</time>
      </trkpt>
      <trkpt lat="43.1805" lon="6.49784">
        <ele>448.6</ele>
        <time>2024-02-04T11:21:31Z</time>
      </trkpt>
      <trkpt lat="43.1805" lon="6.49784">
        <ele>448.6</ele>
        <time>2024-02-04T11:21:32Z</time>
      </trkpt>
      <trkpt lat="43.1805" lon="6.49784">
        <ele>448.5</ele>
        <time>2024-02-04T11:21:33Z</time>
      </trkpt>
      <trkpt lat="43.1805" lon="6.49784">
        <ele>448.5</ele>
        <time>2024-02-04T11:21:34Z</time>
      </trkpt>
      <trkpt lat="43.1805" lon="6.49784">
        <ele>448.5</ele>
        <time>2024-02-04T11:21:35Z</time>
      </trkpt>
      <trkpt lat="43.1805" lon="6.49784">
        <ele>448.4</ele>
        <time>2024-02-04T11:21:36Z</time>
      </trkpt>
      <trkpt lat="43.1805" lon="6.49784">
        <ele>448.4</ele>
        <time>2024-02-04T11:21:37Z</time>
      </trkpt>
      <trkpt lat="43.1805" lon="6.49784">
        <ele>448.4</ele>
        <time>2024-02-04T11:21:38Z</time>
      </trkpt>
      <trkpt lat="43.1805" lon="6.49784">
        <ele>448.4</ele>
        <time>2024-02-04T11:21:39Z</time>
      </trkpt>
      <trkpt lat="43.1805" lon="6.49784">
        <ele>448.5</ele>
        <time>2024-02-04T11:21:40Z</time>
      </trkpt>
      <trkpt lat="43.1805" lon="6.49784">
        <ele>448.5</ele>
        <time>2024-02-04T11:21:41Z</time>
      </trkpt>
      <trkpt lat="43.1805" lon="6.49784">
        <ele>448.3</ele>
        <time>2024-02-04T11:21:42Z</time>
      </trkpt>
      <trkpt lat="43.1805" lon="6.49784">
        <ele>448.9</ele>
        <time>2024-02-04T11:21:43Z</time>
      </trkpt>
      <trkpt lat="43.1805" lon="6.49784">
        <ele>448.9</ele>
        <time>2024-02-04T11:21:44Z</time>
      </trkpt>
      <trkpt lat="43.1805" lon="6.49784">
        <ele>448.9</ele>
        <time>2024-02-04T11:21:45Z</time>
      </trkpt>
      <trkpt lat="43.1805" lon="6.49784">
        <ele>448.9</ele>
        <time>2024-02-04T11:21:46Z</time>
      </trkpt>
      <trkpt lat="43.18051" lon="6.49784">
        <ele>449</ele>
        <time>2024-02-04T11:21:47Z</time>
      </trkpt>
      <trkpt lat="43.18051" lon="6.49784">
        <ele>449.1</ele>
        <time>2024-02-04T11:21:48Z</time>
      </trkpt>
      <trkpt lat="43.18051" lon="6.49784">
        <ele>449.1</ele>
        <time>2024-02-04T11:21:49Z</time>
      </trkpt>
      <trkpt lat="43.18051" lon="6.49784">
        <ele>449.1</ele>
        <time>2024-02-04T11:21:50Z</time>
      </trkpt>
      <trkpt lat="43.18051" lon="6.49784">
        <ele>449.1</ele>
        <time>2024-02-04T11:21:51Z</time>
      </trkpt>
      <trkpt lat="43.18051" lon="6.49784">
        <ele>449.1</ele>
        <time>2024-02-04T11:21:52Z</time>
      </trkpt>
      <trkpt lat="43.18051" lon="6.49784">
        <ele>449.1</ele>
        <time>2024-02-04T11:21:53Z</time>
      </trkpt>
      <trkpt lat="43.18051" lon="6.49784">
        <ele>449.1</ele>
        <time>2024-02-04T11:21:54Z</time>
      </trkpt>
      <trkpt lat="43.18051" lon="6.49784">
        <ele>449.1</ele>
        <time>2024-02-04T11:21:55Z</time>
      </trkpt>
      <trkpt lat="43.18051" lon="6.49784">
        <ele>449</ele>
        <time>2024-02-04T11:21:56Z</time>
      </trkpt>
      <trkpt lat="43.18051" lon="6.49784">
        <ele>449</ele>
        <time>2024-02-04T11:21:57Z</time>
      </trkpt>
      <trkpt lat="43.18051" lon="6.49784">
        <ele>449</ele>
        <time>2024-02-04T11:21:58Z</time>
      </trkpt>
      <trkpt lat="43.18051" lon="6.49784">
        <ele>449</ele>
        <time>2024-02-04T11:21:59Z</time>
      </trkpt>
      <trkpt lat="43.18051" lon="6.49784">
        <ele>449</ele>
        <time>2024-02-04T11:22:00Z</time>
      </trkpt>
      <trkpt lat="43.18051" lon="6.49784">
        <ele>449</ele>
        <time>2024-02-04T11:22:01Z</time>
      </trkpt>
      <trkpt lat="43.18051" lon="6.49784">
        <ele>449</ele>
        <time>2024-02-04T11:22:02Z</time>
      </trkpt>
      <trkpt lat="43.18051" lon="6.49784">
        <ele>449</ele>
        <time>2024-02-04T11:22:03Z</time>
      </trkpt>
      <trkpt lat="43.18051" lon="6.49784">
        <ele>449</ele>
        <time>2024-02-04T11:22:04Z</time>
      </trkpt>
      <trkpt lat="43.18051" lon="6.49784">
        <ele>449</ele>
        <time>2024-02-04T11:22:05Z</time>
      </trkpt>
      <trkpt lat="43.18051" lon="6.49783">
        <ele>449</ele>
        <time>2024-02-04T11:22:06Z</time>
      </trkpt>
      <trkpt lat="43.18051" lon="6.49783">
        <ele>449.1</ele>
        <time>2024-02-04T11:22:07Z</time>
      </trkpt>
      <trkpt lat="43.18051" lon="6.49783">
        <ele>449</ele>
        <time>2024-02-04T11:22:08Z</time>
      </trkpt>
      <trkpt lat="43.18051" lon="6.49783">
        <ele>449</ele>
        <time>2024-02-04T11:22:09Z</time>
      </trkpt>
      <trkpt lat="43.18051" lon="6.49782">
        <ele>449.1</ele>
        <time>2024-02-04T11:22:10Z</time>
      </trkpt>
      <trkpt lat="43.18051" lon="6.49782">
        <ele>449.1</ele>
        <time>2024-02-04T11:22:11Z</time>
      </trkpt>
      <trkpt lat="43.18052" lon="6.49782">
        <ele>449.1</ele>
        <time>2024-02-04T11:22:12Z</time>
      </trkpt>
      <trkpt lat="43.18052" lon="6.49782">
        <ele>449.1</ele>
        <time>2024-02-04T11:22:13Z</time>
      </trkpt>
      <trkpt lat="43.18052" lon="6.49782">
        <ele>449.1</ele>
        <time>2024-02-04T11:22:14Z</time>
      </trkpt>
      <trkpt lat="43.18052" lon="6.49782">
        <ele>449.1</ele>
        <time>2024-02-04T11:22:15Z</time>
      </trkpt>
      <trkpt lat="43.18052" lon="6.49782">
        <ele>449.1</ele>
        <time>2024-02-04T11:22:16Z</time>
      </trkpt>
      <trkpt lat="43.18052" lon="6.49782">
        <ele>449.1</ele>
        <time>2024-02-04T11:22:17Z</time>
      </trkpt>
      <trkpt lat="43.18052" lon="6.49782">
        <ele>449.1</ele>
        <time>2024-02-04T11:22:18Z</time>
      </trkpt>
      <trkpt lat="43.18052" lon="6.49782">
        <ele>449.2</ele>
        <time>2024-02-04T11:22:19Z</time>
      </trkpt>
      <trkpt lat="43.18052" lon="6.49782">
        <ele>449.1</ele>
        <time>2024-02-04T11:22:20Z</time>
      </trkpt>
      <trkpt lat="43.18052" lon="6.49782">
        <ele>449</ele>
        <time>2024-02-04T11:22:21Z</time>
      </trkpt>
      <trkpt lat="43.18052" lon="6.49782">
        <ele>448.9</ele>
        <time>2024-02-04T11:22:22Z</time>
      </trkpt>
      <trkpt lat="43.18052" lon="6.49782">
        <ele>448.9</ele>
        <time>2024-02-04T11:22:23Z</time>
      </trkpt>
      <trkpt lat="43.18052" lon="6.49782">
        <ele>448.8</ele>
        <time>2024-02-04T11:22:24Z</time>
      </trkpt>
      <trkpt lat="43.18052" lon="6.49782">
        <ele>448.8</ele>
        <time>2024-02-04T11:22:25Z</time>
      </trkpt>
      <trkpt lat="43.18052" lon="6.49782">
        <ele>448.9</ele>
        <time>2024-02-04T11:22:26Z</time>
      </trkpt>
      <trkpt lat="43.18052" lon="6.49782">
        <ele>449</ele>
        <time>2024-02-04T11:22:27Z</time>
      </trkpt>
      <trkpt lat="43.18052" lon="6.49782">
        <ele>449</ele>
        <time>2024-02-04T11:22:28Z</time>
      </trkpt>
      <trkpt lat="43.18053" lon="6.49782">
        <ele>449.1</ele>
        <time>2024-02-04T11:22:29Z</time>
      </trkpt>
      <trkpt lat="43.18053" lon="6.49782">
        <ele>449.1</ele>
        <time>2024-02-04T11:22:30Z</time>
      </trkpt>
      <trkpt lat="43.18053" lon="6.49782">
        <ele>449.2</ele>
        <time>2024-02-04T11:22:31Z</time>
      </trkpt>
      <trkpt lat="43.18053" lon="6.49782">
        <ele>449.2</ele>
        <time>2024-02-04T11:22:32Z</time>
      </trkpt>
      <trkpt lat="43.18053" lon="6.49782">
        <ele>449</ele>
        <time>2024-02-04T11:22:33Z</time>
      </trkpt>
      <trkpt lat="43.18053" lon="6.49782">
        <ele>449</ele>
        <time>2024-02-04T11:22:34Z</time>
      </trkpt>
      <trkpt lat="43.18053" lon="6.49782">
        <ele>448.9</ele>
        <time>2024-02-04T11:22:35Z</time>
      </trkpt>
      <trkpt lat="43.18053" lon="6.49782">
        <ele>448.9</ele>
        <time>2024-02-04T11:22:36Z</time>
      </trkpt>
      <trkpt lat="43.18053" lon="6.49782">
        <ele>448.9</ele>
        <time>2024-02-04T11:22:37Z</time>
      </trkpt>
      <trkpt lat="43.18053" lon="6.49782">
        <ele>448.9</ele>
        <time>2024-02-04T11:22:38Z</time>
      </trkpt>
      <trkpt lat="43.18053" lon="6.49782">
        <ele>448.9</ele>
        <time>2024-02-04T11:22:39Z</time>
      </trkpt>
      <trkpt lat="43.18053" lon="6.49782">
        <ele>448.9</ele>
        <time>2024-02-04T11:22:40Z</time>
      </trkpt>
      <trkpt lat="43.18053" lon="6.49782">
        <ele>449</ele>
        <time>2024-02-04T11:22:41Z</time>
      </trkpt>
      <trkpt lat="43.18053" lon="6.49782">
        <ele>449.1</ele>
        <time>2024-02-04T11:22:42Z</time>
      </trkpt>
      <trkpt lat="43.18053" lon="6.49782">
        <ele>449.2</ele>
        <time>2024-02-04T11:22:43Z</time>
      </trkpt>
      <trkpt lat="43.18053" lon="6.49782">
        <ele>449.1</ele>
        <time>2024-02-04T11:22:44Z</time>
      </trkpt>
      <trkpt lat="43.18053" lon="6.49782">
        <ele>449.1</ele>
        <time>2024-02-04T11:22:45Z</time>
      </trkpt>
      <trkpt lat="43.18053" lon="6.49782">
        <ele>449.2</ele>
        <time>2024-02-04T11:22:46Z</time>
      </trkpt>
      <trkpt lat="43.18053" lon="6.49782">
        <ele>449.1</ele>
        <time>2024-02-04T11:22:47Z</time>
      </trkpt>
      <trkpt lat="43.18053" lon="6.49782">
        <ele>449.1</ele>
        <time>2024-02-04T11:22:48Z</time>
      </trkpt>
      <trkpt lat="43.18053" lon="6.49782">
        <ele>449</ele>
        <time>2024-02-04T11:22:49Z</time>
      </trkpt>
      <trkpt lat="43.18053" lon="6.49782">
        <ele>449</ele>
        <time>2024-02-04T11:22:50Z</time>
      </trkpt>
      <trkpt lat="43.18053" lon="6.49782">
        <ele>448.9</ele>
        <time>2024-02-04T11:22:51Z</time>
      </trkpt>
      <trkpt lat="43.18053" lon="6.49782">
        <ele>448.9</ele>
        <time>2024-02-04T11:22:52Z</time>
      </trkpt>
      <trkpt lat="43.18053" lon="6.49782">
        <ele>448.8</ele>
        <time>2024-02-04T11:22:53Z</time>
      </trkpt>
      <trkpt lat="43.18054" lon="6.49782">
        <ele>448.8</ele>
        <time>2024-02-04T11:22:54Z</time>
      </trkpt>
      <trkpt lat="43.18055" lon="6.49782">
        <ele>448.8</ele>
        <time>2024-02-04T11:22:55Z</time>
      </trkpt>
      <trkpt lat="43.18056" lon="6.49782">
        <ele>448.9</ele>
        <time>2024-02-04T11:22:56Z</time>
      </trkpt>
      <trkpt lat="43.18057" lon="6.49782">
        <ele>448.9</ele>
        <time>2024-02-04T11:22:57Z</time>
      </trkpt>
      <trkpt lat="43.18057" lon="6.49782">
        <ele>449.1</ele>
        <time>2024-02-04T11:22:58Z</time>
      </trkpt>
      <trkpt lat="43.18058" lon="6.49781">
        <ele>449.2</ele>
        <time>2024-02-04T11:22:59Z</time>
      </trkpt>
      <trkpt lat="43.18059" lon="6.49781">
        <ele>449.1</ele>
        <time>2024-02-04T11:23:00Z</time>
      </trkpt>
      <trkpt lat="43.1806" lon="6.49781">
        <ele>449.1</ele>
        <time>2024-02-04T11:23:01Z</time>
      </trkpt>
      <trkpt lat="43.18061" lon="6.49781">
        <ele>449</ele>
        <time>2024-02-04T11:23:02Z</time>
      </trkpt>
      <trkpt lat="43.18062" lon="6.4978">
        <ele>448.9</ele>
        <time>2024-02-04T11:23:03Z</time>
      </trkpt>
      <trkpt lat="43.18063" lon="6.4978">
        <ele>448.8</ele>
        <time>2024-02-04T11:23:04Z</time>
      </trkpt>
      <trkpt lat="43.18064" lon="6.4978">
        <ele>448.8</ele>
        <time>2024-02-04T11:23:05Z</time>
      </trkpt>
      <trkpt lat="43.18066" lon="6.4978">
        <ele>448.7</ele>
        <time>2024-02-04T11:23:06Z</time>
      </trkpt>
      <trkpt lat="43.18067" lon="6.4978">
        <ele>448.7</ele>
        <time>2024-02-04T11:23:07Z</time>
      </trkpt>
      <trkpt lat="43.18067" lon="6.4978">
        <ele>448.6</ele>
        <time>2024-02-04T11:23:08Z</time>
      </trkpt>
      <trkpt lat="43.18068" lon="6.4978">
        <ele>448.6</ele>
        <time>2024-02-04T11:23:09Z</time>
      </trkpt>
      <trkpt lat="43.18069" lon="6.49779">
        <ele>448.5</ele>
        <time>2024-02-04T11:23:10Z</time>
      </trkpt>
      <trkpt lat="43.1807" lon="6.49779">
        <ele>448.5</ele>
        <time>2024-02-04T11:23:11Z</time>
      </trkpt>
      <trkpt lat="43.18071" lon="6.49779">
        <ele>448.5</ele>
        <time>2024-02-04T11:23:12Z</time>
      </trkpt>
      <trkpt lat="43.18073" lon="6.49779">
        <ele>448.6</ele>
        <time>2024-02-04T11:23:13Z</time>
      </trkpt>
      <trkpt lat="43.18074" lon="6.49778">
        <ele>448.6</ele>
        <time>2024-02-04T11:23:14Z</time>
      </trkpt>
      <trkpt lat="43.18075" lon="6.49779">
        <ele>448.6</ele>
        <time>2024-02-04T11:23:15Z</time>
      </trkpt>
      <trkpt lat="43.18076" lon="6.49779">
        <ele>448.7</ele>
        <time>2024-02-04T11:23:16Z</time>
      </trkpt>
      <trkpt lat="43.18076" lon="6.49779">
        <ele>448.6</ele>
        <time>2024-02-04T11:23:17Z</time>
      </trkpt>
      <trkpt lat="43.18077" lon="6.49779">
        <ele>448.6</ele>
        <time>2024-02-04T11:23:18Z</time>
      </trkpt>
      <trkpt lat="43.18078" lon="6.4978">
        <ele>448.9</ele>
        <time>2024-02-04T11:23:19Z</time>
      </trkpt>
      <trkpt lat="43.1808" lon="6.49778">
        <ele>448.5</ele>
        <time>2024-02-04T11:23:20Z</time>
      </trkpt>
      <trkpt lat="43.18081" lon="6.49779">
        <ele>448.6</ele>
        <time>2024-02-04T11:23:21Z</time>
      </trkpt>
      <trkpt lat="43.18082" lon="6.4978">
        <ele>448.8</ele>
        <time>2024-02-04T11:23:22Z</time>
      </trkpt>
      <trkpt lat="43.18083" lon="6.4978">
        <ele>449</ele>
        <time>2024-02-04T11:23:23Z</time>
      </trkpt>
      <trkpt lat="43.18084" lon="6.49781">
        <ele>449.1</ele>
        <time>2024-02-04T11:23:24Z</time>
      </trkpt>
      <trkpt lat="43.18085" lon="6.49781">
        <ele>449.3</ele>
        <time>2024-02-04T11:23:25Z</time>
      </trkpt>
      <trkpt lat="43.18087" lon="6.49781">
        <ele>449.5</ele>
        <time>2024-02-04T11:23:26Z</time>
      </trkpt>
      <trkpt lat="43.18088" lon="6.49781">
        <ele>449.7</ele>
        <time>2024-02-04T11:23:27Z</time>
      </trkpt>
      <trkpt lat="43.18089" lon="6.49781">
        <ele>449.8</ele>
        <time>2024-02-04T11:23:28Z</time>
      </trkpt>
      <trkpt lat="43.1809" lon="6.49782">
        <ele>449.4</ele>
        <time>2024-02-04T11:23:29Z</time>
      </trkpt>
      <trkpt lat="43.18091" lon="6.49781">
        <ele>449.6</ele>
        <time>2024-02-04T11:23:30Z</time>
      </trkpt>
      <trkpt lat="43.18093" lon="6.49782">
        <ele>449.8</ele>
        <time>2024-02-04T11:23:31Z</time>
      </trkpt>
      <trkpt lat="43.18094" lon="6.49782">
        <ele>450</ele>
        <time>2024-02-04T11:23:32Z</time>
      </trkpt>
      <trkpt lat="43.18095" lon="6.49782">
        <ele>450.1</ele>
        <time>2024-02-04T11:23:33Z</time>
      </trkpt>
      <trkpt lat="43.18096" lon="6.49781">
        <ele>450.2</ele>
        <time>2024-02-04T11:23:34Z</time>
      </trkpt>
      <trkpt lat="43.18098" lon="6.49781">
        <ele>450.2</ele>
        <time>2024-02-04T11:23:35Z</time>
      </trkpt>
      <trkpt lat="43.18099" lon="6.49781">
        <ele>450.4</ele>
        <time>2024-02-04T11:23:36Z</time>
      </trkpt>
      <trkpt lat="43.181" lon="6.49781">
        <ele>450.4</ele>
        <time>2024-02-04T11:23:37Z</time>
      </trkpt>
      <trkpt lat="43.18102" lon="6.4978">
        <ele>450.5</ele>
        <time>2024-02-04T11:23:38Z</time>
      </trkpt>
      <trkpt lat="43.18103" lon="6.4978">
        <ele>450.5</ele>
        <time>2024-02-04T11:23:39Z</time>
      </trkpt>
      <trkpt lat="43.18104" lon="6.4978">
        <ele>450.6</ele>
        <time>2024-02-04T11:23:40Z</time>
      </trkpt>
      <trkpt lat="43.18105" lon="6.4978">
        <ele>450.6</ele>
        <time>2024-02-04T11:23:41Z</time>
      </trkpt>
      <trkpt lat="43.18106" lon="6.4978">
        <ele>450.5</ele>
        <time>2024-02-04T11:23:42Z</time>
      </trkpt>
      <trkpt lat="43.18107" lon="6.4978">
        <ele>450.5</ele>
        <time>2024-02-04T11:23:43Z</time>
      </trkpt>
      <trkpt lat="43.18109" lon="6.4978">
        <ele>450.5</ele>
        <time>2024-02-04T11:23:44Z</time>
      </trkpt>
      <trkpt lat="43.1811" lon="6.49781">
        <ele>450.6</ele>
        <time>2024-02-04T11:23:45Z</time>
      </trkpt>
      <trkpt lat="43.18111" lon="6.49781">
        <ele>450.8</ele>
        <time>2024-02-04T11:23:46Z</time>
      </trkpt>
      <trkpt lat="43.18112" lon="6.49782">
        <ele>450.9</ele>
        <time>2024-02-04T11:23:47Z</time>
      </trkpt>
      <trkpt lat="43.18112" lon="6.49782">
        <ele>451.1</ele>
        <time>2024-02-04T11:23:48Z</time>
      </trkpt>
      <trkpt lat="43.18113" lon="6.49783">
        <ele>451.2</ele>
        <time>2024-02-04T11:23:49Z</time>
      </trkpt>
      <trkpt lat="43.18114" lon="6.49783">
        <ele>451.3</ele>
        <time>2024-02-04T11:23:50Z</time>
      </trkpt>
      <trkpt lat="43.18115" lon="6.49784">
        <ele>451.5</ele>
        <time>2024-02-04T11:23:51Z</time>
      </trkpt>
      <trkpt lat="43.18116" lon="6.49784">
        <ele>451.7</ele>
        <time>2024-02-04T11:23:52Z</time>
      </trkpt>
      <trkpt lat="43.18117" lon="6.49784">
        <ele>451.8</ele>
        <time>2024-02-04T11:23:53Z</time>
      </trkpt>
      <trkpt lat="43.18118" lon="6.49784">
        <ele>451.9</ele>
        <time>2024-02-04T11:23:54Z</time>
      </trkpt>
      <trkpt lat="43.18119" lon="6.49784">
        <ele>451.9</ele>
        <time>2024-02-04T11:23:55Z</time>
      </trkpt>
      <trkpt lat="43.1812" lon="6.49784">
        <ele>451.9</ele>
        <time>2024-02-04T11:23:56Z</time>
      </trkpt>
      <trkpt lat="43.18121" lon="6.49785">
        <ele>452</ele>
        <time>2024-02-04T11:23:57Z</time>
      </trkpt>
      <trkpt lat="43.18122" lon="6.49785">
        <ele>452.1</ele>
        <time>2024-02-04T11:23:58Z</time>
      </trkpt>
      <trkpt lat="43.18123" lon="6.49785">
        <ele>452.2</ele>
        <time>2024-02-04T11:23:59Z</time>
      </trkpt>
      <trkpt lat="43.18123" lon="6.49786">
        <ele>452.2</ele>
        <time>2024-02-04T11:24:00Z</time>
      </trkpt>
      <trkpt lat="43.18124" lon="6.49786">
        <ele>452.2</ele>
        <time>2024-02-04T11:24:01Z</time>
      </trkpt>
      <trkpt lat="43.18125" lon="6.49786">
        <ele>452.2</ele>
        <time>2024-02-04T11:24:02Z</time>
      </trkpt>
      <trkpt lat="43.18127" lon="6.49786">
        <ele>452.1</ele>
        <time>2024-02-04T11:24:03Z</time>
      </trkpt>
      <trkpt lat="43.18128" lon="6.49787">
        <ele>452.1</ele>
        <time>2024-02-04T11:24:04Z</time>
      </trkpt>
      <trkpt lat="43.18129" lon="6.49787">
        <ele>452</ele>
        <time>2024-02-04T11:24:05Z</time>
      </trkpt>
      <trkpt lat="43.18131" lon="6.49788">
        <ele>452</ele>
        <time>2024-02-04T11:24:06Z</time>
      </trkpt>
      <trkpt lat="43.18132" lon="6.49788">
        <ele>452</ele>
        <time>2024-02-04T11:24:07Z</time>
      </trkpt>
      <trkpt lat="43.18134" lon="6.49789">
        <ele>451.9</ele>
        <time>2024-02-04T11:24:08Z</time>
      </trkpt>
      <trkpt lat="43.18135" lon="6.4979">
        <ele>451.9</ele>
        <time>2024-02-04T11:24:09Z</time>
      </trkpt>
      <trkpt lat="43.18136" lon="6.4979">
        <ele>451.9</ele>
        <time>2024-02-04T11:24:10Z</time>
      </trkpt>
      <trkpt lat="43.18137" lon="6.49791">
        <ele>451.8</ele>
        <time>2024-02-04T11:24:11Z</time>
      </trkpt>
      <trkpt lat="43.18139" lon="6.49792">
        <ele>451.8</ele>
        <time>2024-02-04T11:24:12Z</time>
      </trkpt>
      <trkpt lat="43.1814" lon="6.49792">
        <ele>451.7</ele>
        <time>2024-02-04T11:24:13Z</time>
      </trkpt>
      <trkpt lat="43.18141" lon="6.49793">
        <ele>451.7</ele>
        <time>2024-02-04T11:24:14Z</time>
      </trkpt>
      <trkpt lat="43.18143" lon="6.49794">
        <ele>451.6</ele>
        <time>2024-02-04T11:24:15Z</time>
      </trkpt>
      <trkpt lat="43.18144" lon="6.49796">
        <ele>451.6</ele>
        <time>2024-02-04T11:24:16Z</time>
      </trkpt>
      <trkpt lat="43.18145" lon="6.49797">
        <ele>451.6</ele>
        <time>2024-02-04T11:24:17Z</time>
      </trkpt>
      <trkpt lat="43.18146" lon="6.49798">
        <ele>451.7</ele>
        <time>2024-02-04T11:24:18Z</time>
      </trkpt>
      <trkpt lat="43.18148" lon="6.49798">
        <ele>451.8</ele>
        <time>2024-02-04T11:24:19Z</time>
      </trkpt>
      <trkpt lat="43.18149" lon="6.49799">
        <ele>451.8</ele>
        <time>2024-02-04T11:24:20Z</time>
      </trkpt>
      <trkpt lat="43.1815" lon="6.498">
        <ele>451.8</ele>
        <time>2024-02-04T11:24:21Z</time>
      </trkpt>
      <trkpt lat="43.18152" lon="6.498">
        <ele>451.8</ele>
        <time>2024-02-04T11:24:22Z</time>
      </trkpt>
      <trkpt lat="43.18153" lon="6.49801">
        <ele>451.9</ele>
        <time>2024-02-04T11:24:23Z</time>
      </trkpt>
      <trkpt lat="43.18154" lon="6.49801">
        <ele>451.9</ele>
        <time>2024-02-04T11:24:24Z</time>
      </trkpt>
      <trkpt lat="43.18156" lon="6.49801">
        <ele>452</ele>
        <time>2024-02-04T11:24:25Z</time>
      </trkpt>
      <trkpt lat="43.18157" lon="6.49802">
        <ele>452.1</ele>
        <time>2024-02-04T11:24:26Z</time>
      </trkpt>
      <trkpt lat="43.18158" lon="6.49802">
        <ele>452.2</ele>
        <time>2024-02-04T11:24:27Z</time>
      </trkpt>
      <trkpt lat="43.18159" lon="6.49802">
        <ele>452.4</ele>
        <time>2024-02-04T11:24:28Z</time>
      </trkpt>
      <trkpt lat="43.1816" lon="6.49802">
        <ele>452.5</ele>
        <time>2024-02-04T11:24:29Z</time>
      </trkpt>
      <trkpt lat="43.1816" lon="6.49803">
        <ele>452.6</ele>
        <time>2024-02-04T11:24:30Z</time>
      </trkpt>
      <trkpt lat="43.18161" lon="6.49804">
        <ele>452.6</ele>
        <time>2024-02-04T11:24:31Z</time>
      </trkpt>
      <trkpt lat="43.18161" lon="6.49805">
        <ele>452.7</ele>
        <time>2024-02-04T11:24:32Z</time>
      </trkpt>
      <trkpt lat="43.18162" lon="6.49805">
        <ele>452.7</ele>
        <time>2024-02-04T11:24:33Z</time>
      </trkpt>
      <trkpt lat="43.18163" lon="6.49806">
        <ele>452.7</ele>
        <time>2024-02-04T11:24:34Z</time>
      </trkpt>
      <trkpt lat="43.18164" lon="6.49806">
        <ele>452.6</ele>
        <time>2024-02-04T11:24:35Z</time>
      </trkpt>
      <trkpt lat="43.18166" lon="6.49806">
        <ele>452.6</ele>
        <time>2024-02-04T11:24:36Z</time>
      </trkpt>
      <trkpt lat="43.18167" lon="6.49808">
        <ele>452.5</ele>
        <time>2024-02-04T11:24:37Z</time>
      </trkpt>
      <trkpt lat="43.18168" lon="6.49808">
        <ele>452.5</ele>
        <time>2024-02-04T11:24:38Z</time>
      </trkpt>
      <trkpt lat="43.18169" lon="6.49808">
        <ele>452.4</ele>
        <time>2024-02-04T11:24:39Z</time>
      </trkpt>
      <trkpt lat="43.18169" lon="6.49809">
        <ele>452.2</ele>
        <time>2024-02-04T11:24:40Z</time>
      </trkpt>
      <trkpt lat="43.1817" lon="6.49809">
        <ele>452.1</ele>
        <time>2024-02-04T11:24:41Z</time>
      </trkpt>
      <trkpt lat="43.18171" lon="6.4981">
        <ele>452</ele>
        <time>2024-02-04T11:24:42Z</time>
      </trkpt>
      <trkpt lat="43.18173" lon="6.4981">
        <ele>451.8</ele>
        <time>2024-02-04T11:24:43Z</time>
      </trkpt>
      <trkpt lat="43.18174" lon="6.49811">
        <ele>451.7</ele>
        <time>2024-02-04T11:24:44Z</time>
      </trkpt>
      <trkpt lat="43.18175" lon="6.49811">
        <ele>451.6</ele>
        <time>2024-02-04T11:24:45Z</time>
      </trkpt>
      <trkpt lat="43.18177" lon="6.49812">
        <ele>451.6</ele>
        <time>2024-02-04T11:24:46Z</time>
      </trkpt>
      <trkpt lat="43.18178" lon="6.49813">
        <ele>451.5</ele>
        <time>2024-02-04T11:24:47Z</time>
      </trkpt>
      <trkpt lat="43.18179" lon="6.49814">
        <ele>451.5</ele>
        <time>2024-02-04T11:24:48Z</time>
      </trkpt>
      <trkpt lat="43.1818" lon="6.49813">
        <ele>451.4</ele>
        <time>2024-02-04T11:24:49Z</time>
      </trkpt>
      <trkpt lat="43.18182" lon="6.49814">
        <ele>451.5</ele>
        <time>2024-02-04T11:24:50Z</time>
      </trkpt>
      <trkpt lat="43.18183" lon="6.49814">
        <ele>451.5</ele>
        <time>2024-02-04T11:24:51Z</time>
      </trkpt>
      <trkpt lat="43.18184" lon="6.49815">
        <ele>451.6</ele>
        <time>2024-02-04T11:24:52Z</time>
      </trkpt>
      <trkpt lat="43.18184" lon="6.49816">
        <ele>451.5</ele>
        <time>2024-02-04T11:24:53Z</time>
      </trkpt>
      <trkpt lat="43.18185" lon="6.49816">
        <ele>451.5</ele>
        <time>2024-02-04T11:24:54Z</time>
      </trkpt>
      <trkpt lat="43.18186" lon="6.49817">
        <ele>451.6</ele>
        <time>2024-02-04T11:24:55Z</time>
      </trkpt>
      <trkpt lat="43.18188" lon="6.49816">
        <ele>451.7</ele>
        <time>2024-02-04T11:24:56Z</time>
      </trkpt>
      <trkpt lat="43.18189" lon="6.49815">
        <ele>451.8</ele>
        <time>2024-02-04T11:24:57Z</time>
      </trkpt>
      <trkpt lat="43.1819" lon="6.49815">
        <ele>452</ele>
        <time>2024-02-04T11:24:58Z</time>
      </trkpt>
      <trkpt lat="43.18191" lon="6.49814">
        <ele>452.1</ele>
        <time>2024-02-04T11:24:59Z</time>
      </trkpt>
      <trkpt lat="43.18192" lon="6.49814">
        <ele>452.2</ele>
        <time>2024-02-04T11:25:00Z</time>
      </trkpt>
      <trkpt lat="43.18193" lon="6.49815">
        <ele>452.3</ele>
        <time>2024-02-04T11:25:01Z</time>
      </trkpt>
      <trkpt lat="43.18194" lon="6.49815">
        <ele>452.5</ele>
        <time>2024-02-04T11:25:02Z</time>
      </trkpt>
      <trkpt lat="43.18195" lon="6.49815">
        <ele>452.6</ele>
        <time>2024-02-04T11:25:03Z</time>
      </trkpt>
      <trkpt lat="43.18197" lon="6.49814">
        <ele>452.8</ele>
        <time>2024-02-04T11:25:04Z</time>
      </trkpt>
      <trkpt lat="43.18198" lon="6.49814">
        <ele>453.1</ele>
        <time>2024-02-04T11:25:05Z</time>
      </trkpt>
      <trkpt lat="43.18199" lon="6.49814">
        <ele>453.3</ele>
        <time>2024-02-04T11:25:06Z</time>
      </trkpt>
      <trkpt lat="43.182" lon="6.49813">
        <ele>453.4</ele>
        <time>2024-02-04T11:25:07Z</time>
      </trkpt>
      <trkpt lat="43.18201" lon="6.49812">
        <ele>453.3</ele>
        <time>2024-02-04T11:25:08Z</time>
      </trkpt>
      <trkpt lat="43.18203" lon="6.49811">
        <ele>453.3</ele>
        <time>2024-02-04T11:25:09Z</time>
      </trkpt>
      <trkpt lat="43.18204" lon="6.49811">
        <ele>453.3</ele>
        <time>2024-02-04T11:25:10Z</time>
      </trkpt>
      <trkpt lat="43.18206" lon="6.4981">
        <ele>453.3</ele>
        <time>2024-02-04T11:25:11Z</time>
      </trkpt>
      <trkpt lat="43.18207" lon="6.4981">
        <ele>453.3</ele>
        <time>2024-02-04T11:25:12Z</time>
      </trkpt>
      <trkpt lat="43.18208" lon="6.4981">
        <ele>453.2</ele>
        <time>2024-02-04T11:25:13Z</time>
      </trkpt>
      <trkpt lat="43.18208" lon="6.4981">
        <ele>453.1</ele>
        <time>2024-02-04T11:25:14Z</time>
      </trkpt>
      <trkpt lat="43.18209" lon="6.49809">
        <ele>453.1</ele>
        <time>2024-02-04T11:25:15Z</time>
      </trkpt>
      <trkpt lat="43.1821" lon="6.49809">
        <ele>453</ele>
        <time>2024-02-04T11:25:16Z</time>
      </trkpt>
      <trkpt lat="43.18211" lon="6.49809">
        <ele>453</ele>
        <time>2024-02-04T11:25:17Z</time>
      </trkpt>
      <trkpt lat="43.18211" lon="6.49809">
        <ele>452.9</ele>
        <time>2024-02-04T11:25:18Z</time>
      </trkpt>
      <trkpt lat="43.18211" lon="6.49809">
        <ele>452.8</ele>
        <time>2024-02-04T11:25:19Z</time>
      </trkpt>
      <trkpt lat="43.18211" lon="6.49809">
        <ele>452.9</ele>
        <time>2024-02-04T11:25:20Z</time>
      </trkpt>
      <trkpt lat="43.18212" lon="6.49809">
        <ele>452.9</ele>
        <time>2024-02-04T11:25:21Z</time>
      </trkpt>
      <trkpt lat="43.18213" lon="6.49809">
        <ele>452.8</ele>
        <time>2024-02-04T11:25:22Z</time>
      </trkpt>
      <trkpt lat="43.18215" lon="6.49809">
        <ele>452.8</ele>
        <time>2024-02-04T11:25:23Z</time>
      </trkpt>
      <trkpt lat="43.18216" lon="6.4981">
        <ele>452.8</ele>
        <time>2024-02-04T11:25:24Z</time>
      </trkpt>
      <trkpt lat="43.18218" lon="6.49811">
        <ele>452.8</ele>
        <time>2024-02-04T11:25:25Z</time>
      </trkpt>
      <trkpt lat="43.18219" lon="6.49811">
        <ele>452.7</ele>
        <time>2024-02-04T11:25:26Z</time>
      </trkpt>
      <trkpt lat="43.18221" lon="6.49812">
        <ele>452.6</ele>
        <time>2024-02-04T11:25:27Z</time>
      </trkpt>
      <trkpt lat="43.18222" lon="6.49812">
        <ele>452.5</ele>
        <time>2024-02-04T11:25:28Z</time>
      </trkpt>
      <trkpt lat="43.18224" lon="6.49812">
        <ele>452.3</ele>
        <time>2024-02-04T11:25:29Z</time>
      </trkpt>
      <trkpt lat="43.18225" lon="6.49813">
        <ele>452.2</ele>
        <time>2024-02-04T11:25:30Z</time>
      </trkpt>
      <trkpt lat="43.18226" lon="6.49814">
        <ele>452.1</ele>
        <time>2024-02-04T11:25:31Z</time>
      </trkpt>
      <trkpt lat="43.18227" lon="6.49815">
        <ele>452.2</ele>
        <time>2024-02-04T11:25:32Z</time>
      </trkpt>
      <trkpt lat="43.18228" lon="6.49816">
        <ele>452.3</ele>
        <time>2024-02-04T11:25:33Z</time>
      </trkpt>
      <trkpt lat="43.1823" lon="6.49817">
        <ele>452.3</ele>
        <time>2024-02-04T11:25:34Z</time>
      </trkpt>
      <trkpt lat="43.18231" lon="6.49818">
        <ele>452.3</ele>
        <time>2024-02-04T11:25:35Z</time>
      </trkpt>
      <trkpt lat="43.18232" lon="6.49819">
        <ele>452.3</ele>
        <time>2024-02-04T11:25:36Z</time>
      </trkpt>
      <trkpt lat="43.18233" lon="6.49819">
        <ele>452.3</ele>
        <time>2024-02-04T11:25:37Z</time>
      </trkpt>
      <trkpt lat="43.18234" lon="6.4982">
        <ele>452.5</ele>
        <time>2024-02-04T11:25:38Z</time>
      </trkpt>
      <trkpt lat="43.18235" lon="6.49821">
        <ele>452.6</ele>
        <time>2024-02-04T11:25:39Z</time>
      </trkpt>
      <trkpt lat="43.18236" lon="6.49821">
        <ele>452.8</ele>
        <time>2024-02-04T11:25:40Z</time>
      </trkpt>
      <trkpt lat="43.18237" lon="6.49822">
        <ele>453</ele>
        <time>2024-02-04T11:25:41Z</time>
      </trkpt>
      <trkpt lat="43.18238" lon="6.49823">
        <ele>453</ele>
        <time>2024-02-04T11:25:42Z</time>
      </trkpt>
      <trkpt lat="43.18238" lon="6.49824">
        <ele>453.1</ele>
        <time>2024-02-04T11:25:43Z</time>
      </trkpt>
      <trkpt lat="43.18239" lon="6.49826">
        <ele>453.2</ele>
        <time>2024-02-04T11:25:44Z</time>
      </trkpt>
      <trkpt lat="43.1824" lon="6.49826">
        <ele>453.2</ele>
        <time>2024-02-04T11:25:45Z</time>
      </trkpt>
      <trkpt lat="43.18241" lon="6.49826">
        <ele>453.2</ele>
        <time>2024-02-04T11:25:46Z</time>
      </trkpt>
      <trkpt lat="43.18242" lon="6.49826">
        <ele>453.2</ele>
        <time>2024-02-04T11:25:47Z</time>
      </trkpt>
      <trkpt lat="43.18244" lon="6.49825">
        <ele>453.4</ele>
        <time>2024-02-04T11:25:48Z</time>
      </trkpt>
      <trkpt lat="43.18245" lon="6.49825">
        <ele>453.5</ele>
        <time>2024-02-04T11:25:49Z</time>
      </trkpt>
      <trkpt lat="43.18246" lon="6.49826">
        <ele>453.6</ele>
        <time>2024-02-04T11:25:50Z</time>
      </trkpt>
      <trkpt lat="43.18247" lon="6.49826">
        <ele>453.8</ele>
        <time>2024-02-04T11:25:51Z</time>
      </trkpt>
      <trkpt lat="43.18249" lon="6.49826">
        <ele>453.9</ele>
        <time>2024-02-04T11:25:52Z</time>
      </trkpt>
      <trkpt lat="43.1825" lon="6.49826">
        <ele>454</ele>
        <time>2024-02-04T11:25:53Z</time>
      </trkpt>
      <trkpt lat="43.1825" lon="6.49827">
        <ele>454.2</ele>
        <time>2024-02-04T11:25:54Z</time>
      </trkpt>
      <trkpt lat="43.18251" lon="6.49827">
        <ele>454.5</ele>
        <time>2024-02-04T11:25:55Z</time>
      </trkpt>
      <trkpt lat="43.18252" lon="6.49828">
        <ele>454.7</ele>
        <time>2024-02-04T11:25:56Z</time>
      </trkpt>
      <trkpt lat="43.18252" lon="6.49826">
        <ele>454.8</ele>
        <time>2024-02-04T11:25:57Z</time>
      </trkpt>
      <trkpt lat="43.18252" lon="6.49827">
        <ele>454.9</ele>
        <time>2024-02-04T11:25:58Z</time>
      </trkpt>
      <trkpt lat="43.18252" lon="6.49827">
        <ele>455</ele>
        <time>2024-02-04T11:25:59Z</time>
      </trkpt>
      <trkpt lat="43.18253" lon="6.49827">
        <ele>455.2</ele>
        <time>2024-02-04T11:26:00Z</time>
      </trkpt>
      <trkpt lat="43.18253" lon="6.49829">
        <ele>455.4</ele>
        <time>2024-02-04T11:26:01Z</time>
      </trkpt>
      <trkpt lat="43.18253" lon="6.49829">
        <ele>455.6</ele>
        <time>2024-02-04T11:26:02Z</time>
      </trkpt>
      <trkpt lat="43.18254" lon="6.49829">
        <ele>455.8</ele>
        <time>2024-02-04T11:26:03Z</time>
      </trkpt>
      <trkpt lat="43.18255" lon="6.49829">
        <ele>455.9</ele>
        <time>2024-02-04T11:26:04Z</time>
      </trkpt>
      <trkpt lat="43.18255" lon="6.49829">
        <ele>456.1</ele>
        <time>2024-02-04T11:26:05Z</time>
      </trkpt>
      <trkpt lat="43.18256" lon="6.49829">
        <ele>456.2</ele>
        <time>2024-02-04T11:26:06Z</time>
      </trkpt>
      <trkpt lat="43.18256" lon="6.4983">
        <ele>456.4</ele>
        <time>2024-02-04T11:26:07Z</time>
      </trkpt>
      <trkpt lat="43.18256" lon="6.4983">
        <ele>456.6</ele>
        <time>2024-02-04T11:26:08Z</time>
      </trkpt>
      <trkpt lat="43.18258" lon="6.4983">
        <ele>456.8</ele>
        <time>2024-02-04T11:26:09Z</time>
      </trkpt>
      <trkpt lat="43.18258" lon="6.4983">
        <ele>456.9</ele>
        <time>2024-02-04T11:26:10Z</time>
      </trkpt>
      <trkpt lat="43.18259" lon="6.4983">
        <ele>457</ele>
        <time>2024-02-04T11:26:11Z</time>
      </trkpt>
      <trkpt lat="43.18259" lon="6.4983">
        <ele>457.1</ele>
        <time>2024-02-04T11:26:12Z</time>
      </trkpt>
      <trkpt lat="43.1826" lon="6.4983">
        <ele>457.3</ele>
        <time>2024-02-04T11:26:13Z</time>
      </trkpt>
      <trkpt lat="43.18261" lon="6.4983">
        <ele>457.4</ele>
        <time>2024-02-04T11:26:14Z</time>
      </trkpt>
      <trkpt lat="43.18261" lon="6.4983">
        <ele>457.6</ele>
        <time>2024-02-04T11:26:15Z</time>
      </trkpt>
      <trkpt lat="43.18261" lon="6.49831">
        <ele>457.8</ele>
        <time>2024-02-04T11:26:16Z</time>
      </trkpt>
      <trkpt lat="43.18261" lon="6.49831">
        <ele>458</ele>
        <time>2024-02-04T11:26:17Z</time>
      </trkpt>
      <trkpt lat="43.18261" lon="6.49832">
        <ele>458.1</ele>
        <time>2024-02-04T11:26:18Z</time>
      </trkpt>
      <trkpt lat="43.18262" lon="6.49832">
        <ele>458.2</ele>
        <time>2024-02-04T11:26:19Z</time>
      </trkpt>
      <trkpt lat="43.18262" lon="6.49832">
        <ele>458.2</ele>
        <time>2024-02-04T11:26:20Z</time>
      </trkpt>
      <trkpt lat="43.18262" lon="6.49833">
        <ele>458.1</ele>
        <time>2024-02-04T11:26:21Z</time>
      </trkpt>
      <trkpt lat="43.18262" lon="6.49833">
        <ele>458.1</ele>
        <time>2024-02-04T11:26:22Z</time>
      </trkpt>
      <trkpt lat="43.18262" lon="6.49833">
        <ele>458.1</ele>
        <time>2024-02-04T11:26:23Z</time>
      </trkpt>
      <trkpt lat="43.18262" lon="6.49833">
        <ele>458.2</ele>
        <time>2024-02-04T11:26:24Z</time>
      </trkpt>
      <trkpt lat="43.18262" lon="6.49833">
        <ele>458.3</ele>
        <time>2024-02-04T11:26:25Z</time>
      </trkpt>
      <trkpt lat="43.18262" lon="6.49833">
        <ele>458.2</ele>
        <time>2024-02-04T11:26:26Z</time>
      </trkpt>
      <trkpt lat="43.18262" lon="6.49833">
        <ele>458.2</ele>
        <time>2024-02-04T11:26:27Z</time>
      </trkpt>
      <trkpt lat="43.18262" lon="6.49832">
        <ele>458.1</ele>
        <time>2024-02-04T11:26:28Z</time>
      </trkpt>
      <trkpt lat="43.18262" lon="6.49832">
        <ele>458.1</ele>
        <time>2024-02-04T11:26:29Z</time>
      </trkpt>
      <trkpt lat="43.18262" lon="6.49832">
        <ele>458</ele>
        <time>2024-02-04T11:26:30Z</time>
      </trkpt>
      <trkpt lat="43.18262" lon="6.49832">
        <ele>457.9</ele>
        <time>2024-02-04T11:26:31Z</time>
      </trkpt>
      <trkpt lat="43.18262" lon="6.49833">
        <ele>457.8</ele>
        <time>2024-02-04T11:26:32Z</time>
      </trkpt>
      <trkpt lat="43.18263" lon="6.49832">
        <ele>457.7</ele>
        <time>2024-02-04T11:26:33Z</time>
      </trkpt>
      <trkpt lat="43.18263" lon="6.49832">
        <ele>457.7</ele>
        <time>2024-02-04T11:26:34Z</time>
      </trkpt>
      <trkpt lat="43.18263" lon="6.49832">
        <ele>457.7</ele>
        <time>2024-02-04T11:26:35Z</time>
      </trkpt>
      <trkpt lat="43.18263" lon="6.49832">
        <ele>457.7</ele>
        <time>2024-02-04T11:26:36Z</time>
      </trkpt>
      <trkpt lat="43.18263" lon="6.49832">
        <ele>457.7</ele>
        <time>2024-02-04T11:26:37Z</time>
      </trkpt>
      <trkpt lat="43.18262" lon="6.49832">
        <ele>457.7</ele>
        <time>2024-02-04T11:26:38Z</time>
      </trkpt>
      <trkpt lat="43.18262" lon="6.49832">
        <ele>457.7</ele>
        <time>2024-02-04T11:26:39Z</time>
      </trkpt>
      <trkpt lat="43.18262" lon="6.49832">
        <ele>457.8</ele>
        <time>2024-02-04T11:26:40Z</time>
      </trkpt>
      <trkpt lat="43.18262" lon="6.49832">
        <ele>457.9</ele>
        <time>2024-02-04T11:26:41Z</time>
      </trkpt>
      <trkpt lat="43.18262" lon="6.49832">
        <ele>458</ele>
        <time>2024-02-04T11:26:42Z</time>
      </trkpt>
      <trkpt lat="43.18262" lon="6.49832">
        <ele>458</ele>
        <time>2024-02-04T11:26:43Z</time>
      </trkpt>
      <trkpt lat="43.18262" lon="6.49832">
        <ele>458</ele>
        <time>2024-02-04T11:26:44Z</time>
      </trkpt>
      <trkpt lat="43.18262" lon="6.49832">
        <ele>457.9</ele>
        <time>2024-02-04T11:26:45Z</time>
      </trkpt>
      <trkpt lat="43.18262" lon="6.49833">
        <ele>457.9</ele>
        <time>2024-02-04T11:26:46Z</time>
      </trkpt>
      <trkpt lat="43.18262" lon="6.49833">
        <ele>457.8</ele>
        <time>2024-02-04T11:26:47Z</time>
      </trkpt>
      <trkpt lat="43.18262" lon="6.49833">
        <ele>457.8</ele>
        <time>2024-02-04T11:26:48Z</time>
      </trkpt>
      <trkpt lat="43.18262" lon="6.49832">
        <ele>457.9</ele>
        <time>2024-02-04T11:26:49Z</time>
      </trkpt>
      <trkpt lat="43.18263" lon="6.49832">
        <ele>457.9</ele>
        <time>2024-02-04T11:26:50Z</time>
      </trkpt>
      <trkpt lat="43.18264" lon="6.49832">
        <ele>457.9</ele>
        <time>2024-02-04T11:26:51Z</time>
      </trkpt>
      <trkpt lat="43.18264" lon="6.49832">
        <ele>457.9</ele>
        <time>2024-02-04T11:26:52Z</time>
      </trkpt>
      <trkpt lat="43.18265" lon="6.49832">
        <ele>458</ele>
        <time>2024-02-04T11:26:53Z</time>
      </trkpt>
      <trkpt lat="43.18266" lon="6.49832">
        <ele>458</ele>
        <time>2024-02-04T11:26:54Z</time>
      </trkpt>
      <trkpt lat="43.18266" lon="6.49832">
        <ele>458.1</ele>
        <time>2024-02-04T11:26:55Z</time>
      </trkpt>
      <trkpt lat="43.18266" lon="6.49832">
        <ele>458.1</ele>
        <time>2024-02-04T11:26:56Z</time>
      </trkpt>
      <trkpt lat="43.18267" lon="6.49831">
        <ele>458.1</ele>
        <time>2024-02-04T11:26:57Z</time>
      </trkpt>
      <trkpt lat="43.18268" lon="6.49831">
        <ele>458.2</ele>
        <time>2024-02-04T11:26:58Z</time>
      </trkpt>
      <trkpt lat="43.18268" lon="6.49831">
        <ele>458.3</ele>
        <time>2024-02-04T11:26:59Z</time>
      </trkpt>
      <trkpt lat="43.18269" lon="6.49831">
        <ele>458.4</ele>
        <time>2024-02-04T11:27:00Z</time>
      </trkpt>
      <trkpt lat="43.1827" lon="6.49831">
        <ele>458.4</ele>
        <time>2024-02-04T11:27:01Z</time>
      </trkpt>
      <trkpt lat="43.1827" lon="6.4983">
        <ele>458.5</ele>
        <time>2024-02-04T11:27:02Z</time>
      </trkpt>
      <trkpt lat="43.1827" lon="6.4983">
        <ele>458.5</ele>
        <time>2024-02-04T11:27:03Z</time>
      </trkpt>
      <trkpt lat="43.18271" lon="6.49831">
        <ele>458.6</ele>
        <time>2024-02-04T11:27:04Z</time>
      </trkpt>
      <trkpt lat="43.18272" lon="6.4983">
        <ele>458.7</ele>
        <time>2024-02-04T11:27:05Z</time>
      </trkpt>
      <trkpt lat="43.18273" lon="6.4983">
        <ele>458.7</ele>
        <time>2024-02-04T11:27:06Z</time>
      </trkpt>
      <trkpt lat="43.18274" lon="6.4983">
        <ele>458.8</ele>
        <time>2024-02-04T11:27:07Z</time>
      </trkpt>
      <trkpt lat="43.18274" lon="6.4983">
        <ele>458.9</ele>
        <time>2024-02-04T11:27:08Z</time>
      </trkpt>
      <trkpt lat="43.18275" lon="6.4983">
        <ele>459</ele>
        <time>2024-02-04T11:27:09Z</time>
      </trkpt>
      <trkpt lat="43.18275" lon="6.49831">
        <ele>459.1</ele>
        <time>2024-02-04T11:27:10Z</time>
      </trkpt>
      <trkpt lat="43.18276" lon="6.49831">
        <ele>459.2</ele>
        <time>2024-02-04T11:27:11Z</time>
      </trkpt>
      <trkpt lat="43.18277" lon="6.49831">
        <ele>459.2</ele>
        <time>2024-02-04T11:27:12Z</time>
      </trkpt>
      <trkpt lat="43.18278" lon="6.49832">
        <ele>459.3</ele>
        <time>2024-02-04T11:27:13Z</time>
      </trkpt>
      <trkpt lat="43.18278" lon="6.49832">
        <ele>459.3</ele>
        <time>2024-02-04T11:27:14Z</time>
      </trkpt>
      <trkpt lat="43.18279" lon="6.49832">
        <ele>459.4</ele>
        <time>2024-02-04T11:27:15Z</time>
      </trkpt>
      <trkpt lat="43.1828" lon="6.49833">
        <ele>459.4</ele>
        <time>2024-02-04T11:27:16Z</time>
      </trkpt>
      <trkpt lat="43.1828" lon="6.49833">
        <ele>459.4</ele>
        <time>2024-02-04T11:27:17Z</time>
      </trkpt>
      <trkpt lat="43.18281" lon="6.49834">
        <ele>459.5</ele>
        <time>2024-02-04T11:27:18Z</time>
      </trkpt>
      <trkpt lat="43.18282" lon="6.49833">
        <ele>459.5</ele>
        <time>2024-02-04T11:27:19Z</time>
      </trkpt>
      <trkpt lat="43.18282" lon="6.49833">
        <ele>459.5</ele>
        <time>2024-02-04T11:27:20Z</time>
      </trkpt>
      <trkpt lat="43.18283" lon="6.49833">
        <ele>459.5</ele>
        <time>2024-02-04T11:27:21Z</time>
      </trkpt>
      <trkpt lat="43.18283" lon="6.49834">
        <ele>459.6</ele>
        <time>2024-02-04T11:27:22Z</time>
      </trkpt>
      <trkpt lat="43.18284" lon="6.49834">
        <ele>459.6</ele>
        <time>2024-02-04T11:27:23Z</time>
      </trkpt>
      <trkpt lat="43.18284" lon="6.49834">
        <ele>459.6</ele>
        <time>2024-02-04T11:27:24Z</time>
      </trkpt>
      <trkpt lat="43.18284" lon="6.49834">
        <ele>459.7</ele>
        <time>2024-02-04T11:27:25Z</time>
      </trkpt>
      <trkpt lat="43.18284" lon="6.49834">
        <ele>459.8</ele>
        <time>2024-02-04T11:27:26Z</time>
      </trkpt>
      <trkpt lat="43.18284" lon="6.49834">
        <ele>459.9</ele>
        <time>2024-02-04T11:27:27Z</time>
      </trkpt>
      <trkpt lat="43.18284" lon="6.49834">
        <ele>460</ele>
        <time>2024-02-04T11:27:28Z</time>
      </trkpt>
      <trkpt lat="43.18284" lon="6.49833">
        <ele>460</ele>
        <time>2024-02-04T11:27:29Z</time>
      </trkpt>
      <trkpt lat="43.18284" lon="6.49833">
        <ele>460.1</ele>
        <time>2024-02-04T11:27:30Z</time>
      </trkpt>
      <trkpt lat="43.18284" lon="6.49833">
        <ele>460.1</ele>
        <time>2024-02-04T11:27:31Z</time>
      </trkpt>
      <trkpt lat="43.18284" lon="6.49833">
        <ele>460.1</ele>
        <time>2024-02-04T11:27:32Z</time>
      </trkpt>
      <trkpt lat="43.18284" lon="6.49833">
        <ele>460.2</ele>
        <time>2024-02-04T11:27:33Z</time>
      </trkpt>
      <trkpt lat="43.18284" lon="6.49833">
        <ele>460.2</ele>
        <time>2024-02-04T11:27:34Z</time>
      </trkpt>
      <trkpt lat="43.18284" lon="6.49833">
        <ele>460.2</ele>
        <time>2024-02-04T11:27:35Z</time>
      </trkpt>
      <trkpt lat="43.18284" lon="6.49833">
        <ele>460.3</ele>
        <time>2024-02-04T11:27:36Z</time>
      </trkpt>
      <trkpt lat="43.18284" lon="6.49833">
        <ele>460.2</ele>
        <time>2024-02-04T11:27:37Z</time>
      </trkpt>
      <trkpt lat="43.18284" lon="6.49833">
        <ele>460.2</ele>
        <time>2024-02-04T11:27:38Z</time>
      </trkpt>
      <trkpt lat="43.18284" lon="6.49833">
        <ele>460.3</ele>
        <time>2024-02-04T11:27:39Z</time>
      </trkpt>
      <trkpt lat="43.18284" lon="6.49833">
        <ele>460.3</ele>
        <time>2024-02-04T11:27:40Z</time>
      </trkpt>
      <trkpt lat="43.18284" lon="6.49833">
        <ele>460.3</ele>
        <time>2024-02-04T11:27:41Z</time>
      </trkpt>
      <trkpt lat="43.18283" lon="6.49833">
        <ele>460.4</ele>
        <time>2024-02-04T11:27:42Z</time>
      </trkpt>
      <trkpt lat="43.18283" lon="6.49833">
        <ele>460.3</ele>
        <time>2024-02-04T11:27:43Z</time>
      </trkpt>
      <trkpt lat="43.18284" lon="6.49833">
        <ele>460.3</ele>
        <time>2024-02-04T11:27:44Z</time>
      </trkpt>
      <trkpt lat="43.18283" lon="6.49833">
        <ele>460.3</ele>
        <time>2024-02-04T11:27:45Z</time>
      </trkpt>
      <trkpt lat="43.18284" lon="6.49833">
        <ele>460.3</ele>
        <time>2024-02-04T11:27:46Z</time>
      </trkpt>
      <trkpt lat="43.18284" lon="6.49833">
        <ele>460.2</ele>
        <time>2024-02-04T11:27:47Z</time>
      </trkpt>
      <trkpt lat="43.18284" lon="6.49833">
        <ele>460.2</ele>
        <time>2024-02-04T11:27:48Z</time>
      </trkpt>
      <trkpt lat="43.18284" lon="6.49833">
        <ele>460.2</ele>
        <time>2024-02-04T11:27:49Z</time>
      </trkpt>
      <trkpt lat="43.18284" lon="6.49833">
        <ele>460.3</ele>
        <time>2024-02-04T11:27:50Z</time>
      </trkpt>
      <trkpt lat="43.18284" lon="6.49833">
        <ele>460.3</ele>
        <time>2024-02-04T11:27:51Z</time>
      </trkpt>
      <trkpt lat="43.18284" lon="6.49833">
        <ele>460.3</ele>
        <time>2024-02-04T11:27:52Z</time>
      </trkpt>
      <trkpt lat="43.18284" lon="6.49833">
        <ele>460.3</ele>
        <time>2024-02-04T11:27:53Z</time>
      </trkpt>
      <trkpt lat="43.18284" lon="6.49833">
        <ele>460.3</ele>
        <time>2024-02-04T11:27:54Z</time>
      </trkpt>
      <trkpt lat="43.18284" lon="6.49833">
        <ele>460.3</ele>
        <time>2024-02-04T11:27:55Z</time>
      </trkpt>
      <trkpt lat="43.18284" lon="6.49833">
        <ele>460.2</ele>
        <time>2024-02-04T11:27:56Z</time>
      </trkpt>
      <trkpt lat="43.18284" lon="6.49833">
        <ele>460.2</ele>
        <time>2024-02-04T11:27:57Z</time>
      </trkpt>
      <trkpt lat="43.18284" lon="6.49833">
        <ele>460.2</ele>
        <time>2024-02-04T11:27:58Z</time>
      </trkpt>
      <trkpt lat="43.18284" lon="6.49833">
        <ele>460.2</ele>
        <time>2024-02-04T11:27:59Z</time>
      </trkpt>
      <trkpt lat="43.18284" lon="6.49833">
        <ele>460.2</ele>
        <time>2024-02-04T11:28:00Z</time>
      </trkpt>
      <trkpt lat="43.18284" lon="6.49833">
        <ele>460.2</ele>
        <time>2024-02-04T11:28:01Z</time>
      </trkpt>
      <trkpt lat="43.18284" lon="6.49833">
        <ele>460.2</ele>
        <time>2024-02-04T11:28:02Z</time>
      </trkpt>
      <trkpt lat="43.18284" lon="6.49833">
        <ele>460.2</ele>
        <time>2024-02-04T11:28:03Z</time>
      </trkpt>
      <trkpt lat="43.18284" lon="6.49833">
        <ele>460.1</ele>
        <time>2024-02-04T11:28:04Z</time>
      </trkpt>
      <trkpt lat="43.18284" lon="6.49833">
        <ele>460</ele>
        <time>2024-02-04T11:28:05Z</time>
      </trkpt>
      <trkpt lat="43.18283" lon="6.49833">
        <ele>459.9</ele>
        <time>2024-02-04T11:28:06Z</time>
      </trkpt>
      <trkpt lat="43.18283" lon="6.49833">
        <ele>460</ele>
        <time>2024-02-04T11:28:07Z</time>
      </trkpt>
      <trkpt lat="43.18283" lon="6.49833">
        <ele>460</ele>
        <time>2024-02-04T11:28:08Z</time>
      </trkpt>
      <trkpt lat="43.18283" lon="6.49833">
        <ele>460</ele>
        <time>2024-02-04T11:28:09Z</time>
      </trkpt>
      <trkpt lat="43.18283" lon="6.49833">
        <ele>460</ele>
        <time>2024-02-04T11:28:10Z</time>
      </trkpt>
      <trkpt lat="43.18283" lon="6.49833">
        <ele>460.1</ele>
        <time>2024-02-04T11:28:11Z</time>
      </trkpt>
      <trkpt lat="43.18283" lon="6.49833">
        <ele>460.1</ele>
        <time>2024-02-04T11:28:12Z</time>
      </trkpt>
      <trkpt lat="43.18283" lon="6.49833">
        <ele>460.2</ele>
        <time>2024-02-04T11:28:13Z</time>
      </trkpt>
      <trkpt lat="43.18283" lon="6.49833">
        <ele>460.2</ele>
        <time>2024-02-04T11:28:14Z</time>
      </trkpt>
      <trkpt lat="43.18283" lon="6.49833">
        <ele>460.1</ele>
        <time>2024-02-04T11:28:15Z</time>
      </trkpt>
      <trkpt lat="43.18283" lon="6.49833">
        <ele>460.1</ele>
        <time>2024-02-04T11:28:16Z</time>
      </trkpt>
      <trkpt lat="43.18283" lon="6.49833">
        <ele>460.1</ele>
        <time>2024-02-04T11:28:17Z</time>
      </trkpt>
      <trkpt lat="43.18283" lon="6.49833">
        <ele>460.1</ele>
        <time>2024-02-04T11:28:18Z</time>
      </trkpt>
      <trkpt lat="43.18283" lon="6.49833">
        <ele>460.1</ele>
        <time>2024-02-04T11:28:19Z</time>
      </trkpt>
      <trkpt lat="43.18283" lon="6.49834">
        <ele>460</ele>
        <time>2024-02-04T11:28:20Z</time>
      </trkpt>
      <trkpt lat="43.18283" lon="6.49834">
        <ele>460.1</ele>
        <time>2024-02-04T11:28:21Z</time>
      </trkpt>
      <trkpt lat="43.18283" lon="6.49834">
        <ele>460.1</ele>
        <time>2024-02-04T11:28:22Z</time>
      </trkpt>
      <trkpt lat="43.18283" lon="6.49834">
        <ele>460.1</ele>
        <time>2024-02-04T11:28:23Z</time>
      </trkpt>
      <trkpt lat="43.18283" lon="6.49833">
        <ele>460.2</ele>
        <time>2024-02-04T11:28:24Z</time>
      </trkpt>
      <trkpt lat="43.18283" lon="6.49833">
        <ele>460.2</ele>
        <time>2024-02-04T11:28:25Z</time>
      </trkpt>
      <trkpt lat="43.18283" lon="6.49833">
        <ele>460.1</ele>
        <time>2024-02-04T11:28:26Z</time>
      </trkpt>
      <trkpt lat="43.18284" lon="6.49833">
        <ele>460.1</ele>
        <time>2024-02-04T11:28:27Z</time>
      </trkpt>
      <trkpt lat="43.18284" lon="6.49833">
        <ele>460.1</ele>
        <time>2024-02-04T11:28:28Z</time>
      </trkpt>
      <trkpt lat="43.18284" lon="6.49833">
        <ele>460</ele>
        <time>2024-02-04T11:28:29Z</time>
      </trkpt>
      <trkpt lat="43.18283" lon="6.49833">
        <ele>460</ele>
        <time>2024-02-04T11:28:30Z</time>
      </trkpt>
      <trkpt lat="43.18283" lon="6.49833">
        <ele>459.9</ele>
        <time>2024-02-04T11:28:31Z</time>
      </trkpt>
      <trkpt lat="43.18283" lon="6.49833">
        <ele>459.9</ele>
        <time>2024-02-04T11:28:32Z</time>
      </trkpt>
      <trkpt lat="43.18283" lon="6.49834">
        <ele>459.9</ele>
        <time>2024-02-04T11:28:33Z</time>
      </trkpt>
      <trkpt lat="43.18283" lon="6.49834">
        <ele>459.8</ele>
        <time>2024-02-04T11:28:34Z</time>
      </trkpt>
      <trkpt lat="43.18283" lon="6.49834">
        <ele>459.8</ele>
        <time>2024-02-04T11:28:35Z</time>
      </trkpt>
      <trkpt lat="43.18283" lon="6.49834">
        <ele>459.7</ele>
        <time>2024-02-04T11:28:36Z</time>
      </trkpt>
      <trkpt lat="43.18283" lon="6.49834">
        <ele>459.6</ele>
        <time>2024-02-04T11:28:37Z</time>
      </trkpt>
      <trkpt lat="43.18283" lon="6.49834">
        <ele>459.6</ele>
        <time>2024-02-04T11:28:38Z</time>
      </trkpt>
      <trkpt lat="43.18282" lon="6.49834">
        <ele>459.6</ele>
        <time>2024-02-04T11:28:39Z</time>
      </trkpt>
      <trkpt lat="43.18282" lon="6.49834">
        <ele>459.6</ele>
        <time>2024-02-04T11:28:40Z</time>
      </trkpt>
      <trkpt lat="43.18282" lon="6.49834">
        <ele>459.7</ele>
        <time>2024-02-04T11:28:41Z</time>
      </trkpt>
      <trkpt lat="43.18282" lon="6.49833">
        <ele>459.7</ele>
        <time>2024-02-04T11:28:42Z</time>
      </trkpt>
      <trkpt lat="43.18282" lon="6.49833">
        <ele>459.7</ele>
        <time>2024-02-04T11:28:43Z</time>
      </trkpt>
      <trkpt lat="43.18283" lon="6.49833">
        <ele>459.7</ele>
        <time>2024-02-04T11:28:44Z</time>
      </trkpt>
      <trkpt lat="43.18284" lon="6.49833">
        <ele>459.7</ele>
        <time>2024-02-04T11:28:45Z</time>
      </trkpt>
      <trkpt lat="43.18284" lon="6.49834">
        <ele>459.7</ele>
        <time>2024-02-04T11:28:46Z</time>
      </trkpt>
      <trkpt lat="43.18285" lon="6.49834">
        <ele>459.7</ele>
        <time>2024-02-04T11:28:47Z</time>
      </trkpt>
      <trkpt lat="43.18286" lon="6.49835">
        <ele>459.6</ele>
        <time>2024-02-04T11:28:48Z</time>
      </trkpt>
      <trkpt lat="43.18286" lon="6.49835">
        <ele>459.6</ele>
        <time>2024-02-04T11:28:49Z</time>
      </trkpt>
      <trkpt lat="43.18287" lon="6.49836">
        <ele>459.6</ele>
        <time>2024-02-04T11:28:50Z</time>
      </trkpt>
      <trkpt lat="43.18288" lon="6.49837">
        <ele>459.5</ele>
        <time>2024-02-04T11:28:51Z</time>
      </trkpt>
      <trkpt lat="43.18289" lon="6.49837">
        <ele>459.5</ele>
        <time>2024-02-04T11:28:52Z</time>
      </trkpt>
      <trkpt lat="43.1829" lon="6.49838">
        <ele>459.4</ele>
        <time>2024-02-04T11:28:53Z</time>
      </trkpt>
      <trkpt lat="43.1829" lon="6.49839">
        <ele>459.5</ele>
        <time>2024-02-04T11:28:54Z</time>
      </trkpt>
      <trkpt lat="43.18291" lon="6.49839">
        <ele>459.4</ele>
        <time>2024-02-04T11:28:55Z</time>
      </trkpt>
      <trkpt lat="43.18292" lon="6.4984">
        <ele>459.4</ele>
        <time>2024-02-04T11:28:56Z</time>
      </trkpt>
      <trkpt lat="43.18293" lon="6.49842">
        <ele>459.5</ele>
        <time>2024-02-04T11:28:57Z</time>
      </trkpt>
      <trkpt lat="43.18293" lon="6.49843">
        <ele>459.4</ele>
        <time>2024-02-04T11:28:58Z</time>
      </trkpt>
      <trkpt lat="43.18294" lon="6.49844">
        <ele>459.4</ele>
        <time>2024-02-04T11:28:59Z</time>
      </trkpt>
      <trkpt lat="43.18295" lon="6.49845">
        <ele>459.3</ele>
        <time>2024-02-04T11:29:00Z</time>
      </trkpt>
      <trkpt lat="43.18296" lon="6.49846">
        <ele>459.4</ele>
        <time>2024-02-04T11:29:01Z</time>
      </trkpt>
      <trkpt lat="43.18297" lon="6.49847">
        <ele>459.4</ele>
        <time>2024-02-04T11:29:02Z</time>
      </trkpt>
      <trkpt lat="43.18298" lon="6.49848">
        <ele>459.4</ele>
        <time>2024-02-04T11:29:03Z</time>
      </trkpt>
      <trkpt lat="43.18299" lon="6.49849">
        <ele>459.4</ele>
        <time>2024-02-04T11:29:04Z</time>
      </trkpt>
      <trkpt lat="43.18299" lon="6.4985">
        <ele>459.4</ele>
        <time>2024-02-04T11:29:05Z</time>
      </trkpt>
      <trkpt lat="43.183" lon="6.4985">
        <ele>459.4</ele>
        <time>2024-02-04T11:29:06Z</time>
      </trkpt>
      <trkpt lat="43.18301" lon="6.49851">
        <ele>459.5</ele>
        <time>2024-02-04T11:29:07Z</time>
      </trkpt>
      <trkpt lat="43.18302" lon="6.49851">
        <ele>459.5</ele>
        <time>2024-02-04T11:29:08Z</time>
      </trkpt>
      <trkpt lat="43.18303" lon="6.49852">
        <ele>459.6</ele>
        <time>2024-02-04T11:29:09Z</time>
      </trkpt>
      <trkpt lat="43.18304" lon="6.49852">
        <ele>459.6</ele>
        <time>2024-02-04T11:29:10Z</time>
      </trkpt>
      <trkpt lat="43.18305" lon="6.49853">
        <ele>459.7</ele>
        <time>2024-02-04T11:29:11Z</time>
      </trkpt>
      <trkpt lat="43.18306" lon="6.49854">
        <ele>459.7</ele>
        <time>2024-02-04T11:29:12Z</time>
      </trkpt>
      <trkpt lat="43.18307" lon="6.49855">
        <ele>459.7</ele>
        <time>2024-02-04T11:29:13Z</time>
      </trkpt>
      <trkpt lat="43.18308" lon="6.49856">
        <ele>459.7</ele>
        <time>2024-02-04T11:29:14Z</time>
      </trkpt>
      <trkpt lat="43.18308" lon="6.49856">
        <ele>459.7</ele>
        <time>2024-02-04T11:29:15Z</time>
      </trkpt>
      <trkpt lat="43.18309" lon="6.49856">
        <ele>459.7</ele>
        <time>2024-02-04T11:29:16Z</time>
      </trkpt>
      <trkpt lat="43.18311" lon="6.49857">
        <ele>459.7</ele>
        <time>2024-02-04T11:29:17Z</time>
      </trkpt>
      <trkpt lat="43.18312" lon="6.49857">
        <ele>459.7</ele>
        <time>2024-02-04T11:29:18Z</time>
      </trkpt>
      <trkpt lat="43.18313" lon="6.49857">
        <ele>459.7</ele>
        <time>2024-02-04T11:29:19Z</time>
      </trkpt>
      <trkpt lat="43.18314" lon="6.49857">
        <ele>459.7</ele>
        <time>2024-02-04T11:29:20Z</time>
      </trkpt>
      <trkpt lat="43.18315" lon="6.49858">
        <ele>459.7</ele>
        <time>2024-02-04T11:29:21Z</time>
      </trkpt>
      <trkpt lat="43.18316" lon="6.49858">
        <ele>459.7</ele>
        <time>2024-02-04T11:29:22Z</time>
      </trkpt>
      <trkpt lat="43.18317" lon="6.49859">
        <ele>459.7</ele>
        <time>2024-02-04T11:29:23Z</time>
      </trkpt>
      <trkpt lat="43.18319" lon="6.49859">
        <ele>459.7</ele>
        <time>2024-02-04T11:29:24Z</time>
      </trkpt>
      <trkpt lat="43.18319" lon="6.49859">
        <ele>459.6</ele>
        <time>2024-02-04T11:29:25Z</time>
      </trkpt>
      <trkpt lat="43.1832" lon="6.49858">
        <ele>459.5</ele>
        <time>2024-02-04T11:29:26Z</time>
      </trkpt>
      <trkpt lat="43.18321" lon="6.49858">
        <ele>459.5</ele>
        <time>2024-02-04T11:29:27Z</time>
      </trkpt>
      <trkpt lat="43.18322" lon="6.49858">
        <ele>459.5</ele>
        <time>2024-02-04T11:29:28Z</time>
      </trkpt>
      <trkpt lat="43.18322" lon="6.49857">
        <ele>459.5</ele>
        <time>2024-02-04T11:29:29Z</time>
      </trkpt>
      <trkpt lat="43.18323" lon="6.49857">
        <ele>459.6</ele>
        <time>2024-02-04T11:29:30Z</time>
      </trkpt>
      <trkpt lat="43.18324" lon="6.49858">
        <ele>459.6</ele>
        <time>2024-02-04T11:29:31Z</time>
      </trkpt>
      <trkpt lat="43.18325" lon="6.49858">
        <ele>459.7</ele>
        <time>2024-02-04T11:29:32Z</time>
      </trkpt>
      <trkpt lat="43.18325" lon="6.49858">
        <ele>459.7</ele>
        <time>2024-02-04T11:29:33Z</time>
      </trkpt>
      <trkpt lat="43.18326" lon="6.49859">
        <ele>459.9</ele>
        <time>2024-02-04T11:29:34Z</time>
      </trkpt>
      <trkpt lat="43.18327" lon="6.4986">
        <ele>460</ele>
        <time>2024-02-04T11:29:35Z</time>
      </trkpt>
      <trkpt lat="43.18328" lon="6.4986">
        <ele>460.1</ele>
        <time>2024-02-04T11:29:36Z</time>
      </trkpt>
      <trkpt lat="43.18329" lon="6.49861">
        <ele>460.3</ele>
        <time>2024-02-04T11:29:37Z</time>
      </trkpt>
      <trkpt lat="43.1833" lon="6.49861">
        <ele>460.5</ele>
        <time>2024-02-04T11:29:38Z</time>
      </trkpt>
      <trkpt lat="43.18331" lon="6.49862">
        <ele>460.8</ele>
        <time>2024-02-04T11:29:39Z</time>
      </trkpt>
      <trkpt lat="43.18332" lon="6.49862">
        <ele>461</ele>
        <time>2024-02-04T11:29:40Z</time>
      </trkpt>
      <trkpt lat="43.18333" lon="6.49862">
        <ele>461.2</ele>
        <time>2024-02-04T11:29:41Z</time>
      </trkpt>
      <trkpt lat="43.18333" lon="6.49862">
        <ele>461.4</ele>
        <time>2024-02-04T11:29:42Z</time>
      </trkpt>
      <trkpt lat="43.18334" lon="6.49862">
        <ele>461.5</ele>
        <time>2024-02-04T11:29:43Z</time>
      </trkpt>
      <trkpt lat="43.18335" lon="6.49862">
        <ele>461.8</ele>
        <time>2024-02-04T11:29:44Z</time>
      </trkpt>
      <trkpt lat="43.18335" lon="6.49862">
        <ele>462</ele>
        <time>2024-02-04T11:29:45Z</time>
      </trkpt>
      <trkpt lat="43.18336" lon="6.49861">
        <ele>462.1</ele>
        <time>2024-02-04T11:29:46Z</time>
      </trkpt>
      <trkpt lat="43.18336" lon="6.4986">
        <ele>462.3</ele>
        <time>2024-02-04T11:29:47Z</time>
      </trkpt>
      <trkpt lat="43.18337" lon="6.4986">
        <ele>462.5</ele>
        <time>2024-02-04T11:29:48Z</time>
      </trkpt>
      <trkpt lat="43.18338" lon="6.4986">
        <ele>462.8</ele>
        <time>2024-02-04T11:29:49Z</time>
      </trkpt>
      <trkpt lat="43.18338" lon="6.4986">
        <ele>462.9</ele>
        <time>2024-02-04T11:29:50Z</time>
      </trkpt>
      <trkpt lat="43.18339" lon="6.4986">
        <ele>463.2</ele>
        <time>2024-02-04T11:29:51Z</time>
      </trkpt>
      <trkpt lat="43.1834" lon="6.4986">
        <ele>463.3</ele>
        <time>2024-02-04T11:29:52Z</time>
      </trkpt>
      <trkpt lat="43.1834" lon="6.4986">
        <ele>463.5</ele>
        <time>2024-02-04T11:29:53Z</time>
      </trkpt>
      <trkpt lat="43.18341" lon="6.4986">
        <ele>463.6</ele>
        <time>2024-02-04T11:29:54Z</time>
      </trkpt>
      <trkpt lat="43.18341" lon="6.4986">
        <ele>463.7</ele>
        <time>2024-02-04T11:29:55Z</time>
      </trkpt>
      <trkpt lat="43.18342" lon="6.4986">
        <ele>463.9</ele>
        <time>2024-02-04T11:29:56Z</time>
      </trkpt>
      <trkpt lat="43.18342" lon="6.49861">
        <ele>464</ele>
        <time>2024-02-04T11:29:57Z</time>
      </trkpt>
      <trkpt lat="43.18343" lon="6.49861">
        <ele>464.2</ele>
        <time>2024-02-04T11:29:58Z</time>
      </trkpt>
      <trkpt lat="43.18343" lon="6.49861">
        <ele>464.4</ele>
        <time>2024-02-04T11:29:59Z</time>
      </trkpt>
      <trkpt lat="43.18343" lon="6.49861">
        <ele>464.6</ele>
        <time>2024-02-04T11:30:00Z</time>
      </trkpt>
      <trkpt lat="43.18344" lon="6.49861">
        <ele>464.8</ele>
        <time>2024-02-04T11:30:01Z</time>
      </trkpt>
      <trkpt lat="43.18344" lon="6.49861">
        <ele>464.9</ele>
        <time>2024-02-04T11:30:02Z</time>
      </trkpt>
      <trkpt lat="43.18345" lon="6.49861">
        <ele>465.1</ele>
        <time>2024-02-04T11:30:03Z</time>
      </trkpt>
      <trkpt lat="43.18345" lon="6.49862">
        <ele>465.2</ele>
        <time>2024-02-04T11:30:04Z</time>
      </trkpt>
      <trkpt lat="43.18345" lon="6.49862">
        <ele>465.5</ele>
        <time>2024-02-04T11:30:05Z</time>
      </trkpt>
      <trkpt lat="43.18346" lon="6.49863">
        <ele>465.7</ele>
        <time>2024-02-04T11:30:06Z</time>
      </trkpt>
      <trkpt lat="43.18346" lon="6.49863">
        <ele>465.9</ele>
        <time>2024-02-04T11:30:07Z</time>
      </trkpt>
      <trkpt lat="43.18346" lon="6.49864">
        <ele>466</ele>
        <time>2024-02-04T11:30:08Z</time>
      </trkpt>
      <trkpt lat="43.18346" lon="6.49864">
        <ele>466.2</ele>
        <time>2024-02-04T11:30:09Z</time>
      </trkpt>
      <trkpt lat="43.18347" lon="6.49864">
        <ele>466.3</ele>
        <time>2024-02-04T11:30:10Z</time>
      </trkpt>
      <trkpt lat="43.18347" lon="6.49864">
        <ele>466.4</ele>
        <time>2024-02-04T11:30:11Z</time>
      </trkpt>
      <trkpt lat="43.18347" lon="6.49865">
        <ele>466.5</ele>
        <time>2024-02-04T11:30:12Z</time>
      </trkpt>
      <trkpt lat="43.18348" lon="6.49865">
        <ele>466.6</ele>
        <time>2024-02-04T11:30:13Z</time>
      </trkpt>
      <trkpt lat="43.18349" lon="6.49866">
        <ele>466.7</ele>
        <time>2024-02-04T11:30:14Z</time>
      </trkpt>
      <trkpt lat="43.18349" lon="6.49866">
        <ele>466.8</ele>
        <time>2024-02-04T11:30:15Z</time>
      </trkpt>
      <trkpt lat="43.18349" lon="6.49867">
        <ele>466.9</ele>
        <time>2024-02-04T11:30:16Z</time>
      </trkpt>
      <trkpt lat="43.18349" lon="6.49866">
        <ele>467</ele>
        <time>2024-02-04T11:30:17Z</time>
      </trkpt>
      <trkpt lat="43.18349" lon="6.49866">
        <ele>467.1</ele>
        <time>2024-02-04T11:30:18Z</time>
      </trkpt>
      <trkpt lat="43.18349" lon="6.49866">
        <ele>467.2</ele>
        <time>2024-02-04T11:30:19Z</time>
      </trkpt>
      <trkpt lat="43.18349" lon="6.49866">
        <ele>467.1</ele>
        <time>2024-02-04T11:30:20Z</time>
      </trkpt>
      <trkpt lat="43.18349" lon="6.49866">
        <ele>467.1</ele>
        <time>2024-02-04T11:30:21Z</time>
      </trkpt>
      <trkpt lat="43.18349" lon="6.49867">
        <ele>467.1</ele>
        <time>2024-02-04T11:30:22Z</time>
      </trkpt>
      <trkpt lat="43.18349" lon="6.49867">
        <ele>467.1</ele>
        <time>2024-02-04T11:30:23Z</time>
      </trkpt>
      <trkpt lat="43.1835" lon="6.49867">
        <ele>467.2</ele>
        <time>2024-02-04T11:30:24Z</time>
      </trkpt>
      <trkpt lat="43.1835" lon="6.49868">
        <ele>467.2</ele>
        <time>2024-02-04T11:30:25Z</time>
      </trkpt>
      <trkpt lat="43.18351" lon="6.49868">
        <ele>467.2</ele>
        <time>2024-02-04T11:30:26Z</time>
      </trkpt>
      <trkpt lat="43.18352" lon="6.49868">
        <ele>467.2</ele>
        <time>2024-02-04T11:30:27Z</time>
      </trkpt>
      <trkpt lat="43.18353" lon="6.49868">
        <ele>467.2</ele>
        <time>2024-02-04T11:30:28Z</time>
      </trkpt>
      <trkpt lat="43.18354" lon="6.49868">
        <ele>467.2</ele>
        <time>2024-02-04T11:30:29Z</time>
      </trkpt>
      <trkpt lat="43.18355" lon="6.49867">
        <ele>467.3</ele>
        <time>2024-02-04T11:30:30Z</time>
      </trkpt>
      <trkpt lat="43.18356" lon="6.49866">
        <ele>467.2</ele>
        <time>2024-02-04T11:30:31Z</time>
      </trkpt>
      <trkpt lat="43.18357" lon="6.49867">
        <ele>467.2</ele>
        <time>2024-02-04T11:30:32Z</time>
      </trkpt>
      <trkpt lat="43.18357" lon="6.49867">
        <ele>467.2</ele>
        <time>2024-02-04T11:30:33Z</time>
      </trkpt>
      <trkpt lat="43.18359" lon="6.49867">
        <ele>467.1</ele>
        <time>2024-02-04T11:30:34Z</time>
      </trkpt>
      <trkpt lat="43.1836" lon="6.49867">
        <ele>467.1</ele>
        <time>2024-02-04T11:30:35Z</time>
      </trkpt>
      <trkpt lat="43.18361" lon="6.49867">
        <ele>467</ele>
        <time>2024-02-04T11:30:36Z</time>
      </trkpt>
      <trkpt lat="43.18362" lon="6.49867">
        <ele>467</ele>
        <time>2024-02-04T11:30:37Z</time>
      </trkpt>
      <trkpt lat="43.18363" lon="6.49866">
        <ele>467</ele>
        <time>2024-02-04T11:30:38Z</time>
      </trkpt>
      <trkpt lat="43.18364" lon="6.49866">
        <ele>467</ele>
        <time>2024-02-04T11:30:39Z</time>
      </trkpt>
      <trkpt lat="43.18365" lon="6.49867">
        <ele>466.9</ele>
        <time>2024-02-04T11:30:40Z</time>
      </trkpt>
      <trkpt lat="43.18366" lon="6.49867">
        <ele>466.9</ele>
        <time>2024-02-04T11:30:41Z</time>
      </trkpt>
      <trkpt lat="43.18367" lon="6.49867">
        <ele>466.8</ele>
        <time>2024-02-04T11:30:42Z</time>
      </trkpt>
      <trkpt lat="43.18369" lon="6.49867">
        <ele>466.7</ele>
        <time>2024-02-04T11:30:43Z</time>
      </trkpt>
      <trkpt lat="43.18369" lon="6.49866">
        <ele>466.6</ele>
        <time>2024-02-04T11:30:44Z</time>
      </trkpt>
      <trkpt lat="43.1837" lon="6.49866">
        <ele>466.5</ele>
        <time>2024-02-04T11:30:45Z</time>
      </trkpt>
      <trkpt lat="43.18371" lon="6.49866">
        <ele>466.4</ele>
        <time>2024-02-04T11:30:46Z</time>
      </trkpt>
      <trkpt lat="43.18372" lon="6.49866">
        <ele>466.3</ele>
        <time>2024-02-04T11:30:47Z</time>
      </trkpt>
      <trkpt lat="43.18373" lon="6.49866">
        <ele>466.2</ele>
        <time>2024-02-04T11:30:48Z</time>
      </trkpt>
      <trkpt lat="43.18374" lon="6.49866">
        <ele>466.1</ele>
        <time>2024-02-04T11:30:49Z</time>
      </trkpt>
      <trkpt lat="43.18375" lon="6.49866">
        <ele>466.1</ele>
        <time>2024-02-04T11:30:50Z</time>
      </trkpt>
      <trkpt lat="43.18376" lon="6.49865">
        <ele>466</ele>
        <time>2024-02-04T11:30:51Z</time>
      </trkpt>
      <trkpt lat="43.18377" lon="6.49865">
        <ele>466</ele>
        <time>2024-02-04T11:30:52Z</time>
      </trkpt>
      <trkpt lat="43.18378" lon="6.49865">
        <ele>466</ele>
        <time>2024-02-04T11:30:53Z</time>
      </trkpt>
      <trkpt lat="43.18379" lon="6.49865">
        <ele>466</ele>
        <time>2024-02-04T11:30:54Z</time>
      </trkpt>
      <trkpt lat="43.1838" lon="6.49865">
        <ele>466</ele>
        <time>2024-02-04T11:30:55Z</time>
      </trkpt>
      <trkpt lat="43.1838" lon="6.49866">
        <ele>466</ele>
        <time>2024-02-04T11:30:56Z</time>
      </trkpt>
      <trkpt lat="43.18379" lon="6.49868">
        <ele>466</ele>
        <time>2024-02-04T11:30:57Z</time>
      </trkpt>
      <trkpt lat="43.1838" lon="6.49869">
        <ele>466.1</ele>
        <time>2024-02-04T11:30:58Z</time>
      </trkpt>
      <trkpt lat="43.1838" lon="6.4987">
        <ele>466.1</ele>
        <time>2024-02-04T11:30:59Z</time>
      </trkpt>
      <trkpt lat="43.1838" lon="6.49871">
        <ele>466.2</ele>
        <time>2024-02-04T11:31:00Z</time>
      </trkpt>
      <trkpt lat="43.1838" lon="6.49872">
        <ele>466.3</ele>
        <time>2024-02-04T11:31:01Z</time>
      </trkpt>
      <trkpt lat="43.18381" lon="6.49873">
        <ele>466.4</ele>
        <time>2024-02-04T11:31:02Z</time>
      </trkpt>
      <trkpt lat="43.18381" lon="6.49874">
        <ele>466.5</ele>
        <time>2024-02-04T11:31:03Z</time>
      </trkpt>
      <trkpt lat="43.18381" lon="6.49875">
        <ele>466.7</ele>
        <time>2024-02-04T11:31:04Z</time>
      </trkpt>
      <trkpt lat="43.18382" lon="6.49876">
        <ele>466.8</ele>
        <time>2024-02-04T11:31:05Z</time>
      </trkpt>
      <trkpt lat="43.18382" lon="6.49877">
        <ele>467</ele>
        <time>2024-02-04T11:31:06Z</time>
      </trkpt>
      <trkpt lat="43.18382" lon="6.49878">
        <ele>467.2</ele>
        <time>2024-02-04T11:31:07Z</time>
      </trkpt>
      <trkpt lat="43.18382" lon="6.49879">
        <ele>467.4</ele>
        <time>2024-02-04T11:31:08Z</time>
      </trkpt>
      <trkpt lat="43.18383" lon="6.4988">
        <ele>467.6</ele>
        <time>2024-02-04T11:31:09Z</time>
      </trkpt>
      <trkpt lat="43.18383" lon="6.49881">
        <ele>467.8</ele>
        <time>2024-02-04T11:31:10Z</time>
      </trkpt>
      <trkpt lat="43.18383" lon="6.49882">
        <ele>468</ele>
        <time>2024-02-04T11:31:11Z</time>
      </trkpt>
      <trkpt lat="43.18383" lon="6.49883">
        <ele>468.2</ele>
        <time>2024-02-04T11:31:12Z</time>
      </trkpt>
      <trkpt lat="43.18384" lon="6.49883">
        <ele>468.4</ele>
        <time>2024-02-04T11:31:13Z</time>
      </trkpt>
      <trkpt lat="43.18383" lon="6.49884">
        <ele>468.6</ele>
        <time>2024-02-04T11:31:14Z</time>
      </trkpt>
      <trkpt lat="43.18383" lon="6.49885">
        <ele>468.7</ele>
        <time>2024-02-04T11:31:15Z</time>
      </trkpt>
      <trkpt lat="43.18383" lon="6.49886">
        <ele>468.9</ele>
        <time>2024-02-04T11:31:16Z</time>
      </trkpt>
      <trkpt lat="43.18383" lon="6.49887">
        <ele>469</ele>
        <time>2024-02-04T11:31:17Z</time>
      </trkpt>
      <trkpt lat="43.18383" lon="6.49888">
        <ele>469.2</ele>
        <time>2024-02-04T11:31:18Z</time>
      </trkpt>
      <trkpt lat="43.18383" lon="6.49889">
        <ele>469.4</ele>
        <time>2024-02-04T11:31:19Z</time>
      </trkpt>
      <trkpt lat="43.18383" lon="6.4989">
        <ele>469.6</ele>
        <time>2024-02-04T11:31:20Z</time>
      </trkpt>
      <trkpt lat="43.18382" lon="6.49891">
        <ele>469.8</ele>
        <time>2024-02-04T11:31:21Z</time>
      </trkpt>
      <trkpt lat="43.18382" lon="6.49892">
        <ele>469.9</ele>
        <time>2024-02-04T11:31:22Z</time>
      </trkpt>
      <trkpt lat="43.18381" lon="6.49892">
        <ele>470</ele>
        <time>2024-02-04T11:31:23Z</time>
      </trkpt>
      <trkpt lat="43.1838" lon="6.49893">
        <ele>470.1</ele>
        <time>2024-02-04T11:31:24Z</time>
      </trkpt>
      <trkpt lat="43.1838" lon="6.49893">
        <ele>470.2</ele>
        <time>2024-02-04T11:31:25Z</time>
      </trkpt>
      <trkpt lat="43.18379" lon="6.49893">
        <ele>470.4</ele>
        <time>2024-02-04T11:31:26Z</time>
      </trkpt>
      <trkpt lat="43.18378" lon="6.49894">
        <ele>470.5</ele>
        <time>2024-02-04T11:31:27Z</time>
      </trkpt>
      <trkpt lat="43.18378" lon="6.49894">
        <ele>470.6</ele>
        <time>2024-02-04T11:31:28Z</time>
      </trkpt>
      <trkpt lat="43.18377" lon="6.49895">
        <ele>470.7</ele>
        <time>2024-02-04T11:31:29Z</time>
      </trkpt>
      <trkpt lat="43.18376" lon="6.49895">
        <ele>470.7</ele>
        <time>2024-02-04T11:31:30Z</time>
      </trkpt>
      <trkpt lat="43.18376" lon="6.49896">
        <ele>470.8</ele>
        <time>2024-02-04T11:31:31Z</time>
      </trkpt>
      <trkpt lat="43.18376" lon="6.49896">
        <ele>470.8</ele>
        <time>2024-02-04T11:31:32Z</time>
      </trkpt>
      <trkpt lat="43.18375" lon="6.49897">
        <ele>470.9</ele>
        <time>2024-02-04T11:31:33Z</time>
      </trkpt>
      <trkpt lat="43.18375" lon="6.49897">
        <ele>471</ele>
        <time>2024-02-04T11:31:34Z</time>
      </trkpt>
      <trkpt lat="43.18374" lon="6.49897">
        <ele>471.2</ele>
        <time>2024-02-04T11:31:35Z</time>
      </trkpt>
      <trkpt lat="43.18373" lon="6.49897">
        <ele>471.3</ele>
        <time>2024-02-04T11:31:36Z</time>
      </trkpt>
      <trkpt lat="43.18373" lon="6.49898">
        <ele>471.5</ele>
        <time>2024-02-04T11:31:37Z</time>
      </trkpt>
      <trkpt lat="43.18372" lon="6.49898">
        <ele>471.7</ele>
        <time>2024-02-04T11:31:38Z</time>
      </trkpt>
      <trkpt lat="43.18372" lon="6.49898">
        <ele>471.8</ele>
        <time>2024-02-04T11:31:39Z</time>
      </trkpt>
      <trkpt lat="43.18372" lon="6.49898">
        <ele>471.8</ele>
        <time>2024-02-04T11:31:40Z</time>
      </trkpt>
      <trkpt lat="43.18372" lon="6.49899">
        <ele>471.8</ele>
        <time>2024-02-04T11:31:41Z</time>
      </trkpt>
      <trkpt lat="43.18372" lon="6.49899">
        <ele>471.9</ele>
        <time>2024-02-04T11:31:42Z</time>
      </trkpt>
      <trkpt lat="43.18371" lon="6.49899">
        <ele>472</ele>
        <time>2024-02-04T11:31:43Z</time>
      </trkpt>
      <trkpt lat="43.18371" lon="6.49899">
        <ele>472.1</ele>
        <time>2024-02-04T11:31:44Z</time>
      </trkpt>
      <trkpt lat="43.1837" lon="6.499">
        <ele>472.2</ele>
        <time>2024-02-04T11:31:45Z</time>
      </trkpt>
      <trkpt lat="43.18369" lon="6.499">
        <ele>472.3</ele>
        <time>2024-02-04T11:31:46Z</time>
      </trkpt>
      <trkpt lat="43.18368" lon="6.499">
        <ele>472.3</ele>
        <time>2024-02-04T11:31:47Z</time>
      </trkpt>
      <trkpt lat="43.18367" lon="6.49901">
        <ele>472.2</ele>
        <time>2024-02-04T11:31:48Z</time>
      </trkpt>
      <trkpt lat="43.18367" lon="6.49901">
        <ele>472.3</ele>
        <time>2024-02-04T11:31:49Z</time>
      </trkpt>
      <trkpt lat="43.18366" lon="6.49902">
        <ele>472.3</ele>
        <time>2024-02-04T11:31:50Z</time>
      </trkpt>
      <trkpt lat="43.18366" lon="6.49903">
        <ele>472.3</ele>
        <time>2024-02-04T11:31:51Z</time>
      </trkpt>
      <trkpt lat="43.18365" lon="6.49903">
        <ele>472.4</ele>
        <time>2024-02-04T11:31:52Z</time>
      </trkpt>
      <trkpt lat="43.18365" lon="6.49903">
        <ele>472.4</ele>
        <time>2024-02-04T11:31:53Z</time>
      </trkpt>
      <trkpt lat="43.18365" lon="6.49903">
        <ele>472.3</ele>
        <time>2024-02-04T11:31:54Z</time>
      </trkpt>
      <trkpt lat="43.18365" lon="6.49903">
        <ele>472.4</ele>
        <time>2024-02-04T11:31:55Z</time>
      </trkpt>
      <trkpt lat="43.18365" lon="6.49903">
        <ele>472.4</ele>
        <time>2024-02-04T11:31:56Z</time>
      </trkpt>
      <trkpt lat="43.18365" lon="6.49903">
        <ele>472.4</ele>
        <time>2024-02-04T11:31:57Z</time>
      </trkpt>
      <trkpt lat="43.18365" lon="6.49903">
        <ele>472.5</ele>
        <time>2024-02-04T11:31:58Z</time>
      </trkpt>
      <trkpt lat="43.18365" lon="6.49903">
        <ele>472.5</ele>
        <time>2024-02-04T11:31:59Z</time>
      </trkpt>
      <trkpt lat="43.18365" lon="6.49903">
        <ele>472.5</ele>
        <time>2024-02-04T11:32:00Z</time>
      </trkpt>
      <trkpt lat="43.18365" lon="6.49903">
        <ele>472.5</ele>
        <time>2024-02-04T11:32:01Z</time>
      </trkpt>
      <trkpt lat="43.18365" lon="6.49903">
        <ele>472.5</ele>
        <time>2024-02-04T11:32:02Z</time>
      </trkpt>
      <trkpt lat="43.18364" lon="6.49903">
        <ele>472.5</ele>
        <time>2024-02-04T11:32:03Z</time>
      </trkpt>
      <trkpt lat="43.18364" lon="6.49904">
        <ele>472.5</ele>
        <time>2024-02-04T11:32:04Z</time>
      </trkpt>
      <trkpt lat="43.18363" lon="6.49904">
        <ele>472.5</ele>
        <time>2024-02-04T11:32:05Z</time>
      </trkpt>
      <trkpt lat="43.18362" lon="6.49905">
        <ele>472.5</ele>
        <time>2024-02-04T11:32:06Z</time>
      </trkpt>
      <trkpt lat="43.18361" lon="6.49905">
        <ele>472.5</ele>
        <time>2024-02-04T11:32:07Z</time>
      </trkpt>
      <trkpt lat="43.18361" lon="6.49906">
        <ele>472.6</ele>
        <time>2024-02-04T11:32:08Z</time>
      </trkpt>
      <trkpt lat="43.1836" lon="6.49906">
        <ele>472.7</ele>
        <time>2024-02-04T11:32:09Z</time>
      </trkpt>
      <trkpt lat="43.1836" lon="6.49906">
        <ele>472.7</ele>
        <time>2024-02-04T11:32:10Z</time>
      </trkpt>
      <trkpt lat="43.1836" lon="6.49906">
        <ele>472.8</ele>
        <time>2024-02-04T11:32:11Z</time>
      </trkpt>
      <trkpt lat="43.1836" lon="6.49906">
        <ele>472.8</ele>
        <time>2024-02-04T11:32:12Z</time>
      </trkpt>
      <trkpt lat="43.1836" lon="6.49906">
        <ele>472.8</ele>
        <time>2024-02-04T11:32:13Z</time>
      </trkpt>
      <trkpt lat="43.1836" lon="6.49906">
        <ele>472.8</ele>
        <time>2024-02-04T11:32:14Z</time>
      </trkpt>
      <trkpt lat="43.1836" lon="6.49906">
        <ele>472.8</ele>
        <time>2024-02-04T11:32:15Z</time>
      </trkpt>
      <trkpt lat="43.1836" lon="6.49906">
        <ele>472.7</ele>
        <time>2024-02-04T11:32:16Z</time>
      </trkpt>
      <trkpt lat="43.1836" lon="6.49906">
        <ele>472.7</ele>
        <time>2024-02-04T11:32:17Z</time>
      </trkpt>
      <trkpt lat="43.1836" lon="6.49906">
        <ele>472.6</ele>
        <time>2024-02-04T11:32:18Z</time>
      </trkpt>
      <trkpt lat="43.1836" lon="6.49906">
        <ele>472.6</ele>
        <time>2024-02-04T11:32:19Z</time>
      </trkpt>
      <trkpt lat="43.1836" lon="6.49905">
        <ele>472.7</ele>
        <time>2024-02-04T11:32:20Z</time>
      </trkpt>
      <trkpt lat="43.1836" lon="6.49905">
        <ele>472.7</ele>
        <time>2024-02-04T11:32:21Z</time>
      </trkpt>
      <trkpt lat="43.1836" lon="6.49905">
        <ele>472.8</ele>
        <time>2024-02-04T11:32:22Z</time>
      </trkpt>
      <trkpt lat="43.1836" lon="6.49905">
        <ele>472.7</ele>
        <time>2024-02-04T11:32:23Z</time>
      </trkpt>
      <trkpt lat="43.1836" lon="6.49905">
        <ele>472.7</ele>
        <time>2024-02-04T11:32:24Z</time>
      </trkpt>
      <trkpt lat="43.1836" lon="6.49905">
        <ele>472.7</ele>
        <time>2024-02-04T11:32:25Z</time>
      </trkpt>
      <trkpt lat="43.1836" lon="6.49905">
        <ele>472.7</ele>
        <time>2024-02-04T11:32:26Z</time>
      </trkpt>
      <trkpt lat="43.18359" lon="6.49906">
        <ele>472.8</ele>
        <time>2024-02-04T11:32:27Z</time>
      </trkpt>
      <trkpt lat="43.18358" lon="6.49906">
        <ele>472.9</ele>
        <time>2024-02-04T11:32:28Z</time>
      </trkpt>
      <trkpt lat="43.18358" lon="6.49907">
        <ele>472.9</ele>
        <time>2024-02-04T11:32:29Z</time>
      </trkpt>
      <trkpt lat="43.18357" lon="6.49907">
        <ele>472.9</ele>
        <time>2024-02-04T11:32:30Z</time>
      </trkpt>
      <trkpt lat="43.18357" lon="6.49908">
        <ele>472.9</ele>
        <time>2024-02-04T11:32:31Z</time>
      </trkpt>
      <trkpt lat="43.18356" lon="6.49909">
        <ele>473</ele>
        <time>2024-02-04T11:32:32Z</time>
      </trkpt>
      <trkpt lat="43.18356" lon="6.49909">
        <ele>473.1</ele>
        <time>2024-02-04T11:32:33Z</time>
      </trkpt>
      <trkpt lat="43.18355" lon="6.4991">
        <ele>473.1</ele>
        <time>2024-02-04T11:32:34Z</time>
      </trkpt>
      <trkpt lat="43.18354" lon="6.4991">
        <ele>473.3</ele>
        <time>2024-02-04T11:32:35Z</time>
      </trkpt>
      <trkpt lat="43.18354" lon="6.49911">
        <ele>473.4</ele>
        <time>2024-02-04T11:32:36Z</time>
      </trkpt>
      <trkpt lat="43.18353" lon="6.49911">
        <ele>473.5</ele>
        <time>2024-02-04T11:32:37Z</time>
      </trkpt>
      <trkpt lat="43.18353" lon="6.49911">
        <ele>473.5</ele>
        <time>2024-02-04T11:32:38Z</time>
      </trkpt>
      <trkpt lat="43.18352" lon="6.49912">
        <ele>473.5</ele>
        <time>2024-02-04T11:32:39Z</time>
      </trkpt>
      <trkpt lat="43.18352" lon="6.49912">
        <ele>473.5</ele>
        <time>2024-02-04T11:32:40Z</time>
      </trkpt>
      <trkpt lat="43.18351" lon="6.49912">
        <ele>473.6</ele>
        <time>2024-02-04T11:32:41Z</time>
      </trkpt>
      <trkpt lat="43.1835" lon="6.49913">
        <ele>473.7</ele>
        <time>2024-02-04T11:32:42Z</time>
      </trkpt>
      <trkpt lat="43.1835" lon="6.49913">
        <ele>473.8</ele>
        <time>2024-02-04T11:32:43Z</time>
      </trkpt>
      <trkpt lat="43.1835" lon="6.49914">
        <ele>473.9</ele>
        <time>2024-02-04T11:32:44Z</time>
      </trkpt>
      <trkpt lat="43.1835" lon="6.49915">
        <ele>474</ele>
        <time>2024-02-04T11:32:45Z</time>
      </trkpt>
      <trkpt lat="43.18349" lon="6.49916">
        <ele>474.1</ele>
        <time>2024-02-04T11:32:46Z</time>
      </trkpt>
      <trkpt lat="43.18349" lon="6.49917">
        <ele>474.2</ele>
        <time>2024-02-04T11:32:47Z</time>
      </trkpt>
      <trkpt lat="43.18349" lon="6.49917">
        <ele>474.2</ele>
        <time>2024-02-04T11:32:48Z</time>
      </trkpt>
      <trkpt lat="43.18348" lon="6.49918">
        <ele>474.3</ele>
        <time>2024-02-04T11:32:49Z</time>
      </trkpt>
      <trkpt lat="43.18348" lon="6.49918">
        <ele>474.4</ele>
        <time>2024-02-04T11:32:50Z</time>
      </trkpt>
      <trkpt lat="43.18347" lon="6.49919">
        <ele>474.4</ele>
        <time>2024-02-04T11:32:51Z</time>
      </trkpt>
      <trkpt lat="43.18347" lon="6.49919">
        <ele>474.4</ele>
        <time>2024-02-04T11:32:52Z</time>
      </trkpt>
      <trkpt lat="43.18346" lon="6.4992">
        <ele>474.5</ele>
        <time>2024-02-04T11:32:53Z</time>
      </trkpt>
      <trkpt lat="43.18346" lon="6.4992">
        <ele>474.5</ele>
        <time>2024-02-04T11:32:54Z</time>
      </trkpt>
      <trkpt lat="43.18345" lon="6.4992">
        <ele>474.5</ele>
        <time>2024-02-04T11:32:55Z</time>
      </trkpt>
      <trkpt lat="43.18345" lon="6.49921">
        <ele>474.6</ele>
        <time>2024-02-04T11:32:56Z</time>
      </trkpt>
      <trkpt lat="43.18344" lon="6.49921">
        <ele>474.7</ele>
        <time>2024-02-04T11:32:57Z</time>
      </trkpt>
      <trkpt lat="43.18344" lon="6.49921">
        <ele>474.8</ele>
        <time>2024-02-04T11:32:58Z</time>
      </trkpt>
      <trkpt lat="43.18343" lon="6.49921">
        <ele>474.8</ele>
        <time>2024-02-04T11:32:59Z</time>
      </trkpt>
      <trkpt lat="43.18343" lon="6.49921">
        <ele>474.9</ele>
        <time>2024-02-04T11:33:00Z</time>
      </trkpt>
      <trkpt lat="43.18342" lon="6.49921">
        <ele>475</ele>
        <time>2024-02-04T11:33:01Z</time>
      </trkpt>
      <trkpt lat="43.18341" lon="6.49921">
        <ele>475.1</ele>
        <time>2024-02-04T11:33:02Z</time>
      </trkpt>
      <trkpt lat="43.18341" lon="6.49921">
        <ele>475.2</ele>
        <time>2024-02-04T11:33:03Z</time>
      </trkpt>
      <trkpt lat="43.1834" lon="6.49922">
        <ele>475.3</ele>
        <time>2024-02-04T11:33:04Z</time>
      </trkpt>
      <trkpt lat="43.1834" lon="6.49922">
        <ele>475.4</ele>
        <time>2024-02-04T11:33:05Z</time>
      </trkpt>
      <trkpt lat="43.18339" lon="6.49922">
        <ele>475.5</ele>
        <time>2024-02-04T11:33:06Z</time>
      </trkpt>
      <trkpt lat="43.18339" lon="6.49923">
        <ele>475.6</ele>
        <time>2024-02-04T11:33:07Z</time>
      </trkpt>
      <trkpt lat="43.18339" lon="6.49923">
        <ele>475.7</ele>
        <time>2024-02-04T11:33:08Z</time>
      </trkpt>
      <trkpt lat="43.18338" lon="6.49923">
        <ele>475.8</ele>
        <time>2024-02-04T11:33:09Z</time>
      </trkpt>
      <trkpt lat="43.18338" lon="6.49923">
        <ele>475.9</ele>
        <time>2024-02-04T11:33:10Z</time>
      </trkpt>
      <trkpt lat="43.18338" lon="6.49923">
        <ele>476</ele>
        <time>2024-02-04T11:33:11Z</time>
      </trkpt>
      <trkpt lat="43.18338" lon="6.49924">
        <ele>476</ele>
        <time>2024-02-04T11:33:12Z</time>
      </trkpt>
      <trkpt lat="43.18337" lon="6.49923">
        <ele>476.1</ele>
        <time>2024-02-04T11:33:13Z</time>
      </trkpt>
      <trkpt lat="43.18337" lon="6.49923">
        <ele>476.2</ele>
        <time>2024-02-04T11:33:14Z</time>
      </trkpt>
      <trkpt lat="43.18336" lon="6.49923">
        <ele>476.2</ele>
        <time>2024-02-04T11:33:15Z</time>
      </trkpt>
      <trkpt lat="43.18335" lon="6.49923">
        <ele>476.4</ele>
        <time>2024-02-04T11:33:16Z</time>
      </trkpt>
      <trkpt lat="43.18335" lon="6.49923">
        <ele>476.5</ele>
        <time>2024-02-04T11:33:17Z</time>
      </trkpt>
      <trkpt lat="43.18334" lon="6.49923">
        <ele>476.6</ele>
        <time>2024-02-04T11:33:18Z</time>
      </trkpt>
      <trkpt lat="43.18333" lon="6.49923">
        <ele>476.8</ele>
        <time>2024-02-04T11:33:19Z</time>
      </trkpt>
      <trkpt lat="43.18332" lon="6.49923">
        <ele>476.8</ele>
        <time>2024-02-04T11:33:20Z</time>
      </trkpt>
      <trkpt lat="43.18331" lon="6.49923">
        <ele>476.9</ele>
        <time>2024-02-04T11:33:21Z</time>
      </trkpt>
      <trkpt lat="43.18331" lon="6.49923">
        <ele>476.9</ele>
        <time>2024-02-04T11:33:22Z</time>
      </trkpt>
      <trkpt lat="43.1833" lon="6.49923">
        <ele>476.9</ele>
        <time>2024-02-04T11:33:23Z</time>
      </trkpt>
      <trkpt lat="43.1833" lon="6.49923">
        <ele>477</ele>
        <time>2024-02-04T11:33:24Z</time>
      </trkpt>
      <trkpt lat="43.1833" lon="6.49923">
        <ele>477.1</ele>
        <time>2024-02-04T11:33:25Z</time>
      </trkpt>
      <trkpt lat="43.18329" lon="6.49924">
        <ele>477.2</ele>
        <time>2024-02-04T11:33:26Z</time>
      </trkpt>
      <trkpt lat="43.18328" lon="6.49924">
        <ele>477.2</ele>
        <time>2024-02-04T11:33:27Z</time>
      </trkpt>
      <trkpt lat="43.18328" lon="6.49924">
        <ele>477.3</ele>
        <time>2024-02-04T11:33:28Z</time>
      </trkpt>
      <trkpt lat="43.18328" lon="6.49924">
        <ele>477.4</ele>
        <time>2024-02-04T11:33:29Z</time>
      </trkpt>
      <trkpt lat="43.18328" lon="6.49924">
        <ele>477.4</ele>
        <time>2024-02-04T11:33:30Z</time>
      </trkpt>
      <trkpt lat="43.18328" lon="6.49924">
        <ele>477.4</ele>
        <time>2024-02-04T11:33:31Z</time>
      </trkpt>
      <trkpt lat="43.18328" lon="6.49924">
        <ele>477.4</ele>
        <time>2024-02-04T11:33:32Z</time>
      </trkpt>
      <trkpt lat="43.18328" lon="6.49924">
        <ele>477.4</ele>
        <time>2024-02-04T11:33:33Z</time>
      </trkpt>
      <trkpt lat="43.18328" lon="6.49924">
        <ele>477.4</ele>
        <time>2024-02-04T11:33:34Z</time>
      </trkpt>
      <trkpt lat="43.18327" lon="6.49924">
        <ele>477.5</ele>
        <time>2024-02-04T11:33:35Z</time>
      </trkpt>
      <trkpt lat="43.18327" lon="6.49924">
        <ele>477.4</ele>
        <time>2024-02-04T11:33:36Z</time>
      </trkpt>
      <trkpt lat="43.18327" lon="6.49924">
        <ele>477.5</ele>
        <time>2024-02-04T11:33:37Z</time>
      </trkpt>
      <trkpt lat="43.18326" lon="6.49924">
        <ele>477.5</ele>
        <time>2024-02-04T11:33:38Z</time>
      </trkpt>
      <trkpt lat="43.18326" lon="6.49924">
        <ele>477.6</ele>
        <time>2024-02-04T11:33:39Z</time>
      </trkpt>
      <trkpt lat="43.18326" lon="6.49924">
        <ele>477.6</ele>
        <time>2024-02-04T11:33:40Z</time>
      </trkpt>
      <trkpt lat="43.18325" lon="6.49925">
        <ele>477.6</ele>
        <time>2024-02-04T11:33:41Z</time>
      </trkpt>
      <trkpt lat="43.18324" lon="6.49925">
        <ele>477.7</ele>
        <time>2024-02-04T11:33:42Z</time>
      </trkpt>
      <trkpt lat="43.18324" lon="6.49925">
        <ele>477.8</ele>
        <time>2024-02-04T11:33:43Z</time>
      </trkpt>
      <trkpt lat="43.18323" lon="6.49926">
        <ele>477.8</ele>
        <time>2024-02-04T11:33:44Z</time>
      </trkpt>
      <trkpt lat="43.18323" lon="6.49926">
        <ele>477.9</ele>
        <time>2024-02-04T11:33:45Z</time>
      </trkpt>
      <trkpt lat="43.18323" lon="6.49926">
        <ele>478</ele>
        <time>2024-02-04T11:33:46Z</time>
      </trkpt>
      <trkpt lat="43.18322" lon="6.49926">
        <ele>478.1</ele>
        <time>2024-02-04T11:33:47Z</time>
      </trkpt>
      <trkpt lat="43.18321" lon="6.49926">
        <ele>478.2</ele>
        <time>2024-02-04T11:33:48Z</time>
      </trkpt>
      <trkpt lat="43.18321" lon="6.49927">
        <ele>478.2</ele>
        <time>2024-02-04T11:33:49Z</time>
      </trkpt>
      <trkpt lat="43.1832" lon="6.49927">
        <ele>478.4</ele>
        <time>2024-02-04T11:33:50Z</time>
      </trkpt>
      <trkpt lat="43.1832" lon="6.49927">
        <ele>478.6</ele>
        <time>2024-02-04T11:33:51Z</time>
      </trkpt>
      <trkpt lat="43.18319" lon="6.49927">
        <ele>478.7</ele>
        <time>2024-02-04T11:33:52Z</time>
      </trkpt>
      <trkpt lat="43.18318" lon="6.49928">
        <ele>478.8</ele>
        <time>2024-02-04T11:33:53Z</time>
      </trkpt>
      <trkpt lat="43.18318" lon="6.49928">
        <ele>479</ele>
        <time>2024-02-04T11:33:54Z</time>
      </trkpt>
      <trkpt lat="43.18317" lon="6.49928">
        <ele>479.3</ele>
        <time>2024-02-04T11:33:55Z</time>
      </trkpt>
      <trkpt lat="43.18317" lon="6.49929">
        <ele>479.4</ele>
        <time>2024-02-04T11:33:56Z</time>
      </trkpt>
      <trkpt lat="43.18316" lon="6.49929">
        <ele>479.5</ele>
        <time>2024-02-04T11:33:57Z</time>
      </trkpt>
      <trkpt lat="43.18316" lon="6.49929">
        <ele>479.7</ele>
        <time>2024-02-04T11:33:58Z</time>
      </trkpt>
      <trkpt lat="43.18315" lon="6.49929">
        <ele>479.9</ele>
        <time>2024-02-04T11:33:59Z</time>
      </trkpt>
      <trkpt lat="43.18315" lon="6.4993">
        <ele>480.1</ele>
        <time>2024-02-04T11:34:00Z</time>
      </trkpt>
      <trkpt lat="43.18314" lon="6.4993">
        <ele>480.4</ele>
        <time>2024-02-04T11:34:01Z</time>
      </trkpt>
      <trkpt lat="43.18314" lon="6.4993">
        <ele>480.6</ele>
        <time>2024-02-04T11:34:02Z</time>
      </trkpt>
      <trkpt lat="43.18314" lon="6.4993">
        <ele>480.7</ele>
        <time>2024-02-04T11:34:03Z</time>
      </trkpt>
      <trkpt lat="43.18313" lon="6.49931">
        <ele>480.9</ele>
        <time>2024-02-04T11:34:04Z</time>
      </trkpt>
      <trkpt lat="43.18313" lon="6.4993">
        <ele>481.1</ele>
        <time>2024-02-04T11:34:05Z</time>
      </trkpt>
      <trkpt lat="43.18312" lon="6.4993">
        <ele>481.2</ele>
        <time>2024-02-04T11:34:06Z</time>
      </trkpt>
      <trkpt lat="43.18312" lon="6.4993">
        <ele>481.3</ele>
        <time>2024-02-04T11:34:07Z</time>
      </trkpt>
      <trkpt lat="43.18312" lon="6.4993">
        <ele>481.4</ele>
        <time>2024-02-04T11:34:08Z</time>
      </trkpt>
      <trkpt lat="43.18312" lon="6.49931">
        <ele>481.6</ele>
        <time>2024-02-04T11:34:09Z</time>
      </trkpt>
      <trkpt lat="43.18312" lon="6.49931">
        <ele>481.6</ele>
        <time>2024-02-04T11:34:10Z</time>
      </trkpt>
      <trkpt lat="43.18312" lon="6.49931">
        <ele>481.6</ele>
        <time>2024-02-04T11:34:11Z</time>
      </trkpt>
      <trkpt lat="43.18312" lon="6.4993">
        <ele>481.7</ele>
        <time>2024-02-04T11:34:12Z</time>
      </trkpt>
      <trkpt lat="43.18312" lon="6.49931">
        <ele>481.7</ele>
        <time>2024-02-04T11:34:13Z</time>
      </trkpt>
      <trkpt lat="43.18311" lon="6.4993">
        <ele>481.8</ele>
        <time>2024-02-04T11:34:14Z</time>
      </trkpt>
      <trkpt lat="43.18311" lon="6.49931">
        <ele>481.8</ele>
        <time>2024-02-04T11:34:15Z</time>
      </trkpt>
      <trkpt lat="43.18311" lon="6.49931">
        <ele>481.8</ele>
        <time>2024-02-04T11:34:16Z</time>
      </trkpt>
      <trkpt lat="43.1831" lon="6.49931">
        <ele>481.9</ele>
        <time>2024-02-04T11:34:17Z</time>
      </trkpt>
      <trkpt lat="43.1831" lon="6.49931">
        <ele>482.1</ele>
        <time>2024-02-04T11:34:18Z</time>
      </trkpt>
      <trkpt lat="43.18309" lon="6.49932">
        <ele>482.2</ele>
        <time>2024-02-04T11:34:19Z</time>
      </trkpt>
      <trkpt lat="43.18309" lon="6.49932">
        <ele>482.2</ele>
        <time>2024-02-04T11:34:20Z</time>
      </trkpt>
      <trkpt lat="43.18309" lon="6.49932">
        <ele>482.3</ele>
        <time>2024-02-04T11:34:21Z</time>
      </trkpt>
      <trkpt lat="43.18308" lon="6.49933">
        <ele>482.5</ele>
        <time>2024-02-04T11:34:22Z</time>
      </trkpt>
      <trkpt lat="43.18308" lon="6.49933">
        <ele>482.6</ele>
        <time>2024-02-04T11:34:23Z</time>
      </trkpt>
      <trkpt lat="43.18308" lon="6.49934">
        <ele>482.7</ele>
        <time>2024-02-04T11:34:24Z</time>
      </trkpt>
      <trkpt lat="43.18308" lon="6.49934">
        <ele>482.9</ele>
        <time>2024-02-04T11:34:25Z</time>
      </trkpt>
      <trkpt lat="43.18308" lon="6.49935">
        <ele>483.1</ele>
        <time>2024-02-04T11:34:26Z</time>
      </trkpt>
      <trkpt lat="43.18307" lon="6.49936">
        <ele>483.2</ele>
        <time>2024-02-04T11:34:27Z</time>
      </trkpt>
      <trkpt lat="43.18307" lon="6.49936">
        <ele>483.3</ele>
        <time>2024-02-04T11:34:28Z</time>
      </trkpt>
      <trkpt lat="43.18307" lon="6.49937">
        <ele>483.3</ele>
        <time>2024-02-04T11:34:29Z</time>
      </trkpt>
      <trkpt lat="43.18307" lon="6.49938">
        <ele>483.5</ele>
        <time>2024-02-04T11:34:30Z</time>
      </trkpt>
      <trkpt lat="43.18307" lon="6.49939">
        <ele>483.6</ele>
        <time>2024-02-04T11:34:31Z</time>
      </trkpt>
      <trkpt lat="43.18307" lon="6.49939">
        <ele>483.8</ele>
        <time>2024-02-04T11:34:32Z</time>
      </trkpt>
      <trkpt lat="43.18306" lon="6.4994">
        <ele>484</ele>
        <time>2024-02-04T11:34:33Z</time>
      </trkpt>
      <trkpt lat="43.18306" lon="6.4994">
        <ele>484.2</ele>
        <time>2024-02-04T11:34:34Z</time>
      </trkpt>
      <trkpt lat="43.18306" lon="6.49941">
        <ele>484.3</ele>
        <time>2024-02-04T11:34:35Z</time>
      </trkpt>
      <trkpt lat="43.18306" lon="6.49942">
        <ele>484.4</ele>
        <time>2024-02-04T11:34:36Z</time>
      </trkpt>
      <trkpt lat="43.18305" lon="6.49942">
        <ele>484.5</ele>
        <time>2024-02-04T11:34:37Z</time>
      </trkpt>
      <trkpt lat="43.18305" lon="6.49942">
        <ele>484.6</ele>
        <time>2024-02-04T11:34:38Z</time>
      </trkpt>
      <trkpt lat="43.18305" lon="6.49943">
        <ele>484.7</ele>
        <time>2024-02-04T11:34:39Z</time>
      </trkpt>
      <trkpt lat="43.18304" lon="6.49944">
        <ele>484.8</ele>
        <time>2024-02-04T11:34:40Z</time>
      </trkpt>
      <trkpt lat="43.18305" lon="6.49945">
        <ele>484.9</ele>
        <time>2024-02-04T11:34:41Z</time>
      </trkpt>
      <trkpt lat="43.18305" lon="6.49946">
        <ele>485</ele>
        <time>2024-02-04T11:34:42Z</time>
      </trkpt>
      <trkpt lat="43.18306" lon="6.49947">
        <ele>485.1</ele>
        <time>2024-02-04T11:34:43Z</time>
      </trkpt>
      <trkpt lat="43.18306" lon="6.49948">
        <ele>485.3</ele>
        <time>2024-02-04T11:34:44Z</time>
      </trkpt>
      <trkpt lat="43.18306" lon="6.49948">
        <ele>485.4</ele>
        <time>2024-02-04T11:34:45Z</time>
      </trkpt>
      <trkpt lat="43.18307" lon="6.49948">
        <ele>485.4</ele>
        <time>2024-02-04T11:34:46Z</time>
      </trkpt>
      <trkpt lat="43.18307" lon="6.49948">
        <ele>485.5</ele>
        <time>2024-02-04T11:34:47Z</time>
      </trkpt>
      <trkpt lat="43.18307" lon="6.49948">
        <ele>485.6</ele>
        <time>2024-02-04T11:34:48Z</time>
      </trkpt>
      <trkpt lat="43.18307" lon="6.49948">
        <ele>485.6</ele>
        <time>2024-02-04T11:34:49Z</time>
      </trkpt>
      <trkpt lat="43.18307" lon="6.49948">
        <ele>485.6</ele>
        <time>2024-02-04T11:34:50Z</time>
      </trkpt>
      <trkpt lat="43.18307" lon="6.49948">
        <ele>485.7</ele>
        <time>2024-02-04T11:34:51Z</time>
      </trkpt>
      <trkpt lat="43.18307" lon="6.49948">
        <ele>485.7</ele>
        <time>2024-02-04T11:34:52Z</time>
      </trkpt>
      <trkpt lat="43.18307" lon="6.49948">
        <ele>485.7</ele>
        <time>2024-02-04T11:34:53Z</time>
      </trkpt>
      <trkpt lat="43.18307" lon="6.49948">
        <ele>485.6</ele>
        <time>2024-02-04T11:34:54Z</time>
      </trkpt>
      <trkpt lat="43.18307" lon="6.49948">
        <ele>485.6</ele>
        <time>2024-02-04T11:34:55Z</time>
      </trkpt>
      <trkpt lat="43.18307" lon="6.49947">
        <ele>485.5</ele>
        <time>2024-02-04T11:34:56Z</time>
      </trkpt>
      <trkpt lat="43.18307" lon="6.49947">
        <ele>485.5</ele>
        <time>2024-02-04T11:34:57Z</time>
      </trkpt>
      <trkpt lat="43.18306" lon="6.49947">
        <ele>485.5</ele>
        <time>2024-02-04T11:34:58Z</time>
      </trkpt>
      <trkpt lat="43.18306" lon="6.49946">
        <ele>485.4</ele>
        <time>2024-02-04T11:34:59Z</time>
      </trkpt>
      <trkpt lat="43.18306" lon="6.49946">
        <ele>485.4</ele>
        <time>2024-02-04T11:35:00Z</time>
      </trkpt>
      <trkpt lat="43.18305" lon="6.49946">
        <ele>485.3</ele>
        <time>2024-02-04T11:35:01Z</time>
      </trkpt>
      <trkpt lat="43.18305" lon="6.49945">
        <ele>485.3</ele>
        <time>2024-02-04T11:35:02Z</time>
      </trkpt>
      <trkpt lat="43.18304" lon="6.49944">
        <ele>485.4</ele>
        <time>2024-02-04T11:35:03Z</time>
      </trkpt>
      <trkpt lat="43.18304" lon="6.49944">
        <ele>485.3</ele>
        <time>2024-02-04T11:35:04Z</time>
      </trkpt>
      <trkpt lat="43.18303" lon="6.49944">
        <ele>485.3</ele>
        <time>2024-02-04T11:35:05Z</time>
      </trkpt>
      <trkpt lat="43.18303" lon="6.49943">
        <ele>485.4</ele>
        <time>2024-02-04T11:35:06Z</time>
      </trkpt>
      <trkpt lat="43.18303" lon="6.49943">
        <ele>485.5</ele>
        <time>2024-02-04T11:35:07Z</time>
      </trkpt>
      <trkpt lat="43.18302" lon="6.49943">
        <ele>485.6</ele>
        <time>2024-02-04T11:35:08Z</time>
      </trkpt>
      <trkpt lat="43.18302" lon="6.49943">
        <ele>485.6</ele>
        <time>2024-02-04T11:35:09Z</time>
      </trkpt>
      <trkpt lat="43.18302" lon="6.49943">
        <ele>485.7</ele>
        <time>2024-02-04T11:35:10Z</time>
      </trkpt>
      <trkpt lat="43.18301" lon="6.49942">
        <ele>485.8</ele>
        <time>2024-02-04T11:35:11Z</time>
      </trkpt>
      <trkpt lat="43.18301" lon="6.49942">
        <ele>486</ele>
        <time>2024-02-04T11:35:12Z</time>
      </trkpt>
      <trkpt lat="43.18301" lon="6.49942">
        <ele>486.1</ele>
        <time>2024-02-04T11:35:13Z</time>
      </trkpt>
      <trkpt lat="43.18301" lon="6.49942">
        <ele>486.2</ele>
        <time>2024-02-04T11:35:14Z</time>
      </trkpt>
      <trkpt lat="43.18301" lon="6.49942">
        <ele>486.3</ele>
        <time>2024-02-04T11:35:15Z</time>
      </trkpt>
      <trkpt lat="43.18301" lon="6.49942">
        <ele>486.3</ele>
        <time>2024-02-04T11:35:16Z</time>
      </trkpt>
      <trkpt lat="43.18301" lon="6.49942">
        <ele>486.4</ele>
        <time>2024-02-04T11:35:17Z</time>
      </trkpt>
      <trkpt lat="43.18301" lon="6.49942">
        <ele>486.5</ele>
        <time>2024-02-04T11:35:18Z</time>
      </trkpt>
      <trkpt lat="43.18301" lon="6.49941">
        <ele>486.5</ele>
        <time>2024-02-04T11:35:19Z</time>
      </trkpt>
      <trkpt lat="43.183" lon="6.49941">
        <ele>486.5</ele>
        <time>2024-02-04T11:35:20Z</time>
      </trkpt>
      <trkpt lat="43.183" lon="6.49941">
        <ele>486.5</ele>
        <time>2024-02-04T11:35:21Z</time>
      </trkpt>
      <trkpt lat="43.18299" lon="6.49941">
        <ele>486.4</ele>
        <time>2024-02-04T11:35:22Z</time>
      </trkpt>
      <trkpt lat="43.18299" lon="6.49941">
        <ele>486.5</ele>
        <time>2024-02-04T11:35:23Z</time>
      </trkpt>
      <trkpt lat="43.18298" lon="6.49941">
        <ele>486.5</ele>
        <time>2024-02-04T11:35:24Z</time>
      </trkpt>
      <trkpt lat="43.18297" lon="6.4994">
        <ele>486.4</ele>
        <time>2024-02-04T11:35:25Z</time>
      </trkpt>
      <trkpt lat="43.18296" lon="6.4994">
        <ele>486.3</ele>
        <time>2024-02-04T11:35:26Z</time>
      </trkpt>
      <trkpt lat="43.18295" lon="6.49939">
        <ele>486.2</ele>
        <time>2024-02-04T11:35:27Z</time>
      </trkpt>
      <trkpt lat="43.18294" lon="6.49939">
        <ele>486.1</ele>
        <time>2024-02-04T11:35:28Z</time>
      </trkpt>
      <trkpt lat="43.18294" lon="6.49939">
        <ele>486</ele>
        <time>2024-02-04T11:35:29Z</time>
      </trkpt>
      <trkpt lat="43.18293" lon="6.49939">
        <ele>486</ele>
        <time>2024-02-04T11:35:30Z</time>
      </trkpt>
      <trkpt lat="43.18293" lon="6.49939">
        <ele>485.9</ele>
        <time>2024-02-04T11:35:31Z</time>
      </trkpt>
      <trkpt lat="43.18293" lon="6.4994">
        <ele>485.9</ele>
        <time>2024-02-04T11:35:32Z</time>
      </trkpt>
      <trkpt lat="43.18292" lon="6.4994">
        <ele>485.9</ele>
        <time>2024-02-04T11:35:33Z</time>
      </trkpt>
      <trkpt lat="43.18291" lon="6.49939">
        <ele>485.9</ele>
        <time>2024-02-04T11:35:34Z</time>
      </trkpt>
      <trkpt lat="43.18291" lon="6.49938">
        <ele>485.9</ele>
        <time>2024-02-04T11:35:35Z</time>
      </trkpt>
      <trkpt lat="43.1829" lon="6.49938">
        <ele>486</ele>
        <time>2024-02-04T11:35:36Z</time>
      </trkpt>
      <trkpt lat="43.1829" lon="6.49937">
        <ele>486</ele>
        <time>2024-02-04T11:35:37Z</time>
      </trkpt>
      <trkpt lat="43.18289" lon="6.49937">
        <ele>486.1</ele>
        <time>2024-02-04T11:35:38Z</time>
      </trkpt>
      <trkpt lat="43.18288" lon="6.49937">
        <ele>486.1</ele>
        <time>2024-02-04T11:35:39Z</time>
      </trkpt>
      <trkpt lat="43.18287" lon="6.49937">
        <ele>486.1</ele>
        <time>2024-02-04T11:35:40Z</time>
      </trkpt>
      <trkpt lat="43.18287" lon="6.49937">
        <ele>486.1</ele>
        <time>2024-02-04T11:35:41Z</time>
      </trkpt>
      <trkpt lat="43.18286" lon="6.49937">
        <ele>486.2</ele>
        <time>2024-02-04T11:35:42Z</time>
      </trkpt>
      <trkpt lat="43.18285" lon="6.49936">
        <ele>486.3</ele>
        <time>2024-02-04T11:35:43Z</time>
      </trkpt>
      <trkpt lat="43.18284" lon="6.49936">
        <ele>486.4</ele>
        <time>2024-02-04T11:35:44Z</time>
      </trkpt>
      <trkpt lat="43.18283" lon="6.49936">
        <ele>486.4</ele>
        <time>2024-02-04T11:35:45Z</time>
      </trkpt>
      <trkpt lat="43.18282" lon="6.49936">
        <ele>486.4</ele>
        <time>2024-02-04T11:35:46Z</time>
      </trkpt>
      <trkpt lat="43.18282" lon="6.49936">
        <ele>486.5</ele>
        <time>2024-02-04T11:35:47Z</time>
      </trkpt>
      <trkpt lat="43.18281" lon="6.49936">
        <ele>486.5</ele>
        <time>2024-02-04T11:35:48Z</time>
      </trkpt>
      <trkpt lat="43.1828" lon="6.49935">
        <ele>486.4</ele>
        <time>2024-02-04T11:35:49Z</time>
      </trkpt>
      <trkpt lat="43.18279" lon="6.49935">
        <ele>486.4</ele>
        <time>2024-02-04T11:35:50Z</time>
      </trkpt>
      <trkpt lat="43.18278" lon="6.49935">
        <ele>486.3</ele>
        <time>2024-02-04T11:35:51Z</time>
      </trkpt>
      <trkpt lat="43.18277" lon="6.49935">
        <ele>486.3</ele>
        <time>2024-02-04T11:35:52Z</time>
      </trkpt>
      <trkpt lat="43.18276" lon="6.49934">
        <ele>486.2</ele>
        <time>2024-02-04T11:35:53Z</time>
      </trkpt>
      <trkpt lat="43.18276" lon="6.49934">
        <ele>486</ele>
        <time>2024-02-04T11:35:54Z</time>
      </trkpt>
      <trkpt lat="43.18275" lon="6.49933">
        <ele>485.9</ele>
        <time>2024-02-04T11:35:55Z</time>
      </trkpt>
      <trkpt lat="43.18274" lon="6.49933">
        <ele>485.8</ele>
        <time>2024-02-04T11:35:56Z</time>
      </trkpt>
      <trkpt lat="43.18274" lon="6.49933">
        <ele>485.7</ele>
        <time>2024-02-04T11:35:57Z</time>
      </trkpt>
      <trkpt lat="43.18273" lon="6.49933">
        <ele>485.6</ele>
        <time>2024-02-04T11:35:58Z</time>
      </trkpt>
      <trkpt lat="43.18272" lon="6.49933">
        <ele>485.4</ele>
        <time>2024-02-04T11:35:59Z</time>
      </trkpt>
      <trkpt lat="43.18271" lon="6.49932">
        <ele>485.3</ele>
        <time>2024-02-04T11:36:00Z</time>
      </trkpt>
      <trkpt lat="43.18271" lon="6.49932">
        <ele>485.2</ele>
        <time>2024-02-04T11:36:01Z</time>
      </trkpt>
      <trkpt lat="43.1827" lon="6.49932">
        <ele>485.1</ele>
        <time>2024-02-04T11:36:02Z</time>
      </trkpt>
      <trkpt lat="43.18269" lon="6.49932">
        <ele>485.1</ele>
        <time>2024-02-04T11:36:03Z</time>
      </trkpt>
      <trkpt lat="43.18268" lon="6.49932">
        <ele>484.9</ele>
        <time>2024-02-04T11:36:04Z</time>
      </trkpt>
      <trkpt lat="43.18267" lon="6.49932">
        <ele>485</ele>
        <time>2024-02-04T11:36:05Z</time>
      </trkpt>
      <trkpt lat="43.18266" lon="6.49931">
        <ele>484.8</ele>
        <time>2024-02-04T11:36:06Z</time>
      </trkpt>
      <trkpt lat="43.18266" lon="6.49932">
        <ele>484.7</ele>
        <time>2024-02-04T11:36:07Z</time>
      </trkpt>
      <trkpt lat="43.18264" lon="6.49931">
        <ele>484.7</ele>
        <time>2024-02-04T11:36:08Z</time>
      </trkpt>
      <trkpt lat="43.18263" lon="6.49931">
        <ele>484.6</ele>
        <time>2024-02-04T11:36:09Z</time>
      </trkpt>
      <trkpt lat="43.18263" lon="6.49931">
        <ele>484.5</ele>
        <time>2024-02-04T11:36:10Z</time>
      </trkpt>
      <trkpt lat="43.18262" lon="6.49931">
        <ele>484.3</ele>
        <time>2024-02-04T11:36:11Z</time>
      </trkpt>
      <trkpt lat="43.18261" lon="6.49931">
        <ele>484.3</ele>
        <time>2024-02-04T11:36:12Z</time>
      </trkpt>
      <trkpt lat="43.1826" lon="6.49931">
        <ele>484.2</ele>
        <time>2024-02-04T11:36:13Z</time>
      </trkpt>
      <trkpt lat="43.18259" lon="6.49931">
        <ele>484</ele>
        <time>2024-02-04T11:36:14Z</time>
      </trkpt>
      <trkpt lat="43.18258" lon="6.49931">
        <ele>483.8</ele>
        <time>2024-02-04T11:36:15Z</time>
      </trkpt>
      <trkpt lat="43.18257" lon="6.4993">
        <ele>483.8</ele>
        <time>2024-02-04T11:36:16Z</time>
      </trkpt>
      <trkpt lat="43.18255" lon="6.4993">
        <ele>483.7</ele>
        <time>2024-02-04T11:36:17Z</time>
      </trkpt>
      <trkpt lat="43.18255" lon="6.4993">
        <ele>483.6</ele>
        <time>2024-02-04T11:36:18Z</time>
      </trkpt>
      <trkpt lat="43.18254" lon="6.4993">
        <ele>483.5</ele>
        <time>2024-02-04T11:36:19Z</time>
      </trkpt>
      <trkpt lat="43.18253" lon="6.49929">
        <ele>483.4</ele>
        <time>2024-02-04T11:36:20Z</time>
      </trkpt>
      <trkpt lat="43.18252" lon="6.49929">
        <ele>483.3</ele>
        <time>2024-02-04T11:36:21Z</time>
      </trkpt>
      <trkpt lat="43.18251" lon="6.49929">
        <ele>483.3</ele>
        <time>2024-02-04T11:36:22Z</time>
      </trkpt>
      <trkpt lat="43.1825" lon="6.49928">
        <ele>483.2</ele>
        <time>2024-02-04T11:36:23Z</time>
      </trkpt>
      <trkpt lat="43.18249" lon="6.49928">
        <ele>483.1</ele>
        <time>2024-02-04T11:36:24Z</time>
      </trkpt>
      <trkpt lat="43.18247" lon="6.49928">
        <ele>483.1</ele>
        <time>2024-02-04T11:36:25Z</time>
      </trkpt>
      <trkpt lat="43.18246" lon="6.49928">
        <ele>482.9</ele>
        <time>2024-02-04T11:36:26Z</time>
      </trkpt>
      <trkpt lat="43.18245" lon="6.49927">
        <ele>482.9</ele>
        <time>2024-02-04T11:36:27Z</time>
      </trkpt>
      <trkpt lat="43.18244" lon="6.49927">
        <ele>482.8</ele>
        <time>2024-02-04T11:36:28Z</time>
      </trkpt>
      <trkpt lat="43.18243" lon="6.49927">
        <ele>482.7</ele>
        <time>2024-02-04T11:36:29Z</time>
      </trkpt>
      <trkpt lat="43.18242" lon="6.49927">
        <ele>482.7</ele>
        <time>2024-02-04T11:36:30Z</time>
      </trkpt>
      <trkpt lat="43.18241" lon="6.49926">
        <ele>482.6</ele>
        <time>2024-02-04T11:36:31Z</time>
      </trkpt>
      <trkpt lat="43.1824" lon="6.49926">
        <ele>482.5</ele>
        <time>2024-02-04T11:36:32Z</time>
      </trkpt>
      <trkpt lat="43.18239" lon="6.49926">
        <ele>482.4</ele>
        <time>2024-02-04T11:36:33Z</time>
      </trkpt>
      <trkpt lat="43.18238" lon="6.49925">
        <ele>482.4</ele>
        <time>2024-02-04T11:36:34Z</time>
      </trkpt>
      <trkpt lat="43.18237" lon="6.49925">
        <ele>482.4</ele>
        <time>2024-02-04T11:36:35Z</time>
      </trkpt>
      <trkpt lat="43.18236" lon="6.49924">
        <ele>482.4</ele>
        <time>2024-02-04T11:36:36Z</time>
      </trkpt>
      <trkpt lat="43.18235" lon="6.49923">
        <ele>482.4</ele>
        <time>2024-02-04T11:36:37Z</time>
      </trkpt>
      <trkpt lat="43.18234" lon="6.49922">
        <ele>482.4</ele>
        <time>2024-02-04T11:36:38Z</time>
      </trkpt>
      <trkpt lat="43.18233" lon="6.49921">
        <ele>482.3</ele>
        <time>2024-02-04T11:36:39Z</time>
      </trkpt>
      <trkpt lat="43.18233" lon="6.49921">
        <ele>482.4</ele>
        <time>2024-02-04T11:36:40Z</time>
      </trkpt>
      <trkpt lat="43.18233" lon="6.4992">
        <ele>482.4</ele>
        <time>2024-02-04T11:36:41Z</time>
      </trkpt>
      <trkpt lat="43.18232" lon="6.4992">
        <ele>482.4</ele>
        <time>2024-02-04T11:36:42Z</time>
      </trkpt>
      <trkpt lat="43.18231" lon="6.49919">
        <ele>482.4</ele>
        <time>2024-02-04T11:36:43Z</time>
      </trkpt>
      <trkpt lat="43.18231" lon="6.49919">
        <ele>482.5</ele>
        <time>2024-02-04T11:36:44Z</time>
      </trkpt>
      <trkpt lat="43.18231" lon="6.49919">
        <ele>482.6</ele>
        <time>2024-02-04T11:36:45Z</time>
      </trkpt>
      <trkpt lat="43.1823" lon="6.49919">
        <ele>482.8</ele>
        <time>2024-02-04T11:36:46Z</time>
      </trkpt>
      <trkpt lat="43.1823" lon="6.49919">
        <ele>482.9</ele>
        <time>2024-02-04T11:36:47Z</time>
      </trkpt>
      <trkpt lat="43.1823" lon="6.49919">
        <ele>483</ele>
        <time>2024-02-04T11:36:48Z</time>
      </trkpt>
      <trkpt lat="43.1823" lon="6.49919">
        <ele>483.1</ele>
        <time>2024-02-04T11:36:49Z</time>
      </trkpt>
      <trkpt lat="43.1823" lon="6.49919">
        <ele>483.1</ele>
        <time>2024-02-04T11:36:50Z</time>
      </trkpt>
      <trkpt lat="43.1823" lon="6.49919">
        <ele>483.2</ele>
        <time>2024-02-04T11:36:51Z</time>
      </trkpt>
      <trkpt lat="43.1823" lon="6.49919">
        <ele>483.3</ele>
        <time>2024-02-04T11:36:52Z</time>
      </trkpt>
      <trkpt lat="43.1823" lon="6.4992">
        <ele>483.4</ele>
        <time>2024-02-04T11:36:53Z</time>
      </trkpt>
      <trkpt lat="43.1823" lon="6.4992">
        <ele>483.5</ele>
        <time>2024-02-04T11:36:54Z</time>
      </trkpt>
      <trkpt lat="43.18229" lon="6.49921">
        <ele>483.6</ele>
        <time>2024-02-04T11:36:55Z</time>
      </trkpt>
      <trkpt lat="43.1823" lon="6.49921">
        <ele>483.7</ele>
        <time>2024-02-04T11:36:56Z</time>
      </trkpt>
      <trkpt lat="43.18229" lon="6.49922">
        <ele>483.8</ele>
        <time>2024-02-04T11:36:57Z</time>
      </trkpt>
      <trkpt lat="43.18229" lon="6.49922">
        <ele>484</ele>
        <time>2024-02-04T11:36:58Z</time>
      </trkpt>
      <trkpt lat="43.18229" lon="6.49921">
        <ele>484.1</ele>
        <time>2024-02-04T11:36:59Z</time>
      </trkpt>
      <trkpt lat="43.18228" lon="6.49922">
        <ele>484.2</ele>
        <time>2024-02-04T11:37:00Z</time>
      </trkpt>
      <trkpt lat="43.18228" lon="6.49922">
        <ele>484.4</ele>
        <time>2024-02-04T11:37:01Z</time>
      </trkpt>
      <trkpt lat="43.18227" lon="6.49922">
        <ele>484.5</ele>
        <time>2024-02-04T11:37:02Z</time>
      </trkpt>
      <trkpt lat="43.18226" lon="6.49922">
        <ele>484.7</ele>
        <time>2024-02-04T11:37:03Z</time>
      </trkpt>
      <trkpt lat="43.18226" lon="6.49923">
        <ele>484.8</ele>
        <time>2024-02-04T11:37:04Z</time>
      </trkpt>
      <trkpt lat="43.18225" lon="6.49923">
        <ele>485</ele>
        <time>2024-02-04T11:37:05Z</time>
      </trkpt>
      <trkpt lat="43.18224" lon="6.49923">
        <ele>485</ele>
        <time>2024-02-04T11:37:06Z</time>
      </trkpt>
      <trkpt lat="43.18223" lon="6.49924">
        <ele>485.2</ele>
        <time>2024-02-04T11:37:07Z</time>
      </trkpt>
      <trkpt lat="43.18222" lon="6.49924">
        <ele>485.2</ele>
        <time>2024-02-04T11:37:08Z</time>
      </trkpt>
      <trkpt lat="43.18221" lon="6.49924">
        <ele>485.2</ele>
        <time>2024-02-04T11:37:09Z</time>
      </trkpt>
      <trkpt lat="43.1822" lon="6.49925">
        <ele>485.2</ele>
        <time>2024-02-04T11:37:10Z</time>
      </trkpt>
      <trkpt lat="43.18219" lon="6.49925">
        <ele>485.2</ele>
        <time>2024-02-04T11:37:11Z</time>
      </trkpt>
      <trkpt lat="43.18219" lon="6.49926">
        <ele>485.2</ele>
        <time>2024-02-04T11:37:12Z</time>
      </trkpt>
      <trkpt lat="43.18218" lon="6.49926">
        <ele>485.2</ele>
        <time>2024-02-04T11:37:13Z</time>
      </trkpt>
      <trkpt lat="43.18217" lon="6.49926">
        <ele>485.1</ele>
        <time>2024-02-04T11:37:14Z</time>
      </trkpt>
      <trkpt lat="43.18216" lon="6.49927">
        <ele>485.1</ele>
        <time>2024-02-04T11:37:15Z</time>
      </trkpt>
      <trkpt lat="43.18216" lon="6.49927">
        <ele>485</ele>
        <time>2024-02-04T11:37:16Z</time>
      </trkpt>
      <trkpt lat="43.18215" lon="6.49928">
        <ele>484.9</ele>
        <time>2024-02-04T11:37:17Z</time>
      </trkpt>
      <trkpt lat="43.18214" lon="6.49928">
        <ele>484.8</ele>
        <time>2024-02-04T11:37:18Z</time>
      </trkpt>
      <trkpt lat="43.18213" lon="6.49928">
        <ele>484.8</ele>
        <time>2024-02-04T11:37:19Z</time>
      </trkpt>
      <trkpt lat="43.18212" lon="6.49928">
        <ele>484.7</ele>
        <time>2024-02-04T11:37:20Z</time>
      </trkpt>
      <trkpt lat="43.18211" lon="6.49928">
        <ele>484.6</ele>
        <time>2024-02-04T11:37:21Z</time>
      </trkpt>
      <trkpt lat="43.1821" lon="6.49929">
        <ele>484.5</ele>
        <time>2024-02-04T11:37:22Z</time>
      </trkpt>
      <trkpt lat="43.18209" lon="6.49929">
        <ele>484.4</ele>
        <time>2024-02-04T11:37:23Z</time>
      </trkpt>
      <trkpt lat="43.18208" lon="6.49929">
        <ele>484.5</ele>
        <time>2024-02-04T11:37:24Z</time>
      </trkpt>
      <trkpt lat="43.18207" lon="6.4993">
        <ele>484.4</ele>
        <time>2024-02-04T11:37:25Z</time>
      </trkpt>
      <trkpt lat="43.18207" lon="6.4993">
        <ele>484.3</ele>
        <time>2024-02-04T11:37:26Z</time>
      </trkpt>
      <trkpt lat="43.18206" lon="6.4993">
        <ele>484.1</ele>
        <time>2024-02-04T11:37:27Z</time>
      </trkpt>
      <trkpt lat="43.18205" lon="6.49931">
        <ele>484</ele>
        <time>2024-02-04T11:37:28Z</time>
      </trkpt>
      <trkpt lat="43.18205" lon="6.49932">
        <ele>483.7</ele>
        <time>2024-02-04T11:37:29Z</time>
      </trkpt>
      <trkpt lat="43.18204" lon="6.49932">
        <ele>483.5</ele>
        <time>2024-02-04T11:37:30Z</time>
      </trkpt>
      <trkpt lat="43.18202" lon="6.49933">
        <ele>483.4</ele>
        <time>2024-02-04T11:37:31Z</time>
      </trkpt>
      <trkpt lat="43.18201" lon="6.49934">
        <ele>483.2</ele>
        <time>2024-02-04T11:37:32Z</time>
      </trkpt>
      <trkpt lat="43.18199" lon="6.49935">
        <ele>483</ele>
        <time>2024-02-04T11:37:33Z</time>
      </trkpt>
      <trkpt lat="43.18198" lon="6.49935">
        <ele>482.7</ele>
        <time>2024-02-04T11:37:34Z</time>
      </trkpt>
      <trkpt lat="43.18197" lon="6.49937">
        <ele>482.6</ele>
        <time>2024-02-04T11:37:35Z</time>
      </trkpt>
      <trkpt lat="43.18196" lon="6.49938">
        <ele>482.5</ele>
        <time>2024-02-04T11:37:36Z</time>
      </trkpt>
      <trkpt lat="43.18195" lon="6.49939">
        <ele>482.4</ele>
        <time>2024-02-04T11:37:37Z</time>
      </trkpt>
      <trkpt lat="43.18194" lon="6.4994">
        <ele>482.4</ele>
        <time>2024-02-04T11:37:38Z</time>
      </trkpt>
      <trkpt lat="43.18193" lon="6.4994">
        <ele>482.4</ele>
        <time>2024-02-04T11:37:39Z</time>
      </trkpt>
      <trkpt lat="43.18192" lon="6.49941">
        <ele>482.3</ele>
        <time>2024-02-04T11:37:40Z</time>
      </trkpt>
      <trkpt lat="43.18191" lon="6.49941">
        <ele>482.2</ele>
        <time>2024-02-04T11:37:41Z</time>
      </trkpt>
      <trkpt lat="43.1819" lon="6.49942">
        <ele>482.2</ele>
        <time>2024-02-04T11:37:42Z</time>
      </trkpt>
      <trkpt lat="43.18189" lon="6.49943">
        <ele>482.2</ele>
        <time>2024-02-04T11:37:43Z</time>
      </trkpt>
      <trkpt lat="43.18189" lon="6.49943">
        <ele>482.2</ele>
        <time>2024-02-04T11:37:44Z</time>
      </trkpt>
      <trkpt lat="43.18189" lon="6.49943">
        <ele>482.3</ele>
        <time>2024-02-04T11:37:45Z</time>
      </trkpt>
      <trkpt lat="43.18188" lon="6.49944">
        <ele>482.4</ele>
        <time>2024-02-04T11:37:46Z</time>
      </trkpt>
      <trkpt lat="43.18187" lon="6.49945">
        <ele>482.5</ele>
        <time>2024-02-04T11:37:47Z</time>
      </trkpt>
      <trkpt lat="43.18186" lon="6.49945">
        <ele>482.6</ele>
        <time>2024-02-04T11:37:48Z</time>
      </trkpt>
      <trkpt lat="43.18185" lon="6.49946">
        <ele>482.6</ele>
        <time>2024-02-04T11:37:49Z</time>
      </trkpt>
      <trkpt lat="43.18184" lon="6.49947">
        <ele>482.7</ele>
        <time>2024-02-04T11:37:50Z</time>
      </trkpt>
      <trkpt lat="43.18184" lon="6.49948">
        <ele>482.7</ele>
        <time>2024-02-04T11:37:51Z</time>
      </trkpt>
      <trkpt lat="43.18183" lon="6.49948">
        <ele>482.7</ele>
        <time>2024-02-04T11:37:52Z</time>
      </trkpt>
      <trkpt lat="43.18182" lon="6.49948">
        <ele>482.8</ele>
        <time>2024-02-04T11:37:53Z</time>
      </trkpt>
      <trkpt lat="43.18182" lon="6.49949">
        <ele>482.9</ele>
        <time>2024-02-04T11:37:54Z</time>
      </trkpt>
      <trkpt lat="43.18181" lon="6.4995">
        <ele>483.1</ele>
        <time>2024-02-04T11:37:55Z</time>
      </trkpt>
      <trkpt lat="43.18181" lon="6.4995">
        <ele>483.3</ele>
        <time>2024-02-04T11:37:56Z</time>
      </trkpt>
      <trkpt lat="43.1818" lon="6.49951">
        <ele>483.6</ele>
        <time>2024-02-04T11:37:57Z</time>
      </trkpt>
      <trkpt lat="43.1818" lon="6.49951">
        <ele>483.8</ele>
        <time>2024-02-04T11:37:58Z</time>
      </trkpt>
      <trkpt lat="43.18179" lon="6.49952">
        <ele>483.9</ele>
        <time>2024-02-04T11:37:59Z</time>
      </trkpt>
      <trkpt lat="43.18179" lon="6.49952">
        <ele>484</ele>
        <time>2024-02-04T11:38:00Z</time>
      </trkpt>
      <trkpt lat="43.18178" lon="6.49953">
        <ele>484.2</ele>
        <time>2024-02-04T11:38:01Z</time>
      </trkpt>
      <trkpt lat="43.18178" lon="6.49953">
        <ele>484.3</ele>
        <time>2024-02-04T11:38:02Z</time>
      </trkpt>
      <trkpt lat="43.18177" lon="6.49954">
        <ele>484.5</ele>
        <time>2024-02-04T11:38:03Z</time>
      </trkpt>
      <trkpt lat="43.18177" lon="6.49955">
        <ele>484.6</ele>
        <time>2024-02-04T11:38:04Z</time>
      </trkpt>
      <trkpt lat="43.18177" lon="6.49955">
        <ele>484.8</ele>
        <time>2024-02-04T11:38:05Z</time>
      </trkpt>
      <trkpt lat="43.18176" lon="6.49956">
        <ele>485</ele>
        <time>2024-02-04T11:38:06Z</time>
      </trkpt>
      <trkpt lat="43.18176" lon="6.49956">
        <ele>485.2</ele>
        <time>2024-02-04T11:38:07Z</time>
      </trkpt>
      <trkpt lat="43.18175" lon="6.49957">
        <ele>485.4</ele>
        <time>2024-02-04T11:38:08Z</time>
      </trkpt>
      <trkpt lat="43.18175" lon="6.49958">
        <ele>485.6</ele>
        <time>2024-02-04T11:38:09Z</time>
      </trkpt>
      <trkpt lat="43.18174" lon="6.49958">
        <ele>485.8</ele>
        <time>2024-02-04T11:38:10Z</time>
      </trkpt>
      <trkpt lat="43.18174" lon="6.49959">
        <ele>486</ele>
        <time>2024-02-04T11:38:11Z</time>
      </trkpt>
      <trkpt lat="43.18173" lon="6.4996">
        <ele>486.1</ele>
        <time>2024-02-04T11:38:12Z</time>
      </trkpt>
      <trkpt lat="43.18173" lon="6.4996">
        <ele>486.3</ele>
        <time>2024-02-04T11:38:13Z</time>
      </trkpt>
      <trkpt lat="43.18172" lon="6.49961">
        <ele>486.5</ele>
        <time>2024-02-04T11:38:14Z</time>
      </trkpt>
      <trkpt lat="43.18172" lon="6.49961">
        <ele>486.6</ele>
        <time>2024-02-04T11:38:15Z</time>
      </trkpt>
      <trkpt lat="43.18171" lon="6.49962">
        <ele>486.8</ele>
        <time>2024-02-04T11:38:16Z</time>
      </trkpt>
      <trkpt lat="43.18171" lon="6.49963">
        <ele>486.9</ele>
        <time>2024-02-04T11:38:17Z</time>
      </trkpt>
      <trkpt lat="43.18171" lon="6.49964">
        <ele>487</ele>
        <time>2024-02-04T11:38:18Z</time>
      </trkpt>
      <trkpt lat="43.1817" lon="6.49964">
        <ele>487.2</ele>
        <time>2024-02-04T11:38:19Z</time>
      </trkpt>
      <trkpt lat="43.18169" lon="6.49966">
        <ele>487.5</ele>
        <time>2024-02-04T11:38:20Z</time>
      </trkpt>
      <trkpt lat="43.18169" lon="6.49966">
        <ele>487.6</ele>
        <time>2024-02-04T11:38:21Z</time>
      </trkpt>
      <trkpt lat="43.18168" lon="6.49968">
        <ele>487.8</ele>
        <time>2024-02-04T11:38:22Z</time>
      </trkpt>
      <trkpt lat="43.18168" lon="6.49968">
        <ele>487.9</ele>
        <time>2024-02-04T11:38:23Z</time>
      </trkpt>
      <trkpt lat="43.18168" lon="6.49969">
        <ele>488</ele>
        <time>2024-02-04T11:38:24Z</time>
      </trkpt>
      <trkpt lat="43.18168" lon="6.4997">
        <ele>488.1</ele>
        <time>2024-02-04T11:38:25Z</time>
      </trkpt>
      <trkpt lat="43.18168" lon="6.4997">
        <ele>488.3</ele>
        <time>2024-02-04T11:38:26Z</time>
      </trkpt>
      <trkpt lat="43.18168" lon="6.4997">
        <ele>488.4</ele>
        <time>2024-02-04T11:38:27Z</time>
      </trkpt>
      <trkpt lat="43.18168" lon="6.49971">
        <ele>488.6</ele>
        <time>2024-02-04T11:38:28Z</time>
      </trkpt>
      <trkpt lat="43.18167" lon="6.49972">
        <ele>488.7</ele>
        <time>2024-02-04T11:38:29Z</time>
      </trkpt>
      <trkpt lat="43.18167" lon="6.49973">
        <ele>488.8</ele>
        <time>2024-02-04T11:38:30Z</time>
      </trkpt>
      <trkpt lat="43.18166" lon="6.49974">
        <ele>488.9</ele>
        <time>2024-02-04T11:38:31Z</time>
      </trkpt>
      <trkpt lat="43.18166" lon="6.49975">
        <ele>489</ele>
        <time>2024-02-04T11:38:32Z</time>
      </trkpt>
      <trkpt lat="43.18165" lon="6.49976">
        <ele>489.1</ele>
        <time>2024-02-04T11:38:33Z</time>
      </trkpt>
      <trkpt lat="43.18165" lon="6.49976">
        <ele>489.1</ele>
        <time>2024-02-04T11:38:34Z</time>
      </trkpt>
      <trkpt lat="43.18165" lon="6.49977">
        <ele>489.1</ele>
        <time>2024-02-04T11:38:35Z</time>
      </trkpt>
      <trkpt lat="43.18164" lon="6.49977">
        <ele>489.2</ele>
        <time>2024-02-04T11:38:36Z</time>
      </trkpt>
      <trkpt lat="43.18163" lon="6.49978">
        <ele>489.3</ele>
        <time>2024-02-04T11:38:37Z</time>
      </trkpt>
      <trkpt lat="43.18163" lon="6.49979">
        <ele>489.4</ele>
        <time>2024-02-04T11:38:38Z</time>
      </trkpt>
      <trkpt lat="43.18162" lon="6.49979">
        <ele>489.4</ele>
        <time>2024-02-04T11:38:39Z</time>
      </trkpt>
      <trkpt lat="43.18162" lon="6.4998">
        <ele>489.5</ele>
        <time>2024-02-04T11:38:40Z</time>
      </trkpt>
      <trkpt lat="43.18161" lon="6.4998">
        <ele>489.5</ele>
        <time>2024-02-04T11:38:41Z</time>
      </trkpt>
      <trkpt lat="43.1816" lon="6.49981">
        <ele>489.6</ele>
        <time>2024-02-04T11:38:42Z</time>
      </trkpt>
      <trkpt lat="43.1816" lon="6.49981">
        <ele>489.6</ele>
        <time>2024-02-04T11:38:43Z</time>
      </trkpt>
      <trkpt lat="43.18159" lon="6.49982">
        <ele>489.6</ele>
        <time>2024-02-04T11:38:44Z</time>
      </trkpt>
      <trkpt lat="43.18158" lon="6.49982">
        <ele>489.7</ele>
        <time>2024-02-04T11:38:45Z</time>
      </trkpt>
      <trkpt lat="43.18158" lon="6.49983">
        <ele>489.7</ele>
        <time>2024-02-04T11:38:46Z</time>
      </trkpt>
      <trkpt lat="43.18158" lon="6.49983">
        <ele>489.7</ele>
        <time>2024-02-04T11:38:47Z</time>
      </trkpt>
      <trkpt lat="43.18158" lon="6.49984">
        <ele>489.7</ele>
        <time>2024-02-04T11:38:48Z</time>
      </trkpt>
      <trkpt lat="43.18158" lon="6.49984">
        <ele>489.8</ele>
        <time>2024-02-04T11:38:49Z</time>
      </trkpt>
      <trkpt lat="43.18158" lon="6.49985">
        <ele>489.9</ele>
        <time>2024-02-04T11:38:50Z</time>
      </trkpt>
      <trkpt lat="43.18158" lon="6.49986">
        <ele>490</ele>
        <time>2024-02-04T11:38:51Z</time>
      </trkpt>
      <trkpt lat="43.18157" lon="6.49986">
        <ele>490</ele>
        <time>2024-02-04T11:38:52Z</time>
      </trkpt>
      <trkpt lat="43.18157" lon="6.49986">
        <ele>490.1</ele>
        <time>2024-02-04T11:38:53Z</time>
      </trkpt>
      <trkpt lat="43.18157" lon="6.49986">
        <ele>490.1</ele>
        <time>2024-02-04T11:38:54Z</time>
      </trkpt>
      <trkpt lat="43.18157" lon="6.49986">
        <ele>490.1</ele>
        <time>2024-02-04T11:38:55Z</time>
      </trkpt>
      <trkpt lat="43.18157" lon="6.49987">
        <ele>490.1</ele>
        <time>2024-02-04T11:38:56Z</time>
      </trkpt>
      <trkpt lat="43.18156" lon="6.49988">
        <ele>490.1</ele>
        <time>2024-02-04T11:38:57Z</time>
      </trkpt>
      <trkpt lat="43.18156" lon="6.49988">
        <ele>490.3</ele>
        <time>2024-02-04T11:38:58Z</time>
      </trkpt>
      <trkpt lat="43.18156" lon="6.49988">
        <ele>490.4</ele>
        <time>2024-02-04T11:38:59Z</time>
      </trkpt>
      <trkpt lat="43.18156" lon="6.49988">
        <ele>490.5</ele>
        <time>2024-02-04T11:39:00Z</time>
      </trkpt>
      <trkpt lat="43.18156" lon="6.49989">
        <ele>490.6</ele>
        <time>2024-02-04T11:39:01Z</time>
      </trkpt>
      <trkpt lat="43.18156" lon="6.49989">
        <ele>490.7</ele>
        <time>2024-02-04T11:39:02Z</time>
      </trkpt>
      <trkpt lat="43.18156" lon="6.49989">
        <ele>490.7</ele>
        <time>2024-02-04T11:39:03Z</time>
      </trkpt>
      <trkpt lat="43.18156" lon="6.4999">
        <ele>490.7</ele>
        <time>2024-02-04T11:39:04Z</time>
      </trkpt>
      <trkpt lat="43.18156" lon="6.4999">
        <ele>490.7</ele>
        <time>2024-02-04T11:39:05Z</time>
      </trkpt>
      <trkpt lat="43.18156" lon="6.4999">
        <ele>490.9</ele>
        <time>2024-02-04T11:39:06Z</time>
      </trkpt>
      <trkpt lat="43.18156" lon="6.4999">
        <ele>491</ele>
        <time>2024-02-04T11:39:07Z</time>
      </trkpt>
      <trkpt lat="43.18156" lon="6.49991">
        <ele>491</ele>
        <time>2024-02-04T11:39:08Z</time>
      </trkpt>
      <trkpt lat="43.18156" lon="6.49991">
        <ele>491.1</ele>
        <time>2024-02-04T11:39:09Z</time>
      </trkpt>
      <trkpt lat="43.18156" lon="6.49991">
        <ele>491.1</ele>
        <time>2024-02-04T11:39:10Z</time>
      </trkpt>
      <trkpt lat="43.18155" lon="6.49991">
        <ele>491.1</ele>
        <time>2024-02-04T11:39:11Z</time>
      </trkpt>
      <trkpt lat="43.18155" lon="6.49991">
        <ele>491.1</ele>
        <time>2024-02-04T11:39:12Z</time>
      </trkpt>
      <trkpt lat="43.18155" lon="6.49992">
        <ele>491.1</ele>
        <time>2024-02-04T11:39:13Z</time>
      </trkpt>
      <trkpt lat="43.18155" lon="6.49992">
        <ele>491.1</ele>
        <time>2024-02-04T11:39:14Z</time>
      </trkpt>
      <trkpt lat="43.18155" lon="6.49992">
        <ele>491</ele>
        <time>2024-02-04T11:39:15Z</time>
      </trkpt>
      <trkpt lat="43.18155" lon="6.49992">
        <ele>491</ele>
        <time>2024-02-04T11:39:16Z</time>
      </trkpt>
      <trkpt lat="43.18155" lon="6.49993">
        <ele>491</ele>
        <time>2024-02-04T11:39:17Z</time>
      </trkpt>
      <trkpt lat="43.18155" lon="6.49993">
        <ele>491</ele>
        <time>2024-02-04T11:39:18Z</time>
      </trkpt>
      <trkpt lat="43.18155" lon="6.49993">
        <ele>491</ele>
        <time>2024-02-04T11:39:19Z</time>
      </trkpt>
      <trkpt lat="43.18155" lon="6.49993">
        <ele>491</ele>
        <time>2024-02-04T11:39:20Z</time>
      </trkpt>
      <trkpt lat="43.18155" lon="6.49993">
        <ele>491</ele>
        <time>2024-02-04T11:39:21Z</time>
      </trkpt>
      <trkpt lat="43.18155" lon="6.49993">
        <ele>491.1</ele>
        <time>2024-02-04T11:39:22Z</time>
      </trkpt>
      <trkpt lat="43.18155" lon="6.49993">
        <ele>491.1</ele>
        <time>2024-02-04T11:39:23Z</time>
      </trkpt>
      <trkpt lat="43.18155" lon="6.49992">
        <ele>491.1</ele>
        <time>2024-02-04T11:39:24Z</time>
      </trkpt>
      <trkpt lat="43.18155" lon="6.49992">
        <ele>491.2</ele>
        <time>2024-02-04T11:39:25Z</time>
      </trkpt>
      <trkpt lat="43.18155" lon="6.49992">
        <ele>491.2</ele>
        <time>2024-02-04T11:39:26Z</time>
      </trkpt>
      <trkpt lat="43.18155" lon="6.49992">
        <ele>491.3</ele>
        <time>2024-02-04T11:39:27Z</time>
      </trkpt>
      <trkpt lat="43.18155" lon="6.49993">
        <ele>491.3</ele>
        <time>2024-02-04T11:39:28Z</time>
      </trkpt>
      <trkpt lat="43.18155" lon="6.49993">
        <ele>491.4</ele>
        <time>2024-02-04T11:39:29Z</time>
      </trkpt>
      <trkpt lat="43.18155" lon="6.49993">
        <ele>491.4</ele>
        <time>2024-02-04T11:39:30Z</time>
      </trkpt>
      <trkpt lat="43.18155" lon="6.49993">
        <ele>491.4</ele>
        <time>2024-02-04T11:39:31Z</time>
      </trkpt>
      <trkpt lat="43.18155" lon="6.49993">
        <ele>491.4</ele>
        <time>2024-02-04T11:39:32Z</time>
      </trkpt>
      <trkpt lat="43.18155" lon="6.49993">
        <ele>491.4</ele>
        <time>2024-02-04T11:39:33Z</time>
      </trkpt>
      <trkpt lat="43.18155" lon="6.49993">
        <ele>491.4</ele>
        <time>2024-02-04T11:39:34Z</time>
      </trkpt>
      <trkpt lat="43.18154" lon="6.49993">
        <ele>491.5</ele>
        <time>2024-02-04T11:39:35Z</time>
      </trkpt>
      <trkpt lat="43.18155" lon="6.49993">
        <ele>491.5</ele>
        <time>2024-02-04T11:39:36Z</time>
      </trkpt>
      <trkpt lat="43.18155" lon="6.49993">
        <ele>491.6</ele>
        <time>2024-02-04T11:39:37Z</time>
      </trkpt>
      <trkpt lat="43.18155" lon="6.49993">
        <ele>491.6</ele>
        <time>2024-02-04T11:39:38Z</time>
      </trkpt>
      <trkpt lat="43.18155" lon="6.49993">
        <ele>491.6</ele>
        <time>2024-02-04T11:39:39Z</time>
      </trkpt>
      <trkpt lat="43.18155" lon="6.49993">
        <ele>491.6</ele>
        <time>2024-02-04T11:39:40Z</time>
      </trkpt>
      <trkpt lat="43.18154" lon="6.49993">
        <ele>491.6</ele>
        <time>2024-02-04T11:39:41Z</time>
      </trkpt>
      <trkpt lat="43.18154" lon="6.49993">
        <ele>491.6</ele>
        <time>2024-02-04T11:39:42Z</time>
      </trkpt>
      <trkpt lat="43.18154" lon="6.49993">
        <ele>491.6</ele>
        <time>2024-02-04T11:39:43Z</time>
      </trkpt>
      <trkpt lat="43.18154" lon="6.49993">
        <ele>491.6</ele>
        <time>2024-02-04T11:39:44Z</time>
      </trkpt>
      <trkpt lat="43.18154" lon="6.49993">
        <ele>491.7</ele>
        <time>2024-02-04T11:39:45Z</time>
      </trkpt>
      <trkpt lat="43.18154" lon="6.49993">
        <ele>491.7</ele>
        <time>2024-02-04T11:39:46Z</time>
      </trkpt>
      <trkpt lat="43.18154" lon="6.49993">
        <ele>491.6</ele>
        <time>2024-02-04T11:39:47Z</time>
      </trkpt>
      <trkpt lat="43.18154" lon="6.49993">
        <ele>491.6</ele>
        <time>2024-02-04T11:39:48Z</time>
      </trkpt>
      <trkpt lat="43.18154" lon="6.49993">
        <ele>491.6</ele>
        <time>2024-02-04T11:39:49Z</time>
      </trkpt>
      <trkpt lat="43.18154" lon="6.49993">
        <ele>491.6</ele>
        <time>2024-02-04T11:39:50Z</time>
      </trkpt>
      <trkpt lat="43.18155" lon="6.49993">
        <ele>491.5</ele>
        <time>2024-02-04T11:39:51Z</time>
      </trkpt>
      <trkpt lat="43.18155" lon="6.49993">
        <ele>491.5</ele>
        <time>2024-02-04T11:39:52Z</time>
      </trkpt>
      <trkpt lat="43.18155" lon="6.49993">
        <ele>491.4</ele>
        <time>2024-02-04T11:39:53Z</time>
      </trkpt>
      <trkpt lat="43.18155" lon="6.49993">
        <ele>491.5</ele>
        <time>2024-02-04T11:39:54Z</time>
      </trkpt>
      <trkpt lat="43.18155" lon="6.49993">
        <ele>491.5</ele>
        <time>2024-02-04T11:39:55Z</time>
      </trkpt>
      <trkpt lat="43.18155" lon="6.49993">
        <ele>491.5</ele>
        <time>2024-02-04T11:39:56Z</time>
      </trkpt>
      <trkpt lat="43.18155" lon="6.49993">
        <ele>491.5</ele>
        <time>2024-02-04T11:39:57Z</time>
      </trkpt>
      <trkpt lat="43.18155" lon="6.49993">
        <ele>491.5</ele>
        <time>2024-02-04T11:39:58Z</time>
      </trkpt>
      <trkpt lat="43.18155" lon="6.49993">
        <ele>491.4</ele>
        <time>2024-02-04T11:39:59Z</time>
      </trkpt>
      <trkpt lat="43.18155" lon="6.49993">
        <ele>491.4</ele>
        <time>2024-02-04T11:40:00Z</time>
      </trkpt>
      <trkpt lat="43.18155" lon="6.49993">
        <ele>491.4</ele>
        <time>2024-02-04T11:40:01Z</time>
      </trkpt>
      <trkpt lat="43.18155" lon="6.49993">
        <ele>491.4</ele>
        <time>2024-02-04T11:40:02Z</time>
      </trkpt>
      <trkpt lat="43.18155" lon="6.49993">
        <ele>491.4</ele>
        <time>2024-02-04T11:40:03Z</time>
      </trkpt>
      <trkpt lat="43.18155" lon="6.49993">
        <ele>491.4</ele>
        <time>2024-02-04T11:40:04Z</time>
      </trkpt>
      <trkpt lat="43.18155" lon="6.49993">
        <ele>491.3</ele>
        <time>2024-02-04T11:40:05Z</time>
      </trkpt>
      <trkpt lat="43.18155" lon="6.49993">
        <ele>491.3</ele>
        <time>2024-02-04T11:40:06Z</time>
      </trkpt>
      <trkpt lat="43.18155" lon="6.49994">
        <ele>491.2</ele>
        <time>2024-02-04T11:40:07Z</time>
      </trkpt>
      <trkpt lat="43.18155" lon="6.49994">
        <ele>491.2</ele>
        <time>2024-02-04T11:40:08Z</time>
      </trkpt>
      <trkpt lat="43.18155" lon="6.49994">
        <ele>491.2</ele>
        <time>2024-02-04T11:40:09Z</time>
      </trkpt>
      <trkpt lat="43.18155" lon="6.49994">
        <ele>491.1</ele>
        <time>2024-02-04T11:40:10Z</time>
      </trkpt>
      <trkpt lat="43.18155" lon="6.49994">
        <ele>491.1</ele>
        <time>2024-02-04T11:40:11Z</time>
      </trkpt>
      <trkpt lat="43.18155" lon="6.49994">
        <ele>491.1</ele>
        <time>2024-02-04T11:40:12Z</time>
      </trkpt>
      <trkpt lat="43.18155" lon="6.49994">
        <ele>491.1</ele>
        <time>2024-02-04T11:40:13Z</time>
      </trkpt>
      <trkpt lat="43.18155" lon="6.49994">
        <ele>491.1</ele>
        <time>2024-02-04T11:40:14Z</time>
      </trkpt>
      <trkpt lat="43.18155" lon="6.49994">
        <ele>491.1</ele>
        <time>2024-02-04T11:40:15Z</time>
      </trkpt>
      <trkpt lat="43.18155" lon="6.49994">
        <ele>491.1</ele>
        <time>2024-02-04T11:40:16Z</time>
      </trkpt>
      <trkpt lat="43.18155" lon="6.49993">
        <ele>491.1</ele>
        <time>2024-02-04T11:40:17Z</time>
      </trkpt>
      <trkpt lat="43.18155" lon="6.49993">
        <ele>491.1</ele>
        <time>2024-02-04T11:40:18Z</time>
      </trkpt>
      <trkpt lat="43.18155" lon="6.49993">
        <ele>491.1</ele>
        <time>2024-02-04T11:40:19Z</time>
      </trkpt>
      <trkpt lat="43.18155" lon="6.49993">
        <ele>491.1</ele>
        <time>2024-02-04T11:40:20Z</time>
      </trkpt>
      <trkpt lat="43.18155" lon="6.49992">
        <ele>491.2</ele>
        <time>2024-02-04T11:40:21Z</time>
      </trkpt>
      <trkpt lat="43.18155" lon="6.49992">
        <ele>491.3</ele>
        <time>2024-02-04T11:40:22Z</time>
      </trkpt>
      <trkpt lat="43.18155" lon="6.49992">
        <ele>491.3</ele>
        <time>2024-02-04T11:40:23Z</time>
      </trkpt>
      <trkpt lat="43.18155" lon="6.49992">
        <ele>491.3</ele>
        <time>2024-02-04T11:40:24Z</time>
      </trkpt>
      <trkpt lat="43.18155" lon="6.49992">
        <ele>491.3</ele>
        <time>2024-02-04T11:40:25Z</time>
      </trkpt>
      <trkpt lat="43.18155" lon="6.49992">
        <ele>491.3</ele>
        <time>2024-02-04T11:40:26Z</time>
      </trkpt>
      <trkpt lat="43.18155" lon="6.49992">
        <ele>491.3</ele>
        <time>2024-02-04T11:40:27Z</time>
      </trkpt>
      <trkpt lat="43.18155" lon="6.49991">
        <ele>491.2</ele>
        <time>2024-02-04T11:40:28Z</time>
      </trkpt>
      <trkpt lat="43.18155" lon="6.49991">
        <ele>491.2</ele>
        <time>2024-02-04T11:40:29Z</time>
      </trkpt>
      <trkpt lat="43.18155" lon="6.49991">
        <ele>491.2</ele>
        <time>2024-02-04T11:40:30Z</time>
      </trkpt>
      <trkpt lat="43.18156" lon="6.49991">
        <ele>491.2</ele>
        <time>2024-02-04T11:40:31Z</time>
      </trkpt>
      <trkpt lat="43.18156" lon="6.49991">
        <ele>491.2</ele>
        <time>2024-02-04T11:40:32Z</time>
      </trkpt>
      <trkpt lat="43.18156" lon="6.49991">
        <ele>491.2</ele>
        <time>2024-02-04T11:40:33Z</time>
      </trkpt>
      <trkpt lat="43.18156" lon="6.49991">
        <ele>491.1</ele>
        <time>2024-02-04T11:40:34Z</time>
      </trkpt>
      <trkpt lat="43.18156" lon="6.49991">
        <ele>491</ele>
        <time>2024-02-04T11:40:35Z</time>
      </trkpt>
      <trkpt lat="43.18156" lon="6.49991">
        <ele>491</ele>
        <time>2024-02-04T11:40:36Z</time>
      </trkpt>
      <trkpt lat="43.18155" lon="6.49991">
        <ele>490.9</ele>
        <time>2024-02-04T11:40:37Z</time>
      </trkpt>
      <trkpt lat="43.18155" lon="6.49992">
        <ele>490.9</ele>
        <time>2024-02-04T11:40:38Z</time>
      </trkpt>
      <trkpt lat="43.18155" lon="6.49992">
        <ele>490.9</ele>
        <time>2024-02-04T11:40:39Z</time>
      </trkpt>
      <trkpt lat="43.18155" lon="6.49992">
        <ele>490.9</ele>
        <time>2024-02-04T11:40:40Z</time>
      </trkpt>
      <trkpt lat="43.18155" lon="6.49992">
        <ele>491</ele>
        <time>2024-02-04T11:40:41Z</time>
      </trkpt>
      <trkpt lat="43.18155" lon="6.49992">
        <ele>491.1</ele>
        <time>2024-02-04T11:40:42Z</time>
      </trkpt>
      <trkpt lat="43.18155" lon="6.49992">
        <ele>491.2</ele>
        <time>2024-02-04T11:40:43Z</time>
      </trkpt>
      <trkpt lat="43.18155" lon="6.49991">
        <ele>491.2</ele>
        <time>2024-02-04T11:40:44Z</time>
      </trkpt>
      <trkpt lat="43.18155" lon="6.49991">
        <ele>491.2</ele>
        <time>2024-02-04T11:40:45Z</time>
      </trkpt>
      <trkpt lat="43.18155" lon="6.49991">
        <ele>491.1</ele>
        <time>2024-02-04T11:40:46Z</time>
      </trkpt>
      <trkpt lat="43.18155" lon="6.49991">
        <ele>491.2</ele>
        <time>2024-02-04T11:40:47Z</time>
      </trkpt>
      <trkpt lat="43.18154" lon="6.49991">
        <ele>491.3</ele>
        <time>2024-02-04T11:40:48Z</time>
      </trkpt>
      <trkpt lat="43.18154" lon="6.49991">
        <ele>491.3</ele>
        <time>2024-02-04T11:40:49Z</time>
      </trkpt>
      <trkpt lat="43.18154" lon="6.49991">
        <ele>491.3</ele>
        <time>2024-02-04T11:40:50Z</time>
      </trkpt>
      <trkpt lat="43.18155" lon="6.49991">
        <ele>491.3</ele>
        <time>2024-02-04T11:40:51Z</time>
      </trkpt>
      <trkpt lat="43.18155" lon="6.49991">
        <ele>491.3</ele>
        <time>2024-02-04T11:40:52Z</time>
      </trkpt>
      <trkpt lat="43.18155" lon="6.49991">
        <ele>491.3</ele>
        <time>2024-02-04T11:40:53Z</time>
      </trkpt>
      <trkpt lat="43.18155" lon="6.49991">
        <ele>491.3</ele>
        <time>2024-02-04T11:40:54Z</time>
      </trkpt>
      <trkpt lat="43.18154" lon="6.49991">
        <ele>491.3</ele>
        <time>2024-02-04T11:40:55Z</time>
      </trkpt>
      <trkpt lat="43.18154" lon="6.49991">
        <ele>491.3</ele>
        <time>2024-02-04T11:40:56Z</time>
      </trkpt>
      <trkpt lat="43.18154" lon="6.49991">
        <ele>491.4</ele>
        <time>2024-02-04T11:40:57Z</time>
      </trkpt>
      <trkpt lat="43.18155" lon="6.49991">
        <ele>491.4</ele>
        <time>2024-02-04T11:40:58Z</time>
      </trkpt>
      <trkpt lat="43.18154" lon="6.49991">
        <ele>491.5</ele>
        <time>2024-02-04T11:40:59Z</time>
      </trkpt>
      <trkpt lat="43.18154" lon="6.49992">
        <ele>491.6</ele>
        <time>2024-02-04T11:41:00Z</time>
      </trkpt>
      <trkpt lat="43.18154" lon="6.49992">
        <ele>491.6</ele>
        <time>2024-02-04T11:41:01Z</time>
      </trkpt>
      <trkpt lat="43.18154" lon="6.49992">
        <ele>491.6</ele>
        <time>2024-02-04T11:41:02Z</time>
      </trkpt>
      <trkpt lat="43.18154" lon="6.49992">
        <ele>491.5</ele>
        <time>2024-02-04T11:41:03Z</time>
      </trkpt>
      <trkpt lat="43.18154" lon="6.49992">
        <ele>491.5</ele>
        <time>2024-02-04T11:41:04Z</time>
      </trkpt>
      <trkpt lat="43.18154" lon="6.49992">
        <ele>491.5</ele>
        <time>2024-02-04T11:41:05Z</time>
      </trkpt>
      <trkpt lat="43.18154" lon="6.49992">
        <ele>491.5</ele>
        <time>2024-02-04T11:41:06Z</time>
      </trkpt>
      <trkpt lat="43.18154" lon="6.49992">
        <ele>491.5</ele>
        <time>2024-02-04T11:41:07Z</time>
      </trkpt>
      <trkpt lat="43.18154" lon="6.49992">
        <ele>491.5</ele>
        <time>2024-02-04T11:41:08Z</time>
      </trkpt>
      <trkpt lat="43.18154" lon="6.49992">
        <ele>491.5</ele>
        <time>2024-02-04T11:41:09Z</time>
      </trkpt>
      <trkpt lat="43.18155" lon="6.49992">
        <ele>491.5</ele>
        <time>2024-02-04T11:41:10Z</time>
      </trkpt>
      <trkpt lat="43.18155" lon="6.49993">
        <ele>491.5</ele>
        <time>2024-02-04T11:41:11Z</time>
      </trkpt>
      <trkpt lat="43.18155" lon="6.49993">
        <ele>491.6</ele>
        <time>2024-02-04T11:41:12Z</time>
      </trkpt>
      <trkpt lat="43.18155" lon="6.49993">
        <ele>491.5</ele>
        <time>2024-02-04T11:41:13Z</time>
      </trkpt>
      <trkpt lat="43.18155" lon="6.49993">
        <ele>491.5</ele>
        <time>2024-02-04T11:41:14Z</time>
      </trkpt>
      <trkpt lat="43.18155" lon="6.49993">
        <ele>491.5</ele>
        <time>2024-02-04T11:41:15Z</time>
      </trkpt>
      <trkpt lat="43.18155" lon="6.49994">
        <ele>491.5</ele>
        <time>2024-02-04T11:41:16Z</time>
      </trkpt>
      <trkpt lat="43.18155" lon="6.49994">
        <ele>491.4</ele>
        <time>2024-02-04T11:41:17Z</time>
      </trkpt>
      <trkpt lat="43.18155" lon="6.49994">
        <ele>491.4</ele>
        <time>2024-02-04T11:41:18Z</time>
      </trkpt>
      <trkpt lat="43.18155" lon="6.49994">
        <ele>491.4</ele>
        <time>2024-02-04T11:41:19Z</time>
      </trkpt>
      <trkpt lat="43.18155" lon="6.49994">
        <ele>491.4</ele>
        <time>2024-02-04T11:41:20Z</time>
      </trkpt>
      <trkpt lat="43.18155" lon="6.49994">
        <ele>491.3</ele>
        <time>2024-02-04T11:41:21Z</time>
      </trkpt>
      <trkpt lat="43.18154" lon="6.49995">
        <ele>491.3</ele>
        <time>2024-02-04T11:41:22Z</time>
      </trkpt>
      <trkpt lat="43.18154" lon="6.49995">
        <ele>491.4</ele>
        <time>2024-02-04T11:41:23Z</time>
      </trkpt>
      <trkpt lat="43.18154" lon="6.49995">
        <ele>491.4</ele>
        <time>2024-02-04T11:41:24Z</time>
      </trkpt>
      <trkpt lat="43.18154" lon="6.49995">
        <ele>491.3</ele>
        <time>2024-02-04T11:41:25Z</time>
      </trkpt>
      <trkpt lat="43.18154" lon="6.49995">
        <ele>491.3</ele>
        <time>2024-02-04T11:41:26Z</time>
      </trkpt>
      <trkpt lat="43.18154" lon="6.49995">
        <ele>491.4</ele>
        <time>2024-02-04T11:41:27Z</time>
      </trkpt>
      <trkpt lat="43.18154" lon="6.49995">
        <ele>491.3</ele>
        <time>2024-02-04T11:41:28Z</time>
      </trkpt>
      <trkpt lat="43.18154" lon="6.49995">
        <ele>491.2</ele>
        <time>2024-02-04T11:41:29Z</time>
      </trkpt>
      <trkpt lat="43.18154" lon="6.49995">
        <ele>491.1</ele>
        <time>2024-02-04T11:41:30Z</time>
      </trkpt>
      <trkpt lat="43.18154" lon="6.49995">
        <ele>491.1</ele>
        <time>2024-02-04T11:41:31Z</time>
      </trkpt>
      <trkpt lat="43.18154" lon="6.49995">
        <ele>491.1</ele>
        <time>2024-02-04T11:41:32Z</time>
      </trkpt>
      <trkpt lat="43.18154" lon="6.49995">
        <ele>491.1</ele>
        <time>2024-02-04T11:41:33Z</time>
      </trkpt>
      <trkpt lat="43.18154" lon="6.49995">
        <ele>491</ele>
        <time>2024-02-04T11:41:34Z</time>
      </trkpt>
      <trkpt lat="43.18153" lon="6.49995">
        <ele>491</ele>
        <time>2024-02-04T11:41:35Z</time>
      </trkpt>
      <trkpt lat="43.18153" lon="6.49995">
        <ele>491</ele>
        <time>2024-02-04T11:41:36Z</time>
      </trkpt>
      <trkpt lat="43.18153" lon="6.49995">
        <ele>491</ele>
        <time>2024-02-04T11:41:37Z</time>
      </trkpt>
      <trkpt lat="43.18153" lon="6.49995">
        <ele>490.9</ele>
        <time>2024-02-04T11:41:38Z</time>
      </trkpt>
      <trkpt lat="43.18153" lon="6.49995">
        <ele>490.9</ele>
        <time>2024-02-04T11:41:39Z</time>
      </trkpt>
      <trkpt lat="43.18153" lon="6.49995">
        <ele>490.9</ele>
        <time>2024-02-04T11:41:40Z</time>
      </trkpt>
      <trkpt lat="43.18153" lon="6.49995">
        <ele>490.9</ele>
        <time>2024-02-04T11:41:41Z</time>
      </trkpt>
      <trkpt lat="43.18153" lon="6.49995">
        <ele>490.9</ele>
        <time>2024-02-04T11:41:42Z</time>
      </trkpt>
      <trkpt lat="43.18153" lon="6.49995">
        <ele>491</ele>
        <time>2024-02-04T11:41:43Z</time>
      </trkpt>
      <trkpt lat="43.18153" lon="6.49996">
        <ele>491.1</ele>
        <time>2024-02-04T11:41:44Z</time>
      </trkpt>
      <trkpt lat="43.18153" lon="6.49995">
        <ele>491</ele>
        <time>2024-02-04T11:41:45Z</time>
      </trkpt>
      <trkpt lat="43.18153" lon="6.49995">
        <ele>490.9</ele>
        <time>2024-02-04T11:41:46Z</time>
      </trkpt>
      <trkpt lat="43.18153" lon="6.49995">
        <ele>471.6</ele>
        <time>2024-02-04T11:41:47Z</time>
      </trkpt>
      <trkpt lat="43.18153" lon="6.49995">
        <ele>475.1</ele>
        <time>2024-02-04T11:41:48Z</time>
      </trkpt>
      <trkpt lat="43.18153" lon="6.49995">
        <ele>477.9</ele>
        <time>2024-02-04T11:41:49Z</time>
      </trkpt>
      <trkpt lat="43.18153" lon="6.49995">
        <ele>480.2</ele>
        <time>2024-02-04T11:41:50Z</time>
      </trkpt>
      <trkpt lat="43.18153" lon="6.49995">
        <ele>482.2</ele>
        <time>2024-02-04T11:41:51Z</time>
      </trkpt>
      <trkpt lat="43.18153" lon="6.49995">
        <ele>483.8</ele>
        <time>2024-02-04T11:41:52Z</time>
      </trkpt>
      <trkpt lat="43.18153" lon="6.49995">
        <ele>485</ele>
        <time>2024-02-04T11:41:53Z</time>
      </trkpt>
      <trkpt lat="43.18153" lon="6.49995">
        <ele>486</ele>
        <time>2024-02-04T11:41:54Z</time>
      </trkpt>
      <trkpt lat="43.18153" lon="6.49995">
        <ele>486.9</ele>
        <time>2024-02-04T11:41:55Z</time>
      </trkpt>
      <trkpt lat="43.18153" lon="6.49995">
        <ele>487.5</ele>
        <time>2024-02-04T11:41:56Z</time>
      </trkpt>
      <trkpt lat="43.18153" lon="6.49995">
        <ele>488.2</ele>
        <time>2024-02-04T11:41:57Z</time>
      </trkpt>
      <trkpt lat="43.18153" lon="6.49995">
        <ele>488.7</ele>
        <time>2024-02-04T11:41:58Z</time>
      </trkpt>
      <trkpt lat="43.18153" lon="6.49995">
        <ele>489.1</ele>
        <time>2024-02-04T11:41:59Z</time>
      </trkpt>
      <trkpt lat="43.18153" lon="6.49995">
        <ele>489.4</ele>
        <time>2024-02-04T11:42:00Z</time>
      </trkpt>
      <trkpt lat="43.18153" lon="6.49995">
        <ele>489.6</ele>
        <time>2024-02-04T11:42:01Z</time>
      </trkpt>
      <trkpt lat="43.18153" lon="6.49995">
        <ele>489.7</ele>
        <time>2024-02-04T11:42:02Z</time>
      </trkpt>
      <trkpt lat="43.18153" lon="6.49995">
        <ele>489.9</ele>
        <time>2024-02-04T11:42:03Z</time>
      </trkpt>
      <trkpt lat="43.18153" lon="6.49995">
        <ele>490</ele>
        <time>2024-02-04T11:42:04Z</time>
      </trkpt>
      <trkpt lat="43.18153" lon="6.49995">
        <ele>490</ele>
        <time>2024-02-04T11:42:05Z</time>
      </trkpt>
      <trkpt lat="43.18153" lon="6.49995">
        <ele>490.2</ele>
        <time>2024-02-04T11:42:06Z</time>
      </trkpt>
      <trkpt lat="43.18153" lon="6.49995">
        <ele>490.2</ele>
        <time>2024-02-04T11:42:07Z</time>
      </trkpt>
      <trkpt lat="43.18153" lon="6.49995">
        <ele>490.2</ele>
        <time>2024-02-04T11:42:08Z</time>
      </trkpt>
      <trkpt lat="43.18153" lon="6.49995">
        <ele>490.3</ele>
        <time>2024-02-04T11:42:09Z</time>
      </trkpt>
      <trkpt lat="43.18153" lon="6.49995">
        <ele>490.3</ele>
        <time>2024-02-04T11:42:10Z</time>
      </trkpt>
      <trkpt lat="43.18153" lon="6.49995">
        <ele>490.4</ele>
        <time>2024-02-04T11:42:11Z</time>
      </trkpt>
      <trkpt lat="43.18153" lon="6.49995">
        <ele>490.4</ele>
        <time>2024-02-04T11:42:12Z</time>
      </trkpt>
      <trkpt lat="43.18153" lon="6.49995">
        <ele>490.5</ele>
        <time>2024-02-04T11:42:13Z</time>
      </trkpt>
      <trkpt lat="43.18153" lon="6.49995">
        <ele>490.5</ele>
        <time>2024-02-04T11:42:14Z</time>
      </trkpt>
      <trkpt lat="43.18153" lon="6.49996">
        <ele>490.5</ele>
        <time>2024-02-04T11:42:15Z</time>
      </trkpt>
      <trkpt lat="43.18153" lon="6.49996">
        <ele>490.5</ele>
        <time>2024-02-04T11:42:16Z</time>
      </trkpt>
      <trkpt lat="43.18153" lon="6.49996">
        <ele>490.5</ele>
        <time>2024-02-04T11:42:17Z</time>
      </trkpt>
      <trkpt lat="43.18153" lon="6.49996">
        <ele>490.5</ele>
        <time>2024-02-04T11:42:18Z</time>
      </trkpt>
      <trkpt lat="43.18153" lon="6.49996">
        <ele>490.5</ele>
        <time>2024-02-04T11:42:19Z</time>
      </trkpt>
      <trkpt lat="43.18153" lon="6.49996">
        <ele>490.5</ele>
        <time>2024-02-04T11:42:20Z</time>
      </trkpt>
      <trkpt lat="43.18153" lon="6.49995">
        <ele>490.5</ele>
        <time>2024-02-04T11:42:21Z</time>
      </trkpt>
      <trkpt lat="43.18153" lon="6.49995">
        <ele>490.6</ele>
        <time>2024-02-04T11:42:22Z</time>
      </trkpt>
      <trkpt lat="43.18153" lon="6.49996">
        <ele>490.6</ele>
        <time>2024-02-04T11:42:23Z</time>
      </trkpt>
      <trkpt lat="43.18153" lon="6.49996">
        <ele>490.6</ele>
        <time>2024-02-04T11:42:24Z</time>
      </trkpt>
      <trkpt lat="43.18153" lon="6.49996">
        <ele>490.6</ele>
        <time>2024-02-04T11:42:25Z</time>
      </trkpt>
      <trkpt lat="43.18153" lon="6.49996">
        <ele>490.6</ele>
        <time>2024-02-04T11:42:26Z</time>
      </trkpt>
      <trkpt lat="43.18153" lon="6.49996">
        <ele>490.6</ele>
        <time>2024-02-04T11:42:27Z</time>
      </trkpt>
      <trkpt lat="43.18153" lon="6.49996">
        <ele>490.6</ele>
        <time>2024-02-04T11:42:28Z</time>
      </trkpt>
      <trkpt lat="43.18153" lon="6.49996">
        <ele>490.6</ele>
        <time>2024-02-04T11:42:29Z</time>
      </trkpt>
      <trkpt lat="43.18153" lon="6.49996">
        <ele>490.6</ele>
        <time>2024-02-04T11:42:30Z</time>
      </trkpt>
      <trkpt lat="43.18153" lon="6.49996">
        <ele>490.6</ele>
        <time>2024-02-04T11:42:31Z</time>
      </trkpt>
      <trkpt lat="43.18153" lon="6.49996">
        <ele>490.6</ele>
        <time>2024-02-04T11:42:32Z</time>
      </trkpt>
      <trkpt lat="43.18153" lon="6.49996">
        <ele>490.5</ele>
        <time>2024-02-04T11:42:33Z</time>
      </trkpt>
      <trkpt lat="43.18153" lon="6.49995">
        <ele>490.5</ele>
        <time>2024-02-04T11:42:34Z</time>
      </trkpt>
      <trkpt lat="43.18153" lon="6.49996">
        <ele>490.4</ele>
        <time>2024-02-04T11:42:35Z</time>
      </trkpt>
      <trkpt lat="43.18153" lon="6.49996">
        <ele>490.5</ele>
        <time>2024-02-04T11:42:36Z</time>
      </trkpt>
      <trkpt lat="43.18153" lon="6.49996">
        <ele>490.5</ele>
        <time>2024-02-04T11:42:37Z</time>
      </trkpt>
      <trkpt lat="43.18153" lon="6.49995">
        <ele>490.5</ele>
        <time>2024-02-04T11:42:38Z</time>
      </trkpt>
      <trkpt lat="43.18153" lon="6.49995">
        <ele>490.5</ele>
        <time>2024-02-04T11:42:39Z</time>
      </trkpt>
      <trkpt lat="43.18153" lon="6.49995">
        <ele>490.5</ele>
        <time>2024-02-04T11:42:40Z</time>
      </trkpt>
      <trkpt lat="43.18153" lon="6.49995">
        <ele>490.5</ele>
        <time>2024-02-04T11:42:41Z</time>
      </trkpt>
      <trkpt lat="43.18153" lon="6.49995">
        <ele>490.5</ele>
        <time>2024-02-04T11:42:42Z</time>
      </trkpt>
      <trkpt lat="43.18153" lon="6.49995">
        <ele>490.5</ele>
        <time>2024-02-04T11:42:43Z</time>
      </trkpt>
      <trkpt lat="43.18153" lon="6.49995">
        <ele>490.5</ele>
        <time>2024-02-04T11:42:44Z</time>
      </trkpt>
      <trkpt lat="43.18153" lon="6.49995">
        <ele>490.4</ele>
        <time>2024-02-04T11:42:45Z</time>
      </trkpt>
      <trkpt lat="43.18153" lon="6.49995">
        <ele>490.4</ele>
        <time>2024-02-04T11:42:46Z</time>
      </trkpt>
      <trkpt lat="43.18153" lon="6.49995">
        <ele>490.4</ele>
        <time>2024-02-04T11:42:47Z</time>
      </trkpt>
      <trkpt lat="43.18153" lon="6.49995">
        <ele>490.4</ele>
        <time>2024-02-04T11:42:48Z</time>
      </trkpt>
      <trkpt lat="43.18153" lon="6.49995">
        <ele>490.5</ele>
        <time>2024-02-04T11:42:49Z</time>
      </trkpt>
      <trkpt lat="43.18153" lon="6.49995">
        <ele>490.5</ele>
        <time>2024-02-04T11:42:50Z</time>
      </trkpt>
      <trkpt lat="43.18153" lon="6.49995">
        <ele>490.5</ele>
        <time>2024-02-04T11:42:51Z</time>
      </trkpt>
      <trkpt lat="43.18153" lon="6.49996">
        <ele>490.5</ele>
        <time>2024-02-04T11:42:52Z</time>
      </trkpt>
      <trkpt lat="43.18154" lon="6.49996">
        <ele>490.5</ele>
        <time>2024-02-04T11:42:53Z</time>
      </trkpt>
      <trkpt lat="43.18154" lon="6.49996">
        <ele>490.5</ele>
        <time>2024-02-04T11:42:54Z</time>
      </trkpt>
      <trkpt lat="43.18154" lon="6.49996">
        <ele>490.5</ele>
        <time>2024-02-04T11:42:55Z</time>
      </trkpt>
      <trkpt lat="43.18154" lon="6.49996">
        <ele>490.5</ele>
        <time>2024-02-04T11:42:56Z</time>
      </trkpt>
      <trkpt lat="43.18154" lon="6.49996">
        <ele>490.5</ele>
        <time>2024-02-04T11:42:57Z</time>
      </trkpt>
      <trkpt lat="43.18154" lon="6.49997">
        <ele>490.5</ele>
        <time>2024-02-04T11:42:58Z</time>
      </trkpt>
      <trkpt lat="43.18154" lon="6.49997">
        <ele>490.4</ele>
        <time>2024-02-04T11:42:59Z</time>
      </trkpt>
      <trkpt lat="43.18154" lon="6.49997">
        <ele>490.4</ele>
        <time>2024-02-04T11:43:00Z</time>
      </trkpt>
      <trkpt lat="43.18154" lon="6.49997">
        <ele>490.5</ele>
        <time>2024-02-04T11:43:01Z</time>
      </trkpt>
      <trkpt lat="43.18154" lon="6.49997">
        <ele>490.4</ele>
        <time>2024-02-04T11:43:02Z</time>
      </trkpt>
      <trkpt lat="43.18154" lon="6.49997">
        <ele>490.4</ele>
        <time>2024-02-04T11:43:03Z</time>
      </trkpt>
      <trkpt lat="43.18154" lon="6.49997">
        <ele>490.4</ele>
        <time>2024-02-04T11:43:04Z</time>
      </trkpt>
      <trkpt lat="43.18154" lon="6.49997">
        <ele>490.4</ele>
        <time>2024-02-04T11:43:05Z</time>
      </trkpt>
      <trkpt lat="43.18154" lon="6.49997">
        <ele>490.4</ele>
        <time>2024-02-04T11:43:06Z</time>
      </trkpt>
      <trkpt lat="43.18154" lon="6.49997">
        <ele>490.4</ele>
        <time>2024-02-04T11:43:07Z</time>
      </trkpt>
      <trkpt lat="43.18154" lon="6.49997">
        <ele>490.3</ele>
        <time>2024-02-04T11:43:08Z</time>
      </trkpt>
      <trkpt lat="43.18154" lon="6.49997">
        <ele>490.3</ele>
        <time>2024-02-04T11:43:09Z</time>
      </trkpt>
      <trkpt lat="43.18154" lon="6.49997">
        <ele>490.4</ele>
        <time>2024-02-04T11:43:10Z</time>
      </trkpt>
      <trkpt lat="43.18154" lon="6.49998">
        <ele>490.4</ele>
        <time>2024-02-04T11:43:11Z</time>
      </trkpt>
      <trkpt lat="43.18154" lon="6.49998">
        <ele>490.5</ele>
        <time>2024-02-04T11:43:12Z</time>
      </trkpt>
      <trkpt lat="43.18154" lon="6.49998">
        <ele>490.5</ele>
        <time>2024-02-04T11:43:13Z</time>
      </trkpt>
      <trkpt lat="43.18154" lon="6.49998">
        <ele>490.4</ele>
        <time>2024-02-04T11:43:14Z</time>
      </trkpt>
      <trkpt lat="43.18154" lon="6.49998">
        <ele>490.4</ele>
        <time>2024-02-04T11:43:15Z</time>
      </trkpt>
      <trkpt lat="43.18154" lon="6.49998">
        <ele>490.4</ele>
        <time>2024-02-04T11:43:16Z</time>
      </trkpt>
      <trkpt lat="43.18154" lon="6.49998">
        <ele>490.4</ele>
        <time>2024-02-04T11:43:17Z</time>
      </trkpt>
      <trkpt lat="43.18154" lon="6.49998">
        <ele>490.4</ele>
        <time>2024-02-04T11:43:18Z</time>
      </trkpt>
      <trkpt lat="43.18154" lon="6.49998">
        <ele>490.4</ele>
        <time>2024-02-04T11:43:19Z</time>
      </trkpt>
      <trkpt lat="43.18154" lon="6.49998">
        <ele>490.4</ele>
        <time>2024-02-04T11:43:20Z</time>
      </trkpt>
      <trkpt lat="43.18154" lon="6.49998">
        <ele>490.4</ele>
        <time>2024-02-04T11:43:21Z</time>
      </trkpt>
      <trkpt lat="43.18154" lon="6.49998">
        <ele>490.4</ele>
        <time>2024-02-04T11:43:22Z</time>
      </trkpt>
      <trkpt lat="43.18154" lon="6.49998">
        <ele>490.4</ele>
        <time>2024-02-04T11:43:23Z</time>
      </trkpt>
      <trkpt lat="43.18154" lon="6.49999">
        <ele>490.4</ele>
        <time>2024-02-04T11:43:24Z</time>
      </trkpt>
      <trkpt lat="43.18154" lon="6.49999">
        <ele>490.4</ele>
        <time>2024-02-04T11:43:25Z</time>
      </trkpt>
      <trkpt lat="43.18154" lon="6.49999">
        <ele>490.3</ele>
        <time>2024-02-04T11:43:26Z</time>
      </trkpt>
      <trkpt lat="43.18154" lon="6.49999">
        <ele>490.2</ele>
        <time>2024-02-04T11:43:27Z</time>
      </trkpt>
      <trkpt lat="43.18154" lon="6.49999">
        <ele>490.3</ele>
        <time>2024-02-04T11:43:28Z</time>
      </trkpt>
      <trkpt lat="43.18154" lon="6.49999">
        <ele>490.3</ele>
        <time>2024-02-04T11:43:29Z</time>
      </trkpt>
      <trkpt lat="43.18154" lon="6.49999">
        <ele>490.3</ele>
        <time>2024-02-04T11:43:30Z</time>
      </trkpt>
      <trkpt lat="43.18154" lon="6.49999">
        <ele>490.4</ele>
        <time>2024-02-04T11:43:31Z</time>
      </trkpt>
      <trkpt lat="43.18154" lon="6.49999">
        <ele>490.4</ele>
        <time>2024-02-04T11:43:32Z</time>
      </trkpt>
      <trkpt lat="43.18154" lon="6.49999">
        <ele>490.4</ele>
        <time>2024-02-04T11:43:33Z</time>
      </trkpt>
      <trkpt lat="43.18154" lon="6.49999">
        <ele>490.4</ele>
        <time>2024-02-04T11:43:34Z</time>
      </trkpt>
      <trkpt lat="43.18154" lon="6.49999">
        <ele>490.4</ele>
        <time>2024-02-04T11:43:35Z</time>
      </trkpt>
      <trkpt lat="43.18154" lon="6.49999">
        <ele>490.4</ele>
        <time>2024-02-04T11:43:36Z</time>
      </trkpt>
      <trkpt lat="43.18154" lon="6.49999">
        <ele>490.4</ele>
        <time>2024-02-04T11:43:37Z</time>
      </trkpt>
      <trkpt lat="43.18154" lon="6.49999">
        <ele>490.5</ele>
        <time>2024-02-04T11:43:38Z</time>
      </trkpt>
      <trkpt lat="43.18154" lon="6.49999">
        <ele>490.5</ele>
        <time>2024-02-04T11:43:39Z</time>
      </trkpt>
      <trkpt lat="43.18154" lon="6.49999">
        <ele>490.6</ele>
        <time>2024-02-04T11:43:40Z</time>
      </trkpt>
      <trkpt lat="43.18154" lon="6.49999">
        <ele>490.6</ele>
        <time>2024-02-04T11:43:41Z</time>
      </trkpt>
      <trkpt lat="43.18154" lon="6.49999">
        <ele>490.6</ele>
        <time>2024-02-04T11:43:42Z</time>
      </trkpt>
      <trkpt lat="43.18154" lon="6.49999">
        <ele>490.7</ele>
        <time>2024-02-04T11:43:43Z</time>
      </trkpt>
      <trkpt lat="43.18154" lon="6.49999">
        <ele>490.7</ele>
        <time>2024-02-04T11:43:44Z</time>
      </trkpt>
      <trkpt lat="43.18154" lon="6.49999">
        <ele>490.6</ele>
        <time>2024-02-04T11:43:45Z</time>
      </trkpt>
      <trkpt lat="43.18154" lon="6.49999">
        <ele>490.5</ele>
        <time>2024-02-04T11:43:46Z</time>
      </trkpt>
      <trkpt lat="43.18154" lon="6.49999">
        <ele>490.5</ele>
        <time>2024-02-04T11:43:47Z</time>
      </trkpt>
      <trkpt lat="43.18154" lon="6.49999">
        <ele>490.5</ele>
        <time>2024-02-04T11:43:48Z</time>
      </trkpt>
      <trkpt lat="43.18154" lon="6.49999">
        <ele>490.5</ele>
        <time>2024-02-04T11:43:49Z</time>
      </trkpt>
      <trkpt lat="43.18153" lon="6.49999">
        <ele>490.5</ele>
        <time>2024-02-04T11:43:50Z</time>
      </trkpt>
      <trkpt lat="43.18153" lon="6.49999">
        <ele>490.4</ele>
        <time>2024-02-04T11:43:51Z</time>
      </trkpt>
      <trkpt lat="43.18153" lon="6.49999">
        <ele>490.4</ele>
        <time>2024-02-04T11:43:52Z</time>
      </trkpt>
      <trkpt lat="43.18153" lon="6.49999">
        <ele>490.4</ele>
        <time>2024-02-04T11:43:53Z</time>
      </trkpt>
      <trkpt lat="43.18153" lon="6.49999">
        <ele>490.4</ele>
        <time>2024-02-04T11:43:54Z</time>
      </trkpt>
      <trkpt lat="43.18153" lon="6.49999">
        <ele>490.4</ele>
        <time>2024-02-04T11:43:55Z</time>
      </trkpt>
      <trkpt lat="43.18153" lon="6.49999">
        <ele>490.5</ele>
        <time>2024-02-04T11:43:56Z</time>
      </trkpt>
      <trkpt lat="43.18153" lon="6.49999">
        <ele>490.5</ele>
        <time>2024-02-04T11:43:57Z</time>
      </trkpt>
      <trkpt lat="43.18153" lon="6.49999">
        <ele>490.5</ele>
        <time>2024-02-04T11:43:58Z</time>
      </trkpt>
      <trkpt lat="43.18153" lon="6.49999">
        <ele>490.6</ele>
        <time>2024-02-04T11:43:59Z</time>
      </trkpt>
      <trkpt lat="43.18153" lon="6.49999">
        <ele>490.5</ele>
        <time>2024-02-04T11:44:00Z</time>
      </trkpt>
      <trkpt lat="43.18153" lon="6.49999">
        <ele>490.5</ele>
        <time>2024-02-04T11:44:01Z</time>
      </trkpt>
      <trkpt lat="43.18153" lon="6.49999">
        <ele>490.5</ele>
        <time>2024-02-04T11:44:02Z</time>
      </trkpt>
      <trkpt lat="43.18154" lon="6.49999">
        <ele>490.5</ele>
        <time>2024-02-04T11:44:03Z</time>
      </trkpt>
      <trkpt lat="43.18154" lon="6.49999">
        <ele>490.5</ele>
        <time>2024-02-04T11:44:04Z</time>
      </trkpt>
      <trkpt lat="43.18154" lon="6.49999">
        <ele>490.5</ele>
        <time>2024-02-04T11:44:05Z</time>
      </trkpt>
      <trkpt lat="43.18154" lon="6.49999">
        <ele>490.7</ele>
        <time>2024-02-04T11:44:06Z</time>
      </trkpt>
      <trkpt lat="43.18154" lon="6.49999">
        <ele>490.8</ele>
        <time>2024-02-04T11:44:07Z</time>
      </trkpt>
      <trkpt lat="43.18154" lon="6.49999">
        <ele>490.7</ele>
        <time>2024-02-04T11:44:08Z</time>
      </trkpt>
      <trkpt lat="43.18154" lon="6.49999">
        <ele>490.8</ele>
        <time>2024-02-04T11:44:09Z</time>
      </trkpt>
      <trkpt lat="43.18154" lon="6.49999">
        <ele>490.8</ele>
        <time>2024-02-04T11:44:10Z</time>
      </trkpt>
      <trkpt lat="43.18154" lon="6.49999">
        <ele>490.7</ele>
        <time>2024-02-04T11:44:11Z</time>
      </trkpt>
      <trkpt lat="43.18154" lon="6.49999">
        <ele>490.8</ele>
        <time>2024-02-04T11:44:12Z</time>
      </trkpt>
      <trkpt lat="43.18154" lon="6.49999">
        <ele>490.8</ele>
        <time>2024-02-04T11:44:13Z</time>
      </trkpt>
      <trkpt lat="43.18154" lon="6.49999">
        <ele>490.7</ele>
        <time>2024-02-04T11:44:14Z</time>
      </trkpt>
      <trkpt lat="43.18154" lon="6.49999">
        <ele>490.7</ele>
        <time>2024-02-04T11:44:15Z</time>
      </trkpt>
      <trkpt lat="43.18154" lon="6.5">
        <ele>490.6</ele>
        <time>2024-02-04T11:44:16Z</time>
      </trkpt>
      <trkpt lat="43.18154" lon="6.5">
        <ele>490.6</ele>
        <time>2024-02-04T11:44:17Z</time>
      </trkpt>
      <trkpt lat="43.18154" lon="6.5">
        <ele>490.5</ele>
        <time>2024-02-04T11:44:18Z</time>
      </trkpt>
      <trkpt lat="43.18154" lon="6.5">
        <ele>490.5</ele>
        <time>2024-02-04T11:44:19Z</time>
      </trkpt>
      <trkpt lat="43.18154" lon="6.5">
        <ele>490.5</ele>
        <time>2024-02-04T11:44:20Z</time>
      </trkpt>
      <trkpt lat="43.18154" lon="6.5">
        <ele>490.5</ele>
        <time>2024-02-04T11:44:21Z</time>
      </trkpt>
      <trkpt lat="43.18154" lon="6.5">
        <ele>490.5</ele>
        <time>2024-02-04T11:44:22Z</time>
      </trkpt>
      <trkpt lat="43.18154" lon="6.5">
        <ele>490.5</ele>
        <time>2024-02-04T11:44:23Z</time>
      </trkpt>
      <trkpt lat="43.18154" lon="6.5">
        <ele>490.6</ele>
        <time>2024-02-04T11:44:24Z</time>
      </trkpt>
      <trkpt lat="43.18154" lon="6.5">
        <ele>490.6</ele>
        <time>2024-02-04T11:44:25Z</time>
      </trkpt>
      <trkpt lat="43.18154" lon="6.5">
        <ele>490.6</ele>
        <time>2024-02-04T11:44:26Z</time>
      </trkpt>
      <trkpt lat="43.18154" lon="6.5">
        <ele>490.7</ele>
        <time>2024-02-04T11:44:27Z</time>
      </trkpt>
      <trkpt lat="43.18154" lon="6.5">
        <ele>490.8</ele>
        <time>2024-02-04T11:44:28Z</time>
      </trkpt>
      <trkpt lat="43.18154" lon="6.5">
        <ele>490.9</ele>
        <time>2024-02-04T11:44:29Z</time>
      </trkpt>
      <trkpt lat="43.18154" lon="6.5">
        <ele>491</ele>
        <time>2024-02-04T11:44:30Z</time>
      </trkpt>
      <trkpt lat="43.18154" lon="6.5">
        <ele>491</ele>
        <time>2024-02-04T11:44:31Z</time>
      </trkpt>
      <trkpt lat="43.18155" lon="6.5">
        <ele>491</ele>
        <time>2024-02-04T11:44:32Z</time>
      </trkpt>
      <trkpt lat="43.18155" lon="6.5">
        <ele>491</ele>
        <time>2024-02-04T11:44:33Z</time>
      </trkpt>
      <trkpt lat="43.18155" lon="6.5">
        <ele>491</ele>
        <time>2024-02-04T11:44:34Z</time>
      </trkpt>
      <trkpt lat="43.18155" lon="6.5">
        <ele>491</ele>
        <time>2024-02-04T11:44:35Z</time>
      </trkpt>
      <trkpt lat="43.18155" lon="6.5">
        <ele>491</ele>
        <time>2024-02-04T11:44:36Z</time>
      </trkpt>
      <trkpt lat="43.18155" lon="6.5">
        <ele>491</ele>
        <time>2024-02-04T11:44:37Z</time>
      </trkpt>
      <trkpt lat="43.18155" lon="6.5">
        <ele>491</ele>
        <time>2024-02-04T11:44:38Z</time>
      </trkpt>
      <trkpt lat="43.18155" lon="6.5">
        <ele>491</ele>
        <time>2024-02-04T11:44:39Z</time>
      </trkpt>
      <trkpt lat="43.18155" lon="6.5">
        <ele>491</ele>
        <time>2024-02-04T11:44:40Z</time>
      </trkpt>
      <trkpt lat="43.18155" lon="6.5">
        <ele>491</ele>
        <time>2024-02-04T11:44:41Z</time>
      </trkpt>
      <trkpt lat="43.18155" lon="6.5">
        <ele>490.9</ele>
        <time>2024-02-04T11:44:42Z</time>
      </trkpt>
      <trkpt lat="43.18155" lon="6.5">
        <ele>490.9</ele>
        <time>2024-02-04T11:44:43Z</time>
      </trkpt>
      <trkpt lat="43.18155" lon="6.5">
        <ele>491</ele>
        <time>2024-02-04T11:44:44Z</time>
      </trkpt>
      <trkpt lat="43.18155" lon="6.5">
        <ele>491</ele>
        <time>2024-02-04T11:44:45Z</time>
      </trkpt>
      <trkpt lat="43.18155" lon="6.5">
        <ele>491</ele>
        <time>2024-02-04T11:44:46Z</time>
      </trkpt>
      <trkpt lat="43.18155" lon="6.49999">
        <ele>491</ele>
        <time>2024-02-04T11:44:47Z</time>
      </trkpt>
      <trkpt lat="43.18155" lon="6.49999">
        <ele>491</ele>
        <time>2024-02-04T11:44:48Z</time>
      </trkpt>
      <trkpt lat="43.18155" lon="6.49999">
        <ele>491</ele>
        <time>2024-02-04T11:44:49Z</time>
      </trkpt>
      <trkpt lat="43.18155" lon="6.49999">
        <ele>491</ele>
        <time>2024-02-04T11:44:50Z</time>
      </trkpt>
      <trkpt lat="43.18155" lon="6.49999">
        <ele>490.9</ele>
        <time>2024-02-04T11:44:51Z</time>
      </trkpt>
      <trkpt lat="43.18155" lon="6.49999">
        <ele>490.8</ele>
        <time>2024-02-04T11:44:52Z</time>
      </trkpt>
      <trkpt lat="43.18155" lon="6.49999">
        <ele>490.8</ele>
        <time>2024-02-04T11:44:53Z</time>
      </trkpt>
      <trkpt lat="43.18155" lon="6.49999">
        <ele>490.8</ele>
        <time>2024-02-04T11:44:54Z</time>
      </trkpt>
      <trkpt lat="43.18155" lon="6.49999">
        <ele>490.8</ele>
        <time>2024-02-04T11:44:55Z</time>
      </trkpt>
      <trkpt lat="43.18155" lon="6.49999">
        <ele>490.8</ele>
        <time>2024-02-04T11:44:56Z</time>
      </trkpt>
      <trkpt lat="43.18155" lon="6.49999">
        <ele>490.9</ele>
        <time>2024-02-04T11:44:57Z</time>
      </trkpt>
      <trkpt lat="43.18155" lon="6.49999">
        <ele>490.9</ele>
        <time>2024-02-04T11:44:58Z</time>
      </trkpt>
      <trkpt lat="43.18155" lon="6.49999">
        <ele>490.9</ele>
        <time>2024-02-04T11:44:59Z</time>
      </trkpt>
      <trkpt lat="43.18155" lon="6.49999">
        <ele>490.9</ele>
        <time>2024-02-04T11:45:00Z</time>
      </trkpt>
      <trkpt lat="43.18155" lon="6.49999">
        <ele>490.9</ele>
        <time>2024-02-04T11:45:01Z</time>
      </trkpt>
      <trkpt lat="43.18155" lon="6.49999">
        <ele>490.9</ele>
        <time>2024-02-04T11:45:02Z</time>
      </trkpt>
      <trkpt lat="43.18155" lon="6.49999">
        <ele>490.9</ele>
        <time>2024-02-04T11:45:03Z</time>
      </trkpt>
      <trkpt lat="43.18155" lon="6.49999">
        <ele>490.9</ele>
        <time>2024-02-04T11:45:04Z</time>
      </trkpt>
      <trkpt lat="43.18155" lon="6.49999">
        <ele>490.8</ele>
        <time>2024-02-04T11:45:05Z</time>
      </trkpt>
      <trkpt lat="43.18155" lon="6.49999">
        <ele>490.9</ele>
        <time>2024-02-04T11:45:06Z</time>
      </trkpt>
      <trkpt lat="43.18155" lon="6.49999">
        <ele>491</ele>
        <time>2024-02-04T11:45:07Z</time>
      </trkpt>
      <trkpt lat="43.18155" lon="6.49999">
        <ele>491</ele>
        <time>2024-02-04T11:45:08Z</time>
      </trkpt>
      <trkpt lat="43.18155" lon="6.49999">
        <ele>490.9</ele>
        <time>2024-02-04T11:45:09Z</time>
      </trkpt>
      <trkpt lat="43.18155" lon="6.49999">
        <ele>490.9</ele>
        <time>2024-02-04T11:45:10Z</time>
      </trkpt>
      <trkpt lat="43.18155" lon="6.49999">
        <ele>491</ele>
        <time>2024-02-04T11:45:11Z</time>
      </trkpt>
      <trkpt lat="43.18155" lon="6.49999">
        <ele>491</ele>
        <time>2024-02-04T11:45:12Z</time>
      </trkpt>
      <trkpt lat="43.18155" lon="6.49999">
        <ele>491</ele>
        <time>2024-02-04T11:45:13Z</time>
      </trkpt>
      <trkpt lat="43.18154" lon="6.49999">
        <ele>491</ele>
        <time>2024-02-04T11:45:14Z</time>
      </trkpt>
      <trkpt lat="43.18154" lon="6.49999">
        <ele>491</ele>
        <time>2024-02-04T11:45:15Z</time>
      </trkpt>
      <trkpt lat="43.18154" lon="6.49999">
        <ele>491</ele>
        <time>2024-02-04T11:45:16Z</time>
      </trkpt>
      <trkpt lat="43.18154" lon="6.49999">
        <ele>491.1</ele>
        <time>2024-02-04T11:45:17Z</time>
      </trkpt>
      <trkpt lat="43.18154" lon="6.49999">
        <ele>491.2</ele>
        <time>2024-02-04T11:45:18Z</time>
      </trkpt>
      <trkpt lat="43.18154" lon="6.49999">
        <ele>491.2</ele>
        <time>2024-02-04T11:45:19Z</time>
      </trkpt>
      <trkpt lat="43.18154" lon="6.49999">
        <ele>491.1</ele>
        <time>2024-02-04T11:45:20Z</time>
      </trkpt>
      <trkpt lat="43.18154" lon="6.49999">
        <ele>491.1</ele>
        <time>2024-02-04T11:45:21Z</time>
      </trkpt>
      <trkpt lat="43.18154" lon="6.49999">
        <ele>491</ele>
        <time>2024-02-04T11:45:22Z</time>
      </trkpt>
      <trkpt lat="43.18154" lon="6.49999">
        <ele>491</ele>
        <time>2024-02-04T11:45:23Z</time>
      </trkpt>
      <trkpt lat="43.18154" lon="6.49999">
        <ele>491</ele>
        <time>2024-02-04T11:45:24Z</time>
      </trkpt>
      <trkpt lat="43.18154" lon="6.49999">
        <ele>491</ele>
        <time>2024-02-04T11:45:25Z</time>
      </trkpt>
      <trkpt lat="43.18154" lon="6.49999">
        <ele>490.9</ele>
        <time>2024-02-04T11:45:26Z</time>
      </trkpt>
      <trkpt lat="43.18154" lon="6.49999">
        <ele>490.9</ele>
        <time>2024-02-04T11:45:27Z</time>
      </trkpt>
      <trkpt lat="43.18154" lon="6.49999">
        <ele>490.9</ele>
        <time>2024-02-04T11:45:28Z</time>
      </trkpt>
      <trkpt lat="43.18154" lon="6.49999">
        <ele>490.8</ele>
        <time>2024-02-04T11:45:29Z</time>
      </trkpt>
      <trkpt lat="43.18154" lon="6.49999">
        <ele>490.8</ele>
        <time>2024-02-04T11:45:30Z</time>
      </trkpt>
      <trkpt lat="43.18154" lon="6.49999">
        <ele>490.8</ele>
        <time>2024-02-04T11:45:31Z</time>
      </trkpt>
      <trkpt lat="43.18154" lon="6.49999">
        <ele>490.9</ele>
        <time>2024-02-04T11:45:32Z</time>
      </trkpt>
      <trkpt lat="43.18154" lon="6.49999">
        <ele>490.9</ele>
        <time>2024-02-04T11:45:33Z</time>
      </trkpt>
      <trkpt lat="43.18154" lon="6.49999">
        <ele>490.9</ele>
        <time>2024-02-04T11:45:34Z</time>
      </trkpt>
      <trkpt lat="43.18154" lon="6.49999">
        <ele>490.9</ele>
        <time>2024-02-04T11:45:35Z</time>
      </trkpt>
      <trkpt lat="43.18154" lon="6.49999">
        <ele>490.9</ele>
        <time>2024-02-04T11:45:36Z</time>
      </trkpt>
      <trkpt lat="43.18154" lon="6.49999">
        <ele>490.9</ele>
        <time>2024-02-04T11:45:37Z</time>
      </trkpt>
      <trkpt lat="43.18154" lon="6.49999">
        <ele>490.8</ele>
        <time>2024-02-04T11:45:38Z</time>
      </trkpt>
      <trkpt lat="43.18154" lon="6.49999">
        <ele>490.9</ele>
        <time>2024-02-04T11:45:39Z</time>
      </trkpt>
      <trkpt lat="43.18154" lon="6.49999">
        <ele>490.9</ele>
        <time>2024-02-04T11:45:40Z</time>
      </trkpt>
      <trkpt lat="43.18154" lon="6.49999">
        <ele>490.9</ele>
        <time>2024-02-04T11:45:41Z</time>
      </trkpt>
      <trkpt lat="43.18153" lon="6.49999">
        <ele>491</ele>
        <time>2024-02-04T11:45:42Z</time>
      </trkpt>
      <trkpt lat="43.18153" lon="6.49999">
        <ele>491</ele>
        <time>2024-02-04T11:45:43Z</time>
      </trkpt>
      <trkpt lat="43.18153" lon="6.49999">
        <ele>491</ele>
        <time>2024-02-04T11:45:44Z</time>
      </trkpt>
      <trkpt lat="43.18153" lon="6.49999">
        <ele>491</ele>
        <time>2024-02-04T11:45:45Z</time>
      </trkpt>
      <trkpt lat="43.18153" lon="6.49999">
        <ele>491</ele>
        <time>2024-02-04T11:45:46Z</time>
      </trkpt>
      <trkpt lat="43.18153" lon="6.49999">
        <ele>491.1</ele>
        <time>2024-02-04T11:45:47Z</time>
      </trkpt>
      <trkpt lat="43.18153" lon="6.49999">
        <ele>491</ele>
        <time>2024-02-04T11:45:48Z</time>
      </trkpt>
      <trkpt lat="43.18153" lon="6.49999">
        <ele>491</ele>
        <time>2024-02-04T11:45:49Z</time>
      </trkpt>
      <trkpt lat="43.18153" lon="6.49999">
        <ele>491</ele>
        <time>2024-02-04T11:45:50Z</time>
      </trkpt>
      <trkpt lat="43.18153" lon="6.49999">
        <ele>491</ele>
        <time>2024-02-04T11:45:51Z</time>
      </trkpt>
      <trkpt lat="43.18153" lon="6.49999">
        <ele>490.9</ele>
        <time>2024-02-04T11:45:52Z</time>
      </trkpt>
      <trkpt lat="43.18153" lon="6.49999">
        <ele>490.9</ele>
        <time>2024-02-04T11:45:53Z</time>
      </trkpt>
      <trkpt lat="43.18153" lon="6.49999">
        <ele>491</ele>
        <time>2024-02-04T11:45:54Z</time>
      </trkpt>
      <trkpt lat="43.18153" lon="6.49999">
        <ele>491</ele>
        <time>2024-02-04T11:45:55Z</time>
      </trkpt>
      <trkpt lat="43.18153" lon="6.49999">
        <ele>491</ele>
        <time>2024-02-04T11:45:56Z</time>
      </trkpt>
      <trkpt lat="43.18153" lon="6.49999">
        <ele>490.9</ele>
        <time>2024-02-04T11:45:57Z</time>
      </trkpt>
      <trkpt lat="43.18153" lon="6.49999">
        <ele>491</ele>
        <time>2024-02-04T11:45:58Z</time>
      </trkpt>
      <trkpt lat="43.18153" lon="6.49999">
        <ele>490.9</ele>
        <time>2024-02-04T11:45:59Z</time>
      </trkpt>
      <trkpt lat="43.18153" lon="6.49999">
        <ele>491</ele>
        <time>2024-02-04T11:46:00Z</time>
      </trkpt>
      <trkpt lat="43.18153" lon="6.49999">
        <ele>491</ele>
        <time>2024-02-04T11:46:01Z</time>
      </trkpt>
      <trkpt lat="43.18153" lon="6.49999">
        <ele>491</ele>
        <time>2024-02-04T11:46:02Z</time>
      </trkpt>
      <trkpt lat="43.18153" lon="6.49999">
        <ele>490.9</ele>
        <time>2024-02-04T11:46:03Z</time>
      </trkpt>
      <trkpt lat="43.18153" lon="6.49999">
        <ele>490.9</ele>
        <time>2024-02-04T11:46:04Z</time>
      </trkpt>
      <trkpt lat="43.18153" lon="6.49999">
        <ele>491</ele>
        <time>2024-02-04T11:46:05Z</time>
      </trkpt>
      <trkpt lat="43.18153" lon="6.49999">
        <ele>491</ele>
        <time>2024-02-04T11:46:06Z</time>
      </trkpt>
      <trkpt lat="43.18153" lon="6.49999">
        <ele>491</ele>
        <time>2024-02-04T11:46:07Z</time>
      </trkpt>
      <trkpt lat="43.18153" lon="6.49999">
        <ele>491</ele>
        <time>2024-02-04T11:46:08Z</time>
      </trkpt>
      <trkpt lat="43.18153" lon="6.49999">
        <ele>491</ele>
        <time>2024-02-04T11:46:09Z</time>
      </trkpt>
      <trkpt lat="43.18153" lon="6.49999">
        <ele>491</ele>
        <time>2024-02-04T11:46:10Z</time>
      </trkpt>
      <trkpt lat="43.18153" lon="6.49999">
        <ele>491</ele>
        <time>2024-02-04T11:46:11Z</time>
      </trkpt>
      <trkpt lat="43.18153" lon="6.49999">
        <ele>491.1</ele>
        <time>2024-02-04T11:46:12Z</time>
      </trkpt>
      <trkpt lat="43.18153" lon="6.49999">
        <ele>491.1</ele>
        <time>2024-02-04T11:46:13Z</time>
      </trkpt>
      <trkpt lat="43.18153" lon="6.49999">
        <ele>491.1</ele>
        <time>2024-02-04T11:46:14Z</time>
      </trkpt>
      <trkpt lat="43.18153" lon="6.5">
        <ele>491.1</ele>
        <time>2024-02-04T11:46:15Z</time>
      </trkpt>
      <trkpt lat="43.18153" lon="6.49999">
        <ele>491.2</ele>
        <time>2024-02-04T11:46:16Z</time>
      </trkpt>
      <trkpt lat="43.18153" lon="6.5">
        <ele>491.2</ele>
        <time>2024-02-04T11:46:17Z</time>
      </trkpt>
      <trkpt lat="43.18153" lon="6.5">
        <ele>491.3</ele>
        <time>2024-02-04T11:46:18Z</time>
      </trkpt>
      <trkpt lat="43.18153" lon="6.49999">
        <ele>491.3</ele>
        <time>2024-02-04T11:46:19Z</time>
      </trkpt>
      <trkpt lat="43.18153" lon="6.49999">
        <ele>491.3</ele>
        <time>2024-02-04T11:46:20Z</time>
      </trkpt>
      <trkpt lat="43.18153" lon="6.49999">
        <ele>491.3</ele>
        <time>2024-02-04T11:46:21Z</time>
      </trkpt>
      <trkpt lat="43.18153" lon="6.49999">
        <ele>491.4</ele>
        <time>2024-02-04T11:46:22Z</time>
      </trkpt>
      <trkpt lat="43.18153" lon="6.49999">
        <ele>491.3</ele>
        <time>2024-02-04T11:46:23Z</time>
      </trkpt>
      <trkpt lat="43.18153" lon="6.49999">
        <ele>491.3</ele>
        <time>2024-02-04T11:46:24Z</time>
      </trkpt>
      <trkpt lat="43.18153" lon="6.49999">
        <ele>491.3</ele>
        <time>2024-02-04T11:46:25Z</time>
      </trkpt>
      <trkpt lat="43.18153" lon="6.49999">
        <ele>491.2</ele>
        <time>2024-02-04T11:46:26Z</time>
      </trkpt>
      <trkpt lat="43.18153" lon="6.49999">
        <ele>491.2</ele>
        <time>2024-02-04T11:46:27Z</time>
      </trkpt>
      <trkpt lat="43.18153" lon="6.49999">
        <ele>491.2</ele>
        <time>2024-02-04T11:46:28Z</time>
      </trkpt>
      <trkpt lat="43.18153" lon="6.49999">
        <ele>491.1</ele>
        <time>2024-02-04T11:46:29Z</time>
      </trkpt>
      <trkpt lat="43.18153" lon="6.49999">
        <ele>491.1</ele>
        <time>2024-02-04T11:46:30Z</time>
      </trkpt>
      <trkpt lat="43.18153" lon="6.49999">
        <ele>491.1</ele>
        <time>2024-02-04T11:46:31Z</time>
      </trkpt>
      <trkpt lat="43.18153" lon="6.49999">
        <ele>491.1</ele>
        <time>2024-02-04T11:46:32Z</time>
      </trkpt>
      <trkpt lat="43.18153" lon="6.49999">
        <ele>491.1</ele>
        <time>2024-02-04T11:46:33Z</time>
      </trkpt>
      <trkpt lat="43.18153" lon="6.49999">
        <ele>491</ele>
        <time>2024-02-04T11:46:34Z</time>
      </trkpt>
      <trkpt lat="43.18153" lon="6.49999">
        <ele>491</ele>
        <time>2024-02-04T11:46:35Z</time>
      </trkpt>
      <trkpt lat="43.18153" lon="6.49999">
        <ele>491</ele>
        <time>2024-02-04T11:46:36Z</time>
      </trkpt>
      <trkpt lat="43.18153" lon="6.49999">
        <ele>491</ele>
        <time>2024-02-04T11:46:37Z</time>
      </trkpt>
      <trkpt lat="43.18153" lon="6.49999">
        <ele>490.9</ele>
        <time>2024-02-04T11:46:38Z</time>
      </trkpt>
      <trkpt lat="43.18153" lon="6.49999">
        <ele>490.8</ele>
        <time>2024-02-04T11:46:39Z</time>
      </trkpt>
      <trkpt lat="43.18153" lon="6.49999">
        <ele>490.8</ele>
        <time>2024-02-04T11:46:40Z</time>
      </trkpt>
      <trkpt lat="43.18153" lon="6.49999">
        <ele>490.8</ele>
        <time>2024-02-04T11:46:41Z</time>
      </trkpt>
      <trkpt lat="43.18153" lon="6.49999">
        <ele>490.6</ele>
        <time>2024-02-04T11:46:42Z</time>
      </trkpt>
      <trkpt lat="43.18153" lon="6.49999">
        <ele>490.7</ele>
        <time>2024-02-04T11:46:43Z</time>
      </trkpt>
      <trkpt lat="43.18153" lon="6.49999">
        <ele>490.7</ele>
        <time>2024-02-04T11:46:44Z</time>
      </trkpt>
      <trkpt lat="43.18153" lon="6.49999">
        <ele>490.7</ele>
        <time>2024-02-04T11:46:45Z</time>
      </trkpt>
      <trkpt lat="43.18154" lon="6.49999">
        <ele>490.7</ele>
        <time>2024-02-04T11:46:46Z</time>
      </trkpt>
      <trkpt lat="43.18154" lon="6.49998">
        <ele>490.7</ele>
        <time>2024-02-04T11:46:47Z</time>
      </trkpt>
      <trkpt lat="43.18154" lon="6.49998">
        <ele>490.7</ele>
        <time>2024-02-04T11:46:48Z</time>
      </trkpt>
      <trkpt lat="43.18154" lon="6.49998">
        <ele>490.7</ele>
        <time>2024-02-04T11:46:49Z</time>
      </trkpt>
      <trkpt lat="43.18154" lon="6.49998">
        <ele>490.8</ele>
        <time>2024-02-04T11:46:50Z</time>
      </trkpt>
      <trkpt lat="43.18154" lon="6.49998">
        <ele>490.9</ele>
        <time>2024-02-04T11:46:51Z</time>
      </trkpt>
      <trkpt lat="43.18154" lon="6.49998">
        <ele>490.9</ele>
        <time>2024-02-04T11:46:52Z</time>
      </trkpt>
      <trkpt lat="43.18154" lon="6.49998">
        <ele>490.9</ele>
        <time>2024-02-04T11:46:53Z</time>
      </trkpt>
      <trkpt lat="43.18154" lon="6.49998">
        <ele>490.9</ele>
        <time>2024-02-04T11:46:54Z</time>
      </trkpt>
      <trkpt lat="43.18154" lon="6.49998">
        <ele>491</ele>
        <time>2024-02-04T11:46:55Z</time>
      </trkpt>
      <trkpt lat="43.18154" lon="6.49998">
        <ele>491.1</ele>
        <time>2024-02-04T11:46:56Z</time>
      </trkpt>
      <trkpt lat="43.18154" lon="6.49998">
        <ele>491.2</ele>
        <time>2024-02-04T11:46:57Z</time>
      </trkpt>
      <trkpt lat="43.18154" lon="6.49998">
        <ele>491.2</ele>
        <time>2024-02-04T11:46:58Z</time>
      </trkpt>
      <trkpt lat="43.18154" lon="6.49998">
        <ele>491.3</ele>
        <time>2024-02-04T11:46:59Z</time>
      </trkpt>
      <trkpt lat="43.18154" lon="6.49998">
        <ele>491.3</ele>
        <time>2024-02-04T11:47:00Z</time>
      </trkpt>
      <trkpt lat="43.18154" lon="6.49998">
        <ele>491.4</ele>
        <time>2024-02-04T11:47:01Z</time>
      </trkpt>
      <trkpt lat="43.18154" lon="6.49998">
        <ele>491.3</ele>
        <time>2024-02-04T11:47:02Z</time>
      </trkpt>
      <trkpt lat="43.18154" lon="6.49998">
        <ele>491.3</ele>
        <time>2024-02-04T11:47:03Z</time>
      </trkpt>
      <trkpt lat="43.18154" lon="6.49998">
        <ele>491.3</ele>
        <time>2024-02-04T11:47:04Z</time>
      </trkpt>
      <trkpt lat="43.18154" lon="6.49998">
        <ele>491.2</ele>
        <time>2024-02-04T11:47:05Z</time>
      </trkpt>
      <trkpt lat="43.18154" lon="6.49999">
        <ele>491.2</ele>
        <time>2024-02-04T11:47:06Z</time>
      </trkpt>
      <trkpt lat="43.18154" lon="6.49999">
        <ele>491.1</ele>
        <time>2024-02-04T11:47:07Z</time>
      </trkpt>
      <trkpt lat="43.18154" lon="6.49999">
        <ele>491.1</ele>
        <time>2024-02-04T11:47:08Z</time>
      </trkpt>
      <trkpt lat="43.18154" lon="6.49999">
        <ele>491.1</ele>
        <time>2024-02-04T11:47:09Z</time>
      </trkpt>
      <trkpt lat="43.18154" lon="6.49999">
        <ele>491.1</ele>
        <time>2024-02-04T11:47:10Z</time>
      </trkpt>
      <trkpt lat="43.18154" lon="6.49999">
        <ele>491.1</ele>
        <time>2024-02-04T11:47:11Z</time>
      </trkpt>
      <trkpt lat="43.18154" lon="6.49999">
        <ele>491.1</ele>
        <time>2024-02-04T11:47:12Z</time>
      </trkpt>
      <trkpt lat="43.18154" lon="6.49999">
        <ele>491.1</ele>
        <time>2024-02-04T11:47:13Z</time>
      </trkpt>
      <trkpt lat="43.18154" lon="6.49999">
        <ele>491.1</ele>
        <time>2024-02-04T11:47:14Z</time>
      </trkpt>
      <trkpt lat="43.18154" lon="6.49999">
        <ele>491.1</ele>
        <time>2024-02-04T11:47:15Z</time>
      </trkpt>
      <trkpt lat="43.18154" lon="6.49999">
        <ele>491.2</ele>
        <time>2024-02-04T11:47:16Z</time>
      </trkpt>
      <trkpt lat="43.18154" lon="6.49999">
        <ele>491.2</ele>
        <time>2024-02-04T11:47:17Z</time>
      </trkpt>
      <trkpt lat="43.18154" lon="6.49999">
        <ele>491.1</ele>
        <time>2024-02-04T11:47:18Z</time>
      </trkpt>
      <trkpt lat="43.18154" lon="6.49999">
        <ele>491.1</ele>
        <time>2024-02-04T11:47:19Z</time>
      </trkpt>
      <trkpt lat="43.18154" lon="6.49999">
        <ele>491.1</ele>
        <time>2024-02-04T11:47:20Z</time>
      </trkpt>
      <trkpt lat="43.18154" lon="6.49999">
        <ele>491.1</ele>
        <time>2024-02-04T11:47:21Z</time>
      </trkpt>
      <trkpt lat="43.18154" lon="6.49999">
        <ele>491.2</ele>
        <time>2024-02-04T11:47:22Z</time>
      </trkpt>
      <trkpt lat="43.18154" lon="6.49999">
        <ele>491.2</ele>
        <time>2024-02-04T11:47:23Z</time>
      </trkpt>
      <trkpt lat="43.18154" lon="6.49999">
        <ele>491.2</ele>
        <time>2024-02-04T11:47:24Z</time>
      </trkpt>
      <trkpt lat="43.18154" lon="6.49999">
        <ele>491.1</ele>
        <time>2024-02-04T11:47:25Z</time>
      </trkpt>
      <trkpt lat="43.18154" lon="6.49999">
        <ele>491.1</ele>
        <time>2024-02-04T11:47:26Z</time>
      </trkpt>
      <trkpt lat="43.18154" lon="6.49999">
        <ele>491.1</ele>
        <time>2024-02-04T11:47:27Z</time>
      </trkpt>
      <trkpt lat="43.18154" lon="6.49999">
        <ele>491.1</ele>
        <time>2024-02-04T11:47:28Z</time>
      </trkpt>
      <trkpt lat="43.18154" lon="6.49999">
        <ele>491.1</ele>
        <time>2024-02-04T11:47:29Z</time>
      </trkpt>
      <trkpt lat="43.18154" lon="6.49999">
        <ele>491</ele>
        <time>2024-02-04T11:47:30Z</time>
      </trkpt>
      <trkpt lat="43.18154" lon="6.49999">
        <ele>490.9</ele>
        <time>2024-02-04T11:47:31Z</time>
      </trkpt>
      <trkpt lat="43.18154" lon="6.49999">
        <ele>490.9</ele>
        <time>2024-02-04T11:47:32Z</time>
      </trkpt>
      <trkpt lat="43.18154" lon="6.49999">
        <ele>490.8</ele>
        <time>2024-02-04T11:47:33Z</time>
      </trkpt>
      <trkpt lat="43.18154" lon="6.49999">
        <ele>490.8</ele>
        <time>2024-02-04T11:47:34Z</time>
      </trkpt>
      <trkpt lat="43.18154" lon="6.49999">
        <ele>490.8</ele>
        <time>2024-02-04T11:47:35Z</time>
      </trkpt>
      <trkpt lat="43.18154" lon="6.49999">
        <ele>490.7</ele>
        <time>2024-02-04T11:47:36Z</time>
      </trkpt>
      <trkpt lat="43.18154" lon="6.49999">
        <ele>490.6</ele>
        <time>2024-02-04T11:47:37Z</time>
      </trkpt>
      <trkpt lat="43.18154" lon="6.49999">
        <ele>490.6</ele>
        <time>2024-02-04T11:47:38Z</time>
      </trkpt>
      <trkpt lat="43.18154" lon="6.49999">
        <ele>490.5</ele>
        <time>2024-02-04T11:47:39Z</time>
      </trkpt>
      <trkpt lat="43.18154" lon="6.49999">
        <ele>490.5</ele>
        <time>2024-02-04T11:47:40Z</time>
      </trkpt>
      <trkpt lat="43.18154" lon="6.49999">
        <ele>490.6</ele>
        <time>2024-02-04T11:47:41Z</time>
      </trkpt>
      <trkpt lat="43.18154" lon="6.49999">
        <ele>490.6</ele>
        <time>2024-02-04T11:47:42Z</time>
      </trkpt>
      <trkpt lat="43.18155" lon="6.49999">
        <ele>490.6</ele>
        <time>2024-02-04T11:47:43Z</time>
      </trkpt>
      <trkpt lat="43.18155" lon="6.49999">
        <ele>490.7</ele>
        <time>2024-02-04T11:47:44Z</time>
      </trkpt>
      <trkpt lat="43.18155" lon="6.49999">
        <ele>490.8</ele>
        <time>2024-02-04T11:47:45Z</time>
      </trkpt>
      <trkpt lat="43.18155" lon="6.49999">
        <ele>490.8</ele>
        <time>2024-02-04T11:47:46Z</time>
      </trkpt>
      <trkpt lat="43.18155" lon="6.49999">
        <ele>490.9</ele>
        <time>2024-02-04T11:47:47Z</time>
      </trkpt>
      <trkpt lat="43.18155" lon="6.49999">
        <ele>491</ele>
        <time>2024-02-04T11:47:48Z</time>
      </trkpt>
      <trkpt lat="43.18155" lon="6.49999">
        <ele>491</ele>
        <time>2024-02-04T11:47:49Z</time>
      </trkpt>
      <trkpt lat="43.18155" lon="6.49999">
        <ele>491</ele>
        <time>2024-02-04T11:47:50Z</time>
      </trkpt>
      <trkpt lat="43.18155" lon="6.49999">
        <ele>491</ele>
        <time>2024-02-04T11:47:51Z</time>
      </trkpt>
      <trkpt lat="43.18155" lon="6.49999">
        <ele>491</ele>
        <time>2024-02-04T11:47:52Z</time>
      </trkpt>
      <trkpt lat="43.18155" lon="6.49999">
        <ele>491</ele>
        <time>2024-02-04T11:47:53Z</time>
      </trkpt>
      <trkpt lat="43.18155" lon="6.49999">
        <ele>490.9</ele>
        <time>2024-02-04T11:47:54Z</time>
      </trkpt>
      <trkpt lat="43.18155" lon="6.49998">
        <ele>490.9</ele>
        <time>2024-02-04T11:47:55Z</time>
      </trkpt>
      <trkpt lat="43.18155" lon="6.49998">
        <ele>490.9</ele>
        <time>2024-02-04T11:47:56Z</time>
      </trkpt>
      <trkpt lat="43.18155" lon="6.49998">
        <ele>490.9</ele>
        <time>2024-02-04T11:47:57Z</time>
      </trkpt>
      <trkpt lat="43.18155" lon="6.49998">
        <ele>490.9</ele>
        <time>2024-02-04T11:47:58Z</time>
      </trkpt>
      <trkpt lat="43.18155" lon="6.49998">
        <ele>490.9</ele>
        <time>2024-02-04T11:47:59Z</time>
      </trkpt>
      <trkpt lat="43.18155" lon="6.49998">
        <ele>490.8</ele>
        <time>2024-02-04T11:48:00Z</time>
      </trkpt>
      <trkpt lat="43.18155" lon="6.49998">
        <ele>490.8</ele>
        <time>2024-02-04T11:48:01Z</time>
      </trkpt>
      <trkpt lat="43.18155" lon="6.49998">
        <ele>490.7</ele>
        <time>2024-02-04T11:48:02Z</time>
      </trkpt>
      <trkpt lat="43.18155" lon="6.49998">
        <ele>490.8</ele>
        <time>2024-02-04T11:48:03Z</time>
      </trkpt>
      <trkpt lat="43.18155" lon="6.49998">
        <ele>490.8</ele>
        <time>2024-02-04T11:48:04Z</time>
      </trkpt>
      <trkpt lat="43.18155" lon="6.49998">
        <ele>490.8</ele>
        <time>2024-02-04T11:48:05Z</time>
      </trkpt>
      <trkpt lat="43.18155" lon="6.49998">
        <ele>490.8</ele>
        <time>2024-02-04T11:48:06Z</time>
      </trkpt>
      <trkpt lat="43.18155" lon="6.49998">
        <ele>490.8</ele>
        <time>2024-02-04T11:48:07Z</time>
      </trkpt>
      <trkpt lat="43.18155" lon="6.49998">
        <ele>490.9</ele>
        <time>2024-02-04T11:48:08Z</time>
      </trkpt>
      <trkpt lat="43.18155" lon="6.49998">
        <ele>490.9</ele>
        <time>2024-02-04T11:48:09Z</time>
      </trkpt>
      <trkpt lat="43.18155" lon="6.49998">
        <ele>491</ele>
        <time>2024-02-04T11:48:10Z</time>
      </trkpt>
      <trkpt lat="43.18155" lon="6.49998">
        <ele>491</ele>
        <time>2024-02-04T11:48:11Z</time>
      </trkpt>
      <trkpt lat="43.18155" lon="6.49998">
        <ele>491</ele>
        <time>2024-02-04T11:48:12Z</time>
      </trkpt>
      <trkpt lat="43.18155" lon="6.49998">
        <ele>491.1</ele>
        <time>2024-02-04T11:48:13Z</time>
      </trkpt>
      <trkpt lat="43.18155" lon="6.49998">
        <ele>491.1</ele>
        <time>2024-02-04T11:48:14Z</time>
      </trkpt>
      <trkpt lat="43.18155" lon="6.49998">
        <ele>491.1</ele>
        <time>2024-02-04T11:48:15Z</time>
      </trkpt>
      <trkpt lat="43.18155" lon="6.49998">
        <ele>491.1</ele>
        <time>2024-02-04T11:48:16Z</time>
      </trkpt>
      <trkpt lat="43.18155" lon="6.49998">
        <ele>491.1</ele>
        <time>2024-02-04T11:48:17Z</time>
      </trkpt>
      <trkpt lat="43.18155" lon="6.49998">
        <ele>491.2</ele>
        <time>2024-02-04T11:48:18Z</time>
      </trkpt>
      <trkpt lat="43.18155" lon="6.49998">
        <ele>491.2</ele>
        <time>2024-02-04T11:48:19Z</time>
      </trkpt>
      <trkpt lat="43.18155" lon="6.49998">
        <ele>491.2</ele>
        <time>2024-02-04T11:48:20Z</time>
      </trkpt>
      <trkpt lat="43.18155" lon="6.49998">
        <ele>491.1</ele>
        <time>2024-02-04T11:48:21Z</time>
      </trkpt>
      <trkpt lat="43.18155" lon="6.49998">
        <ele>491</ele>
        <time>2024-02-04T11:48:22Z</time>
      </trkpt>
      <trkpt lat="43.18155" lon="6.49998">
        <ele>490.9</ele>
        <time>2024-02-04T11:48:23Z</time>
      </trkpt>
      <trkpt lat="43.18155" lon="6.49998">
        <ele>491</ele>
        <time>2024-02-04T11:48:24Z</time>
      </trkpt>
      <trkpt lat="43.18155" lon="6.49998">
        <ele>491</ele>
        <time>2024-02-04T11:48:25Z</time>
      </trkpt>
      <trkpt lat="43.18155" lon="6.49998">
        <ele>491</ele>
        <time>2024-02-04T11:48:26Z</time>
      </trkpt>
      <trkpt lat="43.18155" lon="6.49998">
        <ele>491</ele>
        <time>2024-02-04T11:48:27Z</time>
      </trkpt>
      <trkpt lat="43.18155" lon="6.49998">
        <ele>491</ele>
        <time>2024-02-04T11:48:28Z</time>
      </trkpt>
      <trkpt lat="43.18155" lon="6.49998">
        <ele>491.1</ele>
        <time>2024-02-04T11:48:29Z</time>
      </trkpt>
      <trkpt lat="43.18155" lon="6.49998">
        <ele>491.1</ele>
        <time>2024-02-04T11:48:30Z</time>
      </trkpt>
      <trkpt lat="43.18156" lon="6.49998">
        <ele>491.1</ele>
        <time>2024-02-04T11:48:31Z</time>
      </trkpt>
      <trkpt lat="43.18156" lon="6.49998">
        <ele>491.2</ele>
        <time>2024-02-04T11:48:32Z</time>
      </trkpt>
      <trkpt lat="43.18156" lon="6.49998">
        <ele>491.1</ele>
        <time>2024-02-04T11:48:33Z</time>
      </trkpt>
      <trkpt lat="43.18156" lon="6.49998">
        <ele>491.2</ele>
        <time>2024-02-04T11:48:34Z</time>
      </trkpt>
      <trkpt lat="43.18156" lon="6.49998">
        <ele>491.2</ele>
        <time>2024-02-04T11:48:35Z</time>
      </trkpt>
      <trkpt lat="43.18156" lon="6.49998">
        <ele>491.2</ele>
        <time>2024-02-04T11:48:36Z</time>
      </trkpt>
      <trkpt lat="43.18156" lon="6.49998">
        <ele>491.1</ele>
        <time>2024-02-04T11:48:37Z</time>
      </trkpt>
      <trkpt lat="43.18156" lon="6.49998">
        <ele>491.1</ele>
        <time>2024-02-04T11:48:38Z</time>
      </trkpt>
      <trkpt lat="43.18156" lon="6.49998">
        <ele>491.1</ele>
        <time>2024-02-04T11:48:39Z</time>
      </trkpt>
      <trkpt lat="43.18156" lon="6.49998">
        <ele>491.2</ele>
        <time>2024-02-04T11:48:40Z</time>
      </trkpt>
      <trkpt lat="43.18156" lon="6.49998">
        <ele>491.1</ele>
        <time>2024-02-04T11:48:41Z</time>
      </trkpt>
      <trkpt lat="43.18156" lon="6.49998">
        <ele>491.3</ele>
        <time>2024-02-04T11:48:42Z</time>
      </trkpt>
      <trkpt lat="43.18156" lon="6.49998">
        <ele>491.3</ele>
        <time>2024-02-04T11:48:43Z</time>
      </trkpt>
      <trkpt lat="43.18156" lon="6.49998">
        <ele>491.3</ele>
        <time>2024-02-04T11:48:44Z</time>
      </trkpt>
      <trkpt lat="43.18156" lon="6.49998">
        <ele>491.3</ele>
        <time>2024-02-04T11:48:45Z</time>
      </trkpt>
      <trkpt lat="43.18156" lon="6.49998">
        <ele>491.3</ele>
        <time>2024-02-04T11:48:46Z</time>
      </trkpt>
      <trkpt lat="43.18156" lon="6.49998">
        <ele>491.3</ele>
        <time>2024-02-04T11:48:47Z</time>
      </trkpt>
      <trkpt lat="43.18156" lon="6.49998">
        <ele>491.3</ele>
        <time>2024-02-04T11:48:48Z</time>
      </trkpt>
      <trkpt lat="43.18156" lon="6.49998">
        <ele>491.3</ele>
        <time>2024-02-04T11:48:49Z</time>
      </trkpt>
      <trkpt lat="43.18156" lon="6.49998">
        <ele>491.4</ele>
        <time>2024-02-04T11:48:50Z</time>
      </trkpt>
      <trkpt lat="43.18156" lon="6.49998">
        <ele>491.5</ele>
        <time>2024-02-04T11:48:51Z</time>
      </trkpt>
      <trkpt lat="43.18156" lon="6.49998">
        <ele>491.4</ele>
        <time>2024-02-04T11:48:52Z</time>
      </trkpt>
      <trkpt lat="43.18156" lon="6.49998">
        <ele>491.4</ele>
        <time>2024-02-04T11:48:53Z</time>
      </trkpt>
      <trkpt lat="43.18156" lon="6.49998">
        <ele>491.4</ele>
        <time>2024-02-04T11:48:54Z</time>
      </trkpt>
      <trkpt lat="43.18156" lon="6.49998">
        <ele>491.4</ele>
        <time>2024-02-04T11:48:55Z</time>
      </trkpt>
      <trkpt lat="43.18156" lon="6.49998">
        <ele>491.4</ele>
        <time>2024-02-04T11:48:56Z</time>
      </trkpt>
      <trkpt lat="43.18156" lon="6.49998">
        <ele>491.4</ele>
        <time>2024-02-04T11:48:57Z</time>
      </trkpt>
      <trkpt lat="43.18156" lon="6.49998">
        <ele>491.4</ele>
        <time>2024-02-04T11:48:58Z</time>
      </trkpt>
      <trkpt lat="43.18156" lon="6.49998">
        <ele>491.4</ele>
        <time>2024-02-04T11:48:59Z</time>
      </trkpt>
      <trkpt lat="43.18156" lon="6.49998">
        <ele>491.3</ele>
        <time>2024-02-04T11:49:00Z</time>
      </trkpt>
      <trkpt lat="43.18156" lon="6.49998">
        <ele>491.2</ele>
        <time>2024-02-04T11:49:01Z</time>
      </trkpt>
      <trkpt lat="43.18156" lon="6.49998">
        <ele>491.2</ele>
        <time>2024-02-04T11:49:02Z</time>
      </trkpt>
      <trkpt lat="43.18156" lon="6.49998">
        <ele>491.1</ele>
        <time>2024-02-04T11:49:03Z</time>
      </trkpt>
      <trkpt lat="43.18156" lon="6.49998">
        <ele>491</ele>
        <time>2024-02-04T11:49:04Z</time>
      </trkpt>
      <trkpt lat="43.18156" lon="6.49998">
        <ele>491</ele>
        <time>2024-02-04T11:49:05Z</time>
      </trkpt>
      <trkpt lat="43.18156" lon="6.49998">
        <ele>491</ele>
        <time>2024-02-04T11:49:06Z</time>
      </trkpt>
      <trkpt lat="43.18156" lon="6.49998">
        <ele>491.1</ele>
        <time>2024-02-04T11:49:07Z</time>
      </trkpt>
      <trkpt lat="43.18156" lon="6.49998">
        <ele>491.1</ele>
        <time>2024-02-04T11:49:08Z</time>
      </trkpt>
      <trkpt lat="43.18156" lon="6.49998">
        <ele>491.1</ele>
        <time>2024-02-04T11:49:09Z</time>
      </trkpt>
      <trkpt lat="43.18156" lon="6.49998">
        <ele>491.2</ele>
        <time>2024-02-04T11:49:10Z</time>
      </trkpt>
      <trkpt lat="43.18156" lon="6.49998">
        <ele>491.2</ele>
        <time>2024-02-04T11:49:11Z</time>
      </trkpt>
      <trkpt lat="43.18156" lon="6.49998">
        <ele>491.2</ele>
        <time>2024-02-04T11:49:12Z</time>
      </trkpt>
      <trkpt lat="43.18156" lon="6.49998">
        <ele>491.1</ele>
        <time>2024-02-04T11:49:13Z</time>
      </trkpt>
      <trkpt lat="43.18156" lon="6.49998">
        <ele>491.1</ele>
        <time>2024-02-04T11:49:14Z</time>
      </trkpt>
      <trkpt lat="43.18156" lon="6.49998">
        <ele>491</ele>
        <time>2024-02-04T11:49:15Z</time>
      </trkpt>
      <trkpt lat="43.18156" lon="6.49998">
        <ele>491</ele>
        <time>2024-02-04T11:49:16Z</time>
      </trkpt>
      <trkpt lat="43.18156" lon="6.49998">
        <ele>491.1</ele>
        <time>2024-02-04T11:49:17Z</time>
      </trkpt>
      <trkpt lat="43.18156" lon="6.49998">
        <ele>491.1</ele>
        <time>2024-02-04T11:49:18Z</time>
      </trkpt>
      <trkpt lat="43.18156" lon="6.49998">
        <ele>491</ele>
        <time>2024-02-04T11:49:19Z</time>
      </trkpt>
      <trkpt lat="43.18156" lon="6.49998">
        <ele>491.1</ele>
        <time>2024-02-04T11:49:20Z</time>
      </trkpt>
      <trkpt lat="43.18156" lon="6.49998">
        <ele>491.1</ele>
        <time>2024-02-04T11:49:21Z</time>
      </trkpt>
      <trkpt lat="43.18156" lon="6.49998">
        <ele>491.1</ele>
        <time>2024-02-04T11:49:22Z</time>
      </trkpt>
      <trkpt lat="43.18156" lon="6.49998">
        <ele>491.1</ele>
        <time>2024-02-04T11:49:23Z</time>
      </trkpt>
      <trkpt lat="43.18156" lon="6.49997">
        <ele>491.1</ele>
        <time>2024-02-04T11:49:24Z</time>
      </trkpt>
      <trkpt lat="43.18156" lon="6.49997">
        <ele>491.1</ele>
        <time>2024-02-04T11:49:25Z</time>
      </trkpt>
      <trkpt lat="43.18156" lon="6.49997">
        <ele>491.2</ele>
        <time>2024-02-04T11:49:26Z</time>
      </trkpt>
      <trkpt lat="43.18156" lon="6.49997">
        <ele>491.2</ele>
        <time>2024-02-04T11:49:27Z</time>
      </trkpt>
      <trkpt lat="43.18156" lon="6.49997">
        <ele>491.3</ele>
        <time>2024-02-04T11:49:28Z</time>
      </trkpt>
      <trkpt lat="43.18156" lon="6.49997">
        <ele>491.4</ele>
        <time>2024-02-04T11:49:29Z</time>
      </trkpt>
      <trkpt lat="43.18156" lon="6.49997">
        <ele>491.4</ele>
        <time>2024-02-04T11:49:30Z</time>
      </trkpt>
      <trkpt lat="43.18156" lon="6.49997">
        <ele>491.5</ele>
        <time>2024-02-04T11:49:31Z</time>
      </trkpt>
      <trkpt lat="43.18156" lon="6.49997">
        <ele>491.5</ele>
        <time>2024-02-04T11:49:32Z</time>
      </trkpt>
      <trkpt lat="43.18156" lon="6.49997">
        <ele>491.5</ele>
        <time>2024-02-04T11:49:33Z</time>
      </trkpt>
      <trkpt lat="43.18156" lon="6.49997">
        <ele>491.5</ele>
        <time>2024-02-04T11:49:34Z</time>
      </trkpt>
      <trkpt lat="43.18156" lon="6.49997">
        <ele>491.5</ele>
        <time>2024-02-04T11:49:35Z</time>
      </trkpt>
      <trkpt lat="43.18156" lon="6.49997">
        <ele>491.4</ele>
        <time>2024-02-04T11:49:36Z</time>
      </trkpt>
      <trkpt lat="43.18156" lon="6.49997">
        <ele>491.5</ele>
        <time>2024-02-04T11:49:37Z</time>
      </trkpt>
      <trkpt lat="43.18156" lon="6.49997">
        <ele>491.4</ele>
        <time>2024-02-04T11:49:38Z</time>
      </trkpt>
      <trkpt lat="43.18156" lon="6.49997">
        <ele>491.4</ele>
        <time>2024-02-04T11:49:39Z</time>
      </trkpt>
      <trkpt lat="43.18156" lon="6.49997">
        <ele>491.3</ele>
        <time>2024-02-04T11:49:40Z</time>
      </trkpt>
      <trkpt lat="43.18156" lon="6.49997">
        <ele>491.3</ele>
        <time>2024-02-04T11:49:41Z</time>
      </trkpt>
      <trkpt lat="43.18156" lon="6.49997">
        <ele>491.2</ele>
        <time>2024-02-04T11:49:42Z</time>
      </trkpt>
      <trkpt lat="43.18156" lon="6.49997">
        <ele>491.2</ele>
        <time>2024-02-04T11:49:43Z</time>
      </trkpt>
      <trkpt lat="43.18156" lon="6.49997">
        <ele>491.1</ele>
        <time>2024-02-04T11:49:44Z</time>
      </trkpt>
      <trkpt lat="43.18156" lon="6.49997">
        <ele>491.2</ele>
        <time>2024-02-04T11:49:45Z</time>
      </trkpt>
      <trkpt lat="43.18156" lon="6.49997">
        <ele>491.2</ele>
        <time>2024-02-04T11:49:46Z</time>
      </trkpt>
      <trkpt lat="43.18156" lon="6.49997">
        <ele>491.2</ele>
        <time>2024-02-04T11:49:47Z</time>
      </trkpt>
      <trkpt lat="43.18156" lon="6.49997">
        <ele>491.3</ele>
        <time>2024-02-04T11:49:48Z</time>
      </trkpt>
      <trkpt lat="43.18156" lon="6.49997">
        <ele>491.3</ele>
        <time>2024-02-04T11:49:49Z</time>
      </trkpt>
      <trkpt lat="43.18156" lon="6.49997">
        <ele>491.3</ele>
        <time>2024-02-04T11:49:50Z</time>
      </trkpt>
      <trkpt lat="43.18156" lon="6.49997">
        <ele>491.3</ele>
        <time>2024-02-04T11:49:51Z</time>
      </trkpt>
      <trkpt lat="43.18156" lon="6.49997">
        <ele>491.3</ele>
        <time>2024-02-04T11:49:52Z</time>
      </trkpt>
      <trkpt lat="43.18156" lon="6.49997">
        <ele>491.3</ele>
        <time>2024-02-04T11:49:53Z</time>
      </trkpt>
      <trkpt lat="43.18156" lon="6.49997">
        <ele>491.3</ele>
        <time>2024-02-04T11:49:54Z</time>
      </trkpt>
      <trkpt lat="43.18156" lon="6.49997">
        <ele>491.3</ele>
        <time>2024-02-04T11:49:55Z</time>
      </trkpt>
      <trkpt lat="43.18156" lon="6.49997">
        <ele>491.3</ele>
        <time>2024-02-04T11:49:56Z</time>
      </trkpt>
      <trkpt lat="43.18156" lon="6.49997">
        <ele>491.3</ele>
        <time>2024-02-04T11:49:57Z</time>
      </trkpt>
      <trkpt lat="43.18156" lon="6.49997">
        <ele>491.3</ele>
        <time>2024-02-04T11:49:58Z</time>
      </trkpt>
      <trkpt lat="43.18156" lon="6.49997">
        <ele>491.3</ele>
        <time>2024-02-04T11:49:59Z</time>
      </trkpt>
      <trkpt lat="43.18156" lon="6.49997">
        <ele>491.3</ele>
        <time>2024-02-04T11:50:00Z</time>
      </trkpt>
      <trkpt lat="43.18156" lon="6.49997">
        <ele>491.3</ele>
        <time>2024-02-04T11:50:01Z</time>
      </trkpt>
      <trkpt lat="43.18156" lon="6.49997">
        <ele>491.3</ele>
        <time>2024-02-04T11:50:02Z</time>
      </trkpt>
      <trkpt lat="43.18156" lon="6.49997">
        <ele>491.3</ele>
        <time>2024-02-04T11:50:03Z</time>
      </trkpt>
      <trkpt lat="43.18156" lon="6.49997">
        <ele>491.3</ele>
        <time>2024-02-04T11:50:04Z</time>
      </trkpt>
      <trkpt lat="43.18156" lon="6.49997">
        <ele>491.3</ele>
        <time>2024-02-04T11:50:05Z</time>
      </trkpt>
      <trkpt lat="43.18156" lon="6.49997">
        <ele>491.3</ele>
        <time>2024-02-04T11:50:06Z</time>
      </trkpt>
      <trkpt lat="43.18156" lon="6.49997">
        <ele>491.3</ele>
        <time>2024-02-04T11:50:07Z</time>
      </trkpt>
      <trkpt lat="43.18156" lon="6.49997">
        <ele>491.3</ele>
        <time>2024-02-04T11:50:08Z</time>
      </trkpt>
      <trkpt lat="43.18156" lon="6.49997">
        <ele>491.4</ele>
        <time>2024-02-04T11:50:09Z</time>
      </trkpt>
      <trkpt lat="43.18156" lon="6.49997">
        <ele>491.4</ele>
        <time>2024-02-04T11:50:10Z</time>
      </trkpt>
      <trkpt lat="43.18156" lon="6.49997">
        <ele>491.4</ele>
        <time>2024-02-04T11:50:11Z</time>
      </trkpt>
      <trkpt lat="43.18156" lon="6.49997">
        <ele>491.4</ele>
        <time>2024-02-04T11:50:12Z</time>
      </trkpt>
      <trkpt lat="43.18156" lon="6.49997">
        <ele>491.3</ele>
        <time>2024-02-04T11:50:13Z</time>
      </trkpt>
      <trkpt lat="43.18156" lon="6.49997">
        <ele>491.3</ele>
        <time>2024-02-04T11:50:14Z</time>
      </trkpt>
      <trkpt lat="43.18156" lon="6.49997">
        <ele>491.4</ele>
        <time>2024-02-04T11:50:15Z</time>
      </trkpt>
      <trkpt lat="43.18156" lon="6.49997">
        <ele>491.4</ele>
        <time>2024-02-04T11:50:16Z</time>
      </trkpt>
      <trkpt lat="43.18156" lon="6.49997">
        <ele>491.4</ele>
        <time>2024-02-04T11:50:17Z</time>
      </trkpt>
      <trkpt lat="43.18156" lon="6.49997">
        <ele>491.4</ele>
        <time>2024-02-04T11:50:18Z</time>
      </trkpt>
      <trkpt lat="43.18156" lon="6.49997">
        <ele>491.4</ele>
        <time>2024-02-04T11:50:19Z</time>
      </trkpt>
      <trkpt lat="43.18156" lon="6.49997">
        <ele>491.4</ele>
        <time>2024-02-04T11:50:20Z</time>
      </trkpt>
      <trkpt lat="43.18156" lon="6.49997">
        <ele>491.3</ele>
        <time>2024-02-04T11:50:21Z</time>
      </trkpt>
      <trkpt lat="43.18156" lon="6.49997">
        <ele>491.3</ele>
        <time>2024-02-04T11:50:22Z</time>
      </trkpt>
      <trkpt lat="43.18156" lon="6.49997">
        <ele>491.2</ele>
        <time>2024-02-04T11:50:23Z</time>
      </trkpt>
      <trkpt lat="43.18156" lon="6.49997">
        <ele>491.1</ele>
        <time>2024-02-04T11:50:24Z</time>
      </trkpt>
      <trkpt lat="43.18156" lon="6.49997">
        <ele>491.1</ele>
        <time>2024-02-04T11:50:25Z</time>
      </trkpt>
      <trkpt lat="43.18156" lon="6.49997">
        <ele>491</ele>
        <time>2024-02-04T11:50:26Z</time>
      </trkpt>
      <trkpt lat="43.18156" lon="6.49997">
        <ele>491</ele>
        <time>2024-02-04T11:50:27Z</time>
      </trkpt>
      <trkpt lat="43.18156" lon="6.49997">
        <ele>491</ele>
        <time>2024-02-04T11:50:28Z</time>
      </trkpt>
      <trkpt lat="43.18156" lon="6.49997">
        <ele>491</ele>
        <time>2024-02-04T11:50:29Z</time>
      </trkpt>
      <trkpt lat="43.18156" lon="6.49997">
        <ele>491</ele>
        <time>2024-02-04T11:50:30Z</time>
      </trkpt>
      <trkpt lat="43.18156" lon="6.49997">
        <ele>490.9</ele>
        <time>2024-02-04T11:50:31Z</time>
      </trkpt>
      <trkpt lat="43.18156" lon="6.49997">
        <ele>491.1</ele>
        <time>2024-02-04T11:50:32Z</time>
      </trkpt>
      <trkpt lat="43.18156" lon="6.49997">
        <ele>491.1</ele>
        <time>2024-02-04T11:50:33Z</time>
      </trkpt>
      <trkpt lat="43.18156" lon="6.49997">
        <ele>491.2</ele>
        <time>2024-02-04T11:50:34Z</time>
      </trkpt>
      <trkpt lat="43.18156" lon="6.49997">
        <ele>491.2</ele>
        <time>2024-02-04T11:50:35Z</time>
      </trkpt>
      <trkpt lat="43.18156" lon="6.49997">
        <ele>491.2</ele>
        <time>2024-02-04T11:50:36Z</time>
      </trkpt>
      <trkpt lat="43.18156" lon="6.49997">
        <ele>491.2</ele>
        <time>2024-02-04T11:50:37Z</time>
      </trkpt>
      <trkpt lat="43.18156" lon="6.49997">
        <ele>491.3</ele>
        <time>2024-02-04T11:50:38Z</time>
      </trkpt>
      <trkpt lat="43.18156" lon="6.49997">
        <ele>491.3</ele>
        <time>2024-02-04T11:50:39Z</time>
      </trkpt>
      <trkpt lat="43.18156" lon="6.49997">
        <ele>491.4</ele>
        <time>2024-02-04T11:50:40Z</time>
      </trkpt>
      <trkpt lat="43.18156" lon="6.49997">
        <ele>491.4</ele>
        <time>2024-02-04T11:50:41Z</time>
      </trkpt>
      <trkpt lat="43.18156" lon="6.49997">
        <ele>491.4</ele>
        <time>2024-02-04T11:50:42Z</time>
      </trkpt>
      <trkpt lat="43.18156" lon="6.49997">
        <ele>491.5</ele>
        <time>2024-02-04T11:50:43Z</time>
      </trkpt>
      <trkpt lat="43.18156" lon="6.49997">
        <ele>491.4</ele>
        <time>2024-02-04T11:50:44Z</time>
      </trkpt>
      <trkpt lat="43.18156" lon="6.49997">
        <ele>491.3</ele>
        <time>2024-02-04T11:50:45Z</time>
      </trkpt>
      <trkpt lat="43.18156" lon="6.49997">
        <ele>491.3</ele>
        <time>2024-02-04T11:50:46Z</time>
      </trkpt>
      <trkpt lat="43.18156" lon="6.49996">
        <ele>491.3</ele>
        <time>2024-02-04T11:50:47Z</time>
      </trkpt>
      <trkpt lat="43.18156" lon="6.49996">
        <ele>491.2</ele>
        <time>2024-02-04T11:50:48Z</time>
      </trkpt>
      <trkpt lat="43.18156" lon="6.49996">
        <ele>490.6</ele>
        <time>2024-02-04T11:50:49Z</time>
      </trkpt>
      <trkpt lat="43.18156" lon="6.49997">
        <ele>490.8</ele>
        <time>2024-02-04T11:50:50Z</time>
      </trkpt>
      <trkpt lat="43.18156" lon="6.49997">
        <ele>491.1</ele>
        <time>2024-02-04T11:50:51Z</time>
      </trkpt>
      <trkpt lat="43.18156" lon="6.49997">
        <ele>491.2</ele>
        <time>2024-02-04T11:50:52Z</time>
      </trkpt>
      <trkpt lat="43.18156" lon="6.49997">
        <ele>491.4</ele>
        <time>2024-02-04T11:50:53Z</time>
      </trkpt>
      <trkpt lat="43.18156" lon="6.49997">
        <ele>491.5</ele>
        <time>2024-02-04T11:50:54Z</time>
      </trkpt>
      <trkpt lat="43.18156" lon="6.49997">
        <ele>491.6</ele>
        <time>2024-02-04T11:50:55Z</time>
      </trkpt>
      <trkpt lat="43.18156" lon="6.49997">
        <ele>491.7</ele>
        <time>2024-02-04T11:50:56Z</time>
      </trkpt>
      <trkpt lat="43.18156" lon="6.49997">
        <ele>491.8</ele>
        <time>2024-02-04T11:50:57Z</time>
      </trkpt>
      <trkpt lat="43.18156" lon="6.49996">
        <ele>491.8</ele>
        <time>2024-02-04T11:50:58Z</time>
      </trkpt>
      <trkpt lat="43.18156" lon="6.49996">
        <ele>491.9</ele>
        <time>2024-02-04T11:50:59Z</time>
      </trkpt>
      <trkpt lat="43.18156" lon="6.49995">
        <ele>491.9</ele>
        <time>2024-02-04T11:51:00Z</time>
      </trkpt>
      <trkpt lat="43.18156" lon="6.49995">
        <ele>491.9</ele>
        <time>2024-02-04T11:51:01Z</time>
      </trkpt>
      <trkpt lat="43.18156" lon="6.49995">
        <ele>492</ele>
        <time>2024-02-04T11:51:02Z</time>
      </trkpt>
      <trkpt lat="43.18156" lon="6.49995">
        <ele>492</ele>
        <time>2024-02-04T11:51:03Z</time>
      </trkpt>
      <trkpt lat="43.18156" lon="6.49994">
        <ele>492</ele>
        <time>2024-02-04T11:51:04Z</time>
      </trkpt>
      <trkpt lat="43.18156" lon="6.49994">
        <ele>491.9</ele>
        <time>2024-02-04T11:51:05Z</time>
      </trkpt>
      <trkpt lat="43.18156" lon="6.49994">
        <ele>492</ele>
        <time>2024-02-04T11:51:06Z</time>
      </trkpt>
      <trkpt lat="43.18156" lon="6.49994">
        <ele>492</ele>
        <time>2024-02-04T11:51:07Z</time>
      </trkpt>
      <trkpt lat="43.18156" lon="6.49994">
        <ele>492</ele>
        <time>2024-02-04T11:51:08Z</time>
      </trkpt>
      <trkpt lat="43.18156" lon="6.49994">
        <ele>492</ele>
        <time>2024-02-04T11:51:09Z</time>
      </trkpt>
      <trkpt lat="43.18156" lon="6.49994">
        <ele>491.9</ele>
        <time>2024-02-04T11:51:10Z</time>
      </trkpt>
      <trkpt lat="43.18156" lon="6.49994">
        <ele>491.9</ele>
        <time>2024-02-04T11:51:11Z</time>
      </trkpt>
      <trkpt lat="43.18156" lon="6.49994">
        <ele>492</ele>
        <time>2024-02-04T11:51:12Z</time>
      </trkpt>
      <trkpt lat="43.18156" lon="6.49994">
        <ele>492</ele>
        <time>2024-02-04T11:51:13Z</time>
      </trkpt>
      <trkpt lat="43.18156" lon="6.49994">
        <ele>492</ele>
        <time>2024-02-04T11:51:14Z</time>
      </trkpt>
      <trkpt lat="43.18156" lon="6.49994">
        <ele>492</ele>
        <time>2024-02-04T11:51:15Z</time>
      </trkpt>
      <trkpt lat="43.18156" lon="6.49994">
        <ele>492.1</ele>
        <time>2024-02-04T11:51:16Z</time>
      </trkpt>
      <trkpt lat="43.18156" lon="6.49994">
        <ele>492.1</ele>
        <time>2024-02-04T11:51:17Z</time>
      </trkpt>
      <trkpt lat="43.18156" lon="6.49994">
        <ele>492</ele>
        <time>2024-02-04T11:51:18Z</time>
      </trkpt>
      <trkpt lat="43.18156" lon="6.49994">
        <ele>491.9</ele>
        <time>2024-02-04T11:51:19Z</time>
      </trkpt>
      <trkpt lat="43.18156" lon="6.49994">
        <ele>491.9</ele>
        <time>2024-02-04T11:51:20Z</time>
      </trkpt>
      <trkpt lat="43.18156" lon="6.49994">
        <ele>491.8</ele>
        <time>2024-02-04T11:51:21Z</time>
      </trkpt>
      <trkpt lat="43.18156" lon="6.49994">
        <ele>491.8</ele>
        <time>2024-02-04T11:51:22Z</time>
      </trkpt>
      <trkpt lat="43.18156" lon="6.49994">
        <ele>491.9</ele>
        <time>2024-02-04T11:51:23Z</time>
      </trkpt>
      <trkpt lat="43.18156" lon="6.49994">
        <ele>491.9</ele>
        <time>2024-02-04T11:51:24Z</time>
      </trkpt>
      <trkpt lat="43.18156" lon="6.49994">
        <ele>491.9</ele>
        <time>2024-02-04T11:51:25Z</time>
      </trkpt>
      <trkpt lat="43.18157" lon="6.49994">
        <ele>491.9</ele>
        <time>2024-02-04T11:51:26Z</time>
      </trkpt>
      <trkpt lat="43.18157" lon="6.49994">
        <ele>491.8</ele>
        <time>2024-02-04T11:51:27Z</time>
      </trkpt>
      <trkpt lat="43.18157" lon="6.49994">
        <ele>491.8</ele>
        <time>2024-02-04T11:51:28Z</time>
      </trkpt>
      <trkpt lat="43.18157" lon="6.49994">
        <ele>491.9</ele>
        <time>2024-02-04T11:51:29Z</time>
      </trkpt>
      <trkpt lat="43.18157" lon="6.49994">
        <ele>491.8</ele>
        <time>2024-02-04T11:51:30Z</time>
      </trkpt>
      <trkpt lat="43.18157" lon="6.49994">
        <ele>491.8</ele>
        <time>2024-02-04T11:51:31Z</time>
      </trkpt>
      <trkpt lat="43.18157" lon="6.49994">
        <ele>491.8</ele>
        <time>2024-02-04T11:51:32Z</time>
      </trkpt>
      <trkpt lat="43.18157" lon="6.49994">
        <ele>491.9</ele>
        <time>2024-02-04T11:51:33Z</time>
      </trkpt>
      <trkpt lat="43.18157" lon="6.49994">
        <ele>491.9</ele>
        <time>2024-02-04T11:51:34Z</time>
      </trkpt>
      <trkpt lat="43.18157" lon="6.49994">
        <ele>491.9</ele>
        <time>2024-02-04T11:51:35Z</time>
      </trkpt>
      <trkpt lat="43.18157" lon="6.49994">
        <ele>491.8</ele>
        <time>2024-02-04T11:51:36Z</time>
      </trkpt>
      <trkpt lat="43.18157" lon="6.49994">
        <ele>491.8</ele>
        <time>2024-02-04T11:51:37Z</time>
      </trkpt>
      <trkpt lat="43.18157" lon="6.49994">
        <ele>491.8</ele>
        <time>2024-02-04T11:51:38Z</time>
      </trkpt>
      <trkpt lat="43.18157" lon="6.49994">
        <ele>491.8</ele>
        <time>2024-02-04T11:51:39Z</time>
      </trkpt>
      <trkpt lat="43.18157" lon="6.49994">
        <ele>491.8</ele>
        <time>2024-02-04T11:51:40Z</time>
      </trkpt>
      <trkpt lat="43.18157" lon="6.49994">
        <ele>491.6</ele>
        <time>2024-02-04T11:51:41Z</time>
      </trkpt>
      <trkpt lat="43.18157" lon="6.49994">
        <ele>491.6</ele>
        <time>2024-02-04T11:51:42Z</time>
      </trkpt>
      <trkpt lat="43.18157" lon="6.49994">
        <ele>491.5</ele>
        <time>2024-02-04T11:51:43Z</time>
      </trkpt>
      <trkpt lat="43.18157" lon="6.49994">
        <ele>491.5</ele>
        <time>2024-02-04T11:51:44Z</time>
      </trkpt>
      <trkpt lat="43.18157" lon="6.49994">
        <ele>491.7</ele>
        <time>2024-02-04T11:51:45Z</time>
      </trkpt>
      <trkpt lat="43.18157" lon="6.49994">
        <ele>491.7</ele>
        <time>2024-02-04T11:51:46Z</time>
      </trkpt>
      <trkpt lat="43.18157" lon="6.49994">
        <ele>491.7</ele>
        <time>2024-02-04T11:51:47Z</time>
      </trkpt>
      <trkpt lat="43.18157" lon="6.49994">
        <ele>491.8</ele>
        <time>2024-02-04T11:51:48Z</time>
      </trkpt>
      <trkpt lat="43.18157" lon="6.49994">
        <ele>491.8</ele>
        <time>2024-02-04T11:51:49Z</time>
      </trkpt>
      <trkpt lat="43.18157" lon="6.49994">
        <ele>491.9</ele>
        <time>2024-02-04T11:51:50Z</time>
      </trkpt>
      <trkpt lat="43.18157" lon="6.49994">
        <ele>491.9</ele>
        <time>2024-02-04T11:51:51Z</time>
      </trkpt>
      <trkpt lat="43.18157" lon="6.49994">
        <ele>491.8</ele>
        <time>2024-02-04T11:51:52Z</time>
      </trkpt>
      <trkpt lat="43.18157" lon="6.49994">
        <ele>491.9</ele>
        <time>2024-02-04T11:51:53Z</time>
      </trkpt>
      <trkpt lat="43.18157" lon="6.49994">
        <ele>491.9</ele>
        <time>2024-02-04T11:51:54Z</time>
      </trkpt>
      <trkpt lat="43.18157" lon="6.49994">
        <ele>491.9</ele>
        <time>2024-02-04T11:51:55Z</time>
      </trkpt>
      <trkpt lat="43.18157" lon="6.49994">
        <ele>492</ele>
        <time>2024-02-04T11:51:56Z</time>
      </trkpt>
      <trkpt lat="43.18157" lon="6.49994">
        <ele>492</ele>
        <time>2024-02-04T11:51:57Z</time>
      </trkpt>
      <trkpt lat="43.18157" lon="6.49994">
        <ele>492</ele>
        <time>2024-02-04T11:51:58Z</time>
      </trkpt>
      <trkpt lat="43.18157" lon="6.49994">
        <ele>492</ele>
        <time>2024-02-04T11:51:59Z</time>
      </trkpt>
      <trkpt lat="43.18157" lon="6.49994">
        <ele>492</ele>
        <time>2024-02-04T11:52:00Z</time>
      </trkpt>
      <trkpt lat="43.18157" lon="6.49994">
        <ele>492</ele>
        <time>2024-02-04T11:52:01Z</time>
      </trkpt>
      <trkpt lat="43.18157" lon="6.49994">
        <ele>492</ele>
        <time>2024-02-04T11:52:02Z</time>
      </trkpt>
      <trkpt lat="43.18157" lon="6.49994">
        <ele>492</ele>
        <time>2024-02-04T11:52:03Z</time>
      </trkpt>
      <trkpt lat="43.18157" lon="6.49994">
        <ele>492.1</ele>
        <time>2024-02-04T11:52:04Z</time>
      </trkpt>
      <trkpt lat="43.18157" lon="6.49994">
        <ele>492</ele>
        <time>2024-02-04T11:52:05Z</time>
      </trkpt>
      <trkpt lat="43.18157" lon="6.49994">
        <ele>492</ele>
        <time>2024-02-04T11:52:06Z</time>
      </trkpt>
      <trkpt lat="43.18157" lon="6.49994">
        <ele>492</ele>
        <time>2024-02-04T11:52:07Z</time>
      </trkpt>
      <trkpt lat="43.18157" lon="6.49994">
        <ele>492</ele>
        <time>2024-02-04T11:52:08Z</time>
      </trkpt>
      <trkpt lat="43.18157" lon="6.49994">
        <ele>491.9</ele>
        <time>2024-02-04T11:52:09Z</time>
      </trkpt>
      <trkpt lat="43.18157" lon="6.49994">
        <ele>491.9</ele>
        <time>2024-02-04T11:52:10Z</time>
      </trkpt>
      <trkpt lat="43.18157" lon="6.49994">
        <ele>491.9</ele>
        <time>2024-02-04T11:52:11Z</time>
      </trkpt>
      <trkpt lat="43.18157" lon="6.49994">
        <ele>491.9</ele>
        <time>2024-02-04T11:52:12Z</time>
      </trkpt>
      <trkpt lat="43.18156" lon="6.49994">
        <ele>492</ele>
        <time>2024-02-04T11:52:13Z</time>
      </trkpt>
      <trkpt lat="43.18156" lon="6.49994">
        <ele>492.1</ele>
        <time>2024-02-04T11:52:14Z</time>
      </trkpt>
      <trkpt lat="43.18156" lon="6.49994">
        <ele>492.1</ele>
        <time>2024-02-04T11:52:15Z</time>
      </trkpt>
      <trkpt lat="43.18156" lon="6.49994">
        <ele>492.2</ele>
        <time>2024-02-04T11:52:16Z</time>
      </trkpt>
      <trkpt lat="43.18156" lon="6.49994">
        <ele>492.2</ele>
        <time>2024-02-04T11:52:17Z</time>
      </trkpt>
      <trkpt lat="43.18156" lon="6.49994">
        <ele>492.2</ele>
        <time>2024-02-04T11:52:18Z</time>
      </trkpt>
      <trkpt lat="43.18156" lon="6.49994">
        <ele>492.2</ele>
        <time>2024-02-04T11:52:19Z</time>
      </trkpt>
      <trkpt lat="43.18156" lon="6.49994">
        <ele>492.2</ele>
        <time>2024-02-04T11:52:20Z</time>
      </trkpt>
      <trkpt lat="43.18156" lon="6.49994">
        <ele>492.2</ele>
        <time>2024-02-04T11:52:21Z</time>
      </trkpt>
      <trkpt lat="43.18156" lon="6.49994">
        <ele>492.2</ele>
        <time>2024-02-04T11:52:22Z</time>
      </trkpt>
      <trkpt lat="43.18156" lon="6.49994">
        <ele>492.2</ele>
        <time>2024-02-04T11:52:23Z</time>
      </trkpt>
      <trkpt lat="43.18156" lon="6.49994">
        <ele>492.1</ele>
        <time>2024-02-04T11:52:24Z</time>
      </trkpt>
      <trkpt lat="43.18156" lon="6.49994">
        <ele>492.1</ele>
        <time>2024-02-04T11:52:25Z</time>
      </trkpt>
      <trkpt lat="43.18156" lon="6.49994">
        <ele>492.1</ele>
        <time>2024-02-04T11:52:26Z</time>
      </trkpt>
      <trkpt lat="43.18156" lon="6.49994">
        <ele>492.1</ele>
        <time>2024-02-04T11:52:27Z</time>
      </trkpt>
      <trkpt lat="43.18156" lon="6.49994">
        <ele>492</ele>
        <time>2024-02-04T11:52:28Z</time>
      </trkpt>
      <trkpt lat="43.18156" lon="6.49994">
        <ele>492</ele>
        <time>2024-02-04T11:52:29Z</time>
      </trkpt>
      <trkpt lat="43.18156" lon="6.49994">
        <ele>492</ele>
        <time>2024-02-04T11:52:30Z</time>
      </trkpt>
      <trkpt lat="43.18156" lon="6.49994">
        <ele>491.9</ele>
        <time>2024-02-04T11:52:31Z</time>
      </trkpt>
      <trkpt lat="43.18156" lon="6.49994">
        <ele>491.9</ele>
        <time>2024-02-04T11:52:32Z</time>
      </trkpt>
      <trkpt lat="43.18156" lon="6.49994">
        <ele>491.8</ele>
        <time>2024-02-04T11:52:33Z</time>
      </trkpt>
      <trkpt lat="43.18156" lon="6.49994">
        <ele>491.8</ele>
        <time>2024-02-04T11:52:34Z</time>
      </trkpt>
      <trkpt lat="43.18156" lon="6.49994">
        <ele>491.8</ele>
        <time>2024-02-04T11:52:35Z</time>
      </trkpt>
      <trkpt lat="43.18156" lon="6.49994">
        <ele>491.8</ele>
        <time>2024-02-04T11:52:36Z</time>
      </trkpt>
      <trkpt lat="43.18156" lon="6.49994">
        <ele>491.8</ele>
        <time>2024-02-04T11:52:37Z</time>
      </trkpt>
      <trkpt lat="43.18156" lon="6.49994">
        <ele>491.8</ele>
        <time>2024-02-04T11:52:38Z</time>
      </trkpt>
      <trkpt lat="43.18156" lon="6.49994">
        <ele>491.8</ele>
        <time>2024-02-04T11:52:39Z</time>
      </trkpt>
      <trkpt lat="43.18156" lon="6.49994">
        <ele>491.8</ele>
        <time>2024-02-04T11:52:40Z</time>
      </trkpt>
      <trkpt lat="43.18156" lon="6.49994">
        <ele>491.8</ele>
        <time>2024-02-04T11:52:41Z</time>
      </trkpt>
      <trkpt lat="43.18156" lon="6.49994">
        <ele>491.8</ele>
        <time>2024-02-04T11:52:42Z</time>
      </trkpt>
      <trkpt lat="43.18156" lon="6.49994">
        <ele>491.7</ele>
        <time>2024-02-04T11:52:43Z</time>
      </trkpt>
      <trkpt lat="43.18156" lon="6.49994">
        <ele>491.8</ele>
        <time>2024-02-04T11:52:44Z</time>
      </trkpt>
      <trkpt lat="43.18156" lon="6.49994">
        <ele>491.7</ele>
        <time>2024-02-04T11:52:45Z</time>
      </trkpt>
      <trkpt lat="43.18156" lon="6.49994">
        <ele>491.7</ele>
        <time>2024-02-04T11:52:46Z</time>
      </trkpt>
      <trkpt lat="43.18155" lon="6.49994">
        <ele>491.7</ele>
        <time>2024-02-04T11:52:47Z</time>
      </trkpt>
      <trkpt lat="43.18155" lon="6.49994">
        <ele>491.7</ele>
        <time>2024-02-04T11:52:48Z</time>
      </trkpt>
      <trkpt lat="43.18155" lon="6.49994">
        <ele>491.7</ele>
        <time>2024-02-04T11:52:49Z</time>
      </trkpt>
      <trkpt lat="43.18155" lon="6.49994">
        <ele>491.7</ele>
        <time>2024-02-04T11:52:50Z</time>
      </trkpt>
      <trkpt lat="43.18155" lon="6.49994">
        <ele>491.8</ele>
        <time>2024-02-04T11:52:51Z</time>
      </trkpt>
      <trkpt lat="43.18155" lon="6.49994">
        <ele>491.8</ele>
        <time>2024-02-04T11:52:52Z</time>
      </trkpt>
      <trkpt lat="43.18155" lon="6.49994">
        <ele>491.8</ele>
        <time>2024-02-04T11:52:53Z</time>
      </trkpt>
      <trkpt lat="43.18155" lon="6.49994">
        <ele>491.8</ele>
        <time>2024-02-04T11:52:54Z</time>
      </trkpt>
      <trkpt lat="43.18155" lon="6.49994">
        <ele>491.9</ele>
        <time>2024-02-04T11:52:55Z</time>
      </trkpt>
      <trkpt lat="43.18155" lon="6.49994">
        <ele>491.8</ele>
        <time>2024-02-04T11:52:56Z</time>
      </trkpt>
      <trkpt lat="43.18155" lon="6.49994">
        <ele>491.8</ele>
        <time>2024-02-04T11:52:57Z</time>
      </trkpt>
      <trkpt lat="43.18155" lon="6.49994">
        <ele>491.9</ele>
        <time>2024-02-04T11:52:58Z</time>
      </trkpt>
      <trkpt lat="43.18155" lon="6.49994">
        <ele>491.9</ele>
        <time>2024-02-04T11:52:59Z</time>
      </trkpt>
      <trkpt lat="43.18155" lon="6.49994">
        <ele>491.9</ele>
        <time>2024-02-04T11:53:00Z</time>
      </trkpt>
      <trkpt lat="43.18155" lon="6.49994">
        <ele>491.8</ele>
        <time>2024-02-04T11:53:01Z</time>
      </trkpt>
      <trkpt lat="43.18155" lon="6.49994">
        <ele>491.9</ele>
        <time>2024-02-04T11:53:02Z</time>
      </trkpt>
      <trkpt lat="43.18155" lon="6.49994">
        <ele>491.9</ele>
        <time>2024-02-04T11:53:03Z</time>
      </trkpt>
      <trkpt lat="43.18155" lon="6.49994">
        <ele>492</ele>
        <time>2024-02-04T11:53:04Z</time>
      </trkpt>
      <trkpt lat="43.18155" lon="6.49994">
        <ele>492</ele>
        <time>2024-02-04T11:53:05Z</time>
      </trkpt>
      <trkpt lat="43.18155" lon="6.49994">
        <ele>492</ele>
        <time>2024-02-04T11:53:06Z</time>
      </trkpt>
      <trkpt lat="43.18155" lon="6.49994">
        <ele>492</ele>
        <time>2024-02-04T11:53:07Z</time>
      </trkpt>
      <trkpt lat="43.18155" lon="6.49994">
        <ele>492</ele>
        <time>2024-02-04T11:53:08Z</time>
      </trkpt>
      <trkpt lat="43.18155" lon="6.49994">
        <ele>491.9</ele>
        <time>2024-02-04T11:53:09Z</time>
      </trkpt>
      <trkpt lat="43.18155" lon="6.49994">
        <ele>492</ele>
        <time>2024-02-04T11:53:10Z</time>
      </trkpt>
      <trkpt lat="43.18155" lon="6.49994">
        <ele>492</ele>
        <time>2024-02-04T11:53:11Z</time>
      </trkpt>
      <trkpt lat="43.18155" lon="6.49994">
        <ele>492</ele>
        <time>2024-02-04T11:53:12Z</time>
      </trkpt>
      <trkpt lat="43.18155" lon="6.49994">
        <ele>492</ele>
        <time>2024-02-04T11:53:13Z</time>
      </trkpt>
      <trkpt lat="43.18155" lon="6.49994">
        <ele>492</ele>
        <time>2024-02-04T11:53:14Z</time>
      </trkpt>
      <trkpt lat="43.18155" lon="6.49994">
        <ele>492</ele>
        <time>2024-02-04T11:53:15Z</time>
      </trkpt>
      <trkpt lat="43.18155" lon="6.49994">
        <ele>492</ele>
        <time>2024-02-04T11:53:16Z</time>
      </trkpt>
      <trkpt lat="43.18155" lon="6.49994">
        <ele>492.1</ele>
        <time>2024-02-04T11:53:17Z</time>
      </trkpt>
      <trkpt lat="43.18155" lon="6.49994">
        <ele>492.1</ele>
        <time>2024-02-04T11:53:18Z</time>
      </trkpt>
      <trkpt lat="43.18155" lon="6.49994">
        <ele>492.1</ele>
        <time>2024-02-04T11:53:19Z</time>
      </trkpt>
      <trkpt lat="43.18155" lon="6.49995">
        <ele>492.2</ele>
        <time>2024-02-04T11:53:20Z</time>
      </trkpt>
      <trkpt lat="43.18155" lon="6.49995">
        <ele>492.2</ele>
        <time>2024-02-04T11:53:21Z</time>
      </trkpt>
      <trkpt lat="43.18155" lon="6.49995">
        <ele>492.2</ele>
        <time>2024-02-04T11:53:22Z</time>
      </trkpt>
      <trkpt lat="43.18155" lon="6.49995">
        <ele>492.2</ele>
        <time>2024-02-04T11:53:23Z</time>
      </trkpt>
      <trkpt lat="43.18155" lon="6.49995">
        <ele>492.2</ele>
        <time>2024-02-04T11:53:24Z</time>
      </trkpt>
      <trkpt lat="43.18155" lon="6.49995">
        <ele>492.2</ele>
        <time>2024-02-04T11:53:25Z</time>
      </trkpt>
      <trkpt lat="43.18155" lon="6.49995">
        <ele>492.2</ele>
        <time>2024-02-04T11:53:26Z</time>
      </trkpt>
      <trkpt lat="43.18155" lon="6.49995">
        <ele>492.2</ele>
        <time>2024-02-04T11:53:27Z</time>
      </trkpt>
      <trkpt lat="43.18155" lon="6.49995">
        <ele>492.2</ele>
        <time>2024-02-04T11:53:28Z</time>
      </trkpt>
      <trkpt lat="43.18155" lon="6.49995">
        <ele>492.2</ele>
        <time>2024-02-04T11:53:29Z</time>
      </trkpt>
      <trkpt lat="43.18155" lon="6.49995">
        <ele>492.2</ele>
        <time>2024-02-04T11:53:30Z</time>
      </trkpt>
      <trkpt lat="43.18155" lon="6.49995">
        <ele>492.1</ele>
        <time>2024-02-04T11:53:31Z</time>
      </trkpt>
      <trkpt lat="43.18155" lon="6.49995">
        <ele>492.1</ele>
        <time>2024-02-04T11:53:32Z</time>
      </trkpt>
      <trkpt lat="43.18155" lon="6.49995">
        <ele>492.1</ele>
        <time>2024-02-04T11:53:33Z</time>
      </trkpt>
      <trkpt lat="43.18155" lon="6.49995">
        <ele>492.1</ele>
        <time>2024-02-04T11:53:34Z</time>
      </trkpt>
      <trkpt lat="43.18155" lon="6.49995">
        <ele>492.2</ele>
        <time>2024-02-04T11:53:35Z</time>
      </trkpt>
      <trkpt lat="43.18155" lon="6.49995">
        <ele>492.3</ele>
        <time>2024-02-04T11:53:36Z</time>
      </trkpt>
      <trkpt lat="43.18155" lon="6.49995">
        <ele>492.3</ele>
        <time>2024-02-04T11:53:37Z</time>
      </trkpt>
      <trkpt lat="43.18155" lon="6.49995">
        <ele>492.3</ele>
        <time>2024-02-04T11:53:38Z</time>
      </trkpt>
      <trkpt lat="43.18155" lon="6.49995">
        <ele>492.3</ele>
        <time>2024-02-04T11:53:39Z</time>
      </trkpt>
      <trkpt lat="43.18155" lon="6.49995">
        <ele>492.3</ele>
        <time>2024-02-04T11:53:40Z</time>
      </trkpt>
      <trkpt lat="43.18155" lon="6.49995">
        <ele>492.2</ele>
        <time>2024-02-04T11:53:41Z</time>
      </trkpt>
      <trkpt lat="43.18155" lon="6.49995">
        <ele>492.1</ele>
        <time>2024-02-04T11:53:42Z</time>
      </trkpt>
      <trkpt lat="43.18155" lon="6.49995">
        <ele>492</ele>
        <time>2024-02-04T11:53:43Z</time>
      </trkpt>
      <trkpt lat="43.18155" lon="6.49995">
        <ele>492</ele>
        <time>2024-02-04T11:53:44Z</time>
      </trkpt>
      <trkpt lat="43.18155" lon="6.49995">
        <ele>492</ele>
        <time>2024-02-04T11:53:45Z</time>
      </trkpt>
      <trkpt lat="43.18155" lon="6.49995">
        <ele>492</ele>
        <time>2024-02-04T11:53:46Z</time>
      </trkpt>
      <trkpt lat="43.18155" lon="6.49995">
        <ele>491.9</ele>
        <time>2024-02-04T11:53:47Z</time>
      </trkpt>
      <trkpt lat="43.18155" lon="6.49995">
        <ele>492</ele>
        <time>2024-02-04T11:53:48Z</time>
      </trkpt>
      <trkpt lat="43.18155" lon="6.49995">
        <ele>492</ele>
        <time>2024-02-04T11:53:49Z</time>
      </trkpt>
      <trkpt lat="43.18155" lon="6.49995">
        <ele>491.8</ele>
        <time>2024-02-04T11:53:50Z</time>
      </trkpt>
      <trkpt lat="43.18155" lon="6.49995">
        <ele>491.8</ele>
        <time>2024-02-04T11:53:51Z</time>
      </trkpt>
      <trkpt lat="43.18155" lon="6.49995">
        <ele>491.8</ele>
        <time>2024-02-04T11:53:52Z</time>
      </trkpt>
      <trkpt lat="43.18155" lon="6.49996">
        <ele>491.8</ele>
        <time>2024-02-04T11:53:53Z</time>
      </trkpt>
      <trkpt lat="43.18155" lon="6.49996">
        <ele>491.8</ele>
        <time>2024-02-04T11:53:54Z</time>
      </trkpt>
      <trkpt lat="43.18155" lon="6.49996">
        <ele>491.8</ele>
        <time>2024-02-04T11:53:55Z</time>
      </trkpt>
      <trkpt lat="43.18154" lon="6.49996">
        <ele>491.8</ele>
        <time>2024-02-04T11:53:56Z</time>
      </trkpt>
      <trkpt lat="43.18154" lon="6.49996">
        <ele>491.8</ele>
        <time>2024-02-04T11:53:57Z</time>
      </trkpt>
      <trkpt lat="43.18154" lon="6.49996">
        <ele>492</ele>
        <time>2024-02-04T11:53:58Z</time>
      </trkpt>
      <trkpt lat="43.18154" lon="6.49995">
        <ele>492</ele>
        <time>2024-02-04T11:53:59Z</time>
      </trkpt>
      <trkpt lat="43.18154" lon="6.49995">
        <ele>492</ele>
        <time>2024-02-04T11:54:00Z</time>
      </trkpt>
      <trkpt lat="43.18154" lon="6.49995">
        <ele>492</ele>
        <time>2024-02-04T11:54:01Z</time>
      </trkpt>
      <trkpt lat="43.18154" lon="6.49995">
        <ele>492.1</ele>
        <time>2024-02-04T11:54:02Z</time>
      </trkpt>
      <trkpt lat="43.18154" lon="6.49996">
        <ele>492.1</ele>
        <time>2024-02-04T11:54:03Z</time>
      </trkpt>
      <trkpt lat="43.18154" lon="6.49996">
        <ele>492.1</ele>
        <time>2024-02-04T11:54:04Z</time>
      </trkpt>
      <trkpt lat="43.18154" lon="6.49996">
        <ele>492.1</ele>
        <time>2024-02-04T11:54:05Z</time>
      </trkpt>
      <trkpt lat="43.18154" lon="6.49996">
        <ele>492.1</ele>
        <time>2024-02-04T11:54:06Z</time>
      </trkpt>
      <trkpt lat="43.18154" lon="6.49996">
        <ele>492.1</ele>
        <time>2024-02-04T11:54:07Z</time>
      </trkpt>
      <trkpt lat="43.18154" lon="6.49996">
        <ele>492.1</ele>
        <time>2024-02-04T11:54:08Z</time>
      </trkpt>
      <trkpt lat="43.18154" lon="6.49996">
        <ele>492.1</ele>
        <time>2024-02-04T11:54:09Z</time>
      </trkpt>
      <trkpt lat="43.18154" lon="6.49996">
        <ele>492.1</ele>
        <time>2024-02-04T11:54:10Z</time>
      </trkpt>
      <trkpt lat="43.18154" lon="6.49996">
        <ele>492.1</ele>
        <time>2024-02-04T11:54:11Z</time>
      </trkpt>
      <trkpt lat="43.18154" lon="6.49996">
        <ele>492.1</ele>
        <time>2024-02-04T11:54:12Z</time>
      </trkpt>
      <trkpt lat="43.18154" lon="6.49996">
        <ele>492.1</ele>
        <time>2024-02-04T11:54:13Z</time>
      </trkpt>
      <trkpt lat="43.18154" lon="6.49996">
        <ele>492.2</ele>
        <time>2024-02-04T11:54:14Z</time>
      </trkpt>
      <trkpt lat="43.18154" lon="6.49996">
        <ele>492.2</ele>
        <time>2024-02-04T11:54:15Z</time>
      </trkpt>
      <trkpt lat="43.18154" lon="6.49996">
        <ele>492.2</ele>
        <time>2024-02-04T11:54:16Z</time>
      </trkpt>
      <trkpt lat="43.18154" lon="6.49996">
        <ele>492.2</ele>
        <time>2024-02-04T11:54:17Z</time>
      </trkpt>
      <trkpt lat="43.18154" lon="6.49996">
        <ele>492.1</ele>
        <time>2024-02-04T11:54:18Z</time>
      </trkpt>
      <trkpt lat="43.18154" lon="6.49996">
        <ele>492.2</ele>
        <time>2024-02-04T11:54:19Z</time>
      </trkpt>
      <trkpt lat="43.18154" lon="6.49996">
        <ele>492.1</ele>
        <time>2024-02-04T11:54:20Z</time>
      </trkpt>
      <trkpt lat="43.18154" lon="6.49996">
        <ele>492</ele>
        <time>2024-02-04T11:54:21Z</time>
      </trkpt>
      <trkpt lat="43.18154" lon="6.49996">
        <ele>492.1</ele>
        <time>2024-02-04T11:54:22Z</time>
      </trkpt>
      <trkpt lat="43.18154" lon="6.49996">
        <ele>492.1</ele>
        <time>2024-02-04T11:54:23Z</time>
      </trkpt>
      <trkpt lat="43.18154" lon="6.49996">
        <ele>492.1</ele>
        <time>2024-02-04T11:54:24Z</time>
      </trkpt>
      <trkpt lat="43.18154" lon="6.49996">
        <ele>492.1</ele>
        <time>2024-02-04T11:54:25Z</time>
      </trkpt>
      <trkpt lat="43.18154" lon="6.49996">
        <ele>492.1</ele>
        <time>2024-02-04T11:54:26Z</time>
      </trkpt>
      <trkpt lat="43.18154" lon="6.49996">
        <ele>492.1</ele>
        <time>2024-02-04T11:54:27Z</time>
      </trkpt>
      <trkpt lat="43.18154" lon="6.49997">
        <ele>492</ele>
        <time>2024-02-04T11:54:28Z</time>
      </trkpt>
      <trkpt lat="43.18154" lon="6.49997">
        <ele>492</ele>
        <time>2024-02-04T11:54:29Z</time>
      </trkpt>
      <trkpt lat="43.18154" lon="6.49997">
        <ele>492</ele>
        <time>2024-02-04T11:54:30Z</time>
      </trkpt>
      <trkpt lat="43.18154" lon="6.49997">
        <ele>491.9</ele>
        <time>2024-02-04T11:54:31Z</time>
      </trkpt>
      <trkpt lat="43.18154" lon="6.49997">
        <ele>491.9</ele>
        <time>2024-02-04T11:54:32Z</time>
      </trkpt>
      <trkpt lat="43.18154" lon="6.49997">
        <ele>492</ele>
        <time>2024-02-04T11:54:33Z</time>
      </trkpt>
      <trkpt lat="43.18154" lon="6.49997">
        <ele>492</ele>
        <time>2024-02-04T11:54:34Z</time>
      </trkpt>
      <trkpt lat="43.18154" lon="6.49997">
        <ele>491.9</ele>
        <time>2024-02-04T11:54:35Z</time>
      </trkpt>
      <trkpt lat="43.18154" lon="6.49998">
        <ele>492</ele>
        <time>2024-02-04T11:54:36Z</time>
      </trkpt>
      <trkpt lat="43.18154" lon="6.49998">
        <ele>492.1</ele>
        <time>2024-02-04T11:54:37Z</time>
      </trkpt>
      <trkpt lat="43.18154" lon="6.49998">
        <ele>492.1</ele>
        <time>2024-02-04T11:54:38Z</time>
      </trkpt>
      <trkpt lat="43.18154" lon="6.49998">
        <ele>492.1</ele>
        <time>2024-02-04T11:54:39Z</time>
      </trkpt>
      <trkpt lat="43.18154" lon="6.49998">
        <ele>492.1</ele>
        <time>2024-02-04T11:54:40Z</time>
      </trkpt>
      <trkpt lat="43.18154" lon="6.49998">
        <ele>492.1</ele>
        <time>2024-02-04T11:54:41Z</time>
      </trkpt>
      <trkpt lat="43.18154" lon="6.49998">
        <ele>492.2</ele>
        <time>2024-02-04T11:54:42Z</time>
      </trkpt>
      <trkpt lat="43.18154" lon="6.49998">
        <ele>492.3</ele>
        <time>2024-02-04T11:54:43Z</time>
      </trkpt>
      <trkpt lat="43.18154" lon="6.49998">
        <ele>492.3</ele>
        <time>2024-02-04T11:54:44Z</time>
      </trkpt>
      <trkpt lat="43.18154" lon="6.49998">
        <ele>492.3</ele>
        <time>2024-02-04T11:54:45Z</time>
      </trkpt>
      <trkpt lat="43.18155" lon="6.49998">
        <ele>492.3</ele>
        <time>2024-02-04T11:54:46Z</time>
      </trkpt>
      <trkpt lat="43.18155" lon="6.49998">
        <ele>492.3</ele>
        <time>2024-02-04T11:54:47Z</time>
      </trkpt>
      <trkpt lat="43.18155" lon="6.49998">
        <ele>492.3</ele>
        <time>2024-02-04T11:54:48Z</time>
      </trkpt>
      <trkpt lat="43.18155" lon="6.49998">
        <ele>492.3</ele>
        <time>2024-02-04T11:54:49Z</time>
      </trkpt>
      <trkpt lat="43.18155" lon="6.49998">
        <ele>492.2</ele>
        <time>2024-02-04T11:54:50Z</time>
      </trkpt>
      <trkpt lat="43.18155" lon="6.49998">
        <ele>492.2</ele>
        <time>2024-02-04T11:54:51Z</time>
      </trkpt>
      <trkpt lat="43.18155" lon="6.49998">
        <ele>492.2</ele>
        <time>2024-02-04T11:54:52Z</time>
      </trkpt>
      <trkpt lat="43.18155" lon="6.49998">
        <ele>492.1</ele>
        <time>2024-02-04T11:54:53Z</time>
      </trkpt>
      <trkpt lat="43.18155" lon="6.49998">
        <ele>492.1</ele>
        <time>2024-02-04T11:54:54Z</time>
      </trkpt>
      <trkpt lat="43.18155" lon="6.49998">
        <ele>492</ele>
        <time>2024-02-04T11:54:55Z</time>
      </trkpt>
      <trkpt lat="43.18155" lon="6.49998">
        <ele>492</ele>
        <time>2024-02-04T11:54:56Z</time>
      </trkpt>
      <trkpt lat="43.18155" lon="6.49998">
        <ele>491.9</ele>
        <time>2024-02-04T11:54:57Z</time>
      </trkpt>
      <trkpt lat="43.18155" lon="6.49998">
        <ele>491.9</ele>
        <time>2024-02-04T11:54:58Z</time>
      </trkpt>
      <trkpt lat="43.18154" lon="6.49998">
        <ele>492</ele>
        <time>2024-02-04T11:54:59Z</time>
      </trkpt>
      <trkpt lat="43.18154" lon="6.49998">
        <ele>491.9</ele>
        <time>2024-02-04T11:55:00Z</time>
      </trkpt>
      <trkpt lat="43.18154" lon="6.49998">
        <ele>491.9</ele>
        <time>2024-02-04T11:55:01Z</time>
      </trkpt>
      <trkpt lat="43.18154" lon="6.49998">
        <ele>491.9</ele>
        <time>2024-02-04T11:55:02Z</time>
      </trkpt>
      <trkpt lat="43.18154" lon="6.49998">
        <ele>492</ele>
        <time>2024-02-04T11:55:03Z</time>
      </trkpt>
      <trkpt lat="43.18154" lon="6.49998">
        <ele>492.1</ele>
        <time>2024-02-04T11:55:04Z</time>
      </trkpt>
      <trkpt lat="43.18154" lon="6.49998">
        <ele>492.1</ele>
        <time>2024-02-04T11:55:05Z</time>
      </trkpt>
      <trkpt lat="43.18154" lon="6.49998">
        <ele>492.2</ele>
        <time>2024-02-04T11:55:06Z</time>
      </trkpt>
      <trkpt lat="43.18154" lon="6.49998">
        <ele>492.2</ele>
        <time>2024-02-04T11:55:07Z</time>
      </trkpt>
      <trkpt lat="43.18154" lon="6.49998">
        <ele>492.2</ele>
        <time>2024-02-04T11:55:08Z</time>
      </trkpt>
      <trkpt lat="43.18154" lon="6.49998">
        <ele>492.2</ele>
        <time>2024-02-04T11:55:09Z</time>
      </trkpt>
      <trkpt lat="43.18154" lon="6.49998">
        <ele>492.2</ele>
        <time>2024-02-04T11:55:10Z</time>
      </trkpt>
      <trkpt lat="43.18154" lon="6.49998">
        <ele>492.1</ele>
        <time>2024-02-04T11:55:11Z</time>
      </trkpt>
      <trkpt lat="43.18154" lon="6.49998">
        <ele>492.1</ele>
        <time>2024-02-04T11:55:12Z</time>
      </trkpt>
      <trkpt lat="43.18155" lon="6.49998">
        <ele>492.1</ele>
        <time>2024-02-04T11:55:13Z</time>
      </trkpt>
      <trkpt lat="43.18155" lon="6.49998">
        <ele>492.1</ele>
        <time>2024-02-04T11:55:14Z</time>
      </trkpt>
      <trkpt lat="43.18155" lon="6.49998">
        <ele>492.1</ele>
        <time>2024-02-04T11:55:15Z</time>
      </trkpt>
      <trkpt lat="43.18155" lon="6.49998">
        <ele>492.2</ele>
        <time>2024-02-04T11:55:16Z</time>
      </trkpt>
      <trkpt lat="43.18155" lon="6.49998">
        <ele>492.1</ele>
        <time>2024-02-04T11:55:17Z</time>
      </trkpt>
      <trkpt lat="43.18155" lon="6.49998">
        <ele>492.1</ele>
        <time>2024-02-04T11:55:18Z</time>
      </trkpt>
      <trkpt lat="43.18155" lon="6.49998">
        <ele>492.1</ele>
        <time>2024-02-04T11:55:19Z</time>
      </trkpt>
      <trkpt lat="43.18155" lon="6.49998">
        <ele>492.2</ele>
        <time>2024-02-04T11:55:20Z</time>
      </trkpt>
      <trkpt lat="43.18155" lon="6.49998">
        <ele>492.2</ele>
        <time>2024-02-04T11:55:21Z</time>
      </trkpt>
      <trkpt lat="43.18155" lon="6.49998">
        <ele>492.2</ele>
        <time>2024-02-04T11:55:22Z</time>
      </trkpt>
      <trkpt lat="43.18155" lon="6.49998">
        <ele>492.2</ele>
        <time>2024-02-04T11:55:23Z</time>
      </trkpt>
      <trkpt lat="43.18155" lon="6.49998">
        <ele>492.2</ele>
        <time>2024-02-04T11:55:24Z</time>
      </trkpt>
      <trkpt lat="43.18155" lon="6.49998">
        <ele>492.3</ele>
        <time>2024-02-04T11:55:25Z</time>
      </trkpt>
      <trkpt lat="43.18155" lon="6.49998">
        <ele>492.3</ele>
        <time>2024-02-04T11:55:26Z</time>
      </trkpt>
      <trkpt lat="43.18155" lon="6.49998">
        <ele>492.3</ele>
        <time>2024-02-04T11:55:27Z</time>
      </trkpt>
      <trkpt lat="43.18155" lon="6.49999">
        <ele>492.3</ele>
        <time>2024-02-04T11:55:28Z</time>
      </trkpt>
      <trkpt lat="43.18155" lon="6.49999">
        <ele>492.4</ele>
        <time>2024-02-04T11:55:29Z</time>
      </trkpt>
      <trkpt lat="43.18155" lon="6.49999">
        <ele>492.3</ele>
        <time>2024-02-04T11:55:30Z</time>
      </trkpt>
      <trkpt lat="43.18155" lon="6.49999">
        <ele>492.3</ele>
        <time>2024-02-04T11:55:31Z</time>
      </trkpt>
      <trkpt lat="43.18155" lon="6.49999">
        <ele>492.3</ele>
        <time>2024-02-04T11:55:32Z</time>
      </trkpt>
      <trkpt lat="43.18155" lon="6.49999">
        <ele>492.3</ele>
        <time>2024-02-04T11:55:33Z</time>
      </trkpt>
      <trkpt lat="43.18155" lon="6.49999">
        <ele>492.2</ele>
        <time>2024-02-04T11:55:34Z</time>
      </trkpt>
      <trkpt lat="43.18155" lon="6.49999">
        <ele>492.1</ele>
        <time>2024-02-04T11:55:35Z</time>
      </trkpt>
      <trkpt lat="43.18155" lon="6.49999">
        <ele>492.1</ele>
        <time>2024-02-04T11:55:36Z</time>
      </trkpt>
      <trkpt lat="43.18155" lon="6.49999">
        <ele>492.1</ele>
        <time>2024-02-04T11:55:37Z</time>
      </trkpt>
      <trkpt lat="43.18155" lon="6.49999">
        <ele>492.1</ele>
        <time>2024-02-04T11:55:38Z</time>
      </trkpt>
      <trkpt lat="43.18154" lon="6.49999">
        <ele>492.1</ele>
        <time>2024-02-04T11:55:39Z</time>
      </trkpt>
      <trkpt lat="43.18154" lon="6.49999">
        <ele>492.1</ele>
        <time>2024-02-04T11:55:40Z</time>
      </trkpt>
      <trkpt lat="43.18154" lon="6.49999">
        <ele>492</ele>
        <time>2024-02-04T11:55:41Z</time>
      </trkpt>
      <trkpt lat="43.18154" lon="6.49998">
        <ele>491.9</ele>
        <time>2024-02-04T11:55:42Z</time>
      </trkpt>
      <trkpt lat="43.18154" lon="6.49998">
        <ele>491.9</ele>
        <time>2024-02-04T11:55:43Z</time>
      </trkpt>
      <trkpt lat="43.18154" lon="6.49998">
        <ele>491.9</ele>
        <time>2024-02-04T11:55:44Z</time>
      </trkpt>
      <trkpt lat="43.18154" lon="6.49998">
        <ele>491.9</ele>
        <time>2024-02-04T11:55:45Z</time>
      </trkpt>
      <trkpt lat="43.18154" lon="6.49998">
        <ele>491.9</ele>
        <time>2024-02-04T11:55:46Z</time>
      </trkpt>
      <trkpt lat="43.18154" lon="6.49998">
        <ele>491.9</ele>
        <time>2024-02-04T11:55:47Z</time>
      </trkpt>
      <trkpt lat="43.18154" lon="6.49998">
        <ele>492</ele>
        <time>2024-02-04T11:55:48Z</time>
      </trkpt>
      <trkpt lat="43.18154" lon="6.49998">
        <ele>492</ele>
        <time>2024-02-04T11:55:49Z</time>
      </trkpt>
      <trkpt lat="43.18154" lon="6.49998">
        <ele>492.1</ele>
        <time>2024-02-04T11:55:50Z</time>
      </trkpt>
      <trkpt lat="43.18154" lon="6.49998">
        <ele>492.2</ele>
        <time>2024-02-04T11:55:51Z</time>
      </trkpt>
      <trkpt lat="43.18154" lon="6.49998">
        <ele>492.2</ele>
        <time>2024-02-04T11:55:52Z</time>
      </trkpt>
      <trkpt lat="43.18154" lon="6.49998">
        <ele>492.3</ele>
        <time>2024-02-04T11:55:53Z</time>
      </trkpt>
      <trkpt lat="43.18154" lon="6.49998">
        <ele>492.3</ele>
        <time>2024-02-04T11:55:54Z</time>
      </trkpt>
      <trkpt lat="43.18154" lon="6.49998">
        <ele>492.3</ele>
        <time>2024-02-04T11:55:55Z</time>
      </trkpt>
      <trkpt lat="43.18154" lon="6.49998">
        <ele>492.3</ele>
        <time>2024-02-04T11:55:56Z</time>
      </trkpt>
      <trkpt lat="43.18154" lon="6.49998">
        <ele>492.3</ele>
        <time>2024-02-04T11:55:57Z</time>
      </trkpt>
      <trkpt lat="43.18154" lon="6.49998">
        <ele>492.3</ele>
        <time>2024-02-04T11:55:58Z</time>
      </trkpt>
      <trkpt lat="43.18154" lon="6.49998">
        <ele>492.3</ele>
        <time>2024-02-04T11:55:59Z</time>
      </trkpt>
      <trkpt lat="43.18154" lon="6.49998">
        <ele>492.4</ele>
        <time>2024-02-04T11:56:00Z</time>
      </trkpt>
      <trkpt lat="43.18154" lon="6.49998">
        <ele>492.4</ele>
        <time>2024-02-04T11:56:01Z</time>
      </trkpt>
      <trkpt lat="43.18154" lon="6.49997">
        <ele>492.4</ele>
        <time>2024-02-04T11:56:02Z</time>
      </trkpt>
      <trkpt lat="43.18154" lon="6.49997">
        <ele>492.4</ele>
        <time>2024-02-04T11:56:03Z</time>
      </trkpt>
      <trkpt lat="43.18154" lon="6.49997">
        <ele>492.4</ele>
        <time>2024-02-04T11:56:04Z</time>
      </trkpt>
      <trkpt lat="43.18154" lon="6.49997">
        <ele>492.3</ele>
        <time>2024-02-04T11:56:05Z</time>
      </trkpt>
      <trkpt lat="43.18154" lon="6.49997">
        <ele>492.2</ele>
        <time>2024-02-04T11:56:06Z</time>
      </trkpt>
      <trkpt lat="43.18154" lon="6.49997">
        <ele>492.2</ele>
        <time>2024-02-04T11:56:07Z</time>
      </trkpt>
      <trkpt lat="43.18154" lon="6.49997">
        <ele>492.3</ele>
        <time>2024-02-04T11:56:08Z</time>
      </trkpt>
      <trkpt lat="43.18154" lon="6.49997">
        <ele>492.2</ele>
        <time>2024-02-04T11:56:09Z</time>
      </trkpt>
      <trkpt lat="43.18154" lon="6.49997">
        <ele>492.2</ele>
        <time>2024-02-04T11:56:10Z</time>
      </trkpt>
      <trkpt lat="43.18154" lon="6.49997">
        <ele>492.2</ele>
        <time>2024-02-04T11:56:11Z</time>
      </trkpt>
      <trkpt lat="43.18154" lon="6.49997">
        <ele>492.2</ele>
        <time>2024-02-04T11:56:12Z</time>
      </trkpt>
      <trkpt lat="43.18154" lon="6.49997">
        <ele>492.2</ele>
        <time>2024-02-04T11:56:13Z</time>
      </trkpt>
      <trkpt lat="43.18154" lon="6.49997">
        <ele>492.2</ele>
        <time>2024-02-04T11:56:14Z</time>
      </trkpt>
      <trkpt lat="43.18154" lon="6.49997">
        <ele>492.2</ele>
        <time>2024-02-04T11:56:15Z</time>
      </trkpt>
      <trkpt lat="43.18154" lon="6.49997">
        <ele>492.2</ele>
        <time>2024-02-04T11:56:16Z</time>
      </trkpt>
      <trkpt lat="43.18154" lon="6.49997">
        <ele>492.2</ele>
        <time>2024-02-04T11:56:17Z</time>
      </trkpt>
      <trkpt lat="43.18154" lon="6.49997">
        <ele>492.2</ele>
        <time>2024-02-04T11:56:18Z</time>
      </trkpt>
      <trkpt lat="43.18154" lon="6.49997">
        <ele>492.2</ele>
        <time>2024-02-04T11:56:19Z</time>
      </trkpt>
      <trkpt lat="43.18154" lon="6.49997">
        <ele>492.2</ele>
        <time>2024-02-04T11:56:20Z</time>
      </trkpt>
      <trkpt lat="43.18154" lon="6.49996">
        <ele>492.2</ele>
        <time>2024-02-04T11:56:21Z</time>
      </trkpt>
      <trkpt lat="43.18154" lon="6.49996">
        <ele>492.2</ele>
        <time>2024-02-04T11:56:22Z</time>
      </trkpt>
      <trkpt lat="43.18154" lon="6.49996">
        <ele>492.1</ele>
        <time>2024-02-04T11:56:23Z</time>
      </trkpt>
      <trkpt lat="43.18154" lon="6.49996">
        <ele>492.1</ele>
        <time>2024-02-04T11:56:24Z</time>
      </trkpt>
      <trkpt lat="43.18154" lon="6.49996">
        <ele>492</ele>
        <time>2024-02-04T11:56:25Z</time>
      </trkpt>
      <trkpt lat="43.18154" lon="6.49996">
        <ele>492</ele>
        <time>2024-02-04T11:56:26Z</time>
      </trkpt>
      <trkpt lat="43.18154" lon="6.49996">
        <ele>492</ele>
        <time>2024-02-04T11:56:27Z</time>
      </trkpt>
      <trkpt lat="43.18154" lon="6.49996">
        <ele>492</ele>
        <time>2024-02-04T11:56:28Z</time>
      </trkpt>
      <trkpt lat="43.18154" lon="6.49996">
        <ele>492</ele>
        <time>2024-02-04T11:56:29Z</time>
      </trkpt>
      <trkpt lat="43.18154" lon="6.49996">
        <ele>492</ele>
        <time>2024-02-04T11:56:30Z</time>
      </trkpt>
      <trkpt lat="43.18154" lon="6.49996">
        <ele>492</ele>
        <time>2024-02-04T11:56:31Z</time>
      </trkpt>
      <trkpt lat="43.18154" lon="6.49996">
        <ele>492</ele>
        <time>2024-02-04T11:56:32Z</time>
      </trkpt>
      <trkpt lat="43.18154" lon="6.49996">
        <ele>492</ele>
        <time>2024-02-04T11:56:33Z</time>
      </trkpt>
      <trkpt lat="43.18154" lon="6.49996">
        <ele>492</ele>
        <time>2024-02-04T11:56:34Z</time>
      </trkpt>
      <trkpt lat="43.18154" lon="6.49996">
        <ele>492</ele>
        <time>2024-02-04T11:56:35Z</time>
      </trkpt>
      <trkpt lat="43.18155" lon="6.49996">
        <ele>492</ele>
        <time>2024-02-04T11:56:36Z</time>
      </trkpt>
      <trkpt lat="43.18155" lon="6.49996">
        <ele>491.9</ele>
        <time>2024-02-04T11:56:37Z</time>
      </trkpt>
      <trkpt lat="43.18155" lon="6.49996">
        <ele>491.9</ele>
        <time>2024-02-04T11:56:38Z</time>
      </trkpt>
      <trkpt lat="43.18155" lon="6.49996">
        <ele>491.9</ele>
        <time>2024-02-04T11:56:39Z</time>
      </trkpt>
      <trkpt lat="43.18155" lon="6.49996">
        <ele>492</ele>
        <time>2024-02-04T11:56:40Z</time>
      </trkpt>
      <trkpt lat="43.18155" lon="6.49996">
        <ele>492.1</ele>
        <time>2024-02-04T11:56:41Z</time>
      </trkpt>
      <trkpt lat="43.18155" lon="6.49996">
        <ele>492.1</ele>
        <time>2024-02-04T11:56:42Z</time>
      </trkpt>
      <trkpt lat="43.18155" lon="6.49996">
        <ele>492.1</ele>
        <time>2024-02-04T11:56:43Z</time>
      </trkpt>
      <trkpt lat="43.18155" lon="6.49996">
        <ele>492</ele>
        <time>2024-02-04T11:56:44Z</time>
      </trkpt>
      <trkpt lat="43.18155" lon="6.49996">
        <ele>492</ele>
        <time>2024-02-04T11:56:45Z</time>
      </trkpt>
      <trkpt lat="43.18155" lon="6.49996">
        <ele>491.9</ele>
        <time>2024-02-04T11:56:46Z</time>
      </trkpt>
      <trkpt lat="43.18155" lon="6.49996">
        <ele>491.9</ele>
        <time>2024-02-04T11:56:47Z</time>
      </trkpt>
      <trkpt lat="43.18155" lon="6.49995">
        <ele>491.8</ele>
        <time>2024-02-04T11:56:48Z</time>
      </trkpt>
      <trkpt lat="43.18155" lon="6.49995">
        <ele>491.8</ele>
        <time>2024-02-04T11:56:49Z</time>
      </trkpt>
      <trkpt lat="43.18155" lon="6.49995">
        <ele>491.8</ele>
        <time>2024-02-04T11:56:50Z</time>
      </trkpt>
      <trkpt lat="43.18155" lon="6.49995">
        <ele>491.8</ele>
        <time>2024-02-04T11:56:51Z</time>
      </trkpt>
      <trkpt lat="43.18155" lon="6.49995">
        <ele>491.8</ele>
        <time>2024-02-04T11:56:52Z</time>
      </trkpt>
      <trkpt lat="43.18155" lon="6.49995">
        <ele>491.8</ele>
        <time>2024-02-04T11:56:53Z</time>
      </trkpt>
      <trkpt lat="43.18155" lon="6.49995">
        <ele>491.7</ele>
        <time>2024-02-04T11:56:54Z</time>
      </trkpt>
      <trkpt lat="43.18155" lon="6.49995">
        <ele>491.7</ele>
        <time>2024-02-04T11:56:55Z</time>
      </trkpt>
      <trkpt lat="43.18155" lon="6.49996">
        <ele>491.7</ele>
        <time>2024-02-04T11:56:56Z</time>
      </trkpt>
      <trkpt lat="43.18155" lon="6.49996">
        <ele>491.7</ele>
        <time>2024-02-04T11:56:57Z</time>
      </trkpt>
      <trkpt lat="43.18155" lon="6.49996">
        <ele>491.8</ele>
        <time>2024-02-04T11:56:58Z</time>
      </trkpt>
      <trkpt lat="43.18155" lon="6.49996">
        <ele>491.8</ele>
        <time>2024-02-04T11:56:59Z</time>
      </trkpt>
      <trkpt lat="43.18155" lon="6.49996">
        <ele>491.9</ele>
        <time>2024-02-04T11:57:00Z</time>
      </trkpt>
      <trkpt lat="43.18155" lon="6.49996">
        <ele>492</ele>
        <time>2024-02-04T11:57:01Z</time>
      </trkpt>
      <trkpt lat="43.18155" lon="6.49996">
        <ele>492</ele>
        <time>2024-02-04T11:57:02Z</time>
      </trkpt>
      <trkpt lat="43.18155" lon="6.49996">
        <ele>492</ele>
        <time>2024-02-04T11:57:03Z</time>
      </trkpt>
      <trkpt lat="43.18155" lon="6.49996">
        <ele>492</ele>
        <time>2024-02-04T11:57:04Z</time>
      </trkpt>
      <trkpt lat="43.18155" lon="6.49996">
        <ele>491.9</ele>
        <time>2024-02-04T11:57:05Z</time>
      </trkpt>
      <trkpt lat="43.18155" lon="6.49996">
        <ele>491.7</ele>
        <time>2024-02-04T11:57:06Z</time>
      </trkpt>
      <trkpt lat="43.18155" lon="6.49996">
        <ele>491.7</ele>
        <time>2024-02-04T11:57:07Z</time>
      </trkpt>
      <trkpt lat="43.18155" lon="6.49996">
        <ele>491.9</ele>
        <time>2024-02-04T11:57:08Z</time>
      </trkpt>
      <trkpt lat="43.18155" lon="6.49996">
        <ele>491.7</ele>
        <time>2024-02-04T11:57:09Z</time>
      </trkpt>
      <trkpt lat="43.18155" lon="6.49996">
        <ele>491.7</ele>
        <time>2024-02-04T11:57:10Z</time>
      </trkpt>
      <trkpt lat="43.18155" lon="6.49996">
        <ele>491.6</ele>
        <time>2024-02-04T11:57:11Z</time>
      </trkpt>
      <trkpt lat="43.18155" lon="6.49996">
        <ele>491.6</ele>
        <time>2024-02-04T11:57:12Z</time>
      </trkpt>
      <trkpt lat="43.18155" lon="6.49996">
        <ele>491.6</ele>
        <time>2024-02-04T11:57:13Z</time>
      </trkpt>
      <trkpt lat="43.18155" lon="6.49996">
        <ele>491.6</ele>
        <time>2024-02-04T11:57:14Z</time>
      </trkpt>
      <trkpt lat="43.18155" lon="6.49996">
        <ele>491.5</ele>
        <time>2024-02-04T11:57:15Z</time>
      </trkpt>
      <trkpt lat="43.18155" lon="6.49996">
        <ele>491.6</ele>
        <time>2024-02-04T11:57:16Z</time>
      </trkpt>
      <trkpt lat="43.18155" lon="6.49996">
        <ele>491.6</ele>
        <time>2024-02-04T11:57:17Z</time>
      </trkpt>
      <trkpt lat="43.18155" lon="6.49997">
        <ele>491.6</ele>
        <time>2024-02-04T11:57:18Z</time>
      </trkpt>
      <trkpt lat="43.18155" lon="6.49997">
        <ele>491.6</ele>
        <time>2024-02-04T11:57:19Z</time>
      </trkpt>
      <trkpt lat="43.18155" lon="6.49997">
        <ele>491.6</ele>
        <time>2024-02-04T11:57:20Z</time>
      </trkpt>
      <trkpt lat="43.18155" lon="6.49997">
        <ele>491.5</ele>
        <time>2024-02-04T11:57:21Z</time>
      </trkpt>
      <trkpt lat="43.18155" lon="6.49997">
        <ele>491.5</ele>
        <time>2024-02-04T11:57:22Z</time>
      </trkpt>
      <trkpt lat="43.18155" lon="6.49997">
        <ele>491.5</ele>
        <time>2024-02-04T11:57:23Z</time>
      </trkpt>
      <trkpt lat="43.18155" lon="6.49997">
        <ele>491.5</ele>
        <time>2024-02-04T11:57:24Z</time>
      </trkpt>
      <trkpt lat="43.18155" lon="6.49997">
        <ele>491.5</ele>
        <time>2024-02-04T11:57:25Z</time>
      </trkpt>
      <trkpt lat="43.18155" lon="6.49997">
        <ele>491.7</ele>
        <time>2024-02-04T11:57:26Z</time>
      </trkpt>
      <trkpt lat="43.18155" lon="6.49997">
        <ele>491.8</ele>
        <time>2024-02-04T11:57:27Z</time>
      </trkpt>
      <trkpt lat="43.18156" lon="6.49997">
        <ele>491.8</ele>
        <time>2024-02-04T11:57:28Z</time>
      </trkpt>
      <trkpt lat="43.18156" lon="6.49997">
        <ele>491.9</ele>
        <time>2024-02-04T11:57:29Z</time>
      </trkpt>
      <trkpt lat="43.18156" lon="6.49997">
        <ele>491.9</ele>
        <time>2024-02-04T11:57:30Z</time>
      </trkpt>
      <trkpt lat="43.18156" lon="6.49997">
        <ele>491.9</ele>
        <time>2024-02-04T11:57:31Z</time>
      </trkpt>
      <trkpt lat="43.18156" lon="6.49997">
        <ele>491.9</ele>
        <time>2024-02-04T11:57:32Z</time>
      </trkpt>
      <trkpt lat="43.18156" lon="6.49997">
        <ele>491.9</ele>
        <time>2024-02-04T11:57:33Z</time>
      </trkpt>
      <trkpt lat="43.18156" lon="6.49997">
        <ele>491.9</ele>
        <time>2024-02-04T11:57:34Z</time>
      </trkpt>
      <trkpt lat="43.18156" lon="6.49997">
        <ele>491.9</ele>
        <time>2024-02-04T11:57:35Z</time>
      </trkpt>
      <trkpt lat="43.18156" lon="6.49997">
        <ele>491.9</ele>
        <time>2024-02-04T11:57:36Z</time>
      </trkpt>
      <trkpt lat="43.18156" lon="6.49997">
        <ele>491.9</ele>
        <time>2024-02-04T11:57:37Z</time>
      </trkpt>
      <trkpt lat="43.18156" lon="6.49997">
        <ele>491.9</ele>
        <time>2024-02-04T11:57:38Z</time>
      </trkpt>
      <trkpt lat="43.18156" lon="6.49997">
        <ele>492</ele>
        <time>2024-02-04T11:57:39Z</time>
      </trkpt>
      <trkpt lat="43.18156" lon="6.49997">
        <ele>492</ele>
        <time>2024-02-04T11:57:40Z</time>
      </trkpt>
      <trkpt lat="43.18156" lon="6.49997">
        <ele>492</ele>
        <time>2024-02-04T11:57:41Z</time>
      </trkpt>
      <trkpt lat="43.18156" lon="6.49997">
        <ele>491.9</ele>
        <time>2024-02-04T11:57:42Z</time>
      </trkpt>
      <trkpt lat="43.18156" lon="6.49997">
        <ele>491.9</ele>
        <time>2024-02-04T11:57:43Z</time>
      </trkpt>
      <trkpt lat="43.18156" lon="6.49997">
        <ele>491.8</ele>
        <time>2024-02-04T11:57:44Z</time>
      </trkpt>
      <trkpt lat="43.18156" lon="6.49997">
        <ele>491.8</ele>
        <time>2024-02-04T11:57:45Z</time>
      </trkpt>
      <trkpt lat="43.18156" lon="6.49998">
        <ele>491.8</ele>
        <time>2024-02-04T11:57:46Z</time>
      </trkpt>
      <trkpt lat="43.18156" lon="6.49998">
        <ele>491.8</ele>
        <time>2024-02-04T11:57:47Z</time>
      </trkpt>
      <trkpt lat="43.18156" lon="6.49998">
        <ele>491.8</ele>
        <time>2024-02-04T11:57:48Z</time>
      </trkpt>
      <trkpt lat="43.18156" lon="6.49998">
        <ele>491.8</ele>
        <time>2024-02-04T11:57:49Z</time>
      </trkpt>
      <trkpt lat="43.18156" lon="6.49998">
        <ele>491.9</ele>
        <time>2024-02-04T11:57:50Z</time>
      </trkpt>
      <trkpt lat="43.18156" lon="6.49998">
        <ele>491.9</ele>
        <time>2024-02-04T11:57:51Z</time>
      </trkpt>
      <trkpt lat="43.18156" lon="6.49998">
        <ele>491.9</ele>
        <time>2024-02-04T11:57:52Z</time>
      </trkpt>
      <trkpt lat="43.18156" lon="6.49998">
        <ele>491.9</ele>
        <time>2024-02-04T11:57:53Z</time>
      </trkpt>
      <trkpt lat="43.18156" lon="6.49998">
        <ele>491.8</ele>
        <time>2024-02-04T11:57:54Z</time>
      </trkpt>
      <trkpt lat="43.18156" lon="6.49998">
        <ele>491.8</ele>
        <time>2024-02-04T11:57:55Z</time>
      </trkpt>
      <trkpt lat="43.18156" lon="6.49998">
        <ele>491.8</ele>
        <time>2024-02-04T11:57:56Z</time>
      </trkpt>
      <trkpt lat="43.18156" lon="6.49998">
        <ele>491.9</ele>
        <time>2024-02-04T11:57:57Z</time>
      </trkpt>
      <trkpt lat="43.18156" lon="6.49998">
        <ele>491.8</ele>
        <time>2024-02-04T11:57:58Z</time>
      </trkpt>
      <trkpt lat="43.18156" lon="6.49998">
        <ele>491.8</ele>
        <time>2024-02-04T11:57:59Z</time>
      </trkpt>
      <trkpt lat="43.18156" lon="6.49998">
        <ele>491.8</ele>
        <time>2024-02-04T11:58:00Z</time>
      </trkpt>
      <trkpt lat="43.18156" lon="6.49998">
        <ele>491.9</ele>
        <time>2024-02-04T11:58:01Z</time>
      </trkpt>
      <trkpt lat="43.18156" lon="6.49998">
        <ele>491.9</ele>
        <time>2024-02-04T11:58:02Z</time>
      </trkpt>
      <trkpt lat="43.18156" lon="6.49998">
        <ele>491.9</ele>
        <time>2024-02-04T11:58:03Z</time>
      </trkpt>
      <trkpt lat="43.18156" lon="6.49998">
        <ele>491.9</ele>
        <time>2024-02-04T11:58:04Z</time>
      </trkpt>
      <trkpt lat="43.18156" lon="6.49998">
        <ele>491.8</ele>
        <time>2024-02-04T11:58:05Z</time>
      </trkpt>
      <trkpt lat="43.18156" lon="6.49998">
        <ele>491.6</ele>
        <time>2024-02-04T11:58:06Z</time>
      </trkpt>
      <trkpt lat="43.18156" lon="6.49998">
        <ele>491.6</ele>
        <time>2024-02-04T11:58:07Z</time>
      </trkpt>
      <trkpt lat="43.18156" lon="6.49998">
        <ele>491.6</ele>
        <time>2024-02-04T11:58:08Z</time>
      </trkpt>
      <trkpt lat="43.18156" lon="6.49998">
        <ele>491.5</ele>
        <time>2024-02-04T11:58:09Z</time>
      </trkpt>
      <trkpt lat="43.18156" lon="6.49998">
        <ele>491.5</ele>
        <time>2024-02-04T11:58:10Z</time>
      </trkpt>
      <trkpt lat="43.18156" lon="6.49998">
        <ele>491.4</ele>
        <time>2024-02-04T11:58:11Z</time>
      </trkpt>
      <trkpt lat="43.18156" lon="6.49998">
        <ele>491.4</ele>
        <time>2024-02-04T11:58:12Z</time>
      </trkpt>
      <trkpt lat="43.18156" lon="6.49998">
        <ele>491.5</ele>
        <time>2024-02-04T11:58:13Z</time>
      </trkpt>
      <trkpt lat="43.18156" lon="6.49998">
        <ele>491.5</ele>
        <time>2024-02-04T11:58:14Z</time>
      </trkpt>
      <trkpt lat="43.18156" lon="6.49998">
        <ele>491.5</ele>
        <time>2024-02-04T11:58:15Z</time>
      </trkpt>
      <trkpt lat="43.18156" lon="6.49998">
        <ele>491.5</ele>
        <time>2024-02-04T11:58:16Z</time>
      </trkpt>
      <trkpt lat="43.18156" lon="6.49998">
        <ele>491.4</ele>
        <time>2024-02-04T11:58:17Z</time>
      </trkpt>
      <trkpt lat="43.18156" lon="6.49998">
        <ele>491.3</ele>
        <time>2024-02-04T11:58:18Z</time>
      </trkpt>
      <trkpt lat="43.18156" lon="6.49998">
        <ele>491.3</ele>
        <time>2024-02-04T11:58:19Z</time>
      </trkpt>
      <trkpt lat="43.18156" lon="6.49998">
        <ele>491.3</ele>
        <time>2024-02-04T11:58:20Z</time>
      </trkpt>
      <trkpt lat="43.18156" lon="6.49998">
        <ele>491.4</ele>
        <time>2024-02-04T11:58:21Z</time>
      </trkpt>
      <trkpt lat="43.18156" lon="6.49998">
        <ele>491.4</ele>
        <time>2024-02-04T11:58:22Z</time>
      </trkpt>
      <trkpt lat="43.18156" lon="6.49998">
        <ele>491.5</ele>
        <time>2024-02-04T11:58:23Z</time>
      </trkpt>
      <trkpt lat="43.18156" lon="6.49998">
        <ele>491.5</ele>
        <time>2024-02-04T11:58:24Z</time>
      </trkpt>
      <trkpt lat="43.18156" lon="6.49998">
        <ele>491.5</ele>
        <time>2024-02-04T11:58:25Z</time>
      </trkpt>
      <trkpt lat="43.18156" lon="6.49998">
        <ele>491.5</ele>
        <time>2024-02-04T11:58:26Z</time>
      </trkpt>
      <trkpt lat="43.18156" lon="6.49998">
        <ele>491.5</ele>
        <time>2024-02-04T11:58:27Z</time>
      </trkpt>
      <trkpt lat="43.18156" lon="6.49998">
        <ele>491.5</ele>
        <time>2024-02-04T11:58:28Z</time>
      </trkpt>
      <trkpt lat="43.18156" lon="6.49998">
        <ele>491.5</ele>
        <time>2024-02-04T11:58:29Z</time>
      </trkpt>
      <trkpt lat="43.18156" lon="6.49998">
        <ele>491.5</ele>
        <time>2024-02-04T11:58:30Z</time>
      </trkpt>
      <trkpt lat="43.18157" lon="6.49998">
        <ele>491.5</ele>
        <time>2024-02-04T11:58:31Z</time>
      </trkpt>
      <trkpt lat="43.18157" lon="6.49998">
        <ele>491.5</ele>
        <time>2024-02-04T11:58:32Z</time>
      </trkpt>
      <trkpt lat="43.18157" lon="6.49998">
        <ele>491.5</ele>
        <time>2024-02-04T11:58:33Z</time>
      </trkpt>
      <trkpt lat="43.18157" lon="6.49998">
        <ele>491.5</ele>
        <time>2024-02-04T11:58:34Z</time>
      </trkpt>
      <trkpt lat="43.18156" lon="6.49998">
        <ele>491.6</ele>
        <time>2024-02-04T11:58:35Z</time>
      </trkpt>
      <trkpt lat="43.18156" lon="6.49998">
        <ele>491.6</ele>
        <time>2024-02-04T11:58:36Z</time>
      </trkpt>
      <trkpt lat="43.18156" lon="6.49998">
        <ele>491.6</ele>
        <time>2024-02-04T11:58:37Z</time>
      </trkpt>
      <trkpt lat="43.18156" lon="6.49998">
        <ele>491.6</ele>
        <time>2024-02-04T11:58:38Z</time>
      </trkpt>
      <trkpt lat="43.18156" lon="6.49998">
        <ele>491.6</ele>
        <time>2024-02-04T11:58:39Z</time>
      </trkpt>
      <trkpt lat="43.18157" lon="6.49998">
        <ele>491.6</ele>
        <time>2024-02-04T11:58:40Z</time>
      </trkpt>
      <trkpt lat="43.18157" lon="6.49998">
        <ele>491.5</ele>
        <time>2024-02-04T11:58:41Z</time>
      </trkpt>
      <trkpt lat="43.18157" lon="6.49998">
        <ele>491.5</ele>
        <time>2024-02-04T11:58:42Z</time>
      </trkpt>
      <trkpt lat="43.18157" lon="6.49998">
        <ele>491.5</ele>
        <time>2024-02-04T11:58:43Z</time>
      </trkpt>
      <trkpt lat="43.18156" lon="6.49998">
        <ele>491.6</ele>
        <time>2024-02-04T11:58:44Z</time>
      </trkpt>
      <trkpt lat="43.18156" lon="6.49998">
        <ele>491.6</ele>
        <time>2024-02-04T11:58:45Z</time>
      </trkpt>
      <trkpt lat="43.18156" lon="6.49998">
        <ele>491.6</ele>
        <time>2024-02-04T11:58:46Z</time>
      </trkpt>
      <trkpt lat="43.18156" lon="6.49998">
        <ele>491.6</ele>
        <time>2024-02-04T11:58:47Z</time>
      </trkpt>
      <trkpt lat="43.18156" lon="6.49998">
        <ele>491.7</ele>
        <time>2024-02-04T11:58:48Z</time>
      </trkpt>
      <trkpt lat="43.18156" lon="6.49998">
        <ele>491.6</ele>
        <time>2024-02-04T11:58:49Z</time>
      </trkpt>
      <trkpt lat="43.18156" lon="6.49998">
        <ele>491.6</ele>
        <time>2024-02-04T11:58:50Z</time>
      </trkpt>
      <trkpt lat="43.18156" lon="6.49998">
        <ele>491.6</ele>
        <time>2024-02-04T11:58:51Z</time>
      </trkpt>
      <trkpt lat="43.18156" lon="6.49998">
        <ele>491.6</ele>
        <time>2024-02-04T11:58:52Z</time>
      </trkpt>
      <trkpt lat="43.18156" lon="6.49998">
        <ele>491.6</ele>
        <time>2024-02-04T11:58:53Z</time>
      </trkpt>
      <trkpt lat="43.18156" lon="6.49998">
        <ele>491.6</ele>
        <time>2024-02-04T11:58:54Z</time>
      </trkpt>
      <trkpt lat="43.18156" lon="6.49998">
        <ele>491.6</ele>
        <time>2024-02-04T11:58:55Z</time>
      </trkpt>
      <trkpt lat="43.18156" lon="6.49998">
        <ele>491.6</ele>
        <time>2024-02-04T11:58:56Z</time>
      </trkpt>
      <trkpt lat="43.18156" lon="6.49998">
        <ele>491.6</ele>
        <time>2024-02-04T11:58:57Z</time>
      </trkpt>
      <trkpt lat="43.18156" lon="6.49998">
        <ele>491.6</ele>
        <time>2024-02-04T11:58:58Z</time>
      </trkpt>
      <trkpt lat="43.18156" lon="6.49998">
        <ele>491.6</ele>
        <time>2024-02-04T11:58:59Z</time>
      </trkpt>
      <trkpt lat="43.18156" lon="6.49998">
        <ele>491.5</ele>
        <time>2024-02-04T11:59:00Z</time>
      </trkpt>
      <trkpt lat="43.18156" lon="6.49998">
        <ele>491.5</ele>
        <time>2024-02-04T11:59:01Z</time>
      </trkpt>
      <trkpt lat="43.18156" lon="6.49998">
        <ele>491.5</ele>
        <time>2024-02-04T11:59:02Z</time>
      </trkpt>
      <trkpt lat="43.18156" lon="6.49998">
        <ele>491.5</ele>
        <time>2024-02-04T11:59:03Z</time>
      </trkpt>
      <trkpt lat="43.18156" lon="6.49998">
        <ele>491.4</ele>
        <time>2024-02-04T11:59:04Z</time>
      </trkpt>
      <trkpt lat="43.18156" lon="6.49998">
        <ele>491.4</ele>
        <time>2024-02-04T11:59:05Z</time>
      </trkpt>
      <trkpt lat="43.18156" lon="6.49998">
        <ele>491.5</ele>
        <time>2024-02-04T11:59:06Z</time>
      </trkpt>
      <trkpt lat="43.18156" lon="6.49998">
        <ele>491.5</ele>
        <time>2024-02-04T11:59:07Z</time>
      </trkpt>
      <trkpt lat="43.18156" lon="6.49998">
        <ele>491.7</ele>
        <time>2024-02-04T11:59:08Z</time>
      </trkpt>
      <trkpt lat="43.18156" lon="6.49998">
        <ele>491.6</ele>
        <time>2024-02-04T11:59:09Z</time>
      </trkpt>
      <trkpt lat="43.18156" lon="6.49998">
        <ele>491.5</ele>
        <time>2024-02-04T11:59:10Z</time>
      </trkpt>
      <trkpt lat="43.18156" lon="6.49998">
        <ele>491.6</ele>
        <time>2024-02-04T11:59:11Z</time>
      </trkpt>
      <trkpt lat="43.18156" lon="6.49998">
        <ele>491.6</ele>
        <time>2024-02-04T11:59:12Z</time>
      </trkpt>
      <trkpt lat="43.18156" lon="6.49998">
        <ele>491.7</ele>
        <time>2024-02-04T11:59:13Z</time>
      </trkpt>
      <trkpt lat="43.18156" lon="6.49998">
        <ele>491.7</ele>
        <time>2024-02-04T11:59:14Z</time>
      </trkpt>
      <trkpt lat="43.18156" lon="6.49998">
        <ele>491.8</ele>
        <time>2024-02-04T11:59:15Z</time>
      </trkpt>
      <trkpt lat="43.18156" lon="6.49998">
        <ele>491.8</ele>
        <time>2024-02-04T11:59:16Z</time>
      </trkpt>
      <trkpt lat="43.18156" lon="6.49998">
        <ele>491.8</ele>
        <time>2024-02-04T11:59:17Z</time>
      </trkpt>
      <trkpt lat="43.18156" lon="6.49998">
        <ele>491.9</ele>
        <time>2024-02-04T11:59:18Z</time>
      </trkpt>
      <trkpt lat="43.18156" lon="6.49998">
        <ele>491.9</ele>
        <time>2024-02-04T11:59:19Z</time>
      </trkpt>
      <trkpt lat="43.18156" lon="6.49998">
        <ele>491.9</ele>
        <time>2024-02-04T11:59:20Z</time>
      </trkpt>
      <trkpt lat="43.18156" lon="6.49998">
        <ele>491.9</ele>
        <time>2024-02-04T11:59:21Z</time>
      </trkpt>
      <trkpt lat="43.18156" lon="6.49998">
        <ele>492</ele>
        <time>2024-02-04T11:59:22Z</time>
      </trkpt>
      <trkpt lat="43.18156" lon="6.49998">
        <ele>492.1</ele>
        <time>2024-02-04T11:59:23Z</time>
      </trkpt>
      <trkpt lat="43.18156" lon="6.49998">
        <ele>492</ele>
        <time>2024-02-04T11:59:24Z</time>
      </trkpt>
      <trkpt lat="43.18156" lon="6.49998">
        <ele>492</ele>
        <time>2024-02-04T11:59:25Z</time>
      </trkpt>
      <trkpt lat="43.18156" lon="6.49998">
        <ele>492.1</ele>
        <time>2024-02-04T11:59:26Z</time>
      </trkpt>
      <trkpt lat="43.18156" lon="6.49998">
        <ele>492.2</ele>
        <time>2024-02-04T11:59:27Z</time>
      </trkpt>
      <trkpt lat="43.18156" lon="6.49998">
        <ele>492.3</ele>
        <time>2024-02-04T11:59:28Z</time>
      </trkpt>
      <trkpt lat="43.18156" lon="6.49998">
        <ele>492.2</ele>
        <time>2024-02-04T11:59:29Z</time>
      </trkpt>
      <trkpt lat="43.18156" lon="6.49998">
        <ele>492.2</ele>
        <time>2024-02-04T11:59:30Z</time>
      </trkpt>
      <trkpt lat="43.18156" lon="6.49998">
        <ele>492.1</ele>
        <time>2024-02-04T11:59:31Z</time>
      </trkpt>
      <trkpt lat="43.18156" lon="6.49998">
        <ele>492.1</ele>
        <time>2024-02-04T11:59:32Z</time>
      </trkpt>
      <trkpt lat="43.18156" lon="6.49998">
        <ele>492.1</ele>
        <time>2024-02-04T11:59:33Z</time>
      </trkpt>
      <trkpt lat="43.18156" lon="6.49998">
        <ele>492.1</ele>
        <time>2024-02-04T11:59:34Z</time>
      </trkpt>
      <trkpt lat="43.18156" lon="6.49997">
        <ele>492.2</ele>
        <time>2024-02-04T11:59:35Z</time>
      </trkpt>
      <trkpt lat="43.18156" lon="6.49997">
        <ele>492.2</ele>
        <time>2024-02-04T11:59:36Z</time>
      </trkpt>
      <trkpt lat="43.18156" lon="6.49997">
        <ele>492.1</ele>
        <time>2024-02-04T11:59:37Z</time>
      </trkpt>
      <trkpt lat="43.18156" lon="6.49997">
        <ele>492</ele>
        <time>2024-02-04T11:59:38Z</time>
      </trkpt>
      <trkpt lat="43.18156" lon="6.49997">
        <ele>491.9</ele>
        <time>2024-02-04T11:59:39Z</time>
      </trkpt>
      <trkpt lat="43.18156" lon="6.49997">
        <ele>491.8</ele>
        <time>2024-02-04T11:59:40Z</time>
      </trkpt>
      <trkpt lat="43.18156" lon="6.49997">
        <ele>491.8</ele>
        <time>2024-02-04T11:59:41Z</time>
      </trkpt>
      <trkpt lat="43.18156" lon="6.49997">
        <ele>491.8</ele>
        <time>2024-02-04T11:59:42Z</time>
      </trkpt>
      <trkpt lat="43.18156" lon="6.49997">
        <ele>491.8</ele>
        <time>2024-02-04T11:59:43Z</time>
      </trkpt>
      <trkpt lat="43.18156" lon="6.49997">
        <ele>491.8</ele>
        <time>2024-02-04T11:59:44Z</time>
      </trkpt>
      <trkpt lat="43.18156" lon="6.49997">
        <ele>491.7</ele>
        <time>2024-02-04T11:59:45Z</time>
      </trkpt>
      <trkpt lat="43.18156" lon="6.49997">
        <ele>491.7</ele>
        <time>2024-02-04T11:59:46Z</time>
      </trkpt>
      <trkpt lat="43.18156" lon="6.49997">
        <ele>491.8</ele>
        <time>2024-02-04T11:59:47Z</time>
      </trkpt>
      <trkpt lat="43.18156" lon="6.49997">
        <ele>491.9</ele>
        <time>2024-02-04T11:59:48Z</time>
      </trkpt>
      <trkpt lat="43.18156" lon="6.49997">
        <ele>492</ele>
        <time>2024-02-04T11:59:49Z</time>
      </trkpt>
      <trkpt lat="43.18156" lon="6.49997">
        <ele>492</ele>
        <time>2024-02-04T11:59:50Z</time>
      </trkpt>
      <trkpt lat="43.18156" lon="6.49997">
        <ele>492.1</ele>
        <time>2024-02-04T11:59:51Z</time>
      </trkpt>
      <trkpt lat="43.18156" lon="6.49997">
        <ele>492</ele>
        <time>2024-02-04T11:59:52Z</time>
      </trkpt>
      <trkpt lat="43.18156" lon="6.49997">
        <ele>491.9</ele>
        <time>2024-02-04T11:59:53Z</time>
      </trkpt>
      <trkpt lat="43.18156" lon="6.49997">
        <ele>491.8</ele>
        <time>2024-02-04T11:59:54Z</time>
      </trkpt>
      <trkpt lat="43.18156" lon="6.49997">
        <ele>491.7</ele>
        <time>2024-02-04T11:59:55Z</time>
      </trkpt>
      <trkpt lat="43.18156" lon="6.49997">
        <ele>491.6</ele>
        <time>2024-02-04T11:59:56Z</time>
      </trkpt>
      <trkpt lat="43.18156" lon="6.49997">
        <ele>491.6</ele>
        <time>2024-02-04T11:59:57Z</time>
      </trkpt>
      <trkpt lat="43.18156" lon="6.49997">
        <ele>491.7</ele>
        <time>2024-02-04T11:59:58Z</time>
      </trkpt>
      <trkpt lat="43.18156" lon="6.49997">
        <ele>491.7</ele>
        <time>2024-02-04T11:59:59Z</time>
      </trkpt>
      <trkpt lat="43.18156" lon="6.49997">
        <ele>491.6</ele>
        <time>2024-02-04T12:00:00Z</time>
      </trkpt>
      <trkpt lat="43.18156" lon="6.49997">
        <ele>491.6</ele>
        <time>2024-02-04T12:00:01Z</time>
      </trkpt>
      <trkpt lat="43.18156" lon="6.49997">
        <ele>491.6</ele>
        <time>2024-02-04T12:00:02Z</time>
      </trkpt>
      <trkpt lat="43.18156" lon="6.49998">
        <ele>491.6</ele>
        <time>2024-02-04T12:00:03Z</time>
      </trkpt>
      <trkpt lat="43.18156" lon="6.49998">
        <ele>491.6</ele>
        <time>2024-02-04T12:00:04Z</time>
      </trkpt>
      <trkpt lat="43.18156" lon="6.49998">
        <ele>491.6</ele>
        <time>2024-02-04T12:00:05Z</time>
      </trkpt>
      <trkpt lat="43.18156" lon="6.49998">
        <ele>491.6</ele>
        <time>2024-02-04T12:00:06Z</time>
      </trkpt>
      <trkpt lat="43.18156" lon="6.49998">
        <ele>491.6</ele>
        <time>2024-02-04T12:00:07Z</time>
      </trkpt>
      <trkpt lat="43.18156" lon="6.49998">
        <ele>491.6</ele>
        <time>2024-02-04T12:00:08Z</time>
      </trkpt>
      <trkpt lat="43.18156" lon="6.49998">
        <ele>491.6</ele>
        <time>2024-02-04T12:00:09Z</time>
      </trkpt>
      <trkpt lat="43.18156" lon="6.49998">
        <ele>491.5</ele>
        <time>2024-02-04T12:00:10Z</time>
      </trkpt>
      <trkpt lat="43.18156" lon="6.49998">
        <ele>491.4</ele>
        <time>2024-02-04T12:00:11Z</time>
      </trkpt>
      <trkpt lat="43.18156" lon="6.49998">
        <ele>491.5</ele>
        <time>2024-02-04T12:00:12Z</time>
      </trkpt>
      <trkpt lat="43.18156" lon="6.49998">
        <ele>491.5</ele>
        <time>2024-02-04T12:00:13Z</time>
      </trkpt>
      <trkpt lat="43.18156" lon="6.49998">
        <ele>491.6</ele>
        <time>2024-02-04T12:00:14Z</time>
      </trkpt>
      <trkpt lat="43.18156" lon="6.49998">
        <ele>491.6</ele>
        <time>2024-02-04T12:00:15Z</time>
      </trkpt>
      <trkpt lat="43.18156" lon="6.49998">
        <ele>491.7</ele>
        <time>2024-02-04T12:00:16Z</time>
      </trkpt>
      <trkpt lat="43.18156" lon="6.49998">
        <ele>491.7</ele>
        <time>2024-02-04T12:00:17Z</time>
      </trkpt>
      <trkpt lat="43.18156" lon="6.49998">
        <ele>491.8</ele>
        <time>2024-02-04T12:00:18Z</time>
      </trkpt>
      <trkpt lat="43.18156" lon="6.49998">
        <ele>491.8</ele>
        <time>2024-02-04T12:00:19Z</time>
      </trkpt>
      <trkpt lat="43.18156" lon="6.49998">
        <ele>491.9</ele>
        <time>2024-02-04T12:00:20Z</time>
      </trkpt>
      <trkpt lat="43.18156" lon="6.49998">
        <ele>491.9</ele>
        <time>2024-02-04T12:00:21Z</time>
      </trkpt>
      <trkpt lat="43.18156" lon="6.49998">
        <ele>491.9</ele>
        <time>2024-02-04T12:00:22Z</time>
      </trkpt>
      <trkpt lat="43.18156" lon="6.49998">
        <ele>491.8</ele>
        <time>2024-02-04T12:00:23Z</time>
      </trkpt>
      <trkpt lat="43.18156" lon="6.49998">
        <ele>491.8</ele>
        <time>2024-02-04T12:00:24Z</time>
      </trkpt>
      <trkpt lat="43.18156" lon="6.49998">
        <ele>491.9</ele>
        <time>2024-02-04T12:00:25Z</time>
      </trkpt>
      <trkpt lat="43.18156" lon="6.49998">
        <ele>491.8</ele>
        <time>2024-02-04T12:00:26Z</time>
      </trkpt>
      <trkpt lat="43.18156" lon="6.49998">
        <ele>491.8</ele>
        <time>2024-02-04T12:00:27Z</time>
      </trkpt>
      <trkpt lat="43.18156" lon="6.49998">
        <ele>491.8</ele>
        <time>2024-02-04T12:00:28Z</time>
      </trkpt>
      <trkpt lat="43.18156" lon="6.49998">
        <ele>491.8</ele>
        <time>2024-02-04T12:00:29Z</time>
      </trkpt>
      <trkpt lat="43.18156" lon="6.49998">
        <ele>491.9</ele>
        <time>2024-02-04T12:00:30Z</time>
      </trkpt>
      <trkpt lat="43.18156" lon="6.49998">
        <ele>491.9</ele>
        <time>2024-02-04T12:00:31Z</time>
      </trkpt>
      <trkpt lat="43.18156" lon="6.49998">
        <ele>491.9</ele>
        <time>2024-02-04T12:00:32Z</time>
      </trkpt>
      <trkpt lat="43.18156" lon="6.49998">
        <ele>491.9</ele>
        <time>2024-02-04T12:00:33Z</time>
      </trkpt>
      <trkpt lat="43.18156" lon="6.49998">
        <ele>491.8</ele>
        <time>2024-02-04T12:00:34Z</time>
      </trkpt>
      <trkpt lat="43.18156" lon="6.49998">
        <ele>491.8</ele>
        <time>2024-02-04T12:00:35Z</time>
      </trkpt>
      <trkpt lat="43.18156" lon="6.49998">
        <ele>491.7</ele>
        <time>2024-02-04T12:00:36Z</time>
      </trkpt>
      <trkpt lat="43.18156" lon="6.49998">
        <ele>491.7</ele>
        <time>2024-02-04T12:00:37Z</time>
      </trkpt>
      <trkpt lat="43.18156" lon="6.49998">
        <ele>491.6</ele>
        <time>2024-02-04T12:00:38Z</time>
      </trkpt>
      <trkpt lat="43.18156" lon="6.49998">
        <ele>491.6</ele>
        <time>2024-02-04T12:00:39Z</time>
      </trkpt>
      <trkpt lat="43.18156" lon="6.49998">
        <ele>491.6</ele>
        <time>2024-02-04T12:00:40Z</time>
      </trkpt>
      <trkpt lat="43.18156" lon="6.49998">
        <ele>491.6</ele>
        <time>2024-02-04T12:00:41Z</time>
      </trkpt>
      <trkpt lat="43.18156" lon="6.49998">
        <ele>491.7</ele>
        <time>2024-02-04T12:00:42Z</time>
      </trkpt>
      <trkpt lat="43.18155" lon="6.49998">
        <ele>491.7</ele>
        <time>2024-02-04T12:00:43Z</time>
      </trkpt>
      <trkpt lat="43.18156" lon="6.49998">
        <ele>491.7</ele>
        <time>2024-02-04T12:00:44Z</time>
      </trkpt>
      <trkpt lat="43.18156" lon="6.49998">
        <ele>491.7</ele>
        <time>2024-02-04T12:00:45Z</time>
      </trkpt>
      <trkpt lat="43.18156" lon="6.49998">
        <ele>491.6</ele>
        <time>2024-02-04T12:00:46Z</time>
      </trkpt>
      <trkpt lat="43.18155" lon="6.49998">
        <ele>491.6</ele>
        <time>2024-02-04T12:00:47Z</time>
      </trkpt>
      <trkpt lat="43.18156" lon="6.49998">
        <ele>491.6</ele>
        <time>2024-02-04T12:00:48Z</time>
      </trkpt>
      <trkpt lat="43.18155" lon="6.49998">
        <ele>491.7</ele>
        <time>2024-02-04T12:00:49Z</time>
      </trkpt>
      <trkpt lat="43.18155" lon="6.49998">
        <ele>491.8</ele>
        <time>2024-02-04T12:00:50Z</time>
      </trkpt>
      <trkpt lat="43.18155" lon="6.49998">
        <ele>491.8</ele>
        <time>2024-02-04T12:00:51Z</time>
      </trkpt>
      <trkpt lat="43.18155" lon="6.49998">
        <ele>491.8</ele>
        <time>2024-02-04T12:00:52Z</time>
      </trkpt>
      <trkpt lat="43.18155" lon="6.49998">
        <ele>491.7</ele>
        <time>2024-02-04T12:00:53Z</time>
      </trkpt>
      <trkpt lat="43.18155" lon="6.49998">
        <ele>491.7</ele>
        <time>2024-02-04T12:00:54Z</time>
      </trkpt>
      <trkpt lat="43.18155" lon="6.49998">
        <ele>491.7</ele>
        <time>2024-02-04T12:00:55Z</time>
      </trkpt>
      <trkpt lat="43.18155" lon="6.49998">
        <ele>491.6</ele>
        <time>2024-02-04T12:00:56Z</time>
      </trkpt>
      <trkpt lat="43.18155" lon="6.49998">
        <ele>491.6</ele>
        <time>2024-02-04T12:00:57Z</time>
      </trkpt>
      <trkpt lat="43.18155" lon="6.49998">
        <ele>491.6</ele>
        <time>2024-02-04T12:00:58Z</time>
      </trkpt>
      <trkpt lat="43.18155" lon="6.49998">
        <ele>491.7</ele>
        <time>2024-02-04T12:00:59Z</time>
      </trkpt>
      <trkpt lat="43.18155" lon="6.49998">
        <ele>491.7</ele>
        <time>2024-02-04T12:01:00Z</time>
      </trkpt>
      <trkpt lat="43.18155" lon="6.49998">
        <ele>491.7</ele>
        <time>2024-02-04T12:01:01Z</time>
      </trkpt>
      <trkpt lat="43.18155" lon="6.49998">
        <ele>491.8</ele>
        <time>2024-02-04T12:01:02Z</time>
      </trkpt>
      <trkpt lat="43.18155" lon="6.49998">
        <ele>491.8</ele>
        <time>2024-02-04T12:01:03Z</time>
      </trkpt>
      <trkpt lat="43.18155" lon="6.49998">
        <ele>491.8</ele>
        <time>2024-02-04T12:01:04Z</time>
      </trkpt>
      <trkpt lat="43.18155" lon="6.49998">
        <ele>491.8</ele>
        <time>2024-02-04T12:01:05Z</time>
      </trkpt>
      <trkpt lat="43.18155" lon="6.49998">
        <ele>491.8</ele>
        <time>2024-02-04T12:01:06Z</time>
      </trkpt>
      <trkpt lat="43.18155" lon="6.49998">
        <ele>491.8</ele>
        <time>2024-02-04T12:01:07Z</time>
      </trkpt>
      <trkpt lat="43.18155" lon="6.49998">
        <ele>491.7</ele>
        <time>2024-02-04T12:01:08Z</time>
      </trkpt>
      <trkpt lat="43.18155" lon="6.49998">
        <ele>491.7</ele>
        <time>2024-02-04T12:01:09Z</time>
      </trkpt>
      <trkpt lat="43.18155" lon="6.49998">
        <ele>491.7</ele>
        <time>2024-02-04T12:01:10Z</time>
      </trkpt>
      <trkpt lat="43.18155" lon="6.49998">
        <ele>491.7</ele>
        <time>2024-02-04T12:01:11Z</time>
      </trkpt>
      <trkpt lat="43.18155" lon="6.49998">
        <ele>491.7</ele>
        <time>2024-02-04T12:01:12Z</time>
      </trkpt>
      <trkpt lat="43.18155" lon="6.49998">
        <ele>491.7</ele>
        <time>2024-02-04T12:01:13Z</time>
      </trkpt>
      <trkpt lat="43.18155" lon="6.49998">
        <ele>491.8</ele>
        <time>2024-02-04T12:01:14Z</time>
      </trkpt>
      <trkpt lat="43.18155" lon="6.49998">
        <ele>491.8</ele>
        <time>2024-02-04T12:01:15Z</time>
      </trkpt>
      <trkpt lat="43.18155" lon="6.49998">
        <ele>491.8</ele>
        <time>2024-02-04T12:01:16Z</time>
      </trkpt>
      <trkpt lat="43.18155" lon="6.49998">
        <ele>491.8</ele>
        <time>2024-02-04T12:01:17Z</time>
      </trkpt>
      <trkpt lat="43.18155" lon="6.49998">
        <ele>491.8</ele>
        <time>2024-02-04T12:01:18Z</time>
      </trkpt>
      <trkpt lat="43.18155" lon="6.49998">
        <ele>491.8</ele>
        <time>2024-02-04T12:01:19Z</time>
      </trkpt>
      <trkpt lat="43.18155" lon="6.49998">
        <ele>491.8</ele>
        <time>2024-02-04T12:01:20Z</time>
      </trkpt>
      <trkpt lat="43.18155" lon="6.49997">
        <ele>491.8</ele>
        <time>2024-02-04T12:01:21Z</time>
      </trkpt>
      <trkpt lat="43.18155" lon="6.49996">
        <ele>491.9</ele>
        <time>2024-02-04T12:01:22Z</time>
      </trkpt>
      <trkpt lat="43.18156" lon="6.49996">
        <ele>492</ele>
        <time>2024-02-04T12:01:23Z</time>
      </trkpt>
      <trkpt lat="43.18156" lon="6.49996">
        <ele>492.1</ele>
        <time>2024-02-04T12:01:24Z</time>
      </trkpt>
      <trkpt lat="43.18156" lon="6.49996">
        <ele>492.1</ele>
        <time>2024-02-04T12:01:25Z</time>
      </trkpt>
      <trkpt lat="43.18156" lon="6.49996">
        <ele>492.2</ele>
        <time>2024-02-04T12:01:26Z</time>
      </trkpt>
      <trkpt lat="43.18156" lon="6.49996">
        <ele>492.3</ele>
        <time>2024-02-04T12:01:27Z</time>
      </trkpt>
      <trkpt lat="43.18156" lon="6.49996">
        <ele>492.3</ele>
        <time>2024-02-04T12:01:28Z</time>
      </trkpt>
      <trkpt lat="43.18156" lon="6.49996">
        <ele>492.4</ele>
        <time>2024-02-04T12:01:29Z</time>
      </trkpt>
      <trkpt lat="43.18156" lon="6.49996">
        <ele>492.4</ele>
        <time>2024-02-04T12:01:30Z</time>
      </trkpt>
      <trkpt lat="43.18156" lon="6.49996">
        <ele>492.4</ele>
        <time>2024-02-04T12:01:31Z</time>
      </trkpt>
      <trkpt lat="43.18156" lon="6.49996">
        <ele>492.4</ele>
        <time>2024-02-04T12:01:32Z</time>
      </trkpt>
      <trkpt lat="43.18156" lon="6.49996">
        <ele>492.4</ele>
        <time>2024-02-04T12:01:33Z</time>
      </trkpt>
      <trkpt lat="43.18156" lon="6.49996">
        <ele>492.4</ele>
        <time>2024-02-04T12:01:34Z</time>
      </trkpt>
      <trkpt lat="43.18155" lon="6.49996">
        <ele>492.4</ele>
        <time>2024-02-04T12:01:35Z</time>
      </trkpt>
      <trkpt lat="43.18155" lon="6.49996">
        <ele>492.5</ele>
        <time>2024-02-04T12:01:36Z</time>
      </trkpt>
      <trkpt lat="43.18155" lon="6.49996">
        <ele>492.5</ele>
        <time>2024-02-04T12:01:37Z</time>
      </trkpt>
      <trkpt lat="43.18155" lon="6.49996">
        <ele>492.6</ele>
        <time>2024-02-04T12:01:38Z</time>
      </trkpt>
      <trkpt lat="43.18155" lon="6.49996">
        <ele>492.6</ele>
        <time>2024-02-04T12:01:39Z</time>
      </trkpt>
      <trkpt lat="43.18156" lon="6.49996">
        <ele>492.6</ele>
        <time>2024-02-04T12:01:40Z</time>
      </trkpt>
      <trkpt lat="43.18155" lon="6.49996">
        <ele>492.6</ele>
        <time>2024-02-04T12:01:41Z</time>
      </trkpt>
      <trkpt lat="43.18156" lon="6.49996">
        <ele>492.6</ele>
        <time>2024-02-04T12:01:42Z</time>
      </trkpt>
      <trkpt lat="43.18156" lon="6.49996">
        <ele>492.7</ele>
        <time>2024-02-04T12:01:43Z</time>
      </trkpt>
      <trkpt lat="43.18156" lon="6.49996">
        <ele>492.6</ele>
        <time>2024-02-04T12:01:44Z</time>
      </trkpt>
      <trkpt lat="43.18156" lon="6.49996">
        <ele>492.5</ele>
        <time>2024-02-04T12:01:45Z</time>
      </trkpt>
      <trkpt lat="43.18155" lon="6.49996">
        <ele>492.5</ele>
        <time>2024-02-04T12:01:46Z</time>
      </trkpt>
      <trkpt lat="43.18156" lon="6.49996">
        <ele>492.4</ele>
        <time>2024-02-04T12:01:47Z</time>
      </trkpt>
      <trkpt lat="43.18156" lon="6.49996">
        <ele>492.5</ele>
        <time>2024-02-04T12:01:48Z</time>
      </trkpt>
      <trkpt lat="43.18156" lon="6.49996">
        <ele>492.5</ele>
        <time>2024-02-04T12:01:49Z</time>
      </trkpt>
      <trkpt lat="43.18156" lon="6.49996">
        <ele>492.5</ele>
        <time>2024-02-04T12:01:50Z</time>
      </trkpt>
      <trkpt lat="43.18156" lon="6.49995">
        <ele>493</ele>
        <time>2024-02-04T12:01:51Z</time>
      </trkpt>
      <trkpt lat="43.18156" lon="6.49995">
        <ele>493</ele>
        <time>2024-02-04T12:01:52Z</time>
      </trkpt>
      <trkpt lat="43.18156" lon="6.49995">
        <ele>493</ele>
        <time>2024-02-04T12:01:53Z</time>
      </trkpt>
      <trkpt lat="43.18156" lon="6.49995">
        <ele>493</ele>
        <time>2024-02-04T12:01:54Z</time>
      </trkpt>
      <trkpt lat="43.18156" lon="6.49995">
        <ele>493</ele>
        <time>2024-02-04T12:01:55Z</time>
      </trkpt>
      <trkpt lat="43.18156" lon="6.49995">
        <ele>493</ele>
        <time>2024-02-04T12:01:56Z</time>
      </trkpt>
      <trkpt lat="43.18156" lon="6.49995">
        <ele>493.1</ele>
        <time>2024-02-04T12:01:57Z</time>
      </trkpt>
      <trkpt lat="43.18156" lon="6.49995">
        <ele>493</ele>
        <time>2024-02-04T12:01:58Z</time>
      </trkpt>
      <trkpt lat="43.18156" lon="6.49994">
        <ele>493</ele>
        <time>2024-02-04T12:01:59Z</time>
      </trkpt>
      <trkpt lat="43.18156" lon="6.49994">
        <ele>492.9</ele>
        <time>2024-02-04T12:02:00Z</time>
      </trkpt>
      <trkpt lat="43.18156" lon="6.49994">
        <ele>493</ele>
        <time>2024-02-04T12:02:01Z</time>
      </trkpt>
      <trkpt lat="43.18156" lon="6.49994">
        <ele>492.8</ele>
        <time>2024-02-04T12:02:02Z</time>
      </trkpt>
      <trkpt lat="43.18156" lon="6.49994">
        <ele>492.8</ele>
        <time>2024-02-04T12:02:03Z</time>
      </trkpt>
      <trkpt lat="43.18156" lon="6.49994">
        <ele>492.7</ele>
        <time>2024-02-04T12:02:04Z</time>
      </trkpt>
      <trkpt lat="43.18156" lon="6.49994">
        <ele>492.7</ele>
        <time>2024-02-04T12:02:05Z</time>
      </trkpt>
      <trkpt lat="43.18156" lon="6.49994">
        <ele>492.8</ele>
        <time>2024-02-04T12:02:06Z</time>
      </trkpt>
      <trkpt lat="43.18155" lon="6.49994">
        <ele>492.8</ele>
        <time>2024-02-04T12:02:07Z</time>
      </trkpt>
      <trkpt lat="43.18155" lon="6.49994">
        <ele>492.9</ele>
        <time>2024-02-04T12:02:08Z</time>
      </trkpt>
      <trkpt lat="43.18155" lon="6.49994">
        <ele>492.8</ele>
        <time>2024-02-04T12:02:09Z</time>
      </trkpt>
      <trkpt lat="43.18155" lon="6.49994">
        <ele>492.8</ele>
        <time>2024-02-04T12:02:10Z</time>
      </trkpt>
      <trkpt lat="43.18155" lon="6.49994">
        <ele>492.8</ele>
        <time>2024-02-04T12:02:11Z</time>
      </trkpt>
      <trkpt lat="43.18155" lon="6.49994">
        <ele>492.8</ele>
        <time>2024-02-04T12:02:12Z</time>
      </trkpt>
      <trkpt lat="43.18155" lon="6.49994">
        <ele>492.9</ele>
        <time>2024-02-04T12:02:13Z</time>
      </trkpt>
      <trkpt lat="43.18155" lon="6.49994">
        <ele>492.9</ele>
        <time>2024-02-04T12:02:14Z</time>
      </trkpt>
      <trkpt lat="43.18155" lon="6.49994">
        <ele>492.9</ele>
        <time>2024-02-04T12:02:15Z</time>
      </trkpt>
      <trkpt lat="43.18155" lon="6.49994">
        <ele>492.8</ele>
        <time>2024-02-04T12:02:16Z</time>
      </trkpt>
      <trkpt lat="43.18155" lon="6.49994">
        <ele>492.8</ele>
        <time>2024-02-04T12:02:17Z</time>
      </trkpt>
      <trkpt lat="43.18155" lon="6.49993">
        <ele>493</ele>
        <time>2024-02-04T12:02:18Z</time>
      </trkpt>
      <trkpt lat="43.18155" lon="6.49993">
        <ele>492.9</ele>
        <time>2024-02-04T12:02:19Z</time>
      </trkpt>
      <trkpt lat="43.18155" lon="6.49993">
        <ele>492.9</ele>
        <time>2024-02-04T12:02:20Z</time>
      </trkpt>
      <trkpt lat="43.18155" lon="6.49993">
        <ele>492.9</ele>
        <time>2024-02-04T12:02:21Z</time>
      </trkpt>
      <trkpt lat="43.18155" lon="6.49993">
        <ele>492.9</ele>
        <time>2024-02-04T12:02:22Z</time>
      </trkpt>
      <trkpt lat="43.18155" lon="6.49993">
        <ele>492.9</ele>
        <time>2024-02-04T12:02:23Z</time>
      </trkpt>
      <trkpt lat="43.18155" lon="6.49993">
        <ele>492.9</ele>
        <time>2024-02-04T12:02:24Z</time>
      </trkpt>
      <trkpt lat="43.18155" lon="6.49993">
        <ele>493</ele>
        <time>2024-02-04T12:02:25Z</time>
      </trkpt>
      <trkpt lat="43.18155" lon="6.49993">
        <ele>493</ele>
        <time>2024-02-04T12:02:26Z</time>
      </trkpt>
      <trkpt lat="43.18155" lon="6.49993">
        <ele>493</ele>
        <time>2024-02-04T12:02:27Z</time>
      </trkpt>
      <trkpt lat="43.18155" lon="6.49993">
        <ele>493.1</ele>
        <time>2024-02-04T12:02:28Z</time>
      </trkpt>
      <trkpt lat="43.18155" lon="6.49993">
        <ele>493.1</ele>
        <time>2024-02-04T12:02:29Z</time>
      </trkpt>
      <trkpt lat="43.18155" lon="6.49993">
        <ele>493</ele>
        <time>2024-02-04T12:02:30Z</time>
      </trkpt>
      <trkpt lat="43.18155" lon="6.49993">
        <ele>493</ele>
        <time>2024-02-04T12:02:31Z</time>
      </trkpt>
      <trkpt lat="43.18155" lon="6.49993">
        <ele>493</ele>
        <time>2024-02-04T12:02:32Z</time>
      </trkpt>
      <trkpt lat="43.18155" lon="6.49993">
        <ele>493</ele>
        <time>2024-02-04T12:02:33Z</time>
      </trkpt>
      <trkpt lat="43.18155" lon="6.49993">
        <ele>493</ele>
        <time>2024-02-04T12:02:34Z</time>
      </trkpt>
      <trkpt lat="43.18155" lon="6.49993">
        <ele>493</ele>
        <time>2024-02-04T12:02:35Z</time>
      </trkpt>
      <trkpt lat="43.18155" lon="6.49993">
        <ele>492.9</ele>
        <time>2024-02-04T12:02:36Z</time>
      </trkpt>
      <trkpt lat="43.18155" lon="6.49993">
        <ele>492.9</ele>
        <time>2024-02-04T12:02:37Z</time>
      </trkpt>
      <trkpt lat="43.18155" lon="6.49993">
        <ele>492.9</ele>
        <time>2024-02-04T12:02:38Z</time>
      </trkpt>
      <trkpt lat="43.18155" lon="6.49994">
        <ele>492.9</ele>
        <time>2024-02-04T12:02:39Z</time>
      </trkpt>
      <trkpt lat="43.18155" lon="6.49994">
        <ele>492.8</ele>
        <time>2024-02-04T12:02:40Z</time>
      </trkpt>
      <trkpt lat="43.18155" lon="6.49994">
        <ele>492.7</ele>
        <time>2024-02-04T12:02:41Z</time>
      </trkpt>
      <trkpt lat="43.18155" lon="6.49994">
        <ele>492.7</ele>
        <time>2024-02-04T12:02:42Z</time>
      </trkpt>
      <trkpt lat="43.18155" lon="6.49993">
        <ele>492.6</ele>
        <time>2024-02-04T12:02:43Z</time>
      </trkpt>
      <trkpt lat="43.18155" lon="6.49993">
        <ele>492.6</ele>
        <time>2024-02-04T12:02:44Z</time>
      </trkpt>
      <trkpt lat="43.18155" lon="6.49993">
        <ele>492.6</ele>
        <time>2024-02-04T12:02:45Z</time>
      </trkpt>
      <trkpt lat="43.18155" lon="6.49993">
        <ele>492.6</ele>
        <time>2024-02-04T12:02:46Z</time>
      </trkpt>
      <trkpt lat="43.18155" lon="6.49993">
        <ele>492.6</ele>
        <time>2024-02-04T12:02:47Z</time>
      </trkpt>
      <trkpt lat="43.18155" lon="6.49993">
        <ele>492.6</ele>
        <time>2024-02-04T12:02:48Z</time>
      </trkpt>
      <trkpt lat="43.18155" lon="6.49994">
        <ele>492.7</ele>
        <time>2024-02-04T12:02:49Z</time>
      </trkpt>
      <trkpt lat="43.18155" lon="6.49993">
        <ele>492.7</ele>
        <time>2024-02-04T12:02:50Z</time>
      </trkpt>
      <trkpt lat="43.18155" lon="6.49993">
        <ele>492.7</ele>
        <time>2024-02-04T12:02:51Z</time>
      </trkpt>
      <trkpt lat="43.18155" lon="6.49994">
        <ele>492.8</ele>
        <time>2024-02-04T12:02:52Z</time>
      </trkpt>
      <trkpt lat="43.18155" lon="6.49994">
        <ele>492.8</ele>
        <time>2024-02-04T12:02:53Z</time>
      </trkpt>
      <trkpt lat="43.18154" lon="6.49994">
        <ele>492.7</ele>
        <time>2024-02-04T12:02:54Z</time>
      </trkpt>
      <trkpt lat="43.18155" lon="6.49994">
        <ele>492.7</ele>
        <time>2024-02-04T12:02:55Z</time>
      </trkpt>
      <trkpt lat="43.18155" lon="6.49994">
        <ele>492.6</ele>
        <time>2024-02-04T12:02:56Z</time>
      </trkpt>
      <trkpt lat="43.18155" lon="6.49994">
        <ele>492.5</ele>
        <time>2024-02-04T12:02:57Z</time>
      </trkpt>
      <trkpt lat="43.18155" lon="6.49994">
        <ele>492.5</ele>
        <time>2024-02-04T12:02:58Z</time>
      </trkpt>
      <trkpt lat="43.18155" lon="6.49994">
        <ele>492.4</ele>
        <time>2024-02-04T12:02:59Z</time>
      </trkpt>
      <trkpt lat="43.18155" lon="6.49994">
        <ele>492.4</ele>
        <time>2024-02-04T12:03:00Z</time>
      </trkpt>
      <trkpt lat="43.18155" lon="6.49994">
        <ele>492.4</ele>
        <time>2024-02-04T12:03:01Z</time>
      </trkpt>
      <trkpt lat="43.18155" lon="6.49994">
        <ele>492.4</ele>
        <time>2024-02-04T12:03:02Z</time>
      </trkpt>
      <trkpt lat="43.18155" lon="6.49994">
        <ele>492.4</ele>
        <time>2024-02-04T12:03:03Z</time>
      </trkpt>
      <trkpt lat="43.18155" lon="6.49994">
        <ele>492.3</ele>
        <time>2024-02-04T12:03:04Z</time>
      </trkpt>
      <trkpt lat="43.18155" lon="6.49994">
        <ele>492.5</ele>
        <time>2024-02-04T12:03:05Z</time>
      </trkpt>
      <trkpt lat="43.18155" lon="6.49994">
        <ele>492.5</ele>
        <time>2024-02-04T12:03:06Z</time>
      </trkpt>
      <trkpt lat="43.18155" lon="6.49993">
        <ele>492.5</ele>
        <time>2024-02-04T12:03:07Z</time>
      </trkpt>
      <trkpt lat="43.18155" lon="6.49993">
        <ele>492.6</ele>
        <time>2024-02-04T12:03:08Z</time>
      </trkpt>
      <trkpt lat="43.18155" lon="6.49993">
        <ele>492.5</ele>
        <time>2024-02-04T12:03:09Z</time>
      </trkpt>
      <trkpt lat="43.18155" lon="6.49993">
        <ele>492.5</ele>
        <time>2024-02-04T12:03:10Z</time>
      </trkpt>
      <trkpt lat="43.18155" lon="6.49993">
        <ele>492.5</ele>
        <time>2024-02-04T12:03:11Z</time>
      </trkpt>
      <trkpt lat="43.18155" lon="6.49993">
        <ele>492.5</ele>
        <time>2024-02-04T12:03:12Z</time>
      </trkpt>
      <trkpt lat="43.18155" lon="6.49993">
        <ele>492.5</ele>
        <time>2024-02-04T12:03:13Z</time>
      </trkpt>
      <trkpt lat="43.18155" lon="6.49993">
        <ele>492.5</ele>
        <time>2024-02-04T12:03:14Z</time>
      </trkpt>
      <trkpt lat="43.18155" lon="6.49993">
        <ele>492.5</ele>
        <time>2024-02-04T12:03:15Z</time>
      </trkpt>
      <trkpt lat="43.18155" lon="6.49992">
        <ele>492.5</ele>
        <time>2024-02-04T12:03:16Z</time>
      </trkpt>
      <trkpt lat="43.18155" lon="6.49992">
        <ele>492.5</ele>
        <time>2024-02-04T12:03:17Z</time>
      </trkpt>
      <trkpt lat="43.18155" lon="6.49992">
        <ele>492.5</ele>
        <time>2024-02-04T12:03:18Z</time>
      </trkpt>
      <trkpt lat="43.18155" lon="6.49992">
        <ele>492.5</ele>
        <time>2024-02-04T12:03:19Z</time>
      </trkpt>
      <trkpt lat="43.18155" lon="6.49992">
        <ele>492.4</ele>
        <time>2024-02-04T12:03:20Z</time>
      </trkpt>
      <trkpt lat="43.18155" lon="6.49992">
        <ele>492.5</ele>
        <time>2024-02-04T12:03:21Z</time>
      </trkpt>
      <trkpt lat="43.18155" lon="6.49992">
        <ele>492.5</ele>
        <time>2024-02-04T12:03:22Z</time>
      </trkpt>
      <trkpt lat="43.18155" lon="6.49992">
        <ele>492.4</ele>
        <time>2024-02-04T12:03:23Z</time>
      </trkpt>
      <trkpt lat="43.18155" lon="6.49992">
        <ele>492.4</ele>
        <time>2024-02-04T12:03:24Z</time>
      </trkpt>
      <trkpt lat="43.18155" lon="6.49992">
        <ele>492.4</ele>
        <time>2024-02-04T12:03:25Z</time>
      </trkpt>
      <trkpt lat="43.18155" lon="6.49992">
        <ele>492.4</ele>
        <time>2024-02-04T12:03:26Z</time>
      </trkpt>
      <trkpt lat="43.18155" lon="6.49992">
        <ele>492.4</ele>
        <time>2024-02-04T12:03:27Z</time>
      </trkpt>
      <trkpt lat="43.18155" lon="6.49992">
        <ele>492.4</ele>
        <time>2024-02-04T12:03:28Z</time>
      </trkpt>
      <trkpt lat="43.18155" lon="6.49992">
        <ele>492.4</ele>
        <time>2024-02-04T12:03:29Z</time>
      </trkpt>
      <trkpt lat="43.18155" lon="6.49993">
        <ele>492.4</ele>
        <time>2024-02-04T12:03:30Z</time>
      </trkpt>
      <trkpt lat="43.18156" lon="6.49993">
        <ele>492.4</ele>
        <time>2024-02-04T12:03:31Z</time>
      </trkpt>
      <trkpt lat="43.18156" lon="6.49993">
        <ele>492.4</ele>
        <time>2024-02-04T12:03:32Z</time>
      </trkpt>
      <trkpt lat="43.18156" lon="6.49993">
        <ele>492.4</ele>
        <time>2024-02-04T12:03:33Z</time>
      </trkpt>
      <trkpt lat="43.18156" lon="6.49992">
        <ele>492.4</ele>
        <time>2024-02-04T12:03:34Z</time>
      </trkpt>
      <trkpt lat="43.18156" lon="6.49993">
        <ele>492.4</ele>
        <time>2024-02-04T12:03:35Z</time>
      </trkpt>
      <trkpt lat="43.18156" lon="6.49992">
        <ele>492.4</ele>
        <time>2024-02-04T12:03:36Z</time>
      </trkpt>
      <trkpt lat="43.18156" lon="6.49992">
        <ele>492.4</ele>
        <time>2024-02-04T12:03:37Z</time>
      </trkpt>
      <trkpt lat="43.18156" lon="6.49992">
        <ele>492.4</ele>
        <time>2024-02-04T12:03:38Z</time>
      </trkpt>
      <trkpt lat="43.18156" lon="6.49992">
        <ele>492.4</ele>
        <time>2024-02-04T12:03:39Z</time>
      </trkpt>
      <trkpt lat="43.18156" lon="6.49993">
        <ele>492.5</ele>
        <time>2024-02-04T12:03:40Z</time>
      </trkpt>
      <trkpt lat="43.18156" lon="6.49993">
        <ele>492.6</ele>
        <time>2024-02-04T12:03:41Z</time>
      </trkpt>
      <trkpt lat="43.18156" lon="6.49993">
        <ele>492.6</ele>
        <time>2024-02-04T12:03:42Z</time>
      </trkpt>
      <trkpt lat="43.18156" lon="6.49993">
        <ele>492.6</ele>
        <time>2024-02-04T12:03:43Z</time>
      </trkpt>
      <trkpt lat="43.18156" lon="6.49993">
        <ele>492.6</ele>
        <time>2024-02-04T12:03:44Z</time>
      </trkpt>
      <trkpt lat="43.18156" lon="6.49993">
        <ele>492.6</ele>
        <time>2024-02-04T12:03:45Z</time>
      </trkpt>
      <trkpt lat="43.18156" lon="6.49993">
        <ele>492.6</ele>
        <time>2024-02-04T12:03:46Z</time>
      </trkpt>
      <trkpt lat="43.18156" lon="6.49993">
        <ele>492.6</ele>
        <time>2024-02-04T12:03:47Z</time>
      </trkpt>
      <trkpt lat="43.18156" lon="6.49993">
        <ele>492.6</ele>
        <time>2024-02-04T12:03:48Z</time>
      </trkpt>
      <trkpt lat="43.18155" lon="6.49993">
        <ele>492.6</ele>
        <time>2024-02-04T12:03:49Z</time>
      </trkpt>
      <trkpt lat="43.18155" lon="6.49993">
        <ele>492.6</ele>
        <time>2024-02-04T12:03:50Z</time>
      </trkpt>
      <trkpt lat="43.18155" lon="6.49993">
        <ele>492.5</ele>
        <time>2024-02-04T12:03:51Z</time>
      </trkpt>
      <trkpt lat="43.18155" lon="6.49993">
        <ele>492.6</ele>
        <time>2024-02-04T12:03:52Z</time>
      </trkpt>
      <trkpt lat="43.18155" lon="6.49993">
        <ele>492.6</ele>
        <time>2024-02-04T12:03:53Z</time>
      </trkpt>
      <trkpt lat="43.18155" lon="6.49993">
        <ele>492.6</ele>
        <time>2024-02-04T12:03:54Z</time>
      </trkpt>
      <trkpt lat="43.18155" lon="6.49993">
        <ele>492.6</ele>
        <time>2024-02-04T12:03:55Z</time>
      </trkpt>
      <trkpt lat="43.18155" lon="6.49993">
        <ele>492.5</ele>
        <time>2024-02-04T12:03:56Z</time>
      </trkpt>
      <trkpt lat="43.18155" lon="6.49993">
        <ele>492.6</ele>
        <time>2024-02-04T12:03:57Z</time>
      </trkpt>
      <trkpt lat="43.18155" lon="6.49993">
        <ele>492.5</ele>
        <time>2024-02-04T12:03:58Z</time>
      </trkpt>
      <trkpt lat="43.18155" lon="6.49993">
        <ele>492.5</ele>
        <time>2024-02-04T12:03:59Z</time>
      </trkpt>
      <trkpt lat="43.18155" lon="6.49993">
        <ele>492.5</ele>
        <time>2024-02-04T12:04:00Z</time>
      </trkpt>
      <trkpt lat="43.18155" lon="6.49993">
        <ele>492.6</ele>
        <time>2024-02-04T12:04:01Z</time>
      </trkpt>
      <trkpt lat="43.18155" lon="6.49993">
        <ele>492.6</ele>
        <time>2024-02-04T12:04:02Z</time>
      </trkpt>
      <trkpt lat="43.18155" lon="6.49994">
        <ele>492.6</ele>
        <time>2024-02-04T12:04:03Z</time>
      </trkpt>
      <trkpt lat="43.18155" lon="6.49994">
        <ele>492.6</ele>
        <time>2024-02-04T12:04:04Z</time>
      </trkpt>
      <trkpt lat="43.18155" lon="6.49994">
        <ele>492.6</ele>
        <time>2024-02-04T12:04:05Z</time>
      </trkpt>
      <trkpt lat="43.18155" lon="6.49994">
        <ele>492.6</ele>
        <time>2024-02-04T12:04:06Z</time>
      </trkpt>
      <trkpt lat="43.18155" lon="6.49994">
        <ele>492.5</ele>
        <time>2024-02-04T12:04:07Z</time>
      </trkpt>
      <trkpt lat="43.18155" lon="6.49994">
        <ele>492.6</ele>
        <time>2024-02-04T12:04:08Z</time>
      </trkpt>
      <trkpt lat="43.18155" lon="6.49994">
        <ele>492.6</ele>
        <time>2024-02-04T12:04:09Z</time>
      </trkpt>
      <trkpt lat="43.18155" lon="6.49994">
        <ele>492.6</ele>
        <time>2024-02-04T12:04:10Z</time>
      </trkpt>
      <trkpt lat="43.18155" lon="6.49994">
        <ele>492.6</ele>
        <time>2024-02-04T12:04:11Z</time>
      </trkpt>
      <trkpt lat="43.18155" lon="6.49994">
        <ele>492.5</ele>
        <time>2024-02-04T12:04:12Z</time>
      </trkpt>
      <trkpt lat="43.18155" lon="6.49994">
        <ele>492.5</ele>
        <time>2024-02-04T12:04:13Z</time>
      </trkpt>
      <trkpt lat="43.18155" lon="6.49994">
        <ele>492.4</ele>
        <time>2024-02-04T12:04:14Z</time>
      </trkpt>
      <trkpt lat="43.18155" lon="6.49994">
        <ele>492.4</ele>
        <time>2024-02-04T12:04:15Z</time>
      </trkpt>
      <trkpt lat="43.18155" lon="6.49994">
        <ele>492.4</ele>
        <time>2024-02-04T12:04:16Z</time>
      </trkpt>
      <trkpt lat="43.18156" lon="6.49994">
        <ele>492.4</ele>
        <time>2024-02-04T12:04:17Z</time>
      </trkpt>
      <trkpt lat="43.18156" lon="6.49994">
        <ele>492.3</ele>
        <time>2024-02-04T12:04:18Z</time>
      </trkpt>
      <trkpt lat="43.18156" lon="6.49994">
        <ele>492.3</ele>
        <time>2024-02-04T12:04:19Z</time>
      </trkpt>
      <trkpt lat="43.18156" lon="6.49994">
        <ele>492.4</ele>
        <time>2024-02-04T12:04:20Z</time>
      </trkpt>
      <trkpt lat="43.18156" lon="6.49994">
        <ele>492.5</ele>
        <time>2024-02-04T12:04:21Z</time>
      </trkpt>
      <trkpt lat="43.18156" lon="6.49994">
        <ele>492.6</ele>
        <time>2024-02-04T12:04:22Z</time>
      </trkpt>
      <trkpt lat="43.18156" lon="6.49994">
        <ele>492.5</ele>
        <time>2024-02-04T12:04:23Z</time>
      </trkpt>
      <trkpt lat="43.18156" lon="6.49994">
        <ele>492.4</ele>
        <time>2024-02-04T12:04:24Z</time>
      </trkpt>
      <trkpt lat="43.18156" lon="6.49994">
        <ele>492.4</ele>
        <time>2024-02-04T12:04:25Z</time>
      </trkpt>
      <trkpt lat="43.18156" lon="6.49994">
        <ele>492.4</ele>
        <time>2024-02-04T12:04:26Z</time>
      </trkpt>
      <trkpt lat="43.18156" lon="6.49993">
        <ele>492.5</ele>
        <time>2024-02-04T12:04:27Z</time>
      </trkpt>
      <trkpt lat="43.18156" lon="6.49993">
        <ele>492.5</ele>
        <time>2024-02-04T12:04:28Z</time>
      </trkpt>
      <trkpt lat="43.18156" lon="6.49994">
        <ele>492.5</ele>
        <time>2024-02-04T12:04:29Z</time>
      </trkpt>
      <trkpt lat="43.18156" lon="6.49994">
        <ele>492.5</ele>
        <time>2024-02-04T12:04:30Z</time>
      </trkpt>
      <trkpt lat="43.18156" lon="6.49994">
        <ele>492.6</ele>
        <time>2024-02-04T12:04:31Z</time>
      </trkpt>
      <trkpt lat="43.18156" lon="6.49994">
        <ele>492.7</ele>
        <time>2024-02-04T12:04:32Z</time>
      </trkpt>
      <trkpt lat="43.18156" lon="6.49994">
        <ele>492.6</ele>
        <time>2024-02-04T12:04:33Z</time>
      </trkpt>
      <trkpt lat="43.18156" lon="6.49994">
        <ele>492.6</ele>
        <time>2024-02-04T12:04:34Z</time>
      </trkpt>
      <trkpt lat="43.18156" lon="6.49994">
        <ele>492.5</ele>
        <time>2024-02-04T12:04:35Z</time>
      </trkpt>
      <trkpt lat="43.18156" lon="6.49994">
        <ele>492.6</ele>
        <time>2024-02-04T12:04:36Z</time>
      </trkpt>
      <trkpt lat="43.18156" lon="6.49994">
        <ele>492.6</ele>
        <time>2024-02-04T12:04:37Z</time>
      </trkpt>
      <trkpt lat="43.18156" lon="6.49995">
        <ele>492.6</ele>
        <time>2024-02-04T12:04:38Z</time>
      </trkpt>
      <trkpt lat="43.18156" lon="6.49995">
        <ele>492.6</ele>
        <time>2024-02-04T12:04:39Z</time>
      </trkpt>
      <trkpt lat="43.18156" lon="6.49995">
        <ele>492.7</ele>
        <time>2024-02-04T12:04:40Z</time>
      </trkpt>
      <trkpt lat="43.18156" lon="6.49995">
        <ele>492.7</ele>
        <time>2024-02-04T12:04:41Z</time>
      </trkpt>
      <trkpt lat="43.18156" lon="6.49995">
        <ele>492.7</ele>
        <time>2024-02-04T12:04:42Z</time>
      </trkpt>
      <trkpt lat="43.18156" lon="6.49995">
        <ele>492.6</ele>
        <time>2024-02-04T12:04:43Z</time>
      </trkpt>
      <trkpt lat="43.18156" lon="6.49995">
        <ele>492.6</ele>
        <time>2024-02-04T12:04:44Z</time>
      </trkpt>
      <trkpt lat="43.18155" lon="6.49995">
        <ele>492.6</ele>
        <time>2024-02-04T12:04:45Z</time>
      </trkpt>
      <trkpt lat="43.18155" lon="6.49995">
        <ele>492.6</ele>
        <time>2024-02-04T12:04:46Z</time>
      </trkpt>
      <trkpt lat="43.18155" lon="6.49995">
        <ele>492.6</ele>
        <time>2024-02-04T12:04:47Z</time>
      </trkpt>
      <trkpt lat="43.18155" lon="6.49995">
        <ele>492.6</ele>
        <time>2024-02-04T12:04:48Z</time>
      </trkpt>
      <trkpt lat="43.18155" lon="6.49995">
        <ele>492.6</ele>
        <time>2024-02-04T12:04:49Z</time>
      </trkpt>
      <trkpt lat="43.18155" lon="6.49995">
        <ele>492.7</ele>
        <time>2024-02-04T12:04:50Z</time>
      </trkpt>
      <trkpt lat="43.18155" lon="6.49995">
        <ele>492.7</ele>
        <time>2024-02-04T12:04:51Z</time>
      </trkpt>
      <trkpt lat="43.18155" lon="6.49995">
        <ele>492.7</ele>
        <time>2024-02-04T12:04:52Z</time>
      </trkpt>
      <trkpt lat="43.18155" lon="6.49995">
        <ele>492.7</ele>
        <time>2024-02-04T12:04:53Z</time>
      </trkpt>
      <trkpt lat="43.18155" lon="6.49995">
        <ele>492.8</ele>
        <time>2024-02-04T12:04:54Z</time>
      </trkpt>
      <trkpt lat="43.18155" lon="6.49995">
        <ele>492.8</ele>
        <time>2024-02-04T12:04:55Z</time>
      </trkpt>
      <trkpt lat="43.18155" lon="6.49995">
        <ele>492.9</ele>
        <time>2024-02-04T12:04:56Z</time>
      </trkpt>
      <trkpt lat="43.18155" lon="6.49995">
        <ele>492.9</ele>
        <time>2024-02-04T12:04:57Z</time>
      </trkpt>
      <trkpt lat="43.18155" lon="6.49995">
        <ele>492.9</ele>
        <time>2024-02-04T12:04:58Z</time>
      </trkpt>
      <trkpt lat="43.18155" lon="6.49995">
        <ele>492.9</ele>
        <time>2024-02-04T12:04:59Z</time>
      </trkpt>
      <trkpt lat="43.18155" lon="6.49995">
        <ele>492.9</ele>
        <time>2024-02-04T12:05:00Z</time>
      </trkpt>
      <trkpt lat="43.18155" lon="6.49995">
        <ele>492.9</ele>
        <time>2024-02-04T12:05:01Z</time>
      </trkpt>
      <trkpt lat="43.18154" lon="6.49995">
        <ele>492.9</ele>
        <time>2024-02-04T12:05:02Z</time>
      </trkpt>
      <trkpt lat="43.18154" lon="6.49995">
        <ele>492.9</ele>
        <time>2024-02-04T12:05:03Z</time>
      </trkpt>
      <trkpt lat="43.18154" lon="6.49995">
        <ele>492.9</ele>
        <time>2024-02-04T12:05:04Z</time>
      </trkpt>
      <trkpt lat="43.18154" lon="6.49995">
        <ele>492.9</ele>
        <time>2024-02-04T12:05:05Z</time>
      </trkpt>
      <trkpt lat="43.18154" lon="6.49995">
        <ele>492.9</ele>
        <time>2024-02-04T12:05:06Z</time>
      </trkpt>
      <trkpt lat="43.18154" lon="6.49995">
        <ele>492.8</ele>
        <time>2024-02-04T12:05:07Z</time>
      </trkpt>
      <trkpt lat="43.18154" lon="6.49995">
        <ele>492.7</ele>
        <time>2024-02-04T12:05:08Z</time>
      </trkpt>
      <trkpt lat="43.18154" lon="6.49995">
        <ele>492.7</ele>
        <time>2024-02-04T12:05:09Z</time>
      </trkpt>
      <trkpt lat="43.18154" lon="6.49995">
        <ele>492.7</ele>
        <time>2024-02-04T12:05:10Z</time>
      </trkpt>
      <trkpt lat="43.18154" lon="6.49995">
        <ele>492.6</ele>
        <time>2024-02-04T12:05:11Z</time>
      </trkpt>
      <trkpt lat="43.18154" lon="6.49995">
        <ele>492.5</ele>
        <time>2024-02-04T12:05:12Z</time>
      </trkpt>
      <trkpt lat="43.18154" lon="6.49995">
        <ele>492.6</ele>
        <time>2024-02-04T12:05:13Z</time>
      </trkpt>
      <trkpt lat="43.18154" lon="6.49995">
        <ele>492.7</ele>
        <time>2024-02-04T12:05:14Z</time>
      </trkpt>
      <trkpt lat="43.18154" lon="6.49995">
        <ele>492.7</ele>
        <time>2024-02-04T12:05:15Z</time>
      </trkpt>
      <trkpt lat="43.18154" lon="6.49995">
        <ele>492.7</ele>
        <time>2024-02-04T12:05:16Z</time>
      </trkpt>
      <trkpt lat="43.18154" lon="6.49995">
        <ele>492.7</ele>
        <time>2024-02-04T12:05:17Z</time>
      </trkpt>
      <trkpt lat="43.18154" lon="6.49995">
        <ele>492.8</ele>
        <time>2024-02-04T12:05:18Z</time>
      </trkpt>
      <trkpt lat="43.18154" lon="6.49995">
        <ele>492.9</ele>
        <time>2024-02-04T12:05:19Z</time>
      </trkpt>
      <trkpt lat="43.18154" lon="6.49995">
        <ele>493</ele>
        <time>2024-02-04T12:05:20Z</time>
      </trkpt>
      <trkpt lat="43.18154" lon="6.49995">
        <ele>492.9</ele>
        <time>2024-02-04T12:05:21Z</time>
      </trkpt>
      <trkpt lat="43.18154" lon="6.49995">
        <ele>493</ele>
        <time>2024-02-04T12:05:22Z</time>
      </trkpt>
      <trkpt lat="43.18154" lon="6.49995">
        <ele>493</ele>
        <time>2024-02-04T12:05:23Z</time>
      </trkpt>
      <trkpt lat="43.18154" lon="6.49995">
        <ele>493.1</ele>
        <time>2024-02-04T12:05:24Z</time>
      </trkpt>
      <trkpt lat="43.18154" lon="6.49995">
        <ele>493.1</ele>
        <time>2024-02-04T12:05:25Z</time>
      </trkpt>
      <trkpt lat="43.18154" lon="6.49995">
        <ele>493.1</ele>
        <time>2024-02-04T12:05:26Z</time>
      </trkpt>
      <trkpt lat="43.18154" lon="6.49995">
        <ele>493.1</ele>
        <time>2024-02-04T12:05:27Z</time>
      </trkpt>
      <trkpt lat="43.18154" lon="6.49995">
        <ele>493</ele>
        <time>2024-02-04T12:05:28Z</time>
      </trkpt>
      <trkpt lat="43.18154" lon="6.49995">
        <ele>493</ele>
        <time>2024-02-04T12:05:29Z</time>
      </trkpt>
      <trkpt lat="43.18154" lon="6.49995">
        <ele>493</ele>
        <time>2024-02-04T12:05:30Z</time>
      </trkpt>
      <trkpt lat="43.18154" lon="6.49995">
        <ele>493</ele>
        <time>2024-02-04T12:05:31Z</time>
      </trkpt>
      <trkpt lat="43.18154" lon="6.49995">
        <ele>493</ele>
        <time>2024-02-04T12:05:32Z</time>
      </trkpt>
      <trkpt lat="43.18154" lon="6.49995">
        <ele>493</ele>
        <time>2024-02-04T12:05:33Z</time>
      </trkpt>
      <trkpt lat="43.18154" lon="6.49995">
        <ele>492.9</ele>
        <time>2024-02-04T12:05:34Z</time>
      </trkpt>
      <trkpt lat="43.18154" lon="6.49995">
        <ele>493</ele>
        <time>2024-02-04T12:05:35Z</time>
      </trkpt>
      <trkpt lat="43.18154" lon="6.49995">
        <ele>493</ele>
        <time>2024-02-04T12:05:36Z</time>
      </trkpt>
      <trkpt lat="43.18154" lon="6.49995">
        <ele>492.9</ele>
        <time>2024-02-04T12:05:37Z</time>
      </trkpt>
      <trkpt lat="43.18154" lon="6.49996">
        <ele>492.9</ele>
        <time>2024-02-04T12:05:38Z</time>
      </trkpt>
      <trkpt lat="43.18154" lon="6.49996">
        <ele>492.9</ele>
        <time>2024-02-04T12:05:39Z</time>
      </trkpt>
      <trkpt lat="43.18154" lon="6.49996">
        <ele>492.9</ele>
        <time>2024-02-04T12:05:40Z</time>
      </trkpt>
      <trkpt lat="43.18154" lon="6.49996">
        <ele>492.9</ele>
        <time>2024-02-04T12:05:41Z</time>
      </trkpt>
      <trkpt lat="43.18154" lon="6.49996">
        <ele>492.9</ele>
        <time>2024-02-04T12:05:42Z</time>
      </trkpt>
      <trkpt lat="43.18154" lon="6.49996">
        <ele>492.9</ele>
        <time>2024-02-04T12:05:43Z</time>
      </trkpt>
      <trkpt lat="43.18154" lon="6.49996">
        <ele>493</ele>
        <time>2024-02-04T12:05:44Z</time>
      </trkpt>
      <trkpt lat="43.18154" lon="6.49996">
        <ele>493.1</ele>
        <time>2024-02-04T12:05:45Z</time>
      </trkpt>
      <trkpt lat="43.18154" lon="6.49996">
        <ele>493.2</ele>
        <time>2024-02-04T12:05:46Z</time>
      </trkpt>
      <trkpt lat="43.18154" lon="6.49996">
        <ele>493.1</ele>
        <time>2024-02-04T12:05:47Z</time>
      </trkpt>
      <trkpt lat="43.18154" lon="6.49996">
        <ele>493.1</ele>
        <time>2024-02-04T12:05:48Z</time>
      </trkpt>
      <trkpt lat="43.18154" lon="6.49996">
        <ele>493.1</ele>
        <time>2024-02-04T12:05:49Z</time>
      </trkpt>
      <trkpt lat="43.18154" lon="6.49996">
        <ele>493.1</ele>
        <time>2024-02-04T12:05:50Z</time>
      </trkpt>
      <trkpt lat="43.18154" lon="6.49996">
        <ele>493.1</ele>
        <time>2024-02-04T12:05:51Z</time>
      </trkpt>
      <trkpt lat="43.18154" lon="6.49996">
        <ele>493.1</ele>
        <time>2024-02-04T12:05:52Z</time>
      </trkpt>
      <trkpt lat="43.18154" lon="6.49996">
        <ele>493.1</ele>
        <time>2024-02-04T12:05:53Z</time>
      </trkpt>
      <trkpt lat="43.18154" lon="6.49996">
        <ele>493.1</ele>
        <time>2024-02-04T12:05:54Z</time>
      </trkpt>
      <trkpt lat="43.18154" lon="6.49996">
        <ele>493.2</ele>
        <time>2024-02-04T12:05:55Z</time>
      </trkpt>
      <trkpt lat="43.18154" lon="6.49996">
        <ele>493.2</ele>
        <time>2024-02-04T12:05:56Z</time>
      </trkpt>
      <trkpt lat="43.18154" lon="6.49996">
        <ele>493.2</ele>
        <time>2024-02-04T12:05:57Z</time>
      </trkpt>
      <trkpt lat="43.18155" lon="6.49996">
        <ele>493.2</ele>
        <time>2024-02-04T12:05:58Z</time>
      </trkpt>
      <trkpt lat="43.18155" lon="6.49996">
        <ele>493.2</ele>
        <time>2024-02-04T12:05:59Z</time>
      </trkpt>
      <trkpt lat="43.18155" lon="6.49996">
        <ele>493.2</ele>
        <time>2024-02-04T12:06:00Z</time>
      </trkpt>
      <trkpt lat="43.18155" lon="6.49996">
        <ele>493.2</ele>
        <time>2024-02-04T12:06:01Z</time>
      </trkpt>
      <trkpt lat="43.18155" lon="6.49997">
        <ele>493.1</ele>
        <time>2024-02-04T12:06:02Z</time>
      </trkpt>
      <trkpt lat="43.18156" lon="6.49997">
        <ele>493.1</ele>
        <time>2024-02-04T12:06:03Z</time>
      </trkpt>
      <trkpt lat="43.18156" lon="6.49997">
        <ele>493.1</ele>
        <time>2024-02-04T12:06:04Z</time>
      </trkpt>
      <trkpt lat="43.18156" lon="6.49997">
        <ele>493.1</ele>
        <time>2024-02-04T12:06:05Z</time>
      </trkpt>
      <trkpt lat="43.18156" lon="6.49997">
        <ele>493.1</ele>
        <time>2024-02-04T12:06:06Z</time>
      </trkpt>
      <trkpt lat="43.18157" lon="6.49997">
        <ele>493.1</ele>
        <time>2024-02-04T12:06:07Z</time>
      </trkpt>
      <trkpt lat="43.18156" lon="6.49997">
        <ele>493.1</ele>
        <time>2024-02-04T12:06:08Z</time>
      </trkpt>
      <trkpt lat="43.18156" lon="6.49997">
        <ele>493.1</ele>
        <time>2024-02-04T12:06:09Z</time>
      </trkpt>
      <trkpt lat="43.18156" lon="6.49996">
        <ele>493.1</ele>
        <time>2024-02-04T12:06:10Z</time>
      </trkpt>
      <trkpt lat="43.18156" lon="6.49996">
        <ele>493.2</ele>
        <time>2024-02-04T12:06:11Z</time>
      </trkpt>
      <trkpt lat="43.18156" lon="6.49997">
        <ele>493.3</ele>
        <time>2024-02-04T12:06:12Z</time>
      </trkpt>
      <trkpt lat="43.18156" lon="6.49997">
        <ele>493.4</ele>
        <time>2024-02-04T12:06:13Z</time>
      </trkpt>
      <trkpt lat="43.18156" lon="6.49997">
        <ele>493.5</ele>
        <time>2024-02-04T12:06:14Z</time>
      </trkpt>
      <trkpt lat="43.18156" lon="6.49997">
        <ele>493.5</ele>
        <time>2024-02-04T12:06:15Z</time>
      </trkpt>
      <trkpt lat="43.18156" lon="6.49997">
        <ele>493.5</ele>
        <time>2024-02-04T12:06:16Z</time>
      </trkpt>
      <trkpt lat="43.18156" lon="6.49997">
        <ele>493.6</ele>
        <time>2024-02-04T12:06:17Z</time>
      </trkpt>
      <trkpt lat="43.18156" lon="6.49997">
        <ele>493.6</ele>
        <time>2024-02-04T12:06:18Z</time>
      </trkpt>
      <trkpt lat="43.18156" lon="6.49997">
        <ele>493.6</ele>
        <time>2024-02-04T12:06:19Z</time>
      </trkpt>
      <trkpt lat="43.18156" lon="6.49997">
        <ele>493.6</ele>
        <time>2024-02-04T12:06:20Z</time>
      </trkpt>
      <trkpt lat="43.18156" lon="6.49997">
        <ele>493.7</ele>
        <time>2024-02-04T12:06:21Z</time>
      </trkpt>
      <trkpt lat="43.18155" lon="6.49997">
        <ele>493.7</ele>
        <time>2024-02-04T12:06:22Z</time>
      </trkpt>
      <trkpt lat="43.18155" lon="6.49997">
        <ele>493.7</ele>
        <time>2024-02-04T12:06:23Z</time>
      </trkpt>
      <trkpt lat="43.18155" lon="6.49997">
        <ele>493.8</ele>
        <time>2024-02-04T12:06:24Z</time>
      </trkpt>
      <trkpt lat="43.18155" lon="6.49997">
        <ele>493.8</ele>
        <time>2024-02-04T12:06:25Z</time>
      </trkpt>
      <trkpt lat="43.18155" lon="6.49997">
        <ele>493.8</ele>
        <time>2024-02-04T12:06:26Z</time>
      </trkpt>
      <trkpt lat="43.18155" lon="6.49997">
        <ele>493.8</ele>
        <time>2024-02-04T12:06:27Z</time>
      </trkpt>
      <trkpt lat="43.18155" lon="6.49998">
        <ele>493.8</ele>
        <time>2024-02-04T12:06:28Z</time>
      </trkpt>
      <trkpt lat="43.18155" lon="6.49997">
        <ele>493.8</ele>
        <time>2024-02-04T12:06:29Z</time>
      </trkpt>
      <trkpt lat="43.18155" lon="6.49997">
        <ele>493.7</ele>
        <time>2024-02-04T12:06:30Z</time>
      </trkpt>
      <trkpt lat="43.18155" lon="6.49997">
        <ele>493.7</ele>
        <time>2024-02-04T12:06:31Z</time>
      </trkpt>
      <trkpt lat="43.18154" lon="6.49996">
        <ele>491.2</ele>
        <time>2024-02-04T12:06:32Z</time>
      </trkpt>
      <trkpt lat="43.18155" lon="6.49997">
        <ele>491.7</ele>
        <time>2024-02-04T12:06:33Z</time>
      </trkpt>
      <trkpt lat="43.18155" lon="6.49997">
        <ele>492</ele>
        <time>2024-02-04T12:06:34Z</time>
      </trkpt>
      <trkpt lat="43.18155" lon="6.49996">
        <ele>492.3</ele>
        <time>2024-02-04T12:06:35Z</time>
      </trkpt>
      <trkpt lat="43.18155" lon="6.49996">
        <ele>492.6</ele>
        <time>2024-02-04T12:06:36Z</time>
      </trkpt>
      <trkpt lat="43.18154" lon="6.49997">
        <ele>492.8</ele>
        <time>2024-02-04T12:06:37Z</time>
      </trkpt>
      <trkpt lat="43.18154" lon="6.49997">
        <ele>493</ele>
        <time>2024-02-04T12:06:38Z</time>
      </trkpt>
      <trkpt lat="43.18154" lon="6.49997">
        <ele>493.2</ele>
        <time>2024-02-04T12:06:39Z</time>
      </trkpt>
      <trkpt lat="43.18154" lon="6.49997">
        <ele>493.3</ele>
        <time>2024-02-04T12:06:40Z</time>
      </trkpt>
      <trkpt lat="43.18154" lon="6.49997">
        <ele>493.4</ele>
        <time>2024-02-04T12:06:41Z</time>
      </trkpt>
      <trkpt lat="43.18154" lon="6.49997">
        <ele>493.5</ele>
        <time>2024-02-04T12:06:42Z</time>
      </trkpt>
      <trkpt lat="43.18154" lon="6.49997">
        <ele>493.5</ele>
        <time>2024-02-04T12:06:43Z</time>
      </trkpt>
      <trkpt lat="43.18154" lon="6.49997">
        <ele>493.6</ele>
        <time>2024-02-04T12:06:44Z</time>
      </trkpt>
      <trkpt lat="43.18154" lon="6.49997">
        <ele>493.6</ele>
        <time>2024-02-04T12:06:45Z</time>
      </trkpt>
      <trkpt lat="43.18154" lon="6.49997">
        <ele>493.5</ele>
        <time>2024-02-04T12:06:46Z</time>
      </trkpt>
      <trkpt lat="43.18154" lon="6.49997">
        <ele>493.5</ele>
        <time>2024-02-04T12:06:47Z</time>
      </trkpt>
      <trkpt lat="43.18154" lon="6.49997">
        <ele>493.5</ele>
        <time>2024-02-04T12:06:48Z</time>
      </trkpt>
      <trkpt lat="43.18154" lon="6.49997">
        <ele>493.5</ele>
        <time>2024-02-04T12:06:49Z</time>
      </trkpt>
      <trkpt lat="43.18154" lon="6.49997">
        <ele>493.4</ele>
        <time>2024-02-04T12:06:50Z</time>
      </trkpt>
      <trkpt lat="43.18154" lon="6.49997">
        <ele>493.4</ele>
        <time>2024-02-04T12:06:51Z</time>
      </trkpt>
      <trkpt lat="43.18155" lon="6.49997">
        <ele>493.4</ele>
        <time>2024-02-04T12:06:52Z</time>
      </trkpt>
      <trkpt lat="43.18155" lon="6.49997">
        <ele>493.5</ele>
        <time>2024-02-04T12:06:53Z</time>
      </trkpt>
      <trkpt lat="43.18155" lon="6.49997">
        <ele>493.5</ele>
        <time>2024-02-04T12:06:54Z</time>
      </trkpt>
      <trkpt lat="43.18155" lon="6.49997">
        <ele>493.5</ele>
        <time>2024-02-04T12:06:55Z</time>
      </trkpt>
      <trkpt lat="43.18155" lon="6.49997">
        <ele>493.5</ele>
        <time>2024-02-04T12:06:56Z</time>
      </trkpt>
      <trkpt lat="43.18155" lon="6.49997">
        <ele>493.5</ele>
        <time>2024-02-04T12:06:57Z</time>
      </trkpt>
      <trkpt lat="43.18155" lon="6.49998">
        <ele>493.6</ele>
        <time>2024-02-04T12:06:58Z</time>
      </trkpt>
      <trkpt lat="43.18156" lon="6.49998">
        <ele>493.6</ele>
        <time>2024-02-04T12:06:59Z</time>
      </trkpt>
      <trkpt lat="43.18156" lon="6.49998">
        <ele>493.6</ele>
        <time>2024-02-04T12:07:00Z</time>
      </trkpt>
      <trkpt lat="43.18156" lon="6.49998">
        <ele>493.6</ele>
        <time>2024-02-04T12:07:01Z</time>
      </trkpt>
      <trkpt lat="43.18156" lon="6.49998">
        <ele>493.7</ele>
        <time>2024-02-04T12:07:02Z</time>
      </trkpt>
      <trkpt lat="43.18156" lon="6.49997">
        <ele>493.7</ele>
        <time>2024-02-04T12:07:03Z</time>
      </trkpt>
      <trkpt lat="43.18157" lon="6.49997">
        <ele>493.7</ele>
        <time>2024-02-04T12:07:04Z</time>
      </trkpt>
      <trkpt lat="43.18157" lon="6.49997">
        <ele>493.7</ele>
        <time>2024-02-04T12:07:05Z</time>
      </trkpt>
      <trkpt lat="43.18157" lon="6.49997">
        <ele>493.8</ele>
        <time>2024-02-04T12:07:06Z</time>
      </trkpt>
      <trkpt lat="43.18157" lon="6.49997">
        <ele>493.8</ele>
        <time>2024-02-04T12:07:07Z</time>
      </trkpt>
      <trkpt lat="43.18157" lon="6.49997">
        <ele>493.9</ele>
        <time>2024-02-04T12:07:08Z</time>
      </trkpt>
      <trkpt lat="43.18158" lon="6.49997">
        <ele>493.9</ele>
        <time>2024-02-04T12:07:09Z</time>
      </trkpt>
      <trkpt lat="43.18158" lon="6.49997">
        <ele>493.9</ele>
        <time>2024-02-04T12:07:10Z</time>
      </trkpt>
      <trkpt lat="43.18158" lon="6.49997">
        <ele>493.9</ele>
        <time>2024-02-04T12:07:11Z</time>
      </trkpt>
      <trkpt lat="43.18158" lon="6.49997">
        <ele>494</ele>
        <time>2024-02-04T12:07:12Z</time>
      </trkpt>
      <trkpt lat="43.18158" lon="6.49997">
        <ele>494</ele>
        <time>2024-02-04T12:07:13Z</time>
      </trkpt>
      <trkpt lat="43.18158" lon="6.49997">
        <ele>494</ele>
        <time>2024-02-04T12:07:14Z</time>
      </trkpt>
      <trkpt lat="43.18158" lon="6.49997">
        <ele>494</ele>
        <time>2024-02-04T12:07:15Z</time>
      </trkpt>
      <trkpt lat="43.18158" lon="6.49997">
        <ele>494</ele>
        <time>2024-02-04T12:07:16Z</time>
      </trkpt>
      <trkpt lat="43.18158" lon="6.49998">
        <ele>494</ele>
        <time>2024-02-04T12:07:17Z</time>
      </trkpt>
      <trkpt lat="43.18158" lon="6.49998">
        <ele>494</ele>
        <time>2024-02-04T12:07:18Z</time>
      </trkpt>
      <trkpt lat="43.18158" lon="6.49998">
        <ele>494</ele>
        <time>2024-02-04T12:07:19Z</time>
      </trkpt>
      <trkpt lat="43.18158" lon="6.49997">
        <ele>494</ele>
        <time>2024-02-04T12:07:20Z</time>
      </trkpt>
      <trkpt lat="43.18158" lon="6.49997">
        <ele>494</ele>
        <time>2024-02-04T12:07:21Z</time>
      </trkpt>
      <trkpt lat="43.18158" lon="6.49997">
        <ele>494</ele>
        <time>2024-02-04T12:07:22Z</time>
      </trkpt>
      <trkpt lat="43.18158" lon="6.49997">
        <ele>494</ele>
        <time>2024-02-04T12:07:23Z</time>
      </trkpt>
      <trkpt lat="43.18157" lon="6.49997">
        <ele>494</ele>
        <time>2024-02-04T12:07:24Z</time>
      </trkpt>
      <trkpt lat="43.18157" lon="6.49997">
        <ele>494</ele>
        <time>2024-02-04T12:07:25Z</time>
      </trkpt>
      <trkpt lat="43.18157" lon="6.49997">
        <ele>494</ele>
        <time>2024-02-04T12:07:26Z</time>
      </trkpt>
      <trkpt lat="43.18156" lon="6.49997">
        <ele>494</ele>
        <time>2024-02-04T12:07:27Z</time>
      </trkpt>
      <trkpt lat="43.18156" lon="6.49997">
        <ele>494</ele>
        <time>2024-02-04T12:07:28Z</time>
      </trkpt>
      <trkpt lat="43.18155" lon="6.49997">
        <ele>494</ele>
        <time>2024-02-04T12:07:29Z</time>
      </trkpt>
      <trkpt lat="43.18155" lon="6.49997">
        <ele>494</ele>
        <time>2024-02-04T12:07:30Z</time>
      </trkpt>
      <trkpt lat="43.18155" lon="6.49997">
        <ele>494</ele>
        <time>2024-02-04T12:07:31Z</time>
      </trkpt>
      <trkpt lat="43.18155" lon="6.49996">
        <ele>494.1</ele>
        <time>2024-02-04T12:07:32Z</time>
      </trkpt>
      <trkpt lat="43.18154" lon="6.49996">
        <ele>494.1</ele>
        <time>2024-02-04T12:07:33Z</time>
      </trkpt>
      <trkpt lat="43.18154" lon="6.49996">
        <ele>494.1</ele>
        <time>2024-02-04T12:07:34Z</time>
      </trkpt>
      <trkpt lat="43.18154" lon="6.49996">
        <ele>494.2</ele>
        <time>2024-02-04T12:07:35Z</time>
      </trkpt>
      <trkpt lat="43.18154" lon="6.49996">
        <ele>494.2</ele>
        <time>2024-02-04T12:07:36Z</time>
      </trkpt>
      <trkpt lat="43.18153" lon="6.49996">
        <ele>494.3</ele>
        <time>2024-02-04T12:07:37Z</time>
      </trkpt>
      <trkpt lat="43.18153" lon="6.49996">
        <ele>494.3</ele>
        <time>2024-02-04T12:07:38Z</time>
      </trkpt>
      <trkpt lat="43.18153" lon="6.49996">
        <ele>494.3</ele>
        <time>2024-02-04T12:07:39Z</time>
      </trkpt>
      <trkpt lat="43.18153" lon="6.49996">
        <ele>494.2</ele>
        <time>2024-02-04T12:07:40Z</time>
      </trkpt>
      <trkpt lat="43.18153" lon="6.49996">
        <ele>494.2</ele>
        <time>2024-02-04T12:07:41Z</time>
      </trkpt>
      <trkpt lat="43.18153" lon="6.49996">
        <ele>494.3</ele>
        <time>2024-02-04T12:07:42Z</time>
      </trkpt>
      <trkpt lat="43.18153" lon="6.49996">
        <ele>494.3</ele>
        <time>2024-02-04T12:07:43Z</time>
      </trkpt>
      <trkpt lat="43.18153" lon="6.49996">
        <ele>494.3</ele>
        <time>2024-02-04T12:07:44Z</time>
      </trkpt>
      <trkpt lat="43.18152" lon="6.49996">
        <ele>494.3</ele>
        <time>2024-02-04T12:07:45Z</time>
      </trkpt>
      <trkpt lat="43.18152" lon="6.49996">
        <ele>494.3</ele>
        <time>2024-02-04T12:07:46Z</time>
      </trkpt>
      <trkpt lat="43.18152" lon="6.49995">
        <ele>494.3</ele>
        <time>2024-02-04T12:07:47Z</time>
      </trkpt>
      <trkpt lat="43.18152" lon="6.49995">
        <ele>494.3</ele>
        <time>2024-02-04T12:07:48Z</time>
      </trkpt>
      <trkpt lat="43.18152" lon="6.49995">
        <ele>494.2</ele>
        <time>2024-02-04T12:07:49Z</time>
      </trkpt>
      <trkpt lat="43.18152" lon="6.49995">
        <ele>494.2</ele>
        <time>2024-02-04T12:07:50Z</time>
      </trkpt>
      <trkpt lat="43.18152" lon="6.49995">
        <ele>494.2</ele>
        <time>2024-02-04T12:07:51Z</time>
      </trkpt>
      <trkpt lat="43.18152" lon="6.49996">
        <ele>494.1</ele>
        <time>2024-02-04T12:07:52Z</time>
      </trkpt>
      <trkpt lat="43.18152" lon="6.49995">
        <ele>494.1</ele>
        <time>2024-02-04T12:07:53Z</time>
      </trkpt>
      <trkpt lat="43.18152" lon="6.49995">
        <ele>494</ele>
        <time>2024-02-04T12:07:54Z</time>
      </trkpt>
      <trkpt lat="43.18152" lon="6.49995">
        <ele>493.9</ele>
        <time>2024-02-04T12:07:55Z</time>
      </trkpt>
      <trkpt lat="43.18152" lon="6.49995">
        <ele>493.9</ele>
        <time>2024-02-04T12:07:56Z</time>
      </trkpt>
      <trkpt lat="43.18152" lon="6.49995">
        <ele>493.8</ele>
        <time>2024-02-04T12:07:57Z</time>
      </trkpt>
      <trkpt lat="43.18152" lon="6.49996">
        <ele>493.7</ele>
        <time>2024-02-04T12:07:58Z</time>
      </trkpt>
      <trkpt lat="43.18152" lon="6.49996">
        <ele>493.7</ele>
        <time>2024-02-04T12:07:59Z</time>
      </trkpt>
      <trkpt lat="43.18152" lon="6.49996">
        <ele>493.7</ele>
        <time>2024-02-04T12:08:00Z</time>
      </trkpt>
      <trkpt lat="43.18152" lon="6.49996">
        <ele>493.6</ele>
        <time>2024-02-04T12:08:01Z</time>
      </trkpt>
      <trkpt lat="43.18152" lon="6.49996">
        <ele>493.5</ele>
        <time>2024-02-04T12:08:02Z</time>
      </trkpt>
      <trkpt lat="43.18152" lon="6.49996">
        <ele>493.6</ele>
        <time>2024-02-04T12:08:03Z</time>
      </trkpt>
      <trkpt lat="43.18152" lon="6.49996">
        <ele>493.7</ele>
        <time>2024-02-04T12:08:04Z</time>
      </trkpt>
      <trkpt lat="43.18152" lon="6.49996">
        <ele>493.7</ele>
        <time>2024-02-04T12:08:05Z</time>
      </trkpt>
      <trkpt lat="43.18152" lon="6.49996">
        <ele>493.8</ele>
        <time>2024-02-04T12:08:06Z</time>
      </trkpt>
      <trkpt lat="43.18152" lon="6.49996">
        <ele>493.7</ele>
        <time>2024-02-04T12:08:07Z</time>
      </trkpt>
      <trkpt lat="43.18152" lon="6.49996">
        <ele>493.6</ele>
        <time>2024-02-04T12:08:08Z</time>
      </trkpt>
      <trkpt lat="43.18152" lon="6.49996">
        <ele>493.5</ele>
        <time>2024-02-04T12:08:09Z</time>
      </trkpt>
      <trkpt lat="43.18152" lon="6.49996">
        <ele>493.5</ele>
        <time>2024-02-04T12:08:10Z</time>
      </trkpt>
      <trkpt lat="43.18152" lon="6.49996">
        <ele>493.4</ele>
        <time>2024-02-04T12:08:11Z</time>
      </trkpt>
      <trkpt lat="43.18152" lon="6.49996">
        <ele>493.4</ele>
        <time>2024-02-04T12:08:12Z</time>
      </trkpt>
      <trkpt lat="43.18152" lon="6.49996">
        <ele>493.3</ele>
        <time>2024-02-04T12:08:13Z</time>
      </trkpt>
      <trkpt lat="43.18152" lon="6.49996">
        <ele>493.3</ele>
        <time>2024-02-04T12:08:14Z</time>
      </trkpt>
      <trkpt lat="43.18152" lon="6.49996">
        <ele>493.2</ele>
        <time>2024-02-04T12:08:15Z</time>
      </trkpt>
      <trkpt lat="43.18153" lon="6.49996">
        <ele>493.2</ele>
        <time>2024-02-04T12:08:16Z</time>
      </trkpt>
      <trkpt lat="43.18153" lon="6.49997">
        <ele>493.2</ele>
        <time>2024-02-04T12:08:17Z</time>
      </trkpt>
      <trkpt lat="43.18153" lon="6.49997">
        <ele>493.2</ele>
        <time>2024-02-04T12:08:18Z</time>
      </trkpt>
      <trkpt lat="43.18153" lon="6.49997">
        <ele>493.4</ele>
        <time>2024-02-04T12:08:19Z</time>
      </trkpt>
      <trkpt lat="43.18153" lon="6.49997">
        <ele>493.4</ele>
        <time>2024-02-04T12:08:20Z</time>
      </trkpt>
      <trkpt lat="43.18153" lon="6.49997">
        <ele>493.4</ele>
        <time>2024-02-04T12:08:21Z</time>
      </trkpt>
      <trkpt lat="43.18153" lon="6.49997">
        <ele>493.4</ele>
        <time>2024-02-04T12:08:22Z</time>
      </trkpt>
      <trkpt lat="43.18153" lon="6.49997">
        <ele>493.5</ele>
        <time>2024-02-04T12:08:23Z</time>
      </trkpt>
      <trkpt lat="43.18153" lon="6.49997">
        <ele>493.5</ele>
        <time>2024-02-04T12:08:24Z</time>
      </trkpt>
      <trkpt lat="43.18153" lon="6.49997">
        <ele>493.5</ele>
        <time>2024-02-04T12:08:25Z</time>
      </trkpt>
      <trkpt lat="43.18153" lon="6.49997">
        <ele>493.6</ele>
        <time>2024-02-04T12:08:26Z</time>
      </trkpt>
      <trkpt lat="43.18153" lon="6.49997">
        <ele>493.6</ele>
        <time>2024-02-04T12:08:27Z</time>
      </trkpt>
      <trkpt lat="43.18153" lon="6.49997">
        <ele>493.6</ele>
        <time>2024-02-04T12:08:28Z</time>
      </trkpt>
      <trkpt lat="43.18153" lon="6.49997">
        <ele>493.6</ele>
        <time>2024-02-04T12:08:29Z</time>
      </trkpt>
      <trkpt lat="43.18153" lon="6.49997">
        <ele>493.6</ele>
        <time>2024-02-04T12:08:30Z</time>
      </trkpt>
      <trkpt lat="43.18153" lon="6.49997">
        <ele>493.6</ele>
        <time>2024-02-04T12:08:31Z</time>
      </trkpt>
      <trkpt lat="43.18153" lon="6.49997">
        <ele>493.6</ele>
        <time>2024-02-04T12:08:32Z</time>
      </trkpt>
      <trkpt lat="43.18153" lon="6.49997">
        <ele>493.6</ele>
        <time>2024-02-04T12:08:33Z</time>
      </trkpt>
      <trkpt lat="43.18153" lon="6.49997">
        <ele>493.6</ele>
        <time>2024-02-04T12:08:34Z</time>
      </trkpt>
      <trkpt lat="43.18153" lon="6.49998">
        <ele>493.7</ele>
        <time>2024-02-04T12:08:35Z</time>
      </trkpt>
      <trkpt lat="43.18153" lon="6.49998">
        <ele>493.7</ele>
        <time>2024-02-04T12:08:36Z</time>
      </trkpt>
      <trkpt lat="43.18153" lon="6.49998">
        <ele>493.7</ele>
        <time>2024-02-04T12:08:37Z</time>
      </trkpt>
      <trkpt lat="43.18153" lon="6.49998">
        <ele>493.6</ele>
        <time>2024-02-04T12:08:38Z</time>
      </trkpt>
      <trkpt lat="43.18153" lon="6.49998">
        <ele>493.5</ele>
        <time>2024-02-04T12:08:39Z</time>
      </trkpt>
      <trkpt lat="43.18153" lon="6.49998">
        <ele>493.5</ele>
        <time>2024-02-04T12:08:40Z</time>
      </trkpt>
      <trkpt lat="43.18152" lon="6.49998">
        <ele>493.5</ele>
        <time>2024-02-04T12:08:41Z</time>
      </trkpt>
      <trkpt lat="43.18152" lon="6.49998">
        <ele>493.5</ele>
        <time>2024-02-04T12:08:42Z</time>
      </trkpt>
      <trkpt lat="43.18152" lon="6.49998">
        <ele>493.5</ele>
        <time>2024-02-04T12:08:43Z</time>
      </trkpt>
      <trkpt lat="43.18152" lon="6.49997">
        <ele>493.5</ele>
        <time>2024-02-04T12:08:44Z</time>
      </trkpt>
      <trkpt lat="43.18153" lon="6.49997">
        <ele>493.6</ele>
        <time>2024-02-04T12:08:45Z</time>
      </trkpt>
      <trkpt lat="43.18153" lon="6.49997">
        <ele>493.6</ele>
        <time>2024-02-04T12:08:46Z</time>
      </trkpt>
      <trkpt lat="43.18152" lon="6.49997">
        <ele>493.6</ele>
        <time>2024-02-04T12:08:47Z</time>
      </trkpt>
      <trkpt lat="43.18153" lon="6.49997">
        <ele>493.6</ele>
        <time>2024-02-04T12:08:48Z</time>
      </trkpt>
      <trkpt lat="43.18153" lon="6.49997">
        <ele>493.5</ele>
        <time>2024-02-04T12:08:49Z</time>
      </trkpt>
      <trkpt lat="43.18153" lon="6.49997">
        <ele>493.5</ele>
        <time>2024-02-04T12:08:50Z</time>
      </trkpt>
      <trkpt lat="43.18153" lon="6.49997">
        <ele>493.4</ele>
        <time>2024-02-04T12:08:51Z</time>
      </trkpt>
      <trkpt lat="43.18153" lon="6.49997">
        <ele>493.4</ele>
        <time>2024-02-04T12:08:52Z</time>
      </trkpt>
      <trkpt lat="43.18153" lon="6.49997">
        <ele>493.4</ele>
        <time>2024-02-04T12:08:53Z</time>
      </trkpt>
      <trkpt lat="43.18153" lon="6.49997">
        <ele>493.4</ele>
        <time>2024-02-04T12:08:54Z</time>
      </trkpt>
      <trkpt lat="43.18153" lon="6.49997">
        <ele>493.3</ele>
        <time>2024-02-04T12:08:55Z</time>
      </trkpt>
      <trkpt lat="43.18153" lon="6.49997">
        <ele>493.3</ele>
        <time>2024-02-04T12:08:56Z</time>
      </trkpt>
      <trkpt lat="43.18153" lon="6.49997">
        <ele>493.3</ele>
        <time>2024-02-04T12:08:57Z</time>
      </trkpt>
      <trkpt lat="43.18153" lon="6.49997">
        <ele>493.3</ele>
        <time>2024-02-04T12:08:58Z</time>
      </trkpt>
      <trkpt lat="43.18153" lon="6.49997">
        <ele>493.3</ele>
        <time>2024-02-04T12:08:59Z</time>
      </trkpt>
      <trkpt lat="43.18153" lon="6.49997">
        <ele>493.3</ele>
        <time>2024-02-04T12:09:00Z</time>
      </trkpt>
      <trkpt lat="43.18153" lon="6.49997">
        <ele>493.3</ele>
        <time>2024-02-04T12:09:01Z</time>
      </trkpt>
      <trkpt lat="43.18153" lon="6.49997">
        <ele>493.3</ele>
        <time>2024-02-04T12:09:02Z</time>
      </trkpt>
      <trkpt lat="43.18153" lon="6.49997">
        <ele>493.4</ele>
        <time>2024-02-04T12:09:03Z</time>
      </trkpt>
      <trkpt lat="43.18153" lon="6.49997">
        <ele>493.4</ele>
        <time>2024-02-04T12:09:04Z</time>
      </trkpt>
      <trkpt lat="43.18153" lon="6.49997">
        <ele>493.4</ele>
        <time>2024-02-04T12:09:05Z</time>
      </trkpt>
      <trkpt lat="43.18153" lon="6.49997">
        <ele>493.4</ele>
        <time>2024-02-04T12:09:06Z</time>
      </trkpt>
      <trkpt lat="43.18153" lon="6.49997">
        <ele>493.5</ele>
        <time>2024-02-04T12:09:07Z</time>
      </trkpt>
      <trkpt lat="43.18153" lon="6.49997">
        <ele>493.4</ele>
        <time>2024-02-04T12:09:08Z</time>
      </trkpt>
      <trkpt lat="43.18153" lon="6.49997">
        <ele>493.5</ele>
        <time>2024-02-04T12:09:09Z</time>
      </trkpt>
      <trkpt lat="43.18153" lon="6.49997">
        <ele>493.5</ele>
        <time>2024-02-04T12:09:10Z</time>
      </trkpt>
      <trkpt lat="43.18153" lon="6.49997">
        <ele>493.5</ele>
        <time>2024-02-04T12:09:11Z</time>
      </trkpt>
      <trkpt lat="43.18153" lon="6.49997">
        <ele>493.5</ele>
        <time>2024-02-04T12:09:12Z</time>
      </trkpt>
      <trkpt lat="43.18153" lon="6.49997">
        <ele>493.5</ele>
        <time>2024-02-04T12:09:13Z</time>
      </trkpt>
      <trkpt lat="43.18152" lon="6.49997">
        <ele>493.5</ele>
        <time>2024-02-04T12:09:14Z</time>
      </trkpt>
      <trkpt lat="43.18152" lon="6.49997">
        <ele>493.5</ele>
        <time>2024-02-04T12:09:15Z</time>
      </trkpt>
      <trkpt lat="43.18152" lon="6.49997">
        <ele>493.5</ele>
        <time>2024-02-04T12:09:16Z</time>
      </trkpt>
      <trkpt lat="43.18152" lon="6.49997">
        <ele>493.5</ele>
        <time>2024-02-04T12:09:17Z</time>
      </trkpt>
      <trkpt lat="43.18152" lon="6.49997">
        <ele>493.5</ele>
        <time>2024-02-04T12:09:18Z</time>
      </trkpt>
      <trkpt lat="43.18152" lon="6.49997">
        <ele>493.5</ele>
        <time>2024-02-04T12:09:19Z</time>
      </trkpt>
      <trkpt lat="43.18152" lon="6.49997">
        <ele>493.5</ele>
        <time>2024-02-04T12:09:20Z</time>
      </trkpt>
      <trkpt lat="43.18152" lon="6.49997">
        <ele>493.5</ele>
        <time>2024-02-04T12:09:21Z</time>
      </trkpt>
      <trkpt lat="43.18152" lon="6.49997">
        <ele>493.5</ele>
        <time>2024-02-04T12:09:22Z</time>
      </trkpt>
      <trkpt lat="43.18152" lon="6.49997">
        <ele>493.5</ele>
        <time>2024-02-04T12:09:23Z</time>
      </trkpt>
      <trkpt lat="43.18152" lon="6.49998">
        <ele>493.4</ele>
        <time>2024-02-04T12:09:24Z</time>
      </trkpt>
      <trkpt lat="43.18152" lon="6.49998">
        <ele>493.4</ele>
        <time>2024-02-04T12:09:25Z</time>
      </trkpt>
      <trkpt lat="43.18152" lon="6.49998">
        <ele>493.4</ele>
        <time>2024-02-04T12:09:26Z</time>
      </trkpt>
      <trkpt lat="43.18152" lon="6.49998">
        <ele>493.4</ele>
        <time>2024-02-04T12:09:27Z</time>
      </trkpt>
      <trkpt lat="43.18152" lon="6.49998">
        <ele>493.4</ele>
        <time>2024-02-04T12:09:28Z</time>
      </trkpt>
      <trkpt lat="43.18152" lon="6.49998">
        <ele>493.4</ele>
        <time>2024-02-04T12:09:29Z</time>
      </trkpt>
      <trkpt lat="43.18152" lon="6.49998">
        <ele>493.3</ele>
        <time>2024-02-04T12:09:30Z</time>
      </trkpt>
      <trkpt lat="43.18152" lon="6.49998">
        <ele>493.3</ele>
        <time>2024-02-04T12:09:31Z</time>
      </trkpt>
      <trkpt lat="43.18152" lon="6.49998">
        <ele>493.3</ele>
        <time>2024-02-04T12:09:32Z</time>
      </trkpt>
      <trkpt lat="43.18152" lon="6.49998">
        <ele>493.3</ele>
        <time>2024-02-04T12:09:33Z</time>
      </trkpt>
      <trkpt lat="43.18152" lon="6.49998">
        <ele>493.3</ele>
        <time>2024-02-04T12:09:34Z</time>
      </trkpt>
      <trkpt lat="43.18152" lon="6.49997">
        <ele>493.3</ele>
        <time>2024-02-04T12:09:35Z</time>
      </trkpt>
      <trkpt lat="43.18152" lon="6.49997">
        <ele>493.3</ele>
        <time>2024-02-04T12:09:36Z</time>
      </trkpt>
      <trkpt lat="43.18152" lon="6.49997">
        <ele>493.2</ele>
        <time>2024-02-04T12:09:37Z</time>
      </trkpt>
      <trkpt lat="43.18152" lon="6.49997">
        <ele>493.2</ele>
        <time>2024-02-04T12:09:38Z</time>
      </trkpt>
      <trkpt lat="43.18152" lon="6.49997">
        <ele>493.1</ele>
        <time>2024-02-04T12:09:39Z</time>
      </trkpt>
      <trkpt lat="43.18152" lon="6.49997">
        <ele>493.1</ele>
        <time>2024-02-04T12:09:40Z</time>
      </trkpt>
      <trkpt lat="43.18152" lon="6.49997">
        <ele>493</ele>
        <time>2024-02-04T12:09:41Z</time>
      </trkpt>
      <trkpt lat="43.18152" lon="6.49997">
        <ele>493.1</ele>
        <time>2024-02-04T12:09:42Z</time>
      </trkpt>
      <trkpt lat="43.18152" lon="6.49997">
        <ele>493.1</ele>
        <time>2024-02-04T12:09:43Z</time>
      </trkpt>
      <trkpt lat="43.18152" lon="6.49997">
        <ele>493.1</ele>
        <time>2024-02-04T12:09:44Z</time>
      </trkpt>
      <trkpt lat="43.18152" lon="6.49997">
        <ele>493.1</ele>
        <time>2024-02-04T12:09:45Z</time>
      </trkpt>
      <trkpt lat="43.18152" lon="6.49997">
        <ele>493.1</ele>
        <time>2024-02-04T12:09:46Z</time>
      </trkpt>
      <trkpt lat="43.18152" lon="6.49997">
        <ele>493.1</ele>
        <time>2024-02-04T12:09:47Z</time>
      </trkpt>
      <trkpt lat="43.18152" lon="6.49997">
        <ele>493.1</ele>
        <time>2024-02-04T12:09:48Z</time>
      </trkpt>
      <trkpt lat="43.18152" lon="6.49997">
        <ele>493.1</ele>
        <time>2024-02-04T12:09:49Z</time>
      </trkpt>
      <trkpt lat="43.18152" lon="6.49997">
        <ele>493.1</ele>
        <time>2024-02-04T12:09:50Z</time>
      </trkpt>
      <trkpt lat="43.18152" lon="6.49997">
        <ele>493.2</ele>
        <time>2024-02-04T12:09:51Z</time>
      </trkpt>
      <trkpt lat="43.18152" lon="6.49997">
        <ele>493.3</ele>
        <time>2024-02-04T12:09:52Z</time>
      </trkpt>
      <trkpt lat="43.18152" lon="6.49997">
        <ele>493.3</ele>
        <time>2024-02-04T12:09:53Z</time>
      </trkpt>
      <trkpt lat="43.18152" lon="6.49997">
        <ele>493.4</ele>
        <time>2024-02-04T12:09:54Z</time>
      </trkpt>
      <trkpt lat="43.18152" lon="6.49997">
        <ele>493.4</ele>
        <time>2024-02-04T12:09:55Z</time>
      </trkpt>
      <trkpt lat="43.18152" lon="6.49997">
        <ele>493.5</ele>
        <time>2024-02-04T12:09:56Z</time>
      </trkpt>
      <trkpt lat="43.18152" lon="6.49997">
        <ele>493.5</ele>
        <time>2024-02-04T12:09:57Z</time>
      </trkpt>
      <trkpt lat="43.18152" lon="6.49997">
        <ele>493.5</ele>
        <time>2024-02-04T12:09:58Z</time>
      </trkpt>
      <trkpt lat="43.18152" lon="6.49997">
        <ele>493.6</ele>
        <time>2024-02-04T12:09:59Z</time>
      </trkpt>
      <trkpt lat="43.18152" lon="6.49997">
        <ele>493.6</ele>
        <time>2024-02-04T12:10:00Z</time>
      </trkpt>
      <trkpt lat="43.18152" lon="6.49997">
        <ele>493.6</ele>
        <time>2024-02-04T12:10:01Z</time>
      </trkpt>
      <trkpt lat="43.18152" lon="6.49997">
        <ele>493.6</ele>
        <time>2024-02-04T12:10:02Z</time>
      </trkpt>
      <trkpt lat="43.18152" lon="6.49997">
        <ele>493.6</ele>
        <time>2024-02-04T12:10:03Z</time>
      </trkpt>
      <trkpt lat="43.18152" lon="6.49997">
        <ele>493.6</ele>
        <time>2024-02-04T12:10:04Z</time>
      </trkpt>
      <trkpt lat="43.18152" lon="6.49997">
        <ele>493.6</ele>
        <time>2024-02-04T12:10:05Z</time>
      </trkpt>
      <trkpt lat="43.18152" lon="6.49997">
        <ele>493.5</ele>
        <time>2024-02-04T12:10:06Z</time>
      </trkpt>
      <trkpt lat="43.18152" lon="6.49997">
        <ele>493.5</ele>
        <time>2024-02-04T12:10:07Z</time>
      </trkpt>
      <trkpt lat="43.18152" lon="6.49997">
        <ele>493.5</ele>
        <time>2024-02-04T12:10:08Z</time>
      </trkpt>
      <trkpt lat="43.18152" lon="6.49997">
        <ele>493.5</ele>
        <time>2024-02-04T12:10:09Z</time>
      </trkpt>
      <trkpt lat="43.18152" lon="6.49997">
        <ele>493.5</ele>
        <time>2024-02-04T12:10:10Z</time>
      </trkpt>
      <trkpt lat="43.18152" lon="6.49997">
        <ele>493.5</ele>
        <time>2024-02-04T12:10:11Z</time>
      </trkpt>
      <trkpt lat="43.18152" lon="6.49997">
        <ele>493.5</ele>
        <time>2024-02-04T12:10:12Z</time>
      </trkpt>
      <trkpt lat="43.18152" lon="6.49997">
        <ele>493.6</ele>
        <time>2024-02-04T12:10:13Z</time>
      </trkpt>
      <trkpt lat="43.18152" lon="6.49997">
        <ele>493.6</ele>
        <time>2024-02-04T12:10:14Z</time>
      </trkpt>
      <trkpt lat="43.18152" lon="6.49997">
        <ele>493.6</ele>
        <time>2024-02-04T12:10:15Z</time>
      </trkpt>
      <trkpt lat="43.18152" lon="6.49997">
        <ele>493.6</ele>
        <time>2024-02-04T12:10:16Z</time>
      </trkpt>
      <trkpt lat="43.18152" lon="6.49997">
        <ele>493.6</ele>
        <time>2024-02-04T12:10:17Z</time>
      </trkpt>
      <trkpt lat="43.18152" lon="6.49997">
        <ele>493.6</ele>
        <time>2024-02-04T12:10:18Z</time>
      </trkpt>
      <trkpt lat="43.18152" lon="6.49997">
        <ele>493.5</ele>
        <time>2024-02-04T12:10:19Z</time>
      </trkpt>
      <trkpt lat="43.18152" lon="6.49997">
        <ele>493.5</ele>
        <time>2024-02-04T12:10:20Z</time>
      </trkpt>
      <trkpt lat="43.18152" lon="6.49997">
        <ele>493.5</ele>
        <time>2024-02-04T12:10:21Z</time>
      </trkpt>
      <trkpt lat="43.18152" lon="6.49997">
        <ele>493.5</ele>
        <time>2024-02-04T12:10:22Z</time>
      </trkpt>
      <trkpt lat="43.18152" lon="6.49997">
        <ele>493.5</ele>
        <time>2024-02-04T12:10:23Z</time>
      </trkpt>
      <trkpt lat="43.18152" lon="6.49997">
        <ele>493.5</ele>
        <time>2024-02-04T12:10:24Z</time>
      </trkpt>
      <trkpt lat="43.18152" lon="6.49997">
        <ele>493.5</ele>
        <time>2024-02-04T12:10:25Z</time>
      </trkpt>
      <trkpt lat="43.18152" lon="6.49997">
        <ele>493.5</ele>
        <time>2024-02-04T12:10:26Z</time>
      </trkpt>
      <trkpt lat="43.18152" lon="6.49997">
        <ele>493.4</ele>
        <time>2024-02-04T12:10:27Z</time>
      </trkpt>
      <trkpt lat="43.18152" lon="6.49997">
        <ele>493.5</ele>
        <time>2024-02-04T12:10:28Z</time>
      </trkpt>
      <trkpt lat="43.18152" lon="6.49997">
        <ele>493.5</ele>
        <time>2024-02-04T12:10:29Z</time>
      </trkpt>
      <trkpt lat="43.18152" lon="6.49997">
        <ele>493.5</ele>
        <time>2024-02-04T12:10:30Z</time>
      </trkpt>
      <trkpt lat="43.18152" lon="6.49997">
        <ele>493.6</ele>
        <time>2024-02-04T12:10:31Z</time>
      </trkpt>
      <trkpt lat="43.18152" lon="6.49997">
        <ele>493.7</ele>
        <time>2024-02-04T12:10:32Z</time>
      </trkpt>
      <trkpt lat="43.18152" lon="6.49997">
        <ele>493.7</ele>
        <time>2024-02-04T12:10:33Z</time>
      </trkpt>
      <trkpt lat="43.18152" lon="6.49997">
        <ele>493.7</ele>
        <time>2024-02-04T12:10:34Z</time>
      </trkpt>
      <trkpt lat="43.18152" lon="6.49997">
        <ele>493.8</ele>
        <time>2024-02-04T12:10:35Z</time>
      </trkpt>
      <trkpt lat="43.18152" lon="6.49997">
        <ele>493.8</ele>
        <time>2024-02-04T12:10:36Z</time>
      </trkpt>
      <trkpt lat="43.18152" lon="6.49997">
        <ele>493.8</ele>
        <time>2024-02-04T12:10:37Z</time>
      </trkpt>
      <trkpt lat="43.18152" lon="6.49997">
        <ele>493.8</ele>
        <time>2024-02-04T12:10:38Z</time>
      </trkpt>
      <trkpt lat="43.18152" lon="6.49997">
        <ele>493.9</ele>
        <time>2024-02-04T12:10:39Z</time>
      </trkpt>
      <trkpt lat="43.18152" lon="6.49997">
        <ele>493.9</ele>
        <time>2024-02-04T12:10:40Z</time>
      </trkpt>
      <trkpt lat="43.18152" lon="6.49997">
        <ele>493.9</ele>
        <time>2024-02-04T12:10:41Z</time>
      </trkpt>
      <trkpt lat="43.18152" lon="6.49997">
        <ele>493.8</ele>
        <time>2024-02-04T12:10:42Z</time>
      </trkpt>
      <trkpt lat="43.18152" lon="6.49997">
        <ele>493.7</ele>
        <time>2024-02-04T12:10:43Z</time>
      </trkpt>
      <trkpt lat="43.18152" lon="6.49997">
        <ele>493.7</ele>
        <time>2024-02-04T12:10:44Z</time>
      </trkpt>
      <trkpt lat="43.18152" lon="6.49997">
        <ele>493.7</ele>
        <time>2024-02-04T12:10:45Z</time>
      </trkpt>
      <trkpt lat="43.18152" lon="6.49997">
        <ele>493.6</ele>
        <time>2024-02-04T12:10:46Z</time>
      </trkpt>
      <trkpt lat="43.18152" lon="6.49997">
        <ele>493.6</ele>
        <time>2024-02-04T12:10:47Z</time>
      </trkpt>
      <trkpt lat="43.18152" lon="6.49997">
        <ele>493.6</ele>
        <time>2024-02-04T12:10:48Z</time>
      </trkpt>
      <trkpt lat="43.18152" lon="6.49997">
        <ele>493.5</ele>
        <time>2024-02-04T12:10:49Z</time>
      </trkpt>
      <trkpt lat="43.18152" lon="6.49997">
        <ele>493.5</ele>
        <time>2024-02-04T12:10:50Z</time>
      </trkpt>
      <trkpt lat="43.18152" lon="6.49997">
        <ele>493.5</ele>
        <time>2024-02-04T12:10:51Z</time>
      </trkpt>
      <trkpt lat="43.18152" lon="6.49997">
        <ele>493.6</ele>
        <time>2024-02-04T12:10:52Z</time>
      </trkpt>
      <trkpt lat="43.18152" lon="6.49997">
        <ele>493.7</ele>
        <time>2024-02-04T12:10:53Z</time>
      </trkpt>
      <trkpt lat="43.18152" lon="6.49997">
        <ele>493.7</ele>
        <time>2024-02-04T12:10:54Z</time>
      </trkpt>
      <trkpt lat="43.18152" lon="6.49997">
        <ele>493.7</ele>
        <time>2024-02-04T12:10:55Z</time>
      </trkpt>
      <trkpt lat="43.18152" lon="6.49997">
        <ele>493.7</ele>
        <time>2024-02-04T12:10:56Z</time>
      </trkpt>
      <trkpt lat="43.18152" lon="6.49997">
        <ele>493.6</ele>
        <time>2024-02-04T12:10:57Z</time>
      </trkpt>
      <trkpt lat="43.18152" lon="6.49997">
        <ele>493.6</ele>
        <time>2024-02-04T12:10:58Z</time>
      </trkpt>
      <trkpt lat="43.18152" lon="6.49997">
        <ele>493.6</ele>
        <time>2024-02-04T12:10:59Z</time>
      </trkpt>
      <trkpt lat="43.18152" lon="6.49997">
        <ele>493.7</ele>
        <time>2024-02-04T12:11:00Z</time>
      </trkpt>
      <trkpt lat="43.18152" lon="6.49997">
        <ele>493.7</ele>
        <time>2024-02-04T12:11:01Z</time>
      </trkpt>
      <trkpt lat="43.18152" lon="6.49997">
        <ele>493.6</ele>
        <time>2024-02-04T12:11:02Z</time>
      </trkpt>
      <trkpt lat="43.18152" lon="6.49997">
        <ele>493.6</ele>
        <time>2024-02-04T12:11:03Z</time>
      </trkpt>
      <trkpt lat="43.18152" lon="6.49997">
        <ele>493.7</ele>
        <time>2024-02-04T12:11:04Z</time>
      </trkpt>
      <trkpt lat="43.18152" lon="6.49997">
        <ele>493.7</ele>
        <time>2024-02-04T12:11:05Z</time>
      </trkpt>
      <trkpt lat="43.18152" lon="6.49997">
        <ele>493.6</ele>
        <time>2024-02-04T12:11:06Z</time>
      </trkpt>
      <trkpt lat="43.18152" lon="6.49997">
        <ele>493.6</ele>
        <time>2024-02-04T12:11:07Z</time>
      </trkpt>
      <trkpt lat="43.18152" lon="6.49997">
        <ele>493.6</ele>
        <time>2024-02-04T12:11:08Z</time>
      </trkpt>
      <trkpt lat="43.18152" lon="6.49997">
        <ele>493.6</ele>
        <time>2024-02-04T12:11:09Z</time>
      </trkpt>
      <trkpt lat="43.18152" lon="6.49997">
        <ele>493.7</ele>
        <time>2024-02-04T12:11:10Z</time>
      </trkpt>
      <trkpt lat="43.18152" lon="6.49997">
        <ele>493.6</ele>
        <time>2024-02-04T12:11:11Z</time>
      </trkpt>
      <trkpt lat="43.18152" lon="6.49997">
        <ele>493.6</ele>
        <time>2024-02-04T12:11:12Z</time>
      </trkpt>
      <trkpt lat="43.18152" lon="6.49997">
        <ele>493.6</ele>
        <time>2024-02-04T12:11:13Z</time>
      </trkpt>
      <trkpt lat="43.18152" lon="6.49997">
        <ele>493.6</ele>
        <time>2024-02-04T12:11:14Z</time>
      </trkpt>
      <trkpt lat="43.18152" lon="6.49997">
        <ele>493.6</ele>
        <time>2024-02-04T12:11:15Z</time>
      </trkpt>
      <trkpt lat="43.18152" lon="6.49997">
        <ele>493.6</ele>
        <time>2024-02-04T12:11:16Z</time>
      </trkpt>
      <trkpt lat="43.18152" lon="6.49997">
        <ele>493.7</ele>
        <time>2024-02-04T12:11:17Z</time>
      </trkpt>
      <trkpt lat="43.18152" lon="6.49997">
        <ele>493.8</ele>
        <time>2024-02-04T12:11:18Z</time>
      </trkpt>
      <trkpt lat="43.18152" lon="6.49997">
        <ele>493.8</ele>
        <time>2024-02-04T12:11:19Z</time>
      </trkpt>
      <trkpt lat="43.18152" lon="6.49997">
        <ele>493.9</ele>
        <time>2024-02-04T12:11:20Z</time>
      </trkpt>
      <trkpt lat="43.18152" lon="6.49997">
        <ele>493.9</ele>
        <time>2024-02-04T12:11:21Z</time>
      </trkpt>
      <trkpt lat="43.18152" lon="6.49997">
        <ele>493.9</ele>
        <time>2024-02-04T12:11:22Z</time>
      </trkpt>
      <trkpt lat="43.18152" lon="6.49997">
        <ele>493.9</ele>
        <time>2024-02-04T12:11:23Z</time>
      </trkpt>
      <trkpt lat="43.18152" lon="6.49997">
        <ele>493.9</ele>
        <time>2024-02-04T12:11:24Z</time>
      </trkpt>
      <trkpt lat="43.18152" lon="6.49997">
        <ele>493.9</ele>
        <time>2024-02-04T12:11:25Z</time>
      </trkpt>
      <trkpt lat="43.18152" lon="6.49997">
        <ele>493.9</ele>
        <time>2024-02-04T12:11:26Z</time>
      </trkpt>
      <trkpt lat="43.18152" lon="6.49997">
        <ele>493.9</ele>
        <time>2024-02-04T12:11:27Z</time>
      </trkpt>
      <trkpt lat="43.18152" lon="6.49997">
        <ele>493.8</ele>
        <time>2024-02-04T12:11:28Z</time>
      </trkpt>
      <trkpt lat="43.18152" lon="6.49997">
        <ele>493.8</ele>
        <time>2024-02-04T12:11:29Z</time>
      </trkpt>
      <trkpt lat="43.18152" lon="6.49997">
        <ele>493.8</ele>
        <time>2024-02-04T12:11:30Z</time>
      </trkpt>
      <trkpt lat="43.18152" lon="6.49997">
        <ele>493.8</ele>
        <time>2024-02-04T12:11:31Z</time>
      </trkpt>
      <trkpt lat="43.18152" lon="6.49997">
        <ele>493.8</ele>
        <time>2024-02-04T12:11:32Z</time>
      </trkpt>
      <trkpt lat="43.18152" lon="6.49997">
        <ele>493.7</ele>
        <time>2024-02-04T12:11:33Z</time>
      </trkpt>
      <trkpt lat="43.18152" lon="6.49997">
        <ele>493.7</ele>
        <time>2024-02-04T12:11:34Z</time>
      </trkpt>
      <trkpt lat="43.18152" lon="6.49997">
        <ele>493.6</ele>
        <time>2024-02-04T12:11:35Z</time>
      </trkpt>
      <trkpt lat="43.18152" lon="6.49997">
        <ele>493.6</ele>
        <time>2024-02-04T12:11:36Z</time>
      </trkpt>
      <trkpt lat="43.18152" lon="6.49997">
        <ele>493.7</ele>
        <time>2024-02-04T12:11:37Z</time>
      </trkpt>
      <trkpt lat="43.18152" lon="6.49997">
        <ele>493.7</ele>
        <time>2024-02-04T12:11:38Z</time>
      </trkpt>
      <trkpt lat="43.18152" lon="6.49997">
        <ele>493.7</ele>
        <time>2024-02-04T12:11:39Z</time>
      </trkpt>
      <trkpt lat="43.18152" lon="6.49997">
        <ele>493.7</ele>
        <time>2024-02-04T12:11:40Z</time>
      </trkpt>
      <trkpt lat="43.18152" lon="6.49997">
        <ele>493.7</ele>
        <time>2024-02-04T12:11:41Z</time>
      </trkpt>
      <trkpt lat="43.18152" lon="6.49997">
        <ele>493.7</ele>
        <time>2024-02-04T12:11:42Z</time>
      </trkpt>
      <trkpt lat="43.18152" lon="6.49997">
        <ele>493.7</ele>
        <time>2024-02-04T12:11:43Z</time>
      </trkpt>
      <trkpt lat="43.18152" lon="6.49997">
        <ele>493.6</ele>
        <time>2024-02-04T12:11:44Z</time>
      </trkpt>
      <trkpt lat="43.18152" lon="6.49997">
        <ele>493.6</ele>
        <time>2024-02-04T12:11:45Z</time>
      </trkpt>
      <trkpt lat="43.18152" lon="6.49997">
        <ele>493.6</ele>
        <time>2024-02-04T12:11:46Z</time>
      </trkpt>
      <trkpt lat="43.18152" lon="6.49997">
        <ele>493.6</ele>
        <time>2024-02-04T12:11:47Z</time>
      </trkpt>
      <trkpt lat="43.18152" lon="6.49997">
        <ele>493.6</ele>
        <time>2024-02-04T12:11:48Z</time>
      </trkpt>
      <trkpt lat="43.18152" lon="6.49997">
        <ele>493.6</ele>
        <time>2024-02-04T12:11:49Z</time>
      </trkpt>
      <trkpt lat="43.18152" lon="6.49997">
        <ele>493.6</ele>
        <time>2024-02-04T12:11:50Z</time>
      </trkpt>
      <trkpt lat="43.18152" lon="6.49997">
        <ele>493.6</ele>
        <time>2024-02-04T12:11:51Z</time>
      </trkpt>
      <trkpt lat="43.18152" lon="6.49996">
        <ele>493.6</ele>
        <time>2024-02-04T12:11:52Z</time>
      </trkpt>
      <trkpt lat="43.18152" lon="6.49996">
        <ele>493.6</ele>
        <time>2024-02-04T12:11:53Z</time>
      </trkpt>
      <trkpt lat="43.18152" lon="6.49996">
        <ele>493.7</ele>
        <time>2024-02-04T12:11:54Z</time>
      </trkpt>
      <trkpt lat="43.18153" lon="6.49996">
        <ele>493.7</ele>
        <time>2024-02-04T12:11:55Z</time>
      </trkpt>
      <trkpt lat="43.18153" lon="6.49996">
        <ele>493.7</ele>
        <time>2024-02-04T12:11:56Z</time>
      </trkpt>
      <trkpt lat="43.18153" lon="6.49996">
        <ele>493.7</ele>
        <time>2024-02-04T12:11:57Z</time>
      </trkpt>
      <trkpt lat="43.18153" lon="6.49996">
        <ele>493.7</ele>
        <time>2024-02-04T12:11:58Z</time>
      </trkpt>
      <trkpt lat="43.18153" lon="6.49996">
        <ele>493.7</ele>
        <time>2024-02-04T12:11:59Z</time>
      </trkpt>
      <trkpt lat="43.18153" lon="6.49996">
        <ele>493.6</ele>
        <time>2024-02-04T12:12:00Z</time>
      </trkpt>
      <trkpt lat="43.18153" lon="6.49996">
        <ele>493.5</ele>
        <time>2024-02-04T12:12:01Z</time>
      </trkpt>
      <trkpt lat="43.18153" lon="6.49996">
        <ele>493.5</ele>
        <time>2024-02-04T12:12:02Z</time>
      </trkpt>
      <trkpt lat="43.18153" lon="6.49996">
        <ele>493.5</ele>
        <time>2024-02-04T12:12:03Z</time>
      </trkpt>
      <trkpt lat="43.18153" lon="6.49996">
        <ele>493.6</ele>
        <time>2024-02-04T12:12:04Z</time>
      </trkpt>
      <trkpt lat="43.18153" lon="6.49996">
        <ele>493.6</ele>
        <time>2024-02-04T12:12:05Z</time>
      </trkpt>
      <trkpt lat="43.18153" lon="6.49997">
        <ele>493.7</ele>
        <time>2024-02-04T12:12:06Z</time>
      </trkpt>
      <trkpt lat="43.18153" lon="6.49997">
        <ele>493.7</ele>
        <time>2024-02-04T12:12:07Z</time>
      </trkpt>
      <trkpt lat="43.18153" lon="6.49997">
        <ele>493.7</ele>
        <time>2024-02-04T12:12:08Z</time>
      </trkpt>
      <trkpt lat="43.18153" lon="6.49997">
        <ele>493.7</ele>
        <time>2024-02-04T12:12:09Z</time>
      </trkpt>
      <trkpt lat="43.18153" lon="6.49997">
        <ele>493.7</ele>
        <time>2024-02-04T12:12:10Z</time>
      </trkpt>
      <trkpt lat="43.18153" lon="6.49997">
        <ele>493.7</ele>
        <time>2024-02-04T12:12:11Z</time>
      </trkpt>
      <trkpt lat="43.18153" lon="6.49997">
        <ele>493.7</ele>
        <time>2024-02-04T12:12:12Z</time>
      </trkpt>
      <trkpt lat="43.18153" lon="6.49997">
        <ele>493.7</ele>
        <time>2024-02-04T12:12:13Z</time>
      </trkpt>
      <trkpt lat="43.18153" lon="6.49997">
        <ele>493.7</ele>
        <time>2024-02-04T12:12:14Z</time>
      </trkpt>
      <trkpt lat="43.18153" lon="6.49997">
        <ele>493.6</ele>
        <time>2024-02-04T12:12:15Z</time>
      </trkpt>
      <trkpt lat="43.18153" lon="6.49997">
        <ele>493.5</ele>
        <time>2024-02-04T12:12:16Z</time>
      </trkpt>
      <trkpt lat="43.18153" lon="6.49997">
        <ele>493.5</ele>
        <time>2024-02-04T12:12:17Z</time>
      </trkpt>
      <trkpt lat="43.18153" lon="6.49997">
        <ele>493.6</ele>
        <time>2024-02-04T12:12:18Z</time>
      </trkpt>
      <trkpt lat="43.18153" lon="6.49997">
        <ele>493.7</ele>
        <time>2024-02-04T12:12:19Z</time>
      </trkpt>
      <trkpt lat="43.18154" lon="6.49997">
        <ele>493.8</ele>
        <time>2024-02-04T12:12:20Z</time>
      </trkpt>
      <trkpt lat="43.18154" lon="6.49997">
        <ele>493.8</ele>
        <time>2024-02-04T12:12:21Z</time>
      </trkpt>
      <trkpt lat="43.18154" lon="6.49997">
        <ele>493.9</ele>
        <time>2024-02-04T12:12:22Z</time>
      </trkpt>
      <trkpt lat="43.18155" lon="6.49997">
        <ele>493.9</ele>
        <time>2024-02-04T12:12:23Z</time>
      </trkpt>
      <trkpt lat="43.18155" lon="6.49996">
        <ele>493.8</ele>
        <time>2024-02-04T12:12:24Z</time>
      </trkpt>
      <trkpt lat="43.18155" lon="6.49996">
        <ele>493.6</ele>
        <time>2024-02-04T12:12:25Z</time>
      </trkpt>
      <trkpt lat="43.18155" lon="6.49996">
        <ele>493.5</ele>
        <time>2024-02-04T12:12:26Z</time>
      </trkpt>
      <trkpt lat="43.18155" lon="6.49997">
        <ele>493.3</ele>
        <time>2024-02-04T12:12:27Z</time>
      </trkpt>
      <trkpt lat="43.18155" lon="6.49998">
        <ele>493.2</ele>
        <time>2024-02-04T12:12:28Z</time>
      </trkpt>
      <trkpt lat="43.18155" lon="6.49999">
        <ele>493.1</ele>
        <time>2024-02-04T12:12:29Z</time>
      </trkpt>
      <trkpt lat="43.18155" lon="6.5">
        <ele>493</ele>
        <time>2024-02-04T12:12:30Z</time>
      </trkpt>
      <trkpt lat="43.18155" lon="6.50001">
        <ele>492.8</ele>
        <time>2024-02-04T12:12:31Z</time>
      </trkpt>
      <trkpt lat="43.18155" lon="6.50001">
        <ele>492.7</ele>
        <time>2024-02-04T12:12:32Z</time>
      </trkpt>
      <trkpt lat="43.18155" lon="6.50001">
        <ele>492.5</ele>
        <time>2024-02-04T12:12:33Z</time>
      </trkpt>
      <trkpt lat="43.18155" lon="6.50002">
        <ele>492.5</ele>
        <time>2024-02-04T12:12:34Z</time>
      </trkpt>
      <trkpt lat="43.18155" lon="6.50002">
        <ele>492.3</ele>
        <time>2024-02-04T12:12:35Z</time>
      </trkpt>
      <trkpt lat="43.18155" lon="6.50003">
        <ele>492.3</ele>
        <time>2024-02-04T12:12:36Z</time>
      </trkpt>
      <trkpt lat="43.18154" lon="6.50003">
        <ele>492.3</ele>
        <time>2024-02-04T12:12:37Z</time>
      </trkpt>
      <trkpt lat="43.18154" lon="6.50003">
        <ele>492.4</ele>
        <time>2024-02-04T12:12:38Z</time>
      </trkpt>
      <trkpt lat="43.18154" lon="6.50004">
        <ele>492.4</ele>
        <time>2024-02-04T12:12:39Z</time>
      </trkpt>
      <trkpt lat="43.18154" lon="6.50004">
        <ele>492.4</ele>
        <time>2024-02-04T12:12:40Z</time>
      </trkpt>
      <trkpt lat="43.18155" lon="6.50004">
        <ele>492.4</ele>
        <time>2024-02-04T12:12:41Z</time>
      </trkpt>
      <trkpt lat="43.18155" lon="6.50004">
        <ele>492.4</ele>
        <time>2024-02-04T12:12:42Z</time>
      </trkpt>
      <trkpt lat="43.18155" lon="6.50004">
        <ele>492.3</ele>
        <time>2024-02-04T12:12:43Z</time>
      </trkpt>
      <trkpt lat="43.18155" lon="6.50004">
        <ele>492.4</ele>
        <time>2024-02-04T12:12:44Z</time>
      </trkpt>
      <trkpt lat="43.18155" lon="6.50004">
        <ele>492.4</ele>
        <time>2024-02-04T12:12:45Z</time>
      </trkpt>
      <trkpt lat="43.18154" lon="6.50004">
        <ele>492.5</ele>
        <time>2024-02-04T12:12:46Z</time>
      </trkpt>
      <trkpt lat="43.18154" lon="6.50004">
        <ele>492.6</ele>
        <time>2024-02-04T12:12:47Z</time>
      </trkpt>
      <trkpt lat="43.18154" lon="6.50004">
        <ele>492.5</ele>
        <time>2024-02-04T12:12:48Z</time>
      </trkpt>
      <trkpt lat="43.18154" lon="6.50004">
        <ele>492.5</ele>
        <time>2024-02-04T12:12:49Z</time>
      </trkpt>
      <trkpt lat="43.18154" lon="6.50004">
        <ele>492.5</ele>
        <time>2024-02-04T12:12:50Z</time>
      </trkpt>
      <trkpt lat="43.18154" lon="6.50004">
        <ele>492.5</ele>
        <time>2024-02-04T12:12:51Z</time>
      </trkpt>
      <trkpt lat="43.18154" lon="6.50004">
        <ele>492.5</ele>
        <time>2024-02-04T12:12:52Z</time>
      </trkpt>
      <trkpt lat="43.18155" lon="6.50004">
        <ele>492.5</ele>
        <time>2024-02-04T12:12:53Z</time>
      </trkpt>
      <trkpt lat="43.18155" lon="6.50003">
        <ele>492.5</ele>
        <time>2024-02-04T12:12:54Z</time>
      </trkpt>
      <trkpt lat="43.18155" lon="6.50003">
        <ele>492.5</ele>
        <time>2024-02-04T12:12:55Z</time>
      </trkpt>
      <trkpt lat="43.18155" lon="6.50003">
        <ele>492.6</ele>
        <time>2024-02-04T12:12:56Z</time>
      </trkpt>
      <trkpt lat="43.18155" lon="6.50003">
        <ele>492.6</ele>
        <time>2024-02-04T12:12:57Z</time>
      </trkpt>
      <trkpt lat="43.18155" lon="6.50003">
        <ele>492.6</ele>
        <time>2024-02-04T12:12:58Z</time>
      </trkpt>
      <trkpt lat="43.18155" lon="6.50003">
        <ele>492.6</ele>
        <time>2024-02-04T12:12:59Z</time>
      </trkpt>
      <trkpt lat="43.18155" lon="6.50003">
        <ele>492.6</ele>
        <time>2024-02-04T12:13:00Z</time>
      </trkpt>
      <trkpt lat="43.18155" lon="6.50003">
        <ele>492.6</ele>
        <time>2024-02-04T12:13:01Z</time>
      </trkpt>
      <trkpt lat="43.18155" lon="6.50003">
        <ele>492.6</ele>
        <time>2024-02-04T12:13:02Z</time>
      </trkpt>
      <trkpt lat="43.18155" lon="6.50003">
        <ele>492.6</ele>
        <time>2024-02-04T12:13:03Z</time>
      </trkpt>
      <trkpt lat="43.18155" lon="6.50003">
        <ele>492.7</ele>
        <time>2024-02-04T12:13:04Z</time>
      </trkpt>
      <trkpt lat="43.18155" lon="6.50003">
        <ele>492.8</ele>
        <time>2024-02-04T12:13:05Z</time>
      </trkpt>
      <trkpt lat="43.18155" lon="6.50003">
        <ele>492.8</ele>
        <time>2024-02-04T12:13:06Z</time>
      </trkpt>
      <trkpt lat="43.18155" lon="6.50003">
        <ele>492.8</ele>
        <time>2024-02-04T12:13:07Z</time>
      </trkpt>
      <trkpt lat="43.18155" lon="6.50003">
        <ele>492.7</ele>
        <time>2024-02-04T12:13:08Z</time>
      </trkpt>
      <trkpt lat="43.18155" lon="6.50003">
        <ele>492.8</ele>
        <time>2024-02-04T12:13:09Z</time>
      </trkpt>
      <trkpt lat="43.18155" lon="6.50002">
        <ele>492.7</ele>
        <time>2024-02-04T12:13:10Z</time>
      </trkpt>
      <trkpt lat="43.18155" lon="6.50002">
        <ele>492.7</ele>
        <time>2024-02-04T12:13:11Z</time>
      </trkpt>
      <trkpt lat="43.18155" lon="6.50002">
        <ele>492.7</ele>
        <time>2024-02-04T12:13:12Z</time>
      </trkpt>
      <trkpt lat="43.18155" lon="6.50002">
        <ele>492.8</ele>
        <time>2024-02-04T12:13:13Z</time>
      </trkpt>
      <trkpt lat="43.18155" lon="6.50002">
        <ele>492.8</ele>
        <time>2024-02-04T12:13:14Z</time>
      </trkpt>
      <trkpt lat="43.18155" lon="6.50002">
        <ele>492.8</ele>
        <time>2024-02-04T12:13:15Z</time>
      </trkpt>
      <trkpt lat="43.18155" lon="6.50002">
        <ele>492.8</ele>
        <time>2024-02-04T12:13:16Z</time>
      </trkpt>
      <trkpt lat="43.18155" lon="6.50002">
        <ele>492.7</ele>
        <time>2024-02-04T12:13:17Z</time>
      </trkpt>
      <trkpt lat="43.18155" lon="6.50002">
        <ele>492.7</ele>
        <time>2024-02-04T12:13:18Z</time>
      </trkpt>
      <trkpt lat="43.18155" lon="6.50002">
        <ele>492.6</ele>
        <time>2024-02-04T12:13:19Z</time>
      </trkpt>
      <trkpt lat="43.18155" lon="6.50002">
        <ele>492.6</ele>
        <time>2024-02-04T12:13:20Z</time>
      </trkpt>
      <trkpt lat="43.18155" lon="6.50002">
        <ele>492.6</ele>
        <time>2024-02-04T12:13:21Z</time>
      </trkpt>
      <trkpt lat="43.18155" lon="6.50002">
        <ele>492.6</ele>
        <time>2024-02-04T12:13:22Z</time>
      </trkpt>
      <trkpt lat="43.18155" lon="6.50002">
        <ele>492.6</ele>
        <time>2024-02-04T12:13:23Z</time>
      </trkpt>
      <trkpt lat="43.18155" lon="6.50002">
        <ele>492.7</ele>
        <time>2024-02-04T12:13:24Z</time>
      </trkpt>
      <trkpt lat="43.18155" lon="6.50001">
        <ele>492.8</ele>
        <time>2024-02-04T12:13:25Z</time>
      </trkpt>
      <trkpt lat="43.18155" lon="6.50001">
        <ele>492.9</ele>
        <time>2024-02-04T12:13:26Z</time>
      </trkpt>
      <trkpt lat="43.18155" lon="6.50001">
        <ele>492.9</ele>
        <time>2024-02-04T12:13:27Z</time>
      </trkpt>
      <trkpt lat="43.18155" lon="6.50001">
        <ele>492.9</ele>
        <time>2024-02-04T12:13:28Z</time>
      </trkpt>
      <trkpt lat="43.18155" lon="6.50001">
        <ele>492.9</ele>
        <time>2024-02-04T12:13:29Z</time>
      </trkpt>
      <trkpt lat="43.18155" lon="6.50001">
        <ele>492.9</ele>
        <time>2024-02-04T12:13:30Z</time>
      </trkpt>
      <trkpt lat="43.18155" lon="6.50001">
        <ele>492.9</ele>
        <time>2024-02-04T12:13:31Z</time>
      </trkpt>
      <trkpt lat="43.18155" lon="6.50001">
        <ele>492.9</ele>
        <time>2024-02-04T12:13:32Z</time>
      </trkpt>
      <trkpt lat="43.18155" lon="6.50001">
        <ele>492.9</ele>
        <time>2024-02-04T12:13:33Z</time>
      </trkpt>
      <trkpt lat="43.18155" lon="6.50002">
        <ele>493</ele>
        <time>2024-02-04T12:13:34Z</time>
      </trkpt>
      <trkpt lat="43.18155" lon="6.50002">
        <ele>493</ele>
        <time>2024-02-04T12:13:35Z</time>
      </trkpt>
      <trkpt lat="43.18155" lon="6.50002">
        <ele>493.1</ele>
        <time>2024-02-04T12:13:36Z</time>
      </trkpt>
      <trkpt lat="43.18156" lon="6.50002">
        <ele>493.1</ele>
        <time>2024-02-04T12:13:37Z</time>
      </trkpt>
      <trkpt lat="43.18156" lon="6.50002">
        <ele>493</ele>
        <time>2024-02-04T12:13:38Z</time>
      </trkpt>
      <trkpt lat="43.18156" lon="6.50001">
        <ele>492.9</ele>
        <time>2024-02-04T12:13:39Z</time>
      </trkpt>
      <trkpt lat="43.18156" lon="6.50001">
        <ele>492.9</ele>
        <time>2024-02-04T12:13:40Z</time>
      </trkpt>
      <trkpt lat="43.18156" lon="6.50001">
        <ele>492.9</ele>
        <time>2024-02-04T12:13:41Z</time>
      </trkpt>
      <trkpt lat="43.18156" lon="6.50001">
        <ele>492.8</ele>
        <time>2024-02-04T12:13:42Z</time>
      </trkpt>
      <trkpt lat="43.18156" lon="6.50001">
        <ele>492.8</ele>
        <time>2024-02-04T12:13:43Z</time>
      </trkpt>
      <trkpt lat="43.18156" lon="6.50001">
        <ele>492.7</ele>
        <time>2024-02-04T12:13:44Z</time>
      </trkpt>
      <trkpt lat="43.18156" lon="6.50001">
        <ele>492.7</ele>
        <time>2024-02-04T12:13:45Z</time>
      </trkpt>
      <trkpt lat="43.18156" lon="6.50001">
        <ele>492.7</ele>
        <time>2024-02-04T12:13:46Z</time>
      </trkpt>
      <trkpt lat="43.18156" lon="6.50001">
        <ele>492.7</ele>
        <time>2024-02-04T12:13:47Z</time>
      </trkpt>
      <trkpt lat="43.18156" lon="6.50002">
        <ele>492.7</ele>
        <time>2024-02-04T12:13:48Z</time>
      </trkpt>
      <trkpt lat="43.18156" lon="6.50002">
        <ele>492.8</ele>
        <time>2024-02-04T12:13:49Z</time>
      </trkpt>
      <trkpt lat="43.18156" lon="6.50002">
        <ele>492.8</ele>
        <time>2024-02-04T12:13:50Z</time>
      </trkpt>
      <trkpt lat="43.18156" lon="6.50002">
        <ele>492.9</ele>
        <time>2024-02-04T12:13:51Z</time>
      </trkpt>
      <trkpt lat="43.18156" lon="6.50001">
        <ele>492.9</ele>
        <time>2024-02-04T12:13:52Z</time>
      </trkpt>
      <trkpt lat="43.18156" lon="6.50001">
        <ele>493</ele>
        <time>2024-02-04T12:13:53Z</time>
      </trkpt>
      <trkpt lat="43.18156" lon="6.50001">
        <ele>493</ele>
        <time>2024-02-04T12:13:54Z</time>
      </trkpt>
      <trkpt lat="43.18156" lon="6.50001">
        <ele>493</ele>
        <time>2024-02-04T12:13:55Z</time>
      </trkpt>
      <trkpt lat="43.18156" lon="6.50001">
        <ele>492.9</ele>
        <time>2024-02-04T12:13:56Z</time>
      </trkpt>
      <trkpt lat="43.18156" lon="6.50001">
        <ele>492.8</ele>
        <time>2024-02-04T12:13:57Z</time>
      </trkpt>
      <trkpt lat="43.18156" lon="6.50001">
        <ele>492.9</ele>
        <time>2024-02-04T12:13:58Z</time>
      </trkpt>
      <trkpt lat="43.18157" lon="6.50001">
        <ele>492.9</ele>
        <time>2024-02-04T12:13:59Z</time>
      </trkpt>
      <trkpt lat="43.18157" lon="6.50001">
        <ele>492.9</ele>
        <time>2024-02-04T12:14:00Z</time>
      </trkpt>
      <trkpt lat="43.18157" lon="6.50001">
        <ele>492.8</ele>
        <time>2024-02-04T12:14:01Z</time>
      </trkpt>
      <trkpt lat="43.18157" lon="6.50001">
        <ele>492.8</ele>
        <time>2024-02-04T12:14:02Z</time>
      </trkpt>
      <trkpt lat="43.18157" lon="6.50001">
        <ele>492.8</ele>
        <time>2024-02-04T12:14:03Z</time>
      </trkpt>
      <trkpt lat="43.18157" lon="6.50001">
        <ele>492.8</ele>
        <time>2024-02-04T12:14:04Z</time>
      </trkpt>
      <trkpt lat="43.18157" lon="6.50001">
        <ele>492.8</ele>
        <time>2024-02-04T12:14:05Z</time>
      </trkpt>
      <trkpt lat="43.18157" lon="6.50001">
        <ele>492.8</ele>
        <time>2024-02-04T12:14:06Z</time>
      </trkpt>
      <trkpt lat="43.18157" lon="6.50001">
        <ele>492.8</ele>
        <time>2024-02-04T12:14:07Z</time>
      </trkpt>
      <trkpt lat="43.18157" lon="6.50001">
        <ele>492.7</ele>
        <time>2024-02-04T12:14:08Z</time>
      </trkpt>
      <trkpt lat="43.18157" lon="6.50001">
        <ele>492.8</ele>
        <time>2024-02-04T12:14:09Z</time>
      </trkpt>
      <trkpt lat="43.18157" lon="6.50001">
        <ele>492.7</ele>
        <time>2024-02-04T12:14:10Z</time>
      </trkpt>
      <trkpt lat="43.18157" lon="6.50001">
        <ele>492.8</ele>
        <time>2024-02-04T12:14:11Z</time>
      </trkpt>
      <trkpt lat="43.18157" lon="6.50001">
        <ele>492.8</ele>
        <time>2024-02-04T12:14:12Z</time>
      </trkpt>
      <trkpt lat="43.18157" lon="6.50001">
        <ele>492.9</ele>
        <time>2024-02-04T12:14:13Z</time>
      </trkpt>
      <trkpt lat="43.18157" lon="6.50001">
        <ele>492.9</ele>
        <time>2024-02-04T12:14:14Z</time>
      </trkpt>
      <trkpt lat="43.18157" lon="6.50001">
        <ele>492.9</ele>
        <time>2024-02-04T12:14:15Z</time>
      </trkpt>
      <trkpt lat="43.18157" lon="6.50001">
        <ele>492.9</ele>
        <time>2024-02-04T12:14:16Z</time>
      </trkpt>
      <trkpt lat="43.18158" lon="6.50001">
        <ele>492.9</ele>
        <time>2024-02-04T12:14:17Z</time>
      </trkpt>
      <trkpt lat="43.18158" lon="6.50001">
        <ele>492.9</ele>
        <time>2024-02-04T12:14:18Z</time>
      </trkpt>
      <trkpt lat="43.18158" lon="6.50001">
        <ele>492.9</ele>
        <time>2024-02-04T12:14:19Z</time>
      </trkpt>
      <trkpt lat="43.18157" lon="6.50001">
        <ele>492.9</ele>
        <time>2024-02-04T12:14:20Z</time>
      </trkpt>
      <trkpt lat="43.18157" lon="6.50001">
        <ele>492.8</ele>
        <time>2024-02-04T12:14:21Z</time>
      </trkpt>
      <trkpt lat="43.18157" lon="6.50001">
        <ele>492.8</ele>
        <time>2024-02-04T12:14:22Z</time>
      </trkpt>
      <trkpt lat="43.18157" lon="6.50001">
        <ele>492.9</ele>
        <time>2024-02-04T12:14:23Z</time>
      </trkpt>
      <trkpt lat="43.18157" lon="6.50001">
        <ele>492.9</ele>
        <time>2024-02-04T12:14:24Z</time>
      </trkpt>
      <trkpt lat="43.18157" lon="6.50001">
        <ele>493</ele>
        <time>2024-02-04T12:14:25Z</time>
      </trkpt>
      <trkpt lat="43.18157" lon="6.50001">
        <ele>493</ele>
        <time>2024-02-04T12:14:26Z</time>
      </trkpt>
      <trkpt lat="43.18157" lon="6.50001">
        <ele>493</ele>
        <time>2024-02-04T12:14:27Z</time>
      </trkpt>
      <trkpt lat="43.18157" lon="6.50001">
        <ele>493</ele>
        <time>2024-02-04T12:14:28Z</time>
      </trkpt>
      <trkpt lat="43.18157" lon="6.50001">
        <ele>493</ele>
        <time>2024-02-04T12:14:29Z</time>
      </trkpt>
      <trkpt lat="43.18157" lon="6.50002">
        <ele>493</ele>
        <time>2024-02-04T12:14:30Z</time>
      </trkpt>
      <trkpt lat="43.18157" lon="6.50001">
        <ele>493</ele>
        <time>2024-02-04T12:14:31Z</time>
      </trkpt>
      <trkpt lat="43.18157" lon="6.50001">
        <ele>493</ele>
        <time>2024-02-04T12:14:32Z</time>
      </trkpt>
      <trkpt lat="43.18157" lon="6.50001">
        <ele>492.9</ele>
        <time>2024-02-04T12:14:33Z</time>
      </trkpt>
      <trkpt lat="43.18157" lon="6.50001">
        <ele>492.9</ele>
        <time>2024-02-04T12:14:34Z</time>
      </trkpt>
      <trkpt lat="43.18157" lon="6.50001">
        <ele>492.9</ele>
        <time>2024-02-04T12:14:35Z</time>
      </trkpt>
      <trkpt lat="43.18157" lon="6.50002">
        <ele>492.9</ele>
        <time>2024-02-04T12:14:36Z</time>
      </trkpt>
      <trkpt lat="43.18157" lon="6.50002">
        <ele>492.9</ele>
        <time>2024-02-04T12:14:37Z</time>
      </trkpt>
      <trkpt lat="43.18157" lon="6.50002">
        <ele>492.9</ele>
        <time>2024-02-04T12:14:38Z</time>
      </trkpt>
      <trkpt lat="43.18157" lon="6.50002">
        <ele>492.9</ele>
        <time>2024-02-04T12:14:39Z</time>
      </trkpt>
      <trkpt lat="43.18157" lon="6.50002">
        <ele>492.9</ele>
        <time>2024-02-04T12:14:40Z</time>
      </trkpt>
      <trkpt lat="43.18157" lon="6.50002">
        <ele>492.8</ele>
        <time>2024-02-04T12:14:41Z</time>
      </trkpt>
      <trkpt lat="43.18157" lon="6.50002">
        <ele>492.8</ele>
        <time>2024-02-04T12:14:42Z</time>
      </trkpt>
      <trkpt lat="43.18157" lon="6.50002">
        <ele>492.9</ele>
        <time>2024-02-04T12:14:43Z</time>
      </trkpt>
      <trkpt lat="43.18157" lon="6.50002">
        <ele>493</ele>
        <time>2024-02-04T12:14:44Z</time>
      </trkpt>
      <trkpt lat="43.18157" lon="6.50002">
        <ele>493.1</ele>
        <time>2024-02-04T12:14:45Z</time>
      </trkpt>
      <trkpt lat="43.18157" lon="6.50002">
        <ele>493</ele>
        <time>2024-02-04T12:14:46Z</time>
      </trkpt>
      <trkpt lat="43.18157" lon="6.50002">
        <ele>493.1</ele>
        <time>2024-02-04T12:14:47Z</time>
      </trkpt>
      <trkpt lat="43.18157" lon="6.50002">
        <ele>493.1</ele>
        <time>2024-02-04T12:14:48Z</time>
      </trkpt>
      <trkpt lat="43.18157" lon="6.50002">
        <ele>493.1</ele>
        <time>2024-02-04T12:14:49Z</time>
      </trkpt>
      <trkpt lat="43.18157" lon="6.50002">
        <ele>493</ele>
        <time>2024-02-04T12:14:50Z</time>
      </trkpt>
      <trkpt lat="43.18158" lon="6.50002">
        <ele>493</ele>
        <time>2024-02-04T12:14:51Z</time>
      </trkpt>
      <trkpt lat="43.18158" lon="6.50002">
        <ele>492.9</ele>
        <time>2024-02-04T12:14:52Z</time>
      </trkpt>
      <trkpt lat="43.18158" lon="6.50002">
        <ele>492.9</ele>
        <time>2024-02-04T12:14:53Z</time>
      </trkpt>
      <trkpt lat="43.18158" lon="6.50002">
        <ele>492.9</ele>
        <time>2024-02-04T12:14:54Z</time>
      </trkpt>
      <trkpt lat="43.18158" lon="6.50002">
        <ele>493</ele>
        <time>2024-02-04T12:14:55Z</time>
      </trkpt>
      <trkpt lat="43.18158" lon="6.50002">
        <ele>493.1</ele>
        <time>2024-02-04T12:14:56Z</time>
      </trkpt>
      <trkpt lat="43.18158" lon="6.50002">
        <ele>493.1</ele>
        <time>2024-02-04T12:14:57Z</time>
      </trkpt>
      <trkpt lat="43.18157" lon="6.50001">
        <ele>493.1</ele>
        <time>2024-02-04T12:14:58Z</time>
      </trkpt>
      <trkpt lat="43.18157" lon="6.50001">
        <ele>493.1</ele>
        <time>2024-02-04T12:14:59Z</time>
      </trkpt>
      <trkpt lat="43.18156" lon="6.50001">
        <ele>493.1</ele>
        <time>2024-02-04T12:15:00Z</time>
      </trkpt>
      <trkpt lat="43.18156" lon="6.50001">
        <ele>493.1</ele>
        <time>2024-02-04T12:15:01Z</time>
      </trkpt>
      <trkpt lat="43.18156" lon="6.50002">
        <ele>493.2</ele>
        <time>2024-02-04T12:15:02Z</time>
      </trkpt>
      <trkpt lat="43.18156" lon="6.50003">
        <ele>493.2</ele>
        <time>2024-02-04T12:15:03Z</time>
      </trkpt>
      <trkpt lat="43.18156" lon="6.50003">
        <ele>493.1</ele>
        <time>2024-02-04T12:15:04Z</time>
      </trkpt>
      <trkpt lat="43.18156" lon="6.50003">
        <ele>493.1</ele>
        <time>2024-02-04T12:15:05Z</time>
      </trkpt>
      <trkpt lat="43.18156" lon="6.50003">
        <ele>493.1</ele>
        <time>2024-02-04T12:15:06Z</time>
      </trkpt>
      <trkpt lat="43.18156" lon="6.50003">
        <ele>493.1</ele>
        <time>2024-02-04T12:15:07Z</time>
      </trkpt>
      <trkpt lat="43.18156" lon="6.50003">
        <ele>493.1</ele>
        <time>2024-02-04T12:15:08Z</time>
      </trkpt>
      <trkpt lat="43.18156" lon="6.50003">
        <ele>493.2</ele>
        <time>2024-02-04T12:15:09Z</time>
      </trkpt>
      <trkpt lat="43.18156" lon="6.50003">
        <ele>493.2</ele>
        <time>2024-02-04T12:15:10Z</time>
      </trkpt>
      <trkpt lat="43.18156" lon="6.50003">
        <ele>493.2</ele>
        <time>2024-02-04T12:15:11Z</time>
      </trkpt>
      <trkpt lat="43.18156" lon="6.50003">
        <ele>493.2</ele>
        <time>2024-02-04T12:15:12Z</time>
      </trkpt>
      <trkpt lat="43.18155" lon="6.50003">
        <ele>491.6</ele>
        <time>2024-02-04T12:15:13Z</time>
      </trkpt>
      <trkpt lat="43.18155" lon="6.50003">
        <ele>491.9</ele>
        <time>2024-02-04T12:15:14Z</time>
      </trkpt>
      <trkpt lat="43.18155" lon="6.50003">
        <ele>492.1</ele>
        <time>2024-02-04T12:15:15Z</time>
      </trkpt>
      <trkpt lat="43.18155" lon="6.50004">
        <ele>492.3</ele>
        <time>2024-02-04T12:15:16Z</time>
      </trkpt>
      <trkpt lat="43.18155" lon="6.50004">
        <ele>492.5</ele>
        <time>2024-02-04T12:15:17Z</time>
      </trkpt>
      <trkpt lat="43.18155" lon="6.50004">
        <ele>492.6</ele>
        <time>2024-02-04T12:15:18Z</time>
      </trkpt>
      <trkpt lat="43.18154" lon="6.50004">
        <ele>492.7</ele>
        <time>2024-02-04T12:15:19Z</time>
      </trkpt>
      <trkpt lat="43.18155" lon="6.50004">
        <ele>492.8</ele>
        <time>2024-02-04T12:15:20Z</time>
      </trkpt>
      <trkpt lat="43.18154" lon="6.50004">
        <ele>493</ele>
        <time>2024-02-04T12:15:21Z</time>
      </trkpt>
      <trkpt lat="43.18154" lon="6.50004">
        <ele>493</ele>
        <time>2024-02-04T12:15:22Z</time>
      </trkpt>
      <trkpt lat="43.18154" lon="6.50004">
        <ele>493.1</ele>
        <time>2024-02-04T12:15:23Z</time>
      </trkpt>
      <trkpt lat="43.18154" lon="6.50005">
        <ele>493.2</ele>
        <time>2024-02-04T12:15:24Z</time>
      </trkpt>
      <trkpt lat="43.18154" lon="6.50005">
        <ele>493.2</ele>
        <time>2024-02-04T12:15:25Z</time>
      </trkpt>
      <trkpt lat="43.18154" lon="6.50005">
        <ele>493.3</ele>
        <time>2024-02-04T12:15:26Z</time>
      </trkpt>
      <trkpt lat="43.18154" lon="6.50005">
        <ele>493.4</ele>
        <time>2024-02-04T12:15:27Z</time>
      </trkpt>
      <trkpt lat="43.18154" lon="6.50005">
        <ele>493.5</ele>
        <time>2024-02-04T12:15:28Z</time>
      </trkpt>
      <trkpt lat="43.18154" lon="6.50005">
        <ele>493.5</ele>
        <time>2024-02-04T12:15:29Z</time>
      </trkpt>
      <trkpt lat="43.18154" lon="6.50005">
        <ele>493.5</ele>
        <time>2024-02-04T12:15:30Z</time>
      </trkpt>
      <trkpt lat="43.18154" lon="6.50005">
        <ele>493.5</ele>
        <time>2024-02-04T12:15:31Z</time>
      </trkpt>
      <trkpt lat="43.18154" lon="6.50005">
        <ele>493.6</ele>
        <time>2024-02-04T12:15:32Z</time>
      </trkpt>
      <trkpt lat="43.18154" lon="6.50005">
        <ele>493.6</ele>
        <time>2024-02-04T12:15:33Z</time>
      </trkpt>
      <trkpt lat="43.18154" lon="6.50005">
        <ele>493.5</ele>
        <time>2024-02-04T12:15:34Z</time>
      </trkpt>
      <trkpt lat="43.18154" lon="6.50005">
        <ele>493.5</ele>
        <time>2024-02-04T12:15:35Z</time>
      </trkpt>
      <trkpt lat="43.18153" lon="6.50005">
        <ele>493.5</ele>
        <time>2024-02-04T12:15:36Z</time>
      </trkpt>
      <trkpt lat="43.18153" lon="6.50005">
        <ele>493.5</ele>
        <time>2024-02-04T12:15:37Z</time>
      </trkpt>
      <trkpt lat="43.18153" lon="6.50005">
        <ele>493.4</ele>
        <time>2024-02-04T12:15:38Z</time>
      </trkpt>
      <trkpt lat="43.18153" lon="6.50005">
        <ele>493.5</ele>
        <time>2024-02-04T12:15:39Z</time>
      </trkpt>
      <trkpt lat="43.18153" lon="6.50005">
        <ele>493.5</ele>
        <time>2024-02-04T12:15:40Z</time>
      </trkpt>
      <trkpt lat="43.18153" lon="6.50005">
        <ele>493.5</ele>
        <time>2024-02-04T12:15:41Z</time>
      </trkpt>
      <trkpt lat="43.18153" lon="6.50006">
        <ele>493.4</ele>
        <time>2024-02-04T12:15:42Z</time>
      </trkpt>
      <trkpt lat="43.18153" lon="6.50006">
        <ele>493.4</ele>
        <time>2024-02-04T12:15:43Z</time>
      </trkpt>
      <trkpt lat="43.18153" lon="6.50006">
        <ele>493.4</ele>
        <time>2024-02-04T12:15:44Z</time>
      </trkpt>
      <trkpt lat="43.18153" lon="6.50006">
        <ele>493.3</ele>
        <time>2024-02-04T12:15:45Z</time>
      </trkpt>
      <trkpt lat="43.18153" lon="6.50006">
        <ele>493.3</ele>
        <time>2024-02-04T12:15:46Z</time>
      </trkpt>
      <trkpt lat="43.18153" lon="6.50006">
        <ele>493.2</ele>
        <time>2024-02-04T12:15:47Z</time>
      </trkpt>
      <trkpt lat="43.18153" lon="6.50006">
        <ele>493.3</ele>
        <time>2024-02-04T12:15:48Z</time>
      </trkpt>
      <trkpt lat="43.18153" lon="6.50006">
        <ele>493.3</ele>
        <time>2024-02-04T12:15:49Z</time>
      </trkpt>
      <trkpt lat="43.18153" lon="6.50006">
        <ele>493.3</ele>
        <time>2024-02-04T12:15:50Z</time>
      </trkpt>
      <trkpt lat="43.18153" lon="6.50006">
        <ele>493.3</ele>
        <time>2024-02-04T12:15:51Z</time>
      </trkpt>
      <trkpt lat="43.18153" lon="6.50006">
        <ele>493.3</ele>
        <time>2024-02-04T12:15:52Z</time>
      </trkpt>
      <trkpt lat="43.18153" lon="6.50006">
        <ele>493.3</ele>
        <time>2024-02-04T12:15:53Z</time>
      </trkpt>
      <trkpt lat="43.18153" lon="6.50006">
        <ele>493.4</ele>
        <time>2024-02-04T12:15:54Z</time>
      </trkpt>
      <trkpt lat="43.18153" lon="6.50006">
        <ele>493.3</ele>
        <time>2024-02-04T12:15:55Z</time>
      </trkpt>
      <trkpt lat="43.18153" lon="6.50006">
        <ele>493.2</ele>
        <time>2024-02-04T12:15:56Z</time>
      </trkpt>
      <trkpt lat="43.18153" lon="6.50006">
        <ele>493.2</ele>
        <time>2024-02-04T12:15:57Z</time>
      </trkpt>
      <trkpt lat="43.18154" lon="6.50006">
        <ele>493.2</ele>
        <time>2024-02-04T12:15:58Z</time>
      </trkpt>
      <trkpt lat="43.18154" lon="6.50006">
        <ele>493.2</ele>
        <time>2024-02-04T12:15:59Z</time>
      </trkpt>
      <trkpt lat="43.18153" lon="6.50006">
        <ele>493.2</ele>
        <time>2024-02-04T12:16:00Z</time>
      </trkpt>
      <trkpt lat="43.18153" lon="6.50006">
        <ele>493.2</ele>
        <time>2024-02-04T12:16:01Z</time>
      </trkpt>
      <trkpt lat="43.18153" lon="6.50006">
        <ele>493.3</ele>
        <time>2024-02-04T12:16:02Z</time>
      </trkpt>
      <trkpt lat="43.18153" lon="6.50006">
        <ele>493.3</ele>
        <time>2024-02-04T12:16:03Z</time>
      </trkpt>
      <trkpt lat="43.18153" lon="6.50006">
        <ele>493.3</ele>
        <time>2024-02-04T12:16:04Z</time>
      </trkpt>
      <trkpt lat="43.18153" lon="6.50006">
        <ele>493.3</ele>
        <time>2024-02-04T12:16:05Z</time>
      </trkpt>
      <trkpt lat="43.18153" lon="6.50006">
        <ele>493.3</ele>
        <time>2024-02-04T12:16:06Z</time>
      </trkpt>
      <trkpt lat="43.18153" lon="6.50006">
        <ele>493.3</ele>
        <time>2024-02-04T12:16:07Z</time>
      </trkpt>
      <trkpt lat="43.18153" lon="6.50006">
        <ele>493.3</ele>
        <time>2024-02-04T12:16:08Z</time>
      </trkpt>
      <trkpt lat="43.18153" lon="6.50006">
        <ele>493.2</ele>
        <time>2024-02-04T12:16:09Z</time>
      </trkpt>
      <trkpt lat="43.18153" lon="6.50007">
        <ele>493.2</ele>
        <time>2024-02-04T12:16:10Z</time>
      </trkpt>
      <trkpt lat="43.18153" lon="6.50007">
        <ele>493.2</ele>
        <time>2024-02-04T12:16:11Z</time>
      </trkpt>
      <trkpt lat="43.18153" lon="6.50007">
        <ele>493.1</ele>
        <time>2024-02-04T12:16:12Z</time>
      </trkpt>
      <trkpt lat="43.18153" lon="6.50007">
        <ele>493</ele>
        <time>2024-02-04T12:16:13Z</time>
      </trkpt>
      <trkpt lat="43.18153" lon="6.50007">
        <ele>493</ele>
        <time>2024-02-04T12:16:14Z</time>
      </trkpt>
      <trkpt lat="43.18153" lon="6.50007">
        <ele>492.9</ele>
        <time>2024-02-04T12:16:15Z</time>
      </trkpt>
      <trkpt lat="43.18153" lon="6.50007">
        <ele>493</ele>
        <time>2024-02-04T12:16:16Z</time>
      </trkpt>
      <trkpt lat="43.18153" lon="6.50006">
        <ele>493.1</ele>
        <time>2024-02-04T12:16:17Z</time>
      </trkpt>
      <trkpt lat="43.18153" lon="6.50006">
        <ele>493.1</ele>
        <time>2024-02-04T12:16:18Z</time>
      </trkpt>
      <trkpt lat="43.18153" lon="6.50006">
        <ele>493.1</ele>
        <time>2024-02-04T12:16:19Z</time>
      </trkpt>
      <trkpt lat="43.18153" lon="6.50006">
        <ele>493.1</ele>
        <time>2024-02-04T12:16:20Z</time>
      </trkpt>
      <trkpt lat="43.18153" lon="6.50006">
        <ele>493</ele>
        <time>2024-02-04T12:16:21Z</time>
      </trkpt>
      <trkpt lat="43.18153" lon="6.50006">
        <ele>493</ele>
        <time>2024-02-04T12:16:22Z</time>
      </trkpt>
      <trkpt lat="43.18153" lon="6.50007">
        <ele>493</ele>
        <time>2024-02-04T12:16:23Z</time>
      </trkpt>
      <trkpt lat="43.18153" lon="6.50007">
        <ele>493</ele>
        <time>2024-02-04T12:16:24Z</time>
      </trkpt>
      <trkpt lat="43.18153" lon="6.50007">
        <ele>492.9</ele>
        <time>2024-02-04T12:16:25Z</time>
      </trkpt>
      <trkpt lat="43.18153" lon="6.50007">
        <ele>492.8</ele>
        <time>2024-02-04T12:16:26Z</time>
      </trkpt>
      <trkpt lat="43.18153" lon="6.50007">
        <ele>492.8</ele>
        <time>2024-02-04T12:16:27Z</time>
      </trkpt>
      <trkpt lat="43.18153" lon="6.50007">
        <ele>492.8</ele>
        <time>2024-02-04T12:16:28Z</time>
      </trkpt>
      <trkpt lat="43.18153" lon="6.50007">
        <ele>492.8</ele>
        <time>2024-02-04T12:16:29Z</time>
      </trkpt>
      <trkpt lat="43.18153" lon="6.50007">
        <ele>492.8</ele>
        <time>2024-02-04T12:16:30Z</time>
      </trkpt>
      <trkpt lat="43.18153" lon="6.50007">
        <ele>492.9</ele>
        <time>2024-02-04T12:16:31Z</time>
      </trkpt>
      <trkpt lat="43.18153" lon="6.50007">
        <ele>492.9</ele>
        <time>2024-02-04T12:16:32Z</time>
      </trkpt>
      <trkpt lat="43.18153" lon="6.50007">
        <ele>492.9</ele>
        <time>2024-02-04T12:16:33Z</time>
      </trkpt>
      <trkpt lat="43.18153" lon="6.50007">
        <ele>493</ele>
        <time>2024-02-04T12:16:34Z</time>
      </trkpt>
      <trkpt lat="43.18153" lon="6.50007">
        <ele>493</ele>
        <time>2024-02-04T12:16:35Z</time>
      </trkpt>
      <trkpt lat="43.18153" lon="6.50007">
        <ele>493</ele>
        <time>2024-02-04T12:16:36Z</time>
      </trkpt>
      <trkpt lat="43.18153" lon="6.50007">
        <ele>492.9</ele>
        <time>2024-02-04T12:16:37Z</time>
      </trkpt>
      <trkpt lat="43.18153" lon="6.50007">
        <ele>492.9</ele>
        <time>2024-02-04T12:16:38Z</time>
      </trkpt>
      <trkpt lat="43.18153" lon="6.50007">
        <ele>493</ele>
        <time>2024-02-04T12:16:39Z</time>
      </trkpt>
      <trkpt lat="43.18153" lon="6.50006">
        <ele>493</ele>
        <time>2024-02-04T12:16:40Z</time>
      </trkpt>
      <trkpt lat="43.18153" lon="6.50006">
        <ele>493.1</ele>
        <time>2024-02-04T12:16:41Z</time>
      </trkpt>
      <trkpt lat="43.18153" lon="6.50006">
        <ele>493.1</ele>
        <time>2024-02-04T12:16:42Z</time>
      </trkpt>
      <trkpt lat="43.18153" lon="6.50006">
        <ele>493</ele>
        <time>2024-02-04T12:16:43Z</time>
      </trkpt>
      <trkpt lat="43.18153" lon="6.50006">
        <ele>493</ele>
        <time>2024-02-04T12:16:44Z</time>
      </trkpt>
      <trkpt lat="43.18153" lon="6.50006">
        <ele>493</ele>
        <time>2024-02-04T12:16:45Z</time>
      </trkpt>
      <trkpt lat="43.18153" lon="6.50006">
        <ele>493.1</ele>
        <time>2024-02-04T12:16:46Z</time>
      </trkpt>
      <trkpt lat="43.18153" lon="6.50006">
        <ele>493.1</ele>
        <time>2024-02-04T12:16:47Z</time>
      </trkpt>
      <trkpt lat="43.18153" lon="6.50006">
        <ele>493.1</ele>
        <time>2024-02-04T12:16:48Z</time>
      </trkpt>
      <trkpt lat="43.18153" lon="6.50006">
        <ele>493.2</ele>
        <time>2024-02-04T12:16:49Z</time>
      </trkpt>
      <trkpt lat="43.18153" lon="6.50006">
        <ele>493.2</ele>
        <time>2024-02-04T12:16:50Z</time>
      </trkpt>
      <trkpt lat="43.18153" lon="6.50006">
        <ele>493.2</ele>
        <time>2024-02-04T12:16:51Z</time>
      </trkpt>
      <trkpt lat="43.18153" lon="6.50006">
        <ele>493.3</ele>
        <time>2024-02-04T12:16:52Z</time>
      </trkpt>
      <trkpt lat="43.18153" lon="6.50006">
        <ele>493.3</ele>
        <time>2024-02-04T12:16:53Z</time>
      </trkpt>
      <trkpt lat="43.18153" lon="6.50006">
        <ele>493.3</ele>
        <time>2024-02-04T12:16:54Z</time>
      </trkpt>
      <trkpt lat="43.18153" lon="6.50006">
        <ele>493.3</ele>
        <time>2024-02-04T12:16:55Z</time>
      </trkpt>
      <trkpt lat="43.18152" lon="6.50006">
        <ele>493.3</ele>
        <time>2024-02-04T12:16:56Z</time>
      </trkpt>
      <trkpt lat="43.18153" lon="6.50006">
        <ele>493.3</ele>
        <time>2024-02-04T12:16:57Z</time>
      </trkpt>
      <trkpt lat="43.18152" lon="6.50006">
        <ele>493.2</ele>
        <time>2024-02-04T12:16:58Z</time>
      </trkpt>
      <trkpt lat="43.18152" lon="6.50005">
        <ele>493.2</ele>
        <time>2024-02-04T12:16:59Z</time>
      </trkpt>
      <trkpt lat="43.18152" lon="6.50005">
        <ele>493.2</ele>
        <time>2024-02-04T12:17:00Z</time>
      </trkpt>
      <trkpt lat="43.18152" lon="6.50006">
        <ele>493.3</ele>
        <time>2024-02-04T12:17:01Z</time>
      </trkpt>
      <trkpt lat="43.18152" lon="6.50006">
        <ele>493.3</ele>
        <time>2024-02-04T12:17:02Z</time>
      </trkpt>
      <trkpt lat="43.18152" lon="6.50006">
        <ele>493.4</ele>
        <time>2024-02-04T12:17:03Z</time>
      </trkpt>
      <trkpt lat="43.18152" lon="6.50006">
        <ele>493.4</ele>
        <time>2024-02-04T12:17:04Z</time>
      </trkpt>
      <trkpt lat="43.18153" lon="6.50006">
        <ele>493.4</ele>
        <time>2024-02-04T12:17:05Z</time>
      </trkpt>
      <trkpt lat="43.18153" lon="6.50006">
        <ele>493.4</ele>
        <time>2024-02-04T12:17:06Z</time>
      </trkpt>
      <trkpt lat="43.18153" lon="6.50006">
        <ele>493.4</ele>
        <time>2024-02-04T12:17:07Z</time>
      </trkpt>
      <trkpt lat="43.18153" lon="6.50006">
        <ele>493.5</ele>
        <time>2024-02-04T12:17:08Z</time>
      </trkpt>
      <trkpt lat="43.18153" lon="6.50006">
        <ele>493.6</ele>
        <time>2024-02-04T12:17:09Z</time>
      </trkpt>
      <trkpt lat="43.18153" lon="6.50007">
        <ele>493.6</ele>
        <time>2024-02-04T12:17:10Z</time>
      </trkpt>
      <trkpt lat="43.18153" lon="6.50007">
        <ele>493.6</ele>
        <time>2024-02-04T12:17:11Z</time>
      </trkpt>
      <trkpt lat="43.18153" lon="6.50007">
        <ele>493.6</ele>
        <time>2024-02-04T12:17:12Z</time>
      </trkpt>
      <trkpt lat="43.18153" lon="6.50007">
        <ele>493.6</ele>
        <time>2024-02-04T12:17:13Z</time>
      </trkpt>
      <trkpt lat="43.18153" lon="6.50007">
        <ele>493.6</ele>
        <time>2024-02-04T12:17:14Z</time>
      </trkpt>
      <trkpt lat="43.18153" lon="6.50007">
        <ele>493.5</ele>
        <time>2024-02-04T12:17:15Z</time>
      </trkpt>
      <trkpt lat="43.18153" lon="6.50007">
        <ele>493.5</ele>
        <time>2024-02-04T12:17:16Z</time>
      </trkpt>
      <trkpt lat="43.18153" lon="6.50007">
        <ele>493.5</ele>
        <time>2024-02-04T12:17:17Z</time>
      </trkpt>
      <trkpt lat="43.18153" lon="6.50006">
        <ele>493.5</ele>
        <time>2024-02-04T12:17:18Z</time>
      </trkpt>
      <trkpt lat="43.18153" lon="6.50006">
        <ele>493.4</ele>
        <time>2024-02-04T12:17:19Z</time>
      </trkpt>
      <trkpt lat="43.18153" lon="6.50006">
        <ele>493.4</ele>
        <time>2024-02-04T12:17:20Z</time>
      </trkpt>
      <trkpt lat="43.18153" lon="6.50006">
        <ele>493.4</ele>
        <time>2024-02-04T12:17:21Z</time>
      </trkpt>
      <trkpt lat="43.18153" lon="6.50006">
        <ele>493.4</ele>
        <time>2024-02-04T12:17:22Z</time>
      </trkpt>
      <trkpt lat="43.18153" lon="6.50006">
        <ele>493.5</ele>
        <time>2024-02-04T12:17:23Z</time>
      </trkpt>
      <trkpt lat="43.18153" lon="6.50006">
        <ele>493.5</ele>
        <time>2024-02-04T12:17:24Z</time>
      </trkpt>
      <trkpt lat="43.18153" lon="6.50006">
        <ele>493.6</ele>
        <time>2024-02-04T12:17:25Z</time>
      </trkpt>
      <trkpt lat="43.18153" lon="6.50006">
        <ele>493.6</ele>
        <time>2024-02-04T12:17:26Z</time>
      </trkpt>
      <trkpt lat="43.18153" lon="6.50006">
        <ele>493.7</ele>
        <time>2024-02-04T12:17:27Z</time>
      </trkpt>
      <trkpt lat="43.18153" lon="6.50006">
        <ele>493.7</ele>
        <time>2024-02-04T12:17:28Z</time>
      </trkpt>
      <trkpt lat="43.18153" lon="6.50006">
        <ele>493.7</ele>
        <time>2024-02-04T12:17:29Z</time>
      </trkpt>
      <trkpt lat="43.18153" lon="6.50006">
        <ele>493.6</ele>
        <time>2024-02-04T12:17:30Z</time>
      </trkpt>
      <trkpt lat="43.18153" lon="6.50006">
        <ele>493.6</ele>
        <time>2024-02-04T12:17:31Z</time>
      </trkpt>
      <trkpt lat="43.18153" lon="6.50006">
        <ele>493.6</ele>
        <time>2024-02-04T12:17:32Z</time>
      </trkpt>
      <trkpt lat="43.18153" lon="6.50006">
        <ele>493.6</ele>
        <time>2024-02-04T12:17:33Z</time>
      </trkpt>
      <trkpt lat="43.18153" lon="6.50006">
        <ele>493.6</ele>
        <time>2024-02-04T12:17:34Z</time>
      </trkpt>
      <trkpt lat="43.18153" lon="6.50006">
        <ele>493.7</ele>
        <time>2024-02-04T12:17:35Z</time>
      </trkpt>
      <trkpt lat="43.18153" lon="6.50006">
        <ele>493.7</ele>
        <time>2024-02-04T12:17:36Z</time>
      </trkpt>
      <trkpt lat="43.18153" lon="6.50007">
        <ele>493.7</ele>
        <time>2024-02-04T12:17:37Z</time>
      </trkpt>
      <trkpt lat="43.18153" lon="6.50007">
        <ele>493.6</ele>
        <time>2024-02-04T12:17:38Z</time>
      </trkpt>
      <trkpt lat="43.18153" lon="6.50007">
        <ele>493.6</ele>
        <time>2024-02-04T12:17:39Z</time>
      </trkpt>
      <trkpt lat="43.18153" lon="6.50007">
        <ele>493.4</ele>
        <time>2024-02-04T12:17:40Z</time>
      </trkpt>
      <trkpt lat="43.18153" lon="6.50007">
        <ele>493.4</ele>
        <time>2024-02-04T12:17:41Z</time>
      </trkpt>
      <trkpt lat="43.18153" lon="6.50007">
        <ele>493.5</ele>
        <time>2024-02-04T12:17:42Z</time>
      </trkpt>
      <trkpt lat="43.18153" lon="6.50007">
        <ele>493.6</ele>
        <time>2024-02-04T12:17:43Z</time>
      </trkpt>
      <trkpt lat="43.18153" lon="6.50007">
        <ele>493.6</ele>
        <time>2024-02-04T12:17:44Z</time>
      </trkpt>
      <trkpt lat="43.18153" lon="6.50007">
        <ele>493.6</ele>
        <time>2024-02-04T12:17:45Z</time>
      </trkpt>
      <trkpt lat="43.18153" lon="6.50007">
        <ele>493.7</ele>
        <time>2024-02-04T12:17:46Z</time>
      </trkpt>
      <trkpt lat="43.18153" lon="6.50007">
        <ele>493.7</ele>
        <time>2024-02-04T12:17:47Z</time>
      </trkpt>
      <trkpt lat="43.18153" lon="6.50007">
        <ele>493.7</ele>
        <time>2024-02-04T12:17:48Z</time>
      </trkpt>
      <trkpt lat="43.18153" lon="6.50007">
        <ele>493.7</ele>
        <time>2024-02-04T12:17:49Z</time>
      </trkpt>
      <trkpt lat="43.18153" lon="6.50007">
        <ele>493.7</ele>
        <time>2024-02-04T12:17:50Z</time>
      </trkpt>
      <trkpt lat="43.18153" lon="6.50007">
        <ele>493.6</ele>
        <time>2024-02-04T12:17:51Z</time>
      </trkpt>
      <trkpt lat="43.18153" lon="6.50007">
        <ele>493.4</ele>
        <time>2024-02-04T12:17:52Z</time>
      </trkpt>
      <trkpt lat="43.18153" lon="6.50007">
        <ele>493.4</ele>
        <time>2024-02-04T12:17:53Z</time>
      </trkpt>
      <trkpt lat="43.18153" lon="6.50007">
        <ele>493.3</ele>
        <time>2024-02-04T12:17:54Z</time>
      </trkpt>
      <trkpt lat="43.18153" lon="6.50007">
        <ele>493.4</ele>
        <time>2024-02-04T12:17:55Z</time>
      </trkpt>
      <trkpt lat="43.18153" lon="6.50007">
        <ele>493.4</ele>
        <time>2024-02-04T12:17:56Z</time>
      </trkpt>
      <trkpt lat="43.18153" lon="6.50007">
        <ele>493.4</ele>
        <time>2024-02-04T12:17:57Z</time>
      </trkpt>
      <trkpt lat="43.18153" lon="6.50007">
        <ele>493.4</ele>
        <time>2024-02-04T12:17:58Z</time>
      </trkpt>
      <trkpt lat="43.18153" lon="6.50007">
        <ele>493.4</ele>
        <time>2024-02-04T12:17:59Z</time>
      </trkpt>
      <trkpt lat="43.18153" lon="6.50007">
        <ele>493.4</ele>
        <time>2024-02-04T12:18:00Z</time>
      </trkpt>
      <trkpt lat="43.18153" lon="6.50007">
        <ele>493.4</ele>
        <time>2024-02-04T12:18:01Z</time>
      </trkpt>
      <trkpt lat="43.18153" lon="6.50007">
        <ele>493.3</ele>
        <time>2024-02-04T12:18:02Z</time>
      </trkpt>
      <trkpt lat="43.18153" lon="6.50007">
        <ele>493.4</ele>
        <time>2024-02-04T12:18:03Z</time>
      </trkpt>
      <trkpt lat="43.18153" lon="6.50007">
        <ele>493.5</ele>
        <time>2024-02-04T12:18:04Z</time>
      </trkpt>
      <trkpt lat="43.18153" lon="6.50007">
        <ele>493.5</ele>
        <time>2024-02-04T12:18:05Z</time>
      </trkpt>
      <trkpt lat="43.18153" lon="6.50007">
        <ele>493.5</ele>
        <time>2024-02-04T12:18:06Z</time>
      </trkpt>
      <trkpt lat="43.18153" lon="6.50007">
        <ele>493.6</ele>
        <time>2024-02-04T12:18:07Z</time>
      </trkpt>
      <trkpt lat="43.18153" lon="6.50007">
        <ele>493.6</ele>
        <time>2024-02-04T12:18:08Z</time>
      </trkpt>
      <trkpt lat="43.18153" lon="6.50007">
        <ele>493.6</ele>
        <time>2024-02-04T12:18:09Z</time>
      </trkpt>
      <trkpt lat="43.18153" lon="6.50007">
        <ele>493.6</ele>
        <time>2024-02-04T12:18:10Z</time>
      </trkpt>
      <trkpt lat="43.18153" lon="6.50007">
        <ele>493.7</ele>
        <time>2024-02-04T12:18:11Z</time>
      </trkpt>
      <trkpt lat="43.18153" lon="6.50007">
        <ele>493.7</ele>
        <time>2024-02-04T12:18:12Z</time>
      </trkpt>
      <trkpt lat="43.18153" lon="6.50007">
        <ele>493.7</ele>
        <time>2024-02-04T12:18:13Z</time>
      </trkpt>
      <trkpt lat="43.18153" lon="6.50007">
        <ele>493.7</ele>
        <time>2024-02-04T12:18:14Z</time>
      </trkpt>
      <trkpt lat="43.18153" lon="6.50007">
        <ele>493.7</ele>
        <time>2024-02-04T12:18:15Z</time>
      </trkpt>
      <trkpt lat="43.18153" lon="6.50007">
        <ele>493.7</ele>
        <time>2024-02-04T12:18:16Z</time>
      </trkpt>
      <trkpt lat="43.18153" lon="6.50007">
        <ele>493.7</ele>
        <time>2024-02-04T12:18:17Z</time>
      </trkpt>
      <trkpt lat="43.18153" lon="6.50007">
        <ele>493.7</ele>
        <time>2024-02-04T12:18:18Z</time>
      </trkpt>
      <trkpt lat="43.18153" lon="6.50007">
        <ele>493.7</ele>
        <time>2024-02-04T12:18:19Z</time>
      </trkpt>
      <trkpt lat="43.18153" lon="6.50007">
        <ele>493.7</ele>
        <time>2024-02-04T12:18:20Z</time>
      </trkpt>
      <trkpt lat="43.18153" lon="6.50007">
        <ele>493.6</ele>
        <time>2024-02-04T12:18:21Z</time>
      </trkpt>
      <trkpt lat="43.18153" lon="6.50007">
        <ele>493.5</ele>
        <time>2024-02-04T12:18:22Z</time>
      </trkpt>
      <trkpt lat="43.18153" lon="6.50007">
        <ele>493.4</ele>
        <time>2024-02-04T12:18:23Z</time>
      </trkpt>
      <trkpt lat="43.18153" lon="6.50007">
        <ele>493.4</ele>
        <time>2024-02-04T12:18:24Z</time>
      </trkpt>
      <trkpt lat="43.18154" lon="6.50007">
        <ele>493.4</ele>
        <time>2024-02-04T12:18:25Z</time>
      </trkpt>
      <trkpt lat="43.18154" lon="6.50007">
        <ele>493.3</ele>
        <time>2024-02-04T12:18:26Z</time>
      </trkpt>
      <trkpt lat="43.18154" lon="6.50007">
        <ele>493.3</ele>
        <time>2024-02-04T12:18:27Z</time>
      </trkpt>
      <trkpt lat="43.18153" lon="6.50007">
        <ele>493.3</ele>
        <time>2024-02-04T12:18:28Z</time>
      </trkpt>
      <trkpt lat="43.18153" lon="6.50007">
        <ele>493.2</ele>
        <time>2024-02-04T12:18:29Z</time>
      </trkpt>
      <trkpt lat="43.18153" lon="6.50007">
        <ele>493.2</ele>
        <time>2024-02-04T12:18:30Z</time>
      </trkpt>
      <trkpt lat="43.18153" lon="6.50007">
        <ele>493.2</ele>
        <time>2024-02-04T12:18:31Z</time>
      </trkpt>
      <trkpt lat="43.18153" lon="6.50007">
        <ele>493.1</ele>
        <time>2024-02-04T12:18:32Z</time>
      </trkpt>
      <trkpt lat="43.18153" lon="6.50007">
        <ele>493.1</ele>
        <time>2024-02-04T12:18:33Z</time>
      </trkpt>
      <trkpt lat="43.18153" lon="6.50007">
        <ele>493.1</ele>
        <time>2024-02-04T12:18:34Z</time>
      </trkpt>
      <trkpt lat="43.18153" lon="6.50007">
        <ele>493.1</ele>
        <time>2024-02-04T12:18:35Z</time>
      </trkpt>
      <trkpt lat="43.18153" lon="6.50007">
        <ele>493.1</ele>
        <time>2024-02-04T12:18:36Z</time>
      </trkpt>
      <trkpt lat="43.18153" lon="6.50007">
        <ele>493.1</ele>
        <time>2024-02-04T12:18:37Z</time>
      </trkpt>
      <trkpt lat="43.18153" lon="6.50007">
        <ele>493.1</ele>
        <time>2024-02-04T12:18:38Z</time>
      </trkpt>
      <trkpt lat="43.18153" lon="6.50007">
        <ele>493</ele>
        <time>2024-02-04T12:18:39Z</time>
      </trkpt>
      <trkpt lat="43.18153" lon="6.50007">
        <ele>493</ele>
        <time>2024-02-04T12:18:40Z</time>
      </trkpt>
      <trkpt lat="43.18153" lon="6.50007">
        <ele>492.9</ele>
        <time>2024-02-04T12:18:41Z</time>
      </trkpt>
      <trkpt lat="43.18153" lon="6.50007">
        <ele>492.9</ele>
        <time>2024-02-04T12:18:42Z</time>
      </trkpt>
      <trkpt lat="43.18153" lon="6.50007">
        <ele>493</ele>
        <time>2024-02-04T12:18:43Z</time>
      </trkpt>
      <trkpt lat="43.18153" lon="6.50007">
        <ele>493.1</ele>
        <time>2024-02-04T12:18:44Z</time>
      </trkpt>
      <trkpt lat="43.18153" lon="6.50007">
        <ele>493.2</ele>
        <time>2024-02-04T12:18:45Z</time>
      </trkpt>
      <trkpt lat="43.18153" lon="6.50007">
        <ele>493.2</ele>
        <time>2024-02-04T12:18:46Z</time>
      </trkpt>
      <trkpt lat="43.18153" lon="6.50007">
        <ele>493.3</ele>
        <time>2024-02-04T12:18:47Z</time>
      </trkpt>
      <trkpt lat="43.18153" lon="6.50007">
        <ele>493.4</ele>
        <time>2024-02-04T12:18:48Z</time>
      </trkpt>
      <trkpt lat="43.18153" lon="6.50007">
        <ele>493.4</ele>
        <time>2024-02-04T12:18:49Z</time>
      </trkpt>
      <trkpt lat="43.18153" lon="6.50007">
        <ele>493.4</ele>
        <time>2024-02-04T12:18:50Z</time>
      </trkpt>
      <trkpt lat="43.18153" lon="6.50007">
        <ele>493.4</ele>
        <time>2024-02-04T12:18:51Z</time>
      </trkpt>
      <trkpt lat="43.18154" lon="6.50007">
        <ele>493.4</ele>
        <time>2024-02-04T12:18:52Z</time>
      </trkpt>
      <trkpt lat="43.18154" lon="6.50007">
        <ele>493.4</ele>
        <time>2024-02-04T12:18:53Z</time>
      </trkpt>
      <trkpt lat="43.18154" lon="6.50007">
        <ele>493.4</ele>
        <time>2024-02-04T12:18:54Z</time>
      </trkpt>
      <trkpt lat="43.18154" lon="6.50007">
        <ele>493.4</ele>
        <time>2024-02-04T12:18:55Z</time>
      </trkpt>
      <trkpt lat="43.18154" lon="6.50007">
        <ele>493.4</ele>
        <time>2024-02-04T12:18:56Z</time>
      </trkpt>
      <trkpt lat="43.18154" lon="6.50007">
        <ele>493.4</ele>
        <time>2024-02-04T12:18:57Z</time>
      </trkpt>
      <trkpt lat="43.18154" lon="6.50007">
        <ele>493.4</ele>
        <time>2024-02-04T12:18:58Z</time>
      </trkpt>
      <trkpt lat="43.18154" lon="6.50007">
        <ele>493.4</ele>
        <time>2024-02-04T12:18:59Z</time>
      </trkpt>
      <trkpt lat="43.18154" lon="6.50007">
        <ele>493.4</ele>
        <time>2024-02-04T12:19:00Z</time>
      </trkpt>
      <trkpt lat="43.18154" lon="6.50007">
        <ele>493.3</ele>
        <time>2024-02-04T12:19:01Z</time>
      </trkpt>
      <trkpt lat="43.18154" lon="6.50007">
        <ele>493.3</ele>
        <time>2024-02-04T12:19:02Z</time>
      </trkpt>
      <trkpt lat="43.18154" lon="6.50007">
        <ele>493.2</ele>
        <time>2024-02-04T12:19:03Z</time>
      </trkpt>
      <trkpt lat="43.18154" lon="6.50007">
        <ele>493.2</ele>
        <time>2024-02-04T12:19:04Z</time>
      </trkpt>
      <trkpt lat="43.18154" lon="6.50007">
        <ele>493.3</ele>
        <time>2024-02-04T12:19:05Z</time>
      </trkpt>
      <trkpt lat="43.18154" lon="6.50007">
        <ele>493.4</ele>
        <time>2024-02-04T12:19:06Z</time>
      </trkpt>
      <trkpt lat="43.18154" lon="6.50007">
        <ele>493.5</ele>
        <time>2024-02-04T12:19:07Z</time>
      </trkpt>
      <trkpt lat="43.18154" lon="6.50007">
        <ele>493.5</ele>
        <time>2024-02-04T12:19:08Z</time>
      </trkpt>
      <trkpt lat="43.18154" lon="6.50007">
        <ele>493.5</ele>
        <time>2024-02-04T12:19:09Z</time>
      </trkpt>
      <trkpt lat="43.18154" lon="6.50007">
        <ele>493.5</ele>
        <time>2024-02-04T12:19:10Z</time>
      </trkpt>
      <trkpt lat="43.18154" lon="6.50007">
        <ele>493.5</ele>
        <time>2024-02-04T12:19:11Z</time>
      </trkpt>
      <trkpt lat="43.18154" lon="6.50007">
        <ele>493.4</ele>
        <time>2024-02-04T12:19:12Z</time>
      </trkpt>
      <trkpt lat="43.18154" lon="6.50007">
        <ele>493.5</ele>
        <time>2024-02-04T12:19:13Z</time>
      </trkpt>
      <trkpt lat="43.18154" lon="6.50007">
        <ele>493.5</ele>
        <time>2024-02-04T12:19:14Z</time>
      </trkpt>
      <trkpt lat="43.18154" lon="6.50007">
        <ele>493.6</ele>
        <time>2024-02-04T12:19:15Z</time>
      </trkpt>
      <trkpt lat="43.18154" lon="6.50007">
        <ele>493.5</ele>
        <time>2024-02-04T12:19:16Z</time>
      </trkpt>
      <trkpt lat="43.18154" lon="6.50007">
        <ele>493.4</ele>
        <time>2024-02-04T12:19:17Z</time>
      </trkpt>
      <trkpt lat="43.18154" lon="6.50007">
        <ele>493.3</ele>
        <time>2024-02-04T12:19:18Z</time>
      </trkpt>
      <trkpt lat="43.18154" lon="6.50007">
        <ele>493.3</ele>
        <time>2024-02-04T12:19:19Z</time>
      </trkpt>
      <trkpt lat="43.18154" lon="6.50007">
        <ele>493.2</ele>
        <time>2024-02-04T12:19:20Z</time>
      </trkpt>
      <trkpt lat="43.18154" lon="6.50007">
        <ele>493.3</ele>
        <time>2024-02-04T12:19:21Z</time>
      </trkpt>
      <trkpt lat="43.18154" lon="6.50006">
        <ele>493.2</ele>
        <time>2024-02-04T12:19:22Z</time>
      </trkpt>
      <trkpt lat="43.18154" lon="6.50006">
        <ele>493.2</ele>
        <time>2024-02-04T12:19:23Z</time>
      </trkpt>
      <trkpt lat="43.18154" lon="6.50006">
        <ele>493.2</ele>
        <time>2024-02-04T12:19:24Z</time>
      </trkpt>
      <trkpt lat="43.18154" lon="6.50006">
        <ele>493.2</ele>
        <time>2024-02-04T12:19:25Z</time>
      </trkpt>
      <trkpt lat="43.18154" lon="6.50006">
        <ele>493.2</ele>
        <time>2024-02-04T12:19:26Z</time>
      </trkpt>
      <trkpt lat="43.18154" lon="6.50006">
        <ele>493.1</ele>
        <time>2024-02-04T12:19:27Z</time>
      </trkpt>
      <trkpt lat="43.18154" lon="6.50006">
        <ele>493.2</ele>
        <time>2024-02-04T12:19:28Z</time>
      </trkpt>
      <trkpt lat="43.18154" lon="6.50006">
        <ele>493.2</ele>
        <time>2024-02-04T12:19:29Z</time>
      </trkpt>
      <trkpt lat="43.18154" lon="6.50006">
        <ele>493.2</ele>
        <time>2024-02-04T12:19:30Z</time>
      </trkpt>
      <trkpt lat="43.18154" lon="6.50006">
        <ele>493.2</ele>
        <time>2024-02-04T12:19:31Z</time>
      </trkpt>
      <trkpt lat="43.18154" lon="6.50006">
        <ele>493.2</ele>
        <time>2024-02-04T12:19:32Z</time>
      </trkpt>
      <trkpt lat="43.18154" lon="6.50006">
        <ele>493.2</ele>
        <time>2024-02-04T12:19:33Z</time>
      </trkpt>
      <trkpt lat="43.18154" lon="6.50006">
        <ele>493.2</ele>
        <time>2024-02-04T12:19:34Z</time>
      </trkpt>
      <trkpt lat="43.18154" lon="6.50006">
        <ele>493.2</ele>
        <time>2024-02-04T12:19:35Z</time>
      </trkpt>
      <trkpt lat="43.18154" lon="6.50006">
        <ele>493.2</ele>
        <time>2024-02-04T12:19:36Z</time>
      </trkpt>
      <trkpt lat="43.18154" lon="6.50006">
        <ele>493.2</ele>
        <time>2024-02-04T12:19:37Z</time>
      </trkpt>
      <trkpt lat="43.18154" lon="6.50005">
        <ele>493.2</ele>
        <time>2024-02-04T12:19:38Z</time>
      </trkpt>
      <trkpt lat="43.18154" lon="6.50005">
        <ele>493.2</ele>
        <time>2024-02-04T12:19:39Z</time>
      </trkpt>
      <trkpt lat="43.18154" lon="6.50005">
        <ele>493.2</ele>
        <time>2024-02-04T12:19:40Z</time>
      </trkpt>
      <trkpt lat="43.18154" lon="6.50005">
        <ele>493.2</ele>
        <time>2024-02-04T12:19:41Z</time>
      </trkpt>
      <trkpt lat="43.18154" lon="6.50005">
        <ele>493.3</ele>
        <time>2024-02-04T12:19:42Z</time>
      </trkpt>
      <trkpt lat="43.18154" lon="6.50005">
        <ele>493.3</ele>
        <time>2024-02-04T12:19:43Z</time>
      </trkpt>
      <trkpt lat="43.18154" lon="6.50005">
        <ele>493.3</ele>
        <time>2024-02-04T12:19:44Z</time>
      </trkpt>
      <trkpt lat="43.18154" lon="6.50005">
        <ele>493.3</ele>
        <time>2024-02-04T12:19:45Z</time>
      </trkpt>
      <trkpt lat="43.18154" lon="6.50005">
        <ele>493.3</ele>
        <time>2024-02-04T12:19:46Z</time>
      </trkpt>
      <trkpt lat="43.18154" lon="6.50005">
        <ele>493.2</ele>
        <time>2024-02-04T12:19:47Z</time>
      </trkpt>
      <trkpt lat="43.18154" lon="6.50005">
        <ele>493.3</ele>
        <time>2024-02-04T12:19:48Z</time>
      </trkpt>
      <trkpt lat="43.18154" lon="6.50005">
        <ele>493.3</ele>
        <time>2024-02-04T12:19:49Z</time>
      </trkpt>
      <trkpt lat="43.18154" lon="6.50005">
        <ele>493.3</ele>
        <time>2024-02-04T12:19:50Z</time>
      </trkpt>
      <trkpt lat="43.18154" lon="6.50005">
        <ele>493.2</ele>
        <time>2024-02-04T12:19:51Z</time>
      </trkpt>
      <trkpt lat="43.18154" lon="6.50005">
        <ele>493.2</ele>
        <time>2024-02-04T12:19:52Z</time>
      </trkpt>
      <trkpt lat="43.18154" lon="6.50005">
        <ele>493.2</ele>
        <time>2024-02-04T12:19:53Z</time>
      </trkpt>
      <trkpt lat="43.18154" lon="6.50005">
        <ele>493.2</ele>
        <time>2024-02-04T12:19:54Z</time>
      </trkpt>
      <trkpt lat="43.18154" lon="6.50005">
        <ele>493.1</ele>
        <time>2024-02-04T12:19:55Z</time>
      </trkpt>
      <trkpt lat="43.18154" lon="6.50006">
        <ele>493.1</ele>
        <time>2024-02-04T12:19:56Z</time>
      </trkpt>
      <trkpt lat="43.18154" lon="6.50006">
        <ele>493.1</ele>
        <time>2024-02-04T12:19:57Z</time>
      </trkpt>
      <trkpt lat="43.18154" lon="6.50005">
        <ele>493.1</ele>
        <time>2024-02-04T12:19:58Z</time>
      </trkpt>
      <trkpt lat="43.18154" lon="6.50005">
        <ele>493.1</ele>
        <time>2024-02-04T12:19:59Z</time>
      </trkpt>
      <trkpt lat="43.18154" lon="6.50005">
        <ele>493.1</ele>
        <time>2024-02-04T12:20:00Z</time>
      </trkpt>
      <trkpt lat="43.18154" lon="6.50006">
        <ele>493.2</ele>
        <time>2024-02-04T12:20:01Z</time>
      </trkpt>
      <trkpt lat="43.18154" lon="6.50006">
        <ele>493.1</ele>
        <time>2024-02-04T12:20:02Z</time>
      </trkpt>
      <trkpt lat="43.18154" lon="6.50005">
        <ele>493.1</ele>
        <time>2024-02-04T12:20:03Z</time>
      </trkpt>
      <trkpt lat="43.18154" lon="6.50006">
        <ele>493.1</ele>
        <time>2024-02-04T12:20:04Z</time>
      </trkpt>
      <trkpt lat="43.18154" lon="6.50005">
        <ele>493.1</ele>
        <time>2024-02-04T12:20:05Z</time>
      </trkpt>
      <trkpt lat="43.18154" lon="6.50005">
        <ele>493.1</ele>
        <time>2024-02-04T12:20:06Z</time>
      </trkpt>
      <trkpt lat="43.18154" lon="6.50005">
        <ele>493.2</ele>
        <time>2024-02-04T12:20:07Z</time>
      </trkpt>
      <trkpt lat="43.18154" lon="6.50006">
        <ele>493.2</ele>
        <time>2024-02-04T12:20:08Z</time>
      </trkpt>
      <trkpt lat="43.18154" lon="6.50006">
        <ele>493.2</ele>
        <time>2024-02-04T12:20:09Z</time>
      </trkpt>
      <trkpt lat="43.18154" lon="6.50005">
        <ele>493.2</ele>
        <time>2024-02-04T12:20:10Z</time>
      </trkpt>
      <trkpt lat="43.18153" lon="6.50005">
        <ele>493.3</ele>
        <time>2024-02-04T12:20:11Z</time>
      </trkpt>
      <trkpt lat="43.18154" lon="6.50005">
        <ele>493.3</ele>
        <time>2024-02-04T12:20:12Z</time>
      </trkpt>
      <trkpt lat="43.18153" lon="6.50005">
        <ele>493.2</ele>
        <time>2024-02-04T12:20:13Z</time>
      </trkpt>
      <trkpt lat="43.18153" lon="6.50005">
        <ele>493.2</ele>
        <time>2024-02-04T12:20:14Z</time>
      </trkpt>
      <trkpt lat="43.18153" lon="6.50005">
        <ele>493.2</ele>
        <time>2024-02-04T12:20:15Z</time>
      </trkpt>
      <trkpt lat="43.18153" lon="6.50005">
        <ele>493.2</ele>
        <time>2024-02-04T12:20:16Z</time>
      </trkpt>
      <trkpt lat="43.18153" lon="6.50005">
        <ele>493.2</ele>
        <time>2024-02-04T12:20:17Z</time>
      </trkpt>
      <trkpt lat="43.18153" lon="6.50005">
        <ele>493.2</ele>
        <time>2024-02-04T12:20:18Z</time>
      </trkpt>
      <trkpt lat="43.18153" lon="6.50005">
        <ele>493.1</ele>
        <time>2024-02-04T12:20:19Z</time>
      </trkpt>
      <trkpt lat="43.18153" lon="6.50005">
        <ele>493.2</ele>
        <time>2024-02-04T12:20:20Z</time>
      </trkpt>
      <trkpt lat="43.18153" lon="6.50005">
        <ele>493.2</ele>
        <time>2024-02-04T12:20:21Z</time>
      </trkpt>
      <trkpt lat="43.18153" lon="6.50005">
        <ele>493.2</ele>
        <time>2024-02-04T12:20:22Z</time>
      </trkpt>
      <trkpt lat="43.18154" lon="6.50005">
        <ele>493.2</ele>
        <time>2024-02-04T12:20:23Z</time>
      </trkpt>
      <trkpt lat="43.18154" lon="6.50005">
        <ele>493.2</ele>
        <time>2024-02-04T12:20:24Z</time>
      </trkpt>
      <trkpt lat="43.18153" lon="6.50005">
        <ele>493.2</ele>
        <time>2024-02-04T12:20:25Z</time>
      </trkpt>
      <trkpt lat="43.18153" lon="6.50005">
        <ele>493.2</ele>
        <time>2024-02-04T12:20:26Z</time>
      </trkpt>
      <trkpt lat="43.18153" lon="6.50005">
        <ele>493.2</ele>
        <time>2024-02-04T12:20:27Z</time>
      </trkpt>
      <trkpt lat="43.18153" lon="6.50005">
        <ele>493.2</ele>
        <time>2024-02-04T12:20:28Z</time>
      </trkpt>
      <trkpt lat="43.18153" lon="6.50005">
        <ele>493.3</ele>
        <time>2024-02-04T12:20:29Z</time>
      </trkpt>
      <trkpt lat="43.18153" lon="6.50005">
        <ele>493.3</ele>
        <time>2024-02-04T12:20:30Z</time>
      </trkpt>
      <trkpt lat="43.18153" lon="6.50005">
        <ele>493.4</ele>
        <time>2024-02-04T12:20:31Z</time>
      </trkpt>
      <trkpt lat="43.18154" lon="6.50005">
        <ele>493.3</ele>
        <time>2024-02-04T12:20:32Z</time>
      </trkpt>
      <trkpt lat="43.18154" lon="6.50005">
        <ele>493.3</ele>
        <time>2024-02-04T12:20:33Z</time>
      </trkpt>
      <trkpt lat="43.18154" lon="6.50005">
        <ele>493.3</ele>
        <time>2024-02-04T12:20:34Z</time>
      </trkpt>
      <trkpt lat="43.18153" lon="6.50005">
        <ele>493.4</ele>
        <time>2024-02-04T12:20:35Z</time>
      </trkpt>
      <trkpt lat="43.18153" lon="6.50005">
        <ele>493.3</ele>
        <time>2024-02-04T12:20:36Z</time>
      </trkpt>
      <trkpt lat="43.18153" lon="6.50006">
        <ele>493.2</ele>
        <time>2024-02-04T12:20:37Z</time>
      </trkpt>
      <trkpt lat="43.18153" lon="6.50006">
        <ele>493.2</ele>
        <time>2024-02-04T12:20:38Z</time>
      </trkpt>
      <trkpt lat="43.18154" lon="6.50006">
        <ele>493.2</ele>
        <time>2024-02-04T12:20:39Z</time>
      </trkpt>
      <trkpt lat="43.18154" lon="6.50006">
        <ele>493.1</ele>
        <time>2024-02-04T12:20:40Z</time>
      </trkpt>
      <trkpt lat="43.18154" lon="6.50006">
        <ele>493.1</ele>
        <time>2024-02-04T12:20:41Z</time>
      </trkpt>
      <trkpt lat="43.18154" lon="6.50006">
        <ele>493.1</ele>
        <time>2024-02-04T12:20:42Z</time>
      </trkpt>
      <trkpt lat="43.18154" lon="6.50006">
        <ele>493.1</ele>
        <time>2024-02-04T12:20:43Z</time>
      </trkpt>
      <trkpt lat="43.18154" lon="6.50006">
        <ele>493.1</ele>
        <time>2024-02-04T12:20:44Z</time>
      </trkpt>
      <trkpt lat="43.18154" lon="6.50006">
        <ele>493.2</ele>
        <time>2024-02-04T12:20:45Z</time>
      </trkpt>
      <trkpt lat="43.18154" lon="6.50006">
        <ele>493.3</ele>
        <time>2024-02-04T12:20:46Z</time>
      </trkpt>
      <trkpt lat="43.18154" lon="6.50006">
        <ele>493.3</ele>
        <time>2024-02-04T12:20:47Z</time>
      </trkpt>
      <trkpt lat="43.18154" lon="6.50006">
        <ele>493.4</ele>
        <time>2024-02-04T12:20:48Z</time>
      </trkpt>
      <trkpt lat="43.18154" lon="6.50006">
        <ele>493.4</ele>
        <time>2024-02-04T12:20:49Z</time>
      </trkpt>
      <trkpt lat="43.18154" lon="6.50006">
        <ele>493.5</ele>
        <time>2024-02-04T12:20:50Z</time>
      </trkpt>
      <trkpt lat="43.18154" lon="6.50006">
        <ele>493.5</ele>
        <time>2024-02-04T12:20:51Z</time>
      </trkpt>
      <trkpt lat="43.18154" lon="6.50006">
        <ele>493.6</ele>
        <time>2024-02-04T12:20:52Z</time>
      </trkpt>
      <trkpt lat="43.18154" lon="6.50006">
        <ele>493.6</ele>
        <time>2024-02-04T12:20:53Z</time>
      </trkpt>
      <trkpt lat="43.18154" lon="6.50006">
        <ele>493.6</ele>
        <time>2024-02-04T12:20:54Z</time>
      </trkpt>
      <trkpt lat="43.18154" lon="6.50006">
        <ele>493.6</ele>
        <time>2024-02-04T12:20:55Z</time>
      </trkpt>
      <trkpt lat="43.18154" lon="6.50006">
        <ele>493.6</ele>
        <time>2024-02-04T12:20:56Z</time>
      </trkpt>
      <trkpt lat="43.18154" lon="6.50006">
        <ele>493.6</ele>
        <time>2024-02-04T12:20:57Z</time>
      </trkpt>
      <trkpt lat="43.18154" lon="6.50006">
        <ele>493.6</ele>
        <time>2024-02-04T12:20:58Z</time>
      </trkpt>
      <trkpt lat="43.18154" lon="6.50006">
        <ele>493.5</ele>
        <time>2024-02-04T12:20:59Z</time>
      </trkpt>
      <trkpt lat="43.18154" lon="6.50006">
        <ele>493.5</ele>
        <time>2024-02-04T12:21:00Z</time>
      </trkpt>
      <trkpt lat="43.18154" lon="6.50006">
        <ele>493.4</ele>
        <time>2024-02-04T12:21:01Z</time>
      </trkpt>
      <trkpt lat="43.18154" lon="6.50006">
        <ele>493.4</ele>
        <time>2024-02-04T12:21:02Z</time>
      </trkpt>
      <trkpt lat="43.18154" lon="6.50006">
        <ele>493.4</ele>
        <time>2024-02-04T12:21:03Z</time>
      </trkpt>
      <trkpt lat="43.18154" lon="6.50006">
        <ele>493.4</ele>
        <time>2024-02-04T12:21:04Z</time>
      </trkpt>
      <trkpt lat="43.18154" lon="6.50006">
        <ele>493.4</ele>
        <time>2024-02-04T12:21:05Z</time>
      </trkpt>
      <trkpt lat="43.18154" lon="6.50006">
        <ele>493.3</ele>
        <time>2024-02-04T12:21:06Z</time>
      </trkpt>
      <trkpt lat="43.18154" lon="6.50006">
        <ele>493.2</ele>
        <time>2024-02-04T12:21:07Z</time>
      </trkpt>
      <trkpt lat="43.18154" lon="6.50006">
        <ele>493.1</ele>
        <time>2024-02-04T12:21:08Z</time>
      </trkpt>
      <trkpt lat="43.18154" lon="6.50006">
        <ele>493</ele>
        <time>2024-02-04T12:21:09Z</time>
      </trkpt>
      <trkpt lat="43.18154" lon="6.50006">
        <ele>492.9</ele>
        <time>2024-02-04T12:21:10Z</time>
      </trkpt>
      <trkpt lat="43.18154" lon="6.50006">
        <ele>493</ele>
        <time>2024-02-04T12:21:11Z</time>
      </trkpt>
      <trkpt lat="43.18154" lon="6.50006">
        <ele>493</ele>
        <time>2024-02-04T12:21:12Z</time>
      </trkpt>
      <trkpt lat="43.18154" lon="6.50006">
        <ele>493</ele>
        <time>2024-02-04T12:21:13Z</time>
      </trkpt>
      <trkpt lat="43.18154" lon="6.50006">
        <ele>493</ele>
        <time>2024-02-04T12:21:14Z</time>
      </trkpt>
      <trkpt lat="43.18154" lon="6.50006">
        <ele>493</ele>
        <time>2024-02-04T12:21:15Z</time>
      </trkpt>
      <trkpt lat="43.18154" lon="6.50006">
        <ele>493</ele>
        <time>2024-02-04T12:21:16Z</time>
      </trkpt>
      <trkpt lat="43.18154" lon="6.50006">
        <ele>493.1</ele>
        <time>2024-02-04T12:21:17Z</time>
      </trkpt>
      <trkpt lat="43.18154" lon="6.50006">
        <ele>493</ele>
        <time>2024-02-04T12:21:18Z</time>
      </trkpt>
      <trkpt lat="43.18154" lon="6.50006">
        <ele>493</ele>
        <time>2024-02-04T12:21:19Z</time>
      </trkpt>
      <trkpt lat="43.18154" lon="6.50006">
        <ele>493</ele>
        <time>2024-02-04T12:21:20Z</time>
      </trkpt>
      <trkpt lat="43.18154" lon="6.50006">
        <ele>492.9</ele>
        <time>2024-02-04T12:21:21Z</time>
      </trkpt>
      <trkpt lat="43.18154" lon="6.50006">
        <ele>492.9</ele>
        <time>2024-02-04T12:21:22Z</time>
      </trkpt>
      <trkpt lat="43.18154" lon="6.50006">
        <ele>492.9</ele>
        <time>2024-02-04T12:21:23Z</time>
      </trkpt>
      <trkpt lat="43.18154" lon="6.50006">
        <ele>492.9</ele>
        <time>2024-02-04T12:21:24Z</time>
      </trkpt>
      <trkpt lat="43.18154" lon="6.50006">
        <ele>492.9</ele>
        <time>2024-02-04T12:21:25Z</time>
      </trkpt>
      <trkpt lat="43.18154" lon="6.50006">
        <ele>493</ele>
        <time>2024-02-04T12:21:26Z</time>
      </trkpt>
      <trkpt lat="43.18154" lon="6.50006">
        <ele>493</ele>
        <time>2024-02-04T12:21:27Z</time>
      </trkpt>
      <trkpt lat="43.18154" lon="6.50006">
        <ele>493.1</ele>
        <time>2024-02-04T12:21:28Z</time>
      </trkpt>
      <trkpt lat="43.18154" lon="6.50006">
        <ele>493.1</ele>
        <time>2024-02-04T12:21:29Z</time>
      </trkpt>
      <trkpt lat="43.18154" lon="6.50006">
        <ele>493.3</ele>
        <time>2024-02-04T12:21:30Z</time>
      </trkpt>
      <trkpt lat="43.18154" lon="6.50006">
        <ele>493.3</ele>
        <time>2024-02-04T12:21:31Z</time>
      </trkpt>
      <trkpt lat="43.18154" lon="6.50006">
        <ele>493.3</ele>
        <time>2024-02-04T12:21:32Z</time>
      </trkpt>
      <trkpt lat="43.18154" lon="6.50007">
        <ele>493.3</ele>
        <time>2024-02-04T12:21:33Z</time>
      </trkpt>
      <trkpt lat="43.18154" lon="6.50007">
        <ele>493.2</ele>
        <time>2024-02-04T12:21:34Z</time>
      </trkpt>
      <trkpt lat="43.18154" lon="6.50007">
        <ele>493.1</ele>
        <time>2024-02-04T12:21:35Z</time>
      </trkpt>
      <trkpt lat="43.18154" lon="6.50006">
        <ele>493.1</ele>
        <time>2024-02-04T12:21:36Z</time>
      </trkpt>
      <trkpt lat="43.18154" lon="6.50006">
        <ele>493.1</ele>
        <time>2024-02-04T12:21:37Z</time>
      </trkpt>
      <trkpt lat="43.18154" lon="6.50006">
        <ele>493.2</ele>
        <time>2024-02-04T12:21:38Z</time>
      </trkpt>
      <trkpt lat="43.18154" lon="6.50006">
        <ele>493.2</ele>
        <time>2024-02-04T12:21:39Z</time>
      </trkpt>
      <trkpt lat="43.18154" lon="6.50006">
        <ele>493.2</ele>
        <time>2024-02-04T12:21:40Z</time>
      </trkpt>
      <trkpt lat="43.18154" lon="6.50006">
        <ele>493.1</ele>
        <time>2024-02-04T12:21:41Z</time>
      </trkpt>
      <trkpt lat="43.18154" lon="6.50006">
        <ele>493</ele>
        <time>2024-02-04T12:21:42Z</time>
      </trkpt>
      <trkpt lat="43.18154" lon="6.50006">
        <ele>493</ele>
        <time>2024-02-04T12:21:43Z</time>
      </trkpt>
      <trkpt lat="43.18154" lon="6.50006">
        <ele>493</ele>
        <time>2024-02-04T12:21:44Z</time>
      </trkpt>
      <trkpt lat="43.18154" lon="6.50006">
        <ele>493</ele>
        <time>2024-02-04T12:21:45Z</time>
      </trkpt>
      <trkpt lat="43.18155" lon="6.50006">
        <ele>492.8</ele>
        <time>2024-02-04T12:21:46Z</time>
      </trkpt>
      <trkpt lat="43.18155" lon="6.50005">
        <ele>492.7</ele>
        <time>2024-02-04T12:21:47Z</time>
      </trkpt>
      <trkpt lat="43.18155" lon="6.50005">
        <ele>492.5</ele>
        <time>2024-02-04T12:21:48Z</time>
      </trkpt>
      <trkpt lat="43.18155" lon="6.50004">
        <ele>492.3</ele>
        <time>2024-02-04T12:21:49Z</time>
      </trkpt>
      <trkpt lat="43.18155" lon="6.50004">
        <ele>492.2</ele>
        <time>2024-02-04T12:21:50Z</time>
      </trkpt>
      <trkpt lat="43.18156" lon="6.50004">
        <ele>492.1</ele>
        <time>2024-02-04T12:21:51Z</time>
      </trkpt>
      <trkpt lat="43.18156" lon="6.50004">
        <ele>492</ele>
        <time>2024-02-04T12:21:52Z</time>
      </trkpt>
      <trkpt lat="43.18156" lon="6.50003">
        <ele>491.9</ele>
        <time>2024-02-04T12:21:53Z</time>
      </trkpt>
      <trkpt lat="43.18156" lon="6.50003">
        <ele>491.9</ele>
        <time>2024-02-04T12:21:54Z</time>
      </trkpt>
      <trkpt lat="43.18156" lon="6.50002">
        <ele>491.8</ele>
        <time>2024-02-04T12:21:55Z</time>
      </trkpt>
      <trkpt lat="43.18156" lon="6.50002">
        <ele>491.8</ele>
        <time>2024-02-04T12:21:56Z</time>
      </trkpt>
      <trkpt lat="43.18156" lon="6.50001">
        <ele>491.8</ele>
        <time>2024-02-04T12:21:57Z</time>
      </trkpt>
      <trkpt lat="43.18156" lon="6.50001">
        <ele>491.8</ele>
        <time>2024-02-04T12:21:58Z</time>
      </trkpt>
      <trkpt lat="43.18156" lon="6.50001">
        <ele>491.9</ele>
        <time>2024-02-04T12:21:59Z</time>
      </trkpt>
      <trkpt lat="43.18156" lon="6.50001">
        <ele>491.9</ele>
        <time>2024-02-04T12:22:00Z</time>
      </trkpt>
      <trkpt lat="43.18156" lon="6.5">
        <ele>491.9</ele>
        <time>2024-02-04T12:22:01Z</time>
      </trkpt>
      <trkpt lat="43.18156" lon="6.5">
        <ele>491.9</ele>
        <time>2024-02-04T12:22:02Z</time>
      </trkpt>
      <trkpt lat="43.18156" lon="6.49999">
        <ele>492</ele>
        <time>2024-02-04T12:22:03Z</time>
      </trkpt>
      <trkpt lat="43.18156" lon="6.49998">
        <ele>492.1</ele>
        <time>2024-02-04T12:22:04Z</time>
      </trkpt>
      <trkpt lat="43.18157" lon="6.49997">
        <ele>492.2</ele>
        <time>2024-02-04T12:22:05Z</time>
      </trkpt>
      <trkpt lat="43.18157" lon="6.49997">
        <ele>492.3</ele>
        <time>2024-02-04T12:22:06Z</time>
      </trkpt>
      <trkpt lat="43.18157" lon="6.49997">
        <ele>492.4</ele>
        <time>2024-02-04T12:22:07Z</time>
      </trkpt>
      <trkpt lat="43.18158" lon="6.49996">
        <ele>492.5</ele>
        <time>2024-02-04T12:22:08Z</time>
      </trkpt>
      <trkpt lat="43.18158" lon="6.49996">
        <ele>492.6</ele>
        <time>2024-02-04T12:22:09Z</time>
      </trkpt>
      <trkpt lat="43.18158" lon="6.49996">
        <ele>492.8</ele>
        <time>2024-02-04T12:22:10Z</time>
      </trkpt>
      <trkpt lat="43.18157" lon="6.49996">
        <ele>492.9</ele>
        <time>2024-02-04T12:22:11Z</time>
      </trkpt>
      <trkpt lat="43.18157" lon="6.49996">
        <ele>493.1</ele>
        <time>2024-02-04T12:22:12Z</time>
      </trkpt>
      <trkpt lat="43.18157" lon="6.49995">
        <ele>493.2</ele>
        <time>2024-02-04T12:22:13Z</time>
      </trkpt>
      <trkpt lat="43.18157" lon="6.49995">
        <ele>493.5</ele>
        <time>2024-02-04T12:22:14Z</time>
      </trkpt>
      <trkpt lat="43.18157" lon="6.49995">
        <ele>493.6</ele>
        <time>2024-02-04T12:22:15Z</time>
      </trkpt>
      <trkpt lat="43.18157" lon="6.49995">
        <ele>493.8</ele>
        <time>2024-02-04T12:22:16Z</time>
      </trkpt>
      <trkpt lat="43.18157" lon="6.49995">
        <ele>493.9</ele>
        <time>2024-02-04T12:22:17Z</time>
      </trkpt>
      <trkpt lat="43.18157" lon="6.49995">
        <ele>493.9</ele>
        <time>2024-02-04T12:22:18Z</time>
      </trkpt>
      <trkpt lat="43.18157" lon="6.49995">
        <ele>493.9</ele>
        <time>2024-02-04T12:22:19Z</time>
      </trkpt>
      <trkpt lat="43.18157" lon="6.49994">
        <ele>494</ele>
        <time>2024-02-04T12:22:20Z</time>
      </trkpt>
      <trkpt lat="43.18157" lon="6.49993">
        <ele>494</ele>
        <time>2024-02-04T12:22:21Z</time>
      </trkpt>
      <trkpt lat="43.18157" lon="6.49993">
        <ele>494</ele>
        <time>2024-02-04T12:22:22Z</time>
      </trkpt>
      <trkpt lat="43.18157" lon="6.49993">
        <ele>494</ele>
        <time>2024-02-04T12:22:23Z</time>
      </trkpt>
      <trkpt lat="43.18157" lon="6.49993">
        <ele>494</ele>
        <time>2024-02-04T12:22:24Z</time>
      </trkpt>
      <trkpt lat="43.18157" lon="6.49992">
        <ele>494</ele>
        <time>2024-02-04T12:22:25Z</time>
      </trkpt>
      <trkpt lat="43.18157" lon="6.49992">
        <ele>494</ele>
        <time>2024-02-04T12:22:26Z</time>
      </trkpt>
      <trkpt lat="43.18157" lon="6.49992">
        <ele>494.1</ele>
        <time>2024-02-04T12:22:27Z</time>
      </trkpt>
      <trkpt lat="43.18157" lon="6.49992">
        <ele>494.2</ele>
        <time>2024-02-04T12:22:28Z</time>
      </trkpt>
      <trkpt lat="43.18157" lon="6.49992">
        <ele>494.3</ele>
        <time>2024-02-04T12:22:29Z</time>
      </trkpt>
      <trkpt lat="43.18157" lon="6.49991">
        <ele>494.3</ele>
        <time>2024-02-04T12:22:30Z</time>
      </trkpt>
      <trkpt lat="43.18157" lon="6.49991">
        <ele>494.4</ele>
        <time>2024-02-04T12:22:31Z</time>
      </trkpt>
      <trkpt lat="43.18157" lon="6.49991">
        <ele>494.4</ele>
        <time>2024-02-04T12:22:32Z</time>
      </trkpt>
      <trkpt lat="43.18157" lon="6.49991">
        <ele>494.4</ele>
        <time>2024-02-04T12:22:33Z</time>
      </trkpt>
      <trkpt lat="43.18157" lon="6.49991">
        <ele>494.5</ele>
        <time>2024-02-04T12:22:34Z</time>
      </trkpt>
      <trkpt lat="43.18157" lon="6.49991">
        <ele>494.5</ele>
        <time>2024-02-04T12:22:35Z</time>
      </trkpt>
      <trkpt lat="43.18157" lon="6.49992">
        <ele>494.5</ele>
        <time>2024-02-04T12:22:36Z</time>
      </trkpt>
      <trkpt lat="43.18157" lon="6.49992">
        <ele>494.5</ele>
        <time>2024-02-04T12:22:37Z</time>
      </trkpt>
      <trkpt lat="43.18157" lon="6.49992">
        <ele>494.6</ele>
        <time>2024-02-04T12:22:38Z</time>
      </trkpt>
      <trkpt lat="43.18157" lon="6.49992">
        <ele>494.6</ele>
        <time>2024-02-04T12:22:39Z</time>
      </trkpt>
      <trkpt lat="43.18157" lon="6.49992">
        <ele>494.6</ele>
        <time>2024-02-04T12:22:40Z</time>
      </trkpt>
      <trkpt lat="43.18157" lon="6.49992">
        <ele>494.6</ele>
        <time>2024-02-04T12:22:41Z</time>
      </trkpt>
      <trkpt lat="43.18157" lon="6.49992">
        <ele>494.7</ele>
        <time>2024-02-04T12:22:42Z</time>
      </trkpt>
      <trkpt lat="43.18157" lon="6.49993">
        <ele>494.7</ele>
        <time>2024-02-04T12:22:43Z</time>
      </trkpt>
      <trkpt lat="43.18157" lon="6.49993">
        <ele>494.7</ele>
        <time>2024-02-04T12:22:44Z</time>
      </trkpt>
      <trkpt lat="43.18157" lon="6.49993">
        <ele>494.8</ele>
        <time>2024-02-04T12:22:45Z</time>
      </trkpt>
      <trkpt lat="43.18156" lon="6.49993">
        <ele>494.8</ele>
        <time>2024-02-04T12:22:46Z</time>
      </trkpt>
      <trkpt lat="43.18156" lon="6.49993">
        <ele>494.8</ele>
        <time>2024-02-04T12:22:47Z</time>
      </trkpt>
      <trkpt lat="43.18156" lon="6.49993">
        <ele>494.8</ele>
        <time>2024-02-04T12:22:48Z</time>
      </trkpt>
      <trkpt lat="43.18156" lon="6.49993">
        <ele>494.8</ele>
        <time>2024-02-04T12:22:49Z</time>
      </trkpt>
      <trkpt lat="43.18156" lon="6.49993">
        <ele>494.8</ele>
        <time>2024-02-04T12:22:50Z</time>
      </trkpt>
      <trkpt lat="43.18156" lon="6.49993">
        <ele>494.7</ele>
        <time>2024-02-04T12:22:51Z</time>
      </trkpt>
      <trkpt lat="43.18156" lon="6.49993">
        <ele>494.7</ele>
        <time>2024-02-04T12:22:52Z</time>
      </trkpt>
      <trkpt lat="43.18156" lon="6.49994">
        <ele>494.7</ele>
        <time>2024-02-04T12:22:53Z</time>
      </trkpt>
      <trkpt lat="43.18156" lon="6.49994">
        <ele>494.7</ele>
        <time>2024-02-04T12:22:54Z</time>
      </trkpt>
      <trkpt lat="43.18156" lon="6.49994">
        <ele>494.7</ele>
        <time>2024-02-04T12:22:55Z</time>
      </trkpt>
      <trkpt lat="43.18155" lon="6.49994">
        <ele>494.7</ele>
        <time>2024-02-04T12:22:56Z</time>
      </trkpt>
      <trkpt lat="43.18155" lon="6.49993">
        <ele>494.6</ele>
        <time>2024-02-04T12:22:57Z</time>
      </trkpt>
      <trkpt lat="43.18155" lon="6.49993">
        <ele>494.6</ele>
        <time>2024-02-04T12:22:58Z</time>
      </trkpt>
      <trkpt lat="43.18155" lon="6.49993">
        <ele>494.6</ele>
        <time>2024-02-04T12:22:59Z</time>
      </trkpt>
      <trkpt lat="43.18155" lon="6.49993">
        <ele>494.6</ele>
        <time>2024-02-04T12:23:00Z</time>
      </trkpt>
      <trkpt lat="43.18155" lon="6.49993">
        <ele>494.7</ele>
        <time>2024-02-04T12:23:01Z</time>
      </trkpt>
      <trkpt lat="43.18155" lon="6.49993">
        <ele>494.8</ele>
        <time>2024-02-04T12:23:02Z</time>
      </trkpt>
      <trkpt lat="43.18155" lon="6.49994">
        <ele>494.8</ele>
        <time>2024-02-04T12:23:03Z</time>
      </trkpt>
      <trkpt lat="43.18155" lon="6.49994">
        <ele>494.9</ele>
        <time>2024-02-04T12:23:04Z</time>
      </trkpt>
      <trkpt lat="43.18155" lon="6.49994">
        <ele>494.9</ele>
        <time>2024-02-04T12:23:05Z</time>
      </trkpt>
      <trkpt lat="43.18155" lon="6.49994">
        <ele>494.9</ele>
        <time>2024-02-04T12:23:06Z</time>
      </trkpt>
      <trkpt lat="43.18155" lon="6.49994">
        <ele>494.8</ele>
        <time>2024-02-04T12:23:07Z</time>
      </trkpt>
      <trkpt lat="43.18155" lon="6.49994">
        <ele>494.8</ele>
        <time>2024-02-04T12:23:08Z</time>
      </trkpt>
      <trkpt lat="43.18155" lon="6.49994">
        <ele>494.8</ele>
        <time>2024-02-04T12:23:09Z</time>
      </trkpt>
      <trkpt lat="43.18155" lon="6.49994">
        <ele>494.8</ele>
        <time>2024-02-04T12:23:10Z</time>
      </trkpt>
      <trkpt lat="43.18155" lon="6.49994">
        <ele>494.8</ele>
        <time>2024-02-04T12:23:11Z</time>
      </trkpt>
      <trkpt lat="43.18154" lon="6.49995">
        <ele>494.8</ele>
        <time>2024-02-04T12:23:12Z</time>
      </trkpt>
      <trkpt lat="43.18154" lon="6.49995">
        <ele>494.8</ele>
        <time>2024-02-04T12:23:13Z</time>
      </trkpt>
      <trkpt lat="43.18154" lon="6.49995">
        <ele>494.7</ele>
        <time>2024-02-04T12:23:14Z</time>
      </trkpt>
      <trkpt lat="43.18154" lon="6.49995">
        <ele>494.7</ele>
        <time>2024-02-04T12:23:15Z</time>
      </trkpt>
      <trkpt lat="43.18154" lon="6.49995">
        <ele>494.7</ele>
        <time>2024-02-04T12:23:16Z</time>
      </trkpt>
      <trkpt lat="43.18155" lon="6.49996">
        <ele>494.7</ele>
        <time>2024-02-04T12:23:17Z</time>
      </trkpt>
      <trkpt lat="43.18155" lon="6.49996">
        <ele>494.6</ele>
        <time>2024-02-04T12:23:18Z</time>
      </trkpt>
      <trkpt lat="43.18155" lon="6.49996">
        <ele>494.6</ele>
        <time>2024-02-04T12:23:19Z</time>
      </trkpt>
      <trkpt lat="43.18155" lon="6.49996">
        <ele>494.7</ele>
        <time>2024-02-04T12:23:20Z</time>
      </trkpt>
      <trkpt lat="43.18155" lon="6.49996">
        <ele>494.7</ele>
        <time>2024-02-04T12:23:21Z</time>
      </trkpt>
      <trkpt lat="43.18155" lon="6.49995">
        <ele>494.8</ele>
        <time>2024-02-04T12:23:22Z</time>
      </trkpt>
      <trkpt lat="43.18155" lon="6.49995">
        <ele>494.8</ele>
        <time>2024-02-04T12:23:23Z</time>
      </trkpt>
      <trkpt lat="43.18155" lon="6.49995">
        <ele>494.7</ele>
        <time>2024-02-04T12:23:24Z</time>
      </trkpt>
      <trkpt lat="43.18155" lon="6.49995">
        <ele>494.7</ele>
        <time>2024-02-04T12:23:25Z</time>
      </trkpt>
      <trkpt lat="43.18155" lon="6.49995">
        <ele>494.7</ele>
        <time>2024-02-04T12:23:26Z</time>
      </trkpt>
      <trkpt lat="43.18156" lon="6.49995">
        <ele>494.7</ele>
        <time>2024-02-04T12:23:27Z</time>
      </trkpt>
      <trkpt lat="43.18156" lon="6.49995">
        <ele>494.7</ele>
        <time>2024-02-04T12:23:28Z</time>
      </trkpt>
      <trkpt lat="43.18156" lon="6.49995">
        <ele>494.8</ele>
        <time>2024-02-04T12:23:29Z</time>
      </trkpt>
      <trkpt lat="43.18156" lon="6.49995">
        <ele>494.8</ele>
        <time>2024-02-04T12:23:30Z</time>
      </trkpt>
      <trkpt lat="43.18156" lon="6.49995">
        <ele>494.8</ele>
        <time>2024-02-04T12:23:31Z</time>
      </trkpt>
      <trkpt lat="43.18156" lon="6.49995">
        <ele>494.7</ele>
        <time>2024-02-04T12:23:32Z</time>
      </trkpt>
      <trkpt lat="43.18156" lon="6.49995">
        <ele>494.8</ele>
        <time>2024-02-04T12:23:33Z</time>
      </trkpt>
      <trkpt lat="43.18156" lon="6.49995">
        <ele>494.8</ele>
        <time>2024-02-04T12:23:34Z</time>
      </trkpt>
      <trkpt lat="43.18156" lon="6.49996">
        <ele>494.8</ele>
        <time>2024-02-04T12:23:35Z</time>
      </trkpt>
      <trkpt lat="43.18157" lon="6.49996">
        <ele>494.8</ele>
        <time>2024-02-04T12:23:36Z</time>
      </trkpt>
      <trkpt lat="43.18157" lon="6.49996">
        <ele>494.7</ele>
        <time>2024-02-04T12:23:37Z</time>
      </trkpt>
      <trkpt lat="43.18157" lon="6.49996">
        <ele>494.7</ele>
        <time>2024-02-04T12:23:38Z</time>
      </trkpt>
      <trkpt lat="43.18157" lon="6.49996">
        <ele>494.6</ele>
        <time>2024-02-04T12:23:39Z</time>
      </trkpt>
      <trkpt lat="43.18157" lon="6.49996">
        <ele>494.6</ele>
        <time>2024-02-04T12:23:40Z</time>
      </trkpt>
      <trkpt lat="43.18157" lon="6.49996">
        <ele>494.5</ele>
        <time>2024-02-04T12:23:41Z</time>
      </trkpt>
      <trkpt lat="43.18158" lon="6.49996">
        <ele>494.5</ele>
        <time>2024-02-04T12:23:42Z</time>
      </trkpt>
      <trkpt lat="43.18158" lon="6.49996">
        <ele>494.5</ele>
        <time>2024-02-04T12:23:43Z</time>
      </trkpt>
      <trkpt lat="43.18158" lon="6.49996">
        <ele>494.5</ele>
        <time>2024-02-04T12:23:44Z</time>
      </trkpt>
      <trkpt lat="43.18158" lon="6.49996">
        <ele>494.5</ele>
        <time>2024-02-04T12:23:45Z</time>
      </trkpt>
      <trkpt lat="43.18158" lon="6.49996">
        <ele>494.5</ele>
        <time>2024-02-04T12:23:46Z</time>
      </trkpt>
      <trkpt lat="43.18158" lon="6.49996">
        <ele>494.5</ele>
        <time>2024-02-04T12:23:47Z</time>
      </trkpt>
      <trkpt lat="43.18158" lon="6.49996">
        <ele>494.5</ele>
        <time>2024-02-04T12:23:48Z</time>
      </trkpt>
      <trkpt lat="43.18158" lon="6.49996">
        <ele>494.5</ele>
        <time>2024-02-04T12:23:49Z</time>
      </trkpt>
      <trkpt lat="43.18158" lon="6.49996">
        <ele>494.6</ele>
        <time>2024-02-04T12:23:50Z</time>
      </trkpt>
      <trkpt lat="43.18158" lon="6.49996">
        <ele>494.7</ele>
        <time>2024-02-04T12:23:51Z</time>
      </trkpt>
      <trkpt lat="43.18158" lon="6.49996">
        <ele>494.7</ele>
        <time>2024-02-04T12:23:52Z</time>
      </trkpt>
      <trkpt lat="43.18158" lon="6.49996">
        <ele>494.7</ele>
        <time>2024-02-04T12:23:53Z</time>
      </trkpt>
      <trkpt lat="43.18158" lon="6.49996">
        <ele>494.7</ele>
        <time>2024-02-04T12:23:54Z</time>
      </trkpt>
      <trkpt lat="43.18158" lon="6.49996">
        <ele>494.7</ele>
        <time>2024-02-04T12:23:55Z</time>
      </trkpt>
      <trkpt lat="43.18159" lon="6.49996">
        <ele>494.7</ele>
        <time>2024-02-04T12:23:56Z</time>
      </trkpt>
      <trkpt lat="43.18159" lon="6.49996">
        <ele>494.7</ele>
        <time>2024-02-04T12:23:57Z</time>
      </trkpt>
      <trkpt lat="43.18159" lon="6.49996">
        <ele>494.7</ele>
        <time>2024-02-04T12:23:58Z</time>
      </trkpt>
      <trkpt lat="43.18159" lon="6.49996">
        <ele>494.7</ele>
        <time>2024-02-04T12:23:59Z</time>
      </trkpt>
      <trkpt lat="43.18159" lon="6.49996">
        <ele>494.7</ele>
        <time>2024-02-04T12:24:00Z</time>
      </trkpt>
      <trkpt lat="43.18159" lon="6.49996">
        <ele>494.8</ele>
        <time>2024-02-04T12:24:01Z</time>
      </trkpt>
      <trkpt lat="43.18159" lon="6.49996">
        <ele>494.8</ele>
        <time>2024-02-04T12:24:02Z</time>
      </trkpt>
      <trkpt lat="43.18159" lon="6.49996">
        <ele>494.9</ele>
        <time>2024-02-04T12:24:03Z</time>
      </trkpt>
      <trkpt lat="43.18159" lon="6.49996">
        <ele>494.9</ele>
        <time>2024-02-04T12:24:04Z</time>
      </trkpt>
      <trkpt lat="43.18159" lon="6.49996">
        <ele>494.7</ele>
        <time>2024-02-04T12:24:05Z</time>
      </trkpt>
      <trkpt lat="43.18159" lon="6.49996">
        <ele>494.8</ele>
        <time>2024-02-04T12:24:06Z</time>
      </trkpt>
      <trkpt lat="43.18159" lon="6.49996">
        <ele>494.8</ele>
        <time>2024-02-04T12:24:07Z</time>
      </trkpt>
      <trkpt lat="43.18159" lon="6.49996">
        <ele>494.8</ele>
        <time>2024-02-04T12:24:08Z</time>
      </trkpt>
      <trkpt lat="43.18159" lon="6.49996">
        <ele>494.8</ele>
        <time>2024-02-04T12:24:09Z</time>
      </trkpt>
      <trkpt lat="43.18159" lon="6.49996">
        <ele>494.8</ele>
        <time>2024-02-04T12:24:10Z</time>
      </trkpt>
      <trkpt lat="43.18159" lon="6.49996">
        <ele>494.8</ele>
        <time>2024-02-04T12:24:11Z</time>
      </trkpt>
      <trkpt lat="43.18159" lon="6.49995">
        <ele>494.7</ele>
        <time>2024-02-04T12:24:12Z</time>
      </trkpt>
      <trkpt lat="43.18159" lon="6.49995">
        <ele>494.7</ele>
        <time>2024-02-04T12:24:13Z</time>
      </trkpt>
      <trkpt lat="43.18159" lon="6.49995">
        <ele>494.7</ele>
        <time>2024-02-04T12:24:14Z</time>
      </trkpt>
      <trkpt lat="43.18159" lon="6.49996">
        <ele>494.7</ele>
        <time>2024-02-04T12:24:15Z</time>
      </trkpt>
      <trkpt lat="43.18159" lon="6.49996">
        <ele>494.8</ele>
        <time>2024-02-04T12:24:16Z</time>
      </trkpt>
      <trkpt lat="43.18159" lon="6.49996">
        <ele>494.8</ele>
        <time>2024-02-04T12:24:17Z</time>
      </trkpt>
      <trkpt lat="43.18159" lon="6.49996">
        <ele>494.8</ele>
        <time>2024-02-04T12:24:18Z</time>
      </trkpt>
      <trkpt lat="43.18159" lon="6.49996">
        <ele>494.7</ele>
        <time>2024-02-04T12:24:19Z</time>
      </trkpt>
      <trkpt lat="43.18159" lon="6.49996">
        <ele>494.6</ele>
        <time>2024-02-04T12:24:20Z</time>
      </trkpt>
      <trkpt lat="43.18159" lon="6.49995">
        <ele>494.6</ele>
        <time>2024-02-04T12:24:21Z</time>
      </trkpt>
      <trkpt lat="43.18159" lon="6.49995">
        <ele>494.6</ele>
        <time>2024-02-04T12:24:22Z</time>
      </trkpt>
      <trkpt lat="43.18159" lon="6.49995">
        <ele>494.6</ele>
        <time>2024-02-04T12:24:23Z</time>
      </trkpt>
      <trkpt lat="43.18159" lon="6.49995">
        <ele>494.7</ele>
        <time>2024-02-04T12:24:24Z</time>
      </trkpt>
      <trkpt lat="43.18159" lon="6.49995">
        <ele>494.7</ele>
        <time>2024-02-04T12:24:25Z</time>
      </trkpt>
      <trkpt lat="43.18159" lon="6.49995">
        <ele>494.8</ele>
        <time>2024-02-04T12:24:26Z</time>
      </trkpt>
      <trkpt lat="43.18159" lon="6.49995">
        <ele>494.8</ele>
        <time>2024-02-04T12:24:27Z</time>
      </trkpt>
      <trkpt lat="43.18159" lon="6.49995">
        <ele>494.8</ele>
        <time>2024-02-04T12:24:28Z</time>
      </trkpt>
      <trkpt lat="43.18159" lon="6.49995">
        <ele>494.8</ele>
        <time>2024-02-04T12:24:29Z</time>
      </trkpt>
      <trkpt lat="43.18159" lon="6.49995">
        <ele>494.8</ele>
        <time>2024-02-04T12:24:30Z</time>
      </trkpt>
      <trkpt lat="43.18159" lon="6.49995">
        <ele>494.7</ele>
        <time>2024-02-04T12:24:31Z</time>
      </trkpt>
      <trkpt lat="43.18159" lon="6.49995">
        <ele>494.6</ele>
        <time>2024-02-04T12:24:32Z</time>
      </trkpt>
      <trkpt lat="43.1816" lon="6.49995">
        <ele>494.6</ele>
        <time>2024-02-04T12:24:33Z</time>
      </trkpt>
      <trkpt lat="43.1816" lon="6.49995">
        <ele>494.6</ele>
        <time>2024-02-04T12:24:34Z</time>
      </trkpt>
      <trkpt lat="43.18159" lon="6.49995">
        <ele>494.6</ele>
        <time>2024-02-04T12:24:35Z</time>
      </trkpt>
      <trkpt lat="43.18159" lon="6.49995">
        <ele>494.6</ele>
        <time>2024-02-04T12:24:36Z</time>
      </trkpt>
      <trkpt lat="43.18159" lon="6.49995">
        <ele>494.5</ele>
        <time>2024-02-04T12:24:37Z</time>
      </trkpt>
      <trkpt lat="43.18159" lon="6.49995">
        <ele>494.4</ele>
        <time>2024-02-04T12:24:38Z</time>
      </trkpt>
      <trkpt lat="43.18159" lon="6.49995">
        <ele>494.4</ele>
        <time>2024-02-04T12:24:39Z</time>
      </trkpt>
      <trkpt lat="43.18159" lon="6.49995">
        <ele>494.3</ele>
        <time>2024-02-04T12:24:40Z</time>
      </trkpt>
      <trkpt lat="43.18159" lon="6.49996">
        <ele>494.3</ele>
        <time>2024-02-04T12:24:41Z</time>
      </trkpt>
      <trkpt lat="43.18159" lon="6.49996">
        <ele>494.4</ele>
        <time>2024-02-04T12:24:42Z</time>
      </trkpt>
      <trkpt lat="43.18159" lon="6.49996">
        <ele>494.4</ele>
        <time>2024-02-04T12:24:43Z</time>
      </trkpt>
      <trkpt lat="43.18159" lon="6.49996">
        <ele>494.5</ele>
        <time>2024-02-04T12:24:44Z</time>
      </trkpt>
      <trkpt lat="43.18159" lon="6.49996">
        <ele>494.5</ele>
        <time>2024-02-04T12:24:45Z</time>
      </trkpt>
      <trkpt lat="43.18159" lon="6.49996">
        <ele>494.5</ele>
        <time>2024-02-04T12:24:46Z</time>
      </trkpt>
      <trkpt lat="43.18159" lon="6.49996">
        <ele>494.5</ele>
        <time>2024-02-04T12:24:47Z</time>
      </trkpt>
      <trkpt lat="43.18159" lon="6.49996">
        <ele>494.4</ele>
        <time>2024-02-04T12:24:48Z</time>
      </trkpt>
      <trkpt lat="43.18159" lon="6.49996">
        <ele>494.5</ele>
        <time>2024-02-04T12:24:49Z</time>
      </trkpt>
      <trkpt lat="43.18159" lon="6.49997">
        <ele>494.5</ele>
        <time>2024-02-04T12:24:50Z</time>
      </trkpt>
      <trkpt lat="43.18159" lon="6.49997">
        <ele>494.4</ele>
        <time>2024-02-04T12:24:51Z</time>
      </trkpt>
      <trkpt lat="43.18159" lon="6.49997">
        <ele>494.4</ele>
        <time>2024-02-04T12:24:52Z</time>
      </trkpt>
      <trkpt lat="43.18159" lon="6.49997">
        <ele>494.4</ele>
        <time>2024-02-04T12:24:53Z</time>
      </trkpt>
      <trkpt lat="43.18159" lon="6.49996">
        <ele>494.5</ele>
        <time>2024-02-04T12:24:54Z</time>
      </trkpt>
      <trkpt lat="43.18159" lon="6.49996">
        <ele>494.5</ele>
        <time>2024-02-04T12:24:55Z</time>
      </trkpt>
      <trkpt lat="43.18159" lon="6.49996">
        <ele>494.4</ele>
        <time>2024-02-04T12:24:56Z</time>
      </trkpt>
      <trkpt lat="43.18159" lon="6.49996">
        <ele>494.4</ele>
        <time>2024-02-04T12:24:57Z</time>
      </trkpt>
      <trkpt lat="43.18159" lon="6.49996">
        <ele>494.4</ele>
        <time>2024-02-04T12:24:58Z</time>
      </trkpt>
      <trkpt lat="43.18159" lon="6.49995">
        <ele>494.3</ele>
        <time>2024-02-04T12:24:59Z</time>
      </trkpt>
      <trkpt lat="43.18159" lon="6.49995">
        <ele>494.3</ele>
        <time>2024-02-04T12:25:00Z</time>
      </trkpt>
      <trkpt lat="43.18159" lon="6.49994">
        <ele>494.1</ele>
        <time>2024-02-04T12:25:01Z</time>
      </trkpt>
      <trkpt lat="43.18158" lon="6.49994">
        <ele>494</ele>
        <time>2024-02-04T12:25:02Z</time>
      </trkpt>
      <trkpt lat="43.18159" lon="6.49993">
        <ele>493.9</ele>
        <time>2024-02-04T12:25:03Z</time>
      </trkpt>
      <trkpt lat="43.18159" lon="6.49993">
        <ele>493.9</ele>
        <time>2024-02-04T12:25:04Z</time>
      </trkpt>
      <trkpt lat="43.18159" lon="6.49993">
        <ele>493.9</ele>
        <time>2024-02-04T12:25:05Z</time>
      </trkpt>
      <trkpt lat="43.18159" lon="6.49992">
        <ele>493.9</ele>
        <time>2024-02-04T12:25:06Z</time>
      </trkpt>
      <trkpt lat="43.18159" lon="6.49992">
        <ele>493.9</ele>
        <time>2024-02-04T12:25:07Z</time>
      </trkpt>
      <trkpt lat="43.18159" lon="6.49991">
        <ele>493.8</ele>
        <time>2024-02-04T12:25:08Z</time>
      </trkpt>
      <trkpt lat="43.18159" lon="6.49991">
        <ele>493.7</ele>
        <time>2024-02-04T12:25:09Z</time>
      </trkpt>
      <trkpt lat="43.18159" lon="6.49991">
        <ele>493.7</ele>
        <time>2024-02-04T12:25:10Z</time>
      </trkpt>
      <trkpt lat="43.18159" lon="6.4999">
        <ele>493.6</ele>
        <time>2024-02-04T12:25:11Z</time>
      </trkpt>
      <trkpt lat="43.18158" lon="6.4999">
        <ele>493.6</ele>
        <time>2024-02-04T12:25:12Z</time>
      </trkpt>
      <trkpt lat="43.18158" lon="6.49989">
        <ele>493.5</ele>
        <time>2024-02-04T12:25:13Z</time>
      </trkpt>
      <trkpt lat="43.18158" lon="6.49989">
        <ele>493.4</ele>
        <time>2024-02-04T12:25:14Z</time>
      </trkpt>
      <trkpt lat="43.18158" lon="6.49988">
        <ele>493.4</ele>
        <time>2024-02-04T12:25:15Z</time>
      </trkpt>
      <trkpt lat="43.18158" lon="6.49988">
        <ele>493.4</ele>
        <time>2024-02-04T12:25:16Z</time>
      </trkpt>
      <trkpt lat="43.18158" lon="6.49988">
        <ele>493.4</ele>
        <time>2024-02-04T12:25:17Z</time>
      </trkpt>
      <trkpt lat="43.18158" lon="6.49988">
        <ele>493.4</ele>
        <time>2024-02-04T12:25:18Z</time>
      </trkpt>
      <trkpt lat="43.18157" lon="6.49988">
        <ele>493.4</ele>
        <time>2024-02-04T12:25:19Z</time>
      </trkpt>
      <trkpt lat="43.18157" lon="6.49988">
        <ele>493.4</ele>
        <time>2024-02-04T12:25:20Z</time>
      </trkpt>
      <trkpt lat="43.18157" lon="6.49988">
        <ele>493.5</ele>
        <time>2024-02-04T12:25:21Z</time>
      </trkpt>
      <trkpt lat="43.18157" lon="6.49988">
        <ele>493.5</ele>
        <time>2024-02-04T12:25:22Z</time>
      </trkpt>
      <trkpt lat="43.18157" lon="6.49988">
        <ele>493.5</ele>
        <time>2024-02-04T12:25:23Z</time>
      </trkpt>
      <trkpt lat="43.18157" lon="6.49987">
        <ele>493.6</ele>
        <time>2024-02-04T12:25:24Z</time>
      </trkpt>
      <trkpt lat="43.18157" lon="6.49988">
        <ele>493.6</ele>
        <time>2024-02-04T12:25:25Z</time>
      </trkpt>
      <trkpt lat="43.18156" lon="6.49988">
        <ele>493.6</ele>
        <time>2024-02-04T12:25:26Z</time>
      </trkpt>
      <trkpt lat="43.18155" lon="6.49989">
        <ele>493.6</ele>
        <time>2024-02-04T12:25:27Z</time>
      </trkpt>
      <trkpt lat="43.18155" lon="6.49989">
        <ele>493.5</ele>
        <time>2024-02-04T12:25:28Z</time>
      </trkpt>
      <trkpt lat="43.18154" lon="6.4999">
        <ele>493.4</ele>
        <time>2024-02-04T12:25:29Z</time>
      </trkpt>
      <trkpt lat="43.18153" lon="6.4999">
        <ele>493.4</ele>
        <time>2024-02-04T12:25:30Z</time>
      </trkpt>
      <trkpt lat="43.18153" lon="6.4999">
        <ele>493.3</ele>
        <time>2024-02-04T12:25:31Z</time>
      </trkpt>
      <trkpt lat="43.18153" lon="6.4999">
        <ele>493.3</ele>
        <time>2024-02-04T12:25:32Z</time>
      </trkpt>
      <trkpt lat="43.18152" lon="6.4999">
        <ele>493.3</ele>
        <time>2024-02-04T12:25:33Z</time>
      </trkpt>
      <trkpt lat="43.18152" lon="6.4999">
        <ele>493.3</ele>
        <time>2024-02-04T12:25:34Z</time>
      </trkpt>
      <trkpt lat="43.18151" lon="6.4999">
        <ele>493.3</ele>
        <time>2024-02-04T12:25:35Z</time>
      </trkpt>
      <trkpt lat="43.18151" lon="6.4999">
        <ele>493.4</ele>
        <time>2024-02-04T12:25:36Z</time>
      </trkpt>
      <trkpt lat="43.1815" lon="6.4999">
        <ele>493.4</ele>
        <time>2024-02-04T12:25:37Z</time>
      </trkpt>
      <trkpt lat="43.1815" lon="6.4999">
        <ele>493.3</ele>
        <time>2024-02-04T12:25:38Z</time>
      </trkpt>
      <trkpt lat="43.1815" lon="6.4999">
        <ele>493.3</ele>
        <time>2024-02-04T12:25:39Z</time>
      </trkpt>
      <trkpt lat="43.18149" lon="6.4999">
        <ele>493.2</ele>
        <time>2024-02-04T12:25:40Z</time>
      </trkpt>
      <trkpt lat="43.18148" lon="6.4999">
        <ele>493.1</ele>
        <time>2024-02-04T12:25:41Z</time>
      </trkpt>
      <trkpt lat="43.18148" lon="6.4999">
        <ele>493</ele>
        <time>2024-02-04T12:25:42Z</time>
      </trkpt>
      <trkpt lat="43.18147" lon="6.4999">
        <ele>493</ele>
        <time>2024-02-04T12:25:43Z</time>
      </trkpt>
      <trkpt lat="43.18147" lon="6.4999">
        <ele>492.9</ele>
        <time>2024-02-04T12:25:44Z</time>
      </trkpt>
      <trkpt lat="43.18146" lon="6.49991">
        <ele>492.8</ele>
        <time>2024-02-04T12:25:45Z</time>
      </trkpt>
      <trkpt lat="43.18145" lon="6.49991">
        <ele>492.8</ele>
        <time>2024-02-04T12:25:46Z</time>
      </trkpt>
      <trkpt lat="43.18145" lon="6.49992">
        <ele>492.7</ele>
        <time>2024-02-04T12:25:47Z</time>
      </trkpt>
      <trkpt lat="43.18144" lon="6.49993">
        <ele>492.7</ele>
        <time>2024-02-04T12:25:48Z</time>
      </trkpt>
      <trkpt lat="43.18144" lon="6.49993">
        <ele>492.7</ele>
        <time>2024-02-04T12:25:49Z</time>
      </trkpt>
      <trkpt lat="43.18143" lon="6.49994">
        <ele>492.8</ele>
        <time>2024-02-04T12:25:50Z</time>
      </trkpt>
      <trkpt lat="43.18142" lon="6.49995">
        <ele>492.8</ele>
        <time>2024-02-04T12:25:51Z</time>
      </trkpt>
      <trkpt lat="43.18142" lon="6.49995">
        <ele>492.7</ele>
        <time>2024-02-04T12:25:52Z</time>
      </trkpt>
      <trkpt lat="43.18142" lon="6.49996">
        <ele>492.7</ele>
        <time>2024-02-04T12:25:53Z</time>
      </trkpt>
      <trkpt lat="43.18141" lon="6.49997">
        <ele>492.7</ele>
        <time>2024-02-04T12:25:54Z</time>
      </trkpt>
      <trkpt lat="43.18141" lon="6.49998">
        <ele>492.7</ele>
        <time>2024-02-04T12:25:55Z</time>
      </trkpt>
      <trkpt lat="43.18141" lon="6.49999">
        <ele>492.6</ele>
        <time>2024-02-04T12:25:56Z</time>
      </trkpt>
      <trkpt lat="43.18141" lon="6.49999">
        <ele>492.6</ele>
        <time>2024-02-04T12:25:57Z</time>
      </trkpt>
      <trkpt lat="43.18141" lon="6.5">
        <ele>492.6</ele>
        <time>2024-02-04T12:25:58Z</time>
      </trkpt>
      <trkpt lat="43.18141" lon="6.50001">
        <ele>492.6</ele>
        <time>2024-02-04T12:25:59Z</time>
      </trkpt>
      <trkpt lat="43.1814" lon="6.50001">
        <ele>492.6</ele>
        <time>2024-02-04T12:26:00Z</time>
      </trkpt>
      <trkpt lat="43.1814" lon="6.50002">
        <ele>492.6</ele>
        <time>2024-02-04T12:26:01Z</time>
      </trkpt>
      <trkpt lat="43.1814" lon="6.50002">
        <ele>492.6</ele>
        <time>2024-02-04T12:26:02Z</time>
      </trkpt>
      <trkpt lat="43.1814" lon="6.50002">
        <ele>492.6</ele>
        <time>2024-02-04T12:26:03Z</time>
      </trkpt>
      <trkpt lat="43.1814" lon="6.50002">
        <ele>492.6</ele>
        <time>2024-02-04T12:26:04Z</time>
      </trkpt>
      <trkpt lat="43.1814" lon="6.50003">
        <ele>492.7</ele>
        <time>2024-02-04T12:26:05Z</time>
      </trkpt>
      <trkpt lat="43.1814" lon="6.50003">
        <ele>492.6</ele>
        <time>2024-02-04T12:26:06Z</time>
      </trkpt>
      <trkpt lat="43.18141" lon="6.50003">
        <ele>492.6</ele>
        <time>2024-02-04T12:26:07Z</time>
      </trkpt>
      <trkpt lat="43.18141" lon="6.50003">
        <ele>492.7</ele>
        <time>2024-02-04T12:26:08Z</time>
      </trkpt>
      <trkpt lat="43.18141" lon="6.50003">
        <ele>492.7</ele>
        <time>2024-02-04T12:26:09Z</time>
      </trkpt>
      <trkpt lat="43.18141" lon="6.50003">
        <ele>492.7</ele>
        <time>2024-02-04T12:26:10Z</time>
      </trkpt>
      <trkpt lat="43.18141" lon="6.50003">
        <ele>492.7</ele>
        <time>2024-02-04T12:26:11Z</time>
      </trkpt>
      <trkpt lat="43.18141" lon="6.50003">
        <ele>492.8</ele>
        <time>2024-02-04T12:26:12Z</time>
      </trkpt>
      <trkpt lat="43.18141" lon="6.50003">
        <ele>492.7</ele>
        <time>2024-02-04T12:26:13Z</time>
      </trkpt>
      <trkpt lat="43.18141" lon="6.50003">
        <ele>492.6</ele>
        <time>2024-02-04T12:26:14Z</time>
      </trkpt>
      <trkpt lat="43.18141" lon="6.50003">
        <ele>492.5</ele>
        <time>2024-02-04T12:26:15Z</time>
      </trkpt>
      <trkpt lat="43.1814" lon="6.50003">
        <ele>492.4</ele>
        <time>2024-02-04T12:26:16Z</time>
      </trkpt>
      <trkpt lat="43.1814" lon="6.50004">
        <ele>492.5</ele>
        <time>2024-02-04T12:26:17Z</time>
      </trkpt>
      <trkpt lat="43.1814" lon="6.50004">
        <ele>492.4</ele>
        <time>2024-02-04T12:26:18Z</time>
      </trkpt>
      <trkpt lat="43.1814" lon="6.50004">
        <ele>492.4</ele>
        <time>2024-02-04T12:26:19Z</time>
      </trkpt>
      <trkpt lat="43.1814" lon="6.50004">
        <ele>492.4</ele>
        <time>2024-02-04T12:26:20Z</time>
      </trkpt>
      <trkpt lat="43.1814" lon="6.50004">
        <ele>492.4</ele>
        <time>2024-02-04T12:26:21Z</time>
      </trkpt>
      <trkpt lat="43.1814" lon="6.50005">
        <ele>492.5</ele>
        <time>2024-02-04T12:26:22Z</time>
      </trkpt>
      <trkpt lat="43.1814" lon="6.50005">
        <ele>492.5</ele>
        <time>2024-02-04T12:26:23Z</time>
      </trkpt>
      <trkpt lat="43.1814" lon="6.50005">
        <ele>492.6</ele>
        <time>2024-02-04T12:26:24Z</time>
      </trkpt>
      <trkpt lat="43.1814" lon="6.50005">
        <ele>492.7</ele>
        <time>2024-02-04T12:26:25Z</time>
      </trkpt>
      <trkpt lat="43.1814" lon="6.50005">
        <ele>492.7</ele>
        <time>2024-02-04T12:26:26Z</time>
      </trkpt>
      <trkpt lat="43.1814" lon="6.50005">
        <ele>492.6</ele>
        <time>2024-02-04T12:26:27Z</time>
      </trkpt>
      <trkpt lat="43.1814" lon="6.50005">
        <ele>492.6</ele>
        <time>2024-02-04T12:26:28Z</time>
      </trkpt>
      <trkpt lat="43.1814" lon="6.50005">
        <ele>492.6</ele>
        <time>2024-02-04T12:26:29Z</time>
      </trkpt>
      <trkpt lat="43.1814" lon="6.50005">
        <ele>492.6</ele>
        <time>2024-02-04T12:26:30Z</time>
      </trkpt>
      <trkpt lat="43.18139" lon="6.50005">
        <ele>492.6</ele>
        <time>2024-02-04T12:26:31Z</time>
      </trkpt>
      <trkpt lat="43.18139" lon="6.50005">
        <ele>492.6</ele>
        <time>2024-02-04T12:26:32Z</time>
      </trkpt>
      <trkpt lat="43.18139" lon="6.50005">
        <ele>492.5</ele>
        <time>2024-02-04T12:26:33Z</time>
      </trkpt>
      <trkpt lat="43.18139" lon="6.50006">
        <ele>492.5</ele>
        <time>2024-02-04T12:26:34Z</time>
      </trkpt>
      <trkpt lat="43.18139" lon="6.50006">
        <ele>492.5</ele>
        <time>2024-02-04T12:26:35Z</time>
      </trkpt>
      <trkpt lat="43.18139" lon="6.50006">
        <ele>492.5</ele>
        <time>2024-02-04T12:26:36Z</time>
      </trkpt>
      <trkpt lat="43.18139" lon="6.50006">
        <ele>492.5</ele>
        <time>2024-02-04T12:26:37Z</time>
      </trkpt>
      <trkpt lat="43.18139" lon="6.50005">
        <ele>492.4</ele>
        <time>2024-02-04T12:26:38Z</time>
      </trkpt>
      <trkpt lat="43.18139" lon="6.50005">
        <ele>492.5</ele>
        <time>2024-02-04T12:26:39Z</time>
      </trkpt>
      <trkpt lat="43.18139" lon="6.50005">
        <ele>492.5</ele>
        <time>2024-02-04T12:26:40Z</time>
      </trkpt>
      <trkpt lat="43.18139" lon="6.50005">
        <ele>492.5</ele>
        <time>2024-02-04T12:26:41Z</time>
      </trkpt>
      <trkpt lat="43.18139" lon="6.50005">
        <ele>492.5</ele>
        <time>2024-02-04T12:26:42Z</time>
      </trkpt>
      <trkpt lat="43.18139" lon="6.50005">
        <ele>492.4</ele>
        <time>2024-02-04T12:26:43Z</time>
      </trkpt>
      <trkpt lat="43.18138" lon="6.50005">
        <ele>492.5</ele>
        <time>2024-02-04T12:26:44Z</time>
      </trkpt>
      <trkpt lat="43.18138" lon="6.50005">
        <ele>492.5</ele>
        <time>2024-02-04T12:26:45Z</time>
      </trkpt>
      <trkpt lat="43.18138" lon="6.50005">
        <ele>492.5</ele>
        <time>2024-02-04T12:26:46Z</time>
      </trkpt>
      <trkpt lat="43.18138" lon="6.50006">
        <ele>492.4</ele>
        <time>2024-02-04T12:26:47Z</time>
      </trkpt>
      <trkpt lat="43.18138" lon="6.50006">
        <ele>492.4</ele>
        <time>2024-02-04T12:26:48Z</time>
      </trkpt>
      <trkpt lat="43.18138" lon="6.50006">
        <ele>492.4</ele>
        <time>2024-02-04T12:26:49Z</time>
      </trkpt>
      <trkpt lat="43.18138" lon="6.50006">
        <ele>492.4</ele>
        <time>2024-02-04T12:26:50Z</time>
      </trkpt>
      <trkpt lat="43.18138" lon="6.50006">
        <ele>492.4</ele>
        <time>2024-02-04T12:26:51Z</time>
      </trkpt>
      <trkpt lat="43.18138" lon="6.50006">
        <ele>492.3</ele>
        <time>2024-02-04T12:26:52Z</time>
      </trkpt>
      <trkpt lat="43.18138" lon="6.50006">
        <ele>492.3</ele>
        <time>2024-02-04T12:26:53Z</time>
      </trkpt>
      <trkpt lat="43.18138" lon="6.50006">
        <ele>492.4</ele>
        <time>2024-02-04T12:26:54Z</time>
      </trkpt>
      <trkpt lat="43.18138" lon="6.50006">
        <ele>492.4</ele>
        <time>2024-02-04T12:26:55Z</time>
      </trkpt>
      <trkpt lat="43.18138" lon="6.50006">
        <ele>492.4</ele>
        <time>2024-02-04T12:26:56Z</time>
      </trkpt>
      <trkpt lat="43.18138" lon="6.50006">
        <ele>492.4</ele>
        <time>2024-02-04T12:26:57Z</time>
      </trkpt>
      <trkpt lat="43.18138" lon="6.50006">
        <ele>492.5</ele>
        <time>2024-02-04T12:26:58Z</time>
      </trkpt>
      <trkpt lat="43.18138" lon="6.50006">
        <ele>492.6</ele>
        <time>2024-02-04T12:26:59Z</time>
      </trkpt>
      <trkpt lat="43.18138" lon="6.50007">
        <ele>492.6</ele>
        <time>2024-02-04T12:27:00Z</time>
      </trkpt>
      <trkpt lat="43.18138" lon="6.50007">
        <ele>492.7</ele>
        <time>2024-02-04T12:27:01Z</time>
      </trkpt>
      <trkpt lat="43.18138" lon="6.50007">
        <ele>492.6</ele>
        <time>2024-02-04T12:27:02Z</time>
      </trkpt>
      <trkpt lat="43.18138" lon="6.50007">
        <ele>492.5</ele>
        <time>2024-02-04T12:27:03Z</time>
      </trkpt>
      <trkpt lat="43.18138" lon="6.50007">
        <ele>492.5</ele>
        <time>2024-02-04T12:27:04Z</time>
      </trkpt>
      <trkpt lat="43.18138" lon="6.50007">
        <ele>492.5</ele>
        <time>2024-02-04T12:27:05Z</time>
      </trkpt>
      <trkpt lat="43.18138" lon="6.50007">
        <ele>492.5</ele>
        <time>2024-02-04T12:27:06Z</time>
      </trkpt>
      <trkpt lat="43.18138" lon="6.50007">
        <ele>492.5</ele>
        <time>2024-02-04T12:27:07Z</time>
      </trkpt>
      <trkpt lat="43.18138" lon="6.50007">
        <ele>492.5</ele>
        <time>2024-02-04T12:27:08Z</time>
      </trkpt>
      <trkpt lat="43.18138" lon="6.50007">
        <ele>492.6</ele>
        <time>2024-02-04T12:27:09Z</time>
      </trkpt>
      <trkpt lat="43.18138" lon="6.50007">
        <ele>492.7</ele>
        <time>2024-02-04T12:27:10Z</time>
      </trkpt>
      <trkpt lat="43.18139" lon="6.50007">
        <ele>492.8</ele>
        <time>2024-02-04T12:27:11Z</time>
      </trkpt>
      <trkpt lat="43.18139" lon="6.50007">
        <ele>492.8</ele>
        <time>2024-02-04T12:27:12Z</time>
      </trkpt>
      <trkpt lat="43.18139" lon="6.50007">
        <ele>492.7</ele>
        <time>2024-02-04T12:27:13Z</time>
      </trkpt>
      <trkpt lat="43.18139" lon="6.50007">
        <ele>492.7</ele>
        <time>2024-02-04T12:27:14Z</time>
      </trkpt>
      <trkpt lat="43.18139" lon="6.50006">
        <ele>492.8</ele>
        <time>2024-02-04T12:27:15Z</time>
      </trkpt>
      <trkpt lat="43.18139" lon="6.50006">
        <ele>492.8</ele>
        <time>2024-02-04T12:27:16Z</time>
      </trkpt>
      <trkpt lat="43.18139" lon="6.50006">
        <ele>492.9</ele>
        <time>2024-02-04T12:27:17Z</time>
      </trkpt>
      <trkpt lat="43.18139" lon="6.50006">
        <ele>492.9</ele>
        <time>2024-02-04T12:27:18Z</time>
      </trkpt>
      <trkpt lat="43.18139" lon="6.50006">
        <ele>493</ele>
        <time>2024-02-04T12:27:19Z</time>
      </trkpt>
      <trkpt lat="43.18139" lon="6.50006">
        <ele>493.1</ele>
        <time>2024-02-04T12:27:20Z</time>
      </trkpt>
      <trkpt lat="43.18139" lon="6.50006">
        <ele>493</ele>
        <time>2024-02-04T12:27:21Z</time>
      </trkpt>
      <trkpt lat="43.18139" lon="6.50006">
        <ele>493</ele>
        <time>2024-02-04T12:27:22Z</time>
      </trkpt>
      <trkpt lat="43.18139" lon="6.50007">
        <ele>492.9</ele>
        <time>2024-02-04T12:27:23Z</time>
      </trkpt>
      <trkpt lat="43.18139" lon="6.50008">
        <ele>492.9</ele>
        <time>2024-02-04T12:27:24Z</time>
      </trkpt>
      <trkpt lat="43.1814" lon="6.50009">
        <ele>493.1</ele>
        <time>2024-02-04T12:27:25Z</time>
      </trkpt>
      <trkpt lat="43.1814" lon="6.5001">
        <ele>493.2</ele>
        <time>2024-02-04T12:27:26Z</time>
      </trkpt>
      <trkpt lat="43.18141" lon="6.50011">
        <ele>493.2</ele>
        <time>2024-02-04T12:27:27Z</time>
      </trkpt>
      <trkpt lat="43.18141" lon="6.50011">
        <ele>493.1</ele>
        <time>2024-02-04T12:27:28Z</time>
      </trkpt>
      <trkpt lat="43.18141" lon="6.50011">
        <ele>493.1</ele>
        <time>2024-02-04T12:27:29Z</time>
      </trkpt>
      <trkpt lat="43.18141" lon="6.50012">
        <ele>493.1</ele>
        <time>2024-02-04T12:27:30Z</time>
      </trkpt>
      <trkpt lat="43.18141" lon="6.50012">
        <ele>493.1</ele>
        <time>2024-02-04T12:27:31Z</time>
      </trkpt>
      <trkpt lat="43.18141" lon="6.50012">
        <ele>493.1</ele>
        <time>2024-02-04T12:27:32Z</time>
      </trkpt>
      <trkpt lat="43.18141" lon="6.50012">
        <ele>493.1</ele>
        <time>2024-02-04T12:27:33Z</time>
      </trkpt>
      <trkpt lat="43.18141" lon="6.50012">
        <ele>493.1</ele>
        <time>2024-02-04T12:27:34Z</time>
      </trkpt>
      <trkpt lat="43.18141" lon="6.50012">
        <ele>493.1</ele>
        <time>2024-02-04T12:27:35Z</time>
      </trkpt>
      <trkpt lat="43.18141" lon="6.50013">
        <ele>493.1</ele>
        <time>2024-02-04T12:27:36Z</time>
      </trkpt>
      <trkpt lat="43.18141" lon="6.50014">
        <ele>493.1</ele>
        <time>2024-02-04T12:27:37Z</time>
      </trkpt>
      <trkpt lat="43.18141" lon="6.50015">
        <ele>493</ele>
        <time>2024-02-04T12:27:38Z</time>
      </trkpt>
      <trkpt lat="43.18141" lon="6.50016">
        <ele>493</ele>
        <time>2024-02-04T12:27:39Z</time>
      </trkpt>
      <trkpt lat="43.1814" lon="6.50016">
        <ele>493</ele>
        <time>2024-02-04T12:27:40Z</time>
      </trkpt>
      <trkpt lat="43.1814" lon="6.50017">
        <ele>492.9</ele>
        <time>2024-02-04T12:27:41Z</time>
      </trkpt>
      <trkpt lat="43.1814" lon="6.50018">
        <ele>493</ele>
        <time>2024-02-04T12:27:42Z</time>
      </trkpt>
      <trkpt lat="43.1814" lon="6.50018">
        <ele>493</ele>
        <time>2024-02-04T12:27:43Z</time>
      </trkpt>
      <trkpt lat="43.1814" lon="6.50019">
        <ele>493.1</ele>
        <time>2024-02-04T12:27:44Z</time>
      </trkpt>
      <trkpt lat="43.1814" lon="6.50019">
        <ele>493</ele>
        <time>2024-02-04T12:27:45Z</time>
      </trkpt>
      <trkpt lat="43.1814" lon="6.50019">
        <ele>492.9</ele>
        <time>2024-02-04T12:27:46Z</time>
      </trkpt>
      <trkpt lat="43.18141" lon="6.50019">
        <ele>492.9</ele>
        <time>2024-02-04T12:27:47Z</time>
      </trkpt>
      <trkpt lat="43.18141" lon="6.50019">
        <ele>492.9</ele>
        <time>2024-02-04T12:27:48Z</time>
      </trkpt>
      <trkpt lat="43.1814" lon="6.5002">
        <ele>492.9</ele>
        <time>2024-02-04T12:27:49Z</time>
      </trkpt>
      <trkpt lat="43.1814" lon="6.5002">
        <ele>492.9</ele>
        <time>2024-02-04T12:27:50Z</time>
      </trkpt>
      <trkpt lat="43.1814" lon="6.5002">
        <ele>492.9</ele>
        <time>2024-02-04T12:27:51Z</time>
      </trkpt>
      <trkpt lat="43.1814" lon="6.5002">
        <ele>492.9</ele>
        <time>2024-02-04T12:27:52Z</time>
      </trkpt>
      <trkpt lat="43.1814" lon="6.5002">
        <ele>493</ele>
        <time>2024-02-04T12:27:53Z</time>
      </trkpt>
      <trkpt lat="43.1814" lon="6.5002">
        <ele>493.1</ele>
        <time>2024-02-04T12:27:54Z</time>
      </trkpt>
      <trkpt lat="43.1814" lon="6.5002">
        <ele>493</ele>
        <time>2024-02-04T12:27:55Z</time>
      </trkpt>
      <trkpt lat="43.1814" lon="6.50021">
        <ele>493</ele>
        <time>2024-02-04T12:27:56Z</time>
      </trkpt>
      <trkpt lat="43.1814" lon="6.50021">
        <ele>493</ele>
        <time>2024-02-04T12:27:57Z</time>
      </trkpt>
      <trkpt lat="43.1814" lon="6.50021">
        <ele>493</ele>
        <time>2024-02-04T12:27:58Z</time>
      </trkpt>
      <trkpt lat="43.1814" lon="6.50021">
        <ele>493</ele>
        <time>2024-02-04T12:27:59Z</time>
      </trkpt>
      <trkpt lat="43.1814" lon="6.50021">
        <ele>493.1</ele>
        <time>2024-02-04T12:28:00Z</time>
      </trkpt>
      <trkpt lat="43.1814" lon="6.50021">
        <ele>493.1</ele>
        <time>2024-02-04T12:28:01Z</time>
      </trkpt>
      <trkpt lat="43.1814" lon="6.50021">
        <ele>493.1</ele>
        <time>2024-02-04T12:28:02Z</time>
      </trkpt>
      <trkpt lat="43.1814" lon="6.50022">
        <ele>493.2</ele>
        <time>2024-02-04T12:28:03Z</time>
      </trkpt>
      <trkpt lat="43.1814" lon="6.50022">
        <ele>493.2</ele>
        <time>2024-02-04T12:28:04Z</time>
      </trkpt>
      <trkpt lat="43.1814" lon="6.50022">
        <ele>493.2</ele>
        <time>2024-02-04T12:28:05Z</time>
      </trkpt>
      <trkpt lat="43.18139" lon="6.50022">
        <ele>493.2</ele>
        <time>2024-02-04T12:28:06Z</time>
      </trkpt>
      <trkpt lat="43.18139" lon="6.50022">
        <ele>493.2</ele>
        <time>2024-02-04T12:28:07Z</time>
      </trkpt>
      <trkpt lat="43.18139" lon="6.50022">
        <ele>493.2</ele>
        <time>2024-02-04T12:28:08Z</time>
      </trkpt>
      <trkpt lat="43.18139" lon="6.50022">
        <ele>493.2</ele>
        <time>2024-02-04T12:28:09Z</time>
      </trkpt>
      <trkpt lat="43.18139" lon="6.50022">
        <ele>493.2</ele>
        <time>2024-02-04T12:28:10Z</time>
      </trkpt>
      <trkpt lat="43.18139" lon="6.50022">
        <ele>493.2</ele>
        <time>2024-02-04T12:28:11Z</time>
      </trkpt>
      <trkpt lat="43.18139" lon="6.50022">
        <ele>493.2</ele>
        <time>2024-02-04T12:28:12Z</time>
      </trkpt>
      <trkpt lat="43.18139" lon="6.50022">
        <ele>493.2</ele>
        <time>2024-02-04T12:28:13Z</time>
      </trkpt>
      <trkpt lat="43.1814" lon="6.50022">
        <ele>493.2</ele>
        <time>2024-02-04T12:28:14Z</time>
      </trkpt>
      <trkpt lat="43.18139" lon="6.50023">
        <ele>493.2</ele>
        <time>2024-02-04T12:28:15Z</time>
      </trkpt>
      <trkpt lat="43.18139" lon="6.50024">
        <ele>493.2</ele>
        <time>2024-02-04T12:28:16Z</time>
      </trkpt>
      <trkpt lat="43.18138" lon="6.50025">
        <ele>493.2</ele>
        <time>2024-02-04T12:28:17Z</time>
      </trkpt>
      <trkpt lat="43.18138" lon="6.50026">
        <ele>493.1</ele>
        <time>2024-02-04T12:28:18Z</time>
      </trkpt>
      <trkpt lat="43.18137" lon="6.50027">
        <ele>493.1</ele>
        <time>2024-02-04T12:28:19Z</time>
      </trkpt>
      <trkpt lat="43.18136" lon="6.50028">
        <ele>493.1</ele>
        <time>2024-02-04T12:28:20Z</time>
      </trkpt>
      <trkpt lat="43.18135" lon="6.50029">
        <ele>493</ele>
        <time>2024-02-04T12:28:21Z</time>
      </trkpt>
      <trkpt lat="43.18134" lon="6.5003">
        <ele>492.9</ele>
        <time>2024-02-04T12:28:22Z</time>
      </trkpt>
      <trkpt lat="43.18134" lon="6.50031">
        <ele>492.6</ele>
        <time>2024-02-04T12:28:23Z</time>
      </trkpt>
      <trkpt lat="43.18133" lon="6.50032">
        <ele>492.5</ele>
        <time>2024-02-04T12:28:24Z</time>
      </trkpt>
      <trkpt lat="43.18133" lon="6.50034">
        <ele>492.3</ele>
        <time>2024-02-04T12:28:25Z</time>
      </trkpt>
      <trkpt lat="43.18133" lon="6.50035">
        <ele>492.3</ele>
        <time>2024-02-04T12:28:26Z</time>
      </trkpt>
      <trkpt lat="43.18133" lon="6.50037">
        <ele>492.2</ele>
        <time>2024-02-04T12:28:27Z</time>
      </trkpt>
      <trkpt lat="43.18132" lon="6.50038">
        <ele>492.1</ele>
        <time>2024-02-04T12:28:28Z</time>
      </trkpt>
      <trkpt lat="43.18132" lon="6.50039">
        <ele>492</ele>
        <time>2024-02-04T12:28:29Z</time>
      </trkpt>
      <trkpt lat="43.18131" lon="6.5004">
        <ele>491.9</ele>
        <time>2024-02-04T12:28:30Z</time>
      </trkpt>
      <trkpt lat="43.1813" lon="6.50041">
        <ele>491.8</ele>
        <time>2024-02-04T12:28:31Z</time>
      </trkpt>
      <trkpt lat="43.18129" lon="6.50041">
        <ele>491.7</ele>
        <time>2024-02-04T12:28:32Z</time>
      </trkpt>
      <trkpt lat="43.18129" lon="6.50041">
        <ele>491.5</ele>
        <time>2024-02-04T12:28:33Z</time>
      </trkpt>
      <trkpt lat="43.18128" lon="6.50042">
        <ele>491.4</ele>
        <time>2024-02-04T12:28:34Z</time>
      </trkpt>
      <trkpt lat="43.18128" lon="6.50043">
        <ele>491.3</ele>
        <time>2024-02-04T12:28:35Z</time>
      </trkpt>
      <trkpt lat="43.18127" lon="6.50044">
        <ele>491.2</ele>
        <time>2024-02-04T12:28:36Z</time>
      </trkpt>
      <trkpt lat="43.18127" lon="6.50044">
        <ele>491.1</ele>
        <time>2024-02-04T12:28:37Z</time>
      </trkpt>
      <trkpt lat="43.18127" lon="6.50044">
        <ele>490.9</ele>
        <time>2024-02-04T12:28:38Z</time>
      </trkpt>
      <trkpt lat="43.18127" lon="6.50044">
        <ele>490.9</ele>
        <time>2024-02-04T12:28:39Z</time>
      </trkpt>
      <trkpt lat="43.18127" lon="6.50043">
        <ele>490.8</ele>
        <time>2024-02-04T12:28:40Z</time>
      </trkpt>
      <trkpt lat="43.18127" lon="6.50043">
        <ele>490.7</ele>
        <time>2024-02-04T12:28:41Z</time>
      </trkpt>
      <trkpt lat="43.18127" lon="6.50043">
        <ele>490.7</ele>
        <time>2024-02-04T12:28:42Z</time>
      </trkpt>
      <trkpt lat="43.18126" lon="6.50043">
        <ele>490.7</ele>
        <time>2024-02-04T12:28:43Z</time>
      </trkpt>
      <trkpt lat="43.18126" lon="6.50043">
        <ele>490.6</ele>
        <time>2024-02-04T12:28:44Z</time>
      </trkpt>
      <trkpt lat="43.18127" lon="6.50043">
        <ele>490.5</ele>
        <time>2024-02-04T12:28:45Z</time>
      </trkpt>
      <trkpt lat="43.18127" lon="6.50043">
        <ele>490.5</ele>
        <time>2024-02-04T12:28:46Z</time>
      </trkpt>
      <trkpt lat="43.18127" lon="6.50045">
        <ele>490.4</ele>
        <time>2024-02-04T12:28:47Z</time>
      </trkpt>
      <trkpt lat="43.18128" lon="6.50046">
        <ele>490.4</ele>
        <time>2024-02-04T12:28:48Z</time>
      </trkpt>
      <trkpt lat="43.18128" lon="6.50047">
        <ele>490.3</ele>
        <time>2024-02-04T12:28:49Z</time>
      </trkpt>
      <trkpt lat="43.18128" lon="6.50049">
        <ele>490.3</ele>
        <time>2024-02-04T12:28:50Z</time>
      </trkpt>
      <trkpt lat="43.18128" lon="6.5005">
        <ele>490</ele>
        <time>2024-02-04T12:28:51Z</time>
      </trkpt>
      <trkpt lat="43.18128" lon="6.50052">
        <ele>490</ele>
        <time>2024-02-04T12:28:52Z</time>
      </trkpt>
      <trkpt lat="43.18128" lon="6.50053">
        <ele>489.8</ele>
        <time>2024-02-04T12:28:53Z</time>
      </trkpt>
      <trkpt lat="43.18128" lon="6.50055">
        <ele>489.6</ele>
        <time>2024-02-04T12:28:54Z</time>
      </trkpt>
      <trkpt lat="43.18128" lon="6.50057">
        <ele>489.5</ele>
        <time>2024-02-04T12:28:55Z</time>
      </trkpt>
      <trkpt lat="43.18129" lon="6.50059">
        <ele>489.5</ele>
        <time>2024-02-04T12:28:56Z</time>
      </trkpt>
      <trkpt lat="43.18129" lon="6.50061">
        <ele>489.5</ele>
        <time>2024-02-04T12:28:57Z</time>
      </trkpt>
      <trkpt lat="43.18129" lon="6.50063">
        <ele>489.4</ele>
        <time>2024-02-04T12:28:58Z</time>
      </trkpt>
      <trkpt lat="43.18129" lon="6.50064">
        <ele>489.3</ele>
        <time>2024-02-04T12:28:59Z</time>
      </trkpt>
      <trkpt lat="43.18128" lon="6.50065">
        <ele>489.3</ele>
        <time>2024-02-04T12:29:00Z</time>
      </trkpt>
      <trkpt lat="43.18128" lon="6.50066">
        <ele>489.2</ele>
        <time>2024-02-04T12:29:01Z</time>
      </trkpt>
      <trkpt lat="43.18128" lon="6.50068">
        <ele>489.2</ele>
        <time>2024-02-04T12:29:02Z</time>
      </trkpt>
      <trkpt lat="43.18127" lon="6.50069">
        <ele>489.2</ele>
        <time>2024-02-04T12:29:03Z</time>
      </trkpt>
      <trkpt lat="43.18127" lon="6.5007">
        <ele>489.2</ele>
        <time>2024-02-04T12:29:04Z</time>
      </trkpt>
      <trkpt lat="43.18126" lon="6.50071">
        <ele>489.1</ele>
        <time>2024-02-04T12:29:05Z</time>
      </trkpt>
      <trkpt lat="43.18125" lon="6.50072">
        <ele>489</ele>
        <time>2024-02-04T12:29:06Z</time>
      </trkpt>
      <trkpt lat="43.18125" lon="6.50073">
        <ele>489</ele>
        <time>2024-02-04T12:29:07Z</time>
      </trkpt>
      <trkpt lat="43.18125" lon="6.50075">
        <ele>489</ele>
        <time>2024-02-04T12:29:08Z</time>
      </trkpt>
      <trkpt lat="43.18125" lon="6.50076">
        <ele>489</ele>
        <time>2024-02-04T12:29:09Z</time>
      </trkpt>
      <trkpt lat="43.18125" lon="6.50078">
        <ele>488.9</ele>
        <time>2024-02-04T12:29:10Z</time>
      </trkpt>
      <trkpt lat="43.18125" lon="6.50079">
        <ele>488.9</ele>
        <time>2024-02-04T12:29:11Z</time>
      </trkpt>
      <trkpt lat="43.18125" lon="6.50081">
        <ele>488.8</ele>
        <time>2024-02-04T12:29:12Z</time>
      </trkpt>
      <trkpt lat="43.18126" lon="6.50082">
        <ele>488.8</ele>
        <time>2024-02-04T12:29:13Z</time>
      </trkpt>
      <trkpt lat="43.18126" lon="6.50084">
        <ele>488.8</ele>
        <time>2024-02-04T12:29:14Z</time>
      </trkpt>
      <trkpt lat="43.18126" lon="6.50084">
        <ele>488.7</ele>
        <time>2024-02-04T12:29:15Z</time>
      </trkpt>
      <trkpt lat="43.18127" lon="6.50085">
        <ele>488.7</ele>
        <time>2024-02-04T12:29:16Z</time>
      </trkpt>
      <trkpt lat="43.18127" lon="6.50086">
        <ele>488.2</ele>
        <time>2024-02-04T12:29:17Z</time>
      </trkpt>
      <trkpt lat="43.18127" lon="6.50086">
        <ele>488.2</ele>
        <time>2024-02-04T12:29:18Z</time>
      </trkpt>
      <trkpt lat="43.18128" lon="6.50087">
        <ele>488.2</ele>
        <time>2024-02-04T12:29:19Z</time>
      </trkpt>
      <trkpt lat="43.18128" lon="6.50087">
        <ele>488.2</ele>
        <time>2024-02-04T12:29:20Z</time>
      </trkpt>
      <trkpt lat="43.18128" lon="6.50087">
        <ele>488.2</ele>
        <time>2024-02-04T12:29:21Z</time>
      </trkpt>
      <trkpt lat="43.18128" lon="6.50088">
        <ele>488.2</ele>
        <time>2024-02-04T12:29:22Z</time>
      </trkpt>
      <trkpt lat="43.18128" lon="6.50088">
        <ele>488.2</ele>
        <time>2024-02-04T12:29:23Z</time>
      </trkpt>
      <trkpt lat="43.18128" lon="6.50088">
        <ele>488.3</ele>
        <time>2024-02-04T12:29:24Z</time>
      </trkpt>
      <trkpt lat="43.18128" lon="6.50089">
        <ele>488.2</ele>
        <time>2024-02-04T12:29:25Z</time>
      </trkpt>
      <trkpt lat="43.18127" lon="6.50089">
        <ele>488.2</ele>
        <time>2024-02-04T12:29:26Z</time>
      </trkpt>
      <trkpt lat="43.18127" lon="6.5009">
        <ele>488.2</ele>
        <time>2024-02-04T12:29:27Z</time>
      </trkpt>
      <trkpt lat="43.18126" lon="6.5009">
        <ele>488.1</ele>
        <time>2024-02-04T12:29:28Z</time>
      </trkpt>
      <trkpt lat="43.18126" lon="6.50091">
        <ele>488</ele>
        <time>2024-02-04T12:29:29Z</time>
      </trkpt>
      <trkpt lat="43.18125" lon="6.50092">
        <ele>487.9</ele>
        <time>2024-02-04T12:29:30Z</time>
      </trkpt>
      <trkpt lat="43.18124" lon="6.50092">
        <ele>487.7</ele>
        <time>2024-02-04T12:29:31Z</time>
      </trkpt>
      <trkpt lat="43.18124" lon="6.50093">
        <ele>487.6</ele>
        <time>2024-02-04T12:29:32Z</time>
      </trkpt>
      <trkpt lat="43.18123" lon="6.50093">
        <ele>487.4</ele>
        <time>2024-02-04T12:29:33Z</time>
      </trkpt>
      <trkpt lat="43.18122" lon="6.50094">
        <ele>487.3</ele>
        <time>2024-02-04T12:29:34Z</time>
      </trkpt>
      <trkpt lat="43.18122" lon="6.50095">
        <ele>487.2</ele>
        <time>2024-02-04T12:29:35Z</time>
      </trkpt>
      <trkpt lat="43.18122" lon="6.50096">
        <ele>487.1</ele>
        <time>2024-02-04T12:29:36Z</time>
      </trkpt>
      <trkpt lat="43.18122" lon="6.50096">
        <ele>487</ele>
        <time>2024-02-04T12:29:37Z</time>
      </trkpt>
      <trkpt lat="43.18122" lon="6.50096">
        <ele>486.8</ele>
        <time>2024-02-04T12:29:38Z</time>
      </trkpt>
      <trkpt lat="43.18121" lon="6.50096">
        <ele>486.7</ele>
        <time>2024-02-04T12:29:39Z</time>
      </trkpt>
      <trkpt lat="43.18121" lon="6.50097">
        <ele>486.6</ele>
        <time>2024-02-04T12:29:40Z</time>
      </trkpt>
      <trkpt lat="43.18121" lon="6.50097">
        <ele>486.5</ele>
        <time>2024-02-04T12:29:41Z</time>
      </trkpt>
      <trkpt lat="43.18121" lon="6.50098">
        <ele>486.5</ele>
        <time>2024-02-04T12:29:42Z</time>
      </trkpt>
      <trkpt lat="43.1812" lon="6.50098">
        <ele>486.5</ele>
        <time>2024-02-04T12:29:43Z</time>
      </trkpt>
      <trkpt lat="43.1812" lon="6.50098">
        <ele>486.4</ele>
        <time>2024-02-04T12:29:44Z</time>
      </trkpt>
      <trkpt lat="43.18119" lon="6.50099">
        <ele>486.3</ele>
        <time>2024-02-04T12:29:45Z</time>
      </trkpt>
      <trkpt lat="43.18119" lon="6.50099">
        <ele>486.2</ele>
        <time>2024-02-04T12:29:46Z</time>
      </trkpt>
      <trkpt lat="43.18119" lon="6.50099">
        <ele>486.1</ele>
        <time>2024-02-04T12:29:47Z</time>
      </trkpt>
      <trkpt lat="43.18118" lon="6.50099">
        <ele>485.9</ele>
        <time>2024-02-04T12:29:48Z</time>
      </trkpt>
      <trkpt lat="43.18117" lon="6.50099">
        <ele>485.7</ele>
        <time>2024-02-04T12:29:49Z</time>
      </trkpt>
      <trkpt lat="43.18117" lon="6.501">
        <ele>485.4</ele>
        <time>2024-02-04T12:29:50Z</time>
      </trkpt>
      <trkpt lat="43.18116" lon="6.501">
        <ele>485.3</ele>
        <time>2024-02-04T12:29:51Z</time>
      </trkpt>
      <trkpt lat="43.18115" lon="6.501">
        <ele>485.1</ele>
        <time>2024-02-04T12:29:52Z</time>
      </trkpt>
      <trkpt lat="43.18115" lon="6.50101">
        <ele>484.9</ele>
        <time>2024-02-04T12:29:53Z</time>
      </trkpt>
      <trkpt lat="43.18114" lon="6.50101">
        <ele>484.7</ele>
        <time>2024-02-04T12:29:54Z</time>
      </trkpt>
      <trkpt lat="43.18113" lon="6.50101">
        <ele>484.6</ele>
        <time>2024-02-04T12:29:55Z</time>
      </trkpt>
      <trkpt lat="43.18113" lon="6.501">
        <ele>484.4</ele>
        <time>2024-02-04T12:29:56Z</time>
      </trkpt>
      <trkpt lat="43.18112" lon="6.501">
        <ele>484.3</ele>
        <time>2024-02-04T12:29:57Z</time>
      </trkpt>
      <trkpt lat="43.18111" lon="6.501">
        <ele>484.1</ele>
        <time>2024-02-04T12:29:58Z</time>
      </trkpt>
      <trkpt lat="43.18111" lon="6.501">
        <ele>483.9</ele>
        <time>2024-02-04T12:29:59Z</time>
      </trkpt>
      <trkpt lat="43.18111" lon="6.50101">
        <ele>483.8</ele>
        <time>2024-02-04T12:30:00Z</time>
      </trkpt>
      <trkpt lat="43.1811" lon="6.50101">
        <ele>483.6</ele>
        <time>2024-02-04T12:30:01Z</time>
      </trkpt>
      <trkpt lat="43.1811" lon="6.50102">
        <ele>483.4</ele>
        <time>2024-02-04T12:30:02Z</time>
      </trkpt>
      <trkpt lat="43.1811" lon="6.50103">
        <ele>483.3</ele>
        <time>2024-02-04T12:30:03Z</time>
      </trkpt>
      <trkpt lat="43.18109" lon="6.50103">
        <ele>483</ele>
        <time>2024-02-04T12:30:04Z</time>
      </trkpt>
      <trkpt lat="43.18108" lon="6.50103">
        <ele>482.8</ele>
        <time>2024-02-04T12:30:05Z</time>
      </trkpt>
      <trkpt lat="43.18108" lon="6.50104">
        <ele>482.5</ele>
        <time>2024-02-04T12:30:06Z</time>
      </trkpt>
      <trkpt lat="43.18108" lon="6.50105">
        <ele>482.3</ele>
        <time>2024-02-04T12:30:07Z</time>
      </trkpt>
      <trkpt lat="43.18107" lon="6.50105">
        <ele>482.1</ele>
        <time>2024-02-04T12:30:08Z</time>
      </trkpt>
      <trkpt lat="43.18107" lon="6.50105">
        <ele>481.9</ele>
        <time>2024-02-04T12:30:09Z</time>
      </trkpt>
      <trkpt lat="43.18106" lon="6.50106">
        <ele>481.7</ele>
        <time>2024-02-04T12:30:10Z</time>
      </trkpt>
      <trkpt lat="43.18106" lon="6.50107">
        <ele>481.6</ele>
        <time>2024-02-04T12:30:11Z</time>
      </trkpt>
      <trkpt lat="43.18106" lon="6.50108">
        <ele>481.4</ele>
        <time>2024-02-04T12:30:12Z</time>
      </trkpt>
      <trkpt lat="43.18106" lon="6.50109">
        <ele>481.4</ele>
        <time>2024-02-04T12:30:13Z</time>
      </trkpt>
      <trkpt lat="43.18106" lon="6.5011">
        <ele>481.2</ele>
        <time>2024-02-04T12:30:14Z</time>
      </trkpt>
      <trkpt lat="43.18106" lon="6.50111">
        <ele>481</ele>
        <time>2024-02-04T12:30:15Z</time>
      </trkpt>
      <trkpt lat="43.18106" lon="6.50111">
        <ele>480.9</ele>
        <time>2024-02-04T12:30:16Z</time>
      </trkpt>
      <trkpt lat="43.18106" lon="6.50111">
        <ele>480.7</ele>
        <time>2024-02-04T12:30:17Z</time>
      </trkpt>
      <trkpt lat="43.18106" lon="6.50112">
        <ele>480.7</ele>
        <time>2024-02-04T12:30:18Z</time>
      </trkpt>
      <trkpt lat="43.18106" lon="6.50112">
        <ele>480.6</ele>
        <time>2024-02-04T12:30:19Z</time>
      </trkpt>
      <trkpt lat="43.18106" lon="6.50112">
        <ele>480.5</ele>
        <time>2024-02-04T12:30:20Z</time>
      </trkpt>
      <trkpt lat="43.18106" lon="6.50113">
        <ele>480.5</ele>
        <time>2024-02-04T12:30:21Z</time>
      </trkpt>
      <trkpt lat="43.18106" lon="6.50113">
        <ele>480.4</ele>
        <time>2024-02-04T12:30:22Z</time>
      </trkpt>
      <trkpt lat="43.18106" lon="6.50113">
        <ele>480.3</ele>
        <time>2024-02-04T12:30:23Z</time>
      </trkpt>
      <trkpt lat="43.18106" lon="6.50114">
        <ele>480.3</ele>
        <time>2024-02-04T12:30:24Z</time>
      </trkpt>
      <trkpt lat="43.18107" lon="6.50114">
        <ele>480.3</ele>
        <time>2024-02-04T12:30:25Z</time>
      </trkpt>
      <trkpt lat="43.18107" lon="6.50114">
        <ele>480.2</ele>
        <time>2024-02-04T12:30:26Z</time>
      </trkpt>
      <trkpt lat="43.18107" lon="6.50115">
        <ele>480.2</ele>
        <time>2024-02-04T12:30:27Z</time>
      </trkpt>
      <trkpt lat="43.18106" lon="6.50115">
        <ele>480.1</ele>
        <time>2024-02-04T12:30:28Z</time>
      </trkpt>
      <trkpt lat="43.18106" lon="6.50115">
        <ele>480.1</ele>
        <time>2024-02-04T12:30:29Z</time>
      </trkpt>
      <trkpt lat="43.18105" lon="6.50116">
        <ele>480</ele>
        <time>2024-02-04T12:30:30Z</time>
      </trkpt>
      <trkpt lat="43.18105" lon="6.50117">
        <ele>480</ele>
        <time>2024-02-04T12:30:31Z</time>
      </trkpt>
      <trkpt lat="43.18105" lon="6.50117">
        <ele>479.9</ele>
        <time>2024-02-04T12:30:32Z</time>
      </trkpt>
      <trkpt lat="43.18104" lon="6.50118">
        <ele>479.8</ele>
        <time>2024-02-04T12:30:33Z</time>
      </trkpt>
      <trkpt lat="43.18104" lon="6.50119">
        <ele>479.8</ele>
        <time>2024-02-04T12:30:34Z</time>
      </trkpt>
      <trkpt lat="43.18103" lon="6.5012">
        <ele>479.7</ele>
        <time>2024-02-04T12:30:35Z</time>
      </trkpt>
      <trkpt lat="43.18103" lon="6.5012">
        <ele>479.6</ele>
        <time>2024-02-04T12:30:36Z</time>
      </trkpt>
      <trkpt lat="43.18102" lon="6.50121">
        <ele>479.5</ele>
        <time>2024-02-04T12:30:37Z</time>
      </trkpt>
      <trkpt lat="43.18101" lon="6.50122">
        <ele>479.3</ele>
        <time>2024-02-04T12:30:38Z</time>
      </trkpt>
      <trkpt lat="43.18101" lon="6.50123">
        <ele>479.1</ele>
        <time>2024-02-04T12:30:39Z</time>
      </trkpt>
      <trkpt lat="43.18101" lon="6.50123">
        <ele>479</ele>
        <time>2024-02-04T12:30:40Z</time>
      </trkpt>
      <trkpt lat="43.181" lon="6.50124">
        <ele>478.8</ele>
        <time>2024-02-04T12:30:41Z</time>
      </trkpt>
      <trkpt lat="43.181" lon="6.50125">
        <ele>478.6</ele>
        <time>2024-02-04T12:30:42Z</time>
      </trkpt>
      <trkpt lat="43.18099" lon="6.50125">
        <ele>478.4</ele>
        <time>2024-02-04T12:30:43Z</time>
      </trkpt>
      <trkpt lat="43.18099" lon="6.50126">
        <ele>478.1</ele>
        <time>2024-02-04T12:30:44Z</time>
      </trkpt>
      <trkpt lat="43.18098" lon="6.50128">
        <ele>477.8</ele>
        <time>2024-02-04T12:30:45Z</time>
      </trkpt>
      <trkpt lat="43.18098" lon="6.50129">
        <ele>477.6</ele>
        <time>2024-02-04T12:30:46Z</time>
      </trkpt>
      <trkpt lat="43.18098" lon="6.5013">
        <ele>477.3</ele>
        <time>2024-02-04T12:30:47Z</time>
      </trkpt>
      <trkpt lat="43.18098" lon="6.50131">
        <ele>477.1</ele>
        <time>2024-02-04T12:30:48Z</time>
      </trkpt>
      <trkpt lat="43.18097" lon="6.50132">
        <ele>477</ele>
        <time>2024-02-04T12:30:49Z</time>
      </trkpt>
      <trkpt lat="43.18097" lon="6.50133">
        <ele>476.8</ele>
        <time>2024-02-04T12:30:50Z</time>
      </trkpt>
      <trkpt lat="43.18097" lon="6.50134">
        <ele>476.6</ele>
        <time>2024-02-04T12:30:51Z</time>
      </trkpt>
      <trkpt lat="43.18096" lon="6.50135">
        <ele>476.4</ele>
        <time>2024-02-04T12:30:52Z</time>
      </trkpt>
      <trkpt lat="43.18096" lon="6.50137">
        <ele>476.1</ele>
        <time>2024-02-04T12:30:53Z</time>
      </trkpt>
      <trkpt lat="43.18096" lon="6.50138">
        <ele>476</ele>
        <time>2024-02-04T12:30:54Z</time>
      </trkpt>
      <trkpt lat="43.18096" lon="6.50138">
        <ele>475.8</ele>
        <time>2024-02-04T12:30:55Z</time>
      </trkpt>
      <trkpt lat="43.18095" lon="6.50139">
        <ele>475.8</ele>
        <time>2024-02-04T12:30:56Z</time>
      </trkpt>
      <trkpt lat="43.18094" lon="6.5014">
        <ele>475.7</ele>
        <time>2024-02-04T12:30:57Z</time>
      </trkpt>
      <trkpt lat="43.18093" lon="6.5014">
        <ele>475.6</ele>
        <time>2024-02-04T12:30:58Z</time>
      </trkpt>
      <trkpt lat="43.18092" lon="6.5014">
        <ele>475.5</ele>
        <time>2024-02-04T12:30:59Z</time>
      </trkpt>
      <trkpt lat="43.18092" lon="6.50141">
        <ele>475.4</ele>
        <time>2024-02-04T12:31:00Z</time>
      </trkpt>
      <trkpt lat="43.18091" lon="6.50141">
        <ele>475.3</ele>
        <time>2024-02-04T12:31:01Z</time>
      </trkpt>
      <trkpt lat="43.18091" lon="6.50141">
        <ele>475.2</ele>
        <time>2024-02-04T12:31:02Z</time>
      </trkpt>
      <trkpt lat="43.1809" lon="6.50141">
        <ele>475.1</ele>
        <time>2024-02-04T12:31:03Z</time>
      </trkpt>
      <trkpt lat="43.1809" lon="6.50142">
        <ele>474.9</ele>
        <time>2024-02-04T12:31:04Z</time>
      </trkpt>
      <trkpt lat="43.18089" lon="6.50142">
        <ele>474.8</ele>
        <time>2024-02-04T12:31:05Z</time>
      </trkpt>
      <trkpt lat="43.18089" lon="6.50142">
        <ele>474.5</ele>
        <time>2024-02-04T12:31:06Z</time>
      </trkpt>
      <trkpt lat="43.18088" lon="6.50142">
        <ele>474.4</ele>
        <time>2024-02-04T12:31:07Z</time>
      </trkpt>
      <trkpt lat="43.18088" lon="6.50143">
        <ele>474.3</ele>
        <time>2024-02-04T12:31:08Z</time>
      </trkpt>
      <trkpt lat="43.18087" lon="6.50143">
        <ele>474.1</ele>
        <time>2024-02-04T12:31:09Z</time>
      </trkpt>
      <trkpt lat="43.18087" lon="6.50144">
        <ele>473.9</ele>
        <time>2024-02-04T12:31:10Z</time>
      </trkpt>
      <trkpt lat="43.18087" lon="6.50144">
        <ele>473.7</ele>
        <time>2024-02-04T12:31:11Z</time>
      </trkpt>
      <trkpt lat="43.18087" lon="6.50144">
        <ele>473.6</ele>
        <time>2024-02-04T12:31:12Z</time>
      </trkpt>
      <trkpt lat="43.18087" lon="6.50144">
        <ele>473.6</ele>
        <time>2024-02-04T12:31:13Z</time>
      </trkpt>
      <trkpt lat="43.18087" lon="6.50144">
        <ele>473.6</ele>
        <time>2024-02-04T12:31:14Z</time>
      </trkpt>
      <trkpt lat="43.18087" lon="6.50143">
        <ele>473.6</ele>
        <time>2024-02-04T12:31:15Z</time>
      </trkpt>
      <trkpt lat="43.18087" lon="6.50143">
        <ele>473.6</ele>
        <time>2024-02-04T12:31:16Z</time>
      </trkpt>
      <trkpt lat="43.18086" lon="6.50143">
        <ele>473.5</ele>
        <time>2024-02-04T12:31:17Z</time>
      </trkpt>
      <trkpt lat="43.18086" lon="6.50143">
        <ele>473.5</ele>
        <time>2024-02-04T12:31:18Z</time>
      </trkpt>
      <trkpt lat="43.18086" lon="6.50143">
        <ele>473.4</ele>
        <time>2024-02-04T12:31:19Z</time>
      </trkpt>
      <trkpt lat="43.18086" lon="6.50143">
        <ele>473.4</ele>
        <time>2024-02-04T12:31:20Z</time>
      </trkpt>
      <trkpt lat="43.18086" lon="6.50143">
        <ele>473.3</ele>
        <time>2024-02-04T12:31:21Z</time>
      </trkpt>
      <trkpt lat="43.18086" lon="6.50143">
        <ele>473.3</ele>
        <time>2024-02-04T12:31:22Z</time>
      </trkpt>
      <trkpt lat="43.18086" lon="6.50143">
        <ele>473.3</ele>
        <time>2024-02-04T12:31:23Z</time>
      </trkpt>
      <trkpt lat="43.18086" lon="6.50144">
        <ele>473.3</ele>
        <time>2024-02-04T12:31:24Z</time>
      </trkpt>
      <trkpt lat="43.18086" lon="6.50144">
        <ele>473.2</ele>
        <time>2024-02-04T12:31:25Z</time>
      </trkpt>
      <trkpt lat="43.18086" lon="6.50144">
        <ele>473.2</ele>
        <time>2024-02-04T12:31:26Z</time>
      </trkpt>
      <trkpt lat="43.18086" lon="6.50144">
        <ele>473.2</ele>
        <time>2024-02-04T12:31:27Z</time>
      </trkpt>
      <trkpt lat="43.18086" lon="6.50144">
        <ele>473.2</ele>
        <time>2024-02-04T12:31:28Z</time>
      </trkpt>
      <trkpt lat="43.18086" lon="6.50144">
        <ele>473.2</ele>
        <time>2024-02-04T12:31:29Z</time>
      </trkpt>
      <trkpt lat="43.18086" lon="6.50144">
        <ele>473.1</ele>
        <time>2024-02-04T12:31:30Z</time>
      </trkpt>
      <trkpt lat="43.18086" lon="6.50144">
        <ele>473.2</ele>
        <time>2024-02-04T12:31:31Z</time>
      </trkpt>
      <trkpt lat="43.18086" lon="6.50144">
        <ele>473.3</ele>
        <time>2024-02-04T12:31:32Z</time>
      </trkpt>
      <trkpt lat="43.18086" lon="6.50144">
        <ele>473.2</ele>
        <time>2024-02-04T12:31:33Z</time>
      </trkpt>
      <trkpt lat="43.18086" lon="6.50144">
        <ele>473.3</ele>
        <time>2024-02-04T12:31:34Z</time>
      </trkpt>
      <trkpt lat="43.18085" lon="6.50144">
        <ele>473.3</ele>
        <time>2024-02-04T12:31:35Z</time>
      </trkpt>
      <trkpt lat="43.18085" lon="6.50144">
        <ele>473.3</ele>
        <time>2024-02-04T12:31:36Z</time>
      </trkpt>
      <trkpt lat="43.18085" lon="6.50144">
        <ele>473.2</ele>
        <time>2024-02-04T12:31:37Z</time>
      </trkpt>
      <trkpt lat="43.18085" lon="6.50144">
        <ele>473.2</ele>
        <time>2024-02-04T12:31:38Z</time>
      </trkpt>
      <trkpt lat="43.18085" lon="6.50144">
        <ele>473.3</ele>
        <time>2024-02-04T12:31:39Z</time>
      </trkpt>
      <trkpt lat="43.18085" lon="6.50144">
        <ele>473.3</ele>
        <time>2024-02-04T12:31:40Z</time>
      </trkpt>
      <trkpt lat="43.18085" lon="6.50144">
        <ele>473.3</ele>
        <time>2024-02-04T12:31:41Z</time>
      </trkpt>
      <trkpt lat="43.18085" lon="6.50144">
        <ele>473.3</ele>
        <time>2024-02-04T12:31:42Z</time>
      </trkpt>
      <trkpt lat="43.18085" lon="6.50144">
        <ele>473.3</ele>
        <time>2024-02-04T12:31:43Z</time>
      </trkpt>
      <trkpt lat="43.18085" lon="6.50144">
        <ele>473.2</ele>
        <time>2024-02-04T12:31:44Z</time>
      </trkpt>
      <trkpt lat="43.18084" lon="6.50145">
        <ele>473.2</ele>
        <time>2024-02-04T12:31:45Z</time>
      </trkpt>
      <trkpt lat="43.18083" lon="6.50145">
        <ele>473.1</ele>
        <time>2024-02-04T12:31:46Z</time>
      </trkpt>
      <trkpt lat="43.18083" lon="6.50145">
        <ele>473.2</ele>
        <time>2024-02-04T12:31:47Z</time>
      </trkpt>
      <trkpt lat="43.18082" lon="6.50145">
        <ele>473.1</ele>
        <time>2024-02-04T12:31:48Z</time>
      </trkpt>
      <trkpt lat="43.18081" lon="6.50145">
        <ele>473</ele>
        <time>2024-02-04T12:31:49Z</time>
      </trkpt>
      <trkpt lat="43.18081" lon="6.50145">
        <ele>472.8</ele>
        <time>2024-02-04T12:31:50Z</time>
      </trkpt>
      <trkpt lat="43.1808" lon="6.50146">
        <ele>472.6</ele>
        <time>2024-02-04T12:31:51Z</time>
      </trkpt>
      <trkpt lat="43.1808" lon="6.50146">
        <ele>472.5</ele>
        <time>2024-02-04T12:31:52Z</time>
      </trkpt>
      <trkpt lat="43.1808" lon="6.50146">
        <ele>472.4</ele>
        <time>2024-02-04T12:31:53Z</time>
      </trkpt>
      <trkpt lat="43.1808" lon="6.50146">
        <ele>472.3</ele>
        <time>2024-02-04T12:31:54Z</time>
      </trkpt>
      <trkpt lat="43.1808" lon="6.50145">
        <ele>472.1</ele>
        <time>2024-02-04T12:31:55Z</time>
      </trkpt>
      <trkpt lat="43.1808" lon="6.50145">
        <ele>472</ele>
        <time>2024-02-04T12:31:56Z</time>
      </trkpt>
      <trkpt lat="43.18079" lon="6.50145">
        <ele>471.9</ele>
        <time>2024-02-04T12:31:57Z</time>
      </trkpt>
      <trkpt lat="43.18078" lon="6.50146">
        <ele>471.9</ele>
        <time>2024-02-04T12:31:58Z</time>
      </trkpt>
      <trkpt lat="43.18078" lon="6.50146">
        <ele>471.7</ele>
        <time>2024-02-04T12:31:59Z</time>
      </trkpt>
      <trkpt lat="43.18078" lon="6.50147">
        <ele>471.6</ele>
        <time>2024-02-04T12:32:00Z</time>
      </trkpt>
      <trkpt lat="43.18078" lon="6.50147">
        <ele>471.6</ele>
        <time>2024-02-04T12:32:01Z</time>
      </trkpt>
      <trkpt lat="43.18078" lon="6.50147">
        <ele>471.5</ele>
        <time>2024-02-04T12:32:02Z</time>
      </trkpt>
      <trkpt lat="43.18077" lon="6.50147">
        <ele>471.4</ele>
        <time>2024-02-04T12:32:03Z</time>
      </trkpt>
      <trkpt lat="43.18077" lon="6.50147">
        <ele>471.3</ele>
        <time>2024-02-04T12:32:04Z</time>
      </trkpt>
      <trkpt lat="43.18077" lon="6.50148">
        <ele>471.3</ele>
        <time>2024-02-04T12:32:05Z</time>
      </trkpt>
      <trkpt lat="43.18077" lon="6.50147">
        <ele>471.2</ele>
        <time>2024-02-04T12:32:06Z</time>
      </trkpt>
      <trkpt lat="43.18077" lon="6.50147">
        <ele>471.2</ele>
        <time>2024-02-04T12:32:07Z</time>
      </trkpt>
      <trkpt lat="43.18076" lon="6.50147">
        <ele>471.1</ele>
        <time>2024-02-04T12:32:08Z</time>
      </trkpt>
      <trkpt lat="43.18075" lon="6.50147">
        <ele>471</ele>
        <time>2024-02-04T12:32:09Z</time>
      </trkpt>
      <trkpt lat="43.18074" lon="6.50147">
        <ele>470.8</ele>
        <time>2024-02-04T12:32:10Z</time>
      </trkpt>
      <trkpt lat="43.18073" lon="6.50147">
        <ele>470.8</ele>
        <time>2024-02-04T12:32:11Z</time>
      </trkpt>
      <trkpt lat="43.18073" lon="6.50147">
        <ele>470.8</ele>
        <time>2024-02-04T12:32:12Z</time>
      </trkpt>
      <trkpt lat="43.18072" lon="6.50147">
        <ele>470.7</ele>
        <time>2024-02-04T12:32:13Z</time>
      </trkpt>
      <trkpt lat="43.18072" lon="6.50147">
        <ele>470.7</ele>
        <time>2024-02-04T12:32:14Z</time>
      </trkpt>
      <trkpt lat="43.18072" lon="6.50147">
        <ele>470.7</ele>
        <time>2024-02-04T12:32:15Z</time>
      </trkpt>
      <trkpt lat="43.18071" lon="6.50147">
        <ele>470.8</ele>
        <time>2024-02-04T12:32:16Z</time>
      </trkpt>
      <trkpt lat="43.1807" lon="6.50147">
        <ele>470.8</ele>
        <time>2024-02-04T12:32:17Z</time>
      </trkpt>
      <trkpt lat="43.18069" lon="6.50148">
        <ele>470.7</ele>
        <time>2024-02-04T12:32:18Z</time>
      </trkpt>
      <trkpt lat="43.18069" lon="6.50148">
        <ele>470.7</ele>
        <time>2024-02-04T12:32:19Z</time>
      </trkpt>
      <trkpt lat="43.18068" lon="6.50149">
        <ele>470.6</ele>
        <time>2024-02-04T12:32:20Z</time>
      </trkpt>
      <trkpt lat="43.18067" lon="6.50149">
        <ele>470.5</ele>
        <time>2024-02-04T12:32:21Z</time>
      </trkpt>
      <trkpt lat="43.18066" lon="6.5015">
        <ele>470.5</ele>
        <time>2024-02-04T12:32:22Z</time>
      </trkpt>
      <trkpt lat="43.18065" lon="6.5015">
        <ele>470.4</ele>
        <time>2024-02-04T12:32:23Z</time>
      </trkpt>
      <trkpt lat="43.18064" lon="6.50151">
        <ele>470.3</ele>
        <time>2024-02-04T12:32:24Z</time>
      </trkpt>
      <trkpt lat="43.18064" lon="6.50152">
        <ele>470.1</ele>
        <time>2024-02-04T12:32:25Z</time>
      </trkpt>
      <trkpt lat="43.18063" lon="6.50153">
        <ele>470</ele>
        <time>2024-02-04T12:32:26Z</time>
      </trkpt>
      <trkpt lat="43.18063" lon="6.50153">
        <ele>469.9</ele>
        <time>2024-02-04T12:32:27Z</time>
      </trkpt>
      <trkpt lat="43.18062" lon="6.50154">
        <ele>469.7</ele>
        <time>2024-02-04T12:32:28Z</time>
      </trkpt>
      <trkpt lat="43.18061" lon="6.50155">
        <ele>469.6</ele>
        <time>2024-02-04T12:32:29Z</time>
      </trkpt>
      <trkpt lat="43.1806" lon="6.50155">
        <ele>469.6</ele>
        <time>2024-02-04T12:32:30Z</time>
      </trkpt>
      <trkpt lat="43.1806" lon="6.50155">
        <ele>469.5</ele>
        <time>2024-02-04T12:32:31Z</time>
      </trkpt>
      <trkpt lat="43.18059" lon="6.50154">
        <ele>469.3</ele>
        <time>2024-02-04T12:32:32Z</time>
      </trkpt>
      <trkpt lat="43.18059" lon="6.50154">
        <ele>469.1</ele>
        <time>2024-02-04T12:32:33Z</time>
      </trkpt>
      <trkpt lat="43.18058" lon="6.50154">
        <ele>469</ele>
        <time>2024-02-04T12:32:34Z</time>
      </trkpt>
      <trkpt lat="43.18058" lon="6.50153">
        <ele>468.8</ele>
        <time>2024-02-04T12:32:35Z</time>
      </trkpt>
      <trkpt lat="43.18058" lon="6.50153">
        <ele>468.6</ele>
        <time>2024-02-04T12:32:36Z</time>
      </trkpt>
      <trkpt lat="43.18058" lon="6.50152">
        <ele>468.3</ele>
        <time>2024-02-04T12:32:37Z</time>
      </trkpt>
      <trkpt lat="43.18057" lon="6.50151">
        <ele>468</ele>
        <time>2024-02-04T12:32:38Z</time>
      </trkpt>
      <trkpt lat="43.18057" lon="6.5015">
        <ele>467.7</ele>
        <time>2024-02-04T12:32:39Z</time>
      </trkpt>
      <trkpt lat="43.18056" lon="6.50149">
        <ele>467.5</ele>
        <time>2024-02-04T12:32:40Z</time>
      </trkpt>
      <trkpt lat="43.18056" lon="6.50148">
        <ele>467.3</ele>
        <time>2024-02-04T12:32:41Z</time>
      </trkpt>
      <trkpt lat="43.18056" lon="6.50148">
        <ele>467.1</ele>
        <time>2024-02-04T12:32:42Z</time>
      </trkpt>
      <trkpt lat="43.18056" lon="6.50147">
        <ele>467</ele>
        <time>2024-02-04T12:32:43Z</time>
      </trkpt>
      <trkpt lat="43.18056" lon="6.50146">
        <ele>466.7</ele>
        <time>2024-02-04T12:32:44Z</time>
      </trkpt>
      <trkpt lat="43.18055" lon="6.50146">
        <ele>466.4</ele>
        <time>2024-02-04T12:32:45Z</time>
      </trkpt>
      <trkpt lat="43.18055" lon="6.50145">
        <ele>466.2</ele>
        <time>2024-02-04T12:32:46Z</time>
      </trkpt>
      <trkpt lat="43.18055" lon="6.50145">
        <ele>465.8</ele>
        <time>2024-02-04T12:32:47Z</time>
      </trkpt>
      <trkpt lat="43.18055" lon="6.50144">
        <ele>465.5</ele>
        <time>2024-02-04T12:32:48Z</time>
      </trkpt>
      <trkpt lat="43.18055" lon="6.50143">
        <ele>465.2</ele>
        <time>2024-02-04T12:32:49Z</time>
      </trkpt>
      <trkpt lat="43.18056" lon="6.50143">
        <ele>464.9</ele>
        <time>2024-02-04T12:32:50Z</time>
      </trkpt>
      <trkpt lat="43.18056" lon="6.50142">
        <ele>464.7</ele>
        <time>2024-02-04T12:32:51Z</time>
      </trkpt>
      <trkpt lat="43.18056" lon="6.50141">
        <ele>464.5</ele>
        <time>2024-02-04T12:32:52Z</time>
      </trkpt>
      <trkpt lat="43.18056" lon="6.5014">
        <ele>464.2</ele>
        <time>2024-02-04T12:32:53Z</time>
      </trkpt>
      <trkpt lat="43.18056" lon="6.50139">
        <ele>463.9</ele>
        <time>2024-02-04T12:32:54Z</time>
      </trkpt>
      <trkpt lat="43.18056" lon="6.50138">
        <ele>463.7</ele>
        <time>2024-02-04T12:32:55Z</time>
      </trkpt>
      <trkpt lat="43.18055" lon="6.50137">
        <ele>463.4</ele>
        <time>2024-02-04T12:32:56Z</time>
      </trkpt>
      <trkpt lat="43.18055" lon="6.50136">
        <ele>463.2</ele>
        <time>2024-02-04T12:32:57Z</time>
      </trkpt>
      <trkpt lat="43.18054" lon="6.50136">
        <ele>462.8</ele>
        <time>2024-02-04T12:32:58Z</time>
      </trkpt>
      <trkpt lat="43.18054" lon="6.50136">
        <ele>462.5</ele>
        <time>2024-02-04T12:32:59Z</time>
      </trkpt>
      <trkpt lat="43.18054" lon="6.50137">
        <ele>462.2</ele>
        <time>2024-02-04T12:33:00Z</time>
      </trkpt>
      <trkpt lat="43.18053" lon="6.50137">
        <ele>461.9</ele>
        <time>2024-02-04T12:33:01Z</time>
      </trkpt>
      <trkpt lat="43.18053" lon="6.50137">
        <ele>461.6</ele>
        <time>2024-02-04T12:33:02Z</time>
      </trkpt>
      <trkpt lat="43.18053" lon="6.50138">
        <ele>461.3</ele>
        <time>2024-02-04T12:33:03Z</time>
      </trkpt>
      <trkpt lat="43.18052" lon="6.50138">
        <ele>461.1</ele>
        <time>2024-02-04T12:33:04Z</time>
      </trkpt>
      <trkpt lat="43.18051" lon="6.50137">
        <ele>460.9</ele>
        <time>2024-02-04T12:33:05Z</time>
      </trkpt>
      <trkpt lat="43.18051" lon="6.50136">
        <ele>460.6</ele>
        <time>2024-02-04T12:33:06Z</time>
      </trkpt>
      <trkpt lat="43.1805" lon="6.50134">
        <ele>460.3</ele>
        <time>2024-02-04T12:33:07Z</time>
      </trkpt>
      <trkpt lat="43.1805" lon="6.50134">
        <ele>460</ele>
        <time>2024-02-04T12:33:08Z</time>
      </trkpt>
      <trkpt lat="43.1805" lon="6.50133">
        <ele>459.7</ele>
        <time>2024-02-04T12:33:09Z</time>
      </trkpt>
      <trkpt lat="43.18049" lon="6.50133">
        <ele>459.4</ele>
        <time>2024-02-04T12:33:10Z</time>
      </trkpt>
      <trkpt lat="43.18049" lon="6.50132">
        <ele>459.1</ele>
        <time>2024-02-04T12:33:11Z</time>
      </trkpt>
      <trkpt lat="43.18049" lon="6.50131">
        <ele>458.8</ele>
        <time>2024-02-04T12:33:12Z</time>
      </trkpt>
      <trkpt lat="43.18049" lon="6.5013">
        <ele>458.6</ele>
        <time>2024-02-04T12:33:13Z</time>
      </trkpt>
      <trkpt lat="43.18049" lon="6.5013">
        <ele>458.3</ele>
        <time>2024-02-04T12:33:14Z</time>
      </trkpt>
      <trkpt lat="43.18049" lon="6.50129">
        <ele>458.1</ele>
        <time>2024-02-04T12:33:15Z</time>
      </trkpt>
      <trkpt lat="43.18048" lon="6.50129">
        <ele>457.8</ele>
        <time>2024-02-04T12:33:16Z</time>
      </trkpt>
      <trkpt lat="43.18048" lon="6.50128">
        <ele>457.5</ele>
        <time>2024-02-04T12:33:17Z</time>
      </trkpt>
      <trkpt lat="43.18048" lon="6.50128">
        <ele>457.3</ele>
        <time>2024-02-04T12:33:18Z</time>
      </trkpt>
      <trkpt lat="43.18048" lon="6.50127">
        <ele>457.1</ele>
        <time>2024-02-04T12:33:19Z</time>
      </trkpt>
      <trkpt lat="43.18048" lon="6.50127">
        <ele>456.8</ele>
        <time>2024-02-04T12:33:20Z</time>
      </trkpt>
      <trkpt lat="43.18048" lon="6.50126">
        <ele>456.6</ele>
        <time>2024-02-04T12:33:21Z</time>
      </trkpt>
      <trkpt lat="43.18047" lon="6.50126">
        <ele>456.4</ele>
        <time>2024-02-04T12:33:22Z</time>
      </trkpt>
      <trkpt lat="43.18047" lon="6.50126">
        <ele>456.2</ele>
        <time>2024-02-04T12:33:23Z</time>
      </trkpt>
      <trkpt lat="43.18046" lon="6.50125">
        <ele>456.1</ele>
        <time>2024-02-04T12:33:24Z</time>
      </trkpt>
      <trkpt lat="43.18046" lon="6.50124">
        <ele>455.8</ele>
        <time>2024-02-04T12:33:25Z</time>
      </trkpt>
      <trkpt lat="43.18046" lon="6.50124">
        <ele>455.6</ele>
        <time>2024-02-04T12:33:26Z</time>
      </trkpt>
      <trkpt lat="43.18046" lon="6.50123">
        <ele>455.4</ele>
        <time>2024-02-04T12:33:27Z</time>
      </trkpt>
      <trkpt lat="43.18046" lon="6.50122">
        <ele>455</ele>
        <time>2024-02-04T12:33:28Z</time>
      </trkpt>
      <trkpt lat="43.18046" lon="6.50121">
        <ele>454.7</ele>
        <time>2024-02-04T12:33:29Z</time>
      </trkpt>
      <trkpt lat="43.18045" lon="6.5012">
        <ele>454.4</ele>
        <time>2024-02-04T12:33:30Z</time>
      </trkpt>
      <trkpt lat="43.18045" lon="6.50119">
        <ele>454.2</ele>
        <time>2024-02-04T12:33:31Z</time>
      </trkpt>
      <trkpt lat="43.18044" lon="6.50119">
        <ele>453.9</ele>
        <time>2024-02-04T12:33:32Z</time>
      </trkpt>
      <trkpt lat="43.18044" lon="6.50118">
        <ele>453.7</ele>
        <time>2024-02-04T12:33:33Z</time>
      </trkpt>
      <trkpt lat="43.18044" lon="6.50117">
        <ele>453.5</ele>
        <time>2024-02-04T12:33:34Z</time>
      </trkpt>
      <trkpt lat="43.18044" lon="6.50117">
        <ele>453.3</ele>
        <time>2024-02-04T12:33:35Z</time>
      </trkpt>
      <trkpt lat="43.18044" lon="6.50116">
        <ele>453</ele>
        <time>2024-02-04T12:33:36Z</time>
      </trkpt>
      <trkpt lat="43.18044" lon="6.50115">
        <ele>452.8</ele>
        <time>2024-02-04T12:33:37Z</time>
      </trkpt>
      <trkpt lat="43.18044" lon="6.50114">
        <ele>452.6</ele>
        <time>2024-02-04T12:33:38Z</time>
      </trkpt>
      <trkpt lat="43.18044" lon="6.50113">
        <ele>452.4</ele>
        <time>2024-02-04T12:33:39Z</time>
      </trkpt>
      <trkpt lat="43.18044" lon="6.50112">
        <ele>452.2</ele>
        <time>2024-02-04T12:33:40Z</time>
      </trkpt>
      <trkpt lat="43.18044" lon="6.50112">
        <ele>452</ele>
        <time>2024-02-04T12:33:41Z</time>
      </trkpt>
      <trkpt lat="43.18043" lon="6.50111">
        <ele>451.8</ele>
        <time>2024-02-04T12:33:42Z</time>
      </trkpt>
      <trkpt lat="43.18043" lon="6.50111">
        <ele>451.5</ele>
        <time>2024-02-04T12:33:43Z</time>
      </trkpt>
      <trkpt lat="43.18043" lon="6.5011">
        <ele>451.4</ele>
        <time>2024-02-04T12:33:44Z</time>
      </trkpt>
      <trkpt lat="43.18043" lon="6.5011">
        <ele>451.3</ele>
        <time>2024-02-04T12:33:45Z</time>
      </trkpt>
      <trkpt lat="43.18043" lon="6.50109">
        <ele>451.2</ele>
        <time>2024-02-04T12:33:46Z</time>
      </trkpt>
      <trkpt lat="43.18043" lon="6.50109">
        <ele>451.2</ele>
        <time>2024-02-04T12:33:47Z</time>
      </trkpt>
      <trkpt lat="43.18043" lon="6.50109">
        <ele>451.1</ele>
        <time>2024-02-04T12:33:48Z</time>
      </trkpt>
      <trkpt lat="43.18043" lon="6.50108">
        <ele>451</ele>
        <time>2024-02-04T12:33:49Z</time>
      </trkpt>
      <trkpt lat="43.18043" lon="6.50108">
        <ele>451</ele>
        <time>2024-02-04T12:33:50Z</time>
      </trkpt>
      <trkpt lat="43.18043" lon="6.50108">
        <ele>450.9</ele>
        <time>2024-02-04T12:33:51Z</time>
      </trkpt>
      <trkpt lat="43.18043" lon="6.50108">
        <ele>450.8</ele>
        <time>2024-02-04T12:33:52Z</time>
      </trkpt>
      <trkpt lat="43.18043" lon="6.50108">
        <ele>450.7</ele>
        <time>2024-02-04T12:33:53Z</time>
      </trkpt>
      <trkpt lat="43.18043" lon="6.50108">
        <ele>450.5</ele>
        <time>2024-02-04T12:33:54Z</time>
      </trkpt>
      <trkpt lat="43.18043" lon="6.50107">
        <ele>450.3</ele>
        <time>2024-02-04T12:33:55Z</time>
      </trkpt>
      <trkpt lat="43.18043" lon="6.50107">
        <ele>450.2</ele>
        <time>2024-02-04T12:33:56Z</time>
      </trkpt>
      <trkpt lat="43.18042" lon="6.50106">
        <ele>450.1</ele>
        <time>2024-02-04T12:33:57Z</time>
      </trkpt>
      <trkpt lat="43.18042" lon="6.50106">
        <ele>450</ele>
        <time>2024-02-04T12:33:58Z</time>
      </trkpt>
      <trkpt lat="43.18042" lon="6.50106">
        <ele>449.9</ele>
        <time>2024-02-04T12:33:59Z</time>
      </trkpt>
      <trkpt lat="43.18042" lon="6.50106">
        <ele>449.7</ele>
        <time>2024-02-04T12:34:00Z</time>
      </trkpt>
      <trkpt lat="43.18041" lon="6.50106">
        <ele>449.5</ele>
        <time>2024-02-04T12:34:01Z</time>
      </trkpt>
      <trkpt lat="43.18041" lon="6.50105">
        <ele>449.3</ele>
        <time>2024-02-04T12:34:02Z</time>
      </trkpt>
      <trkpt lat="43.18041" lon="6.50105">
        <ele>449.2</ele>
        <time>2024-02-04T12:34:03Z</time>
      </trkpt>
      <trkpt lat="43.1804" lon="6.50105">
        <ele>449</ele>
        <time>2024-02-04T12:34:04Z</time>
      </trkpt>
      <trkpt lat="43.1804" lon="6.50105">
        <ele>448.9</ele>
        <time>2024-02-04T12:34:05Z</time>
      </trkpt>
      <trkpt lat="43.1804" lon="6.50104">
        <ele>448.7</ele>
        <time>2024-02-04T12:34:06Z</time>
      </trkpt>
      <trkpt lat="43.18039" lon="6.50103">
        <ele>448.6</ele>
        <time>2024-02-04T12:34:07Z</time>
      </trkpt>
      <trkpt lat="43.18039" lon="6.50102">
        <ele>448.4</ele>
        <time>2024-02-04T12:34:08Z</time>
      </trkpt>
      <trkpt lat="43.18038" lon="6.50102">
        <ele>448.2</ele>
        <time>2024-02-04T12:34:09Z</time>
      </trkpt>
      <trkpt lat="43.18038" lon="6.50101">
        <ele>448</ele>
        <time>2024-02-04T12:34:10Z</time>
      </trkpt>
      <trkpt lat="43.18038" lon="6.50101">
        <ele>447.9</ele>
        <time>2024-02-04T12:34:11Z</time>
      </trkpt>
      <trkpt lat="43.18038" lon="6.501">
        <ele>447.6</ele>
        <time>2024-02-04T12:34:12Z</time>
      </trkpt>
      <trkpt lat="43.18038" lon="6.501">
        <ele>447.4</ele>
        <time>2024-02-04T12:34:13Z</time>
      </trkpt>
      <trkpt lat="43.18037" lon="6.50099">
        <ele>447.2</ele>
        <time>2024-02-04T12:34:14Z</time>
      </trkpt>
      <trkpt lat="43.18037" lon="6.50099">
        <ele>447</ele>
        <time>2024-02-04T12:34:15Z</time>
      </trkpt>
      <trkpt lat="43.18036" lon="6.50098">
        <ele>446.8</ele>
        <time>2024-02-04T12:34:16Z</time>
      </trkpt>
      <trkpt lat="43.18036" lon="6.50097">
        <ele>446.6</ele>
        <time>2024-02-04T12:34:17Z</time>
      </trkpt>
      <trkpt lat="43.18035" lon="6.50097">
        <ele>446.4</ele>
        <time>2024-02-04T12:34:18Z</time>
      </trkpt>
      <trkpt lat="43.18035" lon="6.50096">
        <ele>446.2</ele>
        <time>2024-02-04T12:34:19Z</time>
      </trkpt>
      <trkpt lat="43.18035" lon="6.50095">
        <ele>446.1</ele>
        <time>2024-02-04T12:34:20Z</time>
      </trkpt>
      <trkpt lat="43.18034" lon="6.50095">
        <ele>445.8</ele>
        <time>2024-02-04T12:34:21Z</time>
      </trkpt>
      <trkpt lat="43.18034" lon="6.50095">
        <ele>445.6</ele>
        <time>2024-02-04T12:34:22Z</time>
      </trkpt>
      <trkpt lat="43.18034" lon="6.50094">
        <ele>445.4</ele>
        <time>2024-02-04T12:34:23Z</time>
      </trkpt>
      <trkpt lat="43.18034" lon="6.50093">
        <ele>445.2</ele>
        <time>2024-02-04T12:34:24Z</time>
      </trkpt>
      <trkpt lat="43.18034" lon="6.50093">
        <ele>445.1</ele>
        <time>2024-02-04T12:34:25Z</time>
      </trkpt>
      <trkpt lat="43.18033" lon="6.50093">
        <ele>445</ele>
        <time>2024-02-04T12:34:26Z</time>
      </trkpt>
      <trkpt lat="43.18033" lon="6.50093">
        <ele>444.9</ele>
        <time>2024-02-04T12:34:27Z</time>
      </trkpt>
      <trkpt lat="43.18033" lon="6.50092">
        <ele>444.8</ele>
        <time>2024-02-04T12:34:28Z</time>
      </trkpt>
      <trkpt lat="43.18033" lon="6.50092">
        <ele>444.7</ele>
        <time>2024-02-04T12:34:29Z</time>
      </trkpt>
      <trkpt lat="43.18033" lon="6.50092">
        <ele>444.6</ele>
        <time>2024-02-04T12:34:30Z</time>
      </trkpt>
      <trkpt lat="43.18033" lon="6.50092">
        <ele>444.5</ele>
        <time>2024-02-04T12:34:31Z</time>
      </trkpt>
      <trkpt lat="43.18032" lon="6.50092">
        <ele>444.4</ele>
        <time>2024-02-04T12:34:32Z</time>
      </trkpt>
      <trkpt lat="43.18032" lon="6.50092">
        <ele>444.3</ele>
        <time>2024-02-04T12:34:33Z</time>
      </trkpt>
      <trkpt lat="43.18032" lon="6.50091">
        <ele>444.3</ele>
        <time>2024-02-04T12:34:34Z</time>
      </trkpt>
      <trkpt lat="43.18032" lon="6.50091">
        <ele>444.3</ele>
        <time>2024-02-04T12:34:35Z</time>
      </trkpt>
      <trkpt lat="43.18032" lon="6.50091">
        <ele>444.2</ele>
        <time>2024-02-04T12:34:36Z</time>
      </trkpt>
      <trkpt lat="43.18032" lon="6.50091">
        <ele>444.1</ele>
        <time>2024-02-04T12:34:37Z</time>
      </trkpt>
      <trkpt lat="43.18032" lon="6.50091">
        <ele>444</ele>
        <time>2024-02-04T12:34:38Z</time>
      </trkpt>
      <trkpt lat="43.18032" lon="6.50091">
        <ele>444</ele>
        <time>2024-02-04T12:34:39Z</time>
      </trkpt>
      <trkpt lat="43.18032" lon="6.5009">
        <ele>443.9</ele>
        <time>2024-02-04T12:34:40Z</time>
      </trkpt>
      <trkpt lat="43.18031" lon="6.5009">
        <ele>443.9</ele>
        <time>2024-02-04T12:34:41Z</time>
      </trkpt>
      <trkpt lat="43.18031" lon="6.50089">
        <ele>443.9</ele>
        <time>2024-02-04T12:34:42Z</time>
      </trkpt>
      <trkpt lat="43.1803" lon="6.50089">
        <ele>443.8</ele>
        <time>2024-02-04T12:34:43Z</time>
      </trkpt>
      <trkpt lat="43.1803" lon="6.50088">
        <ele>443.7</ele>
        <time>2024-02-04T12:34:44Z</time>
      </trkpt>
      <trkpt lat="43.1803" lon="6.50088">
        <ele>443.7</ele>
        <time>2024-02-04T12:34:45Z</time>
      </trkpt>
      <trkpt lat="43.18029" lon="6.50087">
        <ele>443.5</ele>
        <time>2024-02-04T12:34:46Z</time>
      </trkpt>
      <trkpt lat="43.18029" lon="6.50087">
        <ele>443.3</ele>
        <time>2024-02-04T12:34:47Z</time>
      </trkpt>
      <trkpt lat="43.18029" lon="6.50087">
        <ele>443.1</ele>
        <time>2024-02-04T12:34:48Z</time>
      </trkpt>
      <trkpt lat="43.18029" lon="6.50087">
        <ele>442.9</ele>
        <time>2024-02-04T12:34:49Z</time>
      </trkpt>
      <trkpt lat="43.18028" lon="6.50087">
        <ele>442.8</ele>
        <time>2024-02-04T12:34:50Z</time>
      </trkpt>
      <trkpt lat="43.18028" lon="6.50087">
        <ele>442.6</ele>
        <time>2024-02-04T12:34:51Z</time>
      </trkpt>
      <trkpt lat="43.18028" lon="6.50086">
        <ele>442.5</ele>
        <time>2024-02-04T12:34:52Z</time>
      </trkpt>
      <trkpt lat="43.18028" lon="6.50086">
        <ele>442.4</ele>
        <time>2024-02-04T12:34:53Z</time>
      </trkpt>
      <trkpt lat="43.18028" lon="6.50086">
        <ele>442.2</ele>
        <time>2024-02-04T12:34:54Z</time>
      </trkpt>
      <trkpt lat="43.18027" lon="6.50085">
        <ele>442.1</ele>
        <time>2024-02-04T12:34:55Z</time>
      </trkpt>
      <trkpt lat="43.18026" lon="6.50084">
        <ele>441.9</ele>
        <time>2024-02-04T12:34:56Z</time>
      </trkpt>
      <trkpt lat="43.18024" lon="6.50082">
        <ele>441.7</ele>
        <time>2024-02-04T12:34:57Z</time>
      </trkpt>
      <trkpt lat="43.18023" lon="6.50082">
        <ele>441.5</ele>
        <time>2024-02-04T12:34:58Z</time>
      </trkpt>
      <trkpt lat="43.18022" lon="6.50083">
        <ele>441.3</ele>
        <time>2024-02-04T12:34:59Z</time>
      </trkpt>
      <trkpt lat="43.18022" lon="6.50083">
        <ele>441.1</ele>
        <time>2024-02-04T12:35:00Z</time>
      </trkpt>
      <trkpt lat="43.18021" lon="6.50084">
        <ele>441</ele>
        <time>2024-02-04T12:35:01Z</time>
      </trkpt>
      <trkpt lat="43.18021" lon="6.50084">
        <ele>440.9</ele>
        <time>2024-02-04T12:35:02Z</time>
      </trkpt>
      <trkpt lat="43.1802" lon="6.50084">
        <ele>440.7</ele>
        <time>2024-02-04T12:35:03Z</time>
      </trkpt>
      <trkpt lat="43.1802" lon="6.50084">
        <ele>440.5</ele>
        <time>2024-02-04T12:35:04Z</time>
      </trkpt>
      <trkpt lat="43.1802" lon="6.50084">
        <ele>440.4</ele>
        <time>2024-02-04T12:35:05Z</time>
      </trkpt>
      <trkpt lat="43.1802" lon="6.50084">
        <ele>440.4</ele>
        <time>2024-02-04T12:35:06Z</time>
      </trkpt>
      <trkpt lat="43.18019" lon="6.50084">
        <ele>440.3</ele>
        <time>2024-02-04T12:35:07Z</time>
      </trkpt>
      <trkpt lat="43.18019" lon="6.50084">
        <ele>440.3</ele>
        <time>2024-02-04T12:35:08Z</time>
      </trkpt>
      <trkpt lat="43.18019" lon="6.50084">
        <ele>440.3</ele>
        <time>2024-02-04T12:35:09Z</time>
      </trkpt>
      <trkpt lat="43.18019" lon="6.50084">
        <ele>440.2</ele>
        <time>2024-02-04T12:35:10Z</time>
      </trkpt>
      <trkpt lat="43.18018" lon="6.50084">
        <ele>440.1</ele>
        <time>2024-02-04T12:35:11Z</time>
      </trkpt>
      <trkpt lat="43.18018" lon="6.50084">
        <ele>440.1</ele>
        <time>2024-02-04T12:35:12Z</time>
      </trkpt>
      <trkpt lat="43.18018" lon="6.50083">
        <ele>440.2</ele>
        <time>2024-02-04T12:35:13Z</time>
      </trkpt>
      <trkpt lat="43.18018" lon="6.50083">
        <ele>440.2</ele>
        <time>2024-02-04T12:35:14Z</time>
      </trkpt>
      <trkpt lat="43.18018" lon="6.50083">
        <ele>440.2</ele>
        <time>2024-02-04T12:35:15Z</time>
      </trkpt>
      <trkpt lat="43.18018" lon="6.50083">
        <ele>440.2</ele>
        <time>2024-02-04T12:35:16Z</time>
      </trkpt>
      <trkpt lat="43.18017" lon="6.50084">
        <ele>440.1</ele>
        <time>2024-02-04T12:35:17Z</time>
      </trkpt>
      <trkpt lat="43.18017" lon="6.50083">
        <ele>440.1</ele>
        <time>2024-02-04T12:35:18Z</time>
      </trkpt>
      <trkpt lat="43.18017" lon="6.50083">
        <ele>440.1</ele>
        <time>2024-02-04T12:35:19Z</time>
      </trkpt>
      <trkpt lat="43.18017" lon="6.50083">
        <ele>440</ele>
        <time>2024-02-04T12:35:20Z</time>
      </trkpt>
      <trkpt lat="43.18017" lon="6.50083">
        <ele>439.9</ele>
        <time>2024-02-04T12:35:21Z</time>
      </trkpt>
      <trkpt lat="43.18017" lon="6.50083">
        <ele>439.9</ele>
        <time>2024-02-04T12:35:22Z</time>
      </trkpt>
      <trkpt lat="43.18017" lon="6.50083">
        <ele>439.9</ele>
        <time>2024-02-04T12:35:23Z</time>
      </trkpt>
      <trkpt lat="43.18017" lon="6.50083">
        <ele>440</ele>
        <time>2024-02-04T12:35:24Z</time>
      </trkpt>
      <trkpt lat="43.18017" lon="6.50083">
        <ele>440.1</ele>
        <time>2024-02-04T12:35:25Z</time>
      </trkpt>
      <trkpt lat="43.18017" lon="6.50083">
        <ele>440.2</ele>
        <time>2024-02-04T12:35:26Z</time>
      </trkpt>
      <trkpt lat="43.18017" lon="6.50083">
        <ele>440.3</ele>
        <time>2024-02-04T12:35:27Z</time>
      </trkpt>
      <trkpt lat="43.18017" lon="6.50084">
        <ele>440.3</ele>
        <time>2024-02-04T12:35:28Z</time>
      </trkpt>
      <trkpt lat="43.18017" lon="6.50084">
        <ele>440.4</ele>
        <time>2024-02-04T12:35:29Z</time>
      </trkpt>
      <trkpt lat="43.18017" lon="6.50084">
        <ele>440.3</ele>
        <time>2024-02-04T12:35:30Z</time>
      </trkpt>
      <trkpt lat="43.18017" lon="6.50084">
        <ele>440.3</ele>
        <time>2024-02-04T12:35:31Z</time>
      </trkpt>
      <trkpt lat="43.18017" lon="6.50084">
        <ele>440.3</ele>
        <time>2024-02-04T12:35:32Z</time>
      </trkpt>
      <trkpt lat="43.18017" lon="6.50084">
        <ele>440.2</ele>
        <time>2024-02-04T12:35:33Z</time>
      </trkpt>
      <trkpt lat="43.18017" lon="6.50084">
        <ele>440.3</ele>
        <time>2024-02-04T12:35:34Z</time>
      </trkpt>
      <trkpt lat="43.18017" lon="6.50084">
        <ele>440.3</ele>
        <time>2024-02-04T12:35:35Z</time>
      </trkpt>
      <trkpt lat="43.18017" lon="6.50084">
        <ele>440.3</ele>
        <time>2024-02-04T12:35:36Z</time>
      </trkpt>
      <trkpt lat="43.18017" lon="6.50084">
        <ele>440.3</ele>
        <time>2024-02-04T12:35:37Z</time>
      </trkpt>
      <trkpt lat="43.18017" lon="6.50084">
        <ele>440.3</ele>
        <time>2024-02-04T12:35:38Z</time>
      </trkpt>
      <trkpt lat="43.18017" lon="6.50084">
        <ele>440.3</ele>
        <time>2024-02-04T12:35:39Z</time>
      </trkpt>
      <trkpt lat="43.18017" lon="6.50084">
        <ele>440.2</ele>
        <time>2024-02-04T12:35:40Z</time>
      </trkpt>
      <trkpt lat="43.18017" lon="6.50084">
        <ele>440.2</ele>
        <time>2024-02-04T12:35:41Z</time>
      </trkpt>
      <trkpt lat="43.18017" lon="6.50084">
        <ele>440.2</ele>
        <time>2024-02-04T12:35:42Z</time>
      </trkpt>
      <trkpt lat="43.18017" lon="6.50084">
        <ele>440.2</ele>
        <time>2024-02-04T12:35:43Z</time>
      </trkpt>
      <trkpt lat="43.18017" lon="6.50084">
        <ele>440.2</ele>
        <time>2024-02-04T12:35:44Z</time>
      </trkpt>
      <trkpt lat="43.18017" lon="6.50084">
        <ele>440.3</ele>
        <time>2024-02-04T12:35:45Z</time>
      </trkpt>
      <trkpt lat="43.18017" lon="6.50085">
        <ele>440.3</ele>
        <time>2024-02-04T12:35:46Z</time>
      </trkpt>
      <trkpt lat="43.18017" lon="6.50085">
        <ele>440.4</ele>
        <time>2024-02-04T12:35:47Z</time>
      </trkpt>
      <trkpt lat="43.18017" lon="6.50086">
        <ele>440.4</ele>
        <time>2024-02-04T12:35:48Z</time>
      </trkpt>
      <trkpt lat="43.18017" lon="6.50087">
        <ele>440.4</ele>
        <time>2024-02-04T12:35:49Z</time>
      </trkpt>
      <trkpt lat="43.18017" lon="6.50088">
        <ele>440.3</ele>
        <time>2024-02-04T12:35:50Z</time>
      </trkpt>
      <trkpt lat="43.18016" lon="6.50088">
        <ele>440.3</ele>
        <time>2024-02-04T12:35:51Z</time>
      </trkpt>
      <trkpt lat="43.18016" lon="6.50088">
        <ele>440.2</ele>
        <time>2024-02-04T12:35:52Z</time>
      </trkpt>
      <trkpt lat="43.18015" lon="6.50089">
        <ele>440.3</ele>
        <time>2024-02-04T12:35:53Z</time>
      </trkpt>
      <trkpt lat="43.18015" lon="6.5009">
        <ele>440.3</ele>
        <time>2024-02-04T12:35:54Z</time>
      </trkpt>
      <trkpt lat="43.18014" lon="6.50092">
        <ele>440.3</ele>
        <time>2024-02-04T12:35:55Z</time>
      </trkpt>
      <trkpt lat="43.18014" lon="6.50093">
        <ele>440.3</ele>
        <time>2024-02-04T12:35:56Z</time>
      </trkpt>
      <trkpt lat="43.18013" lon="6.50094">
        <ele>440.2</ele>
        <time>2024-02-04T12:35:57Z</time>
      </trkpt>
      <trkpt lat="43.18012" lon="6.50094">
        <ele>440.2</ele>
        <time>2024-02-04T12:35:58Z</time>
      </trkpt>
      <trkpt lat="43.18012" lon="6.50094">
        <ele>440.2</ele>
        <time>2024-02-04T12:35:59Z</time>
      </trkpt>
      <trkpt lat="43.18011" lon="6.50094">
        <ele>440.1</ele>
        <time>2024-02-04T12:36:00Z</time>
      </trkpt>
      <trkpt lat="43.1801" lon="6.50095">
        <ele>440</ele>
        <time>2024-02-04T12:36:01Z</time>
      </trkpt>
      <trkpt lat="43.18009" lon="6.50095">
        <ele>439.8</ele>
        <time>2024-02-04T12:36:02Z</time>
      </trkpt>
      <trkpt lat="43.18009" lon="6.50096">
        <ele>439.7</ele>
        <time>2024-02-04T12:36:03Z</time>
      </trkpt>
      <trkpt lat="43.18008" lon="6.50097">
        <ele>439.6</ele>
        <time>2024-02-04T12:36:04Z</time>
      </trkpt>
      <trkpt lat="43.18006" lon="6.50098">
        <ele>439.6</ele>
        <time>2024-02-04T12:36:05Z</time>
      </trkpt>
      <trkpt lat="43.18006" lon="6.50099">
        <ele>439.6</ele>
        <time>2024-02-04T12:36:06Z</time>
      </trkpt>
      <trkpt lat="43.18004" lon="6.50099">
        <ele>439.6</ele>
        <time>2024-02-04T12:36:07Z</time>
      </trkpt>
      <trkpt lat="43.18003" lon="6.50099">
        <ele>439.5</ele>
        <time>2024-02-04T12:36:08Z</time>
      </trkpt>
      <trkpt lat="43.18002" lon="6.501">
        <ele>439.5</ele>
        <time>2024-02-04T12:36:09Z</time>
      </trkpt>
      <trkpt lat="43.18001" lon="6.501">
        <ele>439.5</ele>
        <time>2024-02-04T12:36:10Z</time>
      </trkpt>
      <trkpt lat="43.18" lon="6.50101">
        <ele>439.4</ele>
        <time>2024-02-04T12:36:11Z</time>
      </trkpt>
      <trkpt lat="43.17998" lon="6.50101">
        <ele>439.2</ele>
        <time>2024-02-04T12:36:12Z</time>
      </trkpt>
      <trkpt lat="43.17997" lon="6.50102">
        <ele>439.1</ele>
        <time>2024-02-04T12:36:13Z</time>
      </trkpt>
      <trkpt lat="43.17996" lon="6.50102">
        <ele>439.1</ele>
        <time>2024-02-04T12:36:14Z</time>
      </trkpt>
      <trkpt lat="43.17996" lon="6.50103">
        <ele>439.1</ele>
        <time>2024-02-04T12:36:15Z</time>
      </trkpt>
      <trkpt lat="43.17996" lon="6.50103">
        <ele>439.1</ele>
        <time>2024-02-04T12:36:16Z</time>
      </trkpt>
      <trkpt lat="43.17995" lon="6.50104">
        <ele>439</ele>
        <time>2024-02-04T12:36:17Z</time>
      </trkpt>
      <trkpt lat="43.17994" lon="6.50105">
        <ele>438.9</ele>
        <time>2024-02-04T12:36:18Z</time>
      </trkpt>
      <trkpt lat="43.17994" lon="6.50105">
        <ele>438.9</ele>
        <time>2024-02-04T12:36:19Z</time>
      </trkpt>
      <trkpt lat="43.17993" lon="6.50105">
        <ele>438.8</ele>
        <time>2024-02-04T12:36:20Z</time>
      </trkpt>
      <trkpt lat="43.17993" lon="6.50105">
        <ele>438.7</ele>
        <time>2024-02-04T12:36:21Z</time>
      </trkpt>
      <trkpt lat="43.17992" lon="6.50105">
        <ele>438.6</ele>
        <time>2024-02-04T12:36:22Z</time>
      </trkpt>
      <trkpt lat="43.17992" lon="6.50106">
        <ele>438.5</ele>
        <time>2024-02-04T12:36:23Z</time>
      </trkpt>
      <trkpt lat="43.17991" lon="6.50106">
        <ele>438.5</ele>
        <time>2024-02-04T12:36:24Z</time>
      </trkpt>
      <trkpt lat="43.17991" lon="6.50106">
        <ele>438.5</ele>
        <time>2024-02-04T12:36:25Z</time>
      </trkpt>
      <trkpt lat="43.17991" lon="6.50105">
        <ele>438.5</ele>
        <time>2024-02-04T12:36:26Z</time>
      </trkpt>
      <trkpt lat="43.17991" lon="6.50105">
        <ele>438.5</ele>
        <time>2024-02-04T12:36:27Z</time>
      </trkpt>
      <trkpt lat="43.17991" lon="6.50106">
        <ele>438.5</ele>
        <time>2024-02-04T12:36:28Z</time>
      </trkpt>
      <trkpt lat="43.17991" lon="6.50106">
        <ele>438.6</ele>
        <time>2024-02-04T12:36:29Z</time>
      </trkpt>
      <trkpt lat="43.17991" lon="6.50106">
        <ele>438.6</ele>
        <time>2024-02-04T12:36:30Z</time>
      </trkpt>
      <trkpt lat="43.1799" lon="6.50106">
        <ele>438.6</ele>
        <time>2024-02-04T12:36:31Z</time>
      </trkpt>
      <trkpt lat="43.1799" lon="6.50106">
        <ele>438.6</ele>
        <time>2024-02-04T12:36:32Z</time>
      </trkpt>
      <trkpt lat="43.1799" lon="6.50107">
        <ele>438.6</ele>
        <time>2024-02-04T12:36:33Z</time>
      </trkpt>
      <trkpt lat="43.1799" lon="6.50107">
        <ele>438.6</ele>
        <time>2024-02-04T12:36:34Z</time>
      </trkpt>
      <trkpt lat="43.1799" lon="6.50106">
        <ele>438.5</ele>
        <time>2024-02-04T12:36:35Z</time>
      </trkpt>
      <trkpt lat="43.1799" lon="6.50106">
        <ele>438.6</ele>
        <time>2024-02-04T12:36:36Z</time>
      </trkpt>
      <trkpt lat="43.1799" lon="6.50106">
        <ele>438.6</ele>
        <time>2024-02-04T12:36:37Z</time>
      </trkpt>
      <trkpt lat="43.1799" lon="6.50106">
        <ele>438.6</ele>
        <time>2024-02-04T12:36:38Z</time>
      </trkpt>
      <trkpt lat="43.1799" lon="6.50106">
        <ele>438.6</ele>
        <time>2024-02-04T12:36:39Z</time>
      </trkpt>
      <trkpt lat="43.17989" lon="6.50106">
        <ele>438.6</ele>
        <time>2024-02-04T12:36:40Z</time>
      </trkpt>
      <trkpt lat="43.17989" lon="6.50106">
        <ele>438.7</ele>
        <time>2024-02-04T12:36:41Z</time>
      </trkpt>
      <trkpt lat="43.17989" lon="6.50106">
        <ele>438.7</ele>
        <time>2024-02-04T12:36:42Z</time>
      </trkpt>
      <trkpt lat="43.17989" lon="6.50106">
        <ele>438.7</ele>
        <time>2024-02-04T12:36:43Z</time>
      </trkpt>
      <trkpt lat="43.17989" lon="6.50106">
        <ele>438.6</ele>
        <time>2024-02-04T12:36:44Z</time>
      </trkpt>
      <trkpt lat="43.17989" lon="6.50106">
        <ele>438.6</ele>
        <time>2024-02-04T12:36:45Z</time>
      </trkpt>
      <trkpt lat="43.17988" lon="6.50106">
        <ele>438.5</ele>
        <time>2024-02-04T12:36:46Z</time>
      </trkpt>
      <trkpt lat="43.17987" lon="6.50107">
        <ele>438.5</ele>
        <time>2024-02-04T12:36:47Z</time>
      </trkpt>
      <trkpt lat="43.17986" lon="6.50108">
        <ele>438.5</ele>
        <time>2024-02-04T12:36:48Z</time>
      </trkpt>
      <trkpt lat="43.17985" lon="6.50108">
        <ele>438.5</ele>
        <time>2024-02-04T12:36:49Z</time>
      </trkpt>
      <trkpt lat="43.17985" lon="6.50109">
        <ele>438.4</ele>
        <time>2024-02-04T12:36:50Z</time>
      </trkpt>
      <trkpt lat="43.17984" lon="6.5011">
        <ele>438.3</ele>
        <time>2024-02-04T12:36:51Z</time>
      </trkpt>
      <trkpt lat="43.17983" lon="6.50111">
        <ele>438.4</ele>
        <time>2024-02-04T12:36:52Z</time>
      </trkpt>
      <trkpt lat="43.17982" lon="6.50112">
        <ele>438.3</ele>
        <time>2024-02-04T12:36:53Z</time>
      </trkpt>
      <trkpt lat="43.17982" lon="6.50113">
        <ele>438.2</ele>
        <time>2024-02-04T12:36:54Z</time>
      </trkpt>
      <trkpt lat="43.17981" lon="6.50115">
        <ele>438.1</ele>
        <time>2024-02-04T12:36:55Z</time>
      </trkpt>
      <trkpt lat="43.1798" lon="6.50115">
        <ele>438</ele>
        <time>2024-02-04T12:36:56Z</time>
      </trkpt>
      <trkpt lat="43.1798" lon="6.50116">
        <ele>438</ele>
        <time>2024-02-04T12:36:57Z</time>
      </trkpt>
      <trkpt lat="43.17979" lon="6.50117">
        <ele>438</ele>
        <time>2024-02-04T12:36:58Z</time>
      </trkpt>
      <trkpt lat="43.17979" lon="6.50118">
        <ele>438</ele>
        <time>2024-02-04T12:36:59Z</time>
      </trkpt>
      <trkpt lat="43.17978" lon="6.50119">
        <ele>437.9</ele>
        <time>2024-02-04T12:37:00Z</time>
      </trkpt>
      <trkpt lat="43.17978" lon="6.5012">
        <ele>437.9</ele>
        <time>2024-02-04T12:37:01Z</time>
      </trkpt>
      <trkpt lat="43.17977" lon="6.50121">
        <ele>437.9</ele>
        <time>2024-02-04T12:37:02Z</time>
      </trkpt>
      <trkpt lat="43.17976" lon="6.50123">
        <ele>437.8</ele>
        <time>2024-02-04T12:37:03Z</time>
      </trkpt>
      <trkpt lat="43.17976" lon="6.50124">
        <ele>437.8</ele>
        <time>2024-02-04T12:37:04Z</time>
      </trkpt>
      <trkpt lat="43.17975" lon="6.50125">
        <ele>437.8</ele>
        <time>2024-02-04T12:37:05Z</time>
      </trkpt>
      <trkpt lat="43.17975" lon="6.50126">
        <ele>437.7</ele>
        <time>2024-02-04T12:37:06Z</time>
      </trkpt>
      <trkpt lat="43.17974" lon="6.50128">
        <ele>437.7</ele>
        <time>2024-02-04T12:37:07Z</time>
      </trkpt>
      <trkpt lat="43.17974" lon="6.50129">
        <ele>437.7</ele>
        <time>2024-02-04T12:37:08Z</time>
      </trkpt>
      <trkpt lat="43.17973" lon="6.5013">
        <ele>437.6</ele>
        <time>2024-02-04T12:37:09Z</time>
      </trkpt>
      <trkpt lat="43.17973" lon="6.50131">
        <ele>437.6</ele>
        <time>2024-02-04T12:37:10Z</time>
      </trkpt>
      <trkpt lat="43.17972" lon="6.50133">
        <ele>437.5</ele>
        <time>2024-02-04T12:37:11Z</time>
      </trkpt>
      <trkpt lat="43.17972" lon="6.50134">
        <ele>437.5</ele>
        <time>2024-02-04T12:37:12Z</time>
      </trkpt>
      <trkpt lat="43.17972" lon="6.50135">
        <ele>437.4</ele>
        <time>2024-02-04T12:37:13Z</time>
      </trkpt>
      <trkpt lat="43.17971" lon="6.50136">
        <ele>437.4</ele>
        <time>2024-02-04T12:37:14Z</time>
      </trkpt>
      <trkpt lat="43.17971" lon="6.50138">
        <ele>437.4</ele>
        <time>2024-02-04T12:37:15Z</time>
      </trkpt>
      <trkpt lat="43.1797" lon="6.50139">
        <ele>437.3</ele>
        <time>2024-02-04T12:37:16Z</time>
      </trkpt>
      <trkpt lat="43.1797" lon="6.5014">
        <ele>437.2</ele>
        <time>2024-02-04T12:37:17Z</time>
      </trkpt>
      <trkpt lat="43.17969" lon="6.50141">
        <ele>437.1</ele>
        <time>2024-02-04T12:37:18Z</time>
      </trkpt>
      <trkpt lat="43.17969" lon="6.50143">
        <ele>437.1</ele>
        <time>2024-02-04T12:37:19Z</time>
      </trkpt>
      <trkpt lat="43.17968" lon="6.50144">
        <ele>437</ele>
        <time>2024-02-04T12:37:20Z</time>
      </trkpt>
      <trkpt lat="43.17968" lon="6.50145">
        <ele>437</ele>
        <time>2024-02-04T12:37:21Z</time>
      </trkpt>
      <trkpt lat="43.17968" lon="6.50147">
        <ele>437</ele>
        <time>2024-02-04T12:37:22Z</time>
      </trkpt>
      <trkpt lat="43.17968" lon="6.50148">
        <ele>437</ele>
        <time>2024-02-04T12:37:23Z</time>
      </trkpt>
      <trkpt lat="43.17968" lon="6.5015">
        <ele>436.9</ele>
        <time>2024-02-04T12:37:24Z</time>
      </trkpt>
      <trkpt lat="43.17967" lon="6.50151">
        <ele>436.8</ele>
        <time>2024-02-04T12:37:25Z</time>
      </trkpt>
      <trkpt lat="43.17967" lon="6.50153">
        <ele>436.7</ele>
        <time>2024-02-04T12:37:26Z</time>
      </trkpt>
      <trkpt lat="43.17967" lon="6.50155">
        <ele>436.7</ele>
        <time>2024-02-04T12:37:27Z</time>
      </trkpt>
      <trkpt lat="43.17967" lon="6.50156">
        <ele>436.6</ele>
        <time>2024-02-04T12:37:28Z</time>
      </trkpt>
      <trkpt lat="43.17966" lon="6.50157">
        <ele>436.5</ele>
        <time>2024-02-04T12:37:29Z</time>
      </trkpt>
      <trkpt lat="43.17965" lon="6.50158">
        <ele>436.4</ele>
        <time>2024-02-04T12:37:30Z</time>
      </trkpt>
      <trkpt lat="43.17965" lon="6.50159">
        <ele>436.4</ele>
        <time>2024-02-04T12:37:31Z</time>
      </trkpt>
      <trkpt lat="43.17965" lon="6.50161">
        <ele>436.4</ele>
        <time>2024-02-04T12:37:32Z</time>
      </trkpt>
      <trkpt lat="43.17964" lon="6.50162">
        <ele>436.3</ele>
        <time>2024-02-04T12:37:33Z</time>
      </trkpt>
      <trkpt lat="43.17964" lon="6.50164">
        <ele>436.3</ele>
        <time>2024-02-04T12:37:34Z</time>
      </trkpt>
      <trkpt lat="43.17963" lon="6.50165">
        <ele>436.2</ele>
        <time>2024-02-04T12:37:35Z</time>
      </trkpt>
      <trkpt lat="43.17963" lon="6.50166">
        <ele>436.2</ele>
        <time>2024-02-04T12:37:36Z</time>
      </trkpt>
      <trkpt lat="43.17962" lon="6.50168">
        <ele>436.1</ele>
        <time>2024-02-04T12:37:37Z</time>
      </trkpt>
      <trkpt lat="43.17962" lon="6.50169">
        <ele>436</ele>
        <time>2024-02-04T12:37:38Z</time>
      </trkpt>
      <trkpt lat="43.17962" lon="6.50171">
        <ele>435.9</ele>
        <time>2024-02-04T12:37:39Z</time>
      </trkpt>
      <trkpt lat="43.17962" lon="6.50172">
        <ele>435.8</ele>
        <time>2024-02-04T12:37:40Z</time>
      </trkpt>
      <trkpt lat="43.17961" lon="6.50173">
        <ele>435.8</ele>
        <time>2024-02-04T12:37:41Z</time>
      </trkpt>
      <trkpt lat="43.17961" lon="6.50175">
        <ele>435.7</ele>
        <time>2024-02-04T12:37:42Z</time>
      </trkpt>
      <trkpt lat="43.17961" lon="6.50176">
        <ele>435.6</ele>
        <time>2024-02-04T12:37:43Z</time>
      </trkpt>
      <trkpt lat="43.17961" lon="6.50178">
        <ele>435.7</ele>
        <time>2024-02-04T12:37:44Z</time>
      </trkpt>
      <trkpt lat="43.1796" lon="6.50179">
        <ele>435.7</ele>
        <time>2024-02-04T12:37:45Z</time>
      </trkpt>
      <trkpt lat="43.1796" lon="6.50181">
        <ele>435.7</ele>
        <time>2024-02-04T12:37:46Z</time>
      </trkpt>
      <trkpt lat="43.1796" lon="6.50182">
        <ele>435.7</ele>
        <time>2024-02-04T12:37:47Z</time>
      </trkpt>
      <trkpt lat="43.17959" lon="6.50184">
        <ele>435.6</ele>
        <time>2024-02-04T12:37:48Z</time>
      </trkpt>
      <trkpt lat="43.17959" lon="6.50185">
        <ele>435.5</ele>
        <time>2024-02-04T12:37:49Z</time>
      </trkpt>
      <trkpt lat="43.17959" lon="6.50186">
        <ele>435.4</ele>
        <time>2024-02-04T12:37:50Z</time>
      </trkpt>
      <trkpt lat="43.17959" lon="6.50188">
        <ele>435.2</ele>
        <time>2024-02-04T12:37:51Z</time>
      </trkpt>
      <trkpt lat="43.17959" lon="6.50189">
        <ele>435.1</ele>
        <time>2024-02-04T12:37:52Z</time>
      </trkpt>
      <trkpt lat="43.17959" lon="6.50191">
        <ele>435</ele>
        <time>2024-02-04T12:37:53Z</time>
      </trkpt>
      <trkpt lat="43.17959" lon="6.50192">
        <ele>434.9</ele>
        <time>2024-02-04T12:37:54Z</time>
      </trkpt>
      <trkpt lat="43.17959" lon="6.50193">
        <ele>434.8</ele>
        <time>2024-02-04T12:37:55Z</time>
      </trkpt>
      <trkpt lat="43.17959" lon="6.50195">
        <ele>434.7</ele>
        <time>2024-02-04T12:37:56Z</time>
      </trkpt>
      <trkpt lat="43.17959" lon="6.50196">
        <ele>434.6</ele>
        <time>2024-02-04T12:37:57Z</time>
      </trkpt>
      <trkpt lat="43.17959" lon="6.50198">
        <ele>434.5</ele>
        <time>2024-02-04T12:37:58Z</time>
      </trkpt>
      <trkpt lat="43.17959" lon="6.50199">
        <ele>434.4</ele>
        <time>2024-02-04T12:37:59Z</time>
      </trkpt>
      <trkpt lat="43.17959" lon="6.50201">
        <ele>434.4</ele>
        <time>2024-02-04T12:38:00Z</time>
      </trkpt>
      <trkpt lat="43.1796" lon="6.50202">
        <ele>434.3</ele>
        <time>2024-02-04T12:38:01Z</time>
      </trkpt>
      <trkpt lat="43.1796" lon="6.50203">
        <ele>434.2</ele>
        <time>2024-02-04T12:38:02Z</time>
      </trkpt>
      <trkpt lat="43.1796" lon="6.50205">
        <ele>434.2</ele>
        <time>2024-02-04T12:38:03Z</time>
      </trkpt>
      <trkpt lat="43.1796" lon="6.50206">
        <ele>434.1</ele>
        <time>2024-02-04T12:38:04Z</time>
      </trkpt>
      <trkpt lat="43.17959" lon="6.50208">
        <ele>434.1</ele>
        <time>2024-02-04T12:38:05Z</time>
      </trkpt>
      <trkpt lat="43.17959" lon="6.50209">
        <ele>434</ele>
        <time>2024-02-04T12:38:06Z</time>
      </trkpt>
      <trkpt lat="43.17959" lon="6.50211">
        <ele>433.9</ele>
        <time>2024-02-04T12:38:07Z</time>
      </trkpt>
      <trkpt lat="43.17959" lon="6.50212">
        <ele>433.8</ele>
        <time>2024-02-04T12:38:08Z</time>
      </trkpt>
      <trkpt lat="43.17958" lon="6.50213">
        <ele>433.7</ele>
        <time>2024-02-04T12:38:09Z</time>
      </trkpt>
      <trkpt lat="43.17958" lon="6.50215">
        <ele>433.6</ele>
        <time>2024-02-04T12:38:10Z</time>
      </trkpt>
      <trkpt lat="43.17957" lon="6.50216">
        <ele>433.5</ele>
        <time>2024-02-04T12:38:11Z</time>
      </trkpt>
      <trkpt lat="43.17957" lon="6.50217">
        <ele>433.4</ele>
        <time>2024-02-04T12:38:12Z</time>
      </trkpt>
      <trkpt lat="43.17956" lon="6.50218">
        <ele>433.3</ele>
        <time>2024-02-04T12:38:13Z</time>
      </trkpt>
      <trkpt lat="43.17956" lon="6.50219">
        <ele>433.2</ele>
        <time>2024-02-04T12:38:14Z</time>
      </trkpt>
      <trkpt lat="43.17956" lon="6.5022">
        <ele>433.1</ele>
        <time>2024-02-04T12:38:15Z</time>
      </trkpt>
      <trkpt lat="43.17956" lon="6.50222">
        <ele>433</ele>
        <time>2024-02-04T12:38:16Z</time>
      </trkpt>
      <trkpt lat="43.17955" lon="6.50223">
        <ele>432.9</ele>
        <time>2024-02-04T12:38:17Z</time>
      </trkpt>
      <trkpt lat="43.17955" lon="6.50225">
        <ele>432.9</ele>
        <time>2024-02-04T12:38:18Z</time>
      </trkpt>
      <trkpt lat="43.17955" lon="6.50226">
        <ele>432.9</ele>
        <time>2024-02-04T12:38:19Z</time>
      </trkpt>
      <trkpt lat="43.17955" lon="6.50228">
        <ele>432.9</ele>
        <time>2024-02-04T12:38:20Z</time>
      </trkpt>
      <trkpt lat="43.17955" lon="6.50228">
        <ele>432.9</ele>
        <time>2024-02-04T12:38:21Z</time>
      </trkpt>
      <trkpt lat="43.17954" lon="6.50229">
        <ele>432.9</ele>
        <time>2024-02-04T12:38:22Z</time>
      </trkpt>
      <trkpt lat="43.17954" lon="6.50229">
        <ele>432.9</ele>
        <time>2024-02-04T12:38:23Z</time>
      </trkpt>
      <trkpt lat="43.17954" lon="6.50229">
        <ele>432.9</ele>
        <time>2024-02-04T12:38:24Z</time>
      </trkpt>
      <trkpt lat="43.17954" lon="6.50229">
        <ele>432.9</ele>
        <time>2024-02-04T12:38:25Z</time>
      </trkpt>
      <trkpt lat="43.17953" lon="6.50228">
        <ele>432.9</ele>
        <time>2024-02-04T12:38:26Z</time>
      </trkpt>
      <trkpt lat="43.17952" lon="6.50228">
        <ele>432.9</ele>
        <time>2024-02-04T12:38:27Z</time>
      </trkpt>
      <trkpt lat="43.17952" lon="6.50229">
        <ele>432.9</ele>
        <time>2024-02-04T12:38:28Z</time>
      </trkpt>
      <trkpt lat="43.17951" lon="6.5023">
        <ele>432.7</ele>
        <time>2024-02-04T12:38:29Z</time>
      </trkpt>
      <trkpt lat="43.17951" lon="6.5023">
        <ele>432.7</ele>
        <time>2024-02-04T12:38:30Z</time>
      </trkpt>
      <trkpt lat="43.17951" lon="6.50231">
        <ele>432.5</ele>
        <time>2024-02-04T12:38:31Z</time>
      </trkpt>
      <trkpt lat="43.1795" lon="6.50231">
        <ele>432.2</ele>
        <time>2024-02-04T12:38:32Z</time>
      </trkpt>
      <trkpt lat="43.1795" lon="6.50232">
        <ele>432</ele>
        <time>2024-02-04T12:38:33Z</time>
      </trkpt>
      <trkpt lat="43.1795" lon="6.50232">
        <ele>431.8</ele>
        <time>2024-02-04T12:38:34Z</time>
      </trkpt>
      <trkpt lat="43.17949" lon="6.50233">
        <ele>431.6</ele>
        <time>2024-02-04T12:38:35Z</time>
      </trkpt>
      <trkpt lat="43.17949" lon="6.50233">
        <ele>431.4</ele>
        <time>2024-02-04T12:38:36Z</time>
      </trkpt>
      <trkpt lat="43.17948" lon="6.50234">
        <ele>431.2</ele>
        <time>2024-02-04T12:38:37Z</time>
      </trkpt>
      <trkpt lat="43.17948" lon="6.50235">
        <ele>431</ele>
        <time>2024-02-04T12:38:38Z</time>
      </trkpt>
      <trkpt lat="43.17948" lon="6.50236">
        <ele>430.9</ele>
        <time>2024-02-04T12:38:39Z</time>
      </trkpt>
      <trkpt lat="43.17948" lon="6.50237">
        <ele>430.7</ele>
        <time>2024-02-04T12:38:40Z</time>
      </trkpt>
      <trkpt lat="43.17948" lon="6.50239">
        <ele>430.5</ele>
        <time>2024-02-04T12:38:41Z</time>
      </trkpt>
      <trkpt lat="43.17948" lon="6.5024">
        <ele>430.3</ele>
        <time>2024-02-04T12:38:42Z</time>
      </trkpt>
      <trkpt lat="43.17948" lon="6.50241">
        <ele>430.2</ele>
        <time>2024-02-04T12:38:43Z</time>
      </trkpt>
      <trkpt lat="43.17947" lon="6.50242">
        <ele>430</ele>
        <time>2024-02-04T12:38:44Z</time>
      </trkpt>
      <trkpt lat="43.17947" lon="6.50244">
        <ele>429.9</ele>
        <time>2024-02-04T12:38:45Z</time>
      </trkpt>
      <trkpt lat="43.17946" lon="6.50245">
        <ele>429.8</ele>
        <time>2024-02-04T12:38:46Z</time>
      </trkpt>
      <trkpt lat="43.17946" lon="6.50246">
        <ele>429.7</ele>
        <time>2024-02-04T12:38:47Z</time>
      </trkpt>
      <trkpt lat="43.17945" lon="6.50248">
        <ele>429.7</ele>
        <time>2024-02-04T12:38:48Z</time>
      </trkpt>
      <trkpt lat="43.17944" lon="6.50249">
        <ele>429.6</ele>
        <time>2024-02-04T12:38:49Z</time>
      </trkpt>
      <trkpt lat="43.17944" lon="6.5025">
        <ele>429.6</ele>
        <time>2024-02-04T12:38:50Z</time>
      </trkpt>
      <trkpt lat="43.17943" lon="6.50251">
        <ele>429.5</ele>
        <time>2024-02-04T12:38:51Z</time>
      </trkpt>
      <trkpt lat="43.17942" lon="6.50253">
        <ele>429.4</ele>
        <time>2024-02-04T12:38:52Z</time>
      </trkpt>
      <trkpt lat="43.17941" lon="6.50253">
        <ele>429.3</ele>
        <time>2024-02-04T12:38:53Z</time>
      </trkpt>
      <trkpt lat="43.1794" lon="6.50254">
        <ele>429.2</ele>
        <time>2024-02-04T12:38:54Z</time>
      </trkpt>
      <trkpt lat="43.17939" lon="6.50254">
        <ele>429</ele>
        <time>2024-02-04T12:38:55Z</time>
      </trkpt>
      <trkpt lat="43.17938" lon="6.50255">
        <ele>429</ele>
        <time>2024-02-04T12:38:56Z</time>
      </trkpt>
      <trkpt lat="43.17937" lon="6.50256">
        <ele>428.8</ele>
        <time>2024-02-04T12:38:57Z</time>
      </trkpt>
      <trkpt lat="43.17936" lon="6.50256">
        <ele>428.7</ele>
        <time>2024-02-04T12:38:58Z</time>
      </trkpt>
      <trkpt lat="43.17936" lon="6.50256">
        <ele>428.7</ele>
        <time>2024-02-04T12:38:59Z</time>
      </trkpt>
      <trkpt lat="43.17935" lon="6.50257">
        <ele>428.7</ele>
        <time>2024-02-04T12:39:00Z</time>
      </trkpt>
      <trkpt lat="43.17935" lon="6.50257">
        <ele>428.7</ele>
        <time>2024-02-04T12:39:01Z</time>
      </trkpt>
      <trkpt lat="43.17935" lon="6.50257">
        <ele>428.8</ele>
        <time>2024-02-04T12:39:02Z</time>
      </trkpt>
      <trkpt lat="43.17935" lon="6.50257">
        <ele>428.8</ele>
        <time>2024-02-04T12:39:03Z</time>
      </trkpt>
      <trkpt lat="43.17934" lon="6.50257">
        <ele>428.8</ele>
        <time>2024-02-04T12:39:04Z</time>
      </trkpt>
      <trkpt lat="43.17934" lon="6.50257">
        <ele>428.9</ele>
        <time>2024-02-04T12:39:05Z</time>
      </trkpt>
      <trkpt lat="43.17934" lon="6.50257">
        <ele>428.9</ele>
        <time>2024-02-04T12:39:06Z</time>
      </trkpt>
      <trkpt lat="43.17934" lon="6.50257">
        <ele>428.9</ele>
        <time>2024-02-04T12:39:07Z</time>
      </trkpt>
      <trkpt lat="43.17934" lon="6.50256">
        <ele>429</ele>
        <time>2024-02-04T12:39:08Z</time>
      </trkpt>
      <trkpt lat="43.17933" lon="6.50257">
        <ele>429</ele>
        <time>2024-02-04T12:39:09Z</time>
      </trkpt>
      <trkpt lat="43.17932" lon="6.50257">
        <ele>429.1</ele>
        <time>2024-02-04T12:39:10Z</time>
      </trkpt>
      <trkpt lat="43.17931" lon="6.50258">
        <ele>429.2</ele>
        <time>2024-02-04T12:39:11Z</time>
      </trkpt>
      <trkpt lat="43.1793" lon="6.50259">
        <ele>429.3</ele>
        <time>2024-02-04T12:39:12Z</time>
      </trkpt>
      <trkpt lat="43.17929" lon="6.5026">
        <ele>429.4</ele>
        <time>2024-02-04T12:39:13Z</time>
      </trkpt>
      <trkpt lat="43.17929" lon="6.5026">
        <ele>429.4</ele>
        <time>2024-02-04T12:39:14Z</time>
      </trkpt>
      <trkpt lat="43.17928" lon="6.5026">
        <ele>429.5</ele>
        <time>2024-02-04T12:39:15Z</time>
      </trkpt>
      <trkpt lat="43.17927" lon="6.5026">
        <ele>429.5</ele>
        <time>2024-02-04T12:39:16Z</time>
      </trkpt>
      <trkpt lat="43.17926" lon="6.50261">
        <ele>429.6</ele>
        <time>2024-02-04T12:39:17Z</time>
      </trkpt>
      <trkpt lat="43.17925" lon="6.50261">
        <ele>429.8</ele>
        <time>2024-02-04T12:39:18Z</time>
      </trkpt>
      <trkpt lat="43.17924" lon="6.50261">
        <ele>429.9</ele>
        <time>2024-02-04T12:39:19Z</time>
      </trkpt>
      <trkpt lat="43.17924" lon="6.5026">
        <ele>430.1</ele>
        <time>2024-02-04T12:39:20Z</time>
      </trkpt>
      <trkpt lat="43.17923" lon="6.5026">
        <ele>430.2</ele>
        <time>2024-02-04T12:39:21Z</time>
      </trkpt>
      <trkpt lat="43.17922" lon="6.5026">
        <ele>430.3</ele>
        <time>2024-02-04T12:39:22Z</time>
      </trkpt>
      <trkpt lat="43.17921" lon="6.50259">
        <ele>430.4</ele>
        <time>2024-02-04T12:39:23Z</time>
      </trkpt>
      <trkpt lat="43.1792" lon="6.50259">
        <ele>430.5</ele>
        <time>2024-02-04T12:39:24Z</time>
      </trkpt>
      <trkpt lat="43.17919" lon="6.50259">
        <ele>430.6</ele>
        <time>2024-02-04T12:39:25Z</time>
      </trkpt>
      <trkpt lat="43.17918" lon="6.50259">
        <ele>430.6</ele>
        <time>2024-02-04T12:39:26Z</time>
      </trkpt>
      <trkpt lat="43.17917" lon="6.50259">
        <ele>430.7</ele>
        <time>2024-02-04T12:39:27Z</time>
      </trkpt>
      <trkpt lat="43.17916" lon="6.50259">
        <ele>430.8</ele>
        <time>2024-02-04T12:39:28Z</time>
      </trkpt>
      <trkpt lat="43.17915" lon="6.50258">
        <ele>430.9</ele>
        <time>2024-02-04T12:39:29Z</time>
      </trkpt>
      <trkpt lat="43.17914" lon="6.50257">
        <ele>431</ele>
        <time>2024-02-04T12:39:30Z</time>
      </trkpt>
      <trkpt lat="43.17913" lon="6.50257">
        <ele>431</ele>
        <time>2024-02-04T12:39:31Z</time>
      </trkpt>
      <trkpt lat="43.17912" lon="6.50257">
        <ele>430.9</ele>
        <time>2024-02-04T12:39:32Z</time>
      </trkpt>
      <trkpt lat="43.17911" lon="6.50257">
        <ele>430.8</ele>
        <time>2024-02-04T12:39:33Z</time>
      </trkpt>
      <trkpt lat="43.1791" lon="6.50257">
        <ele>430.8</ele>
        <time>2024-02-04T12:39:34Z</time>
      </trkpt>
      <trkpt lat="43.17909" lon="6.50258">
        <ele>430.8</ele>
        <time>2024-02-04T12:39:35Z</time>
      </trkpt>
      <trkpt lat="43.17908" lon="6.50258">
        <ele>430.8</ele>
        <time>2024-02-04T12:39:36Z</time>
      </trkpt>
      <trkpt lat="43.17907" lon="6.50258">
        <ele>430.8</ele>
        <time>2024-02-04T12:39:37Z</time>
      </trkpt>
      <trkpt lat="43.17906" lon="6.50258">
        <ele>430.8</ele>
        <time>2024-02-04T12:39:38Z</time>
      </trkpt>
      <trkpt lat="43.17904" lon="6.50259">
        <ele>430.8</ele>
        <time>2024-02-04T12:39:39Z</time>
      </trkpt>
      <trkpt lat="43.17903" lon="6.50259">
        <ele>430.8</ele>
        <time>2024-02-04T12:39:40Z</time>
      </trkpt>
      <trkpt lat="43.17902" lon="6.5026">
        <ele>430.8</ele>
        <time>2024-02-04T12:39:41Z</time>
      </trkpt>
      <trkpt lat="43.179" lon="6.5026">
        <ele>430.8</ele>
        <time>2024-02-04T12:39:42Z</time>
      </trkpt>
      <trkpt lat="43.17899" lon="6.50261">
        <ele>430.9</ele>
        <time>2024-02-04T12:39:43Z</time>
      </trkpt>
      <trkpt lat="43.17898" lon="6.50261">
        <ele>430.8</ele>
        <time>2024-02-04T12:39:44Z</time>
      </trkpt>
      <trkpt lat="43.17897" lon="6.50262">
        <ele>430.7</ele>
        <time>2024-02-04T12:39:45Z</time>
      </trkpt>
      <trkpt lat="43.17896" lon="6.50262">
        <ele>430.6</ele>
        <time>2024-02-04T12:39:46Z</time>
      </trkpt>
      <trkpt lat="43.17895" lon="6.50263">
        <ele>430.6</ele>
        <time>2024-02-04T12:39:47Z</time>
      </trkpt>
      <trkpt lat="43.17894" lon="6.50263">
        <ele>430.5</ele>
        <time>2024-02-04T12:39:48Z</time>
      </trkpt>
      <trkpt lat="43.17893" lon="6.50263">
        <ele>430.4</ele>
        <time>2024-02-04T12:39:49Z</time>
      </trkpt>
      <trkpt lat="43.17892" lon="6.50264">
        <ele>430.3</ele>
        <time>2024-02-04T12:39:50Z</time>
      </trkpt>
      <trkpt lat="43.1789" lon="6.50264">
        <ele>430.3</ele>
        <time>2024-02-04T12:39:51Z</time>
      </trkpt>
      <trkpt lat="43.17889" lon="6.50265">
        <ele>430.3</ele>
        <time>2024-02-04T12:39:52Z</time>
      </trkpt>
      <trkpt lat="43.17888" lon="6.50266">
        <ele>430.3</ele>
        <time>2024-02-04T12:39:53Z</time>
      </trkpt>
      <trkpt lat="43.17887" lon="6.50266">
        <ele>430.3</ele>
        <time>2024-02-04T12:39:54Z</time>
      </trkpt>
      <trkpt lat="43.17886" lon="6.50267">
        <ele>430.3</ele>
        <time>2024-02-04T12:39:55Z</time>
      </trkpt>
      <trkpt lat="43.17885" lon="6.50267">
        <ele>430.3</ele>
        <time>2024-02-04T12:39:56Z</time>
      </trkpt>
      <trkpt lat="43.17884" lon="6.50268">
        <ele>430.3</ele>
        <time>2024-02-04T12:39:57Z</time>
      </trkpt>
      <trkpt lat="43.17883" lon="6.50269">
        <ele>430.3</ele>
        <time>2024-02-04T12:39:58Z</time>
      </trkpt>
      <trkpt lat="43.17882" lon="6.5027">
        <ele>430.2</ele>
        <time>2024-02-04T12:39:59Z</time>
      </trkpt>
      <trkpt lat="43.17881" lon="6.5027">
        <ele>430.3</ele>
        <time>2024-02-04T12:40:00Z</time>
      </trkpt>
      <trkpt lat="43.17879" lon="6.5027">
        <ele>430.2</ele>
        <time>2024-02-04T12:40:01Z</time>
      </trkpt>
      <trkpt lat="43.17878" lon="6.50271">
        <ele>430.3</ele>
        <time>2024-02-04T12:40:02Z</time>
      </trkpt>
      <trkpt lat="43.17877" lon="6.50272">
        <ele>430.3</ele>
        <time>2024-02-04T12:40:03Z</time>
      </trkpt>
      <trkpt lat="43.17875" lon="6.50272">
        <ele>430.4</ele>
        <time>2024-02-04T12:40:04Z</time>
      </trkpt>
      <trkpt lat="43.17874" lon="6.50273">
        <ele>430.5</ele>
        <time>2024-02-04T12:40:05Z</time>
      </trkpt>
      <trkpt lat="43.17874" lon="6.50274">
        <ele>430.5</ele>
        <time>2024-02-04T12:40:06Z</time>
      </trkpt>
      <trkpt lat="43.17873" lon="6.50274">
        <ele>430.5</ele>
        <time>2024-02-04T12:40:07Z</time>
      </trkpt>
      <trkpt lat="43.17872" lon="6.50275">
        <ele>430.4</ele>
        <time>2024-02-04T12:40:08Z</time>
      </trkpt>
      <trkpt lat="43.17871" lon="6.50276">
        <ele>430.3</ele>
        <time>2024-02-04T12:40:09Z</time>
      </trkpt>
      <trkpt lat="43.1787" lon="6.50276">
        <ele>430.4</ele>
        <time>2024-02-04T12:40:10Z</time>
      </trkpt>
      <trkpt lat="43.17869" lon="6.50277">
        <ele>430.4</ele>
        <time>2024-02-04T12:40:11Z</time>
      </trkpt>
      <trkpt lat="43.17868" lon="6.50278">
        <ele>430.4</ele>
        <time>2024-02-04T12:40:12Z</time>
      </trkpt>
      <trkpt lat="43.17867" lon="6.50278">
        <ele>430.3</ele>
        <time>2024-02-04T12:40:13Z</time>
      </trkpt>
      <trkpt lat="43.17866" lon="6.50279">
        <ele>430.3</ele>
        <time>2024-02-04T12:40:14Z</time>
      </trkpt>
      <trkpt lat="43.17865" lon="6.5028">
        <ele>430.3</ele>
        <time>2024-02-04T12:40:15Z</time>
      </trkpt>
      <trkpt lat="43.17864" lon="6.50281">
        <ele>430.3</ele>
        <time>2024-02-04T12:40:16Z</time>
      </trkpt>
      <trkpt lat="43.17863" lon="6.50282">
        <ele>430.2</ele>
        <time>2024-02-04T12:40:17Z</time>
      </trkpt>
      <trkpt lat="43.17862" lon="6.50283">
        <ele>430.2</ele>
        <time>2024-02-04T12:40:18Z</time>
      </trkpt>
      <trkpt lat="43.17861" lon="6.50283">
        <ele>430.1</ele>
        <time>2024-02-04T12:40:19Z</time>
      </trkpt>
      <trkpt lat="43.1786" lon="6.50284">
        <ele>430</ele>
        <time>2024-02-04T12:40:20Z</time>
      </trkpt>
      <trkpt lat="43.17859" lon="6.50284">
        <ele>429.9</ele>
        <time>2024-02-04T12:40:21Z</time>
      </trkpt>
      <trkpt lat="43.17858" lon="6.50284">
        <ele>429.9</ele>
        <time>2024-02-04T12:40:22Z</time>
      </trkpt>
      <trkpt lat="43.17856" lon="6.50285">
        <ele>429.9</ele>
        <time>2024-02-04T12:40:23Z</time>
      </trkpt>
      <trkpt lat="43.17855" lon="6.50285">
        <ele>429.9</ele>
        <time>2024-02-04T12:40:24Z</time>
      </trkpt>
      <trkpt lat="43.17854" lon="6.50286">
        <ele>429.9</ele>
        <time>2024-02-04T12:40:25Z</time>
      </trkpt>
      <trkpt lat="43.17853" lon="6.50286">
        <ele>429.9</ele>
        <time>2024-02-04T12:40:26Z</time>
      </trkpt>
      <trkpt lat="43.17852" lon="6.50286">
        <ele>429.8</ele>
        <time>2024-02-04T12:40:27Z</time>
      </trkpt>
      <trkpt lat="43.17851" lon="6.50286">
        <ele>429.8</ele>
        <time>2024-02-04T12:40:28Z</time>
      </trkpt>
      <trkpt lat="43.1785" lon="6.50287">
        <ele>429.8</ele>
        <time>2024-02-04T12:40:29Z</time>
      </trkpt>
      <trkpt lat="43.17849" lon="6.50287">
        <ele>429.7</ele>
        <time>2024-02-04T12:40:30Z</time>
      </trkpt>
      <trkpt lat="43.17848" lon="6.50287">
        <ele>429.7</ele>
        <time>2024-02-04T12:40:31Z</time>
      </trkpt>
      <trkpt lat="43.17847" lon="6.50287">
        <ele>429.6</ele>
        <time>2024-02-04T12:40:32Z</time>
      </trkpt>
      <trkpt lat="43.17845" lon="6.50287">
        <ele>429.6</ele>
        <time>2024-02-04T12:40:33Z</time>
      </trkpt>
      <trkpt lat="43.17844" lon="6.50287">
        <ele>429.6</ele>
        <time>2024-02-04T12:40:34Z</time>
      </trkpt>
      <trkpt lat="43.17843" lon="6.50287">
        <ele>429.5</ele>
        <time>2024-02-04T12:40:35Z</time>
      </trkpt>
      <trkpt lat="43.17842" lon="6.50287">
        <ele>429.5</ele>
        <time>2024-02-04T12:40:36Z</time>
      </trkpt>
      <trkpt lat="43.17841" lon="6.50287">
        <ele>429.5</ele>
        <time>2024-02-04T12:40:37Z</time>
      </trkpt>
      <trkpt lat="43.1784" lon="6.50287">
        <ele>429.5</ele>
        <time>2024-02-04T12:40:38Z</time>
      </trkpt>
      <trkpt lat="43.17839" lon="6.50287">
        <ele>429.5</ele>
        <time>2024-02-04T12:40:39Z</time>
      </trkpt>
      <trkpt lat="43.17838" lon="6.50288">
        <ele>429.5</ele>
        <time>2024-02-04T12:40:40Z</time>
      </trkpt>
      <trkpt lat="43.17837" lon="6.50287">
        <ele>429.5</ele>
        <time>2024-02-04T12:40:41Z</time>
      </trkpt>
      <trkpt lat="43.17836" lon="6.50288">
        <ele>429.5</ele>
        <time>2024-02-04T12:40:42Z</time>
      </trkpt>
      <trkpt lat="43.17835" lon="6.50288">
        <ele>429.5</ele>
        <time>2024-02-04T12:40:43Z</time>
      </trkpt>
      <trkpt lat="43.17834" lon="6.50288">
        <ele>429.4</ele>
        <time>2024-02-04T12:40:44Z</time>
      </trkpt>
      <trkpt lat="43.17833" lon="6.50288">
        <ele>429.3</ele>
        <time>2024-02-04T12:40:45Z</time>
      </trkpt>
      <trkpt lat="43.17832" lon="6.50288">
        <ele>429.4</ele>
        <time>2024-02-04T12:40:46Z</time>
      </trkpt>
      <trkpt lat="43.17831" lon="6.50289">
        <ele>429.4</ele>
        <time>2024-02-04T12:40:47Z</time>
      </trkpt>
      <trkpt lat="43.1783" lon="6.50289">
        <ele>429.3</ele>
        <time>2024-02-04T12:40:48Z</time>
      </trkpt>
      <trkpt lat="43.17829" lon="6.50289">
        <ele>429.1</ele>
        <time>2024-02-04T12:40:49Z</time>
      </trkpt>
      <trkpt lat="43.17828" lon="6.50289">
        <ele>429</ele>
        <time>2024-02-04T12:40:50Z</time>
      </trkpt>
      <trkpt lat="43.17827" lon="6.50289">
        <ele>429.1</ele>
        <time>2024-02-04T12:40:51Z</time>
      </trkpt>
      <trkpt lat="43.17826" lon="6.50289">
        <ele>429.1</ele>
        <time>2024-02-04T12:40:52Z</time>
      </trkpt>
      <trkpt lat="43.17825" lon="6.50289">
        <ele>429</ele>
        <time>2024-02-04T12:40:53Z</time>
      </trkpt>
      <trkpt lat="43.17824" lon="6.50289">
        <ele>428.8</ele>
        <time>2024-02-04T12:40:54Z</time>
      </trkpt>
      <trkpt lat="43.17822" lon="6.50289">
        <ele>428.7</ele>
        <time>2024-02-04T12:40:55Z</time>
      </trkpt>
      <trkpt lat="43.17821" lon="6.50289">
        <ele>428.6</ele>
        <time>2024-02-04T12:40:56Z</time>
      </trkpt>
      <trkpt lat="43.1782" lon="6.50289">
        <ele>428.6</ele>
        <time>2024-02-04T12:40:57Z</time>
      </trkpt>
      <trkpt lat="43.17819" lon="6.50289">
        <ele>428.6</ele>
        <time>2024-02-04T12:40:58Z</time>
      </trkpt>
      <trkpt lat="43.17818" lon="6.5029">
        <ele>428.6</ele>
        <time>2024-02-04T12:40:59Z</time>
      </trkpt>
      <trkpt lat="43.17817" lon="6.50289">
        <ele>428.6</ele>
        <time>2024-02-04T12:41:00Z</time>
      </trkpt>
      <trkpt lat="43.17816" lon="6.50289">
        <ele>428.6</ele>
        <time>2024-02-04T12:41:01Z</time>
      </trkpt>
      <trkpt lat="43.17815" lon="6.50289">
        <ele>428.7</ele>
        <time>2024-02-04T12:41:02Z</time>
      </trkpt>
      <trkpt lat="43.17814" lon="6.50289">
        <ele>428.6</ele>
        <time>2024-02-04T12:41:03Z</time>
      </trkpt>
      <trkpt lat="43.17813" lon="6.50289">
        <ele>428.6</ele>
        <time>2024-02-04T12:41:04Z</time>
      </trkpt>
      <trkpt lat="43.17812" lon="6.50289">
        <ele>428.5</ele>
        <time>2024-02-04T12:41:05Z</time>
      </trkpt>
      <trkpt lat="43.1781" lon="6.50289">
        <ele>428.4</ele>
        <time>2024-02-04T12:41:06Z</time>
      </trkpt>
      <trkpt lat="43.17809" lon="6.50289">
        <ele>428.4</ele>
        <time>2024-02-04T12:41:07Z</time>
      </trkpt>
      <trkpt lat="43.17808" lon="6.50289">
        <ele>428.4</ele>
        <time>2024-02-04T12:41:08Z</time>
      </trkpt>
      <trkpt lat="43.17807" lon="6.50289">
        <ele>428.3</ele>
        <time>2024-02-04T12:41:09Z</time>
      </trkpt>
      <trkpt lat="43.17806" lon="6.50289">
        <ele>428.3</ele>
        <time>2024-02-04T12:41:10Z</time>
      </trkpt>
      <trkpt lat="43.17805" lon="6.50289">
        <ele>428.3</ele>
        <time>2024-02-04T12:41:11Z</time>
      </trkpt>
      <trkpt lat="43.17804" lon="6.50289">
        <ele>428.3</ele>
        <time>2024-02-04T12:41:12Z</time>
      </trkpt>
      <trkpt lat="43.17803" lon="6.50289">
        <ele>428.3</ele>
        <time>2024-02-04T12:41:13Z</time>
      </trkpt>
      <trkpt lat="43.17802" lon="6.50288">
        <ele>428.3</ele>
        <time>2024-02-04T12:41:14Z</time>
      </trkpt>
      <trkpt lat="43.17801" lon="6.50288">
        <ele>428.4</ele>
        <time>2024-02-04T12:41:15Z</time>
      </trkpt>
      <trkpt lat="43.178" lon="6.50287">
        <ele>428.3</ele>
        <time>2024-02-04T12:41:16Z</time>
      </trkpt>
      <trkpt lat="43.178" lon="6.50286">
        <ele>428.2</ele>
        <time>2024-02-04T12:41:17Z</time>
      </trkpt>
      <trkpt lat="43.17799" lon="6.50286">
        <ele>428.1</ele>
        <time>2024-02-04T12:41:18Z</time>
      </trkpt>
      <trkpt lat="43.17798" lon="6.50285">
        <ele>428</ele>
        <time>2024-02-04T12:41:19Z</time>
      </trkpt>
      <trkpt lat="43.17797" lon="6.50285">
        <ele>427.9</ele>
        <time>2024-02-04T12:41:20Z</time>
      </trkpt>
      <trkpt lat="43.17796" lon="6.50284">
        <ele>427.7</ele>
        <time>2024-02-04T12:41:21Z</time>
      </trkpt>
      <trkpt lat="43.17796" lon="6.50284">
        <ele>427.6</ele>
        <time>2024-02-04T12:41:22Z</time>
      </trkpt>
      <trkpt lat="43.17795" lon="6.50283">
        <ele>427.5</ele>
        <time>2024-02-04T12:41:23Z</time>
      </trkpt>
      <trkpt lat="43.17794" lon="6.50282">
        <ele>427.3</ele>
        <time>2024-02-04T12:41:24Z</time>
      </trkpt>
      <trkpt lat="43.17794" lon="6.50282">
        <ele>427.2</ele>
        <time>2024-02-04T12:41:25Z</time>
      </trkpt>
      <trkpt lat="43.17794" lon="6.50282">
        <ele>427.1</ele>
        <time>2024-02-04T12:41:26Z</time>
      </trkpt>
      <trkpt lat="43.17794" lon="6.50282">
        <ele>427</ele>
        <time>2024-02-04T12:41:27Z</time>
      </trkpt>
      <trkpt lat="43.17794" lon="6.50282">
        <ele>426.9</ele>
        <time>2024-02-04T12:41:28Z</time>
      </trkpt>
      <trkpt lat="43.17793" lon="6.50281">
        <ele>426.9</ele>
        <time>2024-02-04T12:41:29Z</time>
      </trkpt>
      <trkpt lat="43.17793" lon="6.50281">
        <ele>426.8</ele>
        <time>2024-02-04T12:41:30Z</time>
      </trkpt>
      <trkpt lat="43.17792" lon="6.50281">
        <ele>426.8</ele>
        <time>2024-02-04T12:41:31Z</time>
      </trkpt>
      <trkpt lat="43.17792" lon="6.50281">
        <ele>426.8</ele>
        <time>2024-02-04T12:41:32Z</time>
      </trkpt>
      <trkpt lat="43.17792" lon="6.5028">
        <ele>426.7</ele>
        <time>2024-02-04T12:41:33Z</time>
      </trkpt>
      <trkpt lat="43.17792" lon="6.5028">
        <ele>426.6</ele>
        <time>2024-02-04T12:41:34Z</time>
      </trkpt>
      <trkpt lat="43.17791" lon="6.5028">
        <ele>426.5</ele>
        <time>2024-02-04T12:41:35Z</time>
      </trkpt>
      <trkpt lat="43.1779" lon="6.50279">
        <ele>426.5</ele>
        <time>2024-02-04T12:41:36Z</time>
      </trkpt>
      <trkpt lat="43.1779" lon="6.50279">
        <ele>426.4</ele>
        <time>2024-02-04T12:41:37Z</time>
      </trkpt>
      <trkpt lat="43.17789" lon="6.50278">
        <ele>426.4</ele>
        <time>2024-02-04T12:41:38Z</time>
      </trkpt>
      <trkpt lat="43.17788" lon="6.50278">
        <ele>426.4</ele>
        <time>2024-02-04T12:41:39Z</time>
      </trkpt>
      <trkpt lat="43.17787" lon="6.50278">
        <ele>426.2</ele>
        <time>2024-02-04T12:41:40Z</time>
      </trkpt>
      <trkpt lat="43.17787" lon="6.50277">
        <ele>426.1</ele>
        <time>2024-02-04T12:41:41Z</time>
      </trkpt>
      <trkpt lat="43.17786" lon="6.50277">
        <ele>426</ele>
        <time>2024-02-04T12:41:42Z</time>
      </trkpt>
      <trkpt lat="43.17786" lon="6.50276">
        <ele>425.8</ele>
        <time>2024-02-04T12:41:43Z</time>
      </trkpt>
      <trkpt lat="43.17785" lon="6.50276">
        <ele>425.8</ele>
        <time>2024-02-04T12:41:44Z</time>
      </trkpt>
      <trkpt lat="43.17785" lon="6.50275">
        <ele>425.8</ele>
        <time>2024-02-04T12:41:45Z</time>
      </trkpt>
      <trkpt lat="43.17784" lon="6.50274">
        <ele>425.8</ele>
        <time>2024-02-04T12:41:46Z</time>
      </trkpt>
      <trkpt lat="43.17784" lon="6.50273">
        <ele>425.6</ele>
        <time>2024-02-04T12:41:47Z</time>
      </trkpt>
      <trkpt lat="43.17783" lon="6.50272">
        <ele>425.5</ele>
        <time>2024-02-04T12:41:48Z</time>
      </trkpt>
      <trkpt lat="43.17782" lon="6.50272">
        <ele>425.4</ele>
        <time>2024-02-04T12:41:49Z</time>
      </trkpt>
      <trkpt lat="43.17781" lon="6.50271">
        <ele>425.3</ele>
        <time>2024-02-04T12:41:50Z</time>
      </trkpt>
      <trkpt lat="43.1778" lon="6.50271">
        <ele>425.1</ele>
        <time>2024-02-04T12:41:51Z</time>
      </trkpt>
      <trkpt lat="43.17779" lon="6.50271">
        <ele>425</ele>
        <time>2024-02-04T12:41:52Z</time>
      </trkpt>
      <trkpt lat="43.17778" lon="6.5027">
        <ele>424.8</ele>
        <time>2024-02-04T12:41:53Z</time>
      </trkpt>
      <trkpt lat="43.17777" lon="6.5027">
        <ele>424.7</ele>
        <time>2024-02-04T12:41:54Z</time>
      </trkpt>
      <trkpt lat="43.17777" lon="6.50269">
        <ele>424.6</ele>
        <time>2024-02-04T12:41:55Z</time>
      </trkpt>
      <trkpt lat="43.17775" lon="6.50269">
        <ele>424.4</ele>
        <time>2024-02-04T12:41:56Z</time>
      </trkpt>
      <trkpt lat="43.17774" lon="6.50269">
        <ele>424.2</ele>
        <time>2024-02-04T12:41:57Z</time>
      </trkpt>
      <trkpt lat="43.17773" lon="6.50269">
        <ele>424</ele>
        <time>2024-02-04T12:41:58Z</time>
      </trkpt>
      <trkpt lat="43.17772" lon="6.50269">
        <ele>423.9</ele>
        <time>2024-02-04T12:41:59Z</time>
      </trkpt>
      <trkpt lat="43.17771" lon="6.50268">
        <ele>423.8</ele>
        <time>2024-02-04T12:42:00Z</time>
      </trkpt>
      <trkpt lat="43.17769" lon="6.50269">
        <ele>423.6</ele>
        <time>2024-02-04T12:42:01Z</time>
      </trkpt>
      <trkpt lat="43.17768" lon="6.50269">
        <ele>423.5</ele>
        <time>2024-02-04T12:42:02Z</time>
      </trkpt>
      <trkpt lat="43.17767" lon="6.50269">
        <ele>423.4</ele>
        <time>2024-02-04T12:42:03Z</time>
      </trkpt>
      <trkpt lat="43.17766" lon="6.50269">
        <ele>423.3</ele>
        <time>2024-02-04T12:42:04Z</time>
      </trkpt>
      <trkpt lat="43.17766" lon="6.50269">
        <ele>423.2</ele>
        <time>2024-02-04T12:42:05Z</time>
      </trkpt>
      <trkpt lat="43.17765" lon="6.50268">
        <ele>423.1</ele>
        <time>2024-02-04T12:42:06Z</time>
      </trkpt>
      <trkpt lat="43.17764" lon="6.50268">
        <ele>423</ele>
        <time>2024-02-04T12:42:07Z</time>
      </trkpt>
      <trkpt lat="43.17763" lon="6.50268">
        <ele>422.9</ele>
        <time>2024-02-04T12:42:08Z</time>
      </trkpt>
      <trkpt lat="43.17762" lon="6.50268">
        <ele>422.9</ele>
        <time>2024-02-04T12:42:09Z</time>
      </trkpt>
      <trkpt lat="43.17761" lon="6.50268">
        <ele>422.8</ele>
        <time>2024-02-04T12:42:10Z</time>
      </trkpt>
      <trkpt lat="43.1776" lon="6.50268">
        <ele>422.7</ele>
        <time>2024-02-04T12:42:11Z</time>
      </trkpt>
      <trkpt lat="43.1776" lon="6.50267">
        <ele>422.7</ele>
        <time>2024-02-04T12:42:12Z</time>
      </trkpt>
      <trkpt lat="43.17759" lon="6.50267">
        <ele>422.7</ele>
        <time>2024-02-04T12:42:13Z</time>
      </trkpt>
      <trkpt lat="43.17758" lon="6.50267">
        <ele>422.6</ele>
        <time>2024-02-04T12:42:14Z</time>
      </trkpt>
      <trkpt lat="43.17758" lon="6.50266">
        <ele>422.5</ele>
        <time>2024-02-04T12:42:15Z</time>
      </trkpt>
      <trkpt lat="43.17757" lon="6.50266">
        <ele>422.4</ele>
        <time>2024-02-04T12:42:16Z</time>
      </trkpt>
      <trkpt lat="43.17757" lon="6.50265">
        <ele>422.5</ele>
        <time>2024-02-04T12:42:17Z</time>
      </trkpt>
      <trkpt lat="43.17756" lon="6.50265">
        <ele>422.5</ele>
        <time>2024-02-04T12:42:18Z</time>
      </trkpt>
      <trkpt lat="43.17755" lon="6.50265">
        <ele>422.4</ele>
        <time>2024-02-04T12:42:19Z</time>
      </trkpt>
      <trkpt lat="43.17754" lon="6.50265">
        <ele>422.5</ele>
        <time>2024-02-04T12:42:20Z</time>
      </trkpt>
      <trkpt lat="43.17753" lon="6.50265">
        <ele>422.4</ele>
        <time>2024-02-04T12:42:21Z</time>
      </trkpt>
      <trkpt lat="43.17752" lon="6.50264">
        <ele>422.3</ele>
        <time>2024-02-04T12:42:22Z</time>
      </trkpt>
      <trkpt lat="43.17751" lon="6.50264">
        <ele>422.2</ele>
        <time>2024-02-04T12:42:23Z</time>
      </trkpt>
      <trkpt lat="43.17751" lon="6.50264">
        <ele>422.2</ele>
        <time>2024-02-04T12:42:24Z</time>
      </trkpt>
      <trkpt lat="43.1775" lon="6.50264">
        <ele>422.1</ele>
        <time>2024-02-04T12:42:25Z</time>
      </trkpt>
      <trkpt lat="43.1775" lon="6.50264">
        <ele>422</ele>
        <time>2024-02-04T12:42:26Z</time>
      </trkpt>
      <trkpt lat="43.17749" lon="6.50264">
        <ele>422</ele>
        <time>2024-02-04T12:42:27Z</time>
      </trkpt>
      <trkpt lat="43.17749" lon="6.50264">
        <ele>422.1</ele>
        <time>2024-02-04T12:42:28Z</time>
      </trkpt>
      <trkpt lat="43.17749" lon="6.50264">
        <ele>422.1</ele>
        <time>2024-02-04T12:42:29Z</time>
      </trkpt>
      <trkpt lat="43.17748" lon="6.50264">
        <ele>422</ele>
        <time>2024-02-04T12:42:30Z</time>
      </trkpt>
      <trkpt lat="43.17748" lon="6.50263">
        <ele>422</ele>
        <time>2024-02-04T12:42:31Z</time>
      </trkpt>
      <trkpt lat="43.17748" lon="6.50263">
        <ele>422</ele>
        <time>2024-02-04T12:42:32Z</time>
      </trkpt>
      <trkpt lat="43.17748" lon="6.50263">
        <ele>422.1</ele>
        <time>2024-02-04T12:42:33Z</time>
      </trkpt>
      <trkpt lat="43.17747" lon="6.50263">
        <ele>422.1</ele>
        <time>2024-02-04T12:42:34Z</time>
      </trkpt>
      <trkpt lat="43.17747" lon="6.50263">
        <ele>422.1</ele>
        <time>2024-02-04T12:42:35Z</time>
      </trkpt>
      <trkpt lat="43.17747" lon="6.50262">
        <ele>422.1</ele>
        <time>2024-02-04T12:42:36Z</time>
      </trkpt>
      <trkpt lat="43.17747" lon="6.50262">
        <ele>422.2</ele>
        <time>2024-02-04T12:42:37Z</time>
      </trkpt>
      <trkpt lat="43.17747" lon="6.50262">
        <ele>422.2</ele>
        <time>2024-02-04T12:42:38Z</time>
      </trkpt>
      <trkpt lat="43.17747" lon="6.50262">
        <ele>422.2</ele>
        <time>2024-02-04T12:42:39Z</time>
      </trkpt>
      <trkpt lat="43.17747" lon="6.50262">
        <ele>422.2</ele>
        <time>2024-02-04T12:42:40Z</time>
      </trkpt>
      <trkpt lat="43.17747" lon="6.50262">
        <ele>422.2</ele>
        <time>2024-02-04T12:42:41Z</time>
      </trkpt>
      <trkpt lat="43.17746" lon="6.50262">
        <ele>422.2</ele>
        <time>2024-02-04T12:42:42Z</time>
      </trkpt>
      <trkpt lat="43.17746" lon="6.50262">
        <ele>422.2</ele>
        <time>2024-02-04T12:42:43Z</time>
      </trkpt>
      <trkpt lat="43.17746" lon="6.50261">
        <ele>422.3</ele>
        <time>2024-02-04T12:42:44Z</time>
      </trkpt>
      <trkpt lat="43.17746" lon="6.50262">
        <ele>422.3</ele>
        <time>2024-02-04T12:42:45Z</time>
      </trkpt>
      <trkpt lat="43.17746" lon="6.50262">
        <ele>422.3</ele>
        <time>2024-02-04T12:42:46Z</time>
      </trkpt>
      <trkpt lat="43.17746" lon="6.50262">
        <ele>422.2</ele>
        <time>2024-02-04T12:42:47Z</time>
      </trkpt>
      <trkpt lat="43.17746" lon="6.50262">
        <ele>422.2</ele>
        <time>2024-02-04T12:42:48Z</time>
      </trkpt>
      <trkpt lat="43.17745" lon="6.50262">
        <ele>422.2</ele>
        <time>2024-02-04T12:42:49Z</time>
      </trkpt>
      <trkpt lat="43.17745" lon="6.50262">
        <ele>422.2</ele>
        <time>2024-02-04T12:42:50Z</time>
      </trkpt>
      <trkpt lat="43.17745" lon="6.50262">
        <ele>422.1</ele>
        <time>2024-02-04T12:42:51Z</time>
      </trkpt>
      <trkpt lat="43.17745" lon="6.50262">
        <ele>422.1</ele>
        <time>2024-02-04T12:42:52Z</time>
      </trkpt>
      <trkpt lat="43.17745" lon="6.50262">
        <ele>422.1</ele>
        <time>2024-02-04T12:42:53Z</time>
      </trkpt>
      <trkpt lat="43.17745" lon="6.50262">
        <ele>422.1</ele>
        <time>2024-02-04T12:42:54Z</time>
      </trkpt>
      <trkpt lat="43.17745" lon="6.50262">
        <ele>422.1</ele>
        <time>2024-02-04T12:42:55Z</time>
      </trkpt>
      <trkpt lat="43.17745" lon="6.50262">
        <ele>422.1</ele>
        <time>2024-02-04T12:42:56Z</time>
      </trkpt>
      <trkpt lat="43.17745" lon="6.50262">
        <ele>422</ele>
        <time>2024-02-04T12:42:57Z</time>
      </trkpt>
      <trkpt lat="43.17745" lon="6.50262">
        <ele>422</ele>
        <time>2024-02-04T12:42:58Z</time>
      </trkpt>
      <trkpt lat="43.17745" lon="6.50262">
        <ele>421.9</ele>
        <time>2024-02-04T12:42:59Z</time>
      </trkpt>
      <trkpt lat="43.17744" lon="6.50262">
        <ele>421.8</ele>
        <time>2024-02-04T12:43:00Z</time>
      </trkpt>
      <trkpt lat="43.17744" lon="6.50262">
        <ele>421.8</ele>
        <time>2024-02-04T12:43:01Z</time>
      </trkpt>
      <trkpt lat="43.17744" lon="6.50261">
        <ele>421.9</ele>
        <time>2024-02-04T12:43:02Z</time>
      </trkpt>
      <trkpt lat="43.17744" lon="6.50261">
        <ele>422</ele>
        <time>2024-02-04T12:43:03Z</time>
      </trkpt>
      <trkpt lat="43.17744" lon="6.50261">
        <ele>422</ele>
        <time>2024-02-04T12:43:04Z</time>
      </trkpt>
      <trkpt lat="43.17744" lon="6.50261">
        <ele>422.1</ele>
        <time>2024-02-04T12:43:05Z</time>
      </trkpt>
      <trkpt lat="43.17744" lon="6.50261">
        <ele>422.1</ele>
        <time>2024-02-04T12:43:06Z</time>
      </trkpt>
      <trkpt lat="43.17744" lon="6.50261">
        <ele>422.1</ele>
        <time>2024-02-04T12:43:07Z</time>
      </trkpt>
      <trkpt lat="43.17744" lon="6.50261">
        <ele>422.2</ele>
        <time>2024-02-04T12:43:08Z</time>
      </trkpt>
      <trkpt lat="43.17744" lon="6.50261">
        <ele>422.2</ele>
        <time>2024-02-04T12:43:09Z</time>
      </trkpt>
      <trkpt lat="43.17744" lon="6.50261">
        <ele>422.2</ele>
        <time>2024-02-04T12:43:10Z</time>
      </trkpt>
      <trkpt lat="43.17744" lon="6.50261">
        <ele>422.2</ele>
        <time>2024-02-04T12:43:11Z</time>
      </trkpt>
      <trkpt lat="43.17744" lon="6.50261">
        <ele>422.1</ele>
        <time>2024-02-04T12:43:12Z</time>
      </trkpt>
      <trkpt lat="43.17744" lon="6.50261">
        <ele>422.2</ele>
        <time>2024-02-04T12:43:13Z</time>
      </trkpt>
      <trkpt lat="43.17744" lon="6.50261">
        <ele>422.2</ele>
        <time>2024-02-04T12:43:14Z</time>
      </trkpt>
      <trkpt lat="43.17745" lon="6.50261">
        <ele>422.3</ele>
        <time>2024-02-04T12:43:15Z</time>
      </trkpt>
      <trkpt lat="43.17745" lon="6.50261">
        <ele>422.3</ele>
        <time>2024-02-04T12:43:16Z</time>
      </trkpt>
      <trkpt lat="43.17745" lon="6.5026">
        <ele>422.3</ele>
        <time>2024-02-04T12:43:17Z</time>
      </trkpt>
      <trkpt lat="43.17745" lon="6.5026">
        <ele>422.3</ele>
        <time>2024-02-04T12:43:18Z</time>
      </trkpt>
      <trkpt lat="43.17745" lon="6.5026">
        <ele>422.3</ele>
        <time>2024-02-04T12:43:19Z</time>
      </trkpt>
      <trkpt lat="43.17745" lon="6.5026">
        <ele>422.3</ele>
        <time>2024-02-04T12:43:20Z</time>
      </trkpt>
      <trkpt lat="43.17745" lon="6.5026">
        <ele>422.2</ele>
        <time>2024-02-04T12:43:21Z</time>
      </trkpt>
      <trkpt lat="43.17745" lon="6.5026">
        <ele>422.2</ele>
        <time>2024-02-04T12:43:22Z</time>
      </trkpt>
      <trkpt lat="43.17745" lon="6.50259">
        <ele>422.2</ele>
        <time>2024-02-04T12:43:23Z</time>
      </trkpt>
      <trkpt lat="43.17745" lon="6.50259">
        <ele>422.2</ele>
        <time>2024-02-04T12:43:24Z</time>
      </trkpt>
      <trkpt lat="43.17745" lon="6.50259">
        <ele>422.3</ele>
        <time>2024-02-04T12:43:25Z</time>
      </trkpt>
      <trkpt lat="43.17745" lon="6.50259">
        <ele>422.3</ele>
        <time>2024-02-04T12:43:26Z</time>
      </trkpt>
      <trkpt lat="43.17746" lon="6.50259">
        <ele>422.3</ele>
        <time>2024-02-04T12:43:27Z</time>
      </trkpt>
      <trkpt lat="43.17746" lon="6.50259">
        <ele>422.3</ele>
        <time>2024-02-04T12:43:28Z</time>
      </trkpt>
      <trkpt lat="43.17746" lon="6.50259">
        <ele>422.3</ele>
        <time>2024-02-04T12:43:29Z</time>
      </trkpt>
      <trkpt lat="43.17746" lon="6.50259">
        <ele>422.3</ele>
        <time>2024-02-04T12:43:30Z</time>
      </trkpt>
      <trkpt lat="43.17746" lon="6.50258">
        <ele>422.3</ele>
        <time>2024-02-04T12:43:31Z</time>
      </trkpt>
      <trkpt lat="43.17746" lon="6.50258">
        <ele>422.2</ele>
        <time>2024-02-04T12:43:32Z</time>
      </trkpt>
      <trkpt lat="43.17746" lon="6.50258">
        <ele>422.2</ele>
        <time>2024-02-04T12:43:33Z</time>
      </trkpt>
      <trkpt lat="43.17746" lon="6.50258">
        <ele>422.2</ele>
        <time>2024-02-04T12:43:34Z</time>
      </trkpt>
      <trkpt lat="43.17746" lon="6.50258">
        <ele>422.2</ele>
        <time>2024-02-04T12:43:35Z</time>
      </trkpt>
      <trkpt lat="43.17746" lon="6.50258">
        <ele>422.2</ele>
        <time>2024-02-04T12:43:36Z</time>
      </trkpt>
      <trkpt lat="43.17746" lon="6.50258">
        <ele>422.2</ele>
        <time>2024-02-04T12:43:37Z</time>
      </trkpt>
      <trkpt lat="43.17745" lon="6.50258">
        <ele>422.2</ele>
        <time>2024-02-04T12:43:38Z</time>
      </trkpt>
      <trkpt lat="43.17745" lon="6.50258">
        <ele>422.1</ele>
        <time>2024-02-04T12:43:39Z</time>
      </trkpt>
      <trkpt lat="43.17745" lon="6.50258">
        <ele>422.1</ele>
        <time>2024-02-04T12:43:40Z</time>
      </trkpt>
      <trkpt lat="43.17745" lon="6.50258">
        <ele>422</ele>
        <time>2024-02-04T12:43:41Z</time>
      </trkpt>
      <trkpt lat="43.17745" lon="6.50258">
        <ele>422</ele>
        <time>2024-02-04T12:43:42Z</time>
      </trkpt>
      <trkpt lat="43.17745" lon="6.50258">
        <ele>422</ele>
        <time>2024-02-04T12:43:43Z</time>
      </trkpt>
      <trkpt lat="43.17745" lon="6.50258">
        <ele>422</ele>
        <time>2024-02-04T12:43:44Z</time>
      </trkpt>
      <trkpt lat="43.17745" lon="6.50258">
        <ele>422.1</ele>
        <time>2024-02-04T12:43:45Z</time>
      </trkpt>
      <trkpt lat="43.17745" lon="6.50259">
        <ele>422.1</ele>
        <time>2024-02-04T12:43:46Z</time>
      </trkpt>
      <trkpt lat="43.17745" lon="6.50259">
        <ele>422</ele>
        <time>2024-02-04T12:43:47Z</time>
      </trkpt>
      <trkpt lat="43.17745" lon="6.50259">
        <ele>422</ele>
        <time>2024-02-04T12:43:48Z</time>
      </trkpt>
      <trkpt lat="43.17745" lon="6.50259">
        <ele>422</ele>
        <time>2024-02-04T12:43:49Z</time>
      </trkpt>
      <trkpt lat="43.17744" lon="6.50259">
        <ele>421.9</ele>
        <time>2024-02-04T12:43:50Z</time>
      </trkpt>
      <trkpt lat="43.17744" lon="6.50259">
        <ele>422</ele>
        <time>2024-02-04T12:43:51Z</time>
      </trkpt>
      <trkpt lat="43.17744" lon="6.50259">
        <ele>422</ele>
        <time>2024-02-04T12:43:52Z</time>
      </trkpt>
      <trkpt lat="43.17744" lon="6.50259">
        <ele>422.1</ele>
        <time>2024-02-04T12:43:53Z</time>
      </trkpt>
      <trkpt lat="43.17744" lon="6.50259">
        <ele>422.1</ele>
        <time>2024-02-04T12:43:54Z</time>
      </trkpt>
      <trkpt lat="43.17744" lon="6.50259">
        <ele>422.2</ele>
        <time>2024-02-04T12:43:55Z</time>
      </trkpt>
      <trkpt lat="43.17744" lon="6.50259">
        <ele>422.2</ele>
        <time>2024-02-04T12:43:56Z</time>
      </trkpt>
      <trkpt lat="43.17744" lon="6.50259">
        <ele>422.2</ele>
        <time>2024-02-04T12:43:57Z</time>
      </trkpt>
      <trkpt lat="43.17744" lon="6.50259">
        <ele>422.2</ele>
        <time>2024-02-04T12:43:58Z</time>
      </trkpt>
      <trkpt lat="43.17744" lon="6.50259">
        <ele>422.2</ele>
        <time>2024-02-04T12:43:59Z</time>
      </trkpt>
      <trkpt lat="43.17744" lon="6.5026">
        <ele>422.2</ele>
        <time>2024-02-04T12:44:00Z</time>
      </trkpt>
      <trkpt lat="43.17744" lon="6.5026">
        <ele>422.2</ele>
        <time>2024-02-04T12:44:01Z</time>
      </trkpt>
      <trkpt lat="43.17744" lon="6.5026">
        <ele>422.2</ele>
        <time>2024-02-04T12:44:02Z</time>
      </trkpt>
      <trkpt lat="43.17744" lon="6.5026">
        <ele>422.2</ele>
        <time>2024-02-04T12:44:03Z</time>
      </trkpt>
      <trkpt lat="43.17744" lon="6.5026">
        <ele>422.2</ele>
        <time>2024-02-04T12:44:04Z</time>
      </trkpt>
      <trkpt lat="43.17744" lon="6.5026">
        <ele>422.1</ele>
        <time>2024-02-04T12:44:05Z</time>
      </trkpt>
      <trkpt lat="43.17744" lon="6.5026">
        <ele>422</ele>
        <time>2024-02-04T12:44:06Z</time>
      </trkpt>
      <trkpt lat="43.17744" lon="6.5026">
        <ele>422.1</ele>
        <time>2024-02-04T12:44:07Z</time>
      </trkpt>
      <trkpt lat="43.17744" lon="6.5026">
        <ele>421.9</ele>
        <time>2024-02-04T12:44:08Z</time>
      </trkpt>
      <trkpt lat="43.17744" lon="6.5026">
        <ele>421.8</ele>
        <time>2024-02-04T12:44:09Z</time>
      </trkpt>
      <trkpt lat="43.17744" lon="6.5026">
        <ele>421.8</ele>
        <time>2024-02-04T12:44:10Z</time>
      </trkpt>
      <trkpt lat="43.17743" lon="6.5026">
        <ele>421.9</ele>
        <time>2024-02-04T12:44:11Z</time>
      </trkpt>
      <trkpt lat="43.17743" lon="6.5026">
        <ele>421.9</ele>
        <time>2024-02-04T12:44:12Z</time>
      </trkpt>
      <trkpt lat="43.17743" lon="6.5026">
        <ele>422</ele>
        <time>2024-02-04T12:44:13Z</time>
      </trkpt>
      <trkpt lat="43.17743" lon="6.5026">
        <ele>422</ele>
        <time>2024-02-04T12:44:14Z</time>
      </trkpt>
      <trkpt lat="43.17743" lon="6.5026">
        <ele>422</ele>
        <time>2024-02-04T12:44:15Z</time>
      </trkpt>
      <trkpt lat="43.17743" lon="6.5026">
        <ele>422.1</ele>
        <time>2024-02-04T12:44:16Z</time>
      </trkpt>
      <trkpt lat="43.17743" lon="6.5026">
        <ele>422.1</ele>
        <time>2024-02-04T12:44:17Z</time>
      </trkpt>
      <trkpt lat="43.17743" lon="6.5026">
        <ele>422.1</ele>
        <time>2024-02-04T12:44:18Z</time>
      </trkpt>
      <trkpt lat="43.17743" lon="6.5026">
        <ele>422</ele>
        <time>2024-02-04T12:44:19Z</time>
      </trkpt>
      <trkpt lat="43.17743" lon="6.5026">
        <ele>422.1</ele>
        <time>2024-02-04T12:44:20Z</time>
      </trkpt>
      <trkpt lat="43.17743" lon="6.5026">
        <ele>422</ele>
        <time>2024-02-04T12:44:21Z</time>
      </trkpt>
      <trkpt lat="43.17743" lon="6.5026">
        <ele>422</ele>
        <time>2024-02-04T12:44:22Z</time>
      </trkpt>
      <trkpt lat="43.17743" lon="6.5026">
        <ele>422</ele>
        <time>2024-02-04T12:44:23Z</time>
      </trkpt>
      <trkpt lat="43.17743" lon="6.5026">
        <ele>422</ele>
        <time>2024-02-04T12:44:24Z</time>
      </trkpt>
      <trkpt lat="43.17743" lon="6.5026">
        <ele>422</ele>
        <time>2024-02-04T12:44:25Z</time>
      </trkpt>
      <trkpt lat="43.17743" lon="6.5026">
        <ele>422</ele>
        <time>2024-02-04T12:44:26Z</time>
      </trkpt>
      <trkpt lat="43.17743" lon="6.50261">
        <ele>422</ele>
        <time>2024-02-04T12:44:27Z</time>
      </trkpt>
      <trkpt lat="43.17743" lon="6.50261">
        <ele>422.1</ele>
        <time>2024-02-04T12:44:28Z</time>
      </trkpt>
      <trkpt lat="43.17743" lon="6.50261">
        <ele>422.1</ele>
        <time>2024-02-04T12:44:29Z</time>
      </trkpt>
      <trkpt lat="43.17744" lon="6.50261">
        <ele>422.2</ele>
        <time>2024-02-04T12:44:30Z</time>
      </trkpt>
      <trkpt lat="43.17744" lon="6.50261">
        <ele>422.2</ele>
        <time>2024-02-04T12:44:31Z</time>
      </trkpt>
      <trkpt lat="43.17744" lon="6.50261">
        <ele>422.2</ele>
        <time>2024-02-04T12:44:32Z</time>
      </trkpt>
      <trkpt lat="43.17744" lon="6.50261">
        <ele>422.1</ele>
        <time>2024-02-04T12:44:33Z</time>
      </trkpt>
      <trkpt lat="43.17744" lon="6.50261">
        <ele>422.1</ele>
        <time>2024-02-04T12:44:34Z</time>
      </trkpt>
      <trkpt lat="43.17744" lon="6.50261">
        <ele>422</ele>
        <time>2024-02-04T12:44:35Z</time>
      </trkpt>
      <trkpt lat="43.17744" lon="6.50261">
        <ele>422.1</ele>
        <time>2024-02-04T12:44:36Z</time>
      </trkpt>
      <trkpt lat="43.17744" lon="6.50261">
        <ele>422.1</ele>
        <time>2024-02-04T12:44:37Z</time>
      </trkpt>
      <trkpt lat="43.17744" lon="6.50261">
        <ele>422.1</ele>
        <time>2024-02-04T12:44:38Z</time>
      </trkpt>
      <trkpt lat="43.17744" lon="6.50261">
        <ele>422</ele>
        <time>2024-02-04T12:44:39Z</time>
      </trkpt>
      <trkpt lat="43.17744" lon="6.50261">
        <ele>422</ele>
        <time>2024-02-04T12:44:40Z</time>
      </trkpt>
      <trkpt lat="43.17744" lon="6.50261">
        <ele>421.9</ele>
        <time>2024-02-04T12:44:41Z</time>
      </trkpt>
      <trkpt lat="43.17744" lon="6.50261">
        <ele>422</ele>
        <time>2024-02-04T12:44:42Z</time>
      </trkpt>
      <trkpt lat="43.17744" lon="6.50261">
        <ele>422</ele>
        <time>2024-02-04T12:44:43Z</time>
      </trkpt>
      <trkpt lat="43.17743" lon="6.50261">
        <ele>422</ele>
        <time>2024-02-04T12:44:44Z</time>
      </trkpt>
      <trkpt lat="43.17743" lon="6.50261">
        <ele>422</ele>
        <time>2024-02-04T12:44:45Z</time>
      </trkpt>
      <trkpt lat="43.17743" lon="6.50261">
        <ele>422</ele>
        <time>2024-02-04T12:44:46Z</time>
      </trkpt>
      <trkpt lat="43.17743" lon="6.50261">
        <ele>422.1</ele>
        <time>2024-02-04T12:44:47Z</time>
      </trkpt>
      <trkpt lat="43.17743" lon="6.50261">
        <ele>422.1</ele>
        <time>2024-02-04T12:44:48Z</time>
      </trkpt>
      <trkpt lat="43.17743" lon="6.50261">
        <ele>422.1</ele>
        <time>2024-02-04T12:44:49Z</time>
      </trkpt>
      <trkpt lat="43.17743" lon="6.50261">
        <ele>422.1</ele>
        <time>2024-02-04T12:44:50Z</time>
      </trkpt>
      <trkpt lat="43.17743" lon="6.50261">
        <ele>422.1</ele>
        <time>2024-02-04T12:44:51Z</time>
      </trkpt>
      <trkpt lat="43.17743" lon="6.50261">
        <ele>422</ele>
        <time>2024-02-04T12:44:52Z</time>
      </trkpt>
      <trkpt lat="43.17743" lon="6.50261">
        <ele>422</ele>
        <time>2024-02-04T12:44:53Z</time>
      </trkpt>
      <trkpt lat="43.17743" lon="6.50261">
        <ele>421.9</ele>
        <time>2024-02-04T12:44:54Z</time>
      </trkpt>
      <trkpt lat="43.17743" lon="6.50261">
        <ele>422</ele>
        <time>2024-02-04T12:44:55Z</time>
      </trkpt>
      <trkpt lat="43.17743" lon="6.50261">
        <ele>421.9</ele>
        <time>2024-02-04T12:44:56Z</time>
      </trkpt>
      <trkpt lat="43.17743" lon="6.50261">
        <ele>421.9</ele>
        <time>2024-02-04T12:44:57Z</time>
      </trkpt>
      <trkpt lat="43.17743" lon="6.50261">
        <ele>421.9</ele>
        <time>2024-02-04T12:44:58Z</time>
      </trkpt>
      <trkpt lat="43.17743" lon="6.50261">
        <ele>421.8</ele>
        <time>2024-02-04T12:44:59Z</time>
      </trkpt>
      <trkpt lat="43.17743" lon="6.50261">
        <ele>421.8</ele>
        <time>2024-02-04T12:45:00Z</time>
      </trkpt>
      <trkpt lat="43.17743" lon="6.50261">
        <ele>421.9</ele>
        <time>2024-02-04T12:45:01Z</time>
      </trkpt>
      <trkpt lat="43.17743" lon="6.50261">
        <ele>421.9</ele>
        <time>2024-02-04T12:45:02Z</time>
      </trkpt>
      <trkpt lat="43.17743" lon="6.50261">
        <ele>422</ele>
        <time>2024-02-04T12:45:03Z</time>
      </trkpt>
      <trkpt lat="43.17743" lon="6.50261">
        <ele>422</ele>
        <time>2024-02-04T12:45:04Z</time>
      </trkpt>
      <trkpt lat="43.17743" lon="6.50261">
        <ele>421.9</ele>
        <time>2024-02-04T12:45:05Z</time>
      </trkpt>
      <trkpt lat="43.17742" lon="6.50261">
        <ele>421.9</ele>
        <time>2024-02-04T12:45:06Z</time>
      </trkpt>
      <trkpt lat="43.17741" lon="6.50262">
        <ele>421.8</ele>
        <time>2024-02-04T12:45:07Z</time>
      </trkpt>
      <trkpt lat="43.1774" lon="6.50261">
        <ele>421.8</ele>
        <time>2024-02-04T12:45:08Z</time>
      </trkpt>
      <trkpt lat="43.17739" lon="6.50261">
        <ele>421.9</ele>
        <time>2024-02-04T12:45:09Z</time>
      </trkpt>
      <trkpt lat="43.17738" lon="6.50261">
        <ele>421.9</ele>
        <time>2024-02-04T12:45:10Z</time>
      </trkpt>
      <trkpt lat="43.17737" lon="6.5026">
        <ele>421.9</ele>
        <time>2024-02-04T12:45:11Z</time>
      </trkpt>
      <trkpt lat="43.17736" lon="6.5026">
        <ele>421.9</ele>
        <time>2024-02-04T12:45:12Z</time>
      </trkpt>
      <trkpt lat="43.17735" lon="6.5026">
        <ele>421.9</ele>
        <time>2024-02-04T12:45:13Z</time>
      </trkpt>
      <trkpt lat="43.17735" lon="6.5026">
        <ele>421.8</ele>
        <time>2024-02-04T12:45:14Z</time>
      </trkpt>
      <trkpt lat="43.17734" lon="6.50259">
        <ele>421.7</ele>
        <time>2024-02-04T12:45:15Z</time>
      </trkpt>
      <trkpt lat="43.17733" lon="6.50259">
        <ele>421.6</ele>
        <time>2024-02-04T12:45:16Z</time>
      </trkpt>
      <trkpt lat="43.17732" lon="6.50258">
        <ele>421.6</ele>
        <time>2024-02-04T12:45:17Z</time>
      </trkpt>
      <trkpt lat="43.17731" lon="6.50258">
        <ele>421.5</ele>
        <time>2024-02-04T12:45:18Z</time>
      </trkpt>
      <trkpt lat="43.1773" lon="6.50258">
        <ele>421.5</ele>
        <time>2024-02-04T12:45:19Z</time>
      </trkpt>
      <trkpt lat="43.1773" lon="6.50257">
        <ele>421.5</ele>
        <time>2024-02-04T12:45:20Z</time>
      </trkpt>
      <trkpt lat="43.17729" lon="6.50257">
        <ele>421.4</ele>
        <time>2024-02-04T12:45:21Z</time>
      </trkpt>
      <trkpt lat="43.17728" lon="6.50256">
        <ele>421.4</ele>
        <time>2024-02-04T12:45:22Z</time>
      </trkpt>
      <trkpt lat="43.17727" lon="6.50256">
        <ele>421.2</ele>
        <time>2024-02-04T12:45:23Z</time>
      </trkpt>
      <trkpt lat="43.17726" lon="6.50255">
        <ele>421</ele>
        <time>2024-02-04T12:45:24Z</time>
      </trkpt>
      <trkpt lat="43.17725" lon="6.50255">
        <ele>420.8</ele>
        <time>2024-02-04T12:45:25Z</time>
      </trkpt>
      <trkpt lat="43.17725" lon="6.50254">
        <ele>420.6</ele>
        <time>2024-02-04T12:45:26Z</time>
      </trkpt>
      <trkpt lat="43.17724" lon="6.50254">
        <ele>420.5</ele>
        <time>2024-02-04T12:45:27Z</time>
      </trkpt>
      <trkpt lat="43.17723" lon="6.50254">
        <ele>420.3</ele>
        <time>2024-02-04T12:45:28Z</time>
      </trkpt>
      <trkpt lat="43.17723" lon="6.50254">
        <ele>420.1</ele>
        <time>2024-02-04T12:45:29Z</time>
      </trkpt>
      <trkpt lat="43.17722" lon="6.50254">
        <ele>420</ele>
        <time>2024-02-04T12:45:30Z</time>
      </trkpt>
      <trkpt lat="43.17721" lon="6.50255">
        <ele>419.7</ele>
        <time>2024-02-04T12:45:31Z</time>
      </trkpt>
      <trkpt lat="43.17721" lon="6.50255">
        <ele>419.6</ele>
        <time>2024-02-04T12:45:32Z</time>
      </trkpt>
      <trkpt lat="43.1772" lon="6.50255">
        <ele>419.4</ele>
        <time>2024-02-04T12:45:33Z</time>
      </trkpt>
      <trkpt lat="43.17719" lon="6.50254">
        <ele>419.1</ele>
        <time>2024-02-04T12:45:34Z</time>
      </trkpt>
      <trkpt lat="43.17719" lon="6.50255">
        <ele>418.9</ele>
        <time>2024-02-04T12:45:35Z</time>
      </trkpt>
      <trkpt lat="43.17718" lon="6.50255">
        <ele>418.8</ele>
        <time>2024-02-04T12:45:36Z</time>
      </trkpt>
      <trkpt lat="43.17717" lon="6.50255">
        <ele>418.6</ele>
        <time>2024-02-04T12:45:37Z</time>
      </trkpt>
      <trkpt lat="43.17717" lon="6.50255">
        <ele>418.5</ele>
        <time>2024-02-04T12:45:38Z</time>
      </trkpt>
      <trkpt lat="43.17716" lon="6.50255">
        <ele>418.3</ele>
        <time>2024-02-04T12:45:39Z</time>
      </trkpt>
      <trkpt lat="43.17715" lon="6.50254">
        <ele>418.1</ele>
        <time>2024-02-04T12:45:40Z</time>
      </trkpt>
      <trkpt lat="43.17714" lon="6.50255">
        <ele>417.8</ele>
        <time>2024-02-04T12:45:41Z</time>
      </trkpt>
      <trkpt lat="43.17713" lon="6.50254">
        <ele>417.7</ele>
        <time>2024-02-04T12:45:42Z</time>
      </trkpt>
      <trkpt lat="43.17712" lon="6.50255">
        <ele>417.6</ele>
        <time>2024-02-04T12:45:43Z</time>
      </trkpt>
      <trkpt lat="43.17712" lon="6.50255">
        <ele>417.4</ele>
        <time>2024-02-04T12:45:44Z</time>
      </trkpt>
      <trkpt lat="43.17711" lon="6.50255">
        <ele>417.3</ele>
        <time>2024-02-04T12:45:45Z</time>
      </trkpt>
      <trkpt lat="43.1771" lon="6.50256">
        <ele>417.1</ele>
        <time>2024-02-04T12:45:46Z</time>
      </trkpt>
      <trkpt lat="43.17709" lon="6.50256">
        <ele>416.8</ele>
        <time>2024-02-04T12:45:47Z</time>
      </trkpt>
      <trkpt lat="43.17709" lon="6.50256">
        <ele>416.7</ele>
        <time>2024-02-04T12:45:48Z</time>
      </trkpt>
      <trkpt lat="43.17708" lon="6.50256">
        <ele>416.6</ele>
        <time>2024-02-04T12:45:49Z</time>
      </trkpt>
      <trkpt lat="43.17707" lon="6.50256">
        <ele>416.4</ele>
        <time>2024-02-04T12:45:50Z</time>
      </trkpt>
      <trkpt lat="43.17706" lon="6.50255">
        <ele>416.3</ele>
        <time>2024-02-04T12:45:51Z</time>
      </trkpt>
      <trkpt lat="43.17705" lon="6.50255">
        <ele>416.2</ele>
        <time>2024-02-04T12:45:52Z</time>
      </trkpt>
      <trkpt lat="43.17705" lon="6.50256">
        <ele>416</ele>
        <time>2024-02-04T12:45:53Z</time>
      </trkpt>
      <trkpt lat="43.17704" lon="6.50256">
        <ele>415.9</ele>
        <time>2024-02-04T12:45:54Z</time>
      </trkpt>
      <trkpt lat="43.17703" lon="6.50256">
        <ele>415.7</ele>
        <time>2024-02-04T12:45:55Z</time>
      </trkpt>
      <trkpt lat="43.17703" lon="6.50256">
        <ele>415.4</ele>
        <time>2024-02-04T12:45:56Z</time>
      </trkpt>
      <trkpt lat="43.17703" lon="6.50255">
        <ele>415.3</ele>
        <time>2024-02-04T12:45:57Z</time>
      </trkpt>
      <trkpt lat="43.17703" lon="6.50254">
        <ele>415.1</ele>
        <time>2024-02-04T12:45:58Z</time>
      </trkpt>
      <trkpt lat="43.17703" lon="6.50253">
        <ele>415</ele>
        <time>2024-02-04T12:45:59Z</time>
      </trkpt>
      <trkpt lat="43.17703" lon="6.50253">
        <ele>414.9</ele>
        <time>2024-02-04T12:46:00Z</time>
      </trkpt>
      <trkpt lat="43.17703" lon="6.50253">
        <ele>414.8</ele>
        <time>2024-02-04T12:46:01Z</time>
      </trkpt>
      <trkpt lat="43.17703" lon="6.50252">
        <ele>414.6</ele>
        <time>2024-02-04T12:46:02Z</time>
      </trkpt>
      <trkpt lat="43.17703" lon="6.50251">
        <ele>414.5</ele>
        <time>2024-02-04T12:46:03Z</time>
      </trkpt>
      <trkpt lat="43.17703" lon="6.50251">
        <ele>414.3</ele>
        <time>2024-02-04T12:46:04Z</time>
      </trkpt>
      <trkpt lat="43.17703" lon="6.5025">
        <ele>414.1</ele>
        <time>2024-02-04T12:46:05Z</time>
      </trkpt>
      <trkpt lat="43.17703" lon="6.50249">
        <ele>414</ele>
        <time>2024-02-04T12:46:06Z</time>
      </trkpt>
      <trkpt lat="43.17703" lon="6.50248">
        <ele>413.8</ele>
        <time>2024-02-04T12:46:07Z</time>
      </trkpt>
      <trkpt lat="43.17702" lon="6.50248">
        <ele>413.6</ele>
        <time>2024-02-04T12:46:08Z</time>
      </trkpt>
      <trkpt lat="43.17702" lon="6.50247">
        <ele>413.4</ele>
        <time>2024-02-04T12:46:09Z</time>
      </trkpt>
      <trkpt lat="43.17702" lon="6.50246">
        <ele>413.3</ele>
        <time>2024-02-04T12:46:10Z</time>
      </trkpt>
      <trkpt lat="43.17702" lon="6.50245">
        <ele>413.2</ele>
        <time>2024-02-04T12:46:11Z</time>
      </trkpt>
      <trkpt lat="43.17702" lon="6.50244">
        <ele>413.1</ele>
        <time>2024-02-04T12:46:12Z</time>
      </trkpt>
      <trkpt lat="43.17701" lon="6.50244">
        <ele>413.1</ele>
        <time>2024-02-04T12:46:13Z</time>
      </trkpt>
      <trkpt lat="43.17701" lon="6.50243">
        <ele>412.9</ele>
        <time>2024-02-04T12:46:14Z</time>
      </trkpt>
      <trkpt lat="43.17701" lon="6.50243">
        <ele>412.8</ele>
        <time>2024-02-04T12:46:15Z</time>
      </trkpt>
      <trkpt lat="43.17701" lon="6.50243">
        <ele>412.7</ele>
        <time>2024-02-04T12:46:16Z</time>
      </trkpt>
      <trkpt lat="43.17701" lon="6.50242">
        <ele>412.7</ele>
        <time>2024-02-04T12:46:17Z</time>
      </trkpt>
      <trkpt lat="43.17701" lon="6.50242">
        <ele>412.6</ele>
        <time>2024-02-04T12:46:18Z</time>
      </trkpt>
      <trkpt lat="43.17701" lon="6.50241">
        <ele>412.5</ele>
        <time>2024-02-04T12:46:19Z</time>
      </trkpt>
      <trkpt lat="43.17701" lon="6.50241">
        <ele>412.4</ele>
        <time>2024-02-04T12:46:20Z</time>
      </trkpt>
      <trkpt lat="43.17701" lon="6.5024">
        <ele>412.3</ele>
        <time>2024-02-04T12:46:21Z</time>
      </trkpt>
      <trkpt lat="43.17701" lon="6.5024">
        <ele>412.1</ele>
        <time>2024-02-04T12:46:22Z</time>
      </trkpt>
      <trkpt lat="43.17701" lon="6.50239">
        <ele>412</ele>
        <time>2024-02-04T12:46:23Z</time>
      </trkpt>
      <trkpt lat="43.17701" lon="6.50238">
        <ele>411.9</ele>
        <time>2024-02-04T12:46:24Z</time>
      </trkpt>
      <trkpt lat="43.17701" lon="6.50238">
        <ele>411.8</ele>
        <time>2024-02-04T12:46:25Z</time>
      </trkpt>
      <trkpt lat="43.177" lon="6.50237">
        <ele>411.6</ele>
        <time>2024-02-04T12:46:26Z</time>
      </trkpt>
      <trkpt lat="43.177" lon="6.50237">
        <ele>411.5</ele>
        <time>2024-02-04T12:46:27Z</time>
      </trkpt>
      <trkpt lat="43.177" lon="6.50236">
        <ele>411.3</ele>
        <time>2024-02-04T12:46:28Z</time>
      </trkpt>
      <trkpt lat="43.177" lon="6.50235">
        <ele>411.2</ele>
        <time>2024-02-04T12:46:29Z</time>
      </trkpt>
      <trkpt lat="43.177" lon="6.50235">
        <ele>410.9</ele>
        <time>2024-02-04T12:46:30Z</time>
      </trkpt>
      <trkpt lat="43.177" lon="6.50234">
        <ele>410.7</ele>
        <time>2024-02-04T12:46:31Z</time>
      </trkpt>
      <trkpt lat="43.177" lon="6.50234">
        <ele>410.6</ele>
        <time>2024-02-04T12:46:32Z</time>
      </trkpt>
      <trkpt lat="43.177" lon="6.50234">
        <ele>410.4</ele>
        <time>2024-02-04T12:46:33Z</time>
      </trkpt>
      <trkpt lat="43.177" lon="6.50233">
        <ele>410.3</ele>
        <time>2024-02-04T12:46:34Z</time>
      </trkpt>
      <trkpt lat="43.177" lon="6.50233">
        <ele>410.1</ele>
        <time>2024-02-04T12:46:35Z</time>
      </trkpt>
      <trkpt lat="43.17699" lon="6.50233">
        <ele>409.9</ele>
        <time>2024-02-04T12:46:36Z</time>
      </trkpt>
      <trkpt lat="43.17699" lon="6.50232">
        <ele>409.8</ele>
        <time>2024-02-04T12:46:37Z</time>
      </trkpt>
      <trkpt lat="43.17699" lon="6.50231">
        <ele>409.6</ele>
        <time>2024-02-04T12:46:38Z</time>
      </trkpt>
      <trkpt lat="43.17698" lon="6.50231">
        <ele>409.5</ele>
        <time>2024-02-04T12:46:39Z</time>
      </trkpt>
      <trkpt lat="43.17699" lon="6.5023">
        <ele>409.4</ele>
        <time>2024-02-04T12:46:40Z</time>
      </trkpt>
      <trkpt lat="43.17699" lon="6.50229">
        <ele>409.2</ele>
        <time>2024-02-04T12:46:41Z</time>
      </trkpt>
      <trkpt lat="43.17699" lon="6.50228">
        <ele>409.1</ele>
        <time>2024-02-04T12:46:42Z</time>
      </trkpt>
      <trkpt lat="43.17698" lon="6.50227">
        <ele>409</ele>
        <time>2024-02-04T12:46:43Z</time>
      </trkpt>
      <trkpt lat="43.17698" lon="6.50226">
        <ele>409</ele>
        <time>2024-02-04T12:46:44Z</time>
      </trkpt>
      <trkpt lat="43.17698" lon="6.50226">
        <ele>408.9</ele>
        <time>2024-02-04T12:46:45Z</time>
      </trkpt>
      <trkpt lat="43.17698" lon="6.50225">
        <ele>408.8</ele>
        <time>2024-02-04T12:46:46Z</time>
      </trkpt>
      <trkpt lat="43.17698" lon="6.50224">
        <ele>408.7</ele>
        <time>2024-02-04T12:46:47Z</time>
      </trkpt>
      <trkpt lat="43.17697" lon="6.50223">
        <ele>408.6</ele>
        <time>2024-02-04T12:46:48Z</time>
      </trkpt>
      <trkpt lat="43.17697" lon="6.50222">
        <ele>408.5</ele>
        <time>2024-02-04T12:46:49Z</time>
      </trkpt>
      <trkpt lat="43.17697" lon="6.50221">
        <ele>408.4</ele>
        <time>2024-02-04T12:46:50Z</time>
      </trkpt>
      <trkpt lat="43.17697" lon="6.50221">
        <ele>408.3</ele>
        <time>2024-02-04T12:46:51Z</time>
      </trkpt>
      <trkpt lat="43.17697" lon="6.5022">
        <ele>408.2</ele>
        <time>2024-02-04T12:46:52Z</time>
      </trkpt>
      <trkpt lat="43.17697" lon="6.50219">
        <ele>408</ele>
        <time>2024-02-04T12:46:53Z</time>
      </trkpt>
      <trkpt lat="43.17697" lon="6.50218">
        <ele>407.8</ele>
        <time>2024-02-04T12:46:54Z</time>
      </trkpt>
      <trkpt lat="43.17696" lon="6.50217">
        <ele>407.6</ele>
        <time>2024-02-04T12:46:55Z</time>
      </trkpt>
      <trkpt lat="43.17696" lon="6.50216">
        <ele>407.5</ele>
        <time>2024-02-04T12:46:56Z</time>
      </trkpt>
      <trkpt lat="43.17696" lon="6.50216">
        <ele>407.3</ele>
        <time>2024-02-04T12:46:57Z</time>
      </trkpt>
      <trkpt lat="43.17696" lon="6.50215">
        <ele>407.1</ele>
        <time>2024-02-04T12:46:58Z</time>
      </trkpt>
      <trkpt lat="43.17696" lon="6.50214">
        <ele>407</ele>
        <time>2024-02-04T12:46:59Z</time>
      </trkpt>
      <trkpt lat="43.17696" lon="6.50213">
        <ele>406.9</ele>
        <time>2024-02-04T12:47:00Z</time>
      </trkpt>
      <trkpt lat="43.17696" lon="6.50213">
        <ele>406.7</ele>
        <time>2024-02-04T12:47:01Z</time>
      </trkpt>
      <trkpt lat="43.17696" lon="6.50213">
        <ele>406.5</ele>
        <time>2024-02-04T12:47:02Z</time>
      </trkpt>
      <trkpt lat="43.17695" lon="6.50212">
        <ele>406.3</ele>
        <time>2024-02-04T12:47:03Z</time>
      </trkpt>
      <trkpt lat="43.17695" lon="6.50212">
        <ele>406.2</ele>
        <time>2024-02-04T12:47:04Z</time>
      </trkpt>
      <trkpt lat="43.17695" lon="6.50211">
        <ele>406</ele>
        <time>2024-02-04T12:47:05Z</time>
      </trkpt>
      <trkpt lat="43.17695" lon="6.50211">
        <ele>405.9</ele>
        <time>2024-02-04T12:47:06Z</time>
      </trkpt>
      <trkpt lat="43.17695" lon="6.5021">
        <ele>405.7</ele>
        <time>2024-02-04T12:47:07Z</time>
      </trkpt>
      <trkpt lat="43.17695" lon="6.50209">
        <ele>405.6</ele>
        <time>2024-02-04T12:47:08Z</time>
      </trkpt>
      <trkpt lat="43.17695" lon="6.50208">
        <ele>405.4</ele>
        <time>2024-02-04T12:47:09Z</time>
      </trkpt>
      <trkpt lat="43.17695" lon="6.50208">
        <ele>405.3</ele>
        <time>2024-02-04T12:47:10Z</time>
      </trkpt>
      <trkpt lat="43.17695" lon="6.50207">
        <ele>405.1</ele>
        <time>2024-02-04T12:47:11Z</time>
      </trkpt>
      <trkpt lat="43.17695" lon="6.50207">
        <ele>404.9</ele>
        <time>2024-02-04T12:47:12Z</time>
      </trkpt>
      <trkpt lat="43.17696" lon="6.50206">
        <ele>404.8</ele>
        <time>2024-02-04T12:47:13Z</time>
      </trkpt>
      <trkpt lat="43.17696" lon="6.50205">
        <ele>404.6</ele>
        <time>2024-02-04T12:47:14Z</time>
      </trkpt>
      <trkpt lat="43.17696" lon="6.50205">
        <ele>404.5</ele>
        <time>2024-02-04T12:47:15Z</time>
      </trkpt>
      <trkpt lat="43.17696" lon="6.50204">
        <ele>404.3</ele>
        <time>2024-02-04T12:47:16Z</time>
      </trkpt>
      <trkpt lat="43.17696" lon="6.50203">
        <ele>404.1</ele>
        <time>2024-02-04T12:47:17Z</time>
      </trkpt>
      <trkpt lat="43.17696" lon="6.50202">
        <ele>403.9</ele>
        <time>2024-02-04T12:47:18Z</time>
      </trkpt>
      <trkpt lat="43.17697" lon="6.50201">
        <ele>403.7</ele>
        <time>2024-02-04T12:47:19Z</time>
      </trkpt>
      <trkpt lat="43.17698" lon="6.502">
        <ele>403.6</ele>
        <time>2024-02-04T12:47:20Z</time>
      </trkpt>
      <trkpt lat="43.17698" lon="6.502">
        <ele>403.4</ele>
        <time>2024-02-04T12:47:21Z</time>
      </trkpt>
      <trkpt lat="43.17698" lon="6.50199">
        <ele>403.2</ele>
        <time>2024-02-04T12:47:22Z</time>
      </trkpt>
      <trkpt lat="43.17698" lon="6.50198">
        <ele>403.1</ele>
        <time>2024-02-04T12:47:23Z</time>
      </trkpt>
      <trkpt lat="43.17698" lon="6.50197">
        <ele>403</ele>
        <time>2024-02-04T12:47:24Z</time>
      </trkpt>
      <trkpt lat="43.17699" lon="6.50196">
        <ele>402.9</ele>
        <time>2024-02-04T12:47:25Z</time>
      </trkpt>
      <trkpt lat="43.17699" lon="6.50196">
        <ele>402.8</ele>
        <time>2024-02-04T12:47:26Z</time>
      </trkpt>
      <trkpt lat="43.17699" lon="6.50195">
        <ele>402.7</ele>
        <time>2024-02-04T12:47:27Z</time>
      </trkpt>
      <trkpt lat="43.17699" lon="6.50194">
        <ele>402.6</ele>
        <time>2024-02-04T12:47:28Z</time>
      </trkpt>
      <trkpt lat="43.177" lon="6.50194">
        <ele>402.4</ele>
        <time>2024-02-04T12:47:29Z</time>
      </trkpt>
      <trkpt lat="43.177" lon="6.50193">
        <ele>402.3</ele>
        <time>2024-02-04T12:47:30Z</time>
      </trkpt>
      <trkpt lat="43.177" lon="6.50192">
        <ele>402.1</ele>
        <time>2024-02-04T12:47:31Z</time>
      </trkpt>
      <trkpt lat="43.177" lon="6.50191">
        <ele>402</ele>
        <time>2024-02-04T12:47:32Z</time>
      </trkpt>
      <trkpt lat="43.177" lon="6.50191">
        <ele>401.8</ele>
        <time>2024-02-04T12:47:33Z</time>
      </trkpt>
      <trkpt lat="43.177" lon="6.50191">
        <ele>401.7</ele>
        <time>2024-02-04T12:47:34Z</time>
      </trkpt>
      <trkpt lat="43.177" lon="6.5019">
        <ele>401.7</ele>
        <time>2024-02-04T12:47:35Z</time>
      </trkpt>
      <trkpt lat="43.177" lon="6.50189">
        <ele>401.5</ele>
        <time>2024-02-04T12:47:36Z</time>
      </trkpt>
      <trkpt lat="43.177" lon="6.50189">
        <ele>401.4</ele>
        <time>2024-02-04T12:47:37Z</time>
      </trkpt>
      <trkpt lat="43.17701" lon="6.50189">
        <ele>401.3</ele>
        <time>2024-02-04T12:47:38Z</time>
      </trkpt>
      <trkpt lat="43.17701" lon="6.50188">
        <ele>401.2</ele>
        <time>2024-02-04T12:47:39Z</time>
      </trkpt>
      <trkpt lat="43.17701" lon="6.50187">
        <ele>401</ele>
        <time>2024-02-04T12:47:40Z</time>
      </trkpt>
      <trkpt lat="43.17702" lon="6.50187">
        <ele>400.9</ele>
        <time>2024-02-04T12:47:41Z</time>
      </trkpt>
      <trkpt lat="43.17702" lon="6.50186">
        <ele>400.6</ele>
        <time>2024-02-04T12:47:42Z</time>
      </trkpt>
      <trkpt lat="43.17701" lon="6.50185">
        <ele>400.4</ele>
        <time>2024-02-04T12:47:43Z</time>
      </trkpt>
      <trkpt lat="43.17701" lon="6.50184">
        <ele>400.3</ele>
        <time>2024-02-04T12:47:44Z</time>
      </trkpt>
      <trkpt lat="43.17702" lon="6.50184">
        <ele>400.2</ele>
        <time>2024-02-04T12:47:45Z</time>
      </trkpt>
      <trkpt lat="43.17702" lon="6.50183">
        <ele>400.1</ele>
        <time>2024-02-04T12:47:46Z</time>
      </trkpt>
      <trkpt lat="43.17702" lon="6.50183">
        <ele>400</ele>
        <time>2024-02-04T12:47:47Z</time>
      </trkpt>
      <trkpt lat="43.17702" lon="6.50183">
        <ele>399.8</ele>
        <time>2024-02-04T12:47:48Z</time>
      </trkpt>
      <trkpt lat="43.17703" lon="6.50182">
        <ele>399.6</ele>
        <time>2024-02-04T12:47:49Z</time>
      </trkpt>
      <trkpt lat="43.17703" lon="6.50181">
        <ele>399.4</ele>
        <time>2024-02-04T12:47:50Z</time>
      </trkpt>
      <trkpt lat="43.17703" lon="6.50181">
        <ele>399.2</ele>
        <time>2024-02-04T12:47:51Z</time>
      </trkpt>
      <trkpt lat="43.17704" lon="6.5018">
        <ele>399.1</ele>
        <time>2024-02-04T12:47:52Z</time>
      </trkpt>
      <trkpt lat="43.17704" lon="6.5018">
        <ele>399.1</ele>
        <time>2024-02-04T12:47:53Z</time>
      </trkpt>
      <trkpt lat="43.17705" lon="6.50179">
        <ele>399</ele>
        <time>2024-02-04T12:47:54Z</time>
      </trkpt>
      <trkpt lat="43.17705" lon="6.50178">
        <ele>398.8</ele>
        <time>2024-02-04T12:47:55Z</time>
      </trkpt>
      <trkpt lat="43.17705" lon="6.50177">
        <ele>398.5</ele>
        <time>2024-02-04T12:47:56Z</time>
      </trkpt>
      <trkpt lat="43.17705" lon="6.50177">
        <ele>398.3</ele>
        <time>2024-02-04T12:47:57Z</time>
      </trkpt>
      <trkpt lat="43.17705" lon="6.50176">
        <ele>398.2</ele>
        <time>2024-02-04T12:47:58Z</time>
      </trkpt>
      <trkpt lat="43.17706" lon="6.50176">
        <ele>398.1</ele>
        <time>2024-02-04T12:47:59Z</time>
      </trkpt>
      <trkpt lat="43.17706" lon="6.50176">
        <ele>398</ele>
        <time>2024-02-04T12:48:00Z</time>
      </trkpt>
      <trkpt lat="43.17706" lon="6.50175">
        <ele>397.9</ele>
        <time>2024-02-04T12:48:01Z</time>
      </trkpt>
      <trkpt lat="43.17706" lon="6.50175">
        <ele>397.8</ele>
        <time>2024-02-04T12:48:02Z</time>
      </trkpt>
      <trkpt lat="43.17706" lon="6.50174">
        <ele>397.6</ele>
        <time>2024-02-04T12:48:03Z</time>
      </trkpt>
      <trkpt lat="43.17706" lon="6.50173">
        <ele>397.5</ele>
        <time>2024-02-04T12:48:04Z</time>
      </trkpt>
      <trkpt lat="43.17707" lon="6.50172">
        <ele>397.3</ele>
        <time>2024-02-04T12:48:05Z</time>
      </trkpt>
      <trkpt lat="43.17707" lon="6.50171">
        <ele>397.1</ele>
        <time>2024-02-04T12:48:06Z</time>
      </trkpt>
      <trkpt lat="43.17707" lon="6.50171">
        <ele>397</ele>
        <time>2024-02-04T12:48:07Z</time>
      </trkpt>
      <trkpt lat="43.17707" lon="6.5017">
        <ele>396.9</ele>
        <time>2024-02-04T12:48:08Z</time>
      </trkpt>
      <trkpt lat="43.17708" lon="6.50169">
        <ele>396.8</ele>
        <time>2024-02-04T12:48:09Z</time>
      </trkpt>
      <trkpt lat="43.17708" lon="6.50169">
        <ele>396.5</ele>
        <time>2024-02-04T12:48:10Z</time>
      </trkpt>
      <trkpt lat="43.17708" lon="6.50168">
        <ele>396.3</ele>
        <time>2024-02-04T12:48:11Z</time>
      </trkpt>
      <trkpt lat="43.17708" lon="6.50168">
        <ele>396.2</ele>
        <time>2024-02-04T12:48:12Z</time>
      </trkpt>
      <trkpt lat="43.17708" lon="6.50167">
        <ele>396</ele>
        <time>2024-02-04T12:48:13Z</time>
      </trkpt>
      <trkpt lat="43.17709" lon="6.50167">
        <ele>395.9</ele>
        <time>2024-02-04T12:48:14Z</time>
      </trkpt>
      <trkpt lat="43.17709" lon="6.50166">
        <ele>395.7</ele>
        <time>2024-02-04T12:48:15Z</time>
      </trkpt>
      <trkpt lat="43.17709" lon="6.50166">
        <ele>395.6</ele>
        <time>2024-02-04T12:48:16Z</time>
      </trkpt>
      <trkpt lat="43.17709" lon="6.50165">
        <ele>395.5</ele>
        <time>2024-02-04T12:48:17Z</time>
      </trkpt>
      <trkpt lat="43.1771" lon="6.50165">
        <ele>395.5</ele>
        <time>2024-02-04T12:48:18Z</time>
      </trkpt>
      <trkpt lat="43.1771" lon="6.50164">
        <ele>395.5</ele>
        <time>2024-02-04T12:48:19Z</time>
      </trkpt>
      <trkpt lat="43.1771" lon="6.50163">
        <ele>395.4</ele>
        <time>2024-02-04T12:48:20Z</time>
      </trkpt>
      <trkpt lat="43.17711" lon="6.50162">
        <ele>395.3</ele>
        <time>2024-02-04T12:48:21Z</time>
      </trkpt>
      <trkpt lat="43.17711" lon="6.50162">
        <ele>395.2</ele>
        <time>2024-02-04T12:48:22Z</time>
      </trkpt>
      <trkpt lat="43.17711" lon="6.50162">
        <ele>395.2</ele>
        <time>2024-02-04T12:48:23Z</time>
      </trkpt>
      <trkpt lat="43.17711" lon="6.50162">
        <ele>395.1</ele>
        <time>2024-02-04T12:48:24Z</time>
      </trkpt>
      <trkpt lat="43.17711" lon="6.50161">
        <ele>395</ele>
        <time>2024-02-04T12:48:25Z</time>
      </trkpt>
      <trkpt lat="43.17711" lon="6.5016">
        <ele>394.9</ele>
        <time>2024-02-04T12:48:26Z</time>
      </trkpt>
      <trkpt lat="43.17711" lon="6.5016">
        <ele>394.8</ele>
        <time>2024-02-04T12:48:27Z</time>
      </trkpt>
      <trkpt lat="43.17711" lon="6.50159">
        <ele>394.8</ele>
        <time>2024-02-04T12:48:28Z</time>
      </trkpt>
      <trkpt lat="43.17711" lon="6.50158">
        <ele>394.7</ele>
        <time>2024-02-04T12:48:29Z</time>
      </trkpt>
      <trkpt lat="43.17711" lon="6.50157">
        <ele>394.6</ele>
        <time>2024-02-04T12:48:30Z</time>
      </trkpt>
      <trkpt lat="43.1771" lon="6.50156">
        <ele>394.5</ele>
        <time>2024-02-04T12:48:31Z</time>
      </trkpt>
      <trkpt lat="43.1771" lon="6.50156">
        <ele>394.3</ele>
        <time>2024-02-04T12:48:32Z</time>
      </trkpt>
      <trkpt lat="43.1771" lon="6.50155">
        <ele>394.1</ele>
        <time>2024-02-04T12:48:33Z</time>
      </trkpt>
      <trkpt lat="43.17709" lon="6.50155">
        <ele>393.9</ele>
        <time>2024-02-04T12:48:34Z</time>
      </trkpt>
      <trkpt lat="43.17709" lon="6.50154">
        <ele>393.8</ele>
        <time>2024-02-04T12:48:35Z</time>
      </trkpt>
      <trkpt lat="43.17709" lon="6.50154">
        <ele>393.6</ele>
        <time>2024-02-04T12:48:36Z</time>
      </trkpt>
      <trkpt lat="43.17709" lon="6.50153">
        <ele>393.4</ele>
        <time>2024-02-04T12:48:37Z</time>
      </trkpt>
      <trkpt lat="43.17708" lon="6.50153">
        <ele>393.1</ele>
        <time>2024-02-04T12:48:38Z</time>
      </trkpt>
      <trkpt lat="43.17708" lon="6.50153">
        <ele>392.9</ele>
        <time>2024-02-04T12:48:39Z</time>
      </trkpt>
      <trkpt lat="43.17707" lon="6.50152">
        <ele>392.7</ele>
        <time>2024-02-04T12:48:40Z</time>
      </trkpt>
      <trkpt lat="43.17707" lon="6.50152">
        <ele>392.6</ele>
        <time>2024-02-04T12:48:41Z</time>
      </trkpt>
      <trkpt lat="43.17707" lon="6.50151">
        <ele>392.4</ele>
        <time>2024-02-04T12:48:42Z</time>
      </trkpt>
      <trkpt lat="43.17707" lon="6.50151">
        <ele>392.3</ele>
        <time>2024-02-04T12:48:43Z</time>
      </trkpt>
      <trkpt lat="43.17707" lon="6.5015">
        <ele>392.1</ele>
        <time>2024-02-04T12:48:44Z</time>
      </trkpt>
      <trkpt lat="43.17707" lon="6.50149">
        <ele>391.9</ele>
        <time>2024-02-04T12:48:45Z</time>
      </trkpt>
      <trkpt lat="43.17707" lon="6.50148">
        <ele>391.7</ele>
        <time>2024-02-04T12:48:46Z</time>
      </trkpt>
      <trkpt lat="43.17707" lon="6.50148">
        <ele>391.5</ele>
        <time>2024-02-04T12:48:47Z</time>
      </trkpt>
      <trkpt lat="43.17706" lon="6.50147">
        <ele>391.3</ele>
        <time>2024-02-04T12:48:48Z</time>
      </trkpt>
      <trkpt lat="43.17706" lon="6.50147">
        <ele>391.1</ele>
        <time>2024-02-04T12:48:49Z</time>
      </trkpt>
      <trkpt lat="43.17706" lon="6.50146">
        <ele>391</ele>
        <time>2024-02-04T12:48:50Z</time>
      </trkpt>
      <trkpt lat="43.17705" lon="6.50145">
        <ele>390.8</ele>
        <time>2024-02-04T12:48:51Z</time>
      </trkpt>
      <trkpt lat="43.17705" lon="6.50144">
        <ele>390.6</ele>
        <time>2024-02-04T12:48:52Z</time>
      </trkpt>
      <trkpt lat="43.17705" lon="6.50144">
        <ele>390.4</ele>
        <time>2024-02-04T12:48:53Z</time>
      </trkpt>
      <trkpt lat="43.17705" lon="6.50143">
        <ele>390.3</ele>
        <time>2024-02-04T12:48:54Z</time>
      </trkpt>
      <trkpt lat="43.17704" lon="6.50143">
        <ele>390.2</ele>
        <time>2024-02-04T12:48:55Z</time>
      </trkpt>
      <trkpt lat="43.17704" lon="6.50142">
        <ele>390.1</ele>
        <time>2024-02-04T12:48:56Z</time>
      </trkpt>
      <trkpt lat="43.17704" lon="6.50142">
        <ele>389.9</ele>
        <time>2024-02-04T12:48:57Z</time>
      </trkpt>
      <trkpt lat="43.17703" lon="6.50141">
        <ele>389.8</ele>
        <time>2024-02-04T12:48:58Z</time>
      </trkpt>
      <trkpt lat="43.17703" lon="6.5014">
        <ele>389.7</ele>
        <time>2024-02-04T12:48:59Z</time>
      </trkpt>
      <trkpt lat="43.17703" lon="6.5014">
        <ele>389.6</ele>
        <time>2024-02-04T12:49:00Z</time>
      </trkpt>
      <trkpt lat="43.17703" lon="6.5014">
        <ele>389.4</ele>
        <time>2024-02-04T12:49:01Z</time>
      </trkpt>
      <trkpt lat="43.17702" lon="6.50138">
        <ele>389.3</ele>
        <time>2024-02-04T12:49:02Z</time>
      </trkpt>
      <trkpt lat="43.17702" lon="6.50138">
        <ele>389.2</ele>
        <time>2024-02-04T12:49:03Z</time>
      </trkpt>
      <trkpt lat="43.17701" lon="6.50138">
        <ele>389.1</ele>
        <time>2024-02-04T12:49:04Z</time>
      </trkpt>
      <trkpt lat="43.17701" lon="6.50138">
        <ele>389</ele>
        <time>2024-02-04T12:49:05Z</time>
      </trkpt>
      <trkpt lat="43.17701" lon="6.50138">
        <ele>388.8</ele>
        <time>2024-02-04T12:49:06Z</time>
      </trkpt>
      <trkpt lat="43.177" lon="6.50137">
        <ele>388.7</ele>
        <time>2024-02-04T12:49:07Z</time>
      </trkpt>
      <trkpt lat="43.177" lon="6.50137">
        <ele>388.5</ele>
        <time>2024-02-04T12:49:08Z</time>
      </trkpt>
      <trkpt lat="43.17699" lon="6.50137">
        <ele>388.3</ele>
        <time>2024-02-04T12:49:09Z</time>
      </trkpt>
      <trkpt lat="43.17699" lon="6.50137">
        <ele>388.3</ele>
        <time>2024-02-04T12:49:10Z</time>
      </trkpt>
      <trkpt lat="43.17698" lon="6.50136">
        <ele>388.2</ele>
        <time>2024-02-04T12:49:11Z</time>
      </trkpt>
      <trkpt lat="43.17698" lon="6.50136">
        <ele>388</ele>
        <time>2024-02-04T12:49:12Z</time>
      </trkpt>
      <trkpt lat="43.17697" lon="6.50136">
        <ele>388</ele>
        <time>2024-02-04T12:49:13Z</time>
      </trkpt>
      <trkpt lat="43.17697" lon="6.50135">
        <ele>387.9</ele>
        <time>2024-02-04T12:49:14Z</time>
      </trkpt>
      <trkpt lat="43.17696" lon="6.50134">
        <ele>387.8</ele>
        <time>2024-02-04T12:49:15Z</time>
      </trkpt>
      <trkpt lat="43.17696" lon="6.50134">
        <ele>387.7</ele>
        <time>2024-02-04T12:49:16Z</time>
      </trkpt>
      <trkpt lat="43.17696" lon="6.50134">
        <ele>387.6</ele>
        <time>2024-02-04T12:49:17Z</time>
      </trkpt>
      <trkpt lat="43.17696" lon="6.50133">
        <ele>387.5</ele>
        <time>2024-02-04T12:49:18Z</time>
      </trkpt>
      <trkpt lat="43.17696" lon="6.50132">
        <ele>387.4</ele>
        <time>2024-02-04T12:49:19Z</time>
      </trkpt>
      <trkpt lat="43.17696" lon="6.50131">
        <ele>387.3</ele>
        <time>2024-02-04T12:49:20Z</time>
      </trkpt>
      <trkpt lat="43.17696" lon="6.5013">
        <ele>387.2</ele>
        <time>2024-02-04T12:49:21Z</time>
      </trkpt>
      <trkpt lat="43.17696" lon="6.5013">
        <ele>387.2</ele>
        <time>2024-02-04T12:49:22Z</time>
      </trkpt>
      <trkpt lat="43.17695" lon="6.50129">
        <ele>387.1</ele>
        <time>2024-02-04T12:49:23Z</time>
      </trkpt>
      <trkpt lat="43.17695" lon="6.50128">
        <ele>387</ele>
        <time>2024-02-04T12:49:24Z</time>
      </trkpt>
      <trkpt lat="43.17694" lon="6.50128">
        <ele>386.8</ele>
        <time>2024-02-04T12:49:25Z</time>
      </trkpt>
      <trkpt lat="43.17694" lon="6.50127">
        <ele>386.6</ele>
        <time>2024-02-04T12:49:26Z</time>
      </trkpt>
      <trkpt lat="43.17693" lon="6.50127">
        <ele>386.3</ele>
        <time>2024-02-04T12:49:27Z</time>
      </trkpt>
      <trkpt lat="43.17693" lon="6.50126">
        <ele>386</ele>
        <time>2024-02-04T12:49:28Z</time>
      </trkpt>
      <trkpt lat="43.17692" lon="6.50126">
        <ele>385.7</ele>
        <time>2024-02-04T12:49:29Z</time>
      </trkpt>
      <trkpt lat="43.17692" lon="6.50125">
        <ele>385.6</ele>
        <time>2024-02-04T12:49:30Z</time>
      </trkpt>
      <trkpt lat="43.17691" lon="6.50124">
        <ele>385.4</ele>
        <time>2024-02-04T12:49:31Z</time>
      </trkpt>
      <trkpt lat="43.17691" lon="6.50124">
        <ele>385.3</ele>
        <time>2024-02-04T12:49:32Z</time>
      </trkpt>
      <trkpt lat="43.1769" lon="6.50123">
        <ele>385.1</ele>
        <time>2024-02-04T12:49:33Z</time>
      </trkpt>
      <trkpt lat="43.1769" lon="6.50123">
        <ele>385</ele>
        <time>2024-02-04T12:49:34Z</time>
      </trkpt>
      <trkpt lat="43.1769" lon="6.50122">
        <ele>384.8</ele>
        <time>2024-02-04T12:49:35Z</time>
      </trkpt>
      <trkpt lat="43.1769" lon="6.50122">
        <ele>384.6</ele>
        <time>2024-02-04T12:49:36Z</time>
      </trkpt>
      <trkpt lat="43.17689" lon="6.50121">
        <ele>384.4</ele>
        <time>2024-02-04T12:49:37Z</time>
      </trkpt>
      <trkpt lat="43.1769" lon="6.50121">
        <ele>384.3</ele>
        <time>2024-02-04T12:49:38Z</time>
      </trkpt>
      <trkpt lat="43.17689" lon="6.50121">
        <ele>384.1</ele>
        <time>2024-02-04T12:49:39Z</time>
      </trkpt>
      <trkpt lat="43.17688" lon="6.5012">
        <ele>384</ele>
        <time>2024-02-04T12:49:40Z</time>
      </trkpt>
      <trkpt lat="43.17688" lon="6.50119">
        <ele>383.9</ele>
        <time>2024-02-04T12:49:41Z</time>
      </trkpt>
      <trkpt lat="43.17687" lon="6.50118">
        <ele>383.7</ele>
        <time>2024-02-04T12:49:42Z</time>
      </trkpt>
      <trkpt lat="43.17687" lon="6.50118">
        <ele>383.5</ele>
        <time>2024-02-04T12:49:43Z</time>
      </trkpt>
      <trkpt lat="43.17687" lon="6.50118">
        <ele>383.2</ele>
        <time>2024-02-04T12:49:44Z</time>
      </trkpt>
      <trkpt lat="43.17687" lon="6.50117">
        <ele>383.1</ele>
        <time>2024-02-04T12:49:45Z</time>
      </trkpt>
      <trkpt lat="43.17686" lon="6.50116">
        <ele>383</ele>
        <time>2024-02-04T12:49:46Z</time>
      </trkpt>
      <trkpt lat="43.17685" lon="6.50116">
        <ele>382.9</ele>
        <time>2024-02-04T12:49:47Z</time>
      </trkpt>
      <trkpt lat="43.17685" lon="6.50115">
        <ele>382.8</ele>
        <time>2024-02-04T12:49:48Z</time>
      </trkpt>
      <trkpt lat="43.17684" lon="6.50114">
        <ele>382.7</ele>
        <time>2024-02-04T12:49:49Z</time>
      </trkpt>
      <trkpt lat="43.17684" lon="6.50114">
        <ele>382.5</ele>
        <time>2024-02-04T12:49:50Z</time>
      </trkpt>
      <trkpt lat="43.17683" lon="6.50113">
        <ele>382.5</ele>
        <time>2024-02-04T12:49:51Z</time>
      </trkpt>
      <trkpt lat="43.17683" lon="6.50112">
        <ele>382.4</ele>
        <time>2024-02-04T12:49:52Z</time>
      </trkpt>
      <trkpt lat="43.17683" lon="6.50112">
        <ele>382.3</ele>
        <time>2024-02-04T12:49:53Z</time>
      </trkpt>
      <trkpt lat="43.17682" lon="6.50112">
        <ele>382.1</ele>
        <time>2024-02-04T12:49:54Z</time>
      </trkpt>
      <trkpt lat="43.17682" lon="6.50111">
        <ele>382</ele>
        <time>2024-02-04T12:49:55Z</time>
      </trkpt>
      <trkpt lat="43.17682" lon="6.5011">
        <ele>381.9</ele>
        <time>2024-02-04T12:49:56Z</time>
      </trkpt>
      <trkpt lat="43.17681" lon="6.5011">
        <ele>381.8</ele>
        <time>2024-02-04T12:49:57Z</time>
      </trkpt>
      <trkpt lat="43.17681" lon="6.50109">
        <ele>381.6</ele>
        <time>2024-02-04T12:49:58Z</time>
      </trkpt>
      <trkpt lat="43.17681" lon="6.50108">
        <ele>381.4</ele>
        <time>2024-02-04T12:49:59Z</time>
      </trkpt>
      <trkpt lat="43.17681" lon="6.50108">
        <ele>381.2</ele>
        <time>2024-02-04T12:50:00Z</time>
      </trkpt>
      <trkpt lat="43.17681" lon="6.50107">
        <ele>380.9</ele>
        <time>2024-02-04T12:50:01Z</time>
      </trkpt>
      <trkpt lat="43.1768" lon="6.50107">
        <ele>380.8</ele>
        <time>2024-02-04T12:50:02Z</time>
      </trkpt>
      <trkpt lat="43.17679" lon="6.50107">
        <ele>380.6</ele>
        <time>2024-02-04T12:50:03Z</time>
      </trkpt>
      <trkpt lat="43.17678" lon="6.50106">
        <ele>380.4</ele>
        <time>2024-02-04T12:50:04Z</time>
      </trkpt>
      <trkpt lat="43.17678" lon="6.50106">
        <ele>380.3</ele>
        <time>2024-02-04T12:50:05Z</time>
      </trkpt>
      <trkpt lat="43.17677" lon="6.50105">
        <ele>380.1</ele>
        <time>2024-02-04T12:50:06Z</time>
      </trkpt>
      <trkpt lat="43.17677" lon="6.50105">
        <ele>379.9</ele>
        <time>2024-02-04T12:50:07Z</time>
      </trkpt>
      <trkpt lat="43.17677" lon="6.50104">
        <ele>379.7</ele>
        <time>2024-02-04T12:50:08Z</time>
      </trkpt>
      <trkpt lat="43.17676" lon="6.50103">
        <ele>379.5</ele>
        <time>2024-02-04T12:50:09Z</time>
      </trkpt>
      <trkpt lat="43.17676" lon="6.50102">
        <ele>379.3</ele>
        <time>2024-02-04T12:50:10Z</time>
      </trkpt>
      <trkpt lat="43.17676" lon="6.50101">
        <ele>379.2</ele>
        <time>2024-02-04T12:50:11Z</time>
      </trkpt>
      <trkpt lat="43.17676" lon="6.50101">
        <ele>379</ele>
        <time>2024-02-04T12:50:12Z</time>
      </trkpt>
      <trkpt lat="43.17675" lon="6.501">
        <ele>378.9</ele>
        <time>2024-02-04T12:50:13Z</time>
      </trkpt>
      <trkpt lat="43.17675" lon="6.50099">
        <ele>378.7</ele>
        <time>2024-02-04T12:50:14Z</time>
      </trkpt>
      <trkpt lat="43.17675" lon="6.50098">
        <ele>378.5</ele>
        <time>2024-02-04T12:50:15Z</time>
      </trkpt>
      <trkpt lat="43.17675" lon="6.50098">
        <ele>378.4</ele>
        <time>2024-02-04T12:50:16Z</time>
      </trkpt>
      <trkpt lat="43.17675" lon="6.50097">
        <ele>378.1</ele>
        <time>2024-02-04T12:50:17Z</time>
      </trkpt>
      <trkpt lat="43.17674" lon="6.50096">
        <ele>377.9</ele>
        <time>2024-02-04T12:50:18Z</time>
      </trkpt>
      <trkpt lat="43.17674" lon="6.50095">
        <ele>377.6</ele>
        <time>2024-02-04T12:50:19Z</time>
      </trkpt>
      <trkpt lat="43.17674" lon="6.50095">
        <ele>377.4</ele>
        <time>2024-02-04T12:50:20Z</time>
      </trkpt>
      <trkpt lat="43.17674" lon="6.50094">
        <ele>377.2</ele>
        <time>2024-02-04T12:50:21Z</time>
      </trkpt>
      <trkpt lat="43.17674" lon="6.50093">
        <ele>377.1</ele>
        <time>2024-02-04T12:50:22Z</time>
      </trkpt>
      <trkpt lat="43.17674" lon="6.50093">
        <ele>377</ele>
        <time>2024-02-04T12:50:23Z</time>
      </trkpt>
      <trkpt lat="43.17674" lon="6.50092">
        <ele>376.9</ele>
        <time>2024-02-04T12:50:24Z</time>
      </trkpt>
      <trkpt lat="43.17674" lon="6.50092">
        <ele>376.7</ele>
        <time>2024-02-04T12:50:25Z</time>
      </trkpt>
      <trkpt lat="43.17674" lon="6.50092">
        <ele>376.6</ele>
        <time>2024-02-04T12:50:26Z</time>
      </trkpt>
      <trkpt lat="43.17674" lon="6.50092">
        <ele>376.5</ele>
        <time>2024-02-04T12:50:27Z</time>
      </trkpt>
      <trkpt lat="43.17674" lon="6.50092">
        <ele>376.4</ele>
        <time>2024-02-04T12:50:28Z</time>
      </trkpt>
      <trkpt lat="43.17674" lon="6.50092">
        <ele>376.5</ele>
        <time>2024-02-04T12:50:29Z</time>
      </trkpt>
      <trkpt lat="43.17674" lon="6.50091">
        <ele>376.5</ele>
        <time>2024-02-04T12:50:30Z</time>
      </trkpt>
      <trkpt lat="43.17674" lon="6.50091">
        <ele>376.5</ele>
        <time>2024-02-04T12:50:31Z</time>
      </trkpt>
      <trkpt lat="43.17673" lon="6.5009">
        <ele>376.4</ele>
        <time>2024-02-04T12:50:32Z</time>
      </trkpt>
      <trkpt lat="43.17673" lon="6.5009">
        <ele>376.2</ele>
        <time>2024-02-04T12:50:33Z</time>
      </trkpt>
      <trkpt lat="43.17672" lon="6.5009">
        <ele>376</ele>
        <time>2024-02-04T12:50:34Z</time>
      </trkpt>
      <trkpt lat="43.17672" lon="6.50089">
        <ele>375.9</ele>
        <time>2024-02-04T12:50:35Z</time>
      </trkpt>
      <trkpt lat="43.17672" lon="6.50089">
        <ele>375.7</ele>
        <time>2024-02-04T12:50:36Z</time>
      </trkpt>
      <trkpt lat="43.17672" lon="6.50088">
        <ele>375.5</ele>
        <time>2024-02-04T12:50:37Z</time>
      </trkpt>
      <trkpt lat="43.17673" lon="6.50088">
        <ele>375.3</ele>
        <time>2024-02-04T12:50:38Z</time>
      </trkpt>
      <trkpt lat="43.17673" lon="6.50087">
        <ele>375.1</ele>
        <time>2024-02-04T12:50:39Z</time>
      </trkpt>
      <trkpt lat="43.17673" lon="6.50087">
        <ele>375</ele>
        <time>2024-02-04T12:50:40Z</time>
      </trkpt>
      <trkpt lat="43.17672" lon="6.50085">
        <ele>374.9</ele>
        <time>2024-02-04T12:50:41Z</time>
      </trkpt>
      <trkpt lat="43.17672" lon="6.50084">
        <ele>374.7</ele>
        <time>2024-02-04T12:50:42Z</time>
      </trkpt>
      <trkpt lat="43.17672" lon="6.50083">
        <ele>374.5</ele>
        <time>2024-02-04T12:50:43Z</time>
      </trkpt>
      <trkpt lat="43.17672" lon="6.50082">
        <ele>374.4</ele>
        <time>2024-02-04T12:50:44Z</time>
      </trkpt>
      <trkpt lat="43.17672" lon="6.50081">
        <ele>374.3</ele>
        <time>2024-02-04T12:50:45Z</time>
      </trkpt>
      <trkpt lat="43.17671" lon="6.5008">
        <ele>374.2</ele>
        <time>2024-02-04T12:50:46Z</time>
      </trkpt>
      <trkpt lat="43.1767" lon="6.50078">
        <ele>374.1</ele>
        <time>2024-02-04T12:50:47Z</time>
      </trkpt>
      <trkpt lat="43.1767" lon="6.50078">
        <ele>374</ele>
        <time>2024-02-04T12:50:48Z</time>
      </trkpt>
      <trkpt lat="43.1767" lon="6.50077">
        <ele>373.9</ele>
        <time>2024-02-04T12:50:49Z</time>
      </trkpt>
      <trkpt lat="43.1767" lon="6.50076">
        <ele>373.8</ele>
        <time>2024-02-04T12:50:50Z</time>
      </trkpt>
      <trkpt lat="43.1767" lon="6.50075">
        <ele>373.6</ele>
        <time>2024-02-04T12:50:51Z</time>
      </trkpt>
      <trkpt lat="43.17669" lon="6.50074">
        <ele>373.3</ele>
        <time>2024-02-04T12:50:52Z</time>
      </trkpt>
      <trkpt lat="43.17669" lon="6.50073">
        <ele>373.1</ele>
        <time>2024-02-04T12:50:53Z</time>
      </trkpt>
      <trkpt lat="43.17669" lon="6.50072">
        <ele>372.9</ele>
        <time>2024-02-04T12:50:54Z</time>
      </trkpt>
      <trkpt lat="43.17668" lon="6.50071">
        <ele>372.7</ele>
        <time>2024-02-04T12:50:55Z</time>
      </trkpt>
      <trkpt lat="43.17669" lon="6.50071">
        <ele>372.5</ele>
        <time>2024-02-04T12:50:56Z</time>
      </trkpt>
      <trkpt lat="43.17668" lon="6.5007">
        <ele>372.4</ele>
        <time>2024-02-04T12:50:57Z</time>
      </trkpt>
      <trkpt lat="43.17668" lon="6.50069">
        <ele>372.2</ele>
        <time>2024-02-04T12:50:58Z</time>
      </trkpt>
      <trkpt lat="43.17668" lon="6.50068">
        <ele>372.1</ele>
        <time>2024-02-04T12:50:59Z</time>
      </trkpt>
      <trkpt lat="43.17668" lon="6.50067">
        <ele>371.8</ele>
        <time>2024-02-04T12:51:00Z</time>
      </trkpt>
      <trkpt lat="43.17668" lon="6.50066">
        <ele>371.6</ele>
        <time>2024-02-04T12:51:01Z</time>
      </trkpt>
      <trkpt lat="43.17667" lon="6.50065">
        <ele>371.5</ele>
        <time>2024-02-04T12:51:02Z</time>
      </trkpt>
      <trkpt lat="43.17668" lon="6.50064">
        <ele>371.3</ele>
        <time>2024-02-04T12:51:03Z</time>
      </trkpt>
      <trkpt lat="43.17668" lon="6.50064">
        <ele>371.2</ele>
        <time>2024-02-04T12:51:04Z</time>
      </trkpt>
      <trkpt lat="43.17668" lon="6.50063">
        <ele>371.1</ele>
        <time>2024-02-04T12:51:05Z</time>
      </trkpt>
      <trkpt lat="43.17668" lon="6.50063">
        <ele>371</ele>
        <time>2024-02-04T12:51:06Z</time>
      </trkpt>
      <trkpt lat="43.17668" lon="6.50062">
        <ele>371</ele>
        <time>2024-02-04T12:51:07Z</time>
      </trkpt>
      <trkpt lat="43.17668" lon="6.50062">
        <ele>370.9</ele>
        <time>2024-02-04T12:51:08Z</time>
      </trkpt>
      <trkpt lat="43.17668" lon="6.50061">
        <ele>370.8</ele>
        <time>2024-02-04T12:51:09Z</time>
      </trkpt>
      <trkpt lat="43.17668" lon="6.50061">
        <ele>370.7</ele>
        <time>2024-02-04T12:51:10Z</time>
      </trkpt>
      <trkpt lat="43.17668" lon="6.50061">
        <ele>370.7</ele>
        <time>2024-02-04T12:51:11Z</time>
      </trkpt>
      <trkpt lat="43.17668" lon="6.5006">
        <ele>370.6</ele>
        <time>2024-02-04T12:51:12Z</time>
      </trkpt>
      <trkpt lat="43.17668" lon="6.50059">
        <ele>370.4</ele>
        <time>2024-02-04T12:51:13Z</time>
      </trkpt>
      <trkpt lat="43.17668" lon="6.50059">
        <ele>370.2</ele>
        <time>2024-02-04T12:51:14Z</time>
      </trkpt>
      <trkpt lat="43.17667" lon="6.50058">
        <ele>370.1</ele>
        <time>2024-02-04T12:51:15Z</time>
      </trkpt>
      <trkpt lat="43.17667" lon="6.50057">
        <ele>370.1</ele>
        <time>2024-02-04T12:51:16Z</time>
      </trkpt>
      <trkpt lat="43.17667" lon="6.50056">
        <ele>369.9</ele>
        <time>2024-02-04T12:51:17Z</time>
      </trkpt>
      <trkpt lat="43.17667" lon="6.50055">
        <ele>369.7</ele>
        <time>2024-02-04T12:51:18Z</time>
      </trkpt>
      <trkpt lat="43.17667" lon="6.50054">
        <ele>369.5</ele>
        <time>2024-02-04T12:51:19Z</time>
      </trkpt>
      <trkpt lat="43.17667" lon="6.50053">
        <ele>369.5</ele>
        <time>2024-02-04T12:51:20Z</time>
      </trkpt>
      <trkpt lat="43.17667" lon="6.50053">
        <ele>369.4</ele>
        <time>2024-02-04T12:51:21Z</time>
      </trkpt>
      <trkpt lat="43.17667" lon="6.50052">
        <ele>369.2</ele>
        <time>2024-02-04T12:51:22Z</time>
      </trkpt>
      <trkpt lat="43.17667" lon="6.50051">
        <ele>369.1</ele>
        <time>2024-02-04T12:51:23Z</time>
      </trkpt>
      <trkpt lat="43.17666" lon="6.50051">
        <ele>369</ele>
        <time>2024-02-04T12:51:24Z</time>
      </trkpt>
      <trkpt lat="43.17666" lon="6.5005">
        <ele>368.8</ele>
        <time>2024-02-04T12:51:25Z</time>
      </trkpt>
      <trkpt lat="43.17666" lon="6.5005">
        <ele>368.7</ele>
        <time>2024-02-04T12:51:26Z</time>
      </trkpt>
      <trkpt lat="43.17666" lon="6.50049">
        <ele>368.5</ele>
        <time>2024-02-04T12:51:27Z</time>
      </trkpt>
      <trkpt lat="43.17666" lon="6.50049">
        <ele>368.3</ele>
        <time>2024-02-04T12:51:28Z</time>
      </trkpt>
      <trkpt lat="43.17666" lon="6.50048">
        <ele>368.1</ele>
        <time>2024-02-04T12:51:29Z</time>
      </trkpt>
      <trkpt lat="43.17667" lon="6.50047">
        <ele>367.9</ele>
        <time>2024-02-04T12:51:30Z</time>
      </trkpt>
      <trkpt lat="43.17667" lon="6.50046">
        <ele>367.7</ele>
        <time>2024-02-04T12:51:31Z</time>
      </trkpt>
      <trkpt lat="43.17667" lon="6.50045">
        <ele>367.5</ele>
        <time>2024-02-04T12:51:32Z</time>
      </trkpt>
      <trkpt lat="43.17667" lon="6.50044">
        <ele>367.2</ele>
        <time>2024-02-04T12:51:33Z</time>
      </trkpt>
      <trkpt lat="43.17667" lon="6.50043">
        <ele>367.1</ele>
        <time>2024-02-04T12:51:34Z</time>
      </trkpt>
      <trkpt lat="43.17667" lon="6.50043">
        <ele>366.8</ele>
        <time>2024-02-04T12:51:35Z</time>
      </trkpt>
      <trkpt lat="43.17667" lon="6.50042">
        <ele>366.7</ele>
        <time>2024-02-04T12:51:36Z</time>
      </trkpt>
      <trkpt lat="43.17667" lon="6.50041">
        <ele>366.5</ele>
        <time>2024-02-04T12:51:37Z</time>
      </trkpt>
      <trkpt lat="43.17667" lon="6.50041">
        <ele>366.4</ele>
        <time>2024-02-04T12:51:38Z</time>
      </trkpt>
      <trkpt lat="43.17667" lon="6.5004">
        <ele>366.3</ele>
        <time>2024-02-04T12:51:39Z</time>
      </trkpt>
      <trkpt lat="43.17667" lon="6.5004">
        <ele>366.2</ele>
        <time>2024-02-04T12:51:40Z</time>
      </trkpt>
      <trkpt lat="43.17667" lon="6.50039">
        <ele>366</ele>
        <time>2024-02-04T12:51:41Z</time>
      </trkpt>
      <trkpt lat="43.17667" lon="6.50039">
        <ele>365.8</ele>
        <time>2024-02-04T12:51:42Z</time>
      </trkpt>
      <trkpt lat="43.17667" lon="6.50038">
        <ele>365.7</ele>
        <time>2024-02-04T12:51:43Z</time>
      </trkpt>
      <trkpt lat="43.17667" lon="6.50037">
        <ele>365.6</ele>
        <time>2024-02-04T12:51:44Z</time>
      </trkpt>
      <trkpt lat="43.17667" lon="6.50037">
        <ele>365.4</ele>
        <time>2024-02-04T12:51:45Z</time>
      </trkpt>
      <trkpt lat="43.17667" lon="6.50036">
        <ele>365.3</ele>
        <time>2024-02-04T12:51:46Z</time>
      </trkpt>
      <trkpt lat="43.17667" lon="6.50035">
        <ele>365.1</ele>
        <time>2024-02-04T12:51:47Z</time>
      </trkpt>
      <trkpt lat="43.17667" lon="6.50034">
        <ele>365</ele>
        <time>2024-02-04T12:51:48Z</time>
      </trkpt>
      <trkpt lat="43.17667" lon="6.50033">
        <ele>364.9</ele>
        <time>2024-02-04T12:51:49Z</time>
      </trkpt>
      <trkpt lat="43.17667" lon="6.50032">
        <ele>364.7</ele>
        <time>2024-02-04T12:51:50Z</time>
      </trkpt>
      <trkpt lat="43.17667" lon="6.50032">
        <ele>364.5</ele>
        <time>2024-02-04T12:51:51Z</time>
      </trkpt>
      <trkpt lat="43.17667" lon="6.50031">
        <ele>364.4</ele>
        <time>2024-02-04T12:51:52Z</time>
      </trkpt>
      <trkpt lat="43.17668" lon="6.5003">
        <ele>364.3</ele>
        <time>2024-02-04T12:51:53Z</time>
      </trkpt>
      <trkpt lat="43.17668" lon="6.50029">
        <ele>364.1</ele>
        <time>2024-02-04T12:51:54Z</time>
      </trkpt>
      <trkpt lat="43.17668" lon="6.50029">
        <ele>363.9</ele>
        <time>2024-02-04T12:51:55Z</time>
      </trkpt>
      <trkpt lat="43.17668" lon="6.50028">
        <ele>363.8</ele>
        <time>2024-02-04T12:51:56Z</time>
      </trkpt>
      <trkpt lat="43.17668" lon="6.50028">
        <ele>363.6</ele>
        <time>2024-02-04T12:51:57Z</time>
      </trkpt>
      <trkpt lat="43.17668" lon="6.50027">
        <ele>363.5</ele>
        <time>2024-02-04T12:51:58Z</time>
      </trkpt>
      <trkpt lat="43.17668" lon="6.50026">
        <ele>363.4</ele>
        <time>2024-02-04T12:51:59Z</time>
      </trkpt>
      <trkpt lat="43.17668" lon="6.50025">
        <ele>363.3</ele>
        <time>2024-02-04T12:52:00Z</time>
      </trkpt>
      <trkpt lat="43.17668" lon="6.50025">
        <ele>363.2</ele>
        <time>2024-02-04T12:52:01Z</time>
      </trkpt>
      <trkpt lat="43.17668" lon="6.50024">
        <ele>363.1</ele>
        <time>2024-02-04T12:52:02Z</time>
      </trkpt>
      <trkpt lat="43.17668" lon="6.50023">
        <ele>363</ele>
        <time>2024-02-04T12:52:03Z</time>
      </trkpt>
      <trkpt lat="43.17669" lon="6.50022">
        <ele>363</ele>
        <time>2024-02-04T12:52:04Z</time>
      </trkpt>
      <trkpt lat="43.17669" lon="6.50021">
        <ele>362.8</ele>
        <time>2024-02-04T12:52:05Z</time>
      </trkpt>
      <trkpt lat="43.17669" lon="6.5002">
        <ele>362.7</ele>
        <time>2024-02-04T12:52:06Z</time>
      </trkpt>
      <trkpt lat="43.17669" lon="6.5002">
        <ele>362.5</ele>
        <time>2024-02-04T12:52:07Z</time>
      </trkpt>
      <trkpt lat="43.17669" lon="6.50019">
        <ele>362.4</ele>
        <time>2024-02-04T12:52:08Z</time>
      </trkpt>
      <trkpt lat="43.17669" lon="6.50018">
        <ele>362.2</ele>
        <time>2024-02-04T12:52:09Z</time>
      </trkpt>
      <trkpt lat="43.17669" lon="6.50017">
        <ele>362.1</ele>
        <time>2024-02-04T12:52:10Z</time>
      </trkpt>
      <trkpt lat="43.1767" lon="6.50017">
        <ele>361.9</ele>
        <time>2024-02-04T12:52:11Z</time>
      </trkpt>
      <trkpt lat="43.1767" lon="6.50016">
        <ele>361.7</ele>
        <time>2024-02-04T12:52:12Z</time>
      </trkpt>
      <trkpt lat="43.17671" lon="6.50016">
        <ele>361.6</ele>
        <time>2024-02-04T12:52:13Z</time>
      </trkpt>
      <trkpt lat="43.17671" lon="6.50015">
        <ele>361.5</ele>
        <time>2024-02-04T12:52:14Z</time>
      </trkpt>
      <trkpt lat="43.17671" lon="6.50014">
        <ele>361.3</ele>
        <time>2024-02-04T12:52:15Z</time>
      </trkpt>
      <trkpt lat="43.17671" lon="6.50012">
        <ele>361.1</ele>
        <time>2024-02-04T12:52:16Z</time>
      </trkpt>
      <trkpt lat="43.17672" lon="6.50011">
        <ele>361</ele>
        <time>2024-02-04T12:52:17Z</time>
      </trkpt>
      <trkpt lat="43.17672" lon="6.50011">
        <ele>360.9</ele>
        <time>2024-02-04T12:52:18Z</time>
      </trkpt>
      <trkpt lat="43.17672" lon="6.5001">
        <ele>360.6</ele>
        <time>2024-02-04T12:52:19Z</time>
      </trkpt>
      <trkpt lat="43.17671" lon="6.5001">
        <ele>360.5</ele>
        <time>2024-02-04T12:52:20Z</time>
      </trkpt>
      <trkpt lat="43.17671" lon="6.50009">
        <ele>360.4</ele>
        <time>2024-02-04T12:52:21Z</time>
      </trkpt>
      <trkpt lat="43.17672" lon="6.50009">
        <ele>360.3</ele>
        <time>2024-02-04T12:52:22Z</time>
      </trkpt>
      <trkpt lat="43.17672" lon="6.50009">
        <ele>360.2</ele>
        <time>2024-02-04T12:52:23Z</time>
      </trkpt>
      <trkpt lat="43.17673" lon="6.50008">
        <ele>360.2</ele>
        <time>2024-02-04T12:52:24Z</time>
      </trkpt>
      <trkpt lat="43.17673" lon="6.50007">
        <ele>360.1</ele>
        <time>2024-02-04T12:52:25Z</time>
      </trkpt>
      <trkpt lat="43.17673" lon="6.50006">
        <ele>360</ele>
        <time>2024-02-04T12:52:26Z</time>
      </trkpt>
      <trkpt lat="43.17673" lon="6.50005">
        <ele>359.9</ele>
        <time>2024-02-04T12:52:27Z</time>
      </trkpt>
      <trkpt lat="43.17673" lon="6.50004">
        <ele>359.7</ele>
        <time>2024-02-04T12:52:28Z</time>
      </trkpt>
      <trkpt lat="43.17673" lon="6.50002">
        <ele>359.6</ele>
        <time>2024-02-04T12:52:29Z</time>
      </trkpt>
      <trkpt lat="43.17673" lon="6.50002">
        <ele>359.4</ele>
        <time>2024-02-04T12:52:30Z</time>
      </trkpt>
      <trkpt lat="43.17673" lon="6.5">
        <ele>359.2</ele>
        <time>2024-02-04T12:52:31Z</time>
      </trkpt>
      <trkpt lat="43.17673" lon="6.49999">
        <ele>359.1</ele>
        <time>2024-02-04T12:52:32Z</time>
      </trkpt>
      <trkpt lat="43.17673" lon="6.49998">
        <ele>358.9</ele>
        <time>2024-02-04T12:52:33Z</time>
      </trkpt>
      <trkpt lat="43.17672" lon="6.49997">
        <ele>358.7</ele>
        <time>2024-02-04T12:52:34Z</time>
      </trkpt>
      <trkpt lat="43.17672" lon="6.49997">
        <ele>358.6</ele>
        <time>2024-02-04T12:52:35Z</time>
      </trkpt>
      <trkpt lat="43.17671" lon="6.49997">
        <ele>358.4</ele>
        <time>2024-02-04T12:52:36Z</time>
      </trkpt>
      <trkpt lat="43.17671" lon="6.49996">
        <ele>358.2</ele>
        <time>2024-02-04T12:52:37Z</time>
      </trkpt>
      <trkpt lat="43.17671" lon="6.49996">
        <ele>358.1</ele>
        <time>2024-02-04T12:52:38Z</time>
      </trkpt>
      <trkpt lat="43.17671" lon="6.49996">
        <ele>358</ele>
        <time>2024-02-04T12:52:39Z</time>
      </trkpt>
      <trkpt lat="43.17671" lon="6.49996">
        <ele>357.9</ele>
        <time>2024-02-04T12:52:40Z</time>
      </trkpt>
      <trkpt lat="43.17671" lon="6.49996">
        <ele>357.8</ele>
        <time>2024-02-04T12:52:41Z</time>
      </trkpt>
      <trkpt lat="43.17671" lon="6.49996">
        <ele>357.7</ele>
        <time>2024-02-04T12:52:42Z</time>
      </trkpt>
      <trkpt lat="43.17671" lon="6.49995">
        <ele>357.8</ele>
        <time>2024-02-04T12:52:43Z</time>
      </trkpt>
      <trkpt lat="43.17671" lon="6.49994">
        <ele>357.8</ele>
        <time>2024-02-04T12:52:44Z</time>
      </trkpt>
      <trkpt lat="43.17671" lon="6.49993">
        <ele>357.7</ele>
        <time>2024-02-04T12:52:45Z</time>
      </trkpt>
      <trkpt lat="43.1767" lon="6.49992">
        <ele>357.6</ele>
        <time>2024-02-04T12:52:46Z</time>
      </trkpt>
      <trkpt lat="43.1767" lon="6.49992">
        <ele>357.5</ele>
        <time>2024-02-04T12:52:47Z</time>
      </trkpt>
      <trkpt lat="43.17669" lon="6.49991">
        <ele>357.3</ele>
        <time>2024-02-04T12:52:48Z</time>
      </trkpt>
      <trkpt lat="43.17669" lon="6.4999">
        <ele>357.3</ele>
        <time>2024-02-04T12:52:49Z</time>
      </trkpt>
      <trkpt lat="43.17669" lon="6.49989">
        <ele>357.2</ele>
        <time>2024-02-04T12:52:50Z</time>
      </trkpt>
      <trkpt lat="43.17669" lon="6.49988">
        <ele>357</ele>
        <time>2024-02-04T12:52:51Z</time>
      </trkpt>
      <trkpt lat="43.17668" lon="6.49987">
        <ele>356.9</ele>
        <time>2024-02-04T12:52:52Z</time>
      </trkpt>
      <trkpt lat="43.17668" lon="6.49987">
        <ele>356.8</ele>
        <time>2024-02-04T12:52:53Z</time>
      </trkpt>
      <trkpt lat="43.17668" lon="6.49986">
        <ele>356.6</ele>
        <time>2024-02-04T12:52:54Z</time>
      </trkpt>
      <trkpt lat="43.17667" lon="6.49986">
        <ele>356.5</ele>
        <time>2024-02-04T12:52:55Z</time>
      </trkpt>
      <trkpt lat="43.17667" lon="6.49985">
        <ele>356.4</ele>
        <time>2024-02-04T12:52:56Z</time>
      </trkpt>
      <trkpt lat="43.17667" lon="6.49984">
        <ele>356.2</ele>
        <time>2024-02-04T12:52:57Z</time>
      </trkpt>
      <trkpt lat="43.17667" lon="6.49983">
        <ele>356</ele>
        <time>2024-02-04T12:52:58Z</time>
      </trkpt>
      <trkpt lat="43.17666" lon="6.49982">
        <ele>355.8</ele>
        <time>2024-02-04T12:52:59Z</time>
      </trkpt>
      <trkpt lat="43.17665" lon="6.49982">
        <ele>355.7</ele>
        <time>2024-02-04T12:53:00Z</time>
      </trkpt>
      <trkpt lat="43.17665" lon="6.49981">
        <ele>355.5</ele>
        <time>2024-02-04T12:53:01Z</time>
      </trkpt>
      <trkpt lat="43.17664" lon="6.4998">
        <ele>355.3</ele>
        <time>2024-02-04T12:53:02Z</time>
      </trkpt>
      <trkpt lat="43.17664" lon="6.49979">
        <ele>355.1</ele>
        <time>2024-02-04T12:53:03Z</time>
      </trkpt>
      <trkpt lat="43.17664" lon="6.49978">
        <ele>355</ele>
        <time>2024-02-04T12:53:04Z</time>
      </trkpt>
      <trkpt lat="43.17664" lon="6.49976">
        <ele>354.8</ele>
        <time>2024-02-04T12:53:05Z</time>
      </trkpt>
      <trkpt lat="43.17663" lon="6.49975">
        <ele>354.7</ele>
        <time>2024-02-04T12:53:06Z</time>
      </trkpt>
      <trkpt lat="43.17662" lon="6.49974">
        <ele>354.5</ele>
        <time>2024-02-04T12:53:07Z</time>
      </trkpt>
      <trkpt lat="43.17662" lon="6.49973">
        <ele>354.4</ele>
        <time>2024-02-04T12:53:08Z</time>
      </trkpt>
      <trkpt lat="43.17661" lon="6.49972">
        <ele>354.2</ele>
        <time>2024-02-04T12:53:09Z</time>
      </trkpt>
      <trkpt lat="43.17661" lon="6.49971">
        <ele>354.1</ele>
        <time>2024-02-04T12:53:10Z</time>
      </trkpt>
      <trkpt lat="43.17661" lon="6.4997">
        <ele>354</ele>
        <time>2024-02-04T12:53:11Z</time>
      </trkpt>
      <trkpt lat="43.1766" lon="6.49969">
        <ele>353.8</ele>
        <time>2024-02-04T12:53:12Z</time>
      </trkpt>
      <trkpt lat="43.1766" lon="6.49968">
        <ele>353.5</ele>
        <time>2024-02-04T12:53:13Z</time>
      </trkpt>
      <trkpt lat="43.17659" lon="6.49968">
        <ele>353.4</ele>
        <time>2024-02-04T12:53:14Z</time>
      </trkpt>
      <trkpt lat="43.17659" lon="6.49967">
        <ele>353.2</ele>
        <time>2024-02-04T12:53:15Z</time>
      </trkpt>
      <trkpt lat="43.17659" lon="6.49966">
        <ele>353.1</ele>
        <time>2024-02-04T12:53:16Z</time>
      </trkpt>
      <trkpt lat="43.17658" lon="6.49965">
        <ele>352.9</ele>
        <time>2024-02-04T12:53:17Z</time>
      </trkpt>
      <trkpt lat="43.17657" lon="6.49964">
        <ele>352.7</ele>
        <time>2024-02-04T12:53:18Z</time>
      </trkpt>
      <trkpt lat="43.17656" lon="6.49963">
        <ele>352.6</ele>
        <time>2024-02-04T12:53:19Z</time>
      </trkpt>
      <trkpt lat="43.17656" lon="6.49962">
        <ele>352.4</ele>
        <time>2024-02-04T12:53:20Z</time>
      </trkpt>
      <trkpt lat="43.17656" lon="6.49962">
        <ele>352.3</ele>
        <time>2024-02-04T12:53:21Z</time>
      </trkpt>
      <trkpt lat="43.17655" lon="6.49961">
        <ele>352</ele>
        <time>2024-02-04T12:53:22Z</time>
      </trkpt>
      <trkpt lat="43.17655" lon="6.4996">
        <ele>351.9</ele>
        <time>2024-02-04T12:53:23Z</time>
      </trkpt>
      <trkpt lat="43.17654" lon="6.49959">
        <ele>351.7</ele>
        <time>2024-02-04T12:53:24Z</time>
      </trkpt>
      <trkpt lat="43.17654" lon="6.49958">
        <ele>351.5</ele>
        <time>2024-02-04T12:53:25Z</time>
      </trkpt>
      <trkpt lat="43.17653" lon="6.49957">
        <ele>351.3</ele>
        <time>2024-02-04T12:53:26Z</time>
      </trkpt>
      <trkpt lat="43.17653" lon="6.49956">
        <ele>351.1</ele>
        <time>2024-02-04T12:53:27Z</time>
      </trkpt>
      <trkpt lat="43.17653" lon="6.49954">
        <ele>351</ele>
        <time>2024-02-04T12:53:28Z</time>
      </trkpt>
      <trkpt lat="43.17652" lon="6.49953">
        <ele>350.7</ele>
        <time>2024-02-04T12:53:29Z</time>
      </trkpt>
      <trkpt lat="43.17651" lon="6.49952">
        <ele>350.6</ele>
        <time>2024-02-04T12:53:30Z</time>
      </trkpt>
      <trkpt lat="43.17651" lon="6.49952">
        <ele>350.4</ele>
        <time>2024-02-04T12:53:31Z</time>
      </trkpt>
      <trkpt lat="43.17651" lon="6.49951">
        <ele>350.3</ele>
        <time>2024-02-04T12:53:32Z</time>
      </trkpt>
      <trkpt lat="43.1765" lon="6.4995">
        <ele>350.2</ele>
        <time>2024-02-04T12:53:33Z</time>
      </trkpt>
      <trkpt lat="43.1765" lon="6.49949">
        <ele>350.1</ele>
        <time>2024-02-04T12:53:34Z</time>
      </trkpt>
      <trkpt lat="43.1765" lon="6.49948">
        <ele>350</ele>
        <time>2024-02-04T12:53:35Z</time>
      </trkpt>
      <trkpt lat="43.17649" lon="6.49947">
        <ele>349.8</ele>
        <time>2024-02-04T12:53:36Z</time>
      </trkpt>
      <trkpt lat="43.17649" lon="6.49946">
        <ele>349.7</ele>
        <time>2024-02-04T12:53:37Z</time>
      </trkpt>
      <trkpt lat="43.17649" lon="6.49945">
        <ele>349.5</ele>
        <time>2024-02-04T12:53:38Z</time>
      </trkpt>
      <trkpt lat="43.1765" lon="6.49944">
        <ele>349.4</ele>
        <time>2024-02-04T12:53:39Z</time>
      </trkpt>
      <trkpt lat="43.1765" lon="6.49943">
        <ele>349.2</ele>
        <time>2024-02-04T12:53:40Z</time>
      </trkpt>
      <trkpt lat="43.17649" lon="6.49942">
        <ele>349</ele>
        <time>2024-02-04T12:53:41Z</time>
      </trkpt>
      <trkpt lat="43.17649" lon="6.49941">
        <ele>348.6</ele>
        <time>2024-02-04T12:53:42Z</time>
      </trkpt>
      <trkpt lat="43.17649" lon="6.4994">
        <ele>348.4</ele>
        <time>2024-02-04T12:53:43Z</time>
      </trkpt>
      <trkpt lat="43.17649" lon="6.4994">
        <ele>348.3</ele>
        <time>2024-02-04T12:53:44Z</time>
      </trkpt>
      <trkpt lat="43.1765" lon="6.49939">
        <ele>348.1</ele>
        <time>2024-02-04T12:53:45Z</time>
      </trkpt>
      <trkpt lat="43.17649" lon="6.49938">
        <ele>348</ele>
        <time>2024-02-04T12:53:46Z</time>
      </trkpt>
      <trkpt lat="43.17649" lon="6.49937">
        <ele>347.8</ele>
        <time>2024-02-04T12:53:47Z</time>
      </trkpt>
      <trkpt lat="43.17649" lon="6.49936">
        <ele>347.7</ele>
        <time>2024-02-04T12:53:48Z</time>
      </trkpt>
      <trkpt lat="43.17649" lon="6.49935">
        <ele>347.5</ele>
        <time>2024-02-04T12:53:49Z</time>
      </trkpt>
      <trkpt lat="43.17649" lon="6.49933">
        <ele>347.3</ele>
        <time>2024-02-04T12:53:50Z</time>
      </trkpt>
      <trkpt lat="43.17649" lon="6.49932">
        <ele>347</ele>
        <time>2024-02-04T12:53:51Z</time>
      </trkpt>
      <trkpt lat="43.17649" lon="6.49931">
        <ele>346.8</ele>
        <time>2024-02-04T12:53:52Z</time>
      </trkpt>
      <trkpt lat="43.17648" lon="6.4993">
        <ele>346.5</ele>
        <time>2024-02-04T12:53:53Z</time>
      </trkpt>
      <trkpt lat="43.17648" lon="6.49929">
        <ele>346.3</ele>
        <time>2024-02-04T12:53:54Z</time>
      </trkpt>
      <trkpt lat="43.17648" lon="6.49929">
        <ele>346.1</ele>
        <time>2024-02-04T12:53:55Z</time>
      </trkpt>
      <trkpt lat="43.17648" lon="6.49928">
        <ele>346</ele>
        <time>2024-02-04T12:53:56Z</time>
      </trkpt>
      <trkpt lat="43.17648" lon="6.49927">
        <ele>345.9</ele>
        <time>2024-02-04T12:53:57Z</time>
      </trkpt>
      <trkpt lat="43.17648" lon="6.49926">
        <ele>345.8</ele>
        <time>2024-02-04T12:53:58Z</time>
      </trkpt>
      <trkpt lat="43.17648" lon="6.49926">
        <ele>345.7</ele>
        <time>2024-02-04T12:53:59Z</time>
      </trkpt>
      <trkpt lat="43.17648" lon="6.49925">
        <ele>345.5</ele>
        <time>2024-02-04T12:54:00Z</time>
      </trkpt>
      <trkpt lat="43.17648" lon="6.49924">
        <ele>345.3</ele>
        <time>2024-02-04T12:54:01Z</time>
      </trkpt>
      <trkpt lat="43.17648" lon="6.49924">
        <ele>345.2</ele>
        <time>2024-02-04T12:54:02Z</time>
      </trkpt>
      <trkpt lat="43.17648" lon="6.49923">
        <ele>345</ele>
        <time>2024-02-04T12:54:03Z</time>
      </trkpt>
      <trkpt lat="43.17648" lon="6.49922">
        <ele>344.8</ele>
        <time>2024-02-04T12:54:04Z</time>
      </trkpt>
      <trkpt lat="43.17648" lon="6.49921">
        <ele>344.6</ele>
        <time>2024-02-04T12:54:05Z</time>
      </trkpt>
      <trkpt lat="43.17648" lon="6.4992">
        <ele>344.4</ele>
        <time>2024-02-04T12:54:06Z</time>
      </trkpt>
      <trkpt lat="43.17647" lon="6.49919">
        <ele>344.3</ele>
        <time>2024-02-04T12:54:07Z</time>
      </trkpt>
      <trkpt lat="43.17647" lon="6.49919">
        <ele>344.1</ele>
        <time>2024-02-04T12:54:08Z</time>
      </trkpt>
      <trkpt lat="43.17647" lon="6.49918">
        <ele>343.9</ele>
        <time>2024-02-04T12:54:09Z</time>
      </trkpt>
      <trkpt lat="43.17647" lon="6.49918">
        <ele>343.7</ele>
        <time>2024-02-04T12:54:10Z</time>
      </trkpt>
      <trkpt lat="43.17647" lon="6.49917">
        <ele>343.6</ele>
        <time>2024-02-04T12:54:11Z</time>
      </trkpt>
      <trkpt lat="43.17646" lon="6.49915">
        <ele>343.4</ele>
        <time>2024-02-04T12:54:12Z</time>
      </trkpt>
      <trkpt lat="43.17645" lon="6.49914">
        <ele>343.2</ele>
        <time>2024-02-04T12:54:13Z</time>
      </trkpt>
      <trkpt lat="43.17645" lon="6.49913">
        <ele>343.1</ele>
        <time>2024-02-04T12:54:14Z</time>
      </trkpt>
      <trkpt lat="43.17644" lon="6.49912">
        <ele>343</ele>
        <time>2024-02-04T12:54:15Z</time>
      </trkpt>
      <trkpt lat="43.17644" lon="6.49911">
        <ele>342.9</ele>
        <time>2024-02-04T12:54:16Z</time>
      </trkpt>
      <trkpt lat="43.17643" lon="6.49911">
        <ele>342.7</ele>
        <time>2024-02-04T12:54:17Z</time>
      </trkpt>
      <trkpt lat="43.17642" lon="6.4991">
        <ele>342.6</ele>
        <time>2024-02-04T12:54:18Z</time>
      </trkpt>
      <trkpt lat="43.17642" lon="6.49909">
        <ele>342.5</ele>
        <time>2024-02-04T12:54:19Z</time>
      </trkpt>
      <trkpt lat="43.17642" lon="6.49908">
        <ele>342.3</ele>
        <time>2024-02-04T12:54:20Z</time>
      </trkpt>
      <trkpt lat="43.17642" lon="6.49907">
        <ele>342.1</ele>
        <time>2024-02-04T12:54:21Z</time>
      </trkpt>
      <trkpt lat="43.17642" lon="6.49906">
        <ele>342</ele>
        <time>2024-02-04T12:54:22Z</time>
      </trkpt>
      <trkpt lat="43.17642" lon="6.49905">
        <ele>341.9</ele>
        <time>2024-02-04T12:54:23Z</time>
      </trkpt>
      <trkpt lat="43.17643" lon="6.49904">
        <ele>341.8</ele>
        <time>2024-02-04T12:54:24Z</time>
      </trkpt>
      <trkpt lat="43.17643" lon="6.49903">
        <ele>341.6</ele>
        <time>2024-02-04T12:54:25Z</time>
      </trkpt>
      <trkpt lat="43.17643" lon="6.49902">
        <ele>341.4</ele>
        <time>2024-02-04T12:54:26Z</time>
      </trkpt>
      <trkpt lat="43.17642" lon="6.49901">
        <ele>341.2</ele>
        <time>2024-02-04T12:54:27Z</time>
      </trkpt>
      <trkpt lat="43.17642" lon="6.499">
        <ele>340.9</ele>
        <time>2024-02-04T12:54:28Z</time>
      </trkpt>
      <trkpt lat="43.17642" lon="6.49899">
        <ele>340.6</ele>
        <time>2024-02-04T12:54:29Z</time>
      </trkpt>
      <trkpt lat="43.17641" lon="6.49898">
        <ele>340.4</ele>
        <time>2024-02-04T12:54:30Z</time>
      </trkpt>
      <trkpt lat="43.17641" lon="6.49897">
        <ele>340.2</ele>
        <time>2024-02-04T12:54:31Z</time>
      </trkpt>
      <trkpt lat="43.17641" lon="6.49896">
        <ele>340.1</ele>
        <time>2024-02-04T12:54:32Z</time>
      </trkpt>
      <trkpt lat="43.17641" lon="6.49895">
        <ele>339.9</ele>
        <time>2024-02-04T12:54:33Z</time>
      </trkpt>
      <trkpt lat="43.17641" lon="6.49894">
        <ele>339.8</ele>
        <time>2024-02-04T12:54:34Z</time>
      </trkpt>
      <trkpt lat="43.17641" lon="6.49893">
        <ele>339.7</ele>
        <time>2024-02-04T12:54:35Z</time>
      </trkpt>
      <trkpt lat="43.17641" lon="6.49892">
        <ele>339.5</ele>
        <time>2024-02-04T12:54:36Z</time>
      </trkpt>
      <trkpt lat="43.17641" lon="6.49891">
        <ele>339.3</ele>
        <time>2024-02-04T12:54:37Z</time>
      </trkpt>
      <trkpt lat="43.1764" lon="6.4989">
        <ele>339.1</ele>
        <time>2024-02-04T12:54:38Z</time>
      </trkpt>
      <trkpt lat="43.1764" lon="6.49889">
        <ele>339</ele>
        <time>2024-02-04T12:54:39Z</time>
      </trkpt>
      <trkpt lat="43.17639" lon="6.49888">
        <ele>338.9</ele>
        <time>2024-02-04T12:54:40Z</time>
      </trkpt>
      <trkpt lat="43.17638" lon="6.49887">
        <ele>338.8</ele>
        <time>2024-02-04T12:54:41Z</time>
      </trkpt>
      <trkpt lat="43.17638" lon="6.49885">
        <ele>338.7</ele>
        <time>2024-02-04T12:54:42Z</time>
      </trkpt>
      <trkpt lat="43.17637" lon="6.49883">
        <ele>338.6</ele>
        <time>2024-02-04T12:54:43Z</time>
      </trkpt>
      <trkpt lat="43.17637" lon="6.49882">
        <ele>338.5</ele>
        <time>2024-02-04T12:54:44Z</time>
      </trkpt>
      <trkpt lat="43.17636" lon="6.49881">
        <ele>338.4</ele>
        <time>2024-02-04T12:54:45Z</time>
      </trkpt>
      <trkpt lat="43.17635" lon="6.4988">
        <ele>338.2</ele>
        <time>2024-02-04T12:54:46Z</time>
      </trkpt>
      <trkpt lat="43.17635" lon="6.4988">
        <ele>338.1</ele>
        <time>2024-02-04T12:54:47Z</time>
      </trkpt>
      <trkpt lat="43.17634" lon="6.49879">
        <ele>337.9</ele>
        <time>2024-02-04T12:54:48Z</time>
      </trkpt>
      <trkpt lat="43.17635" lon="6.49878">
        <ele>337.8</ele>
        <time>2024-02-04T12:54:49Z</time>
      </trkpt>
      <trkpt lat="43.17634" lon="6.49877">
        <ele>337.7</ele>
        <time>2024-02-04T12:54:50Z</time>
      </trkpt>
      <trkpt lat="43.17634" lon="6.49876">
        <ele>337.3</ele>
        <time>2024-02-04T12:54:51Z</time>
      </trkpt>
      <trkpt lat="43.17634" lon="6.49875">
        <ele>337.1</ele>
        <time>2024-02-04T12:54:52Z</time>
      </trkpt>
      <trkpt lat="43.17634" lon="6.49874">
        <ele>336.9</ele>
        <time>2024-02-04T12:54:53Z</time>
      </trkpt>
      <trkpt lat="43.17633" lon="6.49873">
        <ele>336.8</ele>
        <time>2024-02-04T12:54:54Z</time>
      </trkpt>
      <trkpt lat="43.17633" lon="6.49873">
        <ele>336.6</ele>
        <time>2024-02-04T12:54:55Z</time>
      </trkpt>
      <trkpt lat="43.17633" lon="6.49872">
        <ele>336.5</ele>
        <time>2024-02-04T12:54:56Z</time>
      </trkpt>
      <trkpt lat="43.17633" lon="6.49871">
        <ele>336.4</ele>
        <time>2024-02-04T12:54:57Z</time>
      </trkpt>
      <trkpt lat="43.17632" lon="6.4987">
        <ele>336.3</ele>
        <time>2024-02-04T12:54:58Z</time>
      </trkpt>
      <trkpt lat="43.17632" lon="6.49869">
        <ele>336</ele>
        <time>2024-02-04T12:54:59Z</time>
      </trkpt>
      <trkpt lat="43.17632" lon="6.49868">
        <ele>335.8</ele>
        <time>2024-02-04T12:55:00Z</time>
      </trkpt>
      <trkpt lat="43.17631" lon="6.49867">
        <ele>335.7</ele>
        <time>2024-02-04T12:55:01Z</time>
      </trkpt>
      <trkpt lat="43.17631" lon="6.49866">
        <ele>335.6</ele>
        <time>2024-02-04T12:55:02Z</time>
      </trkpt>
      <trkpt lat="43.17631" lon="6.49865">
        <ele>335.4</ele>
        <time>2024-02-04T12:55:03Z</time>
      </trkpt>
      <trkpt lat="43.1763" lon="6.49863">
        <ele>335.3</ele>
        <time>2024-02-04T12:55:04Z</time>
      </trkpt>
      <trkpt lat="43.17629" lon="6.49863">
        <ele>335.2</ele>
        <time>2024-02-04T12:55:05Z</time>
      </trkpt>
      <trkpt lat="43.17628" lon="6.49862">
        <ele>335</ele>
        <time>2024-02-04T12:55:06Z</time>
      </trkpt>
      <trkpt lat="43.17628" lon="6.49861">
        <ele>334.9</ele>
        <time>2024-02-04T12:55:07Z</time>
      </trkpt>
      <trkpt lat="43.17628" lon="6.4986">
        <ele>334.6</ele>
        <time>2024-02-04T12:55:08Z</time>
      </trkpt>
      <trkpt lat="43.17627" lon="6.49859">
        <ele>334.5</ele>
        <time>2024-02-04T12:55:09Z</time>
      </trkpt>
      <trkpt lat="43.17627" lon="6.49858">
        <ele>334.5</ele>
        <time>2024-02-04T12:55:10Z</time>
      </trkpt>
      <trkpt lat="43.17627" lon="6.49857">
        <ele>334.5</ele>
        <time>2024-02-04T12:55:11Z</time>
      </trkpt>
      <trkpt lat="43.17627" lon="6.49856">
        <ele>334.5</ele>
        <time>2024-02-04T12:55:12Z</time>
      </trkpt>
      <trkpt lat="43.17627" lon="6.49856">
        <ele>334.4</ele>
        <time>2024-02-04T12:55:13Z</time>
      </trkpt>
      <trkpt lat="43.17627" lon="6.49856">
        <ele>334.3</ele>
        <time>2024-02-04T12:55:14Z</time>
      </trkpt>
      <trkpt lat="43.17627" lon="6.49855">
        <ele>334.2</ele>
        <time>2024-02-04T12:55:15Z</time>
      </trkpt>
      <trkpt lat="43.17628" lon="6.49855">
        <ele>334</ele>
        <time>2024-02-04T12:55:16Z</time>
      </trkpt>
      <trkpt lat="43.17628" lon="6.49855">
        <ele>333.7</ele>
        <time>2024-02-04T12:55:17Z</time>
      </trkpt>
      <trkpt lat="43.17629" lon="6.49855">
        <ele>333.6</ele>
        <time>2024-02-04T12:55:18Z</time>
      </trkpt>
      <trkpt lat="43.17629" lon="6.49854">
        <ele>333.4</ele>
        <time>2024-02-04T12:55:19Z</time>
      </trkpt>
      <trkpt lat="43.1763" lon="6.49855">
        <ele>333.2</ele>
        <time>2024-02-04T12:55:20Z</time>
      </trkpt>
      <trkpt lat="43.1763" lon="6.49854">
        <ele>333.1</ele>
        <time>2024-02-04T12:55:21Z</time>
      </trkpt>
      <trkpt lat="43.17631" lon="6.49854">
        <ele>332.9</ele>
        <time>2024-02-04T12:55:22Z</time>
      </trkpt>
      <trkpt lat="43.17631" lon="6.49854">
        <ele>332.6</ele>
        <time>2024-02-04T12:55:23Z</time>
      </trkpt>
      <trkpt lat="43.17632" lon="6.49855">
        <ele>332.4</ele>
        <time>2024-02-04T12:55:24Z</time>
      </trkpt>
      <trkpt lat="43.17632" lon="6.49855">
        <ele>332.2</ele>
        <time>2024-02-04T12:55:25Z</time>
      </trkpt>
      <trkpt lat="43.17633" lon="6.49854">
        <ele>332</ele>
        <time>2024-02-04T12:55:26Z</time>
      </trkpt>
      <trkpt lat="43.17634" lon="6.49854">
        <ele>331.9</ele>
        <time>2024-02-04T12:55:27Z</time>
      </trkpt>
      <trkpt lat="43.17634" lon="6.49854">
        <ele>331.8</ele>
        <time>2024-02-04T12:55:28Z</time>
      </trkpt>
      <trkpt lat="43.17635" lon="6.49853">
        <ele>331.7</ele>
        <time>2024-02-04T12:55:29Z</time>
      </trkpt>
      <trkpt lat="43.17635" lon="6.49853">
        <ele>331.6</ele>
        <time>2024-02-04T12:55:30Z</time>
      </trkpt>
      <trkpt lat="43.17636" lon="6.49852">
        <ele>331.5</ele>
        <time>2024-02-04T12:55:31Z</time>
      </trkpt>
      <trkpt lat="43.17637" lon="6.49852">
        <ele>331.4</ele>
        <time>2024-02-04T12:55:32Z</time>
      </trkpt>
      <trkpt lat="43.17638" lon="6.49852">
        <ele>331.3</ele>
        <time>2024-02-04T12:55:33Z</time>
      </trkpt>
      <trkpt lat="43.17639" lon="6.49851">
        <ele>331.2</ele>
        <time>2024-02-04T12:55:34Z</time>
      </trkpt>
      <trkpt lat="43.17639" lon="6.49851">
        <ele>331</ele>
        <time>2024-02-04T12:55:35Z</time>
      </trkpt>
      <trkpt lat="43.1764" lon="6.49851">
        <ele>330.9</ele>
        <time>2024-02-04T12:55:36Z</time>
      </trkpt>
      <trkpt lat="43.1764" lon="6.49851">
        <ele>330.8</ele>
        <time>2024-02-04T12:55:37Z</time>
      </trkpt>
      <trkpt lat="43.17641" lon="6.49851">
        <ele>330.7</ele>
        <time>2024-02-04T12:55:38Z</time>
      </trkpt>
      <trkpt lat="43.17641" lon="6.4985">
        <ele>330.5</ele>
        <time>2024-02-04T12:55:39Z</time>
      </trkpt>
      <trkpt lat="43.17641" lon="6.4985">
        <ele>330.4</ele>
        <time>2024-02-04T12:55:40Z</time>
      </trkpt>
      <trkpt lat="43.17641" lon="6.4985">
        <ele>330.3</ele>
        <time>2024-02-04T12:55:41Z</time>
      </trkpt>
      <trkpt lat="43.17641" lon="6.49849">
        <ele>330.2</ele>
        <time>2024-02-04T12:55:42Z</time>
      </trkpt>
      <trkpt lat="43.17642" lon="6.49849">
        <ele>330.1</ele>
        <time>2024-02-04T12:55:43Z</time>
      </trkpt>
      <trkpt lat="43.17642" lon="6.49849">
        <ele>330</ele>
        <time>2024-02-04T12:55:44Z</time>
      </trkpt>
      <trkpt lat="43.17643" lon="6.49848">
        <ele>329.9</ele>
        <time>2024-02-04T12:55:45Z</time>
      </trkpt>
      <trkpt lat="43.17643" lon="6.49847">
        <ele>329.8</ele>
        <time>2024-02-04T12:55:46Z</time>
      </trkpt>
      <trkpt lat="43.17644" lon="6.49847">
        <ele>329.7</ele>
        <time>2024-02-04T12:55:47Z</time>
      </trkpt>
      <trkpt lat="43.17644" lon="6.49846">
        <ele>329.6</ele>
        <time>2024-02-04T12:55:48Z</time>
      </trkpt>
      <trkpt lat="43.17644" lon="6.49846">
        <ele>329.5</ele>
        <time>2024-02-04T12:55:49Z</time>
      </trkpt>
      <trkpt lat="43.17644" lon="6.49845">
        <ele>329.4</ele>
        <time>2024-02-04T12:55:50Z</time>
      </trkpt>
      <trkpt lat="43.17644" lon="6.49845">
        <ele>329.1</ele>
        <time>2024-02-04T12:55:51Z</time>
      </trkpt>
      <trkpt lat="43.17645" lon="6.49845">
        <ele>329</ele>
        <time>2024-02-04T12:55:52Z</time>
      </trkpt>
      <trkpt lat="43.17645" lon="6.49845">
        <ele>329</ele>
        <time>2024-02-04T12:55:53Z</time>
      </trkpt>
      <trkpt lat="43.17646" lon="6.49845">
        <ele>328.9</ele>
        <time>2024-02-04T12:55:54Z</time>
      </trkpt>
      <trkpt lat="43.17646" lon="6.49845">
        <ele>328.9</ele>
        <time>2024-02-04T12:55:55Z</time>
      </trkpt>
      <trkpt lat="43.17646" lon="6.49845">
        <ele>328.9</ele>
        <time>2024-02-04T12:55:56Z</time>
      </trkpt>
      <trkpt lat="43.17646" lon="6.49845">
        <ele>328.8</ele>
        <time>2024-02-04T12:55:57Z</time>
      </trkpt>
      <trkpt lat="43.17646" lon="6.49845">
        <ele>328.8</ele>
        <time>2024-02-04T12:55:58Z</time>
      </trkpt>
      <trkpt lat="43.17647" lon="6.49844">
        <ele>328.7</ele>
        <time>2024-02-04T12:55:59Z</time>
      </trkpt>
      <trkpt lat="43.17647" lon="6.49844">
        <ele>328.6</ele>
        <time>2024-02-04T12:56:00Z</time>
      </trkpt>
      <trkpt lat="43.17648" lon="6.49843">
        <ele>328.4</ele>
        <time>2024-02-04T12:56:01Z</time>
      </trkpt>
      <trkpt lat="43.17648" lon="6.49842">
        <ele>328.2</ele>
        <time>2024-02-04T12:56:02Z</time>
      </trkpt>
      <trkpt lat="43.17648" lon="6.49842">
        <ele>328</ele>
        <time>2024-02-04T12:56:03Z</time>
      </trkpt>
      <trkpt lat="43.17648" lon="6.49842">
        <ele>327.9</ele>
        <time>2024-02-04T12:56:04Z</time>
      </trkpt>
      <trkpt lat="43.17648" lon="6.49842">
        <ele>327.7</ele>
        <time>2024-02-04T12:56:05Z</time>
      </trkpt>
      <trkpt lat="43.17648" lon="6.49842">
        <ele>327.6</ele>
        <time>2024-02-04T12:56:06Z</time>
      </trkpt>
      <trkpt lat="43.17648" lon="6.49842">
        <ele>327.6</ele>
        <time>2024-02-04T12:56:07Z</time>
      </trkpt>
      <trkpt lat="43.17648" lon="6.49842">
        <ele>327.5</ele>
        <time>2024-02-04T12:56:08Z</time>
      </trkpt>
      <trkpt lat="43.17648" lon="6.49842">
        <ele>327.4</ele>
        <time>2024-02-04T12:56:09Z</time>
      </trkpt>
      <trkpt lat="43.17648" lon="6.49842">
        <ele>327.4</ele>
        <time>2024-02-04T12:56:10Z</time>
      </trkpt>
      <trkpt lat="43.17648" lon="6.49842">
        <ele>327.4</ele>
        <time>2024-02-04T12:56:11Z</time>
      </trkpt>
      <trkpt lat="43.17648" lon="6.49842">
        <ele>327.4</ele>
        <time>2024-02-04T12:56:12Z</time>
      </trkpt>
      <trkpt lat="43.17648" lon="6.49842">
        <ele>327.4</ele>
        <time>2024-02-04T12:56:13Z</time>
      </trkpt>
      <trkpt lat="43.17648" lon="6.49843">
        <ele>327.4</ele>
        <time>2024-02-04T12:56:14Z</time>
      </trkpt>
      <trkpt lat="43.17648" lon="6.49843">
        <ele>327.3</ele>
        <time>2024-02-04T12:56:15Z</time>
      </trkpt>
      <trkpt lat="43.17648" lon="6.49843">
        <ele>327.4</ele>
        <time>2024-02-04T12:56:16Z</time>
      </trkpt>
      <trkpt lat="43.17648" lon="6.49842">
        <ele>327.3</ele>
        <time>2024-02-04T12:56:17Z</time>
      </trkpt>
      <trkpt lat="43.17649" lon="6.49842">
        <ele>327.3</ele>
        <time>2024-02-04T12:56:18Z</time>
      </trkpt>
      <trkpt lat="43.17649" lon="6.49841">
        <ele>327.2</ele>
        <time>2024-02-04T12:56:19Z</time>
      </trkpt>
      <trkpt lat="43.17649" lon="6.49841">
        <ele>327.2</ele>
        <time>2024-02-04T12:56:20Z</time>
      </trkpt>
      <trkpt lat="43.17649" lon="6.4984">
        <ele>327.1</ele>
        <time>2024-02-04T12:56:21Z</time>
      </trkpt>
      <trkpt lat="43.17649" lon="6.49839">
        <ele>327</ele>
        <time>2024-02-04T12:56:22Z</time>
      </trkpt>
      <trkpt lat="43.17649" lon="6.49839">
        <ele>326.9</ele>
        <time>2024-02-04T12:56:23Z</time>
      </trkpt>
      <trkpt lat="43.17649" lon="6.4984">
        <ele>326.8</ele>
        <time>2024-02-04T12:56:24Z</time>
      </trkpt>
      <trkpt lat="43.17649" lon="6.49839">
        <ele>326.7</ele>
        <time>2024-02-04T12:56:25Z</time>
      </trkpt>
      <trkpt lat="43.17649" lon="6.49839">
        <ele>326.6</ele>
        <time>2024-02-04T12:56:26Z</time>
      </trkpt>
      <trkpt lat="43.17649" lon="6.49839">
        <ele>326.5</ele>
        <time>2024-02-04T12:56:27Z</time>
      </trkpt>
      <trkpt lat="43.17649" lon="6.49839">
        <ele>326.4</ele>
        <time>2024-02-04T12:56:28Z</time>
      </trkpt>
      <trkpt lat="43.17649" lon="6.49839">
        <ele>326.4</ele>
        <time>2024-02-04T12:56:29Z</time>
      </trkpt>
      <trkpt lat="43.17649" lon="6.49839">
        <ele>326.3</ele>
        <time>2024-02-04T12:56:30Z</time>
      </trkpt>
      <trkpt lat="43.17649" lon="6.49839">
        <ele>326.3</ele>
        <time>2024-02-04T12:56:31Z</time>
      </trkpt>
      <trkpt lat="43.17649" lon="6.49839">
        <ele>326.3</ele>
        <time>2024-02-04T12:56:32Z</time>
      </trkpt>
      <trkpt lat="43.17649" lon="6.49839">
        <ele>326.2</ele>
        <time>2024-02-04T12:56:33Z</time>
      </trkpt>
      <trkpt lat="43.17649" lon="6.49839">
        <ele>326.2</ele>
        <time>2024-02-04T12:56:34Z</time>
      </trkpt>
      <trkpt lat="43.17649" lon="6.49839">
        <ele>326.2</ele>
        <time>2024-02-04T12:56:35Z</time>
      </trkpt>
      <trkpt lat="43.17649" lon="6.49839">
        <ele>326.2</ele>
        <time>2024-02-04T12:56:36Z</time>
      </trkpt>
      <trkpt lat="43.1765" lon="6.49838">
        <ele>326.1</ele>
        <time>2024-02-04T12:56:37Z</time>
      </trkpt>
      <trkpt lat="43.1765" lon="6.49838">
        <ele>326.1</ele>
        <time>2024-02-04T12:56:38Z</time>
      </trkpt>
      <trkpt lat="43.17651" lon="6.49838">
        <ele>326.2</ele>
        <time>2024-02-04T12:56:39Z</time>
      </trkpt>
      <trkpt lat="43.17651" lon="6.49837">
        <ele>326.1</ele>
        <time>2024-02-04T12:56:40Z</time>
      </trkpt>
      <trkpt lat="43.17651" lon="6.49836">
        <ele>326</ele>
        <time>2024-02-04T12:56:41Z</time>
      </trkpt>
      <trkpt lat="43.17652" lon="6.49835">
        <ele>325.7</ele>
        <time>2024-02-04T12:56:42Z</time>
      </trkpt>
      <trkpt lat="43.17652" lon="6.49835">
        <ele>325.5</ele>
        <time>2024-02-04T12:56:43Z</time>
      </trkpt>
      <trkpt lat="43.17652" lon="6.49834">
        <ele>325.3</ele>
        <time>2024-02-04T12:56:44Z</time>
      </trkpt>
      <trkpt lat="43.17653" lon="6.49833">
        <ele>325.2</ele>
        <time>2024-02-04T12:56:45Z</time>
      </trkpt>
      <trkpt lat="43.17653" lon="6.49833">
        <ele>325</ele>
        <time>2024-02-04T12:56:46Z</time>
      </trkpt>
      <trkpt lat="43.17653" lon="6.49832">
        <ele>324.7</ele>
        <time>2024-02-04T12:56:47Z</time>
      </trkpt>
      <trkpt lat="43.17653" lon="6.49832">
        <ele>324.6</ele>
        <time>2024-02-04T12:56:48Z</time>
      </trkpt>
      <trkpt lat="43.17653" lon="6.49832">
        <ele>324.4</ele>
        <time>2024-02-04T12:56:49Z</time>
      </trkpt>
      <trkpt lat="43.17653" lon="6.49831">
        <ele>324.3</ele>
        <time>2024-02-04T12:56:50Z</time>
      </trkpt>
      <trkpt lat="43.17653" lon="6.49831">
        <ele>324.1</ele>
        <time>2024-02-04T12:56:51Z</time>
      </trkpt>
      <trkpt lat="43.17653" lon="6.4983">
        <ele>323.9</ele>
        <time>2024-02-04T12:56:52Z</time>
      </trkpt>
      <trkpt lat="43.17653" lon="6.49829">
        <ele>323.8</ele>
        <time>2024-02-04T12:56:53Z</time>
      </trkpt>
      <trkpt lat="43.17653" lon="6.49828">
        <ele>323.7</ele>
        <time>2024-02-04T12:56:54Z</time>
      </trkpt>
      <trkpt lat="43.17653" lon="6.49827">
        <ele>323.4</ele>
        <time>2024-02-04T12:56:55Z</time>
      </trkpt>
      <trkpt lat="43.17653" lon="6.49827">
        <ele>323.2</ele>
        <time>2024-02-04T12:56:56Z</time>
      </trkpt>
      <trkpt lat="43.17653" lon="6.49826">
        <ele>323</ele>
        <time>2024-02-04T12:56:57Z</time>
      </trkpt>
      <trkpt lat="43.17653" lon="6.49825">
        <ele>322.9</ele>
        <time>2024-02-04T12:56:58Z</time>
      </trkpt>
      <trkpt lat="43.17653" lon="6.49824">
        <ele>322.8</ele>
        <time>2024-02-04T12:56:59Z</time>
      </trkpt>
      <trkpt lat="43.17654" lon="6.49823">
        <ele>322.7</ele>
        <time>2024-02-04T12:57:00Z</time>
      </trkpt>
      <trkpt lat="43.17653" lon="6.49822">
        <ele>322.5</ele>
        <time>2024-02-04T12:57:01Z</time>
      </trkpt>
      <trkpt lat="43.17653" lon="6.49821">
        <ele>322.4</ele>
        <time>2024-02-04T12:57:02Z</time>
      </trkpt>
      <trkpt lat="43.17653" lon="6.4982">
        <ele>322.2</ele>
        <time>2024-02-04T12:57:03Z</time>
      </trkpt>
      <trkpt lat="43.17653" lon="6.49819">
        <ele>322</ele>
        <time>2024-02-04T12:57:04Z</time>
      </trkpt>
      <trkpt lat="43.17654" lon="6.49818">
        <ele>321.8</ele>
        <time>2024-02-04T12:57:05Z</time>
      </trkpt>
      <trkpt lat="43.17653" lon="6.49817">
        <ele>321.6</ele>
        <time>2024-02-04T12:57:06Z</time>
      </trkpt>
      <trkpt lat="43.17653" lon="6.49817">
        <ele>321.5</ele>
        <time>2024-02-04T12:57:07Z</time>
      </trkpt>
      <trkpt lat="43.17653" lon="6.49816">
        <ele>321.2</ele>
        <time>2024-02-04T12:57:08Z</time>
      </trkpt>
      <trkpt lat="43.17653" lon="6.49815">
        <ele>321</ele>
        <time>2024-02-04T12:57:09Z</time>
      </trkpt>
      <trkpt lat="43.17653" lon="6.49815">
        <ele>320.8</ele>
        <time>2024-02-04T12:57:10Z</time>
      </trkpt>
      <trkpt lat="43.17653" lon="6.49814">
        <ele>320.7</ele>
        <time>2024-02-04T12:57:11Z</time>
      </trkpt>
      <trkpt lat="43.17653" lon="6.49813">
        <ele>320.5</ele>
        <time>2024-02-04T12:57:12Z</time>
      </trkpt>
      <trkpt lat="43.17653" lon="6.49812">
        <ele>320.2</ele>
        <time>2024-02-04T12:57:13Z</time>
      </trkpt>
      <trkpt lat="43.17653" lon="6.49811">
        <ele>320.1</ele>
        <time>2024-02-04T12:57:14Z</time>
      </trkpt>
      <trkpt lat="43.17652" lon="6.49811">
        <ele>319.8</ele>
        <time>2024-02-04T12:57:15Z</time>
      </trkpt>
      <trkpt lat="43.17653" lon="6.4981">
        <ele>319.6</ele>
        <time>2024-02-04T12:57:16Z</time>
      </trkpt>
      <trkpt lat="43.17653" lon="6.4981">
        <ele>319.5</ele>
        <time>2024-02-04T12:57:17Z</time>
      </trkpt>
      <trkpt lat="43.17653" lon="6.49809">
        <ele>319.4</ele>
        <time>2024-02-04T12:57:18Z</time>
      </trkpt>
      <trkpt lat="43.17652" lon="6.49808">
        <ele>319.2</ele>
        <time>2024-02-04T12:57:19Z</time>
      </trkpt>
      <trkpt lat="43.17652" lon="6.49808">
        <ele>319</ele>
        <time>2024-02-04T12:57:20Z</time>
      </trkpt>
      <trkpt lat="43.17652" lon="6.49807">
        <ele>318.9</ele>
        <time>2024-02-04T12:57:21Z</time>
      </trkpt>
      <trkpt lat="43.17653" lon="6.49806">
        <ele>318.7</ele>
        <time>2024-02-04T12:57:22Z</time>
      </trkpt>
      <trkpt lat="43.17653" lon="6.49806">
        <ele>318.5</ele>
        <time>2024-02-04T12:57:23Z</time>
      </trkpt>
      <trkpt lat="43.17653" lon="6.49805">
        <ele>318.4</ele>
        <time>2024-02-04T12:57:24Z</time>
      </trkpt>
      <trkpt lat="43.17653" lon="6.49805">
        <ele>318.2</ele>
        <time>2024-02-04T12:57:25Z</time>
      </trkpt>
      <trkpt lat="43.17653" lon="6.49804">
        <ele>318.1</ele>
        <time>2024-02-04T12:57:26Z</time>
      </trkpt>
      <trkpt lat="43.17653" lon="6.49804">
        <ele>317.9</ele>
        <time>2024-02-04T12:57:27Z</time>
      </trkpt>
      <trkpt lat="43.17653" lon="6.49804">
        <ele>317.8</ele>
        <time>2024-02-04T12:57:28Z</time>
      </trkpt>
      <trkpt lat="43.17653" lon="6.49803">
        <ele>317.7</ele>
        <time>2024-02-04T12:57:29Z</time>
      </trkpt>
      <trkpt lat="43.17653" lon="6.49803">
        <ele>317.6</ele>
        <time>2024-02-04T12:57:30Z</time>
      </trkpt>
      <trkpt lat="43.17654" lon="6.49803">
        <ele>317.4</ele>
        <time>2024-02-04T12:57:31Z</time>
      </trkpt>
      <trkpt lat="43.17654" lon="6.49802">
        <ele>317.3</ele>
        <time>2024-02-04T12:57:32Z</time>
      </trkpt>
      <trkpt lat="43.17654" lon="6.49802">
        <ele>317.1</ele>
        <time>2024-02-04T12:57:33Z</time>
      </trkpt>
      <trkpt lat="43.17654" lon="6.49802">
        <ele>317</ele>
        <time>2024-02-04T12:57:34Z</time>
      </trkpt>
      <trkpt lat="43.17654" lon="6.49801">
        <ele>316.9</ele>
        <time>2024-02-04T12:57:35Z</time>
      </trkpt>
      <trkpt lat="43.17654" lon="6.49801">
        <ele>316.8</ele>
        <time>2024-02-04T12:57:36Z</time>
      </trkpt>
      <trkpt lat="43.17654" lon="6.49801">
        <ele>316.8</ele>
        <time>2024-02-04T12:57:37Z</time>
      </trkpt>
      <trkpt lat="43.17654" lon="6.49801">
        <ele>316.7</ele>
        <time>2024-02-04T12:57:38Z</time>
      </trkpt>
      <trkpt lat="43.17654" lon="6.49801">
        <ele>316.6</ele>
        <time>2024-02-04T12:57:39Z</time>
      </trkpt>
      <trkpt lat="43.17654" lon="6.498">
        <ele>316.2</ele>
        <time>2024-02-04T12:57:40Z</time>
      </trkpt>
      <trkpt lat="43.17654" lon="6.49799">
        <ele>316.1</ele>
        <time>2024-02-04T12:57:41Z</time>
      </trkpt>
      <trkpt lat="43.17654" lon="6.49798">
        <ele>315.9</ele>
        <time>2024-02-04T12:57:42Z</time>
      </trkpt>
      <trkpt lat="43.17654" lon="6.49797">
        <ele>315.7</ele>
        <time>2024-02-04T12:57:43Z</time>
      </trkpt>
      <trkpt lat="43.17654" lon="6.49796">
        <ele>315.5</ele>
        <time>2024-02-04T12:57:44Z</time>
      </trkpt>
      <trkpt lat="43.17653" lon="6.49795">
        <ele>315.3</ele>
        <time>2024-02-04T12:57:45Z</time>
      </trkpt>
      <trkpt lat="43.17653" lon="6.49794">
        <ele>315.2</ele>
        <time>2024-02-04T12:57:46Z</time>
      </trkpt>
      <trkpt lat="43.17652" lon="6.49794">
        <ele>314.8</ele>
        <time>2024-02-04T12:57:47Z</time>
      </trkpt>
      <trkpt lat="43.17653" lon="6.49793">
        <ele>314.6</ele>
        <time>2024-02-04T12:57:48Z</time>
      </trkpt>
      <trkpt lat="43.17652" lon="6.49792">
        <ele>314.4</ele>
        <time>2024-02-04T12:57:49Z</time>
      </trkpt>
      <trkpt lat="43.17652" lon="6.49791">
        <ele>314.2</ele>
        <time>2024-02-04T12:57:50Z</time>
      </trkpt>
      <trkpt lat="43.17652" lon="6.4979">
        <ele>314</ele>
        <time>2024-02-04T12:57:51Z</time>
      </trkpt>
      <trkpt lat="43.17653" lon="6.49789">
        <ele>313.9</ele>
        <time>2024-02-04T12:57:52Z</time>
      </trkpt>
      <trkpt lat="43.17653" lon="6.49789">
        <ele>313.7</ele>
        <time>2024-02-04T12:57:53Z</time>
      </trkpt>
      <trkpt lat="43.17652" lon="6.49789">
        <ele>313.4</ele>
        <time>2024-02-04T12:57:54Z</time>
      </trkpt>
      <trkpt lat="43.17651" lon="6.49788">
        <ele>313.1</ele>
        <time>2024-02-04T12:57:55Z</time>
      </trkpt>
      <trkpt lat="43.17651" lon="6.49788">
        <ele>312.9</ele>
        <time>2024-02-04T12:57:56Z</time>
      </trkpt>
      <trkpt lat="43.17651" lon="6.49787">
        <ele>312.8</ele>
        <time>2024-02-04T12:57:57Z</time>
      </trkpt>
      <trkpt lat="43.17651" lon="6.49786">
        <ele>312.6</ele>
        <time>2024-02-04T12:57:58Z</time>
      </trkpt>
      <trkpt lat="43.1765" lon="6.49785">
        <ele>312.4</ele>
        <time>2024-02-04T12:57:59Z</time>
      </trkpt>
      <trkpt lat="43.17651" lon="6.49785">
        <ele>312.2</ele>
        <time>2024-02-04T12:58:00Z</time>
      </trkpt>
      <trkpt lat="43.17651" lon="6.49784">
        <ele>312</ele>
        <time>2024-02-04T12:58:01Z</time>
      </trkpt>
      <trkpt lat="43.1765" lon="6.49783">
        <ele>311.8</ele>
        <time>2024-02-04T12:58:02Z</time>
      </trkpt>
      <trkpt lat="43.1765" lon="6.49783">
        <ele>311.6</ele>
        <time>2024-02-04T12:58:03Z</time>
      </trkpt>
      <trkpt lat="43.1765" lon="6.49782">
        <ele>311.3</ele>
        <time>2024-02-04T12:58:04Z</time>
      </trkpt>
      <trkpt lat="43.1765" lon="6.49781">
        <ele>311.1</ele>
        <time>2024-02-04T12:58:05Z</time>
      </trkpt>
      <trkpt lat="43.1765" lon="6.49781">
        <ele>310.9</ele>
        <time>2024-02-04T12:58:06Z</time>
      </trkpt>
      <trkpt lat="43.17651" lon="6.49781">
        <ele>310.8</ele>
        <time>2024-02-04T12:58:07Z</time>
      </trkpt>
      <trkpt lat="43.17651" lon="6.4978">
        <ele>310.7</ele>
        <time>2024-02-04T12:58:08Z</time>
      </trkpt>
      <trkpt lat="43.17651" lon="6.49779">
        <ele>310.5</ele>
        <time>2024-02-04T12:58:09Z</time>
      </trkpt>
      <trkpt lat="43.17651" lon="6.49778">
        <ele>310.3</ele>
        <time>2024-02-04T12:58:10Z</time>
      </trkpt>
      <trkpt lat="43.17651" lon="6.49778">
        <ele>310</ele>
        <time>2024-02-04T12:58:11Z</time>
      </trkpt>
      <trkpt lat="43.1765" lon="6.49777">
        <ele>309.8</ele>
        <time>2024-02-04T12:58:12Z</time>
      </trkpt>
      <trkpt lat="43.1765" lon="6.49776">
        <ele>309.7</ele>
        <time>2024-02-04T12:58:13Z</time>
      </trkpt>
      <trkpt lat="43.1765" lon="6.49776">
        <ele>309.5</ele>
        <time>2024-02-04T12:58:14Z</time>
      </trkpt>
      <trkpt lat="43.1765" lon="6.49775">
        <ele>309.4</ele>
        <time>2024-02-04T12:58:15Z</time>
      </trkpt>
      <trkpt lat="43.17649" lon="6.49775">
        <ele>309.2</ele>
        <time>2024-02-04T12:58:16Z</time>
      </trkpt>
      <trkpt lat="43.17649" lon="6.49774">
        <ele>309</ele>
        <time>2024-02-04T12:58:17Z</time>
      </trkpt>
      <trkpt lat="43.17649" lon="6.49774">
        <ele>308.8</ele>
        <time>2024-02-04T12:58:18Z</time>
      </trkpt>
      <trkpt lat="43.17649" lon="6.49773">
        <ele>308.7</ele>
        <time>2024-02-04T12:58:19Z</time>
      </trkpt>
      <trkpt lat="43.17649" lon="6.49773">
        <ele>308.6</ele>
        <time>2024-02-04T12:58:20Z</time>
      </trkpt>
      <trkpt lat="43.17648" lon="6.49773">
        <ele>308.5</ele>
        <time>2024-02-04T12:58:21Z</time>
      </trkpt>
      <trkpt lat="43.17648" lon="6.49772">
        <ele>308.3</ele>
        <time>2024-02-04T12:58:22Z</time>
      </trkpt>
      <trkpt lat="43.17648" lon="6.49772">
        <ele>308.1</ele>
        <time>2024-02-04T12:58:23Z</time>
      </trkpt>
      <trkpt lat="43.17648" lon="6.49771">
        <ele>307.9</ele>
        <time>2024-02-04T12:58:24Z</time>
      </trkpt>
      <trkpt lat="43.17648" lon="6.49771">
        <ele>307.8</ele>
        <time>2024-02-04T12:58:25Z</time>
      </trkpt>
      <trkpt lat="43.17647" lon="6.4977">
        <ele>307.7</ele>
        <time>2024-02-04T12:58:26Z</time>
      </trkpt>
      <trkpt lat="43.17647" lon="6.4977">
        <ele>307.5</ele>
        <time>2024-02-04T12:58:27Z</time>
      </trkpt>
      <trkpt lat="43.17647" lon="6.49769">
        <ele>307.4</ele>
        <time>2024-02-04T12:58:28Z</time>
      </trkpt>
      <trkpt lat="43.17647" lon="6.49768">
        <ele>307.3</ele>
        <time>2024-02-04T12:58:29Z</time>
      </trkpt>
      <trkpt lat="43.17647" lon="6.49767">
        <ele>307.1</ele>
        <time>2024-02-04T12:58:30Z</time>
      </trkpt>
      <trkpt lat="43.17647" lon="6.49767">
        <ele>306.9</ele>
        <time>2024-02-04T12:58:31Z</time>
      </trkpt>
      <trkpt lat="43.17647" lon="6.49766">
        <ele>306.7</ele>
        <time>2024-02-04T12:58:32Z</time>
      </trkpt>
      <trkpt lat="43.17647" lon="6.49765">
        <ele>306.6</ele>
        <time>2024-02-04T12:58:33Z</time>
      </trkpt>
      <trkpt lat="43.17648" lon="6.49765">
        <ele>306.5</ele>
        <time>2024-02-04T12:58:34Z</time>
      </trkpt>
      <trkpt lat="43.17648" lon="6.49765">
        <ele>306.3</ele>
        <time>2024-02-04T12:58:35Z</time>
      </trkpt>
      <trkpt lat="43.17648" lon="6.49764">
        <ele>306.1</ele>
        <time>2024-02-04T12:58:36Z</time>
      </trkpt>
      <trkpt lat="43.17648" lon="6.49764">
        <ele>305.9</ele>
        <time>2024-02-04T12:58:37Z</time>
      </trkpt>
      <trkpt lat="43.17649" lon="6.49763">
        <ele>305.7</ele>
        <time>2024-02-04T12:58:38Z</time>
      </trkpt>
      <trkpt lat="43.1765" lon="6.49762">
        <ele>305.3</ele>
        <time>2024-02-04T12:58:39Z</time>
      </trkpt>
      <trkpt lat="43.1765" lon="6.49762">
        <ele>305.2</ele>
        <time>2024-02-04T12:58:40Z</time>
      </trkpt>
      <trkpt lat="43.1765" lon="6.49762">
        <ele>305</ele>
        <time>2024-02-04T12:58:41Z</time>
      </trkpt>
      <trkpt lat="43.1765" lon="6.49762">
        <ele>304.9</ele>
        <time>2024-02-04T12:58:42Z</time>
      </trkpt>
      <trkpt lat="43.17649" lon="6.49761">
        <ele>304.6</ele>
        <time>2024-02-04T12:58:43Z</time>
      </trkpt>
      <trkpt lat="43.1765" lon="6.49761">
        <ele>304.4</ele>
        <time>2024-02-04T12:58:44Z</time>
      </trkpt>
      <trkpt lat="43.1765" lon="6.4976">
        <ele>304.2</ele>
        <time>2024-02-04T12:58:45Z</time>
      </trkpt>
      <trkpt lat="43.17651" lon="6.4976">
        <ele>304.1</ele>
        <time>2024-02-04T12:58:46Z</time>
      </trkpt>
      <trkpt lat="43.17651" lon="6.4976">
        <ele>303.9</ele>
        <time>2024-02-04T12:58:47Z</time>
      </trkpt>
      <trkpt lat="43.17652" lon="6.49759">
        <ele>303.7</ele>
        <time>2024-02-04T12:58:48Z</time>
      </trkpt>
      <trkpt lat="43.17653" lon="6.49759">
        <ele>303.5</ele>
        <time>2024-02-04T12:58:49Z</time>
      </trkpt>
      <trkpt lat="43.17653" lon="6.49757">
        <ele>303.2</ele>
        <time>2024-02-04T12:58:50Z</time>
      </trkpt>
      <trkpt lat="43.17653" lon="6.49757">
        <ele>303</ele>
        <time>2024-02-04T12:58:51Z</time>
      </trkpt>
      <trkpt lat="43.17654" lon="6.49757">
        <ele>302.8</ele>
        <time>2024-02-04T12:58:52Z</time>
      </trkpt>
      <trkpt lat="43.17654" lon="6.49756">
        <ele>302.6</ele>
        <time>2024-02-04T12:58:53Z</time>
      </trkpt>
      <trkpt lat="43.17654" lon="6.49756">
        <ele>302.3</ele>
        <time>2024-02-04T12:58:54Z</time>
      </trkpt>
      <trkpt lat="43.17655" lon="6.49755">
        <ele>302</ele>
        <time>2024-02-04T12:58:55Z</time>
      </trkpt>
      <trkpt lat="43.17656" lon="6.49754">
        <ele>301.8</ele>
        <time>2024-02-04T12:58:56Z</time>
      </trkpt>
      <trkpt lat="43.17656" lon="6.49753">
        <ele>301.5</ele>
        <time>2024-02-04T12:58:57Z</time>
      </trkpt>
      <trkpt lat="43.17656" lon="6.49753">
        <ele>301.3</ele>
        <time>2024-02-04T12:58:58Z</time>
      </trkpt>
      <trkpt lat="43.17657" lon="6.49752">
        <ele>301.2</ele>
        <time>2024-02-04T12:58:59Z</time>
      </trkpt>
      <trkpt lat="43.17658" lon="6.49751">
        <ele>301</ele>
        <time>2024-02-04T12:59:00Z</time>
      </trkpt>
      <trkpt lat="43.17659" lon="6.4975">
        <ele>300.9</ele>
        <time>2024-02-04T12:59:01Z</time>
      </trkpt>
      <trkpt lat="43.1766" lon="6.49749">
        <ele>300.7</ele>
        <time>2024-02-04T12:59:02Z</time>
      </trkpt>
      <trkpt lat="43.1766" lon="6.49748">
        <ele>300.6</ele>
        <time>2024-02-04T12:59:03Z</time>
      </trkpt>
      <trkpt lat="43.17661" lon="6.49747">
        <ele>300.4</ele>
        <time>2024-02-04T12:59:04Z</time>
      </trkpt>
      <trkpt lat="43.17661" lon="6.49746">
        <ele>300.4</ele>
        <time>2024-02-04T12:59:05Z</time>
      </trkpt>
      <trkpt lat="43.17661" lon="6.49744">
        <ele>300.3</ele>
        <time>2024-02-04T12:59:06Z</time>
      </trkpt>
      <trkpt lat="43.17661" lon="6.49742">
        <ele>300.2</ele>
        <time>2024-02-04T12:59:07Z</time>
      </trkpt>
      <trkpt lat="43.1766" lon="6.49741">
        <ele>300</ele>
        <time>2024-02-04T12:59:08Z</time>
      </trkpt>
      <trkpt lat="43.17659" lon="6.49741">
        <ele>299.9</ele>
        <time>2024-02-04T12:59:09Z</time>
      </trkpt>
      <trkpt lat="43.17659" lon="6.4974">
        <ele>299.8</ele>
        <time>2024-02-04T12:59:10Z</time>
      </trkpt>
      <trkpt lat="43.17659" lon="6.4974">
        <ele>299.7</ele>
        <time>2024-02-04T12:59:11Z</time>
      </trkpt>
      <trkpt lat="43.17658" lon="6.4974">
        <ele>299.4</ele>
        <time>2024-02-04T12:59:12Z</time>
      </trkpt>
      <trkpt lat="43.17657" lon="6.49739">
        <ele>299.1</ele>
        <time>2024-02-04T12:59:13Z</time>
      </trkpt>
      <trkpt lat="43.17656" lon="6.49738">
        <ele>298.9</ele>
        <time>2024-02-04T12:59:14Z</time>
      </trkpt>
      <trkpt lat="43.17655" lon="6.49737">
        <ele>298.7</ele>
        <time>2024-02-04T12:59:15Z</time>
      </trkpt>
      <trkpt lat="43.17655" lon="6.49736">
        <ele>298.6</ele>
        <time>2024-02-04T12:59:16Z</time>
      </trkpt>
      <trkpt lat="43.17654" lon="6.49736">
        <ele>298.4</ele>
        <time>2024-02-04T12:59:17Z</time>
      </trkpt>
      <trkpt lat="43.17652" lon="6.49735">
        <ele>298.2</ele>
        <time>2024-02-04T12:59:18Z</time>
      </trkpt>
      <trkpt lat="43.17651" lon="6.49734">
        <ele>298</ele>
        <time>2024-02-04T12:59:19Z</time>
      </trkpt>
      <trkpt lat="43.1765" lon="6.49733">
        <ele>297.9</ele>
        <time>2024-02-04T12:59:20Z</time>
      </trkpt>
      <trkpt lat="43.17649" lon="6.49733">
        <ele>297.7</ele>
        <time>2024-02-04T12:59:21Z</time>
      </trkpt>
      <trkpt lat="43.17648" lon="6.49732">
        <ele>297.6</ele>
        <time>2024-02-04T12:59:22Z</time>
      </trkpt>
      <trkpt lat="43.17647" lon="6.49732">
        <ele>297.4</ele>
        <time>2024-02-04T12:59:23Z</time>
      </trkpt>
      <trkpt lat="43.17646" lon="6.49731">
        <ele>297.3</ele>
        <time>2024-02-04T12:59:24Z</time>
      </trkpt>
      <trkpt lat="43.17645" lon="6.49731">
        <ele>297.2</ele>
        <time>2024-02-04T12:59:25Z</time>
      </trkpt>
      <trkpt lat="43.17645" lon="6.4973">
        <ele>297</ele>
        <time>2024-02-04T12:59:26Z</time>
      </trkpt>
      <trkpt lat="43.17644" lon="6.49728">
        <ele>297</ele>
        <time>2024-02-04T12:59:27Z</time>
      </trkpt>
      <trkpt lat="43.17643" lon="6.49727">
        <ele>296.8</ele>
        <time>2024-02-04T12:59:28Z</time>
      </trkpt>
      <trkpt lat="43.17642" lon="6.49727">
        <ele>296.7</ele>
        <time>2024-02-04T12:59:29Z</time>
      </trkpt>
      <trkpt lat="43.17641" lon="6.49726">
        <ele>296.6</ele>
        <time>2024-02-04T12:59:30Z</time>
      </trkpt>
      <trkpt lat="43.1764" lon="6.49725">
        <ele>296.6</ele>
        <time>2024-02-04T12:59:31Z</time>
      </trkpt>
      <trkpt lat="43.17639" lon="6.49725">
        <ele>296.5</ele>
        <time>2024-02-04T12:59:32Z</time>
      </trkpt>
      <trkpt lat="43.17638" lon="6.49725">
        <ele>296.4</ele>
        <time>2024-02-04T12:59:33Z</time>
      </trkpt>
      <trkpt lat="43.17637" lon="6.49724">
        <ele>296.4</ele>
        <time>2024-02-04T12:59:34Z</time>
      </trkpt>
      <trkpt lat="43.17635" lon="6.49724">
        <ele>296.4</ele>
        <time>2024-02-04T12:59:35Z</time>
      </trkpt>
      <trkpt lat="43.17634" lon="6.49722">
        <ele>296.4</ele>
        <time>2024-02-04T12:59:36Z</time>
      </trkpt>
      <trkpt lat="43.17633" lon="6.49722">
        <ele>296.4</ele>
        <time>2024-02-04T12:59:37Z</time>
      </trkpt>
      <trkpt lat="43.17632" lon="6.49721">
        <ele>296.4</ele>
        <time>2024-02-04T12:59:38Z</time>
      </trkpt>
      <trkpt lat="43.17631" lon="6.49721">
        <ele>296.4</ele>
        <time>2024-02-04T12:59:39Z</time>
      </trkpt>
      <trkpt lat="43.1763" lon="6.49721">
        <ele>296.4</ele>
        <time>2024-02-04T12:59:40Z</time>
      </trkpt>
      <trkpt lat="43.17628" lon="6.4972">
        <ele>296.3</ele>
        <time>2024-02-04T12:59:41Z</time>
      </trkpt>
      <trkpt lat="43.17627" lon="6.4972">
        <ele>296.2</ele>
        <time>2024-02-04T12:59:42Z</time>
      </trkpt>
      <trkpt lat="43.17626" lon="6.49719">
        <ele>296.1</ele>
        <time>2024-02-04T12:59:43Z</time>
      </trkpt>
      <trkpt lat="43.17625" lon="6.49717">
        <ele>296</ele>
        <time>2024-02-04T12:59:44Z</time>
      </trkpt>
      <trkpt lat="43.17624" lon="6.49716">
        <ele>295.9</ele>
        <time>2024-02-04T12:59:45Z</time>
      </trkpt>
      <trkpt lat="43.17623" lon="6.49716">
        <ele>295.7</ele>
        <time>2024-02-04T12:59:46Z</time>
      </trkpt>
      <trkpt lat="43.17622" lon="6.49715">
        <ele>295.7</ele>
        <time>2024-02-04T12:59:47Z</time>
      </trkpt>
      <trkpt lat="43.1762" lon="6.49714">
        <ele>295.5</ele>
        <time>2024-02-04T12:59:48Z</time>
      </trkpt>
      <trkpt lat="43.17619" lon="6.49713">
        <ele>295.4</ele>
        <time>2024-02-04T12:59:49Z</time>
      </trkpt>
      <trkpt lat="43.17618" lon="6.49713">
        <ele>295.3</ele>
        <time>2024-02-04T12:59:50Z</time>
      </trkpt>
      <trkpt lat="43.17617" lon="6.49713">
        <ele>295.1</ele>
        <time>2024-02-04T12:59:51Z</time>
      </trkpt>
      <trkpt lat="43.17616" lon="6.49712">
        <ele>294.8</ele>
        <time>2024-02-04T12:59:52Z</time>
      </trkpt>
      <trkpt lat="43.17615" lon="6.49712">
        <ele>294.6</ele>
        <time>2024-02-04T12:59:53Z</time>
      </trkpt>
      <trkpt lat="43.17614" lon="6.49711">
        <ele>294.4</ele>
        <time>2024-02-04T12:59:54Z</time>
      </trkpt>
      <trkpt lat="43.17613" lon="6.49711">
        <ele>294.3</ele>
        <time>2024-02-04T12:59:55Z</time>
      </trkpt>
      <trkpt lat="43.17612" lon="6.49711">
        <ele>294.1</ele>
        <time>2024-02-04T12:59:56Z</time>
      </trkpt>
      <trkpt lat="43.17611" lon="6.4971">
        <ele>294</ele>
        <time>2024-02-04T12:59:57Z</time>
      </trkpt>
      <trkpt lat="43.1761" lon="6.4971">
        <ele>293.8</ele>
        <time>2024-02-04T12:59:58Z</time>
      </trkpt>
      <trkpt lat="43.17609" lon="6.4971">
        <ele>293.7</ele>
        <time>2024-02-04T12:59:59Z</time>
      </trkpt>
      <trkpt lat="43.17608" lon="6.4971">
        <ele>293.6</ele>
        <time>2024-02-04T13:00:00Z</time>
      </trkpt>
      <trkpt lat="43.17607" lon="6.4971">
        <ele>293.6</ele>
        <time>2024-02-04T13:00:01Z</time>
      </trkpt>
      <trkpt lat="43.17606" lon="6.4971">
        <ele>293.5</ele>
        <time>2024-02-04T13:00:02Z</time>
      </trkpt>
      <trkpt lat="43.17606" lon="6.4971">
        <ele>293.5</ele>
        <time>2024-02-04T13:00:03Z</time>
      </trkpt>
      <trkpt lat="43.17606" lon="6.4971">
        <ele>293.5</ele>
        <time>2024-02-04T13:00:04Z</time>
      </trkpt>
      <trkpt lat="43.17605" lon="6.4971">
        <ele>293.5</ele>
        <time>2024-02-04T13:00:05Z</time>
      </trkpt>
      <trkpt lat="43.17604" lon="6.49711">
        <ele>293.4</ele>
        <time>2024-02-04T13:00:06Z</time>
      </trkpt>
      <trkpt lat="43.17604" lon="6.49711">
        <ele>293.3</ele>
        <time>2024-02-04T13:00:07Z</time>
      </trkpt>
      <trkpt lat="43.17603" lon="6.49711">
        <ele>293.3</ele>
        <time>2024-02-04T13:00:08Z</time>
      </trkpt>
      <trkpt lat="43.17603" lon="6.49711">
        <ele>293.2</ele>
        <time>2024-02-04T13:00:09Z</time>
      </trkpt>
      <trkpt lat="43.17602" lon="6.49711">
        <ele>293.1</ele>
        <time>2024-02-04T13:00:10Z</time>
      </trkpt>
      <trkpt lat="43.17602" lon="6.49711">
        <ele>293</ele>
        <time>2024-02-04T13:00:11Z</time>
      </trkpt>
      <trkpt lat="43.17602" lon="6.49712">
        <ele>293</ele>
        <time>2024-02-04T13:00:12Z</time>
      </trkpt>
      <trkpt lat="43.17602" lon="6.49712">
        <ele>292.9</ele>
        <time>2024-02-04T13:00:13Z</time>
      </trkpt>
      <trkpt lat="43.17602" lon="6.49712">
        <ele>292.9</ele>
        <time>2024-02-04T13:00:14Z</time>
      </trkpt>
      <trkpt lat="43.17601" lon="6.49712">
        <ele>292.8</ele>
        <time>2024-02-04T13:00:15Z</time>
      </trkpt>
      <trkpt lat="43.17601" lon="6.49712">
        <ele>292.8</ele>
        <time>2024-02-04T13:00:16Z</time>
      </trkpt>
      <trkpt lat="43.17601" lon="6.49712">
        <ele>292.9</ele>
        <time>2024-02-04T13:00:17Z</time>
      </trkpt>
      <trkpt lat="43.17601" lon="6.49711">
        <ele>293</ele>
        <time>2024-02-04T13:00:18Z</time>
      </trkpt>
      <trkpt lat="43.17601" lon="6.49711">
        <ele>293</ele>
        <time>2024-02-04T13:00:19Z</time>
      </trkpt>
      <trkpt lat="43.17601" lon="6.49711">
        <ele>293</ele>
        <time>2024-02-04T13:00:20Z</time>
      </trkpt>
      <trkpt lat="43.176" lon="6.49711">
        <ele>293.1</ele>
        <time>2024-02-04T13:00:21Z</time>
      </trkpt>
      <trkpt lat="43.176" lon="6.49711">
        <ele>293.1</ele>
        <time>2024-02-04T13:00:22Z</time>
      </trkpt>
      <trkpt lat="43.176" lon="6.49711">
        <ele>293.2</ele>
        <time>2024-02-04T13:00:23Z</time>
      </trkpt>
      <trkpt lat="43.176" lon="6.49711">
        <ele>293.2</ele>
        <time>2024-02-04T13:00:24Z</time>
      </trkpt>
      <trkpt lat="43.176" lon="6.49711">
        <ele>293.1</ele>
        <time>2024-02-04T13:00:25Z</time>
      </trkpt>
      <trkpt lat="43.176" lon="6.49711">
        <ele>293.1</ele>
        <time>2024-02-04T13:00:26Z</time>
      </trkpt>
      <trkpt lat="43.176" lon="6.49711">
        <ele>293.1</ele>
        <time>2024-02-04T13:00:27Z</time>
      </trkpt>
      <trkpt lat="43.176" lon="6.4971">
        <ele>293.1</ele>
        <time>2024-02-04T13:00:28Z</time>
      </trkpt>
      <trkpt lat="43.176" lon="6.4971">
        <ele>293.1</ele>
        <time>2024-02-04T13:00:29Z</time>
      </trkpt>
      <trkpt lat="43.176" lon="6.49711">
        <ele>293.1</ele>
        <time>2024-02-04T13:00:30Z</time>
      </trkpt>
      <trkpt lat="43.176" lon="6.49711">
        <ele>293.2</ele>
        <time>2024-02-04T13:00:31Z</time>
      </trkpt>
      <trkpt lat="43.176" lon="6.49711">
        <ele>293.2</ele>
        <time>2024-02-04T13:00:32Z</time>
      </trkpt>
      <trkpt lat="43.176" lon="6.49711">
        <ele>293.2</ele>
        <time>2024-02-04T13:00:33Z</time>
      </trkpt>
      <trkpt lat="43.176" lon="6.49711">
        <ele>293.2</ele>
        <time>2024-02-04T13:00:34Z</time>
      </trkpt>
      <trkpt lat="43.176" lon="6.49711">
        <ele>293.1</ele>
        <time>2024-02-04T13:00:35Z</time>
      </trkpt>
      <trkpt lat="43.176" lon="6.49711">
        <ele>293.1</ele>
        <time>2024-02-04T13:00:36Z</time>
      </trkpt>
      <trkpt lat="43.176" lon="6.49711">
        <ele>293.1</ele>
        <time>2024-02-04T13:00:37Z</time>
      </trkpt>
      <trkpt lat="43.176" lon="6.49711">
        <ele>293.1</ele>
        <time>2024-02-04T13:00:38Z</time>
      </trkpt>
      <trkpt lat="43.176" lon="6.49711">
        <ele>293.1</ele>
        <time>2024-02-04T13:00:39Z</time>
      </trkpt>
      <trkpt lat="43.176" lon="6.49711">
        <ele>293.2</ele>
        <time>2024-02-04T13:00:40Z</time>
      </trkpt>
      <trkpt lat="43.176" lon="6.49711">
        <ele>293.1</ele>
        <time>2024-02-04T13:00:41Z</time>
      </trkpt>
      <trkpt lat="43.176" lon="6.49711">
        <ele>293.1</ele>
        <time>2024-02-04T13:00:42Z</time>
      </trkpt>
      <trkpt lat="43.176" lon="6.49711">
        <ele>293.1</ele>
        <time>2024-02-04T13:00:43Z</time>
      </trkpt>
      <trkpt lat="43.176" lon="6.4971">
        <ele>293.1</ele>
        <time>2024-02-04T13:00:44Z</time>
      </trkpt>
      <trkpt lat="43.176" lon="6.4971">
        <ele>293.1</ele>
        <time>2024-02-04T13:00:45Z</time>
      </trkpt>
      <trkpt lat="43.176" lon="6.4971">
        <ele>293.1</ele>
        <time>2024-02-04T13:00:46Z</time>
      </trkpt>
      <trkpt lat="43.176" lon="6.4971">
        <ele>293.1</ele>
        <time>2024-02-04T13:00:47Z</time>
      </trkpt>
      <trkpt lat="43.176" lon="6.4971">
        <ele>293.2</ele>
        <time>2024-02-04T13:00:48Z</time>
      </trkpt>
      <trkpt lat="43.176" lon="6.4971">
        <ele>293.2</ele>
        <time>2024-02-04T13:00:49Z</time>
      </trkpt>
      <trkpt lat="43.176" lon="6.4971">
        <ele>293.2</ele>
        <time>2024-02-04T13:00:50Z</time>
      </trkpt>
      <trkpt lat="43.176" lon="6.4971">
        <ele>293.2</ele>
        <time>2024-02-04T13:00:51Z</time>
      </trkpt>
      <trkpt lat="43.176" lon="6.4971">
        <ele>293.2</ele>
        <time>2024-02-04T13:00:52Z</time>
      </trkpt>
      <trkpt lat="43.176" lon="6.4971">
        <ele>293.2</ele>
        <time>2024-02-04T13:00:53Z</time>
      </trkpt>
      <trkpt lat="43.176" lon="6.4971">
        <ele>293.1</ele>
        <time>2024-02-04T13:00:54Z</time>
      </trkpt>
      <trkpt lat="43.17599" lon="6.49711">
        <ele>293.1</ele>
        <time>2024-02-04T13:00:55Z</time>
      </trkpt>
      <trkpt lat="43.17599" lon="6.49711">
        <ele>293.2</ele>
        <time>2024-02-04T13:00:56Z</time>
      </trkpt>
      <trkpt lat="43.17599" lon="6.49711">
        <ele>293.3</ele>
        <time>2024-02-04T13:00:57Z</time>
      </trkpt>
      <trkpt lat="43.17599" lon="6.49711">
        <ele>293.4</ele>
        <time>2024-02-04T13:00:58Z</time>
      </trkpt>
      <trkpt lat="43.17599" lon="6.49711">
        <ele>293.5</ele>
        <time>2024-02-04T13:00:59Z</time>
      </trkpt>
      <trkpt lat="43.17598" lon="6.49711">
        <ele>293.5</ele>
        <time>2024-02-04T13:01:00Z</time>
      </trkpt>
      <trkpt lat="43.17598" lon="6.49712">
        <ele>293.5</ele>
        <time>2024-02-04T13:01:01Z</time>
      </trkpt>
      <trkpt lat="43.17597" lon="6.49712">
        <ele>293.5</ele>
        <time>2024-02-04T13:01:02Z</time>
      </trkpt>
      <trkpt lat="43.17596" lon="6.49712">
        <ele>293.5</ele>
        <time>2024-02-04T13:01:03Z</time>
      </trkpt>
      <trkpt lat="43.17596" lon="6.49712">
        <ele>293.5</ele>
        <time>2024-02-04T13:01:04Z</time>
      </trkpt>
      <trkpt lat="43.17595" lon="6.49712">
        <ele>293.5</ele>
        <time>2024-02-04T13:01:05Z</time>
      </trkpt>
      <trkpt lat="43.17595" lon="6.49712">
        <ele>293.5</ele>
        <time>2024-02-04T13:01:06Z</time>
      </trkpt>
      <trkpt lat="43.17595" lon="6.49712">
        <ele>293.5</ele>
        <time>2024-02-04T13:01:07Z</time>
      </trkpt>
      <trkpt lat="43.17595" lon="6.49712">
        <ele>293.5</ele>
        <time>2024-02-04T13:01:08Z</time>
      </trkpt>
      <trkpt lat="43.17594" lon="6.49712">
        <ele>293.5</ele>
        <time>2024-02-04T13:01:09Z</time>
      </trkpt>
      <trkpt lat="43.17594" lon="6.49711">
        <ele>293.5</ele>
        <time>2024-02-04T13:01:10Z</time>
      </trkpt>
      <trkpt lat="43.17594" lon="6.49711">
        <ele>293.4</ele>
        <time>2024-02-04T13:01:11Z</time>
      </trkpt>
      <trkpt lat="43.17594" lon="6.49712">
        <ele>293.3</ele>
        <time>2024-02-04T13:01:12Z</time>
      </trkpt>
      <trkpt lat="43.17594" lon="6.49712">
        <ele>293.3</ele>
        <time>2024-02-04T13:01:13Z</time>
      </trkpt>
      <trkpt lat="43.17595" lon="6.49712">
        <ele>293.2</ele>
        <time>2024-02-04T13:01:14Z</time>
      </trkpt>
      <trkpt lat="43.17594" lon="6.49712">
        <ele>293.2</ele>
        <time>2024-02-04T13:01:15Z</time>
      </trkpt>
      <trkpt lat="43.17594" lon="6.49713">
        <ele>293.2</ele>
        <time>2024-02-04T13:01:16Z</time>
      </trkpt>
      <trkpt lat="43.17594" lon="6.49713">
        <ele>293.3</ele>
        <time>2024-02-04T13:01:17Z</time>
      </trkpt>
      <trkpt lat="43.17594" lon="6.49713">
        <ele>293.3</ele>
        <time>2024-02-04T13:01:18Z</time>
      </trkpt>
      <trkpt lat="43.17594" lon="6.49714">
        <ele>293.3</ele>
        <time>2024-02-04T13:01:19Z</time>
      </trkpt>
      <trkpt lat="43.17594" lon="6.49714">
        <ele>293.2</ele>
        <time>2024-02-04T13:01:20Z</time>
      </trkpt>
      <trkpt lat="43.17594" lon="6.49713">
        <ele>293.2</ele>
        <time>2024-02-04T13:01:21Z</time>
      </trkpt>
      <trkpt lat="43.17594" lon="6.49713">
        <ele>293.2</ele>
        <time>2024-02-04T13:01:22Z</time>
      </trkpt>
      <trkpt lat="43.17594" lon="6.49713">
        <ele>293.2</ele>
        <time>2024-02-04T13:01:23Z</time>
      </trkpt>
      <trkpt lat="43.17594" lon="6.49713">
        <ele>293.2</ele>
        <time>2024-02-04T13:01:24Z</time>
      </trkpt>
      <trkpt lat="43.17594" lon="6.49713">
        <ele>293.2</ele>
        <time>2024-02-04T13:01:25Z</time>
      </trkpt>
      <trkpt lat="43.17593" lon="6.49713">
        <ele>293.3</ele>
        <time>2024-02-04T13:01:26Z</time>
      </trkpt>
      <trkpt lat="43.17593" lon="6.49714">
        <ele>293</ele>
        <time>2024-02-04T13:01:27Z</time>
      </trkpt>
      <trkpt lat="43.17593" lon="6.49714">
        <ele>292.9</ele>
        <time>2024-02-04T13:01:28Z</time>
      </trkpt>
      <trkpt lat="43.17593" lon="6.49714">
        <ele>292.9</ele>
        <time>2024-02-04T13:01:29Z</time>
      </trkpt>
      <trkpt lat="43.17592" lon="6.49714">
        <ele>292.9</ele>
        <time>2024-02-04T13:01:30Z</time>
      </trkpt>
      <trkpt lat="43.17592" lon="6.49714">
        <ele>292.9</ele>
        <time>2024-02-04T13:01:31Z</time>
      </trkpt>
      <trkpt lat="43.17591" lon="6.49714">
        <ele>292.9</ele>
        <time>2024-02-04T13:01:32Z</time>
      </trkpt>
      <trkpt lat="43.17591" lon="6.49714">
        <ele>292.8</ele>
        <time>2024-02-04T13:01:33Z</time>
      </trkpt>
      <trkpt lat="43.1759" lon="6.49714">
        <ele>292.8</ele>
        <time>2024-02-04T13:01:34Z</time>
      </trkpt>
      <trkpt lat="43.1759" lon="6.49714">
        <ele>292.8</ele>
        <time>2024-02-04T13:01:35Z</time>
      </trkpt>
      <trkpt lat="43.17589" lon="6.49714">
        <ele>292.7</ele>
        <time>2024-02-04T13:01:36Z</time>
      </trkpt>
      <trkpt lat="43.17588" lon="6.49714">
        <ele>292.7</ele>
        <time>2024-02-04T13:01:37Z</time>
      </trkpt>
      <trkpt lat="43.17588" lon="6.49714">
        <ele>292.5</ele>
        <time>2024-02-04T13:01:38Z</time>
      </trkpt>
      <trkpt lat="43.17587" lon="6.49715">
        <ele>292.4</ele>
        <time>2024-02-04T13:01:39Z</time>
      </trkpt>
      <trkpt lat="43.17586" lon="6.49715">
        <ele>292.2</ele>
        <time>2024-02-04T13:01:40Z</time>
      </trkpt>
      <trkpt lat="43.17586" lon="6.49715">
        <ele>292.1</ele>
        <time>2024-02-04T13:01:41Z</time>
      </trkpt>
      <trkpt lat="43.17585" lon="6.49715">
        <ele>292</ele>
        <time>2024-02-04T13:01:42Z</time>
      </trkpt>
      <trkpt lat="43.17584" lon="6.49715">
        <ele>291.9</ele>
        <time>2024-02-04T13:01:43Z</time>
      </trkpt>
      <trkpt lat="43.17583" lon="6.49715">
        <ele>291.8</ele>
        <time>2024-02-04T13:01:44Z</time>
      </trkpt>
      <trkpt lat="43.17582" lon="6.49716">
        <ele>291.7</ele>
        <time>2024-02-04T13:01:45Z</time>
      </trkpt>
      <trkpt lat="43.17581" lon="6.49716">
        <ele>291.6</ele>
        <time>2024-02-04T13:01:46Z</time>
      </trkpt>
      <trkpt lat="43.1758" lon="6.49717">
        <ele>291.4</ele>
        <time>2024-02-04T13:01:47Z</time>
      </trkpt>
      <trkpt lat="43.1758" lon="6.49717">
        <ele>291.3</ele>
        <time>2024-02-04T13:01:48Z</time>
      </trkpt>
      <trkpt lat="43.17579" lon="6.49718">
        <ele>291.2</ele>
        <time>2024-02-04T13:01:49Z</time>
      </trkpt>
      <trkpt lat="43.17578" lon="6.49719">
        <ele>291.1</ele>
        <time>2024-02-04T13:01:50Z</time>
      </trkpt>
      <trkpt lat="43.17577" lon="6.4972">
        <ele>291</ele>
        <time>2024-02-04T13:01:51Z</time>
      </trkpt>
      <trkpt lat="43.17576" lon="6.49721">
        <ele>291</ele>
        <time>2024-02-04T13:01:52Z</time>
      </trkpt>
      <trkpt lat="43.17575" lon="6.49721">
        <ele>291.2</ele>
        <time>2024-02-04T13:01:53Z</time>
      </trkpt>
      <trkpt lat="43.17574" lon="6.49722">
        <ele>291.2</ele>
        <time>2024-02-04T13:01:54Z</time>
      </trkpt>
      <trkpt lat="43.17574" lon="6.49723">
        <ele>291.2</ele>
        <time>2024-02-04T13:01:55Z</time>
      </trkpt>
      <trkpt lat="43.17573" lon="6.49723">
        <ele>291.2</ele>
        <time>2024-02-04T13:01:56Z</time>
      </trkpt>
      <trkpt lat="43.17572" lon="6.49724">
        <ele>291.1</ele>
        <time>2024-02-04T13:01:57Z</time>
      </trkpt>
      <trkpt lat="43.17571" lon="6.49724">
        <ele>291.1</ele>
        <time>2024-02-04T13:01:58Z</time>
      </trkpt>
      <trkpt lat="43.17571" lon="6.49725">
        <ele>291</ele>
        <time>2024-02-04T13:01:59Z</time>
      </trkpt>
      <trkpt lat="43.1757" lon="6.49725">
        <ele>291</ele>
        <time>2024-02-04T13:02:00Z</time>
      </trkpt>
      <trkpt lat="43.17569" lon="6.49726">
        <ele>291</ele>
        <time>2024-02-04T13:02:01Z</time>
      </trkpt>
      <trkpt lat="43.17568" lon="6.49727">
        <ele>290.9</ele>
        <time>2024-02-04T13:02:02Z</time>
      </trkpt>
      <trkpt lat="43.17568" lon="6.49727">
        <ele>290.9</ele>
        <time>2024-02-04T13:02:03Z</time>
      </trkpt>
      <trkpt lat="43.17567" lon="6.49728">
        <ele>290.8</ele>
        <time>2024-02-04T13:02:04Z</time>
      </trkpt>
      <trkpt lat="43.17566" lon="6.49729">
        <ele>290.9</ele>
        <time>2024-02-04T13:02:05Z</time>
      </trkpt>
      <trkpt lat="43.17566" lon="6.4973">
        <ele>290.9</ele>
        <time>2024-02-04T13:02:06Z</time>
      </trkpt>
      <trkpt lat="43.17565" lon="6.4973">
        <ele>290.9</ele>
        <time>2024-02-04T13:02:07Z</time>
      </trkpt>
      <trkpt lat="43.17564" lon="6.49731">
        <ele>290.9</ele>
        <time>2024-02-04T13:02:08Z</time>
      </trkpt>
      <trkpt lat="43.17564" lon="6.49732">
        <ele>290.9</ele>
        <time>2024-02-04T13:02:09Z</time>
      </trkpt>
      <trkpt lat="43.17563" lon="6.49733">
        <ele>290.8</ele>
        <time>2024-02-04T13:02:10Z</time>
      </trkpt>
      <trkpt lat="43.17562" lon="6.49734">
        <ele>290.8</ele>
        <time>2024-02-04T13:02:11Z</time>
      </trkpt>
      <trkpt lat="43.17561" lon="6.49735">
        <ele>290.8</ele>
        <time>2024-02-04T13:02:12Z</time>
      </trkpt>
      <trkpt lat="43.17561" lon="6.49735">
        <ele>290.8</ele>
        <time>2024-02-04T13:02:13Z</time>
      </trkpt>
      <trkpt lat="43.1756" lon="6.49736">
        <ele>290.8</ele>
        <time>2024-02-04T13:02:14Z</time>
      </trkpt>
      <trkpt lat="43.17559" lon="6.49737">
        <ele>290.8</ele>
        <time>2024-02-04T13:02:15Z</time>
      </trkpt>
      <trkpt lat="43.17559" lon="6.49738">
        <ele>290.7</ele>
        <time>2024-02-04T13:02:16Z</time>
      </trkpt>
      <trkpt lat="43.17558" lon="6.49739">
        <ele>290.7</ele>
        <time>2024-02-04T13:02:17Z</time>
      </trkpt>
      <trkpt lat="43.17557" lon="6.4974">
        <ele>290.7</ele>
        <time>2024-02-04T13:02:18Z</time>
      </trkpt>
      <trkpt lat="43.17556" lon="6.4974">
        <ele>290.7</ele>
        <time>2024-02-04T13:02:19Z</time>
      </trkpt>
      <trkpt lat="43.17555" lon="6.49741">
        <ele>290.5</ele>
        <time>2024-02-04T13:02:20Z</time>
      </trkpt>
      <trkpt lat="43.17554" lon="6.49741">
        <ele>290.5</ele>
        <time>2024-02-04T13:02:21Z</time>
      </trkpt>
      <trkpt lat="43.17553" lon="6.49742">
        <ele>290.6</ele>
        <time>2024-02-04T13:02:22Z</time>
      </trkpt>
      <trkpt lat="43.17552" lon="6.49743">
        <ele>290.6</ele>
        <time>2024-02-04T13:02:23Z</time>
      </trkpt>
      <trkpt lat="43.17551" lon="6.49744">
        <ele>290.6</ele>
        <time>2024-02-04T13:02:24Z</time>
      </trkpt>
      <trkpt lat="43.17551" lon="6.49745">
        <ele>290.5</ele>
        <time>2024-02-04T13:02:25Z</time>
      </trkpt>
      <trkpt lat="43.1755" lon="6.49745">
        <ele>290.6</ele>
        <time>2024-02-04T13:02:26Z</time>
      </trkpt>
      <trkpt lat="43.1755" lon="6.49745">
        <ele>290.6</ele>
        <time>2024-02-04T13:02:27Z</time>
      </trkpt>
      <trkpt lat="43.17549" lon="6.49746">
        <ele>290.7</ele>
        <time>2024-02-04T13:02:28Z</time>
      </trkpt>
      <trkpt lat="43.17548" lon="6.49746">
        <ele>290.8</ele>
        <time>2024-02-04T13:02:29Z</time>
      </trkpt>
      <trkpt lat="43.17547" lon="6.49746">
        <ele>290.8</ele>
        <time>2024-02-04T13:02:30Z</time>
      </trkpt>
      <trkpt lat="43.17546" lon="6.49747">
        <ele>290.8</ele>
        <time>2024-02-04T13:02:31Z</time>
      </trkpt>
      <trkpt lat="43.17546" lon="6.49748">
        <ele>290.8</ele>
        <time>2024-02-04T13:02:32Z</time>
      </trkpt>
      <trkpt lat="43.17546" lon="6.49748">
        <ele>290.8</ele>
        <time>2024-02-04T13:02:33Z</time>
      </trkpt>
      <trkpt lat="43.17545" lon="6.49749">
        <ele>290.9</ele>
        <time>2024-02-04T13:02:34Z</time>
      </trkpt>
      <trkpt lat="43.17545" lon="6.49749">
        <ele>290.8</ele>
        <time>2024-02-04T13:02:35Z</time>
      </trkpt>
      <trkpt lat="43.17543" lon="6.4975">
        <ele>290.8</ele>
        <time>2024-02-04T13:02:36Z</time>
      </trkpt>
      <trkpt lat="43.17543" lon="6.4975">
        <ele>290.9</ele>
        <time>2024-02-04T13:02:37Z</time>
      </trkpt>
      <trkpt lat="43.17542" lon="6.49751">
        <ele>290.9</ele>
        <time>2024-02-04T13:02:38Z</time>
      </trkpt>
      <trkpt lat="43.17542" lon="6.49752">
        <ele>291</ele>
        <time>2024-02-04T13:02:39Z</time>
      </trkpt>
      <trkpt lat="43.17541" lon="6.49753">
        <ele>291</ele>
        <time>2024-02-04T13:02:40Z</time>
      </trkpt>
      <trkpt lat="43.1754" lon="6.49753">
        <ele>291.1</ele>
        <time>2024-02-04T13:02:41Z</time>
      </trkpt>
      <trkpt lat="43.1754" lon="6.49755">
        <ele>291.1</ele>
        <time>2024-02-04T13:02:42Z</time>
      </trkpt>
      <trkpt lat="43.17539" lon="6.49755">
        <ele>291.2</ele>
        <time>2024-02-04T13:02:43Z</time>
      </trkpt>
      <trkpt lat="43.17538" lon="6.49756">
        <ele>291.2</ele>
        <time>2024-02-04T13:02:44Z</time>
      </trkpt>
      <trkpt lat="43.17538" lon="6.49757">
        <ele>291.2</ele>
        <time>2024-02-04T13:02:45Z</time>
      </trkpt>
      <trkpt lat="43.17537" lon="6.49758">
        <ele>291.3</ele>
        <time>2024-02-04T13:02:46Z</time>
      </trkpt>
      <trkpt lat="43.17536" lon="6.49758">
        <ele>291.4</ele>
        <time>2024-02-04T13:02:47Z</time>
      </trkpt>
      <trkpt lat="43.17535" lon="6.49759">
        <ele>291.4</ele>
        <time>2024-02-04T13:02:48Z</time>
      </trkpt>
      <trkpt lat="43.17534" lon="6.4976">
        <ele>291.5</ele>
        <time>2024-02-04T13:02:49Z</time>
      </trkpt>
      <trkpt lat="43.17534" lon="6.49761">
        <ele>291.5</ele>
        <time>2024-02-04T13:02:50Z</time>
      </trkpt>
      <trkpt lat="43.17532" lon="6.49762">
        <ele>291.5</ele>
        <time>2024-02-04T13:02:51Z</time>
      </trkpt>
      <trkpt lat="43.17532" lon="6.49762">
        <ele>291.6</ele>
        <time>2024-02-04T13:02:52Z</time>
      </trkpt>
      <trkpt lat="43.17531" lon="6.49762">
        <ele>291.6</ele>
        <time>2024-02-04T13:02:53Z</time>
      </trkpt>
      <trkpt lat="43.17531" lon="6.49763">
        <ele>291.6</ele>
        <time>2024-02-04T13:02:54Z</time>
      </trkpt>
      <trkpt lat="43.1753" lon="6.49763">
        <ele>291.8</ele>
        <time>2024-02-04T13:02:55Z</time>
      </trkpt>
      <trkpt lat="43.17529" lon="6.49763">
        <ele>292</ele>
        <time>2024-02-04T13:02:56Z</time>
      </trkpt>
      <trkpt lat="43.17529" lon="6.49763">
        <ele>292.1</ele>
        <time>2024-02-04T13:02:57Z</time>
      </trkpt>
      <trkpt lat="43.17528" lon="6.49764">
        <ele>292.2</ele>
        <time>2024-02-04T13:02:58Z</time>
      </trkpt>
      <trkpt lat="43.17527" lon="6.49765">
        <ele>292.3</ele>
        <time>2024-02-04T13:02:59Z</time>
      </trkpt>
      <trkpt lat="43.17527" lon="6.49765">
        <ele>292.5</ele>
        <time>2024-02-04T13:03:00Z</time>
      </trkpt>
      <trkpt lat="43.17526" lon="6.49766">
        <ele>292.6</ele>
        <time>2024-02-04T13:03:01Z</time>
      </trkpt>
      <trkpt lat="43.17525" lon="6.49765">
        <ele>292.7</ele>
        <time>2024-02-04T13:03:02Z</time>
      </trkpt>
      <trkpt lat="43.17524" lon="6.49766">
        <ele>292.9</ele>
        <time>2024-02-04T13:03:03Z</time>
      </trkpt>
      <trkpt lat="43.17524" lon="6.49766">
        <ele>293</ele>
        <time>2024-02-04T13:03:04Z</time>
      </trkpt>
      <trkpt lat="43.17523" lon="6.49767">
        <ele>293.1</ele>
        <time>2024-02-04T13:03:05Z</time>
      </trkpt>
      <trkpt lat="43.17522" lon="6.49768">
        <ele>293.2</ele>
        <time>2024-02-04T13:03:06Z</time>
      </trkpt>
      <trkpt lat="43.17522" lon="6.4977">
        <ele>293.2</ele>
        <time>2024-02-04T13:03:07Z</time>
      </trkpt>
      <trkpt lat="43.17521" lon="6.49772">
        <ele>293.3</ele>
        <time>2024-02-04T13:03:08Z</time>
      </trkpt>
      <trkpt lat="43.1752" lon="6.49774">
        <ele>293.3</ele>
        <time>2024-02-04T13:03:09Z</time>
      </trkpt>
      <trkpt lat="43.1752" lon="6.49776">
        <ele>293.3</ele>
        <time>2024-02-04T13:03:10Z</time>
      </trkpt>
      <trkpt lat="43.1752" lon="6.49777">
        <ele>293.3</ele>
        <time>2024-02-04T13:03:11Z</time>
      </trkpt>
      <trkpt lat="43.1752" lon="6.49779">
        <ele>293.3</ele>
        <time>2024-02-04T13:03:12Z</time>
      </trkpt>
      <trkpt lat="43.1752" lon="6.4978">
        <ele>293.3</ele>
        <time>2024-02-04T13:03:13Z</time>
      </trkpt>
      <trkpt lat="43.1752" lon="6.49782">
        <ele>293.2</ele>
        <time>2024-02-04T13:03:14Z</time>
      </trkpt>
      <trkpt lat="43.17521" lon="6.49783">
        <ele>293.2</ele>
        <time>2024-02-04T13:03:15Z</time>
      </trkpt>
      <trkpt lat="43.17521" lon="6.49784">
        <ele>293.1</ele>
        <time>2024-02-04T13:03:16Z</time>
      </trkpt>
      <trkpt lat="43.17521" lon="6.49785">
        <ele>290.8</ele>
        <time>2024-02-04T13:03:17Z</time>
      </trkpt>
      <trkpt lat="43.1752" lon="6.49787">
        <ele>291.1</ele>
        <time>2024-02-04T13:03:18Z</time>
      </trkpt>
      <trkpt lat="43.1752" lon="6.49788">
        <ele>291.3</ele>
        <time>2024-02-04T13:03:19Z</time>
      </trkpt>
      <trkpt lat="43.1752" lon="6.49789">
        <ele>291.5</ele>
        <time>2024-02-04T13:03:20Z</time>
      </trkpt>
      <trkpt lat="43.1752" lon="6.4979">
        <ele>291.6</ele>
        <time>2024-02-04T13:03:21Z</time>
      </trkpt>
      <trkpt lat="43.1752" lon="6.49791">
        <ele>291.7</ele>
        <time>2024-02-04T13:03:22Z</time>
      </trkpt>
      <trkpt lat="43.1752" lon="6.49792">
        <ele>291.7</ele>
        <time>2024-02-04T13:03:23Z</time>
      </trkpt>
      <trkpt lat="43.17519" lon="6.49794">
        <ele>291.7</ele>
        <time>2024-02-04T13:03:24Z</time>
      </trkpt>
      <trkpt lat="43.17519" lon="6.49795">
        <ele>291.7</ele>
        <time>2024-02-04T13:03:25Z</time>
      </trkpt>
      <trkpt lat="43.17518" lon="6.49795">
        <ele>291.6</ele>
        <time>2024-02-04T13:03:26Z</time>
      </trkpt>
      <trkpt lat="43.17518" lon="6.49796">
        <ele>291.5</ele>
        <time>2024-02-04T13:03:27Z</time>
      </trkpt>
      <trkpt lat="43.17517" lon="6.49797">
        <ele>291.4</ele>
        <time>2024-02-04T13:03:28Z</time>
      </trkpt>
      <trkpt lat="43.17517" lon="6.49798">
        <ele>291.3</ele>
        <time>2024-02-04T13:03:29Z</time>
      </trkpt>
      <trkpt lat="43.17518" lon="6.49799">
        <ele>291.3</ele>
        <time>2024-02-04T13:03:30Z</time>
      </trkpt>
      <trkpt lat="43.17518" lon="6.49799">
        <ele>291.2</ele>
        <time>2024-02-04T13:03:31Z</time>
      </trkpt>
      <trkpt lat="43.17518" lon="6.498">
        <ele>290.9</ele>
        <time>2024-02-04T13:03:32Z</time>
      </trkpt>
      <trkpt lat="43.17517" lon="6.498">
        <ele>290.7</ele>
        <time>2024-02-04T13:03:33Z</time>
      </trkpt>
      <trkpt lat="43.17517" lon="6.49801">
        <ele>290.5</ele>
        <time>2024-02-04T13:03:34Z</time>
      </trkpt>
      <trkpt lat="43.17516" lon="6.49802">
        <ele>290.2</ele>
        <time>2024-02-04T13:03:35Z</time>
      </trkpt>
      <trkpt lat="43.17516" lon="6.49802">
        <ele>290</ele>
        <time>2024-02-04T13:03:36Z</time>
      </trkpt>
      <trkpt lat="43.17516" lon="6.49803">
        <ele>289.8</ele>
        <time>2024-02-04T13:03:37Z</time>
      </trkpt>
      <trkpt lat="43.17516" lon="6.49803">
        <ele>289.6</ele>
        <time>2024-02-04T13:03:38Z</time>
      </trkpt>
      <trkpt lat="43.17516" lon="6.49803">
        <ele>289.5</ele>
        <time>2024-02-04T13:03:39Z</time>
      </trkpt>
      <trkpt lat="43.17516" lon="6.49803">
        <ele>289.3</ele>
        <time>2024-02-04T13:03:40Z</time>
      </trkpt>
      <trkpt lat="43.17515" lon="6.49804">
        <ele>289.1</ele>
        <time>2024-02-04T13:03:41Z</time>
      </trkpt>
      <trkpt lat="43.17515" lon="6.49804">
        <ele>289</ele>
        <time>2024-02-04T13:03:42Z</time>
      </trkpt>
      <trkpt lat="43.17515" lon="6.49805">
        <ele>288.9</ele>
        <time>2024-02-04T13:03:43Z</time>
      </trkpt>
      <trkpt lat="43.17514" lon="6.49805">
        <ele>288.8</ele>
        <time>2024-02-04T13:03:44Z</time>
      </trkpt>
      <trkpt lat="43.17514" lon="6.49806">
        <ele>288.6</ele>
        <time>2024-02-04T13:03:45Z</time>
      </trkpt>
      <trkpt lat="43.17513" lon="6.49807">
        <ele>288.5</ele>
        <time>2024-02-04T13:03:46Z</time>
      </trkpt>
      <trkpt lat="43.17513" lon="6.49807">
        <ele>288.3</ele>
        <time>2024-02-04T13:03:47Z</time>
      </trkpt>
      <trkpt lat="43.17513" lon="6.49808">
        <ele>288.2</ele>
        <time>2024-02-04T13:03:48Z</time>
      </trkpt>
      <trkpt lat="43.17512" lon="6.49809">
        <ele>288.1</ele>
        <time>2024-02-04T13:03:49Z</time>
      </trkpt>
      <trkpt lat="43.17512" lon="6.4981">
        <ele>288</ele>
        <time>2024-02-04T13:03:50Z</time>
      </trkpt>
      <trkpt lat="43.17512" lon="6.49811">
        <ele>287.7</ele>
        <time>2024-02-04T13:03:51Z</time>
      </trkpt>
      <trkpt lat="43.17511" lon="6.49812">
        <ele>287.5</ele>
        <time>2024-02-04T13:03:52Z</time>
      </trkpt>
      <trkpt lat="43.17511" lon="6.49813">
        <ele>287.3</ele>
        <time>2024-02-04T13:03:53Z</time>
      </trkpt>
      <trkpt lat="43.17511" lon="6.49813">
        <ele>287.1</ele>
        <time>2024-02-04T13:03:54Z</time>
      </trkpt>
      <trkpt lat="43.17511" lon="6.49814">
        <ele>286.9</ele>
        <time>2024-02-04T13:03:55Z</time>
      </trkpt>
      <trkpt lat="43.1751" lon="6.49815">
        <ele>286.7</ele>
        <time>2024-02-04T13:03:56Z</time>
      </trkpt>
      <trkpt lat="43.1751" lon="6.49815">
        <ele>286.5</ele>
        <time>2024-02-04T13:03:57Z</time>
      </trkpt>
      <trkpt lat="43.1751" lon="6.49815">
        <ele>286.3</ele>
        <time>2024-02-04T13:03:58Z</time>
      </trkpt>
      <trkpt lat="43.1751" lon="6.49814">
        <ele>286.2</ele>
        <time>2024-02-04T13:03:59Z</time>
      </trkpt>
      <trkpt lat="43.1751" lon="6.49815">
        <ele>286.1</ele>
        <time>2024-02-04T13:04:00Z</time>
      </trkpt>
      <trkpt lat="43.1751" lon="6.49815">
        <ele>286.1</ele>
        <time>2024-02-04T13:04:01Z</time>
      </trkpt>
      <trkpt lat="43.1751" lon="6.49815">
        <ele>286</ele>
        <time>2024-02-04T13:04:02Z</time>
      </trkpt>
      <trkpt lat="43.1751" lon="6.49815">
        <ele>286</ele>
        <time>2024-02-04T13:04:03Z</time>
      </trkpt>
      <trkpt lat="43.17509" lon="6.49814">
        <ele>285.8</ele>
        <time>2024-02-04T13:04:04Z</time>
      </trkpt>
      <trkpt lat="43.1751" lon="6.49814">
        <ele>285.7</ele>
        <time>2024-02-04T13:04:05Z</time>
      </trkpt>
      <trkpt lat="43.1751" lon="6.49814">
        <ele>285.6</ele>
        <time>2024-02-04T13:04:06Z</time>
      </trkpt>
      <trkpt lat="43.1751" lon="6.49814">
        <ele>285.6</ele>
        <time>2024-02-04T13:04:07Z</time>
      </trkpt>
      <trkpt lat="43.1751" lon="6.49815">
        <ele>285.6</ele>
        <time>2024-02-04T13:04:08Z</time>
      </trkpt>
      <trkpt lat="43.1751" lon="6.49815">
        <ele>285.6</ele>
        <time>2024-02-04T13:04:09Z</time>
      </trkpt>
      <trkpt lat="43.1751" lon="6.49815">
        <ele>285.6</ele>
        <time>2024-02-04T13:04:10Z</time>
      </trkpt>
      <trkpt lat="43.1751" lon="6.49815">
        <ele>285.7</ele>
        <time>2024-02-04T13:04:11Z</time>
      </trkpt>
      <trkpt lat="43.17511" lon="6.49815">
        <ele>285.7</ele>
        <time>2024-02-04T13:04:12Z</time>
      </trkpt>
      <trkpt lat="43.17511" lon="6.49815">
        <ele>285.9</ele>
        <time>2024-02-04T13:04:13Z</time>
      </trkpt>
      <trkpt lat="43.1751" lon="6.49815">
        <ele>285.9</ele>
        <time>2024-02-04T13:04:14Z</time>
      </trkpt>
      <trkpt lat="43.1751" lon="6.49816">
        <ele>285.7</ele>
        <time>2024-02-04T13:04:15Z</time>
      </trkpt>
      <trkpt lat="43.17509" lon="6.49816">
        <ele>285.6</ele>
        <time>2024-02-04T13:04:16Z</time>
      </trkpt>
      <trkpt lat="43.17509" lon="6.49817">
        <ele>285.6</ele>
        <time>2024-02-04T13:04:17Z</time>
      </trkpt>
      <trkpt lat="43.17508" lon="6.49817">
        <ele>285.5</ele>
        <time>2024-02-04T13:04:18Z</time>
      </trkpt>
      <trkpt lat="43.17508" lon="6.49818">
        <ele>285.3</ele>
        <time>2024-02-04T13:04:19Z</time>
      </trkpt>
      <trkpt lat="43.17507" lon="6.49819">
        <ele>285.2</ele>
        <time>2024-02-04T13:04:20Z</time>
      </trkpt>
      <trkpt lat="43.17507" lon="6.49819">
        <ele>285.1</ele>
        <time>2024-02-04T13:04:21Z</time>
      </trkpt>
      <trkpt lat="43.17506" lon="6.49819">
        <ele>285</ele>
        <time>2024-02-04T13:04:22Z</time>
      </trkpt>
      <trkpt lat="43.17506" lon="6.4982">
        <ele>284.8</ele>
        <time>2024-02-04T13:04:23Z</time>
      </trkpt>
      <trkpt lat="43.17506" lon="6.4982">
        <ele>284.7</ele>
        <time>2024-02-04T13:04:24Z</time>
      </trkpt>
      <trkpt lat="43.17505" lon="6.4982">
        <ele>284.6</ele>
        <time>2024-02-04T13:04:25Z</time>
      </trkpt>
      <trkpt lat="43.17505" lon="6.4982">
        <ele>284.5</ele>
        <time>2024-02-04T13:04:26Z</time>
      </trkpt>
      <trkpt lat="43.17506" lon="6.4982">
        <ele>284.4</ele>
        <time>2024-02-04T13:04:27Z</time>
      </trkpt>
      <trkpt lat="43.17506" lon="6.4982">
        <ele>284.3</ele>
        <time>2024-02-04T13:04:28Z</time>
      </trkpt>
      <trkpt lat="43.17506" lon="6.4982">
        <ele>284.3</ele>
        <time>2024-02-04T13:04:29Z</time>
      </trkpt>
      <trkpt lat="43.17505" lon="6.4982">
        <ele>284.2</ele>
        <time>2024-02-04T13:04:30Z</time>
      </trkpt>
      <trkpt lat="43.17505" lon="6.49821">
        <ele>284.1</ele>
        <time>2024-02-04T13:04:31Z</time>
      </trkpt>
      <trkpt lat="43.17505" lon="6.49822">
        <ele>284.1</ele>
        <time>2024-02-04T13:04:32Z</time>
      </trkpt>
      <trkpt lat="43.17504" lon="6.49822">
        <ele>283.9</ele>
        <time>2024-02-04T13:04:33Z</time>
      </trkpt>
      <trkpt lat="43.17504" lon="6.49823">
        <ele>283.7</ele>
        <time>2024-02-04T13:04:34Z</time>
      </trkpt>
      <trkpt lat="43.17503" lon="6.49822">
        <ele>283.6</ele>
        <time>2024-02-04T13:04:35Z</time>
      </trkpt>
      <trkpt lat="43.17503" lon="6.49822">
        <ele>283.5</ele>
        <time>2024-02-04T13:04:36Z</time>
      </trkpt>
      <trkpt lat="43.17503" lon="6.49823">
        <ele>283.4</ele>
        <time>2024-02-04T13:04:37Z</time>
      </trkpt>
      <trkpt lat="43.17503" lon="6.49823">
        <ele>283.4</ele>
        <time>2024-02-04T13:04:38Z</time>
      </trkpt>
      <trkpt lat="43.17502" lon="6.49823">
        <ele>283.2</ele>
        <time>2024-02-04T13:04:39Z</time>
      </trkpt>
      <trkpt lat="43.17502" lon="6.49823">
        <ele>283.2</ele>
        <time>2024-02-04T13:04:40Z</time>
      </trkpt>
      <trkpt lat="43.17502" lon="6.49823">
        <ele>283</ele>
        <time>2024-02-04T13:04:41Z</time>
      </trkpt>
      <trkpt lat="43.17501" lon="6.49824">
        <ele>282.8</ele>
        <time>2024-02-04T13:04:42Z</time>
      </trkpt>
      <trkpt lat="43.175" lon="6.49825">
        <ele>282.6</ele>
        <time>2024-02-04T13:04:43Z</time>
      </trkpt>
      <trkpt lat="43.175" lon="6.49825">
        <ele>282.5</ele>
        <time>2024-02-04T13:04:44Z</time>
      </trkpt>
      <trkpt lat="43.175" lon="6.49826">
        <ele>282.3</ele>
        <time>2024-02-04T13:04:45Z</time>
      </trkpt>
      <trkpt lat="43.17499" lon="6.49827">
        <ele>282.1</ele>
        <time>2024-02-04T13:04:46Z</time>
      </trkpt>
      <trkpt lat="43.17499" lon="6.49828">
        <ele>282</ele>
        <time>2024-02-04T13:04:47Z</time>
      </trkpt>
      <trkpt lat="43.17499" lon="6.49829">
        <ele>281.9</ele>
        <time>2024-02-04T13:04:48Z</time>
      </trkpt>
      <trkpt lat="43.17498" lon="6.4983">
        <ele>281.8</ele>
        <time>2024-02-04T13:04:49Z</time>
      </trkpt>
      <trkpt lat="43.17498" lon="6.4983">
        <ele>281.6</ele>
        <time>2024-02-04T13:04:50Z</time>
      </trkpt>
      <trkpt lat="43.17497" lon="6.49831">
        <ele>281.5</ele>
        <time>2024-02-04T13:04:51Z</time>
      </trkpt>
      <trkpt lat="43.17497" lon="6.49832">
        <ele>281.3</ele>
        <time>2024-02-04T13:04:52Z</time>
      </trkpt>
      <trkpt lat="43.17496" lon="6.49833">
        <ele>281.1</ele>
        <time>2024-02-04T13:04:53Z</time>
      </trkpt>
      <trkpt lat="43.17496" lon="6.49833">
        <ele>280.9</ele>
        <time>2024-02-04T13:04:54Z</time>
      </trkpt>
      <trkpt lat="43.17495" lon="6.49834">
        <ele>280.8</ele>
        <time>2024-02-04T13:04:55Z</time>
      </trkpt>
      <trkpt lat="43.17495" lon="6.49834">
        <ele>280.6</ele>
        <time>2024-02-04T13:04:56Z</time>
      </trkpt>
      <trkpt lat="43.17494" lon="6.49834">
        <ele>280.5</ele>
        <time>2024-02-04T13:04:57Z</time>
      </trkpt>
      <trkpt lat="43.17494" lon="6.49834">
        <ele>280.3</ele>
        <time>2024-02-04T13:04:58Z</time>
      </trkpt>
      <trkpt lat="43.17494" lon="6.49835">
        <ele>280.2</ele>
        <time>2024-02-04T13:04:59Z</time>
      </trkpt>
      <trkpt lat="43.17494" lon="6.49835">
        <ele>280.1</ele>
        <time>2024-02-04T13:05:00Z</time>
      </trkpt>
      <trkpt lat="43.17493" lon="6.49835">
        <ele>280</ele>
        <time>2024-02-04T13:05:01Z</time>
      </trkpt>
      <trkpt lat="43.17493" lon="6.49836">
        <ele>279.9</ele>
        <time>2024-02-04T13:05:02Z</time>
      </trkpt>
      <trkpt lat="43.17492" lon="6.49836">
        <ele>279.8</ele>
        <time>2024-02-04T13:05:03Z</time>
      </trkpt>
      <trkpt lat="43.17492" lon="6.49837">
        <ele>279.6</ele>
        <time>2024-02-04T13:05:04Z</time>
      </trkpt>
      <trkpt lat="43.17492" lon="6.49838">
        <ele>279.5</ele>
        <time>2024-02-04T13:05:05Z</time>
      </trkpt>
      <trkpt lat="43.17491" lon="6.49839">
        <ele>279.4</ele>
        <time>2024-02-04T13:05:06Z</time>
      </trkpt>
      <trkpt lat="43.17491" lon="6.4984">
        <ele>279.2</ele>
        <time>2024-02-04T13:05:07Z</time>
      </trkpt>
      <trkpt lat="43.1749" lon="6.49841">
        <ele>279</ele>
        <time>2024-02-04T13:05:08Z</time>
      </trkpt>
      <trkpt lat="43.1749" lon="6.49841">
        <ele>278.8</ele>
        <time>2024-02-04T13:05:09Z</time>
      </trkpt>
      <trkpt lat="43.17489" lon="6.49842">
        <ele>278.6</ele>
        <time>2024-02-04T13:05:10Z</time>
      </trkpt>
      <trkpt lat="43.17489" lon="6.49843">
        <ele>278.5</ele>
        <time>2024-02-04T13:05:11Z</time>
      </trkpt>
      <trkpt lat="43.17489" lon="6.49843">
        <ele>278.3</ele>
        <time>2024-02-04T13:05:12Z</time>
      </trkpt>
      <trkpt lat="43.17488" lon="6.49844">
        <ele>278.2</ele>
        <time>2024-02-04T13:05:13Z</time>
      </trkpt>
      <trkpt lat="43.17487" lon="6.49844">
        <ele>278</ele>
        <time>2024-02-04T13:05:14Z</time>
      </trkpt>
      <trkpt lat="43.17487" lon="6.49844">
        <ele>277.8</ele>
        <time>2024-02-04T13:05:15Z</time>
      </trkpt>
      <trkpt lat="43.17486" lon="6.49844">
        <ele>277.6</ele>
        <time>2024-02-04T13:05:16Z</time>
      </trkpt>
      <trkpt lat="43.17486" lon="6.49845">
        <ele>277.4</ele>
        <time>2024-02-04T13:05:17Z</time>
      </trkpt>
      <trkpt lat="43.17485" lon="6.49845">
        <ele>277.1</ele>
        <time>2024-02-04T13:05:18Z</time>
      </trkpt>
      <trkpt lat="43.17485" lon="6.49845">
        <ele>276.9</ele>
        <time>2024-02-04T13:05:19Z</time>
      </trkpt>
      <trkpt lat="43.17485" lon="6.49846">
        <ele>276.8</ele>
        <time>2024-02-04T13:05:20Z</time>
      </trkpt>
      <trkpt lat="43.17484" lon="6.49846">
        <ele>276.7</ele>
        <time>2024-02-04T13:05:21Z</time>
      </trkpt>
      <trkpt lat="43.17484" lon="6.49847">
        <ele>276.5</ele>
        <time>2024-02-04T13:05:22Z</time>
      </trkpt>
      <trkpt lat="43.17483" lon="6.49847">
        <ele>276.4</ele>
        <time>2024-02-04T13:05:23Z</time>
      </trkpt>
      <trkpt lat="43.17482" lon="6.49848">
        <ele>276.2</ele>
        <time>2024-02-04T13:05:24Z</time>
      </trkpt>
      <trkpt lat="43.17481" lon="6.49848">
        <ele>276.1</ele>
        <time>2024-02-04T13:05:25Z</time>
      </trkpt>
      <trkpt lat="43.17481" lon="6.49849">
        <ele>275.8</ele>
        <time>2024-02-04T13:05:26Z</time>
      </trkpt>
      <trkpt lat="43.1748" lon="6.49849">
        <ele>275.7</ele>
        <time>2024-02-04T13:05:27Z</time>
      </trkpt>
      <trkpt lat="43.1748" lon="6.4985">
        <ele>275.5</ele>
        <time>2024-02-04T13:05:28Z</time>
      </trkpt>
      <trkpt lat="43.17479" lon="6.4985">
        <ele>275.3</ele>
        <time>2024-02-04T13:05:29Z</time>
      </trkpt>
      <trkpt lat="43.17479" lon="6.49851">
        <ele>275</ele>
        <time>2024-02-04T13:05:30Z</time>
      </trkpt>
      <trkpt lat="43.17478" lon="6.49851">
        <ele>274.9</ele>
        <time>2024-02-04T13:05:31Z</time>
      </trkpt>
      <trkpt lat="43.17478" lon="6.49852">
        <ele>274.7</ele>
        <time>2024-02-04T13:05:32Z</time>
      </trkpt>
      <trkpt lat="43.17477" lon="6.49852">
        <ele>274.6</ele>
        <time>2024-02-04T13:05:33Z</time>
      </trkpt>
      <trkpt lat="43.17477" lon="6.49853">
        <ele>274.5</ele>
        <time>2024-02-04T13:05:34Z</time>
      </trkpt>
      <trkpt lat="43.17476" lon="6.49854">
        <ele>274.3</ele>
        <time>2024-02-04T13:05:35Z</time>
      </trkpt>
      <trkpt lat="43.17475" lon="6.49855">
        <ele>274.1</ele>
        <time>2024-02-04T13:05:36Z</time>
      </trkpt>
      <trkpt lat="43.17475" lon="6.49855">
        <ele>274</ele>
        <time>2024-02-04T13:05:37Z</time>
      </trkpt>
      <trkpt lat="43.17474" lon="6.49856">
        <ele>273.8</ele>
        <time>2024-02-04T13:05:38Z</time>
      </trkpt>
      <trkpt lat="43.17474" lon="6.49856">
        <ele>273.7</ele>
        <time>2024-02-04T13:05:39Z</time>
      </trkpt>
      <trkpt lat="43.17473" lon="6.49857">
        <ele>273.6</ele>
        <time>2024-02-04T13:05:40Z</time>
      </trkpt>
      <trkpt lat="43.17473" lon="6.49858">
        <ele>273.4</ele>
        <time>2024-02-04T13:05:41Z</time>
      </trkpt>
      <trkpt lat="43.17473" lon="6.49859">
        <ele>273.3</ele>
        <time>2024-02-04T13:05:42Z</time>
      </trkpt>
      <trkpt lat="43.17472" lon="6.49859">
        <ele>273.1</ele>
        <time>2024-02-04T13:05:43Z</time>
      </trkpt>
      <trkpt lat="43.17472" lon="6.4986">
        <ele>273</ele>
        <time>2024-02-04T13:05:44Z</time>
      </trkpt>
      <trkpt lat="43.17471" lon="6.4986">
        <ele>272.8</ele>
        <time>2024-02-04T13:05:45Z</time>
      </trkpt>
      <trkpt lat="43.1747" lon="6.49861">
        <ele>272.6</ele>
        <time>2024-02-04T13:05:46Z</time>
      </trkpt>
      <trkpt lat="43.1747" lon="6.49862">
        <ele>272.4</ele>
        <time>2024-02-04T13:05:47Z</time>
      </trkpt>
      <trkpt lat="43.17469" lon="6.49863">
        <ele>272.2</ele>
        <time>2024-02-04T13:05:48Z</time>
      </trkpt>
      <trkpt lat="43.17468" lon="6.49863">
        <ele>272.1</ele>
        <time>2024-02-04T13:05:49Z</time>
      </trkpt>
      <trkpt lat="43.17468" lon="6.49864">
        <ele>272</ele>
        <time>2024-02-04T13:05:50Z</time>
      </trkpt>
      <trkpt lat="43.17467" lon="6.49865">
        <ele>271.9</ele>
        <time>2024-02-04T13:05:51Z</time>
      </trkpt>
      <trkpt lat="43.17466" lon="6.49866">
        <ele>271.7</ele>
        <time>2024-02-04T13:05:52Z</time>
      </trkpt>
      <trkpt lat="43.17465" lon="6.49867">
        <ele>271.6</ele>
        <time>2024-02-04T13:05:53Z</time>
      </trkpt>
      <trkpt lat="43.17465" lon="6.49868">
        <ele>271.5</ele>
        <time>2024-02-04T13:05:54Z</time>
      </trkpt>
      <trkpt lat="43.17465" lon="6.49869">
        <ele>271.4</ele>
        <time>2024-02-04T13:05:55Z</time>
      </trkpt>
      <trkpt lat="43.17465" lon="6.49869">
        <ele>271.4</ele>
        <time>2024-02-04T13:05:56Z</time>
      </trkpt>
      <trkpt lat="43.17464" lon="6.4987">
        <ele>271.3</ele>
        <time>2024-02-04T13:05:57Z</time>
      </trkpt>
      <trkpt lat="43.17464" lon="6.49871">
        <ele>271</ele>
        <time>2024-02-04T13:05:58Z</time>
      </trkpt>
      <trkpt lat="43.17464" lon="6.49872">
        <ele>270.8</ele>
        <time>2024-02-04T13:05:59Z</time>
      </trkpt>
      <trkpt lat="43.17463" lon="6.49872">
        <ele>270.6</ele>
        <time>2024-02-04T13:06:00Z</time>
      </trkpt>
      <trkpt lat="43.17463" lon="6.49873">
        <ele>270.4</ele>
        <time>2024-02-04T13:06:01Z</time>
      </trkpt>
      <trkpt lat="43.17463" lon="6.49874">
        <ele>270.3</ele>
        <time>2024-02-04T13:06:02Z</time>
      </trkpt>
      <trkpt lat="43.17462" lon="6.49875">
        <ele>270.2</ele>
        <time>2024-02-04T13:06:03Z</time>
      </trkpt>
      <trkpt lat="43.17462" lon="6.49876">
        <ele>270.1</ele>
        <time>2024-02-04T13:06:04Z</time>
      </trkpt>
      <trkpt lat="43.17462" lon="6.49876">
        <ele>270.1</ele>
        <time>2024-02-04T13:06:05Z</time>
      </trkpt>
      <trkpt lat="43.17461" lon="6.49877">
        <ele>270</ele>
        <time>2024-02-04T13:06:06Z</time>
      </trkpt>
      <trkpt lat="43.17461" lon="6.49878">
        <ele>269.9</ele>
        <time>2024-02-04T13:06:07Z</time>
      </trkpt>
      <trkpt lat="43.1746" lon="6.49878">
        <ele>269.8</ele>
        <time>2024-02-04T13:06:08Z</time>
      </trkpt>
      <trkpt lat="43.1746" lon="6.49879">
        <ele>269.7</ele>
        <time>2024-02-04T13:06:09Z</time>
      </trkpt>
      <trkpt lat="43.1746" lon="6.4988">
        <ele>269.6</ele>
        <time>2024-02-04T13:06:10Z</time>
      </trkpt>
      <trkpt lat="43.1746" lon="6.4988">
        <ele>269.5</ele>
        <time>2024-02-04T13:06:11Z</time>
      </trkpt>
      <trkpt lat="43.1746" lon="6.49881">
        <ele>269.4</ele>
        <time>2024-02-04T13:06:12Z</time>
      </trkpt>
      <trkpt lat="43.17459" lon="6.49882">
        <ele>269.2</ele>
        <time>2024-02-04T13:06:13Z</time>
      </trkpt>
      <trkpt lat="43.17459" lon="6.49883">
        <ele>269.1</ele>
        <time>2024-02-04T13:06:14Z</time>
      </trkpt>
      <trkpt lat="43.17459" lon="6.49884">
        <ele>268.9</ele>
        <time>2024-02-04T13:06:15Z</time>
      </trkpt>
      <trkpt lat="43.17459" lon="6.49885">
        <ele>268.7</ele>
        <time>2024-02-04T13:06:16Z</time>
      </trkpt>
      <trkpt lat="43.17458" lon="6.49886">
        <ele>268.5</ele>
        <time>2024-02-04T13:06:17Z</time>
      </trkpt>
      <trkpt lat="43.17457" lon="6.49887">
        <ele>268.3</ele>
        <time>2024-02-04T13:06:18Z</time>
      </trkpt>
      <trkpt lat="43.17457" lon="6.49887">
        <ele>268</ele>
        <time>2024-02-04T13:06:19Z</time>
      </trkpt>
      <trkpt lat="43.17456" lon="6.49889">
        <ele>267.8</ele>
        <time>2024-02-04T13:06:20Z</time>
      </trkpt>
      <trkpt lat="43.17456" lon="6.4989">
        <ele>267.6</ele>
        <time>2024-02-04T13:06:21Z</time>
      </trkpt>
      <trkpt lat="43.17456" lon="6.49891">
        <ele>267.4</ele>
        <time>2024-02-04T13:06:22Z</time>
      </trkpt>
      <trkpt lat="43.17455" lon="6.49893">
        <ele>267.2</ele>
        <time>2024-02-04T13:06:23Z</time>
      </trkpt>
      <trkpt lat="43.17455" lon="6.49893">
        <ele>267.1</ele>
        <time>2024-02-04T13:06:24Z</time>
      </trkpt>
      <trkpt lat="43.17454" lon="6.49894">
        <ele>266.9</ele>
        <time>2024-02-04T13:06:25Z</time>
      </trkpt>
      <trkpt lat="43.17453" lon="6.49896">
        <ele>266.9</ele>
        <time>2024-02-04T13:06:26Z</time>
      </trkpt>
      <trkpt lat="43.17453" lon="6.49897">
        <ele>266.9</ele>
        <time>2024-02-04T13:06:27Z</time>
      </trkpt>
      <trkpt lat="43.17452" lon="6.49898">
        <ele>266.8</ele>
        <time>2024-02-04T13:06:28Z</time>
      </trkpt>
      <trkpt lat="43.17452" lon="6.49899">
        <ele>266.8</ele>
        <time>2024-02-04T13:06:29Z</time>
      </trkpt>
      <trkpt lat="43.17451" lon="6.499">
        <ele>266.6</ele>
        <time>2024-02-04T13:06:30Z</time>
      </trkpt>
      <trkpt lat="43.1745" lon="6.49901">
        <ele>266.4</ele>
        <time>2024-02-04T13:06:31Z</time>
      </trkpt>
      <trkpt lat="43.1745" lon="6.49902">
        <ele>266.3</ele>
        <time>2024-02-04T13:06:32Z</time>
      </trkpt>
      <trkpt lat="43.17449" lon="6.49903">
        <ele>266.1</ele>
        <time>2024-02-04T13:06:33Z</time>
      </trkpt>
      <trkpt lat="43.17448" lon="6.49903">
        <ele>265.9</ele>
        <time>2024-02-04T13:06:34Z</time>
      </trkpt>
      <trkpt lat="43.17447" lon="6.49905">
        <ele>265.7</ele>
        <time>2024-02-04T13:06:35Z</time>
      </trkpt>
      <trkpt lat="43.17447" lon="6.49906">
        <ele>265.6</ele>
        <time>2024-02-04T13:06:36Z</time>
      </trkpt>
      <trkpt lat="43.17446" lon="6.49907">
        <ele>265.5</ele>
        <time>2024-02-04T13:06:37Z</time>
      </trkpt>
      <trkpt lat="43.17445" lon="6.49908">
        <ele>265.3</ele>
        <time>2024-02-04T13:06:38Z</time>
      </trkpt>
      <trkpt lat="43.17444" lon="6.49909">
        <ele>265.1</ele>
        <time>2024-02-04T13:06:39Z</time>
      </trkpt>
      <trkpt lat="43.17444" lon="6.49909">
        <ele>264.9</ele>
        <time>2024-02-04T13:06:40Z</time>
      </trkpt>
      <trkpt lat="43.17443" lon="6.49911">
        <ele>264.8</ele>
        <time>2024-02-04T13:06:41Z</time>
      </trkpt>
      <trkpt lat="43.17443" lon="6.49912">
        <ele>264.6</ele>
        <time>2024-02-04T13:06:42Z</time>
      </trkpt>
      <trkpt lat="43.17442" lon="6.49913">
        <ele>264.5</ele>
        <time>2024-02-04T13:06:43Z</time>
      </trkpt>
      <trkpt lat="43.17442" lon="6.49913">
        <ele>264.3</ele>
        <time>2024-02-04T13:06:44Z</time>
      </trkpt>
      <trkpt lat="43.17442" lon="6.49914">
        <ele>264.2</ele>
        <time>2024-02-04T13:06:45Z</time>
      </trkpt>
      <trkpt lat="43.17441" lon="6.49915">
        <ele>264</ele>
        <time>2024-02-04T13:06:46Z</time>
      </trkpt>
      <trkpt lat="43.1744" lon="6.49916">
        <ele>263.8</ele>
        <time>2024-02-04T13:06:47Z</time>
      </trkpt>
      <trkpt lat="43.1744" lon="6.49917">
        <ele>263.6</ele>
        <time>2024-02-04T13:06:48Z</time>
      </trkpt>
      <trkpt lat="43.17439" lon="6.49918">
        <ele>263.5</ele>
        <time>2024-02-04T13:06:49Z</time>
      </trkpt>
      <trkpt lat="43.17439" lon="6.49919">
        <ele>263.3</ele>
        <time>2024-02-04T13:06:50Z</time>
      </trkpt>
      <trkpt lat="43.17438" lon="6.49919">
        <ele>263.1</ele>
        <time>2024-02-04T13:06:51Z</time>
      </trkpt>
      <trkpt lat="43.17438" lon="6.4992">
        <ele>263</ele>
        <time>2024-02-04T13:06:52Z</time>
      </trkpt>
      <trkpt lat="43.17437" lon="6.49921">
        <ele>262.8</ele>
        <time>2024-02-04T13:06:53Z</time>
      </trkpt>
      <trkpt lat="43.17436" lon="6.49921">
        <ele>262.7</ele>
        <time>2024-02-04T13:06:54Z</time>
      </trkpt>
      <trkpt lat="43.17436" lon="6.49922">
        <ele>262.5</ele>
        <time>2024-02-04T13:06:55Z</time>
      </trkpt>
      <trkpt lat="43.17436" lon="6.49923">
        <ele>262.5</ele>
        <time>2024-02-04T13:06:56Z</time>
      </trkpt>
      <trkpt lat="43.17435" lon="6.49923">
        <ele>262.3</ele>
        <time>2024-02-04T13:06:57Z</time>
      </trkpt>
      <trkpt lat="43.17435" lon="6.49923">
        <ele>262.2</ele>
        <time>2024-02-04T13:06:58Z</time>
      </trkpt>
      <trkpt lat="43.17434" lon="6.49924">
        <ele>262</ele>
        <time>2024-02-04T13:06:59Z</time>
      </trkpt>
      <trkpt lat="43.17434" lon="6.49925">
        <ele>261.8</ele>
        <time>2024-02-04T13:07:00Z</time>
      </trkpt>
      <trkpt lat="43.17433" lon="6.49925">
        <ele>261.7</ele>
        <time>2024-02-04T13:07:01Z</time>
      </trkpt>
      <trkpt lat="43.17432" lon="6.49925">
        <ele>261.5</ele>
        <time>2024-02-04T13:07:02Z</time>
      </trkpt>
      <trkpt lat="43.17432" lon="6.49926">
        <ele>261.4</ele>
        <time>2024-02-04T13:07:03Z</time>
      </trkpt>
      <trkpt lat="43.17431" lon="6.49927">
        <ele>261.3</ele>
        <time>2024-02-04T13:07:04Z</time>
      </trkpt>
      <trkpt lat="43.1743" lon="6.49928">
        <ele>261.2</ele>
        <time>2024-02-04T13:07:05Z</time>
      </trkpt>
      <trkpt lat="43.1743" lon="6.49929">
        <ele>261.1</ele>
        <time>2024-02-04T13:07:06Z</time>
      </trkpt>
      <trkpt lat="43.17429" lon="6.49929">
        <ele>261</ele>
        <time>2024-02-04T13:07:07Z</time>
      </trkpt>
      <trkpt lat="43.17429" lon="6.49929">
        <ele>260.9</ele>
        <time>2024-02-04T13:07:08Z</time>
      </trkpt>
      <trkpt lat="43.17429" lon="6.49929">
        <ele>260.7</ele>
        <time>2024-02-04T13:07:09Z</time>
      </trkpt>
      <trkpt lat="43.17429" lon="6.49929">
        <ele>260.6</ele>
        <time>2024-02-04T13:07:10Z</time>
      </trkpt>
      <trkpt lat="43.17429" lon="6.49929">
        <ele>260.5</ele>
        <time>2024-02-04T13:07:11Z</time>
      </trkpt>
      <trkpt lat="43.17429" lon="6.49929">
        <ele>260.4</ele>
        <time>2024-02-04T13:07:12Z</time>
      </trkpt>
      <trkpt lat="43.17429" lon="6.49929">
        <ele>260.4</ele>
        <time>2024-02-04T13:07:13Z</time>
      </trkpt>
      <trkpt lat="43.17429" lon="6.49929">
        <ele>260.3</ele>
        <time>2024-02-04T13:07:14Z</time>
      </trkpt>
      <trkpt lat="43.17428" lon="6.4993">
        <ele>260.4</ele>
        <time>2024-02-04T13:07:15Z</time>
      </trkpt>
      <trkpt lat="43.17427" lon="6.49931">
        <ele>260.4</ele>
        <time>2024-02-04T13:07:16Z</time>
      </trkpt>
      <trkpt lat="43.17427" lon="6.49931">
        <ele>260.2</ele>
        <time>2024-02-04T13:07:17Z</time>
      </trkpt>
      <trkpt lat="43.17426" lon="6.49932">
        <ele>260.1</ele>
        <time>2024-02-04T13:07:18Z</time>
      </trkpt>
      <trkpt lat="43.17426" lon="6.49933">
        <ele>260</ele>
        <time>2024-02-04T13:07:19Z</time>
      </trkpt>
      <trkpt lat="43.17425" lon="6.49933">
        <ele>259.8</ele>
        <time>2024-02-04T13:07:20Z</time>
      </trkpt>
      <trkpt lat="43.17424" lon="6.49934">
        <ele>259.7</ele>
        <time>2024-02-04T13:07:21Z</time>
      </trkpt>
      <trkpt lat="43.17424" lon="6.49935">
        <ele>259.6</ele>
        <time>2024-02-04T13:07:22Z</time>
      </trkpt>
      <trkpt lat="43.17423" lon="6.49935">
        <ele>259.6</ele>
        <time>2024-02-04T13:07:23Z</time>
      </trkpt>
      <trkpt lat="43.17423" lon="6.49935">
        <ele>259.5</ele>
        <time>2024-02-04T13:07:24Z</time>
      </trkpt>
      <trkpt lat="43.17422" lon="6.49936">
        <ele>259.5</ele>
        <time>2024-02-04T13:07:25Z</time>
      </trkpt>
      <trkpt lat="43.17421" lon="6.49936">
        <ele>259.4</ele>
        <time>2024-02-04T13:07:26Z</time>
      </trkpt>
      <trkpt lat="43.17421" lon="6.49937">
        <ele>259.3</ele>
        <time>2024-02-04T13:07:27Z</time>
      </trkpt>
      <trkpt lat="43.17421" lon="6.49937">
        <ele>259.2</ele>
        <time>2024-02-04T13:07:28Z</time>
      </trkpt>
      <trkpt lat="43.17421" lon="6.49937">
        <ele>259.1</ele>
        <time>2024-02-04T13:07:29Z</time>
      </trkpt>
      <trkpt lat="43.17421" lon="6.49937">
        <ele>259</ele>
        <time>2024-02-04T13:07:30Z</time>
      </trkpt>
      <trkpt lat="43.17421" lon="6.49937">
        <ele>258.9</ele>
        <time>2024-02-04T13:07:31Z</time>
      </trkpt>
      <trkpt lat="43.17421" lon="6.49937">
        <ele>258.9</ele>
        <time>2024-02-04T13:07:32Z</time>
      </trkpt>
      <trkpt lat="43.17421" lon="6.49937">
        <ele>258.9</ele>
        <time>2024-02-04T13:07:33Z</time>
      </trkpt>
      <trkpt lat="43.17422" lon="6.49937">
        <ele>258.8</ele>
        <time>2024-02-04T13:07:34Z</time>
      </trkpt>
      <trkpt lat="43.17422" lon="6.49937">
        <ele>258.8</ele>
        <time>2024-02-04T13:07:35Z</time>
      </trkpt>
      <trkpt lat="43.17422" lon="6.49937">
        <ele>258.7</ele>
        <time>2024-02-04T13:07:36Z</time>
      </trkpt>
      <trkpt lat="43.17422" lon="6.49937">
        <ele>258.7</ele>
        <time>2024-02-04T13:07:37Z</time>
      </trkpt>
      <trkpt lat="43.17422" lon="6.49937">
        <ele>258.6</ele>
        <time>2024-02-04T13:07:38Z</time>
      </trkpt>
      <trkpt lat="43.17421" lon="6.49938">
        <ele>258.6</ele>
        <time>2024-02-04T13:07:39Z</time>
      </trkpt>
      <trkpt lat="43.17421" lon="6.49938">
        <ele>258.6</ele>
        <time>2024-02-04T13:07:40Z</time>
      </trkpt>
      <trkpt lat="43.17421" lon="6.49939">
        <ele>258.6</ele>
        <time>2024-02-04T13:07:41Z</time>
      </trkpt>
      <trkpt lat="43.17421" lon="6.49939">
        <ele>258.5</ele>
        <time>2024-02-04T13:07:42Z</time>
      </trkpt>
      <trkpt lat="43.1742" lon="6.4994">
        <ele>258.5</ele>
        <time>2024-02-04T13:07:43Z</time>
      </trkpt>
      <trkpt lat="43.1742" lon="6.4994">
        <ele>258.3</ele>
        <time>2024-02-04T13:07:44Z</time>
      </trkpt>
      <trkpt lat="43.17419" lon="6.4994">
        <ele>258.2</ele>
        <time>2024-02-04T13:07:45Z</time>
      </trkpt>
      <trkpt lat="43.17419" lon="6.49941">
        <ele>258.1</ele>
        <time>2024-02-04T13:07:46Z</time>
      </trkpt>
      <trkpt lat="43.17419" lon="6.49941">
        <ele>258</ele>
        <time>2024-02-04T13:07:47Z</time>
      </trkpt>
      <trkpt lat="43.17419" lon="6.49942">
        <ele>257.9</ele>
        <time>2024-02-04T13:07:48Z</time>
      </trkpt>
      <trkpt lat="43.17419" lon="6.49943">
        <ele>257.7</ele>
        <time>2024-02-04T13:07:49Z</time>
      </trkpt>
      <trkpt lat="43.17418" lon="6.49943">
        <ele>257.5</ele>
        <time>2024-02-04T13:07:50Z</time>
      </trkpt>
      <trkpt lat="43.17418" lon="6.49944">
        <ele>257.3</ele>
        <time>2024-02-04T13:07:51Z</time>
      </trkpt>
      <trkpt lat="43.17417" lon="6.49945">
        <ele>257.2</ele>
        <time>2024-02-04T13:07:52Z</time>
      </trkpt>
      <trkpt lat="43.17417" lon="6.49945">
        <ele>257</ele>
        <time>2024-02-04T13:07:53Z</time>
      </trkpt>
      <trkpt lat="43.17416" lon="6.49945">
        <ele>256.8</ele>
        <time>2024-02-04T13:07:54Z</time>
      </trkpt>
      <trkpt lat="43.17416" lon="6.49946">
        <ele>256.6</ele>
        <time>2024-02-04T13:07:55Z</time>
      </trkpt>
      <trkpt lat="43.17416" lon="6.49947">
        <ele>256.5</ele>
        <time>2024-02-04T13:07:56Z</time>
      </trkpt>
      <trkpt lat="43.17415" lon="6.49947">
        <ele>256.4</ele>
        <time>2024-02-04T13:07:57Z</time>
      </trkpt>
      <trkpt lat="43.17415" lon="6.49948">
        <ele>256.2</ele>
        <time>2024-02-04T13:07:58Z</time>
      </trkpt>
      <trkpt lat="43.17414" lon="6.49948">
        <ele>256</ele>
        <time>2024-02-04T13:07:59Z</time>
      </trkpt>
      <trkpt lat="43.17414" lon="6.49948">
        <ele>255.9</ele>
        <time>2024-02-04T13:08:00Z</time>
      </trkpt>
      <trkpt lat="43.17413" lon="6.49948">
        <ele>255.7</ele>
        <time>2024-02-04T13:08:01Z</time>
      </trkpt>
      <trkpt lat="43.17412" lon="6.49948">
        <ele>255.6</ele>
        <time>2024-02-04T13:08:02Z</time>
      </trkpt>
      <trkpt lat="43.17411" lon="6.49948">
        <ele>255.5</ele>
        <time>2024-02-04T13:08:03Z</time>
      </trkpt>
      <trkpt lat="43.1741" lon="6.49948">
        <ele>255.4</ele>
        <time>2024-02-04T13:08:04Z</time>
      </trkpt>
      <trkpt lat="43.17409" lon="6.49949">
        <ele>255.2</ele>
        <time>2024-02-04T13:08:05Z</time>
      </trkpt>
      <trkpt lat="43.17409" lon="6.49949">
        <ele>255.1</ele>
        <time>2024-02-04T13:08:06Z</time>
      </trkpt>
      <trkpt lat="43.17408" lon="6.4995">
        <ele>255</ele>
        <time>2024-02-04T13:08:07Z</time>
      </trkpt>
      <trkpt lat="43.17407" lon="6.4995">
        <ele>254.7</ele>
        <time>2024-02-04T13:08:08Z</time>
      </trkpt>
      <trkpt lat="43.17406" lon="6.4995">
        <ele>254.6</ele>
        <time>2024-02-04T13:08:09Z</time>
      </trkpt>
      <trkpt lat="43.17406" lon="6.49951">
        <ele>254.4</ele>
        <time>2024-02-04T13:08:10Z</time>
      </trkpt>
      <trkpt lat="43.17405" lon="6.49951">
        <ele>254.2</ele>
        <time>2024-02-04T13:08:11Z</time>
      </trkpt>
      <trkpt lat="43.17405" lon="6.49951">
        <ele>254.1</ele>
        <time>2024-02-04T13:08:12Z</time>
      </trkpt>
      <trkpt lat="43.17405" lon="6.49951">
        <ele>254</ele>
        <time>2024-02-04T13:08:13Z</time>
      </trkpt>
      <trkpt lat="43.17405" lon="6.49951">
        <ele>253.9</ele>
        <time>2024-02-04T13:08:14Z</time>
      </trkpt>
      <trkpt lat="43.17404" lon="6.4995">
        <ele>253.8</ele>
        <time>2024-02-04T13:08:15Z</time>
      </trkpt>
      <trkpt lat="43.17404" lon="6.4995">
        <ele>253.7</ele>
        <time>2024-02-04T13:08:16Z</time>
      </trkpt>
      <trkpt lat="43.17403" lon="6.4995">
        <ele>253.7</ele>
        <time>2024-02-04T13:08:17Z</time>
      </trkpt>
      <trkpt lat="43.17402" lon="6.4995">
        <ele>253.6</ele>
        <time>2024-02-04T13:08:18Z</time>
      </trkpt>
      <trkpt lat="43.17401" lon="6.4995">
        <ele>253.4</ele>
        <time>2024-02-04T13:08:19Z</time>
      </trkpt>
      <trkpt lat="43.17401" lon="6.4995">
        <ele>253.3</ele>
        <time>2024-02-04T13:08:20Z</time>
      </trkpt>
      <trkpt lat="43.174" lon="6.49951">
        <ele>253.2</ele>
        <time>2024-02-04T13:08:21Z</time>
      </trkpt>
      <trkpt lat="43.17399" lon="6.49952">
        <ele>252.9</ele>
        <time>2024-02-04T13:08:22Z</time>
      </trkpt>
      <trkpt lat="43.17398" lon="6.49952">
        <ele>252.7</ele>
        <time>2024-02-04T13:08:23Z</time>
      </trkpt>
      <trkpt lat="43.17397" lon="6.49952">
        <ele>252.6</ele>
        <time>2024-02-04T13:08:24Z</time>
      </trkpt>
      <trkpt lat="43.17396" lon="6.49952">
        <ele>252.5</ele>
        <time>2024-02-04T13:08:25Z</time>
      </trkpt>
      <trkpt lat="43.17395" lon="6.49952">
        <ele>252.3</ele>
        <time>2024-02-04T13:08:26Z</time>
      </trkpt>
      <trkpt lat="43.17394" lon="6.49952">
        <ele>252.1</ele>
        <time>2024-02-04T13:08:27Z</time>
      </trkpt>
      <trkpt lat="43.17393" lon="6.49953">
        <ele>252</ele>
        <time>2024-02-04T13:08:28Z</time>
      </trkpt>
      <trkpt lat="43.17393" lon="6.49953">
        <ele>251.8</ele>
        <time>2024-02-04T13:08:29Z</time>
      </trkpt>
      <trkpt lat="43.17392" lon="6.49954">
        <ele>251.7</ele>
        <time>2024-02-04T13:08:30Z</time>
      </trkpt>
      <trkpt lat="43.17391" lon="6.49954">
        <ele>251.6</ele>
        <time>2024-02-04T13:08:31Z</time>
      </trkpt>
      <trkpt lat="43.1739" lon="6.49954">
        <ele>251.5</ele>
        <time>2024-02-04T13:08:32Z</time>
      </trkpt>
      <trkpt lat="43.17389" lon="6.49955">
        <ele>251.3</ele>
        <time>2024-02-04T13:08:33Z</time>
      </trkpt>
      <trkpt lat="43.17387" lon="6.49954">
        <ele>251.2</ele>
        <time>2024-02-04T13:08:34Z</time>
      </trkpt>
      <trkpt lat="43.17387" lon="6.49955">
        <ele>251.1</ele>
        <time>2024-02-04T13:08:35Z</time>
      </trkpt>
      <trkpt lat="43.17386" lon="6.49955">
        <ele>251</ele>
        <time>2024-02-04T13:08:36Z</time>
      </trkpt>
      <trkpt lat="43.17385" lon="6.49955">
        <ele>250.9</ele>
        <time>2024-02-04T13:08:37Z</time>
      </trkpt>
      <trkpt lat="43.17384" lon="6.49955">
        <ele>250.7</ele>
        <time>2024-02-04T13:08:38Z</time>
      </trkpt>
      <trkpt lat="43.17384" lon="6.49955">
        <ele>250.4</ele>
        <time>2024-02-04T13:08:39Z</time>
      </trkpt>
      <trkpt lat="43.17383" lon="6.49956">
        <ele>250.1</ele>
        <time>2024-02-04T13:08:40Z</time>
      </trkpt>
      <trkpt lat="43.17382" lon="6.49956">
        <ele>249.9</ele>
        <time>2024-02-04T13:08:41Z</time>
      </trkpt>
      <trkpt lat="43.17381" lon="6.49956">
        <ele>249.7</ele>
        <time>2024-02-04T13:08:42Z</time>
      </trkpt>
      <trkpt lat="43.1738" lon="6.49956">
        <ele>249.5</ele>
        <time>2024-02-04T13:08:43Z</time>
      </trkpt>
      <trkpt lat="43.17379" lon="6.49956">
        <ele>249.4</ele>
        <time>2024-02-04T13:08:44Z</time>
      </trkpt>
      <trkpt lat="43.17378" lon="6.49956">
        <ele>249.2</ele>
        <time>2024-02-04T13:08:45Z</time>
      </trkpt>
      <trkpt lat="43.17377" lon="6.49955">
        <ele>249</ele>
        <time>2024-02-04T13:08:46Z</time>
      </trkpt>
      <trkpt lat="43.17377" lon="6.49955">
        <ele>248.8</ele>
        <time>2024-02-04T13:08:47Z</time>
      </trkpt>
      <trkpt lat="43.17376" lon="6.49956">
        <ele>248.5</ele>
        <time>2024-02-04T13:08:48Z</time>
      </trkpt>
      <trkpt lat="43.17375" lon="6.49956">
        <ele>248.3</ele>
        <time>2024-02-04T13:08:49Z</time>
      </trkpt>
      <trkpt lat="43.17374" lon="6.49956">
        <ele>248.1</ele>
        <time>2024-02-04T13:08:50Z</time>
      </trkpt>
      <trkpt lat="43.17373" lon="6.49956">
        <ele>248</ele>
        <time>2024-02-04T13:08:51Z</time>
      </trkpt>
      <trkpt lat="43.17372" lon="6.49957">
        <ele>247.8</ele>
        <time>2024-02-04T13:08:52Z</time>
      </trkpt>
      <trkpt lat="43.17372" lon="6.49957">
        <ele>247.7</ele>
        <time>2024-02-04T13:08:53Z</time>
      </trkpt>
      <trkpt lat="43.17371" lon="6.49957">
        <ele>247.5</ele>
        <time>2024-02-04T13:08:54Z</time>
      </trkpt>
      <trkpt lat="43.17371" lon="6.49957">
        <ele>247.3</ele>
        <time>2024-02-04T13:08:55Z</time>
      </trkpt>
      <trkpt lat="43.1737" lon="6.49958">
        <ele>247.1</ele>
        <time>2024-02-04T13:08:56Z</time>
      </trkpt>
      <trkpt lat="43.17369" lon="6.49958">
        <ele>247</ele>
        <time>2024-02-04T13:08:57Z</time>
      </trkpt>
      <trkpt lat="43.17368" lon="6.49959">
        <ele>246.8</ele>
        <time>2024-02-04T13:08:58Z</time>
      </trkpt>
      <trkpt lat="43.17367" lon="6.49959">
        <ele>246.6</ele>
        <time>2024-02-04T13:08:59Z</time>
      </trkpt>
      <trkpt lat="43.17366" lon="6.4996">
        <ele>246.4</ele>
        <time>2024-02-04T13:09:00Z</time>
      </trkpt>
      <trkpt lat="43.17365" lon="6.4996">
        <ele>246.3</ele>
        <time>2024-02-04T13:09:01Z</time>
      </trkpt>
      <trkpt lat="43.17364" lon="6.49961">
        <ele>246.2</ele>
        <time>2024-02-04T13:09:02Z</time>
      </trkpt>
      <trkpt lat="43.17363" lon="6.49962">
        <ele>246</ele>
        <time>2024-02-04T13:09:03Z</time>
      </trkpt>
      <trkpt lat="43.17363" lon="6.49963">
        <ele>245.8</ele>
        <time>2024-02-04T13:09:04Z</time>
      </trkpt>
      <trkpt lat="43.17362" lon="6.49964">
        <ele>245.6</ele>
        <time>2024-02-04T13:09:05Z</time>
      </trkpt>
      <trkpt lat="43.17361" lon="6.49965">
        <ele>245.5</ele>
        <time>2024-02-04T13:09:06Z</time>
      </trkpt>
      <trkpt lat="43.1736" lon="6.49966">
        <ele>245.3</ele>
        <time>2024-02-04T13:09:07Z</time>
      </trkpt>
      <trkpt lat="43.17359" lon="6.49967">
        <ele>245.3</ele>
        <time>2024-02-04T13:09:08Z</time>
      </trkpt>
      <trkpt lat="43.17359" lon="6.49968">
        <ele>245.2</ele>
        <time>2024-02-04T13:09:09Z</time>
      </trkpt>
      <trkpt lat="43.17358" lon="6.49969">
        <ele>245.2</ele>
        <time>2024-02-04T13:09:10Z</time>
      </trkpt>
      <trkpt lat="43.17357" lon="6.4997">
        <ele>245.2</ele>
        <time>2024-02-04T13:09:11Z</time>
      </trkpt>
      <trkpt lat="43.17356" lon="6.49971">
        <ele>245.1</ele>
        <time>2024-02-04T13:09:12Z</time>
      </trkpt>
      <trkpt lat="43.17355" lon="6.49972">
        <ele>245.2</ele>
        <time>2024-02-04T13:09:13Z</time>
      </trkpt>
      <trkpt lat="43.17354" lon="6.49973">
        <ele>245.2</ele>
        <time>2024-02-04T13:09:14Z</time>
      </trkpt>
      <trkpt lat="43.17353" lon="6.49974">
        <ele>245.1</ele>
        <time>2024-02-04T13:09:15Z</time>
      </trkpt>
      <trkpt lat="43.17352" lon="6.49974">
        <ele>245.1</ele>
        <time>2024-02-04T13:09:16Z</time>
      </trkpt>
      <trkpt lat="43.17351" lon="6.49975">
        <ele>245</ele>
        <time>2024-02-04T13:09:17Z</time>
      </trkpt>
      <trkpt lat="43.1735" lon="6.49976">
        <ele>244.9</ele>
        <time>2024-02-04T13:09:18Z</time>
      </trkpt>
      <trkpt lat="43.17349" lon="6.49977">
        <ele>244.8</ele>
        <time>2024-02-04T13:09:19Z</time>
      </trkpt>
      <trkpt lat="43.17348" lon="6.49978">
        <ele>244.8</ele>
        <time>2024-02-04T13:09:20Z</time>
      </trkpt>
      <trkpt lat="43.17347" lon="6.49979">
        <ele>244.6</ele>
        <time>2024-02-04T13:09:21Z</time>
      </trkpt>
      <trkpt lat="43.17347" lon="6.4998">
        <ele>244.5</ele>
        <time>2024-02-04T13:09:22Z</time>
      </trkpt>
      <trkpt lat="43.17346" lon="6.49981">
        <ele>244.4</ele>
        <time>2024-02-04T13:09:23Z</time>
      </trkpt>
      <trkpt lat="43.17345" lon="6.49982">
        <ele>244.4</ele>
        <time>2024-02-04T13:09:24Z</time>
      </trkpt>
      <trkpt lat="43.17345" lon="6.49983">
        <ele>244.3</ele>
        <time>2024-02-04T13:09:25Z</time>
      </trkpt>
      <trkpt lat="43.17344" lon="6.49984">
        <ele>244.2</ele>
        <time>2024-02-04T13:09:26Z</time>
      </trkpt>
      <trkpt lat="43.17343" lon="6.49986">
        <ele>244.1</ele>
        <time>2024-02-04T13:09:27Z</time>
      </trkpt>
      <trkpt lat="43.17343" lon="6.49987">
        <ele>244</ele>
        <time>2024-02-04T13:09:28Z</time>
      </trkpt>
      <trkpt lat="43.17342" lon="6.49988">
        <ele>243.9</ele>
        <time>2024-02-04T13:09:29Z</time>
      </trkpt>
      <trkpt lat="43.17341" lon="6.49989">
        <ele>243.8</ele>
        <time>2024-02-04T13:09:30Z</time>
      </trkpt>
      <trkpt lat="43.1734" lon="6.49991">
        <ele>243.7</ele>
        <time>2024-02-04T13:09:31Z</time>
      </trkpt>
      <trkpt lat="43.1734" lon="6.49992">
        <ele>243.6</ele>
        <time>2024-02-04T13:09:32Z</time>
      </trkpt>
      <trkpt lat="43.17339" lon="6.49993">
        <ele>243.4</ele>
        <time>2024-02-04T13:09:33Z</time>
      </trkpt>
      <trkpt lat="43.17338" lon="6.49994">
        <ele>243.2</ele>
        <time>2024-02-04T13:09:34Z</time>
      </trkpt>
      <trkpt lat="43.17337" lon="6.49995">
        <ele>243</ele>
        <time>2024-02-04T13:09:35Z</time>
      </trkpt>
      <trkpt lat="43.17337" lon="6.49996">
        <ele>242.9</ele>
        <time>2024-02-04T13:09:36Z</time>
      </trkpt>
      <trkpt lat="43.17336" lon="6.49997">
        <ele>242.8</ele>
        <time>2024-02-04T13:09:37Z</time>
      </trkpt>
      <trkpt lat="43.17335" lon="6.49998">
        <ele>242.8</ele>
        <time>2024-02-04T13:09:38Z</time>
      </trkpt>
      <trkpt lat="43.17335" lon="6.49999">
        <ele>242.7</ele>
        <time>2024-02-04T13:09:39Z</time>
      </trkpt>
      <trkpt lat="43.17334" lon="6.50001">
        <ele>242.6</ele>
        <time>2024-02-04T13:09:40Z</time>
      </trkpt>
      <trkpt lat="43.17333" lon="6.50002">
        <ele>242.5</ele>
        <time>2024-02-04T13:09:41Z</time>
      </trkpt>
      <trkpt lat="43.17333" lon="6.50003">
        <ele>242.4</ele>
        <time>2024-02-04T13:09:42Z</time>
      </trkpt>
      <trkpt lat="43.17332" lon="6.50004">
        <ele>242.3</ele>
        <time>2024-02-04T13:09:43Z</time>
      </trkpt>
      <trkpt lat="43.17331" lon="6.50005">
        <ele>242.2</ele>
        <time>2024-02-04T13:09:44Z</time>
      </trkpt>
      <trkpt lat="43.17331" lon="6.50006">
        <ele>242.1</ele>
        <time>2024-02-04T13:09:45Z</time>
      </trkpt>
      <trkpt lat="43.1733" lon="6.50007">
        <ele>242</ele>
        <time>2024-02-04T13:09:46Z</time>
      </trkpt>
      <trkpt lat="43.1733" lon="6.50008">
        <ele>241.8</ele>
        <time>2024-02-04T13:09:47Z</time>
      </trkpt>
      <trkpt lat="43.17329" lon="6.50009">
        <ele>241.7</ele>
        <time>2024-02-04T13:09:48Z</time>
      </trkpt>
      <trkpt lat="43.17328" lon="6.5001">
        <ele>241.6</ele>
        <time>2024-02-04T13:09:49Z</time>
      </trkpt>
      <trkpt lat="43.17329" lon="6.50011">
        <ele>241.6</ele>
        <time>2024-02-04T13:09:50Z</time>
      </trkpt>
      <trkpt lat="43.17329" lon="6.50011">
        <ele>241.5</ele>
        <time>2024-02-04T13:09:51Z</time>
      </trkpt>
      <trkpt lat="43.17329" lon="6.50012">
        <ele>241.5</ele>
        <time>2024-02-04T13:09:52Z</time>
      </trkpt>
      <trkpt lat="43.17328" lon="6.50013">
        <ele>241.5</ele>
        <time>2024-02-04T13:09:53Z</time>
      </trkpt>
      <trkpt lat="43.17328" lon="6.50014">
        <ele>241.4</ele>
        <time>2024-02-04T13:09:54Z</time>
      </trkpt>
      <trkpt lat="43.17327" lon="6.50015">
        <ele>241.2</ele>
        <time>2024-02-04T13:09:55Z</time>
      </trkpt>
      <trkpt lat="43.17326" lon="6.50016">
        <ele>241.1</ele>
        <time>2024-02-04T13:09:56Z</time>
      </trkpt>
      <trkpt lat="43.17326" lon="6.50017">
        <ele>240.9</ele>
        <time>2024-02-04T13:09:57Z</time>
      </trkpt>
      <trkpt lat="43.17325" lon="6.50018">
        <ele>240.8</ele>
        <time>2024-02-04T13:09:58Z</time>
      </trkpt>
      <trkpt lat="43.17325" lon="6.50019">
        <ele>240.7</ele>
        <time>2024-02-04T13:09:59Z</time>
      </trkpt>
      <trkpt lat="43.17325" lon="6.5002">
        <ele>240.6</ele>
        <time>2024-02-04T13:10:00Z</time>
      </trkpt>
      <trkpt lat="43.17324" lon="6.50021">
        <ele>240.5</ele>
        <time>2024-02-04T13:10:01Z</time>
      </trkpt>
      <trkpt lat="43.17324" lon="6.50023">
        <ele>240.4</ele>
        <time>2024-02-04T13:10:02Z</time>
      </trkpt>
      <trkpt lat="43.17324" lon="6.50025">
        <ele>240.3</ele>
        <time>2024-02-04T13:10:03Z</time>
      </trkpt>
      <trkpt lat="43.17324" lon="6.50026">
        <ele>240.1</ele>
        <time>2024-02-04T13:10:04Z</time>
      </trkpt>
      <trkpt lat="43.17323" lon="6.50027">
        <ele>239.9</ele>
        <time>2024-02-04T13:10:05Z</time>
      </trkpt>
      <trkpt lat="43.17322" lon="6.50028">
        <ele>239.8</ele>
        <time>2024-02-04T13:10:06Z</time>
      </trkpt>
      <trkpt lat="43.17321" lon="6.50029">
        <ele>239.6</ele>
        <time>2024-02-04T13:10:07Z</time>
      </trkpt>
      <trkpt lat="43.1732" lon="6.5003">
        <ele>239.6</ele>
        <time>2024-02-04T13:10:08Z</time>
      </trkpt>
      <trkpt lat="43.17319" lon="6.50032">
        <ele>239.3</ele>
        <time>2024-02-04T13:10:09Z</time>
      </trkpt>
      <trkpt lat="43.17319" lon="6.50033">
        <ele>239.1</ele>
        <time>2024-02-04T13:10:10Z</time>
      </trkpt>
      <trkpt lat="43.17318" lon="6.50034">
        <ele>238.9</ele>
        <time>2024-02-04T13:10:11Z</time>
      </trkpt>
      <trkpt lat="43.17317" lon="6.50035">
        <ele>238.8</ele>
        <time>2024-02-04T13:10:12Z</time>
      </trkpt>
      <trkpt lat="43.17317" lon="6.50037">
        <ele>238.6</ele>
        <time>2024-02-04T13:10:13Z</time>
      </trkpt>
      <trkpt lat="43.17316" lon="6.50038">
        <ele>238.5</ele>
        <time>2024-02-04T13:10:14Z</time>
      </trkpt>
      <trkpt lat="43.17316" lon="6.50039">
        <ele>238.4</ele>
        <time>2024-02-04T13:10:15Z</time>
      </trkpt>
      <trkpt lat="43.17315" lon="6.5004">
        <ele>238.4</ele>
        <time>2024-02-04T13:10:16Z</time>
      </trkpt>
      <trkpt lat="43.17315" lon="6.50041">
        <ele>238.3</ele>
        <time>2024-02-04T13:10:17Z</time>
      </trkpt>
      <trkpt lat="43.17314" lon="6.50042">
        <ele>238.2</ele>
        <time>2024-02-04T13:10:18Z</time>
      </trkpt>
      <trkpt lat="43.17314" lon="6.50043">
        <ele>238.1</ele>
        <time>2024-02-04T13:10:19Z</time>
      </trkpt>
      <trkpt lat="43.17314" lon="6.50044">
        <ele>238</ele>
        <time>2024-02-04T13:10:20Z</time>
      </trkpt>
      <trkpt lat="43.17313" lon="6.50045">
        <ele>238</ele>
        <time>2024-02-04T13:10:21Z</time>
      </trkpt>
      <trkpt lat="43.17313" lon="6.50045">
        <ele>237.8</ele>
        <time>2024-02-04T13:10:22Z</time>
      </trkpt>
      <trkpt lat="43.17312" lon="6.50046">
        <ele>237.7</ele>
        <time>2024-02-04T13:10:23Z</time>
      </trkpt>
      <trkpt lat="43.17312" lon="6.50048">
        <ele>237.5</ele>
        <time>2024-02-04T13:10:24Z</time>
      </trkpt>
      <trkpt lat="43.17311" lon="6.50048">
        <ele>237.3</ele>
        <time>2024-02-04T13:10:25Z</time>
      </trkpt>
      <trkpt lat="43.17311" lon="6.50049">
        <ele>237.1</ele>
        <time>2024-02-04T13:10:26Z</time>
      </trkpt>
      <trkpt lat="43.1731" lon="6.5005">
        <ele>237</ele>
        <time>2024-02-04T13:10:27Z</time>
      </trkpt>
      <trkpt lat="43.17309" lon="6.5005">
        <ele>236.8</ele>
        <time>2024-02-04T13:10:28Z</time>
      </trkpt>
      <trkpt lat="43.17309" lon="6.50051">
        <ele>236.7</ele>
        <time>2024-02-04T13:10:29Z</time>
      </trkpt>
      <trkpt lat="43.17309" lon="6.50051">
        <ele>236.6</ele>
        <time>2024-02-04T13:10:30Z</time>
      </trkpt>
      <trkpt lat="43.17308" lon="6.50052">
        <ele>236.4</ele>
        <time>2024-02-04T13:10:31Z</time>
      </trkpt>
      <trkpt lat="43.17308" lon="6.50053">
        <ele>236.3</ele>
        <time>2024-02-04T13:10:32Z</time>
      </trkpt>
      <trkpt lat="43.17307" lon="6.50053">
        <ele>236.2</ele>
        <time>2024-02-04T13:10:33Z</time>
      </trkpt>
      <trkpt lat="43.17307" lon="6.50054">
        <ele>235.9</ele>
        <time>2024-02-04T13:10:34Z</time>
      </trkpt>
      <trkpt lat="43.17306" lon="6.50055">
        <ele>235.6</ele>
        <time>2024-02-04T13:10:35Z</time>
      </trkpt>
      <trkpt lat="43.17306" lon="6.50056">
        <ele>235.4</ele>
        <time>2024-02-04T13:10:36Z</time>
      </trkpt>
      <trkpt lat="43.17305" lon="6.50057">
        <ele>235.3</ele>
        <time>2024-02-04T13:10:37Z</time>
      </trkpt>
      <trkpt lat="43.17305" lon="6.50058">
        <ele>235.1</ele>
        <time>2024-02-04T13:10:38Z</time>
      </trkpt>
      <trkpt lat="43.17304" lon="6.50059">
        <ele>234.9</ele>
        <time>2024-02-04T13:10:39Z</time>
      </trkpt>
      <trkpt lat="43.17304" lon="6.50059">
        <ele>234.7</ele>
        <time>2024-02-04T13:10:40Z</time>
      </trkpt>
      <trkpt lat="43.17303" lon="6.5006">
        <ele>234.6</ele>
        <time>2024-02-04T13:10:41Z</time>
      </trkpt>
      <trkpt lat="43.17302" lon="6.50061">
        <ele>234.4</ele>
        <time>2024-02-04T13:10:42Z</time>
      </trkpt>
      <trkpt lat="43.17302" lon="6.50062">
        <ele>234.2</ele>
        <time>2024-02-04T13:10:43Z</time>
      </trkpt>
      <trkpt lat="43.17302" lon="6.50063">
        <ele>234</ele>
        <time>2024-02-04T13:10:44Z</time>
      </trkpt>
      <trkpt lat="43.17301" lon="6.50064">
        <ele>233.9</ele>
        <time>2024-02-04T13:10:45Z</time>
      </trkpt>
      <trkpt lat="43.17301" lon="6.50065">
        <ele>233.8</ele>
        <time>2024-02-04T13:10:46Z</time>
      </trkpt>
      <trkpt lat="43.173" lon="6.50066">
        <ele>233.7</ele>
        <time>2024-02-04T13:10:47Z</time>
      </trkpt>
      <trkpt lat="43.17299" lon="6.50067">
        <ele>233.5</ele>
        <time>2024-02-04T13:10:48Z</time>
      </trkpt>
      <trkpt lat="43.17299" lon="6.50068">
        <ele>233.4</ele>
        <time>2024-02-04T13:10:49Z</time>
      </trkpt>
      <trkpt lat="43.17298" lon="6.50069">
        <ele>233.2</ele>
        <time>2024-02-04T13:10:50Z</time>
      </trkpt>
      <trkpt lat="43.17298" lon="6.5007">
        <ele>233.1</ele>
        <time>2024-02-04T13:10:51Z</time>
      </trkpt>
      <trkpt lat="43.17297" lon="6.50071">
        <ele>232.9</ele>
        <time>2024-02-04T13:10:52Z</time>
      </trkpt>
      <trkpt lat="43.17297" lon="6.50072">
        <ele>232.8</ele>
        <time>2024-02-04T13:10:53Z</time>
      </trkpt>
      <trkpt lat="43.17296" lon="6.50072">
        <ele>232.6</ele>
        <time>2024-02-04T13:10:54Z</time>
      </trkpt>
      <trkpt lat="43.17296" lon="6.50073">
        <ele>232.4</ele>
        <time>2024-02-04T13:10:55Z</time>
      </trkpt>
      <trkpt lat="43.17295" lon="6.50072">
        <ele>232.3</ele>
        <time>2024-02-04T13:10:56Z</time>
      </trkpt>
      <trkpt lat="43.17295" lon="6.50073">
        <ele>232</ele>
        <time>2024-02-04T13:10:57Z</time>
      </trkpt>
      <trkpt lat="43.17294" lon="6.50074">
        <ele>231.8</ele>
        <time>2024-02-04T13:10:58Z</time>
      </trkpt>
      <trkpt lat="43.17294" lon="6.50074">
        <ele>231.6</ele>
        <time>2024-02-04T13:10:59Z</time>
      </trkpt>
      <trkpt lat="43.17293" lon="6.50075">
        <ele>231.5</ele>
        <time>2024-02-04T13:11:00Z</time>
      </trkpt>
      <trkpt lat="43.17292" lon="6.50075">
        <ele>231.2</ele>
        <time>2024-02-04T13:11:01Z</time>
      </trkpt>
      <trkpt lat="43.17291" lon="6.50076">
        <ele>231.1</ele>
        <time>2024-02-04T13:11:02Z</time>
      </trkpt>
      <trkpt lat="43.1729" lon="6.50077">
        <ele>231</ele>
        <time>2024-02-04T13:11:03Z</time>
      </trkpt>
      <trkpt lat="43.1729" lon="6.50077">
        <ele>230.9</ele>
        <time>2024-02-04T13:11:04Z</time>
      </trkpt>
      <trkpt lat="43.17289" lon="6.50078">
        <ele>230.8</ele>
        <time>2024-02-04T13:11:05Z</time>
      </trkpt>
      <trkpt lat="43.17288" lon="6.50078">
        <ele>230.7</ele>
        <time>2024-02-04T13:11:06Z</time>
      </trkpt>
      <trkpt lat="43.17287" lon="6.50079">
        <ele>230.6</ele>
        <time>2024-02-04T13:11:07Z</time>
      </trkpt>
      <trkpt lat="43.17287" lon="6.5008">
        <ele>230.4</ele>
        <time>2024-02-04T13:11:08Z</time>
      </trkpt>
      <trkpt lat="43.17286" lon="6.50081">
        <ele>230.2</ele>
        <time>2024-02-04T13:11:09Z</time>
      </trkpt>
      <trkpt lat="43.17285" lon="6.50082">
        <ele>230.1</ele>
        <time>2024-02-04T13:11:10Z</time>
      </trkpt>
      <trkpt lat="43.17285" lon="6.50082">
        <ele>230</ele>
        <time>2024-02-04T13:11:11Z</time>
      </trkpt>
      <trkpt lat="43.17285" lon="6.50083">
        <ele>229.9</ele>
        <time>2024-02-04T13:11:12Z</time>
      </trkpt>
      <trkpt lat="43.17284" lon="6.50083">
        <ele>229.7</ele>
        <time>2024-02-04T13:11:13Z</time>
      </trkpt>
      <trkpt lat="43.17283" lon="6.50083">
        <ele>229.6</ele>
        <time>2024-02-04T13:11:14Z</time>
      </trkpt>
      <trkpt lat="43.17282" lon="6.50084">
        <ele>229.5</ele>
        <time>2024-02-04T13:11:15Z</time>
      </trkpt>
      <trkpt lat="43.17281" lon="6.50085">
        <ele>229.3</ele>
        <time>2024-02-04T13:11:16Z</time>
      </trkpt>
      <trkpt lat="43.17281" lon="6.50086">
        <ele>229.2</ele>
        <time>2024-02-04T13:11:17Z</time>
      </trkpt>
      <trkpt lat="43.1728" lon="6.50086">
        <ele>228.9</ele>
        <time>2024-02-04T13:11:18Z</time>
      </trkpt>
      <trkpt lat="43.17279" lon="6.50087">
        <ele>228.6</ele>
        <time>2024-02-04T13:11:19Z</time>
      </trkpt>
      <trkpt lat="43.17278" lon="6.50088">
        <ele>228.4</ele>
        <time>2024-02-04T13:11:20Z</time>
      </trkpt>
      <trkpt lat="43.17278" lon="6.50089">
        <ele>228.2</ele>
        <time>2024-02-04T13:11:21Z</time>
      </trkpt>
      <trkpt lat="43.17277" lon="6.5009">
        <ele>228.1</ele>
        <time>2024-02-04T13:11:22Z</time>
      </trkpt>
      <trkpt lat="43.17277" lon="6.50091">
        <ele>227.9</ele>
        <time>2024-02-04T13:11:23Z</time>
      </trkpt>
      <trkpt lat="43.17276" lon="6.50091">
        <ele>227.7</ele>
        <time>2024-02-04T13:11:24Z</time>
      </trkpt>
      <trkpt lat="43.17275" lon="6.50092">
        <ele>227.6</ele>
        <time>2024-02-04T13:11:25Z</time>
      </trkpt>
      <trkpt lat="43.17275" lon="6.50093">
        <ele>227.4</ele>
        <time>2024-02-04T13:11:26Z</time>
      </trkpt>
      <trkpt lat="43.17274" lon="6.50095">
        <ele>227.2</ele>
        <time>2024-02-04T13:11:27Z</time>
      </trkpt>
      <trkpt lat="43.17274" lon="6.50095">
        <ele>227.1</ele>
        <time>2024-02-04T13:11:28Z</time>
      </trkpt>
      <trkpt lat="43.17274" lon="6.50096">
        <ele>227</ele>
        <time>2024-02-04T13:11:29Z</time>
      </trkpt>
      <trkpt lat="43.17273" lon="6.50097">
        <ele>226.9</ele>
        <time>2024-02-04T13:11:30Z</time>
      </trkpt>
      <trkpt lat="43.17272" lon="6.50097">
        <ele>226.7</ele>
        <time>2024-02-04T13:11:31Z</time>
      </trkpt>
      <trkpt lat="43.17272" lon="6.50098">
        <ele>226.4</ele>
        <time>2024-02-04T13:11:32Z</time>
      </trkpt>
      <trkpt lat="43.17271" lon="6.50099">
        <ele>226.2</ele>
        <time>2024-02-04T13:11:33Z</time>
      </trkpt>
      <trkpt lat="43.1727" lon="6.501">
        <ele>226.1</ele>
        <time>2024-02-04T13:11:34Z</time>
      </trkpt>
      <trkpt lat="43.1727" lon="6.50101">
        <ele>225.9</ele>
        <time>2024-02-04T13:11:35Z</time>
      </trkpt>
      <trkpt lat="43.17269" lon="6.50102">
        <ele>225.7</ele>
        <time>2024-02-04T13:11:36Z</time>
      </trkpt>
      <trkpt lat="43.17268" lon="6.50102">
        <ele>225.4</ele>
        <time>2024-02-04T13:11:37Z</time>
      </trkpt>
      <trkpt lat="43.17267" lon="6.50103">
        <ele>225.1</ele>
        <time>2024-02-04T13:11:38Z</time>
      </trkpt>
      <trkpt lat="43.17266" lon="6.50104">
        <ele>224.9</ele>
        <time>2024-02-04T13:11:39Z</time>
      </trkpt>
      <trkpt lat="43.17265" lon="6.50105">
        <ele>224.8</ele>
        <time>2024-02-04T13:11:40Z</time>
      </trkpt>
      <trkpt lat="43.17265" lon="6.50106">
        <ele>224.6</ele>
        <time>2024-02-04T13:11:41Z</time>
      </trkpt>
      <trkpt lat="43.17264" lon="6.50107">
        <ele>224.4</ele>
        <time>2024-02-04T13:11:42Z</time>
      </trkpt>
      <trkpt lat="43.17263" lon="6.50108">
        <ele>224.2</ele>
        <time>2024-02-04T13:11:43Z</time>
      </trkpt>
      <trkpt lat="43.17262" lon="6.50109">
        <ele>224.1</ele>
        <time>2024-02-04T13:11:44Z</time>
      </trkpt>
      <trkpt lat="43.17261" lon="6.5011">
        <ele>224</ele>
        <time>2024-02-04T13:11:45Z</time>
      </trkpt>
      <trkpt lat="43.17261" lon="6.50111">
        <ele>223.8</ele>
        <time>2024-02-04T13:11:46Z</time>
      </trkpt>
      <trkpt lat="43.1726" lon="6.50111">
        <ele>223.6</ele>
        <time>2024-02-04T13:11:47Z</time>
      </trkpt>
      <trkpt lat="43.17259" lon="6.50112">
        <ele>223.5</ele>
        <time>2024-02-04T13:11:48Z</time>
      </trkpt>
      <trkpt lat="43.17259" lon="6.50114">
        <ele>223.4</ele>
        <time>2024-02-04T13:11:49Z</time>
      </trkpt>
      <trkpt lat="43.17258" lon="6.50115">
        <ele>223.3</ele>
        <time>2024-02-04T13:11:50Z</time>
      </trkpt>
      <trkpt lat="43.17257" lon="6.50116">
        <ele>223.2</ele>
        <time>2024-02-04T13:11:51Z</time>
      </trkpt>
      <trkpt lat="43.17257" lon="6.50117">
        <ele>223.2</ele>
        <time>2024-02-04T13:11:52Z</time>
      </trkpt>
      <trkpt lat="43.17256" lon="6.50118">
        <ele>223.1</ele>
        <time>2024-02-04T13:11:53Z</time>
      </trkpt>
      <trkpt lat="43.17255" lon="6.50119">
        <ele>223</ele>
        <time>2024-02-04T13:11:54Z</time>
      </trkpt>
      <trkpt lat="43.17254" lon="6.5012">
        <ele>223</ele>
        <time>2024-02-04T13:11:55Z</time>
      </trkpt>
      <trkpt lat="43.17253" lon="6.50121">
        <ele>222.9</ele>
        <time>2024-02-04T13:11:56Z</time>
      </trkpt>
      <trkpt lat="43.17252" lon="6.50121">
        <ele>222.8</ele>
        <time>2024-02-04T13:11:57Z</time>
      </trkpt>
      <trkpt lat="43.17251" lon="6.50122">
        <ele>222.7</ele>
        <time>2024-02-04T13:11:58Z</time>
      </trkpt>
      <trkpt lat="43.1725" lon="6.50123">
        <ele>222.7</ele>
        <time>2024-02-04T13:11:59Z</time>
      </trkpt>
      <trkpt lat="43.17249" lon="6.50123">
        <ele>222.6</ele>
        <time>2024-02-04T13:12:00Z</time>
      </trkpt>
      <trkpt lat="43.17248" lon="6.50124">
        <ele>222.5</ele>
        <time>2024-02-04T13:12:01Z</time>
      </trkpt>
      <trkpt lat="43.17247" lon="6.50124">
        <ele>222.4</ele>
        <time>2024-02-04T13:12:02Z</time>
      </trkpt>
      <trkpt lat="43.17246" lon="6.50125">
        <ele>222.3</ele>
        <time>2024-02-04T13:12:03Z</time>
      </trkpt>
      <trkpt lat="43.17245" lon="6.50125">
        <ele>222.2</ele>
        <time>2024-02-04T13:12:04Z</time>
      </trkpt>
      <trkpt lat="43.17244" lon="6.50125">
        <ele>222.2</ele>
        <time>2024-02-04T13:12:05Z</time>
      </trkpt>
      <trkpt lat="43.17243" lon="6.50126">
        <ele>222.1</ele>
        <time>2024-02-04T13:12:06Z</time>
      </trkpt>
      <trkpt lat="43.17243" lon="6.50126">
        <ele>222.1</ele>
        <time>2024-02-04T13:12:07Z</time>
      </trkpt>
      <trkpt lat="43.17242" lon="6.50126">
        <ele>222</ele>
        <time>2024-02-04T13:12:08Z</time>
      </trkpt>
      <trkpt lat="43.17241" lon="6.50126">
        <ele>221.9</ele>
        <time>2024-02-04T13:12:09Z</time>
      </trkpt>
      <trkpt lat="43.1724" lon="6.50127">
        <ele>221.9</ele>
        <time>2024-02-04T13:12:10Z</time>
      </trkpt>
      <trkpt lat="43.17238" lon="6.50127">
        <ele>221.7</ele>
        <time>2024-02-04T13:12:11Z</time>
      </trkpt>
      <trkpt lat="43.17237" lon="6.50128">
        <ele>221.6</ele>
        <time>2024-02-04T13:12:12Z</time>
      </trkpt>
      <trkpt lat="43.17236" lon="6.50128">
        <ele>221.4</ele>
        <time>2024-02-04T13:12:13Z</time>
      </trkpt>
      <trkpt lat="43.17235" lon="6.50128">
        <ele>221.3</ele>
        <time>2024-02-04T13:12:14Z</time>
      </trkpt>
      <trkpt lat="43.17234" lon="6.50129">
        <ele>221.2</ele>
        <time>2024-02-04T13:12:15Z</time>
      </trkpt>
      <trkpt lat="43.17234" lon="6.5013">
        <ele>221.1</ele>
        <time>2024-02-04T13:12:16Z</time>
      </trkpt>
      <trkpt lat="43.17233" lon="6.50131">
        <ele>221</ele>
        <time>2024-02-04T13:12:17Z</time>
      </trkpt>
      <trkpt lat="43.17232" lon="6.50131">
        <ele>221</ele>
        <time>2024-02-04T13:12:18Z</time>
      </trkpt>
      <trkpt lat="43.17231" lon="6.50132">
        <ele>220.9</ele>
        <time>2024-02-04T13:12:19Z</time>
      </trkpt>
      <trkpt lat="43.1723" lon="6.50133">
        <ele>220.8</ele>
        <time>2024-02-04T13:12:20Z</time>
      </trkpt>
      <trkpt lat="43.17229" lon="6.50133">
        <ele>220.6</ele>
        <time>2024-02-04T13:12:21Z</time>
      </trkpt>
      <trkpt lat="43.17228" lon="6.50134">
        <ele>220.6</ele>
        <time>2024-02-04T13:12:22Z</time>
      </trkpt>
      <trkpt lat="43.17227" lon="6.50135">
        <ele>220.5</ele>
        <time>2024-02-04T13:12:23Z</time>
      </trkpt>
      <trkpt lat="43.17226" lon="6.50136">
        <ele>220.5</ele>
        <time>2024-02-04T13:12:24Z</time>
      </trkpt>
      <trkpt lat="43.17226" lon="6.50137">
        <ele>220.4</ele>
        <time>2024-02-04T13:12:25Z</time>
      </trkpt>
      <trkpt lat="43.17224" lon="6.50137">
        <ele>220.3</ele>
        <time>2024-02-04T13:12:26Z</time>
      </trkpt>
      <trkpt lat="43.17223" lon="6.50138">
        <ele>220.2</ele>
        <time>2024-02-04T13:12:27Z</time>
      </trkpt>
      <trkpt lat="43.17222" lon="6.50138">
        <ele>220.1</ele>
        <time>2024-02-04T13:12:28Z</time>
      </trkpt>
      <trkpt lat="43.17221" lon="6.50139">
        <ele>220</ele>
        <time>2024-02-04T13:12:29Z</time>
      </trkpt>
      <trkpt lat="43.1722" lon="6.5014">
        <ele>219.9</ele>
        <time>2024-02-04T13:12:30Z</time>
      </trkpt>
      <trkpt lat="43.17219" lon="6.50141">
        <ele>219.8</ele>
        <time>2024-02-04T13:12:31Z</time>
      </trkpt>
      <trkpt lat="43.17218" lon="6.50142">
        <ele>219.7</ele>
        <time>2024-02-04T13:12:32Z</time>
      </trkpt>
      <trkpt lat="43.17218" lon="6.50143">
        <ele>219.5</ele>
        <time>2024-02-04T13:12:33Z</time>
      </trkpt>
      <trkpt lat="43.17217" lon="6.50144">
        <ele>219.4</ele>
        <time>2024-02-04T13:12:34Z</time>
      </trkpt>
      <trkpt lat="43.17216" lon="6.50145">
        <ele>219.5</ele>
        <time>2024-02-04T13:12:35Z</time>
      </trkpt>
      <trkpt lat="43.17215" lon="6.50146">
        <ele>219.5</ele>
        <time>2024-02-04T13:12:36Z</time>
      </trkpt>
      <trkpt lat="43.17214" lon="6.50147">
        <ele>219.4</ele>
        <time>2024-02-04T13:12:37Z</time>
      </trkpt>
      <trkpt lat="43.17213" lon="6.50149">
        <ele>219.3</ele>
        <time>2024-02-04T13:12:38Z</time>
      </trkpt>
      <trkpt lat="43.17213" lon="6.5015">
        <ele>219.1</ele>
        <time>2024-02-04T13:12:39Z</time>
      </trkpt>
      <trkpt lat="43.17212" lon="6.50152">
        <ele>219.2</ele>
        <time>2024-02-04T13:12:40Z</time>
      </trkpt>
      <trkpt lat="43.17211" lon="6.50153">
        <ele>219.2</ele>
        <time>2024-02-04T13:12:41Z</time>
      </trkpt>
      <trkpt lat="43.17211" lon="6.50154">
        <ele>219.2</ele>
        <time>2024-02-04T13:12:42Z</time>
      </trkpt>
      <trkpt lat="43.1721" lon="6.50155">
        <ele>219.3</ele>
        <time>2024-02-04T13:12:43Z</time>
      </trkpt>
      <trkpt lat="43.1721" lon="6.50156">
        <ele>219.3</ele>
        <time>2024-02-04T13:12:44Z</time>
      </trkpt>
      <trkpt lat="43.17209" lon="6.50157">
        <ele>219.3</ele>
        <time>2024-02-04T13:12:45Z</time>
      </trkpt>
      <trkpt lat="43.17209" lon="6.50157">
        <ele>219.3</ele>
        <time>2024-02-04T13:12:46Z</time>
      </trkpt>
      <trkpt lat="43.17208" lon="6.50158">
        <ele>219.3</ele>
        <time>2024-02-04T13:12:47Z</time>
      </trkpt>
      <trkpt lat="43.17207" lon="6.50159">
        <ele>219.3</ele>
        <time>2024-02-04T13:12:48Z</time>
      </trkpt>
      <trkpt lat="43.17207" lon="6.50161">
        <ele>219.3</ele>
        <time>2024-02-04T13:12:49Z</time>
      </trkpt>
      <trkpt lat="43.17206" lon="6.50162">
        <ele>219.3</ele>
        <time>2024-02-04T13:12:50Z</time>
      </trkpt>
      <trkpt lat="43.17206" lon="6.50163">
        <ele>219.3</ele>
        <time>2024-02-04T13:12:51Z</time>
      </trkpt>
      <trkpt lat="43.17206" lon="6.50162">
        <ele>219.3</ele>
        <time>2024-02-04T13:12:52Z</time>
      </trkpt>
      <trkpt lat="43.17205" lon="6.50163">
        <ele>219.2</ele>
        <time>2024-02-04T13:12:53Z</time>
      </trkpt>
      <trkpt lat="43.17204" lon="6.50164">
        <ele>219.3</ele>
        <time>2024-02-04T13:12:54Z</time>
      </trkpt>
      <trkpt lat="43.17204" lon="6.50166">
        <ele>219.3</ele>
        <time>2024-02-04T13:12:55Z</time>
      </trkpt>
      <trkpt lat="43.17203" lon="6.50167">
        <ele>219.2</ele>
        <time>2024-02-04T13:12:56Z</time>
      </trkpt>
      <trkpt lat="43.17203" lon="6.50168">
        <ele>219.2</ele>
        <time>2024-02-04T13:12:57Z</time>
      </trkpt>
      <trkpt lat="43.17202" lon="6.5017">
        <ele>219.1</ele>
        <time>2024-02-04T13:12:58Z</time>
      </trkpt>
      <trkpt lat="43.17202" lon="6.50171">
        <ele>219</ele>
        <time>2024-02-04T13:12:59Z</time>
      </trkpt>
      <trkpt lat="43.17202" lon="6.50172">
        <ele>219</ele>
        <time>2024-02-04T13:13:00Z</time>
      </trkpt>
      <trkpt lat="43.17202" lon="6.50173">
        <ele>219</ele>
        <time>2024-02-04T13:13:01Z</time>
      </trkpt>
      <trkpt lat="43.17202" lon="6.50173">
        <ele>218.9</ele>
        <time>2024-02-04T13:13:02Z</time>
      </trkpt>
      <trkpt lat="43.17202" lon="6.50174">
        <ele>218.9</ele>
        <time>2024-02-04T13:13:03Z</time>
      </trkpt>
      <trkpt lat="43.17201" lon="6.50174">
        <ele>218.9</ele>
        <time>2024-02-04T13:13:04Z</time>
      </trkpt>
      <trkpt lat="43.17201" lon="6.50174">
        <ele>218.9</ele>
        <time>2024-02-04T13:13:05Z</time>
      </trkpt>
      <trkpt lat="43.17201" lon="6.50174">
        <ele>218.9</ele>
        <time>2024-02-04T13:13:06Z</time>
      </trkpt>
      <trkpt lat="43.17202" lon="6.50174">
        <ele>218.9</ele>
        <time>2024-02-04T13:13:07Z</time>
      </trkpt>
      <trkpt lat="43.17202" lon="6.50175">
        <ele>218.9</ele>
        <time>2024-02-04T13:13:08Z</time>
      </trkpt>
      <trkpt lat="43.17202" lon="6.50175">
        <ele>218.8</ele>
        <time>2024-02-04T13:13:09Z</time>
      </trkpt>
      <trkpt lat="43.17201" lon="6.50175">
        <ele>218.8</ele>
        <time>2024-02-04T13:13:10Z</time>
      </trkpt>
      <trkpt lat="43.17201" lon="6.50175">
        <ele>218.8</ele>
        <time>2024-02-04T13:13:11Z</time>
      </trkpt>
      <trkpt lat="43.17201" lon="6.50176">
        <ele>218.8</ele>
        <time>2024-02-04T13:13:12Z</time>
      </trkpt>
      <trkpt lat="43.17201" lon="6.50176">
        <ele>218.8</ele>
        <time>2024-02-04T13:13:13Z</time>
      </trkpt>
      <trkpt lat="43.17201" lon="6.50176">
        <ele>218.9</ele>
        <time>2024-02-04T13:13:14Z</time>
      </trkpt>
      <trkpt lat="43.17201" lon="6.50176">
        <ele>218.9</ele>
        <time>2024-02-04T13:13:15Z</time>
      </trkpt>
      <trkpt lat="43.17201" lon="6.50176">
        <ele>219</ele>
        <time>2024-02-04T13:13:16Z</time>
      </trkpt>
      <trkpt lat="43.17201" lon="6.50176">
        <ele>219</ele>
        <time>2024-02-04T13:13:17Z</time>
      </trkpt>
      <trkpt lat="43.17201" lon="6.50176">
        <ele>219</ele>
        <time>2024-02-04T13:13:18Z</time>
      </trkpt>
      <trkpt lat="43.17201" lon="6.50177">
        <ele>219</ele>
        <time>2024-02-04T13:13:19Z</time>
      </trkpt>
      <trkpt lat="43.17201" lon="6.50177">
        <ele>219</ele>
        <time>2024-02-04T13:13:20Z</time>
      </trkpt>
      <trkpt lat="43.17201" lon="6.50177">
        <ele>219</ele>
        <time>2024-02-04T13:13:21Z</time>
      </trkpt>
      <trkpt lat="43.17201" lon="6.50177">
        <ele>219</ele>
        <time>2024-02-04T13:13:22Z</time>
      </trkpt>
      <trkpt lat="43.17201" lon="6.50177">
        <ele>218.9</ele>
        <time>2024-02-04T13:13:23Z</time>
      </trkpt>
      <trkpt lat="43.17201" lon="6.50177">
        <ele>218.9</ele>
        <time>2024-02-04T13:13:24Z</time>
      </trkpt>
      <trkpt lat="43.17201" lon="6.50177">
        <ele>218.9</ele>
        <time>2024-02-04T13:13:25Z</time>
      </trkpt>
      <trkpt lat="43.17201" lon="6.50177">
        <ele>218.9</ele>
        <time>2024-02-04T13:13:26Z</time>
      </trkpt>
      <trkpt lat="43.17201" lon="6.50178">
        <ele>218.8</ele>
        <time>2024-02-04T13:13:27Z</time>
      </trkpt>
      <trkpt lat="43.17201" lon="6.50178">
        <ele>218.8</ele>
        <time>2024-02-04T13:13:28Z</time>
      </trkpt>
      <trkpt lat="43.172" lon="6.50178">
        <ele>218.8</ele>
        <time>2024-02-04T13:13:29Z</time>
      </trkpt>
      <trkpt lat="43.172" lon="6.50179">
        <ele>218.8</ele>
        <time>2024-02-04T13:13:30Z</time>
      </trkpt>
      <trkpt lat="43.172" lon="6.50179">
        <ele>218.8</ele>
        <time>2024-02-04T13:13:31Z</time>
      </trkpt>
      <trkpt lat="43.172" lon="6.50179">
        <ele>218.8</ele>
        <time>2024-02-04T13:13:32Z</time>
      </trkpt>
      <trkpt lat="43.17199" lon="6.50179">
        <ele>218.7</ele>
        <time>2024-02-04T13:13:33Z</time>
      </trkpt>
      <trkpt lat="43.17199" lon="6.50179">
        <ele>218.7</ele>
        <time>2024-02-04T13:13:34Z</time>
      </trkpt>
      <trkpt lat="43.17199" lon="6.50179">
        <ele>218.7</ele>
        <time>2024-02-04T13:13:35Z</time>
      </trkpt>
      <trkpt lat="43.17199" lon="6.50179">
        <ele>218.6</ele>
        <time>2024-02-04T13:13:36Z</time>
      </trkpt>
      <trkpt lat="43.17198" lon="6.50179">
        <ele>218.6</ele>
        <time>2024-02-04T13:13:37Z</time>
      </trkpt>
      <trkpt lat="43.17198" lon="6.50179">
        <ele>218.6</ele>
        <time>2024-02-04T13:13:38Z</time>
      </trkpt>
      <trkpt lat="43.17198" lon="6.50179">
        <ele>218.6</ele>
        <time>2024-02-04T13:13:39Z</time>
      </trkpt>
      <trkpt lat="43.17198" lon="6.50179">
        <ele>218.6</ele>
        <time>2024-02-04T13:13:40Z</time>
      </trkpt>
      <trkpt lat="43.17198" lon="6.50179">
        <ele>218.6</ele>
        <time>2024-02-04T13:13:41Z</time>
      </trkpt>
      <trkpt lat="43.17198" lon="6.50179">
        <ele>218.7</ele>
        <time>2024-02-04T13:13:42Z</time>
      </trkpt>
      <trkpt lat="43.17198" lon="6.50179">
        <ele>218.8</ele>
        <time>2024-02-04T13:13:43Z</time>
      </trkpt>
      <trkpt lat="43.17198" lon="6.50179">
        <ele>218.8</ele>
        <time>2024-02-04T13:13:44Z</time>
      </trkpt>
      <trkpt lat="43.17198" lon="6.50179">
        <ele>218.8</ele>
        <time>2024-02-04T13:13:45Z</time>
      </trkpt>
      <trkpt lat="43.17198" lon="6.50179">
        <ele>218.9</ele>
        <time>2024-02-04T13:13:46Z</time>
      </trkpt>
      <trkpt lat="43.17198" lon="6.50179">
        <ele>218.9</ele>
        <time>2024-02-04T13:13:47Z</time>
      </trkpt>
      <trkpt lat="43.17198" lon="6.50179">
        <ele>218.9</ele>
        <time>2024-02-04T13:13:48Z</time>
      </trkpt>
      <trkpt lat="43.17198" lon="6.50179">
        <ele>219</ele>
        <time>2024-02-04T13:13:49Z</time>
      </trkpt>
      <trkpt lat="43.17198" lon="6.50179">
        <ele>219</ele>
        <time>2024-02-04T13:13:50Z</time>
      </trkpt>
      <trkpt lat="43.17198" lon="6.50179">
        <ele>218.9</ele>
        <time>2024-02-04T13:13:51Z</time>
      </trkpt>
      <trkpt lat="43.17198" lon="6.50179">
        <ele>218.9</ele>
        <time>2024-02-04T13:13:52Z</time>
      </trkpt>
      <trkpt lat="43.17197" lon="6.50179">
        <ele>218.9</ele>
        <time>2024-02-04T13:13:53Z</time>
      </trkpt>
      <trkpt lat="43.17197" lon="6.50179">
        <ele>218.9</ele>
        <time>2024-02-04T13:13:54Z</time>
      </trkpt>
      <trkpt lat="43.17197" lon="6.50179">
        <ele>218.9</ele>
        <time>2024-02-04T13:13:55Z</time>
      </trkpt>
      <trkpt lat="43.17197" lon="6.50179">
        <ele>218.9</ele>
        <time>2024-02-04T13:13:56Z</time>
      </trkpt>
      <trkpt lat="43.17197" lon="6.50179">
        <ele>218.9</ele>
        <time>2024-02-04T13:13:57Z</time>
      </trkpt>
      <trkpt lat="43.17197" lon="6.50179">
        <ele>218.8</ele>
        <time>2024-02-04T13:13:58Z</time>
      </trkpt>
      <trkpt lat="43.17197" lon="6.50179">
        <ele>218.8</ele>
        <time>2024-02-04T13:13:59Z</time>
      </trkpt>
      <trkpt lat="43.17197" lon="6.50179">
        <ele>218.8</ele>
        <time>2024-02-04T13:14:00Z</time>
      </trkpt>
      <trkpt lat="43.17197" lon="6.50179">
        <ele>218.7</ele>
        <time>2024-02-04T13:14:01Z</time>
      </trkpt>
      <trkpt lat="43.17197" lon="6.50179">
        <ele>218.6</ele>
        <time>2024-02-04T13:14:02Z</time>
      </trkpt>
      <trkpt lat="43.17196" lon="6.50179">
        <ele>218.5</ele>
        <time>2024-02-04T13:14:03Z</time>
      </trkpt>
      <trkpt lat="43.17196" lon="6.50179">
        <ele>218.4</ele>
        <time>2024-02-04T13:14:04Z</time>
      </trkpt>
      <trkpt lat="43.17196" lon="6.50179">
        <ele>218.4</ele>
        <time>2024-02-04T13:14:05Z</time>
      </trkpt>
      <trkpt lat="43.17196" lon="6.50179">
        <ele>218.5</ele>
        <time>2024-02-04T13:14:06Z</time>
      </trkpt>
      <trkpt lat="43.17196" lon="6.50179">
        <ele>218.5</ele>
        <time>2024-02-04T13:14:07Z</time>
      </trkpt>
      <trkpt lat="43.17196" lon="6.50179">
        <ele>218.5</ele>
        <time>2024-02-04T13:14:08Z</time>
      </trkpt>
      <trkpt lat="43.17196" lon="6.50179">
        <ele>218.4</ele>
        <time>2024-02-04T13:14:09Z</time>
      </trkpt>
      <trkpt lat="43.17196" lon="6.50179">
        <ele>218.4</ele>
        <time>2024-02-04T13:14:10Z</time>
      </trkpt>
      <trkpt lat="43.17196" lon="6.50179">
        <ele>218.4</ele>
        <time>2024-02-04T13:14:11Z</time>
      </trkpt>
      <trkpt lat="43.17196" lon="6.50179">
        <ele>218.3</ele>
        <time>2024-02-04T13:14:12Z</time>
      </trkpt>
      <trkpt lat="43.17196" lon="6.50179">
        <ele>218.2</ele>
        <time>2024-02-04T13:14:13Z</time>
      </trkpt>
      <trkpt lat="43.17196" lon="6.50179">
        <ele>218.4</ele>
        <time>2024-02-04T13:14:14Z</time>
      </trkpt>
      <trkpt lat="43.17196" lon="6.5018">
        <ele>218.5</ele>
        <time>2024-02-04T13:14:15Z</time>
      </trkpt>
      <trkpt lat="43.17197" lon="6.5018">
        <ele>218.6</ele>
        <time>2024-02-04T13:14:16Z</time>
      </trkpt>
      <trkpt lat="43.17197" lon="6.5018">
        <ele>218.7</ele>
        <time>2024-02-04T13:14:17Z</time>
      </trkpt>
      <trkpt lat="43.17197" lon="6.5018">
        <ele>218.7</ele>
        <time>2024-02-04T13:14:18Z</time>
      </trkpt>
      <trkpt lat="43.17197" lon="6.5018">
        <ele>218.7</ele>
        <time>2024-02-04T13:14:19Z</time>
      </trkpt>
      <trkpt lat="43.17197" lon="6.5018">
        <ele>218.8</ele>
        <time>2024-02-04T13:14:20Z</time>
      </trkpt>
      <trkpt lat="43.17197" lon="6.5018">
        <ele>218.8</ele>
        <time>2024-02-04T13:14:21Z</time>
      </trkpt>
      <trkpt lat="43.17197" lon="6.5018">
        <ele>218.9</ele>
        <time>2024-02-04T13:14:22Z</time>
      </trkpt>
      <trkpt lat="43.17198" lon="6.5018">
        <ele>218.9</ele>
        <time>2024-02-04T13:14:23Z</time>
      </trkpt>
      <trkpt lat="43.17198" lon="6.5018">
        <ele>218.9</ele>
        <time>2024-02-04T13:14:24Z</time>
      </trkpt>
      <trkpt lat="43.17198" lon="6.5018">
        <ele>219</ele>
        <time>2024-02-04T13:14:25Z</time>
      </trkpt>
      <trkpt lat="43.17198" lon="6.5018">
        <ele>219</ele>
        <time>2024-02-04T13:14:26Z</time>
      </trkpt>
      <trkpt lat="43.17198" lon="6.5018">
        <ele>219</ele>
        <time>2024-02-04T13:14:27Z</time>
      </trkpt>
      <trkpt lat="43.17198" lon="6.50181">
        <ele>219</ele>
        <time>2024-02-04T13:14:28Z</time>
      </trkpt>
      <trkpt lat="43.17198" lon="6.50181">
        <ele>219</ele>
        <time>2024-02-04T13:14:29Z</time>
      </trkpt>
      <trkpt lat="43.17198" lon="6.50181">
        <ele>219</ele>
        <time>2024-02-04T13:14:30Z</time>
      </trkpt>
      <trkpt lat="43.17198" lon="6.50181">
        <ele>218.9</ele>
        <time>2024-02-04T13:14:31Z</time>
      </trkpt>
      <trkpt lat="43.17198" lon="6.50181">
        <ele>218.9</ele>
        <time>2024-02-04T13:14:32Z</time>
      </trkpt>
      <trkpt lat="43.17198" lon="6.50181">
        <ele>218.9</ele>
        <time>2024-02-04T13:14:33Z</time>
      </trkpt>
      <trkpt lat="43.17198" lon="6.50181">
        <ele>218.9</ele>
        <time>2024-02-04T13:14:34Z</time>
      </trkpt>
      <trkpt lat="43.17198" lon="6.50181">
        <ele>218.9</ele>
        <time>2024-02-04T13:14:35Z</time>
      </trkpt>
      <trkpt lat="43.17199" lon="6.50181">
        <ele>218.9</ele>
        <time>2024-02-04T13:14:36Z</time>
      </trkpt>
      <trkpt lat="43.17199" lon="6.50181">
        <ele>218.9</ele>
        <time>2024-02-04T13:14:37Z</time>
      </trkpt>
      <trkpt lat="43.17199" lon="6.50181">
        <ele>218.9</ele>
        <time>2024-02-04T13:14:38Z</time>
      </trkpt>
      <trkpt lat="43.17199" lon="6.50181">
        <ele>218.9</ele>
        <time>2024-02-04T13:14:39Z</time>
      </trkpt>
      <trkpt lat="43.17199" lon="6.50181">
        <ele>218.9</ele>
        <time>2024-02-04T13:14:40Z</time>
      </trkpt>
      <trkpt lat="43.17199" lon="6.50181">
        <ele>218.9</ele>
        <time>2024-02-04T13:14:41Z</time>
      </trkpt>
      <trkpt lat="43.17199" lon="6.50182">
        <ele>218.9</ele>
        <time>2024-02-04T13:14:42Z</time>
      </trkpt>
      <trkpt lat="43.17199" lon="6.50182">
        <ele>218.9</ele>
        <time>2024-02-04T13:14:43Z</time>
      </trkpt>
      <trkpt lat="43.17199" lon="6.50182">
        <ele>218.9</ele>
        <time>2024-02-04T13:14:44Z</time>
      </trkpt>
      <trkpt lat="43.17199" lon="6.50182">
        <ele>218.8</ele>
        <time>2024-02-04T13:14:45Z</time>
      </trkpt>
      <trkpt lat="43.17199" lon="6.50182">
        <ele>218.8</ele>
        <time>2024-02-04T13:14:46Z</time>
      </trkpt>
      <trkpt lat="43.17199" lon="6.50182">
        <ele>218.8</ele>
        <time>2024-02-04T13:14:47Z</time>
      </trkpt>
      <trkpt lat="43.17199" lon="6.50182">
        <ele>218.8</ele>
        <time>2024-02-04T13:14:48Z</time>
      </trkpt>
      <trkpt lat="43.17199" lon="6.50182">
        <ele>218.8</ele>
        <time>2024-02-04T13:14:49Z</time>
      </trkpt>
      <trkpt lat="43.17199" lon="6.50182">
        <ele>218.9</ele>
        <time>2024-02-04T13:14:50Z</time>
      </trkpt>
      <trkpt lat="43.17199" lon="6.50182">
        <ele>218.9</ele>
        <time>2024-02-04T13:14:51Z</time>
      </trkpt>
      <trkpt lat="43.17199" lon="6.50182">
        <ele>218.9</ele>
        <time>2024-02-04T13:14:52Z</time>
      </trkpt>
      <trkpt lat="43.17199" lon="6.50182">
        <ele>218.8</ele>
        <time>2024-02-04T13:14:53Z</time>
      </trkpt>
      <trkpt lat="43.17199" lon="6.50181">
        <ele>218.8</ele>
        <time>2024-02-04T13:14:54Z</time>
      </trkpt>
      <trkpt lat="43.172" lon="6.50181">
        <ele>218.8</ele>
        <time>2024-02-04T13:14:55Z</time>
      </trkpt>
      <trkpt lat="43.172" lon="6.50181">
        <ele>218.8</ele>
        <time>2024-02-04T13:14:56Z</time>
      </trkpt>
      <trkpt lat="43.172" lon="6.50181">
        <ele>218.8</ele>
        <time>2024-02-04T13:14:57Z</time>
      </trkpt>
      <trkpt lat="43.172" lon="6.50181">
        <ele>218.9</ele>
        <time>2024-02-04T13:14:58Z</time>
      </trkpt>
      <trkpt lat="43.17199" lon="6.50181">
        <ele>218.9</ele>
        <time>2024-02-04T13:14:59Z</time>
      </trkpt>
      <trkpt lat="43.17199" lon="6.50181">
        <ele>218.9</ele>
        <time>2024-02-04T13:15:00Z</time>
      </trkpt>
      <trkpt lat="43.17199" lon="6.50181">
        <ele>218.9</ele>
        <time>2024-02-04T13:15:01Z</time>
      </trkpt>
      <trkpt lat="43.172" lon="6.50181">
        <ele>218.9</ele>
        <time>2024-02-04T13:15:02Z</time>
      </trkpt>
      <trkpt lat="43.17199" lon="6.50181">
        <ele>218.9</ele>
        <time>2024-02-04T13:15:03Z</time>
      </trkpt>
      <trkpt lat="43.17199" lon="6.50181">
        <ele>218.9</ele>
        <time>2024-02-04T13:15:04Z</time>
      </trkpt>
      <trkpt lat="43.17199" lon="6.50181">
        <ele>218.9</ele>
        <time>2024-02-04T13:15:05Z</time>
      </trkpt>
      <trkpt lat="43.17199" lon="6.50181">
        <ele>218.7</ele>
        <time>2024-02-04T13:15:06Z</time>
      </trkpt>
      <trkpt lat="43.17199" lon="6.50181">
        <ele>218.7</ele>
        <time>2024-02-04T13:15:07Z</time>
      </trkpt>
      <trkpt lat="43.17199" lon="6.50181">
        <ele>218.7</ele>
        <time>2024-02-04T13:15:08Z</time>
      </trkpt>
      <trkpt lat="43.17199" lon="6.50181">
        <ele>218.7</ele>
        <time>2024-02-04T13:15:09Z</time>
      </trkpt>
      <trkpt lat="43.17199" lon="6.50181">
        <ele>218.7</ele>
        <time>2024-02-04T13:15:10Z</time>
      </trkpt>
      <trkpt lat="43.172" lon="6.50181">
        <ele>218.8</ele>
        <time>2024-02-04T13:15:11Z</time>
      </trkpt>
      <trkpt lat="43.172" lon="6.50181">
        <ele>218.9</ele>
        <time>2024-02-04T13:15:12Z</time>
      </trkpt>
      <trkpt lat="43.17199" lon="6.50181">
        <ele>218.8</ele>
        <time>2024-02-04T13:15:13Z</time>
      </trkpt>
      <trkpt lat="43.17199" lon="6.50181">
        <ele>218.9</ele>
        <time>2024-02-04T13:15:14Z</time>
      </trkpt>
      <trkpt lat="43.17199" lon="6.50181">
        <ele>218.9</ele>
        <time>2024-02-04T13:15:15Z</time>
      </trkpt>
      <trkpt lat="43.17199" lon="6.50181">
        <ele>218.8</ele>
        <time>2024-02-04T13:15:16Z</time>
      </trkpt>
      <trkpt lat="43.17199" lon="6.50181">
        <ele>218.8</ele>
        <time>2024-02-04T13:15:17Z</time>
      </trkpt>
      <trkpt lat="43.17199" lon="6.50181">
        <ele>218.8</ele>
        <time>2024-02-04T13:15:18Z</time>
      </trkpt>
      <trkpt lat="43.17199" lon="6.50181">
        <ele>218.8</ele>
        <time>2024-02-04T13:15:19Z</time>
      </trkpt>
      <trkpt lat="43.17199" lon="6.50181">
        <ele>218.7</ele>
        <time>2024-02-04T13:15:20Z</time>
      </trkpt>
      <trkpt lat="43.17199" lon="6.50181">
        <ele>218.8</ele>
        <time>2024-02-04T13:15:21Z</time>
      </trkpt>
      <trkpt lat="43.17199" lon="6.50181">
        <ele>218.9</ele>
        <time>2024-02-04T13:15:22Z</time>
      </trkpt>
      <trkpt lat="43.172" lon="6.50181">
        <ele>219</ele>
        <time>2024-02-04T13:15:23Z</time>
      </trkpt>
      <trkpt lat="43.172" lon="6.50181">
        <ele>219</ele>
        <time>2024-02-04T13:15:24Z</time>
      </trkpt>
      <trkpt lat="43.172" lon="6.50181">
        <ele>218.9</ele>
        <time>2024-02-04T13:15:25Z</time>
      </trkpt>
      <trkpt lat="43.17199" lon="6.50181">
        <ele>219</ele>
        <time>2024-02-04T13:15:26Z</time>
      </trkpt>
      <trkpt lat="43.17199" lon="6.50182">
        <ele>219.1</ele>
        <time>2024-02-04T13:15:27Z</time>
      </trkpt>
      <trkpt lat="43.17199" lon="6.50182">
        <ele>219</ele>
        <time>2024-02-04T13:15:28Z</time>
      </trkpt>
      <trkpt lat="43.17199" lon="6.50182">
        <ele>219</ele>
        <time>2024-02-04T13:15:29Z</time>
      </trkpt>
      <trkpt lat="43.17199" lon="6.50182">
        <ele>219</ele>
        <time>2024-02-04T13:15:30Z</time>
      </trkpt>
      <trkpt lat="43.17199" lon="6.50182">
        <ele>219</ele>
        <time>2024-02-04T13:15:31Z</time>
      </trkpt>
      <trkpt lat="43.17199" lon="6.50182">
        <ele>219</ele>
        <time>2024-02-04T13:15:32Z</time>
      </trkpt>
      <trkpt lat="43.17199" lon="6.50182">
        <ele>219</ele>
        <time>2024-02-04T13:15:33Z</time>
      </trkpt>
      <trkpt lat="43.17199" lon="6.50182">
        <ele>219</ele>
        <time>2024-02-04T13:15:34Z</time>
      </trkpt>
      <trkpt lat="43.17199" lon="6.50182">
        <ele>219</ele>
        <time>2024-02-04T13:15:35Z</time>
      </trkpt>
      <trkpt lat="43.17199" lon="6.50181">
        <ele>219.1</ele>
        <time>2024-02-04T13:15:36Z</time>
      </trkpt>
      <trkpt lat="43.172" lon="6.50181">
        <ele>219.2</ele>
        <time>2024-02-04T13:15:37Z</time>
      </trkpt>
      <trkpt lat="43.172" lon="6.50181">
        <ele>219.2</ele>
        <time>2024-02-04T13:15:38Z</time>
      </trkpt>
      <trkpt lat="43.17199" lon="6.50181">
        <ele>219.2</ele>
        <time>2024-02-04T13:15:39Z</time>
      </trkpt>
      <trkpt lat="43.17199" lon="6.50181">
        <ele>219.2</ele>
        <time>2024-02-04T13:15:40Z</time>
      </trkpt>
      <trkpt lat="43.172" lon="6.50181">
        <ele>219.3</ele>
        <time>2024-02-04T13:15:41Z</time>
      </trkpt>
      <trkpt lat="43.172" lon="6.50181">
        <ele>219.3</ele>
        <time>2024-02-04T13:15:42Z</time>
      </trkpt>
      <trkpt lat="43.17199" lon="6.50181">
        <ele>219.3</ele>
        <time>2024-02-04T13:15:43Z</time>
      </trkpt>
      <trkpt lat="43.172" lon="6.50181">
        <ele>219.2</ele>
        <time>2024-02-04T13:15:44Z</time>
      </trkpt>
      <trkpt lat="43.17199" lon="6.50181">
        <ele>219.2</ele>
        <time>2024-02-04T13:15:45Z</time>
      </trkpt>
      <trkpt lat="43.17199" lon="6.50181">
        <ele>219.2</ele>
        <time>2024-02-04T13:15:46Z</time>
      </trkpt>
      <trkpt lat="43.17199" lon="6.50181">
        <ele>219.1</ele>
        <time>2024-02-04T13:15:47Z</time>
      </trkpt>
      <trkpt lat="43.17199" lon="6.50181">
        <ele>219</ele>
        <time>2024-02-04T13:15:48Z</time>
      </trkpt>
      <trkpt lat="43.17199" lon="6.50181">
        <ele>219</ele>
        <time>2024-02-04T13:15:49Z</time>
      </trkpt>
      <trkpt lat="43.17199" lon="6.50181">
        <ele>218.9</ele>
        <time>2024-02-04T13:15:50Z</time>
      </trkpt>
      <trkpt lat="43.17199" lon="6.50181">
        <ele>218.9</ele>
        <time>2024-02-04T13:15:51Z</time>
      </trkpt>
      <trkpt lat="43.17199" lon="6.50181">
        <ele>218.9</ele>
        <time>2024-02-04T13:15:52Z</time>
      </trkpt>
      <trkpt lat="43.17199" lon="6.50181">
        <ele>218.9</ele>
        <time>2024-02-04T13:15:53Z</time>
      </trkpt>
      <trkpt lat="43.17199" lon="6.50181">
        <ele>218.9</ele>
        <time>2024-02-04T13:15:54Z</time>
      </trkpt>
      <trkpt lat="43.17199" lon="6.50181">
        <ele>219</ele>
        <time>2024-02-04T13:15:55Z</time>
      </trkpt>
      <trkpt lat="43.17199" lon="6.50181">
        <ele>219</ele>
        <time>2024-02-04T13:15:56Z</time>
      </trkpt>
      <trkpt lat="43.17199" lon="6.5018">
        <ele>219</ele>
        <time>2024-02-04T13:15:57Z</time>
      </trkpt>
      <trkpt lat="43.17199" lon="6.5018">
        <ele>218.9</ele>
        <time>2024-02-04T13:15:58Z</time>
      </trkpt>
      <trkpt lat="43.17199" lon="6.5018">
        <ele>218.9</ele>
        <time>2024-02-04T13:15:59Z</time>
      </trkpt>
      <trkpt lat="43.17199" lon="6.5018">
        <ele>218.9</ele>
        <time>2024-02-04T13:16:00Z</time>
      </trkpt>
      <trkpt lat="43.17199" lon="6.5018">
        <ele>218.9</ele>
        <time>2024-02-04T13:16:01Z</time>
      </trkpt>
      <trkpt lat="43.17199" lon="6.5018">
        <ele>218.9</ele>
        <time>2024-02-04T13:16:02Z</time>
      </trkpt>
      <trkpt lat="43.17199" lon="6.5018">
        <ele>218.9</ele>
        <time>2024-02-04T13:16:03Z</time>
      </trkpt>
      <trkpt lat="43.17199" lon="6.5018">
        <ele>218.9</ele>
        <time>2024-02-04T13:16:04Z</time>
      </trkpt>
      <trkpt lat="43.17199" lon="6.5018">
        <ele>218.9</ele>
        <time>2024-02-04T13:16:05Z</time>
      </trkpt>
      <trkpt lat="43.17199" lon="6.5018">
        <ele>218.9</ele>
        <time>2024-02-04T13:16:06Z</time>
      </trkpt>
      <trkpt lat="43.17199" lon="6.5018">
        <ele>218.8</ele>
        <time>2024-02-04T13:16:07Z</time>
      </trkpt>
      <trkpt lat="43.17199" lon="6.5018">
        <ele>218.8</ele>
        <time>2024-02-04T13:16:08Z</time>
      </trkpt>
      <trkpt lat="43.17199" lon="6.5018">
        <ele>218.7</ele>
        <time>2024-02-04T13:16:09Z</time>
      </trkpt>
      <trkpt lat="43.17199" lon="6.5018">
        <ele>218.6</ele>
        <time>2024-02-04T13:16:10Z</time>
      </trkpt>
      <trkpt lat="43.17199" lon="6.5018">
        <ele>218.7</ele>
        <time>2024-02-04T13:16:11Z</time>
      </trkpt>
      <trkpt lat="43.17199" lon="6.5018">
        <ele>218.7</ele>
        <time>2024-02-04T13:16:12Z</time>
      </trkpt>
      <trkpt lat="43.17199" lon="6.5018">
        <ele>218.7</ele>
        <time>2024-02-04T13:16:13Z</time>
      </trkpt>
      <trkpt lat="43.17199" lon="6.5018">
        <ele>218.7</ele>
        <time>2024-02-04T13:16:14Z</time>
      </trkpt>
      <trkpt lat="43.17199" lon="6.5018">
        <ele>218.7</ele>
        <time>2024-02-04T13:16:15Z</time>
      </trkpt>
      <trkpt lat="43.17199" lon="6.5018">
        <ele>218.7</ele>
        <time>2024-02-04T13:16:16Z</time>
      </trkpt>
      <trkpt lat="43.17199" lon="6.5018">
        <ele>218.8</ele>
        <time>2024-02-04T13:16:17Z</time>
      </trkpt>
      <trkpt lat="43.17199" lon="6.5018">
        <ele>218.8</ele>
        <time>2024-02-04T13:16:18Z</time>
      </trkpt>
      <trkpt lat="43.17198" lon="6.5018">
        <ele>218.7</ele>
        <time>2024-02-04T13:16:19Z</time>
      </trkpt>
      <trkpt lat="43.17198" lon="6.5018">
        <ele>218.7</ele>
        <time>2024-02-04T13:16:20Z</time>
      </trkpt>
      <trkpt lat="43.17198" lon="6.5018">
        <ele>218.6</ele>
        <time>2024-02-04T13:16:21Z</time>
      </trkpt>
      <trkpt lat="43.17198" lon="6.5018">
        <ele>218.5</ele>
        <time>2024-02-04T13:16:22Z</time>
      </trkpt>
      <trkpt lat="43.17198" lon="6.5018">
        <ele>218.5</ele>
        <time>2024-02-04T13:16:23Z</time>
      </trkpt>
      <trkpt lat="43.17198" lon="6.5018">
        <ele>218.6</ele>
        <time>2024-02-04T13:16:24Z</time>
      </trkpt>
      <trkpt lat="43.17198" lon="6.5018">
        <ele>218.6</ele>
        <time>2024-02-04T13:16:25Z</time>
      </trkpt>
      <trkpt lat="43.17198" lon="6.5018">
        <ele>218.7</ele>
        <time>2024-02-04T13:16:26Z</time>
      </trkpt>
      <trkpt lat="43.17198" lon="6.5018">
        <ele>218.7</ele>
        <time>2024-02-04T13:16:27Z</time>
      </trkpt>
      <trkpt lat="43.17198" lon="6.5018">
        <ele>218.7</ele>
        <time>2024-02-04T13:16:28Z</time>
      </trkpt>
      <trkpt lat="43.17198" lon="6.5018">
        <ele>218.7</ele>
        <time>2024-02-04T13:16:29Z</time>
      </trkpt>
      <trkpt lat="43.17198" lon="6.5018">
        <ele>218.7</ele>
        <time>2024-02-04T13:16:30Z</time>
      </trkpt>
      <trkpt lat="43.17198" lon="6.5018">
        <ele>218.6</ele>
        <time>2024-02-04T13:16:31Z</time>
      </trkpt>
      <trkpt lat="43.17198" lon="6.5018">
        <ele>218.5</ele>
        <time>2024-02-04T13:16:32Z</time>
      </trkpt>
      <trkpt lat="43.17198" lon="6.5018">
        <ele>218.4</ele>
        <time>2024-02-04T13:16:33Z</time>
      </trkpt>
      <trkpt lat="43.17198" lon="6.5018">
        <ele>218.4</ele>
        <time>2024-02-04T13:16:34Z</time>
      </trkpt>
      <trkpt lat="43.17198" lon="6.5018">
        <ele>218.4</ele>
        <time>2024-02-04T13:16:35Z</time>
      </trkpt>
      <trkpt lat="43.17198" lon="6.5018">
        <ele>218.4</ele>
        <time>2024-02-04T13:16:36Z</time>
      </trkpt>
      <trkpt lat="43.17198" lon="6.5018">
        <ele>218.4</ele>
        <time>2024-02-04T13:16:37Z</time>
      </trkpt>
      <trkpt lat="43.17198" lon="6.5018">
        <ele>218.4</ele>
        <time>2024-02-04T13:16:38Z</time>
      </trkpt>
      <trkpt lat="43.17198" lon="6.5018">
        <ele>218.5</ele>
        <time>2024-02-04T13:16:39Z</time>
      </trkpt>
      <trkpt lat="43.17198" lon="6.5018">
        <ele>218.5</ele>
        <time>2024-02-04T13:16:40Z</time>
      </trkpt>
      <trkpt lat="43.17198" lon="6.5018">
        <ele>218.5</ele>
        <time>2024-02-04T13:16:41Z</time>
      </trkpt>
      <trkpt lat="43.17198" lon="6.5018">
        <ele>218.6</ele>
        <time>2024-02-04T13:16:42Z</time>
      </trkpt>
      <trkpt lat="43.17198" lon="6.5018">
        <ele>218.7</ele>
        <time>2024-02-04T13:16:43Z</time>
      </trkpt>
      <trkpt lat="43.17198" lon="6.5018">
        <ele>218.8</ele>
        <time>2024-02-04T13:16:44Z</time>
      </trkpt>
      <trkpt lat="43.17198" lon="6.5018">
        <ele>218.7</ele>
        <time>2024-02-04T13:16:45Z</time>
      </trkpt>
      <trkpt lat="43.17198" lon="6.5018">
        <ele>218.7</ele>
        <time>2024-02-04T13:16:46Z</time>
      </trkpt>
      <trkpt lat="43.17198" lon="6.5018">
        <ele>218.7</ele>
        <time>2024-02-04T13:16:47Z</time>
      </trkpt>
      <trkpt lat="43.17198" lon="6.5018">
        <ele>218.6</ele>
        <time>2024-02-04T13:16:48Z</time>
      </trkpt>
      <trkpt lat="43.17198" lon="6.5018">
        <ele>218.6</ele>
        <time>2024-02-04T13:16:49Z</time>
      </trkpt>
      <trkpt lat="43.17198" lon="6.5018">
        <ele>218.6</ele>
        <time>2024-02-04T13:16:50Z</time>
      </trkpt>
      <trkpt lat="43.17198" lon="6.5018">
        <ele>218.6</ele>
        <time>2024-02-04T13:16:51Z</time>
      </trkpt>
      <trkpt lat="43.17198" lon="6.5018">
        <ele>218.6</ele>
        <time>2024-02-04T13:16:52Z</time>
      </trkpt>
      <trkpt lat="43.17198" lon="6.5018">
        <ele>218.5</ele>
        <time>2024-02-04T13:16:53Z</time>
      </trkpt>
      <trkpt lat="43.17198" lon="6.5018">
        <ele>218.4</ele>
        <time>2024-02-04T13:16:54Z</time>
      </trkpt>
      <trkpt lat="43.17198" lon="6.5018">
        <ele>218.5</ele>
        <time>2024-02-04T13:16:55Z</time>
      </trkpt>
      <trkpt lat="43.17198" lon="6.5018">
        <ele>218.5</ele>
        <time>2024-02-04T13:16:56Z</time>
      </trkpt>
      <trkpt lat="43.17198" lon="6.5018">
        <ele>218.5</ele>
        <time>2024-02-04T13:16:57Z</time>
      </trkpt>
      <trkpt lat="43.17198" lon="6.5018">
        <ele>218.6</ele>
        <time>2024-02-04T13:16:58Z</time>
      </trkpt>
      <trkpt lat="43.17198" lon="6.5018">
        <ele>218.6</ele>
        <time>2024-02-04T13:16:59Z</time>
      </trkpt>
      <trkpt lat="43.17198" lon="6.5018">
        <ele>218.6</ele>
        <time>2024-02-04T13:17:00Z</time>
      </trkpt>
      <trkpt lat="43.17198" lon="6.5018">
        <ele>218.5</ele>
        <time>2024-02-04T13:17:01Z</time>
      </trkpt>
      <trkpt lat="43.17198" lon="6.5018">
        <ele>218.5</ele>
        <time>2024-02-04T13:17:02Z</time>
      </trkpt>
      <trkpt lat="43.17198" lon="6.5018">
        <ele>218.5</ele>
        <time>2024-02-04T13:17:03Z</time>
      </trkpt>
      <trkpt lat="43.17198" lon="6.5018">
        <ele>218.5</ele>
        <time>2024-02-04T13:17:04Z</time>
      </trkpt>
      <trkpt lat="43.17198" lon="6.5018">
        <ele>218.5</ele>
        <time>2024-02-04T13:17:05Z</time>
      </trkpt>
      <trkpt lat="43.17198" lon="6.5018">
        <ele>218.5</ele>
        <time>2024-02-04T13:17:06Z</time>
      </trkpt>
      <trkpt lat="43.17198" lon="6.5018">
        <ele>218.5</ele>
        <time>2024-02-04T13:17:07Z</time>
      </trkpt>
      <trkpt lat="43.17198" lon="6.5018">
        <ele>218.5</ele>
        <time>2024-02-04T13:17:08Z</time>
      </trkpt>
      <trkpt lat="43.17198" lon="6.5018">
        <ele>218.5</ele>
        <time>2024-02-04T13:17:09Z</time>
      </trkpt>
      <trkpt lat="43.17198" lon="6.5018">
        <ele>218.5</ele>
        <time>2024-02-04T13:17:10Z</time>
      </trkpt>
      <trkpt lat="43.17198" lon="6.5018">
        <ele>218.6</ele>
        <time>2024-02-04T13:17:11Z</time>
      </trkpt>
      <trkpt lat="43.17198" lon="6.5018">
        <ele>218.6</ele>
        <time>2024-02-04T13:17:12Z</time>
      </trkpt>
      <trkpt lat="43.17198" lon="6.5018">
        <ele>218.7</ele>
        <time>2024-02-04T13:17:13Z</time>
      </trkpt>
      <trkpt lat="43.17198" lon="6.50179">
        <ele>218.8</ele>
        <time>2024-02-04T13:17:14Z</time>
      </trkpt>
      <trkpt lat="43.17198" lon="6.50179">
        <ele>218.7</ele>
        <time>2024-02-04T13:17:15Z</time>
      </trkpt>
      <trkpt lat="43.17198" lon="6.50179">
        <ele>218.8</ele>
        <time>2024-02-04T13:17:16Z</time>
      </trkpt>
      <trkpt lat="43.17198" lon="6.50179">
        <ele>218.8</ele>
        <time>2024-02-04T13:17:17Z</time>
      </trkpt>
      <trkpt lat="43.17198" lon="6.50179">
        <ele>218.8</ele>
        <time>2024-02-04T13:17:18Z</time>
      </trkpt>
      <trkpt lat="43.17198" lon="6.50179">
        <ele>218.8</ele>
        <time>2024-02-04T13:17:19Z</time>
      </trkpt>
      <trkpt lat="43.17198" lon="6.50179">
        <ele>218.8</ele>
        <time>2024-02-04T13:17:20Z</time>
      </trkpt>
      <trkpt lat="43.17198" lon="6.50179">
        <ele>218.8</ele>
        <time>2024-02-04T13:17:21Z</time>
      </trkpt>
      <trkpt lat="43.17198" lon="6.5018">
        <ele>218.8</ele>
        <time>2024-02-04T13:17:22Z</time>
      </trkpt>
      <trkpt lat="43.17198" lon="6.5018">
        <ele>218.7</ele>
        <time>2024-02-04T13:17:23Z</time>
      </trkpt>
      <trkpt lat="43.17198" lon="6.5018">
        <ele>218.8</ele>
        <time>2024-02-04T13:17:24Z</time>
      </trkpt>
      <trkpt lat="43.17197" lon="6.50179">
        <ele>218.7</ele>
        <time>2024-02-04T13:17:25Z</time>
      </trkpt>
      <trkpt lat="43.17197" lon="6.50179">
        <ele>218.6</ele>
        <time>2024-02-04T13:17:26Z</time>
      </trkpt>
      <trkpt lat="43.17197" lon="6.50179">
        <ele>218.5</ele>
        <time>2024-02-04T13:17:27Z</time>
      </trkpt>
      <trkpt lat="43.17197" lon="6.50179">
        <ele>218.6</ele>
        <time>2024-02-04T13:17:28Z</time>
      </trkpt>
      <trkpt lat="43.17197" lon="6.50179">
        <ele>218.7</ele>
        <time>2024-02-04T13:17:29Z</time>
      </trkpt>
      <trkpt lat="43.17197" lon="6.50179">
        <ele>218.7</ele>
        <time>2024-02-04T13:17:30Z</time>
      </trkpt>
      <trkpt lat="43.17197" lon="6.50179">
        <ele>218.7</ele>
        <time>2024-02-04T13:17:31Z</time>
      </trkpt>
      <trkpt lat="43.17197" lon="6.50179">
        <ele>218.6</ele>
        <time>2024-02-04T13:17:32Z</time>
      </trkpt>
      <trkpt lat="43.17197" lon="6.50179">
        <ele>218.6</ele>
        <time>2024-02-04T13:17:33Z</time>
      </trkpt>
      <trkpt lat="43.17197" lon="6.50179">
        <ele>218.5</ele>
        <time>2024-02-04T13:17:34Z</time>
      </trkpt>
      <trkpt lat="43.17197" lon="6.50179">
        <ele>218.6</ele>
        <time>2024-02-04T13:17:35Z</time>
      </trkpt>
      <trkpt lat="43.17197" lon="6.50179">
        <ele>218.6</ele>
        <time>2024-02-04T13:17:36Z</time>
      </trkpt>
      <trkpt lat="43.17197" lon="6.50179">
        <ele>218.7</ele>
        <time>2024-02-04T13:17:37Z</time>
      </trkpt>
      <trkpt lat="43.17197" lon="6.50179">
        <ele>218.7</ele>
        <time>2024-02-04T13:17:38Z</time>
      </trkpt>
      <trkpt lat="43.17197" lon="6.5018">
        <ele>218.8</ele>
        <time>2024-02-04T13:17:39Z</time>
      </trkpt>
      <trkpt lat="43.17197" lon="6.5018">
        <ele>218.8</ele>
        <time>2024-02-04T13:17:40Z</time>
      </trkpt>
      <trkpt lat="43.17197" lon="6.50179">
        <ele>218.7</ele>
        <time>2024-02-04T13:17:41Z</time>
      </trkpt>
      <trkpt lat="43.17197" lon="6.50179">
        <ele>218.8</ele>
        <time>2024-02-04T13:17:42Z</time>
      </trkpt>
      <trkpt lat="43.17197" lon="6.5018">
        <ele>218.7</ele>
        <time>2024-02-04T13:17:43Z</time>
      </trkpt>
      <trkpt lat="43.17197" lon="6.50179">
        <ele>218.7</ele>
        <time>2024-02-04T13:17:44Z</time>
      </trkpt>
      <trkpt lat="43.17197" lon="6.50179">
        <ele>218.7</ele>
        <time>2024-02-04T13:17:45Z</time>
      </trkpt>
      <trkpt lat="43.17197" lon="6.50179">
        <ele>218.8</ele>
        <time>2024-02-04T13:17:46Z</time>
      </trkpt>
      <trkpt lat="43.17197" lon="6.50179">
        <ele>218.8</ele>
        <time>2024-02-04T13:17:47Z</time>
      </trkpt>
      <trkpt lat="43.17197" lon="6.50179">
        <ele>218.8</ele>
        <time>2024-02-04T13:17:48Z</time>
      </trkpt>
      <trkpt lat="43.17197" lon="6.50179">
        <ele>218.8</ele>
        <time>2024-02-04T13:17:49Z</time>
      </trkpt>
      <trkpt lat="43.17197" lon="6.50179">
        <ele>218.8</ele>
        <time>2024-02-04T13:17:50Z</time>
      </trkpt>
      <trkpt lat="43.17197" lon="6.50179">
        <ele>218.8</ele>
        <time>2024-02-04T13:17:51Z</time>
      </trkpt>
      <trkpt lat="43.17197" lon="6.50179">
        <ele>218.8</ele>
        <time>2024-02-04T13:17:52Z</time>
      </trkpt>
      <trkpt lat="43.17197" lon="6.50179">
        <ele>218.8</ele>
        <time>2024-02-04T13:17:53Z</time>
      </trkpt>
      <trkpt lat="43.17197" lon="6.50179">
        <ele>218.8</ele>
        <time>2024-02-04T13:17:54Z</time>
      </trkpt>
      <trkpt lat="43.17197" lon="6.50179">
        <ele>218.8</ele>
        <time>2024-02-04T13:17:55Z</time>
      </trkpt>
      <trkpt lat="43.17197" lon="6.50179">
        <ele>218.8</ele>
        <time>2024-02-04T13:17:56Z</time>
      </trkpt>
      <trkpt lat="43.17197" lon="6.50179">
        <ele>218.7</ele>
        <time>2024-02-04T13:17:57Z</time>
      </trkpt>
      <trkpt lat="43.17197" lon="6.50179">
        <ele>218.7</ele>
        <time>2024-02-04T13:17:58Z</time>
      </trkpt>
      <trkpt lat="43.17197" lon="6.50179">
        <ele>218.7</ele>
        <time>2024-02-04T13:17:59Z</time>
      </trkpt>
      <trkpt lat="43.17197" lon="6.50179">
        <ele>218.8</ele>
        <time>2024-02-04T13:18:00Z</time>
      </trkpt>
      <trkpt lat="43.17197" lon="6.50179">
        <ele>218.7</ele>
        <time>2024-02-04T13:18:01Z</time>
      </trkpt>
      <trkpt lat="43.17197" lon="6.50179">
        <ele>218.7</ele>
        <time>2024-02-04T13:18:02Z</time>
      </trkpt>
      <trkpt lat="43.17197" lon="6.50179">
        <ele>218.7</ele>
        <time>2024-02-04T13:18:03Z</time>
      </trkpt>
      <trkpt lat="43.17197" lon="6.50179">
        <ele>218.7</ele>
        <time>2024-02-04T13:18:04Z</time>
      </trkpt>
      <trkpt lat="43.17197" lon="6.50179">
        <ele>218.6</ele>
        <time>2024-02-04T13:18:05Z</time>
      </trkpt>
      <trkpt lat="43.17197" lon="6.50178">
        <ele>218.6</ele>
        <time>2024-02-04T13:18:06Z</time>
      </trkpt>
      <trkpt lat="43.17196" lon="6.50178">
        <ele>218.6</ele>
        <time>2024-02-04T13:18:07Z</time>
      </trkpt>
      <trkpt lat="43.17196" lon="6.50179">
        <ele>218.6</ele>
        <time>2024-02-04T13:18:08Z</time>
      </trkpt>
      <trkpt lat="43.17195" lon="6.50179">
        <ele>218.6</ele>
        <time>2024-02-04T13:18:09Z</time>
      </trkpt>
      <trkpt lat="43.17195" lon="6.50178">
        <ele>218.7</ele>
        <time>2024-02-04T13:18:10Z</time>
      </trkpt>
      <trkpt lat="43.17194" lon="6.50178">
        <ele>218.7</ele>
        <time>2024-02-04T13:18:11Z</time>
      </trkpt>
      <trkpt lat="43.17194" lon="6.50178">
        <ele>218.7</ele>
        <time>2024-02-04T13:18:12Z</time>
      </trkpt>
      <trkpt lat="43.17194" lon="6.50178">
        <ele>218.7</ele>
        <time>2024-02-04T13:18:13Z</time>
      </trkpt>
      <trkpt lat="43.17194" lon="6.50177">
        <ele>218.6</ele>
        <time>2024-02-04T13:18:14Z</time>
      </trkpt>
      <trkpt lat="43.17194" lon="6.50177">
        <ele>218.6</ele>
        <time>2024-02-04T13:18:15Z</time>
      </trkpt>
      <trkpt lat="43.17194" lon="6.50177">
        <ele>218.6</ele>
        <time>2024-02-04T13:18:16Z</time>
      </trkpt>
      <trkpt lat="43.17193" lon="6.50176">
        <ele>218.5</ele>
        <time>2024-02-04T13:18:17Z</time>
      </trkpt>
      <trkpt lat="43.17192" lon="6.50176">
        <ele>218.4</ele>
        <time>2024-02-04T13:18:18Z</time>
      </trkpt>
      <trkpt lat="43.17191" lon="6.50176">
        <ele>218.4</ele>
        <time>2024-02-04T13:18:19Z</time>
      </trkpt>
      <trkpt lat="43.17191" lon="6.50176">
        <ele>218.3</ele>
        <time>2024-02-04T13:18:20Z</time>
      </trkpt>
      <trkpt lat="43.1719" lon="6.50176">
        <ele>218.3</ele>
        <time>2024-02-04T13:18:21Z</time>
      </trkpt>
      <trkpt lat="43.17189" lon="6.50176">
        <ele>218.3</ele>
        <time>2024-02-04T13:18:22Z</time>
      </trkpt>
      <trkpt lat="43.17189" lon="6.50176">
        <ele>218.3</ele>
        <time>2024-02-04T13:18:23Z</time>
      </trkpt>
      <trkpt lat="43.17188" lon="6.50176">
        <ele>218.3</ele>
        <time>2024-02-04T13:18:24Z</time>
      </trkpt>
      <trkpt lat="43.17187" lon="6.50177">
        <ele>218.1</ele>
        <time>2024-02-04T13:18:25Z</time>
      </trkpt>
      <trkpt lat="43.17186" lon="6.50177">
        <ele>218</ele>
        <time>2024-02-04T13:18:26Z</time>
      </trkpt>
      <trkpt lat="43.17185" lon="6.50176">
        <ele>218</ele>
        <time>2024-02-04T13:18:27Z</time>
      </trkpt>
      <trkpt lat="43.17184" lon="6.50176">
        <ele>217.9</ele>
        <time>2024-02-04T13:18:28Z</time>
      </trkpt>
      <trkpt lat="43.17183" lon="6.50176">
        <ele>217.8</ele>
        <time>2024-02-04T13:18:29Z</time>
      </trkpt>
      <trkpt lat="43.17182" lon="6.50176">
        <ele>217.8</ele>
        <time>2024-02-04T13:18:30Z</time>
      </trkpt>
      <trkpt lat="43.17181" lon="6.50176">
        <ele>217.7</ele>
        <time>2024-02-04T13:18:31Z</time>
      </trkpt>
      <trkpt lat="43.1718" lon="6.50176">
        <ele>217.6</ele>
        <time>2024-02-04T13:18:32Z</time>
      </trkpt>
      <trkpt lat="43.17179" lon="6.50176">
        <ele>217.5</ele>
        <time>2024-02-04T13:18:33Z</time>
      </trkpt>
      <trkpt lat="43.17178" lon="6.50176">
        <ele>217.3</ele>
        <time>2024-02-04T13:18:34Z</time>
      </trkpt>
      <trkpt lat="43.17177" lon="6.50175">
        <ele>217.2</ele>
        <time>2024-02-04T13:18:35Z</time>
      </trkpt>
      <trkpt lat="43.17176" lon="6.50175">
        <ele>217.2</ele>
        <time>2024-02-04T13:18:36Z</time>
      </trkpt>
      <trkpt lat="43.17175" lon="6.50175">
        <ele>217.1</ele>
        <time>2024-02-04T13:18:37Z</time>
      </trkpt>
      <trkpt lat="43.17174" lon="6.50175">
        <ele>216.9</ele>
        <time>2024-02-04T13:18:38Z</time>
      </trkpt>
      <trkpt lat="43.17173" lon="6.50175">
        <ele>216.7</ele>
        <time>2024-02-04T13:18:39Z</time>
      </trkpt>
      <trkpt lat="43.17172" lon="6.50174">
        <ele>216.6</ele>
        <time>2024-02-04T13:18:40Z</time>
      </trkpt>
      <trkpt lat="43.17171" lon="6.50174">
        <ele>216.4</ele>
        <time>2024-02-04T13:18:41Z</time>
      </trkpt>
      <trkpt lat="43.1717" lon="6.50174">
        <ele>216.2</ele>
        <time>2024-02-04T13:18:42Z</time>
      </trkpt>
      <trkpt lat="43.17169" lon="6.50174">
        <ele>216.1</ele>
        <time>2024-02-04T13:18:43Z</time>
      </trkpt>
      <trkpt lat="43.17168" lon="6.50174">
        <ele>216</ele>
        <time>2024-02-04T13:18:44Z</time>
      </trkpt>
      <trkpt lat="43.17167" lon="6.50174">
        <ele>215.9</ele>
        <time>2024-02-04T13:18:45Z</time>
      </trkpt>
      <trkpt lat="43.17166" lon="6.50173">
        <ele>215.8</ele>
        <time>2024-02-04T13:18:46Z</time>
      </trkpt>
      <trkpt lat="43.17166" lon="6.50173">
        <ele>215.7</ele>
        <time>2024-02-04T13:18:47Z</time>
      </trkpt>
      <trkpt lat="43.17165" lon="6.50173">
        <ele>215.6</ele>
        <time>2024-02-04T13:18:48Z</time>
      </trkpt>
      <trkpt lat="43.17164" lon="6.50173">
        <ele>215.5</ele>
        <time>2024-02-04T13:18:49Z</time>
      </trkpt>
      <trkpt lat="43.17163" lon="6.50172">
        <ele>215.4</ele>
        <time>2024-02-04T13:18:50Z</time>
      </trkpt>
      <trkpt lat="43.17162" lon="6.50172">
        <ele>215.4</ele>
        <time>2024-02-04T13:18:51Z</time>
      </trkpt>
      <trkpt lat="43.17161" lon="6.50172">
        <ele>215.3</ele>
        <time>2024-02-04T13:18:52Z</time>
      </trkpt>
      <trkpt lat="43.1716" lon="6.50172">
        <ele>215.2</ele>
        <time>2024-02-04T13:18:53Z</time>
      </trkpt>
      <trkpt lat="43.17159" lon="6.50172">
        <ele>215.3</ele>
        <time>2024-02-04T13:18:54Z</time>
      </trkpt>
      <trkpt lat="43.17158" lon="6.50172">
        <ele>215.3</ele>
        <time>2024-02-04T13:18:55Z</time>
      </trkpt>
      <trkpt lat="43.17157" lon="6.50171">
        <ele>215.3</ele>
        <time>2024-02-04T13:18:56Z</time>
      </trkpt>
      <trkpt lat="43.17155" lon="6.50171">
        <ele>215.3</ele>
        <time>2024-02-04T13:18:57Z</time>
      </trkpt>
      <trkpt lat="43.17154" lon="6.50171">
        <ele>215.3</ele>
        <time>2024-02-04T13:18:58Z</time>
      </trkpt>
      <trkpt lat="43.17153" lon="6.50171">
        <ele>215.2</ele>
        <time>2024-02-04T13:18:59Z</time>
      </trkpt>
      <trkpt lat="43.17151" lon="6.50171">
        <ele>215.1</ele>
        <time>2024-02-04T13:19:00Z</time>
      </trkpt>
      <trkpt lat="43.1715" lon="6.50172">
        <ele>214.9</ele>
        <time>2024-02-04T13:19:01Z</time>
      </trkpt>
      <trkpt lat="43.17149" lon="6.50172">
        <ele>214.8</ele>
        <time>2024-02-04T13:19:02Z</time>
      </trkpt>
      <trkpt lat="43.17148" lon="6.50172">
        <ele>214.6</ele>
        <time>2024-02-04T13:19:03Z</time>
      </trkpt>
      <trkpt lat="43.17147" lon="6.50172">
        <ele>214.4</ele>
        <time>2024-02-04T13:19:04Z</time>
      </trkpt>
      <trkpt lat="43.17146" lon="6.50173">
        <ele>214.4</ele>
        <time>2024-02-04T13:19:05Z</time>
      </trkpt>
      <trkpt lat="43.17145" lon="6.50173">
        <ele>214.2</ele>
        <time>2024-02-04T13:19:06Z</time>
      </trkpt>
      <trkpt lat="43.17144" lon="6.50173">
        <ele>214.1</ele>
        <time>2024-02-04T13:19:07Z</time>
      </trkpt>
      <trkpt lat="43.17143" lon="6.50173">
        <ele>214</ele>
        <time>2024-02-04T13:19:08Z</time>
      </trkpt>
      <trkpt lat="43.17142" lon="6.50173">
        <ele>213.9</ele>
        <time>2024-02-04T13:19:09Z</time>
      </trkpt>
      <trkpt lat="43.17141" lon="6.50174">
        <ele>213.7</ele>
        <time>2024-02-04T13:19:10Z</time>
      </trkpt>
      <trkpt lat="43.1714" lon="6.50174">
        <ele>213.6</ele>
        <time>2024-02-04T13:19:11Z</time>
      </trkpt>
      <trkpt lat="43.17139" lon="6.50174">
        <ele>213.6</ele>
        <time>2024-02-04T13:19:12Z</time>
      </trkpt>
      <trkpt lat="43.17138" lon="6.50174">
        <ele>213.5</ele>
        <time>2024-02-04T13:19:13Z</time>
      </trkpt>
      <trkpt lat="43.17137" lon="6.50174">
        <ele>213.4</ele>
        <time>2024-02-04T13:19:14Z</time>
      </trkpt>
      <trkpt lat="43.17136" lon="6.50174">
        <ele>213.3</ele>
        <time>2024-02-04T13:19:15Z</time>
      </trkpt>
      <trkpt lat="43.17135" lon="6.50174">
        <ele>213.2</ele>
        <time>2024-02-04T13:19:16Z</time>
      </trkpt>
      <trkpt lat="43.17134" lon="6.50175">
        <ele>213.1</ele>
        <time>2024-02-04T13:19:17Z</time>
      </trkpt>
      <trkpt lat="43.17133" lon="6.50175">
        <ele>213.1</ele>
        <time>2024-02-04T13:19:18Z</time>
      </trkpt>
      <trkpt lat="43.17133" lon="6.50175">
        <ele>213.1</ele>
        <time>2024-02-04T13:19:19Z</time>
      </trkpt>
      <trkpt lat="43.17132" lon="6.50175">
        <ele>213</ele>
        <time>2024-02-04T13:19:20Z</time>
      </trkpt>
      <trkpt lat="43.17131" lon="6.50175">
        <ele>212.9</ele>
        <time>2024-02-04T13:19:21Z</time>
      </trkpt>
      <trkpt lat="43.1713" lon="6.50175">
        <ele>212.8</ele>
        <time>2024-02-04T13:19:22Z</time>
      </trkpt>
      <trkpt lat="43.17129" lon="6.50175">
        <ele>212.7</ele>
        <time>2024-02-04T13:19:23Z</time>
      </trkpt>
      <trkpt lat="43.17128" lon="6.50175">
        <ele>212.6</ele>
        <time>2024-02-04T13:19:24Z</time>
      </trkpt>
      <trkpt lat="43.17128" lon="6.50175">
        <ele>212.5</ele>
        <time>2024-02-04T13:19:25Z</time>
      </trkpt>
      <trkpt lat="43.17127" lon="6.50175">
        <ele>212.4</ele>
        <time>2024-02-04T13:19:26Z</time>
      </trkpt>
      <trkpt lat="43.17126" lon="6.50175">
        <ele>212.3</ele>
        <time>2024-02-04T13:19:27Z</time>
      </trkpt>
      <trkpt lat="43.17125" lon="6.50175">
        <ele>212.2</ele>
        <time>2024-02-04T13:19:28Z</time>
      </trkpt>
      <trkpt lat="43.17124" lon="6.50174">
        <ele>212.2</ele>
        <time>2024-02-04T13:19:29Z</time>
      </trkpt>
      <trkpt lat="43.17123" lon="6.50174">
        <ele>212.1</ele>
        <time>2024-02-04T13:19:30Z</time>
      </trkpt>
      <trkpt lat="43.17122" lon="6.50174">
        <ele>212.1</ele>
        <time>2024-02-04T13:19:31Z</time>
      </trkpt>
      <trkpt lat="43.17121" lon="6.50174">
        <ele>212</ele>
        <time>2024-02-04T13:19:32Z</time>
      </trkpt>
      <trkpt lat="43.1712" lon="6.50174">
        <ele>212</ele>
        <time>2024-02-04T13:19:33Z</time>
      </trkpt>
      <trkpt lat="43.17119" lon="6.50174">
        <ele>211.9</ele>
        <time>2024-02-04T13:19:34Z</time>
      </trkpt>
      <trkpt lat="43.17118" lon="6.50173">
        <ele>211.8</ele>
        <time>2024-02-04T13:19:35Z</time>
      </trkpt>
      <trkpt lat="43.17117" lon="6.50173">
        <ele>211.7</ele>
        <time>2024-02-04T13:19:36Z</time>
      </trkpt>
      <trkpt lat="43.17116" lon="6.50173">
        <ele>211.7</ele>
        <time>2024-02-04T13:19:37Z</time>
      </trkpt>
      <trkpt lat="43.17115" lon="6.50173">
        <ele>211.7</ele>
        <time>2024-02-04T13:19:38Z</time>
      </trkpt>
      <trkpt lat="43.17114" lon="6.50173">
        <ele>211.6</ele>
        <time>2024-02-04T13:19:39Z</time>
      </trkpt>
      <trkpt lat="43.17114" lon="6.50173">
        <ele>211.6</ele>
        <time>2024-02-04T13:19:40Z</time>
      </trkpt>
      <trkpt lat="43.17113" lon="6.50172">
        <ele>211.5</ele>
        <time>2024-02-04T13:19:41Z</time>
      </trkpt>
      <trkpt lat="43.17112" lon="6.50172">
        <ele>211.5</ele>
        <time>2024-02-04T13:19:42Z</time>
      </trkpt>
      <trkpt lat="43.17111" lon="6.50171">
        <ele>211.5</ele>
        <time>2024-02-04T13:19:43Z</time>
      </trkpt>
      <trkpt lat="43.1711" lon="6.50171">
        <ele>211.4</ele>
        <time>2024-02-04T13:19:44Z</time>
      </trkpt>
      <trkpt lat="43.17109" lon="6.50171">
        <ele>211.4</ele>
        <time>2024-02-04T13:19:45Z</time>
      </trkpt>
      <trkpt lat="43.17108" lon="6.50171">
        <ele>211.2</ele>
        <time>2024-02-04T13:19:46Z</time>
      </trkpt>
      <trkpt lat="43.17107" lon="6.50171">
        <ele>211.1</ele>
        <time>2024-02-04T13:19:47Z</time>
      </trkpt>
      <trkpt lat="43.17107" lon="6.50171">
        <ele>211</ele>
        <time>2024-02-04T13:19:48Z</time>
      </trkpt>
      <trkpt lat="43.17106" lon="6.5017">
        <ele>211.1</ele>
        <time>2024-02-04T13:19:49Z</time>
      </trkpt>
      <trkpt lat="43.17105" lon="6.5017">
        <ele>211.1</ele>
        <time>2024-02-04T13:19:50Z</time>
      </trkpt>
      <trkpt lat="43.17104" lon="6.5017">
        <ele>211.1</ele>
        <time>2024-02-04T13:19:51Z</time>
      </trkpt>
      <trkpt lat="43.17103" lon="6.50169">
        <ele>211.1</ele>
        <time>2024-02-04T13:19:52Z</time>
      </trkpt>
      <trkpt lat="43.17102" lon="6.50169">
        <ele>211</ele>
        <time>2024-02-04T13:19:53Z</time>
      </trkpt>
      <trkpt lat="43.17102" lon="6.50168">
        <ele>211</ele>
        <time>2024-02-04T13:19:54Z</time>
      </trkpt>
      <trkpt lat="43.17101" lon="6.50168">
        <ele>210.9</ele>
        <time>2024-02-04T13:19:55Z</time>
      </trkpt>
      <trkpt lat="43.171" lon="6.50167">
        <ele>210.9</ele>
        <time>2024-02-04T13:19:56Z</time>
      </trkpt>
      <trkpt lat="43.17099" lon="6.50166">
        <ele>210.7</ele>
        <time>2024-02-04T13:19:57Z</time>
      </trkpt>
      <trkpt lat="43.17098" lon="6.50166">
        <ele>210.7</ele>
        <time>2024-02-04T13:19:58Z</time>
      </trkpt>
      <trkpt lat="43.17097" lon="6.50166">
        <ele>210.6</ele>
        <time>2024-02-04T13:19:59Z</time>
      </trkpt>
      <trkpt lat="43.17096" lon="6.50165">
        <ele>210.5</ele>
        <time>2024-02-04T13:20:00Z</time>
      </trkpt>
      <trkpt lat="43.17095" lon="6.50164">
        <ele>210.5</ele>
        <time>2024-02-04T13:20:01Z</time>
      </trkpt>
      <trkpt lat="43.17094" lon="6.50164">
        <ele>210.5</ele>
        <time>2024-02-04T13:20:02Z</time>
      </trkpt>
      <trkpt lat="43.17094" lon="6.50163">
        <ele>210.3</ele>
        <time>2024-02-04T13:20:03Z</time>
      </trkpt>
      <trkpt lat="43.17093" lon="6.50163">
        <ele>210.2</ele>
        <time>2024-02-04T13:20:04Z</time>
      </trkpt>
      <trkpt lat="43.17092" lon="6.50163">
        <ele>210.1</ele>
        <time>2024-02-04T13:20:05Z</time>
      </trkpt>
      <trkpt lat="43.17091" lon="6.50162">
        <ele>210</ele>
        <time>2024-02-04T13:20:06Z</time>
      </trkpt>
      <trkpt lat="43.1709" lon="6.50162">
        <ele>209.8</ele>
        <time>2024-02-04T13:20:07Z</time>
      </trkpt>
      <trkpt lat="43.17089" lon="6.50161">
        <ele>209.6</ele>
        <time>2024-02-04T13:20:08Z</time>
      </trkpt>
      <trkpt lat="43.17088" lon="6.50161">
        <ele>209.5</ele>
        <time>2024-02-04T13:20:09Z</time>
      </trkpt>
      <trkpt lat="43.17087" lon="6.50161">
        <ele>209.5</ele>
        <time>2024-02-04T13:20:10Z</time>
      </trkpt>
      <trkpt lat="43.17087" lon="6.50161">
        <ele>209.4</ele>
        <time>2024-02-04T13:20:11Z</time>
      </trkpt>
      <trkpt lat="43.17086" lon="6.5016">
        <ele>209.3</ele>
        <time>2024-02-04T13:20:12Z</time>
      </trkpt>
      <trkpt lat="43.17085" lon="6.5016">
        <ele>209.3</ele>
        <time>2024-02-04T13:20:13Z</time>
      </trkpt>
      <trkpt lat="43.17085" lon="6.5016">
        <ele>209.2</ele>
        <time>2024-02-04T13:20:14Z</time>
      </trkpt>
      <trkpt lat="43.17084" lon="6.50159">
        <ele>209.1</ele>
        <time>2024-02-04T13:20:15Z</time>
      </trkpt>
      <trkpt lat="43.17083" lon="6.50159">
        <ele>209</ele>
        <time>2024-02-04T13:20:16Z</time>
      </trkpt>
      <trkpt lat="43.17083" lon="6.50158">
        <ele>208.9</ele>
        <time>2024-02-04T13:20:17Z</time>
      </trkpt>
      <trkpt lat="43.17082" lon="6.50158">
        <ele>208.8</ele>
        <time>2024-02-04T13:20:18Z</time>
      </trkpt>
      <trkpt lat="43.17081" lon="6.50158">
        <ele>208.7</ele>
        <time>2024-02-04T13:20:19Z</time>
      </trkpt>
      <trkpt lat="43.17081" lon="6.50158">
        <ele>208.5</ele>
        <time>2024-02-04T13:20:20Z</time>
      </trkpt>
      <trkpt lat="43.1708" lon="6.50157">
        <ele>208.3</ele>
        <time>2024-02-04T13:20:21Z</time>
      </trkpt>
      <trkpt lat="43.17079" lon="6.50156">
        <ele>208.1</ele>
        <time>2024-02-04T13:20:22Z</time>
      </trkpt>
      <trkpt lat="43.17079" lon="6.50156">
        <ele>207.9</ele>
        <time>2024-02-04T13:20:23Z</time>
      </trkpt>
      <trkpt lat="43.17078" lon="6.50155">
        <ele>207.7</ele>
        <time>2024-02-04T13:20:24Z</time>
      </trkpt>
      <trkpt lat="43.17077" lon="6.50155">
        <ele>207.5</ele>
        <time>2024-02-04T13:20:25Z</time>
      </trkpt>
      <trkpt lat="43.17076" lon="6.50155">
        <ele>207.3</ele>
        <time>2024-02-04T13:20:26Z</time>
      </trkpt>
      <trkpt lat="43.17075" lon="6.50155">
        <ele>207.1</ele>
        <time>2024-02-04T13:20:27Z</time>
      </trkpt>
      <trkpt lat="43.17074" lon="6.50155">
        <ele>206.9</ele>
        <time>2024-02-04T13:20:28Z</time>
      </trkpt>
      <trkpt lat="43.17073" lon="6.50155">
        <ele>206.8</ele>
        <time>2024-02-04T13:20:29Z</time>
      </trkpt>
      <trkpt lat="43.17073" lon="6.50155">
        <ele>206.7</ele>
        <time>2024-02-04T13:20:30Z</time>
      </trkpt>
      <trkpt lat="43.17072" lon="6.50154">
        <ele>206.5</ele>
        <time>2024-02-04T13:20:31Z</time>
      </trkpt>
      <trkpt lat="43.17071" lon="6.50154">
        <ele>206.4</ele>
        <time>2024-02-04T13:20:32Z</time>
      </trkpt>
      <trkpt lat="43.17071" lon="6.50154">
        <ele>206.2</ele>
        <time>2024-02-04T13:20:33Z</time>
      </trkpt>
      <trkpt lat="43.1707" lon="6.50154">
        <ele>206</ele>
        <time>2024-02-04T13:20:34Z</time>
      </trkpt>
      <trkpt lat="43.1707" lon="6.50154">
        <ele>205.8</ele>
        <time>2024-02-04T13:20:35Z</time>
      </trkpt>
      <trkpt lat="43.17069" lon="6.50154">
        <ele>205.7</ele>
        <time>2024-02-04T13:20:36Z</time>
      </trkpt>
      <trkpt lat="43.17068" lon="6.50153">
        <ele>205.4</ele>
        <time>2024-02-04T13:20:37Z</time>
      </trkpt>
      <trkpt lat="43.17068" lon="6.50154">
        <ele>205.2</ele>
        <time>2024-02-04T13:20:38Z</time>
      </trkpt>
      <trkpt lat="43.17067" lon="6.50154">
        <ele>205.1</ele>
        <time>2024-02-04T13:20:39Z</time>
      </trkpt>
      <trkpt lat="43.17066" lon="6.50154">
        <ele>205</ele>
        <time>2024-02-04T13:20:40Z</time>
      </trkpt>
      <trkpt lat="43.17065" lon="6.50154">
        <ele>204.9</ele>
        <time>2024-02-04T13:20:41Z</time>
      </trkpt>
      <trkpt lat="43.17064" lon="6.50154">
        <ele>204.7</ele>
        <time>2024-02-04T13:20:42Z</time>
      </trkpt>
      <trkpt lat="43.17063" lon="6.50154">
        <ele>204.5</ele>
        <time>2024-02-04T13:20:43Z</time>
      </trkpt>
      <trkpt lat="43.17062" lon="6.50153">
        <ele>204.3</ele>
        <time>2024-02-04T13:20:44Z</time>
      </trkpt>
      <trkpt lat="43.17061" lon="6.50153">
        <ele>204.1</ele>
        <time>2024-02-04T13:20:45Z</time>
      </trkpt>
      <trkpt lat="43.1706" lon="6.50153">
        <ele>203.8</ele>
        <time>2024-02-04T13:20:46Z</time>
      </trkpt>
      <trkpt lat="43.17059" lon="6.50152">
        <ele>203.6</ele>
        <time>2024-02-04T13:20:47Z</time>
      </trkpt>
      <trkpt lat="43.17058" lon="6.50152">
        <ele>203.5</ele>
        <time>2024-02-04T13:20:48Z</time>
      </trkpt>
      <trkpt lat="43.17057" lon="6.50152">
        <ele>203.3</ele>
        <time>2024-02-04T13:20:49Z</time>
      </trkpt>
      <trkpt lat="43.17056" lon="6.50152">
        <ele>203.2</ele>
        <time>2024-02-04T13:20:50Z</time>
      </trkpt>
      <trkpt lat="43.17055" lon="6.50152">
        <ele>203.1</ele>
        <time>2024-02-04T13:20:51Z</time>
      </trkpt>
      <trkpt lat="43.17054" lon="6.50152">
        <ele>202.9</ele>
        <time>2024-02-04T13:20:52Z</time>
      </trkpt>
      <trkpt lat="43.17053" lon="6.50152">
        <ele>202.8</ele>
        <time>2024-02-04T13:20:53Z</time>
      </trkpt>
      <trkpt lat="43.17052" lon="6.50152">
        <ele>202.7</ele>
        <time>2024-02-04T13:20:54Z</time>
      </trkpt>
      <trkpt lat="43.17051" lon="6.50152">
        <ele>202.7</ele>
        <time>2024-02-04T13:20:55Z</time>
      </trkpt>
      <trkpt lat="43.1705" lon="6.50152">
        <ele>202.6</ele>
        <time>2024-02-04T13:20:56Z</time>
      </trkpt>
      <trkpt lat="43.17049" lon="6.50152">
        <ele>202.5</ele>
        <time>2024-02-04T13:20:57Z</time>
      </trkpt>
      <trkpt lat="43.17049" lon="6.50151">
        <ele>202.4</ele>
        <time>2024-02-04T13:20:58Z</time>
      </trkpt>
      <trkpt lat="43.17048" lon="6.50151">
        <ele>202.4</ele>
        <time>2024-02-04T13:20:59Z</time>
      </trkpt>
      <trkpt lat="43.17047" lon="6.5015">
        <ele>202.3</ele>
        <time>2024-02-04T13:21:00Z</time>
      </trkpt>
      <trkpt lat="43.17046" lon="6.5015">
        <ele>202.1</ele>
        <time>2024-02-04T13:21:01Z</time>
      </trkpt>
      <trkpt lat="43.17045" lon="6.5015">
        <ele>202</ele>
        <time>2024-02-04T13:21:02Z</time>
      </trkpt>
      <trkpt lat="43.17044" lon="6.5015">
        <ele>201.8</ele>
        <time>2024-02-04T13:21:03Z</time>
      </trkpt>
      <trkpt lat="43.17043" lon="6.5015">
        <ele>201.6</ele>
        <time>2024-02-04T13:21:04Z</time>
      </trkpt>
      <trkpt lat="43.17043" lon="6.5015">
        <ele>201.5</ele>
        <time>2024-02-04T13:21:05Z</time>
      </trkpt>
      <trkpt lat="43.17042" lon="6.5015">
        <ele>201.4</ele>
        <time>2024-02-04T13:21:06Z</time>
      </trkpt>
      <trkpt lat="43.17041" lon="6.5015">
        <ele>201.2</ele>
        <time>2024-02-04T13:21:07Z</time>
      </trkpt>
      <trkpt lat="43.1704" lon="6.5015">
        <ele>201</ele>
        <time>2024-02-04T13:21:08Z</time>
      </trkpt>
      <trkpt lat="43.17039" lon="6.5015">
        <ele>200.7</ele>
        <time>2024-02-04T13:21:09Z</time>
      </trkpt>
      <trkpt lat="43.17038" lon="6.50149">
        <ele>200.5</ele>
        <time>2024-02-04T13:21:10Z</time>
      </trkpt>
      <trkpt lat="43.17037" lon="6.50149">
        <ele>200.3</ele>
        <time>2024-02-04T13:21:11Z</time>
      </trkpt>
      <trkpt lat="43.17036" lon="6.5015">
        <ele>200</ele>
        <time>2024-02-04T13:21:12Z</time>
      </trkpt>
      <trkpt lat="43.17035" lon="6.5015">
        <ele>199.7</ele>
        <time>2024-02-04T13:21:13Z</time>
      </trkpt>
      <trkpt lat="43.17034" lon="6.5015">
        <ele>199.4</ele>
        <time>2024-02-04T13:21:14Z</time>
      </trkpt>
      <trkpt lat="43.17034" lon="6.5015">
        <ele>199.1</ele>
        <time>2024-02-04T13:21:15Z</time>
      </trkpt>
      <trkpt lat="43.17033" lon="6.5015">
        <ele>198.8</ele>
        <time>2024-02-04T13:21:16Z</time>
      </trkpt>
      <trkpt lat="43.17032" lon="6.50149">
        <ele>198.7</ele>
        <time>2024-02-04T13:21:17Z</time>
      </trkpt>
      <trkpt lat="43.17031" lon="6.50149">
        <ele>198.4</ele>
        <time>2024-02-04T13:21:18Z</time>
      </trkpt>
      <trkpt lat="43.1703" lon="6.50149">
        <ele>198.1</ele>
        <time>2024-02-04T13:21:19Z</time>
      </trkpt>
      <trkpt lat="43.17029" lon="6.50148">
        <ele>197.9</ele>
        <time>2024-02-04T13:21:20Z</time>
      </trkpt>
      <trkpt lat="43.17028" lon="6.50148">
        <ele>197.7</ele>
        <time>2024-02-04T13:21:21Z</time>
      </trkpt>
      <trkpt lat="43.17027" lon="6.50147">
        <ele>197.4</ele>
        <time>2024-02-04T13:21:22Z</time>
      </trkpt>
      <trkpt lat="43.17026" lon="6.50147">
        <ele>197.2</ele>
        <time>2024-02-04T13:21:23Z</time>
      </trkpt>
      <trkpt lat="43.17025" lon="6.50147">
        <ele>197.1</ele>
        <time>2024-02-04T13:21:24Z</time>
      </trkpt>
      <trkpt lat="43.17025" lon="6.50147">
        <ele>196.9</ele>
        <time>2024-02-04T13:21:25Z</time>
      </trkpt>
      <trkpt lat="43.17024" lon="6.50146">
        <ele>196.7</ele>
        <time>2024-02-04T13:21:26Z</time>
      </trkpt>
      <trkpt lat="43.17023" lon="6.50146">
        <ele>196.5</ele>
        <time>2024-02-04T13:21:27Z</time>
      </trkpt>
      <trkpt lat="43.17022" lon="6.50146">
        <ele>196.4</ele>
        <time>2024-02-04T13:21:28Z</time>
      </trkpt>
      <trkpt lat="43.17021" lon="6.50147">
        <ele>196.2</ele>
        <time>2024-02-04T13:21:29Z</time>
      </trkpt>
      <trkpt lat="43.17021" lon="6.50147">
        <ele>196</ele>
        <time>2024-02-04T13:21:30Z</time>
      </trkpt>
      <trkpt lat="43.1702" lon="6.50147">
        <ele>195.9</ele>
        <time>2024-02-04T13:21:31Z</time>
      </trkpt>
      <trkpt lat="43.17019" lon="6.50147">
        <ele>195.7</ele>
        <time>2024-02-04T13:21:32Z</time>
      </trkpt>
      <trkpt lat="43.17019" lon="6.50147">
        <ele>195.6</ele>
        <time>2024-02-04T13:21:33Z</time>
      </trkpt>
      <trkpt lat="43.17018" lon="6.50147">
        <ele>195.3</ele>
        <time>2024-02-04T13:21:34Z</time>
      </trkpt>
      <trkpt lat="43.17017" lon="6.50147">
        <ele>195.1</ele>
        <time>2024-02-04T13:21:35Z</time>
      </trkpt>
      <trkpt lat="43.17015" lon="6.50146">
        <ele>194.9</ele>
        <time>2024-02-04T13:21:36Z</time>
      </trkpt>
      <trkpt lat="43.17014" lon="6.50146">
        <ele>194.7</ele>
        <time>2024-02-04T13:21:37Z</time>
      </trkpt>
      <trkpt lat="43.17013" lon="6.50146">
        <ele>194.5</ele>
        <time>2024-02-04T13:21:38Z</time>
      </trkpt>
      <trkpt lat="43.17013" lon="6.50145">
        <ele>194.5</ele>
        <time>2024-02-04T13:21:39Z</time>
      </trkpt>
      <trkpt lat="43.17011" lon="6.50145">
        <ele>194.4</ele>
        <time>2024-02-04T13:21:40Z</time>
      </trkpt>
      <trkpt lat="43.17011" lon="6.50145">
        <ele>194.3</ele>
        <time>2024-02-04T13:21:41Z</time>
      </trkpt>
      <trkpt lat="43.17009" lon="6.50144">
        <ele>194.3</ele>
        <time>2024-02-04T13:21:42Z</time>
      </trkpt>
      <trkpt lat="43.17008" lon="6.50144">
        <ele>194.2</ele>
        <time>2024-02-04T13:21:43Z</time>
      </trkpt>
      <trkpt lat="43.17007" lon="6.50144">
        <ele>194.2</ele>
        <time>2024-02-04T13:21:44Z</time>
      </trkpt>
      <trkpt lat="43.17006" lon="6.50144">
        <ele>194.1</ele>
        <time>2024-02-04T13:21:45Z</time>
      </trkpt>
      <trkpt lat="43.17005" lon="6.50144">
        <ele>194.1</ele>
        <time>2024-02-04T13:21:46Z</time>
      </trkpt>
      <trkpt lat="43.17003" lon="6.50143">
        <ele>194</ele>
        <time>2024-02-04T13:21:47Z</time>
      </trkpt>
      <trkpt lat="43.17002" lon="6.50143">
        <ele>194</ele>
        <time>2024-02-04T13:21:48Z</time>
      </trkpt>
      <trkpt lat="43.17001" lon="6.50143">
        <ele>193.9</ele>
        <time>2024-02-04T13:21:49Z</time>
      </trkpt>
      <trkpt lat="43.17" lon="6.50143">
        <ele>193.8</ele>
        <time>2024-02-04T13:21:50Z</time>
      </trkpt>
      <trkpt lat="43.16999" lon="6.50142">
        <ele>193.7</ele>
        <time>2024-02-04T13:21:51Z</time>
      </trkpt>
      <trkpt lat="43.16998" lon="6.50142">
        <ele>193.6</ele>
        <time>2024-02-04T13:21:52Z</time>
      </trkpt>
      <trkpt lat="43.16997" lon="6.50141">
        <ele>193.6</ele>
        <time>2024-02-04T13:21:53Z</time>
      </trkpt>
      <trkpt lat="43.16996" lon="6.50141">
        <ele>193.6</ele>
        <time>2024-02-04T13:21:54Z</time>
      </trkpt>
      <trkpt lat="43.16995" lon="6.5014">
        <ele>193.5</ele>
        <time>2024-02-04T13:21:55Z</time>
      </trkpt>
      <trkpt lat="43.16994" lon="6.5014">
        <ele>193.5</ele>
        <time>2024-02-04T13:21:56Z</time>
      </trkpt>
      <trkpt lat="43.16993" lon="6.5014">
        <ele>193.4</ele>
        <time>2024-02-04T13:21:57Z</time>
      </trkpt>
      <trkpt lat="43.16992" lon="6.50139">
        <ele>193.4</ele>
        <time>2024-02-04T13:21:58Z</time>
      </trkpt>
      <trkpt lat="43.16991" lon="6.50139">
        <ele>193.4</ele>
        <time>2024-02-04T13:21:59Z</time>
      </trkpt>
      <trkpt lat="43.1699" lon="6.50139">
        <ele>193.3</ele>
        <time>2024-02-04T13:22:00Z</time>
      </trkpt>
      <trkpt lat="43.16989" lon="6.50138">
        <ele>193.4</ele>
        <time>2024-02-04T13:22:01Z</time>
      </trkpt>
      <trkpt lat="43.16988" lon="6.50137">
        <ele>193.3</ele>
        <time>2024-02-04T13:22:02Z</time>
      </trkpt>
      <trkpt lat="43.16987" lon="6.50137">
        <ele>193.3</ele>
        <time>2024-02-04T13:22:03Z</time>
      </trkpt>
      <trkpt lat="43.16986" lon="6.50136">
        <ele>193.3</ele>
        <time>2024-02-04T13:22:04Z</time>
      </trkpt>
      <trkpt lat="43.16985" lon="6.50136">
        <ele>193.4</ele>
        <time>2024-02-04T13:22:05Z</time>
      </trkpt>
      <trkpt lat="43.16984" lon="6.50136">
        <ele>193.4</ele>
        <time>2024-02-04T13:22:06Z</time>
      </trkpt>
      <trkpt lat="43.16983" lon="6.50135">
        <ele>193.4</ele>
        <time>2024-02-04T13:22:07Z</time>
      </trkpt>
      <trkpt lat="43.16982" lon="6.50135">
        <ele>193.4</ele>
        <time>2024-02-04T13:22:08Z</time>
      </trkpt>
      <trkpt lat="43.16981" lon="6.50134">
        <ele>193.4</ele>
        <time>2024-02-04T13:22:09Z</time>
      </trkpt>
      <trkpt lat="43.1698" lon="6.50133">
        <ele>193.3</ele>
        <time>2024-02-04T13:22:10Z</time>
      </trkpt>
      <trkpt lat="43.16979" lon="6.50133">
        <ele>193.3</ele>
        <time>2024-02-04T13:22:11Z</time>
      </trkpt>
      <trkpt lat="43.16978" lon="6.50133">
        <ele>193.3</ele>
        <time>2024-02-04T13:22:12Z</time>
      </trkpt>
      <trkpt lat="43.16977" lon="6.50132">
        <ele>193.3</ele>
        <time>2024-02-04T13:22:13Z</time>
      </trkpt>
      <trkpt lat="43.16976" lon="6.50132">
        <ele>193.3</ele>
        <time>2024-02-04T13:22:14Z</time>
      </trkpt>
      <trkpt lat="43.16975" lon="6.50131">
        <ele>193.2</ele>
        <time>2024-02-04T13:22:15Z</time>
      </trkpt>
      <trkpt lat="43.16974" lon="6.50131">
        <ele>193.2</ele>
        <time>2024-02-04T13:22:16Z</time>
      </trkpt>
      <trkpt lat="43.16973" lon="6.50131">
        <ele>193.2</ele>
        <time>2024-02-04T13:22:17Z</time>
      </trkpt>
      <trkpt lat="43.16972" lon="6.50131">
        <ele>193.2</ele>
        <time>2024-02-04T13:22:18Z</time>
      </trkpt>
      <trkpt lat="43.16971" lon="6.5013">
        <ele>193.2</ele>
        <time>2024-02-04T13:22:19Z</time>
      </trkpt>
      <trkpt lat="43.1697" lon="6.5013">
        <ele>193.2</ele>
        <time>2024-02-04T13:22:20Z</time>
      </trkpt>
      <trkpt lat="43.16969" lon="6.50129">
        <ele>193.3</ele>
        <time>2024-02-04T13:22:21Z</time>
      </trkpt>
      <trkpt lat="43.16968" lon="6.50129">
        <ele>193.3</ele>
        <time>2024-02-04T13:22:22Z</time>
      </trkpt>
      <trkpt lat="43.16966" lon="6.50128">
        <ele>193.3</ele>
        <time>2024-02-04T13:22:23Z</time>
      </trkpt>
      <trkpt lat="43.16966" lon="6.50128">
        <ele>193.2</ele>
        <time>2024-02-04T13:22:24Z</time>
      </trkpt>
      <trkpt lat="43.16965" lon="6.50127">
        <ele>193.2</ele>
        <time>2024-02-04T13:22:25Z</time>
      </trkpt>
      <trkpt lat="43.16964" lon="6.50127">
        <ele>193.2</ele>
        <time>2024-02-04T13:22:26Z</time>
      </trkpt>
      <trkpt lat="43.16963" lon="6.50127">
        <ele>193.2</ele>
        <time>2024-02-04T13:22:27Z</time>
      </trkpt>
      <trkpt lat="43.16962" lon="6.50126">
        <ele>193.2</ele>
        <time>2024-02-04T13:22:28Z</time>
      </trkpt>
      <trkpt lat="43.16961" lon="6.50126">
        <ele>193.2</ele>
        <time>2024-02-04T13:22:29Z</time>
      </trkpt>
      <trkpt lat="43.1696" lon="6.50125">
        <ele>193.2</ele>
        <time>2024-02-04T13:22:30Z</time>
      </trkpt>
      <trkpt lat="43.16959" lon="6.50125">
        <ele>193.2</ele>
        <time>2024-02-04T13:22:31Z</time>
      </trkpt>
      <trkpt lat="43.16958" lon="6.50125">
        <ele>193.2</ele>
        <time>2024-02-04T13:22:32Z</time>
      </trkpt>
      <trkpt lat="43.16956" lon="6.50124">
        <ele>193.2</ele>
        <time>2024-02-04T13:22:33Z</time>
      </trkpt>
      <trkpt lat="43.16956" lon="6.50124">
        <ele>193.3</ele>
        <time>2024-02-04T13:22:34Z</time>
      </trkpt>
      <trkpt lat="43.16954" lon="6.50123">
        <ele>193.3</ele>
        <time>2024-02-04T13:22:35Z</time>
      </trkpt>
      <trkpt lat="43.16953" lon="6.50123">
        <ele>193.3</ele>
        <time>2024-02-04T13:22:36Z</time>
      </trkpt>
      <trkpt lat="43.16952" lon="6.50123">
        <ele>193.2</ele>
        <time>2024-02-04T13:22:37Z</time>
      </trkpt>
      <trkpt lat="43.16952" lon="6.50122">
        <ele>193.3</ele>
        <time>2024-02-04T13:22:38Z</time>
      </trkpt>
      <trkpt lat="43.16951" lon="6.50122">
        <ele>193.2</ele>
        <time>2024-02-04T13:22:39Z</time>
      </trkpt>
      <trkpt lat="43.1695" lon="6.50122">
        <ele>193.1</ele>
        <time>2024-02-04T13:22:40Z</time>
      </trkpt>
      <trkpt lat="43.16949" lon="6.50122">
        <ele>193.1</ele>
        <time>2024-02-04T13:22:41Z</time>
      </trkpt>
      <trkpt lat="43.16948" lon="6.50121">
        <ele>193</ele>
        <time>2024-02-04T13:22:42Z</time>
      </trkpt>
      <trkpt lat="43.16947" lon="6.50121">
        <ele>192.9</ele>
        <time>2024-02-04T13:22:43Z</time>
      </trkpt>
      <trkpt lat="43.16946" lon="6.5012">
        <ele>192.9</ele>
        <time>2024-02-04T13:22:44Z</time>
      </trkpt>
      <trkpt lat="43.16945" lon="6.5012">
        <ele>192.7</ele>
        <time>2024-02-04T13:22:45Z</time>
      </trkpt>
      <trkpt lat="43.16944" lon="6.50119">
        <ele>192.6</ele>
        <time>2024-02-04T13:22:46Z</time>
      </trkpt>
      <trkpt lat="43.16944" lon="6.50119">
        <ele>192.4</ele>
        <time>2024-02-04T13:22:47Z</time>
      </trkpt>
      <trkpt lat="43.16943" lon="6.50118">
        <ele>192.3</ele>
        <time>2024-02-04T13:22:48Z</time>
      </trkpt>
      <trkpt lat="43.16943" lon="6.50118">
        <ele>192.2</ele>
        <time>2024-02-04T13:22:49Z</time>
      </trkpt>
      <trkpt lat="43.16942" lon="6.50118">
        <ele>192.1</ele>
        <time>2024-02-04T13:22:50Z</time>
      </trkpt>
      <trkpt lat="43.16941" lon="6.50117">
        <ele>191.9</ele>
        <time>2024-02-04T13:22:51Z</time>
      </trkpt>
      <trkpt lat="43.1694" lon="6.50116">
        <ele>191.8</ele>
        <time>2024-02-04T13:22:52Z</time>
      </trkpt>
      <trkpt lat="43.16939" lon="6.50116">
        <ele>191.6</ele>
        <time>2024-02-04T13:22:53Z</time>
      </trkpt>
      <trkpt lat="43.16938" lon="6.50115">
        <ele>191.5</ele>
        <time>2024-02-04T13:22:54Z</time>
      </trkpt>
      <trkpt lat="43.16937" lon="6.50115">
        <ele>191.3</ele>
        <time>2024-02-04T13:22:55Z</time>
      </trkpt>
      <trkpt lat="43.16937" lon="6.50114">
        <ele>191.2</ele>
        <time>2024-02-04T13:22:56Z</time>
      </trkpt>
      <trkpt lat="43.16936" lon="6.50114">
        <ele>191.1</ele>
        <time>2024-02-04T13:22:57Z</time>
      </trkpt>
      <trkpt lat="43.16935" lon="6.50113">
        <ele>190.9</ele>
        <time>2024-02-04T13:22:58Z</time>
      </trkpt>
      <trkpt lat="43.16934" lon="6.50113">
        <ele>190.8</ele>
        <time>2024-02-04T13:22:59Z</time>
      </trkpt>
      <trkpt lat="43.16933" lon="6.50113">
        <ele>190.7</ele>
        <time>2024-02-04T13:23:00Z</time>
      </trkpt>
      <trkpt lat="43.16932" lon="6.50112">
        <ele>190.5</ele>
        <time>2024-02-04T13:23:01Z</time>
      </trkpt>
      <trkpt lat="43.16932" lon="6.50112">
        <ele>190.3</ele>
        <time>2024-02-04T13:23:02Z</time>
      </trkpt>
      <trkpt lat="43.16931" lon="6.50111">
        <ele>190</ele>
        <time>2024-02-04T13:23:03Z</time>
      </trkpt>
      <trkpt lat="43.1693" lon="6.50111">
        <ele>189.8</ele>
        <time>2024-02-04T13:23:04Z</time>
      </trkpt>
      <trkpt lat="43.1693" lon="6.50111">
        <ele>189.6</ele>
        <time>2024-02-04T13:23:05Z</time>
      </trkpt>
      <trkpt lat="43.16929" lon="6.5011">
        <ele>189.5</ele>
        <time>2024-02-04T13:23:06Z</time>
      </trkpt>
      <trkpt lat="43.16929" lon="6.5011">
        <ele>189.3</ele>
        <time>2024-02-04T13:23:07Z</time>
      </trkpt>
      <trkpt lat="43.16928" lon="6.50109">
        <ele>189.1</ele>
        <time>2024-02-04T13:23:08Z</time>
      </trkpt>
      <trkpt lat="43.16928" lon="6.50109">
        <ele>188.8</ele>
        <time>2024-02-04T13:23:09Z</time>
      </trkpt>
      <trkpt lat="43.16927" lon="6.50108">
        <ele>188.6</ele>
        <time>2024-02-04T13:23:10Z</time>
      </trkpt>
      <trkpt lat="43.16927" lon="6.50107">
        <ele>188.5</ele>
        <time>2024-02-04T13:23:11Z</time>
      </trkpt>
      <trkpt lat="43.16926" lon="6.50106">
        <ele>188.3</ele>
        <time>2024-02-04T13:23:12Z</time>
      </trkpt>
      <trkpt lat="43.16925" lon="6.50105">
        <ele>188.1</ele>
        <time>2024-02-04T13:23:13Z</time>
      </trkpt>
      <trkpt lat="43.16924" lon="6.50105">
        <ele>188</ele>
        <time>2024-02-04T13:23:14Z</time>
      </trkpt>
      <trkpt lat="43.16924" lon="6.50104">
        <ele>187.8</ele>
        <time>2024-02-04T13:23:15Z</time>
      </trkpt>
      <trkpt lat="43.16923" lon="6.50103">
        <ele>187.6</ele>
        <time>2024-02-04T13:23:16Z</time>
      </trkpt>
      <trkpt lat="43.16922" lon="6.50103">
        <ele>187.4</ele>
        <time>2024-02-04T13:23:17Z</time>
      </trkpt>
      <trkpt lat="43.16921" lon="6.50102">
        <ele>187.2</ele>
        <time>2024-02-04T13:23:18Z</time>
      </trkpt>
      <trkpt lat="43.16921" lon="6.50101">
        <ele>187</ele>
        <time>2024-02-04T13:23:19Z</time>
      </trkpt>
      <trkpt lat="43.1692" lon="6.50101">
        <ele>186.7</ele>
        <time>2024-02-04T13:23:20Z</time>
      </trkpt>
      <trkpt lat="43.16919" lon="6.501">
        <ele>186.4</ele>
        <time>2024-02-04T13:23:21Z</time>
      </trkpt>
      <trkpt lat="43.16918" lon="6.50099">
        <ele>186.2</ele>
        <time>2024-02-04T13:23:22Z</time>
      </trkpt>
      <trkpt lat="43.16917" lon="6.50098">
        <ele>186</ele>
        <time>2024-02-04T13:23:23Z</time>
      </trkpt>
      <trkpt lat="43.16916" lon="6.50098">
        <ele>185.8</ele>
        <time>2024-02-04T13:23:24Z</time>
      </trkpt>
      <trkpt lat="43.16915" lon="6.50097">
        <ele>185.6</ele>
        <time>2024-02-04T13:23:25Z</time>
      </trkpt>
      <trkpt lat="43.16915" lon="6.50096">
        <ele>185.4</ele>
        <time>2024-02-04T13:23:26Z</time>
      </trkpt>
      <trkpt lat="43.16914" lon="6.50095">
        <ele>185.1</ele>
        <time>2024-02-04T13:23:27Z</time>
      </trkpt>
      <trkpt lat="43.16913" lon="6.50094">
        <ele>184.9</ele>
        <time>2024-02-04T13:23:28Z</time>
      </trkpt>
      <trkpt lat="43.16913" lon="6.50093">
        <ele>184.8</ele>
        <time>2024-02-04T13:23:29Z</time>
      </trkpt>
      <trkpt lat="43.16912" lon="6.50091">
        <ele>184.5</ele>
        <time>2024-02-04T13:23:30Z</time>
      </trkpt>
      <trkpt lat="43.1691" lon="6.5009">
        <ele>184.4</ele>
        <time>2024-02-04T13:23:31Z</time>
      </trkpt>
      <trkpt lat="43.16909" lon="6.5009">
        <ele>184.2</ele>
        <time>2024-02-04T13:23:32Z</time>
      </trkpt>
      <trkpt lat="43.16908" lon="6.50089">
        <ele>184.1</ele>
        <time>2024-02-04T13:23:33Z</time>
      </trkpt>
      <trkpt lat="43.16908" lon="6.50087">
        <ele>184</ele>
        <time>2024-02-04T13:23:34Z</time>
      </trkpt>
      <trkpt lat="43.16907" lon="6.50087">
        <ele>183.9</ele>
        <time>2024-02-04T13:23:35Z</time>
      </trkpt>
      <trkpt lat="43.16906" lon="6.50086">
        <ele>183.8</ele>
        <time>2024-02-04T13:23:36Z</time>
      </trkpt>
      <trkpt lat="43.16905" lon="6.50085">
        <ele>183.7</ele>
        <time>2024-02-04T13:23:37Z</time>
      </trkpt>
      <trkpt lat="43.16905" lon="6.50084">
        <ele>183.6</ele>
        <time>2024-02-04T13:23:38Z</time>
      </trkpt>
      <trkpt lat="43.16904" lon="6.50084">
        <ele>183.6</ele>
        <time>2024-02-04T13:23:39Z</time>
      </trkpt>
      <trkpt lat="43.16903" lon="6.50082">
        <ele>183.6</ele>
        <time>2024-02-04T13:23:40Z</time>
      </trkpt>
      <trkpt lat="43.16902" lon="6.50081">
        <ele>183.6</ele>
        <time>2024-02-04T13:23:41Z</time>
      </trkpt>
      <trkpt lat="43.16901" lon="6.50081">
        <ele>183.5</ele>
        <time>2024-02-04T13:23:42Z</time>
      </trkpt>
      <trkpt lat="43.169" lon="6.50081">
        <ele>183.4</ele>
        <time>2024-02-04T13:23:43Z</time>
      </trkpt>
      <trkpt lat="43.16899" lon="6.5008">
        <ele>183.3</ele>
        <time>2024-02-04T13:23:44Z</time>
      </trkpt>
      <trkpt lat="43.16898" lon="6.50079">
        <ele>183.2</ele>
        <time>2024-02-04T13:23:45Z</time>
      </trkpt>
      <trkpt lat="43.16898" lon="6.50078">
        <ele>182.9</ele>
        <time>2024-02-04T13:23:46Z</time>
      </trkpt>
      <trkpt lat="43.16897" lon="6.50078">
        <ele>182.6</ele>
        <time>2024-02-04T13:23:47Z</time>
      </trkpt>
      <trkpt lat="43.16897" lon="6.50077">
        <ele>182.3</ele>
        <time>2024-02-04T13:23:48Z</time>
      </trkpt>
      <trkpt lat="43.16896" lon="6.50076">
        <ele>182</ele>
        <time>2024-02-04T13:23:49Z</time>
      </trkpt>
      <trkpt lat="43.16895" lon="6.50075">
        <ele>181.8</ele>
        <time>2024-02-04T13:23:50Z</time>
      </trkpt>
      <trkpt lat="43.16895" lon="6.50074">
        <ele>181.6</ele>
        <time>2024-02-04T13:23:51Z</time>
      </trkpt>
      <trkpt lat="43.16894" lon="6.50074">
        <ele>181.4</ele>
        <time>2024-02-04T13:23:52Z</time>
      </trkpt>
      <trkpt lat="43.16894" lon="6.50073">
        <ele>181.2</ele>
        <time>2024-02-04T13:23:53Z</time>
      </trkpt>
      <trkpt lat="43.16893" lon="6.50072">
        <ele>181</ele>
        <time>2024-02-04T13:23:54Z</time>
      </trkpt>
      <trkpt lat="43.16893" lon="6.50072">
        <ele>180.8</ele>
        <time>2024-02-04T13:23:55Z</time>
      </trkpt>
      <trkpt lat="43.16893" lon="6.50071">
        <ele>180.6</ele>
        <time>2024-02-04T13:23:56Z</time>
      </trkpt>
      <trkpt lat="43.16893" lon="6.50071">
        <ele>180.4</ele>
        <time>2024-02-04T13:23:57Z</time>
      </trkpt>
      <trkpt lat="43.16892" lon="6.50071">
        <ele>180.2</ele>
        <time>2024-02-04T13:23:58Z</time>
      </trkpt>
      <trkpt lat="43.16892" lon="6.5007">
        <ele>180</ele>
        <time>2024-02-04T13:23:59Z</time>
      </trkpt>
      <trkpt lat="43.16891" lon="6.5007">
        <ele>179.8</ele>
        <time>2024-02-04T13:24:00Z</time>
      </trkpt>
      <trkpt lat="43.16891" lon="6.50069">
        <ele>179.5</ele>
        <time>2024-02-04T13:24:01Z</time>
      </trkpt>
      <trkpt lat="43.1689" lon="6.50069">
        <ele>179.3</ele>
        <time>2024-02-04T13:24:02Z</time>
      </trkpt>
      <trkpt lat="43.16889" lon="6.50068">
        <ele>179.2</ele>
        <time>2024-02-04T13:24:03Z</time>
      </trkpt>
      <trkpt lat="43.16888" lon="6.50067">
        <ele>179</ele>
        <time>2024-02-04T13:24:04Z</time>
      </trkpt>
      <trkpt lat="43.16888" lon="6.50067">
        <ele>178.8</ele>
        <time>2024-02-04T13:24:05Z</time>
      </trkpt>
      <trkpt lat="43.16887" lon="6.50066">
        <ele>178.5</ele>
        <time>2024-02-04T13:24:06Z</time>
      </trkpt>
      <trkpt lat="43.16886" lon="6.50066">
        <ele>178.3</ele>
        <time>2024-02-04T13:24:07Z</time>
      </trkpt>
      <trkpt lat="43.16885" lon="6.50065">
        <ele>178.2</ele>
        <time>2024-02-04T13:24:08Z</time>
      </trkpt>
      <trkpt lat="43.16884" lon="6.50064">
        <ele>178</ele>
        <time>2024-02-04T13:24:09Z</time>
      </trkpt>
      <trkpt lat="43.16884" lon="6.50064">
        <ele>177.8</ele>
        <time>2024-02-04T13:24:10Z</time>
      </trkpt>
      <trkpt lat="43.16883" lon="6.50063">
        <ele>177.5</ele>
        <time>2024-02-04T13:24:11Z</time>
      </trkpt>
      <trkpt lat="43.16882" lon="6.50062">
        <ele>177.3</ele>
        <time>2024-02-04T13:24:12Z</time>
      </trkpt>
      <trkpt lat="43.16881" lon="6.50061">
        <ele>177.1</ele>
        <time>2024-02-04T13:24:13Z</time>
      </trkpt>
      <trkpt lat="43.16881" lon="6.50061">
        <ele>176.8</ele>
        <time>2024-02-04T13:24:14Z</time>
      </trkpt>
      <trkpt lat="43.1688" lon="6.5006">
        <ele>176.7</ele>
        <time>2024-02-04T13:24:15Z</time>
      </trkpt>
      <trkpt lat="43.1688" lon="6.50059">
        <ele>176.6</ele>
        <time>2024-02-04T13:24:16Z</time>
      </trkpt>
      <trkpt lat="43.16879" lon="6.50058">
        <ele>176.5</ele>
        <time>2024-02-04T13:24:17Z</time>
      </trkpt>
      <trkpt lat="43.16879" lon="6.50057">
        <ele>176.3</ele>
        <time>2024-02-04T13:24:18Z</time>
      </trkpt>
      <trkpt lat="43.16878" lon="6.50056">
        <ele>176.1</ele>
        <time>2024-02-04T13:24:19Z</time>
      </trkpt>
      <trkpt lat="43.16877" lon="6.50055">
        <ele>175.9</ele>
        <time>2024-02-04T13:24:20Z</time>
      </trkpt>
      <trkpt lat="43.16877" lon="6.50054">
        <ele>175.8</ele>
        <time>2024-02-04T13:24:21Z</time>
      </trkpt>
      <trkpt lat="43.16876" lon="6.50053">
        <ele>175.6</ele>
        <time>2024-02-04T13:24:22Z</time>
      </trkpt>
      <trkpt lat="43.16875" lon="6.50052">
        <ele>175.4</ele>
        <time>2024-02-04T13:24:23Z</time>
      </trkpt>
      <trkpt lat="43.16874" lon="6.50051">
        <ele>175.2</ele>
        <time>2024-02-04T13:24:24Z</time>
      </trkpt>
      <trkpt lat="43.16873" lon="6.50051">
        <ele>175</ele>
        <time>2024-02-04T13:24:25Z</time>
      </trkpt>
      <trkpt lat="43.16873" lon="6.5005">
        <ele>174.8</ele>
        <time>2024-02-04T13:24:26Z</time>
      </trkpt>
      <trkpt lat="43.16872" lon="6.50049">
        <ele>174.5</ele>
        <time>2024-02-04T13:24:27Z</time>
      </trkpt>
      <trkpt lat="43.16871" lon="6.50047">
        <ele>174.3</ele>
        <time>2024-02-04T13:24:28Z</time>
      </trkpt>
      <trkpt lat="43.16871" lon="6.50045">
        <ele>174.1</ele>
        <time>2024-02-04T13:24:29Z</time>
      </trkpt>
      <trkpt lat="43.1687" lon="6.50044">
        <ele>173.9</ele>
        <time>2024-02-04T13:24:30Z</time>
      </trkpt>
      <trkpt lat="43.1687" lon="6.50043">
        <ele>173.8</ele>
        <time>2024-02-04T13:24:31Z</time>
      </trkpt>
      <trkpt lat="43.16869" lon="6.50041">
        <ele>173.6</ele>
        <time>2024-02-04T13:24:32Z</time>
      </trkpt>
      <trkpt lat="43.16869" lon="6.5004">
        <ele>173.4</ele>
        <time>2024-02-04T13:24:33Z</time>
      </trkpt>
      <trkpt lat="43.16868" lon="6.50038">
        <ele>173.3</ele>
        <time>2024-02-04T13:24:34Z</time>
      </trkpt>
      <trkpt lat="43.16867" lon="6.50037">
        <ele>173.3</ele>
        <time>2024-02-04T13:24:35Z</time>
      </trkpt>
      <trkpt lat="43.16866" lon="6.50036">
        <ele>173.2</ele>
        <time>2024-02-04T13:24:36Z</time>
      </trkpt>
      <trkpt lat="43.16866" lon="6.50035">
        <ele>173.2</ele>
        <time>2024-02-04T13:24:37Z</time>
      </trkpt>
      <trkpt lat="43.16866" lon="6.50034">
        <ele>173.2</ele>
        <time>2024-02-04T13:24:38Z</time>
      </trkpt>
      <trkpt lat="43.16865" lon="6.50032">
        <ele>173.1</ele>
        <time>2024-02-04T13:24:39Z</time>
      </trkpt>
      <trkpt lat="43.16865" lon="6.50032">
        <ele>173.1</ele>
        <time>2024-02-04T13:24:40Z</time>
      </trkpt>
      <trkpt lat="43.16864" lon="6.50031">
        <ele>173</ele>
        <time>2024-02-04T13:24:41Z</time>
      </trkpt>
      <trkpt lat="43.16864" lon="6.5003">
        <ele>172.9</ele>
        <time>2024-02-04T13:24:42Z</time>
      </trkpt>
      <trkpt lat="43.16863" lon="6.50029">
        <ele>172.8</ele>
        <time>2024-02-04T13:24:43Z</time>
      </trkpt>
      <trkpt lat="43.16863" lon="6.50029">
        <ele>172.6</ele>
        <time>2024-02-04T13:24:44Z</time>
      </trkpt>
      <trkpt lat="43.16862" lon="6.50028">
        <ele>172.5</ele>
        <time>2024-02-04T13:24:45Z</time>
      </trkpt>
      <trkpt lat="43.16861" lon="6.50027">
        <ele>172.3</ele>
        <time>2024-02-04T13:24:46Z</time>
      </trkpt>
      <trkpt lat="43.16861" lon="6.50026">
        <ele>172.1</ele>
        <time>2024-02-04T13:24:47Z</time>
      </trkpt>
      <trkpt lat="43.16861" lon="6.50025">
        <ele>172</ele>
        <time>2024-02-04T13:24:48Z</time>
      </trkpt>
      <trkpt lat="43.1686" lon="6.50023">
        <ele>171.8</ele>
        <time>2024-02-04T13:24:49Z</time>
      </trkpt>
      <trkpt lat="43.1686" lon="6.50022">
        <ele>171.6</ele>
        <time>2024-02-04T13:24:50Z</time>
      </trkpt>
      <trkpt lat="43.16859" lon="6.50021">
        <ele>171.4</ele>
        <time>2024-02-04T13:24:51Z</time>
      </trkpt>
      <trkpt lat="43.16859" lon="6.5002">
        <ele>171.2</ele>
        <time>2024-02-04T13:24:52Z</time>
      </trkpt>
      <trkpt lat="43.16858" lon="6.50019">
        <ele>171.1</ele>
        <time>2024-02-04T13:24:53Z</time>
      </trkpt>
      <trkpt lat="43.16857" lon="6.50019">
        <ele>171</ele>
        <time>2024-02-04T13:24:54Z</time>
      </trkpt>
      <trkpt lat="43.16857" lon="6.50018">
        <ele>170.6</ele>
        <time>2024-02-04T13:24:55Z</time>
      </trkpt>
      <trkpt lat="43.16856" lon="6.50016">
        <ele>170.5</ele>
        <time>2024-02-04T13:24:56Z</time>
      </trkpt>
      <trkpt lat="43.16856" lon="6.50015">
        <ele>170.4</ele>
        <time>2024-02-04T13:24:57Z</time>
      </trkpt>
      <trkpt lat="43.16855" lon="6.50014">
        <ele>170.2</ele>
        <time>2024-02-04T13:24:58Z</time>
      </trkpt>
      <trkpt lat="43.16854" lon="6.50013">
        <ele>170</ele>
        <time>2024-02-04T13:24:59Z</time>
      </trkpt>
      <trkpt lat="43.16853" lon="6.50012">
        <ele>169.9</ele>
        <time>2024-02-04T13:25:00Z</time>
      </trkpt>
      <trkpt lat="43.16853" lon="6.50011">
        <ele>169.8</ele>
        <time>2024-02-04T13:25:01Z</time>
      </trkpt>
      <trkpt lat="43.16852" lon="6.5001">
        <ele>169.7</ele>
        <time>2024-02-04T13:25:02Z</time>
      </trkpt>
      <trkpt lat="43.16851" lon="6.50009">
        <ele>169.6</ele>
        <time>2024-02-04T13:25:03Z</time>
      </trkpt>
      <trkpt lat="43.16851" lon="6.50007">
        <ele>169.4</ele>
        <time>2024-02-04T13:25:04Z</time>
      </trkpt>
      <trkpt lat="43.16851" lon="6.50006">
        <ele>169.3</ele>
        <time>2024-02-04T13:25:05Z</time>
      </trkpt>
      <trkpt lat="43.1685" lon="6.50005">
        <ele>169.1</ele>
        <time>2024-02-04T13:25:06Z</time>
      </trkpt>
      <trkpt lat="43.1685" lon="6.50004">
        <ele>169</ele>
        <time>2024-02-04T13:25:07Z</time>
      </trkpt>
      <trkpt lat="43.16849" lon="6.50003">
        <ele>168.8</ele>
        <time>2024-02-04T13:25:08Z</time>
      </trkpt>
      <trkpt lat="43.16849" lon="6.50002">
        <ele>168.6</ele>
        <time>2024-02-04T13:25:09Z</time>
      </trkpt>
      <trkpt lat="43.16848" lon="6.50001">
        <ele>168.4</ele>
        <time>2024-02-04T13:25:10Z</time>
      </trkpt>
      <trkpt lat="43.16848" lon="6.5">
        <ele>168.2</ele>
        <time>2024-02-04T13:25:11Z</time>
      </trkpt>
      <trkpt lat="43.16847" lon="6.49999">
        <ele>168.1</ele>
        <time>2024-02-04T13:25:12Z</time>
      </trkpt>
      <trkpt lat="43.16847" lon="6.49998">
        <ele>167.9</ele>
        <time>2024-02-04T13:25:13Z</time>
      </trkpt>
      <trkpt lat="43.16846" lon="6.49997">
        <ele>167.7</ele>
        <time>2024-02-04T13:25:14Z</time>
      </trkpt>
      <trkpt lat="43.16845" lon="6.49996">
        <ele>167.5</ele>
        <time>2024-02-04T13:25:15Z</time>
      </trkpt>
      <trkpt lat="43.16845" lon="6.49995">
        <ele>167.3</ele>
        <time>2024-02-04T13:25:16Z</time>
      </trkpt>
      <trkpt lat="43.16844" lon="6.49995">
        <ele>167.3</ele>
        <time>2024-02-04T13:25:17Z</time>
      </trkpt>
      <trkpt lat="43.16844" lon="6.49993">
        <ele>167.1</ele>
        <time>2024-02-04T13:25:18Z</time>
      </trkpt>
      <trkpt lat="43.16843" lon="6.49992">
        <ele>166.9</ele>
        <time>2024-02-04T13:25:19Z</time>
      </trkpt>
      <trkpt lat="43.16843" lon="6.49991">
        <ele>166.8</ele>
        <time>2024-02-04T13:25:20Z</time>
      </trkpt>
      <trkpt lat="43.16842" lon="6.4999">
        <ele>166.7</ele>
        <time>2024-02-04T13:25:21Z</time>
      </trkpt>
      <trkpt lat="43.16841" lon="6.49989">
        <ele>166.5</ele>
        <time>2024-02-04T13:25:22Z</time>
      </trkpt>
      <trkpt lat="43.16841" lon="6.49987">
        <ele>166.4</ele>
        <time>2024-02-04T13:25:23Z</time>
      </trkpt>
      <trkpt lat="43.1684" lon="6.49986">
        <ele>166.2</ele>
        <time>2024-02-04T13:25:24Z</time>
      </trkpt>
      <trkpt lat="43.1684" lon="6.49985">
        <ele>166.1</ele>
        <time>2024-02-04T13:25:25Z</time>
      </trkpt>
      <trkpt lat="43.1684" lon="6.49984">
        <ele>166</ele>
        <time>2024-02-04T13:25:26Z</time>
      </trkpt>
      <trkpt lat="43.16839" lon="6.49984">
        <ele>165.8</ele>
        <time>2024-02-04T13:25:27Z</time>
      </trkpt>
      <trkpt lat="43.16838" lon="6.49983">
        <ele>165.6</ele>
        <time>2024-02-04T13:25:28Z</time>
      </trkpt>
      <trkpt lat="43.16838" lon="6.49982">
        <ele>165.4</ele>
        <time>2024-02-04T13:25:29Z</time>
      </trkpt>
      <trkpt lat="43.16838" lon="6.49981">
        <ele>165.3</ele>
        <time>2024-02-04T13:25:30Z</time>
      </trkpt>
      <trkpt lat="43.16838" lon="6.4998">
        <ele>165.1</ele>
        <time>2024-02-04T13:25:31Z</time>
      </trkpt>
      <trkpt lat="43.16837" lon="6.49978">
        <ele>165</ele>
        <time>2024-02-04T13:25:32Z</time>
      </trkpt>
      <trkpt lat="43.16837" lon="6.49978">
        <ele>164.8</ele>
        <time>2024-02-04T13:25:33Z</time>
      </trkpt>
      <trkpt lat="43.16836" lon="6.49977">
        <ele>164.6</ele>
        <time>2024-02-04T13:25:34Z</time>
      </trkpt>
      <trkpt lat="43.16836" lon="6.49976">
        <ele>164.4</ele>
        <time>2024-02-04T13:25:35Z</time>
      </trkpt>
      <trkpt lat="43.16835" lon="6.49975">
        <ele>164.2</ele>
        <time>2024-02-04T13:25:36Z</time>
      </trkpt>
      <trkpt lat="43.16835" lon="6.49974">
        <ele>164.1</ele>
        <time>2024-02-04T13:25:37Z</time>
      </trkpt>
      <trkpt lat="43.16835" lon="6.49973">
        <ele>163.9</ele>
        <time>2024-02-04T13:25:38Z</time>
      </trkpt>
      <trkpt lat="43.16834" lon="6.49972">
        <ele>163.7</ele>
        <time>2024-02-04T13:25:39Z</time>
      </trkpt>
      <trkpt lat="43.16834" lon="6.49971">
        <ele>163.5</ele>
        <time>2024-02-04T13:25:40Z</time>
      </trkpt>
      <trkpt lat="43.16834" lon="6.4997">
        <ele>163.3</ele>
        <time>2024-02-04T13:25:41Z</time>
      </trkpt>
      <trkpt lat="43.16834" lon="6.49968">
        <ele>163.1</ele>
        <time>2024-02-04T13:25:42Z</time>
      </trkpt>
      <trkpt lat="43.16833" lon="6.49967">
        <ele>163</ele>
        <time>2024-02-04T13:25:43Z</time>
      </trkpt>
      <trkpt lat="43.16833" lon="6.49966">
        <ele>162.8</ele>
        <time>2024-02-04T13:25:44Z</time>
      </trkpt>
      <trkpt lat="43.16832" lon="6.49965">
        <ele>162.7</ele>
        <time>2024-02-04T13:25:45Z</time>
      </trkpt>
      <trkpt lat="43.16832" lon="6.49964">
        <ele>162.5</ele>
        <time>2024-02-04T13:25:46Z</time>
      </trkpt>
      <trkpt lat="43.16832" lon="6.49962">
        <ele>162.3</ele>
        <time>2024-02-04T13:25:47Z</time>
      </trkpt>
      <trkpt lat="43.16832" lon="6.49962">
        <ele>162</ele>
        <time>2024-02-04T13:25:48Z</time>
      </trkpt>
      <trkpt lat="43.16831" lon="6.49961">
        <ele>161.8</ele>
        <time>2024-02-04T13:25:49Z</time>
      </trkpt>
      <trkpt lat="43.16831" lon="6.4996">
        <ele>161.5</ele>
        <time>2024-02-04T13:25:50Z</time>
      </trkpt>
      <trkpt lat="43.16831" lon="6.49958">
        <ele>161.4</ele>
        <time>2024-02-04T13:25:51Z</time>
      </trkpt>
      <trkpt lat="43.16831" lon="6.49957">
        <ele>161.2</ele>
        <time>2024-02-04T13:25:52Z</time>
      </trkpt>
      <trkpt lat="43.16831" lon="6.49956">
        <ele>161</ele>
        <time>2024-02-04T13:25:53Z</time>
      </trkpt>
      <trkpt lat="43.16831" lon="6.49955">
        <ele>160.8</ele>
        <time>2024-02-04T13:25:54Z</time>
      </trkpt>
      <trkpt lat="43.1683" lon="6.49954">
        <ele>160.7</ele>
        <time>2024-02-04T13:25:55Z</time>
      </trkpt>
      <trkpt lat="43.1683" lon="6.49953">
        <ele>160.6</ele>
        <time>2024-02-04T13:25:56Z</time>
      </trkpt>
      <trkpt lat="43.16829" lon="6.49951">
        <ele>160.4</ele>
        <time>2024-02-04T13:25:57Z</time>
      </trkpt>
      <trkpt lat="43.16829" lon="6.4995">
        <ele>160.2</ele>
        <time>2024-02-04T13:25:58Z</time>
      </trkpt>
      <trkpt lat="43.16829" lon="6.49949">
        <ele>160.1</ele>
        <time>2024-02-04T13:25:59Z</time>
      </trkpt>
      <trkpt lat="43.16829" lon="6.49948">
        <ele>159.9</ele>
        <time>2024-02-04T13:26:00Z</time>
      </trkpt>
      <trkpt lat="43.16829" lon="6.49947">
        <ele>159.7</ele>
        <time>2024-02-04T13:26:01Z</time>
      </trkpt>
      <trkpt lat="43.16829" lon="6.49946">
        <ele>159.6</ele>
        <time>2024-02-04T13:26:02Z</time>
      </trkpt>
      <trkpt lat="43.16828" lon="6.49945">
        <ele>159.3</ele>
        <time>2024-02-04T13:26:03Z</time>
      </trkpt>
      <trkpt lat="43.16828" lon="6.49944">
        <ele>159.2</ele>
        <time>2024-02-04T13:26:04Z</time>
      </trkpt>
      <trkpt lat="43.16828" lon="6.49942">
        <ele>159</ele>
        <time>2024-02-04T13:26:05Z</time>
      </trkpt>
      <trkpt lat="43.16828" lon="6.49941">
        <ele>158.8</ele>
        <time>2024-02-04T13:26:06Z</time>
      </trkpt>
      <trkpt lat="43.16827" lon="6.4994">
        <ele>158.5</ele>
        <time>2024-02-04T13:26:07Z</time>
      </trkpt>
      <trkpt lat="43.16827" lon="6.49939">
        <ele>158.4</ele>
        <time>2024-02-04T13:26:08Z</time>
      </trkpt>
      <trkpt lat="43.16826" lon="6.49938">
        <ele>158.2</ele>
        <time>2024-02-04T13:26:09Z</time>
      </trkpt>
      <trkpt lat="43.16826" lon="6.49936">
        <ele>157.9</ele>
        <time>2024-02-04T13:26:10Z</time>
      </trkpt>
      <trkpt lat="43.16825" lon="6.49935">
        <ele>157.7</ele>
        <time>2024-02-04T13:26:11Z</time>
      </trkpt>
      <trkpt lat="43.16825" lon="6.49934">
        <ele>157.5</ele>
        <time>2024-02-04T13:26:12Z</time>
      </trkpt>
      <trkpt lat="43.16824" lon="6.49933">
        <ele>157.2</ele>
        <time>2024-02-04T13:26:13Z</time>
      </trkpt>
      <trkpt lat="43.16824" lon="6.49932">
        <ele>157</ele>
        <time>2024-02-04T13:26:14Z</time>
      </trkpt>
      <trkpt lat="43.16824" lon="6.49931">
        <ele>156.8</ele>
        <time>2024-02-04T13:26:15Z</time>
      </trkpt>
      <trkpt lat="43.16823" lon="6.49929">
        <ele>156.6</ele>
        <time>2024-02-04T13:26:16Z</time>
      </trkpt>
      <trkpt lat="43.16823" lon="6.49928">
        <ele>156.5</ele>
        <time>2024-02-04T13:26:17Z</time>
      </trkpt>
      <trkpt lat="43.16822" lon="6.49927">
        <ele>156.4</ele>
        <time>2024-02-04T13:26:18Z</time>
      </trkpt>
      <trkpt lat="43.16822" lon="6.49925">
        <ele>156.2</ele>
        <time>2024-02-04T13:26:19Z</time>
      </trkpt>
      <trkpt lat="43.16822" lon="6.49924">
        <ele>156.1</ele>
        <time>2024-02-04T13:26:20Z</time>
      </trkpt>
      <trkpt lat="43.16821" lon="6.49923">
        <ele>155.9</ele>
        <time>2024-02-04T13:26:21Z</time>
      </trkpt>
      <trkpt lat="43.16821" lon="6.49923">
        <ele>155.9</ele>
        <time>2024-02-04T13:26:22Z</time>
      </trkpt>
      <trkpt lat="43.1682" lon="6.49922">
        <ele>155.8</ele>
        <time>2024-02-04T13:26:23Z</time>
      </trkpt>
      <trkpt lat="43.1682" lon="6.49921">
        <ele>155.8</ele>
        <time>2024-02-04T13:26:24Z</time>
      </trkpt>
      <trkpt lat="43.1682" lon="6.4992">
        <ele>155.7</ele>
        <time>2024-02-04T13:26:25Z</time>
      </trkpt>
      <trkpt lat="43.1682" lon="6.49919">
        <ele>155.7</ele>
        <time>2024-02-04T13:26:26Z</time>
      </trkpt>
      <trkpt lat="43.1682" lon="6.49919">
        <ele>155.6</ele>
        <time>2024-02-04T13:26:27Z</time>
      </trkpt>
      <trkpt lat="43.1682" lon="6.49918">
        <ele>155.6</ele>
        <time>2024-02-04T13:26:28Z</time>
      </trkpt>
      <trkpt lat="43.1682" lon="6.49918">
        <ele>155.6</ele>
        <time>2024-02-04T13:26:29Z</time>
      </trkpt>
      <trkpt lat="43.16819" lon="6.49917">
        <ele>155.5</ele>
        <time>2024-02-04T13:26:30Z</time>
      </trkpt>
      <trkpt lat="43.16819" lon="6.49917">
        <ele>155.5</ele>
        <time>2024-02-04T13:26:31Z</time>
      </trkpt>
      <trkpt lat="43.16819" lon="6.49917">
        <ele>155.4</ele>
        <time>2024-02-04T13:26:32Z</time>
      </trkpt>
      <trkpt lat="43.16819" lon="6.49917">
        <ele>155.4</ele>
        <time>2024-02-04T13:26:33Z</time>
      </trkpt>
      <trkpt lat="43.16819" lon="6.49917">
        <ele>155.3</ele>
        <time>2024-02-04T13:26:34Z</time>
      </trkpt>
      <trkpt lat="43.1682" lon="6.49917">
        <ele>155.4</ele>
        <time>2024-02-04T13:26:35Z</time>
      </trkpt>
      <trkpt lat="43.1682" lon="6.49917">
        <ele>155.4</ele>
        <time>2024-02-04T13:26:36Z</time>
      </trkpt>
      <trkpt lat="43.16819" lon="6.49917">
        <ele>155.3</ele>
        <time>2024-02-04T13:26:37Z</time>
      </trkpt>
      <trkpt lat="43.16819" lon="6.49916">
        <ele>155.2</ele>
        <time>2024-02-04T13:26:38Z</time>
      </trkpt>
      <trkpt lat="43.16819" lon="6.49916">
        <ele>155.2</ele>
        <time>2024-02-04T13:26:39Z</time>
      </trkpt>
      <trkpt lat="43.16818" lon="6.49915">
        <ele>155.1</ele>
        <time>2024-02-04T13:26:40Z</time>
      </trkpt>
      <trkpt lat="43.16818" lon="6.49914">
        <ele>155</ele>
        <time>2024-02-04T13:26:41Z</time>
      </trkpt>
      <trkpt lat="43.16818" lon="6.49913">
        <ele>155</ele>
        <time>2024-02-04T13:26:42Z</time>
      </trkpt>
      <trkpt lat="43.16818" lon="6.49913">
        <ele>154.9</ele>
        <time>2024-02-04T13:26:43Z</time>
      </trkpt>
      <trkpt lat="43.16817" lon="6.49913">
        <ele>154.8</ele>
        <time>2024-02-04T13:26:44Z</time>
      </trkpt>
      <trkpt lat="43.16817" lon="6.49912">
        <ele>154.8</ele>
        <time>2024-02-04T13:26:45Z</time>
      </trkpt>
      <trkpt lat="43.16817" lon="6.49911">
        <ele>154.6</ele>
        <time>2024-02-04T13:26:46Z</time>
      </trkpt>
      <trkpt lat="43.16816" lon="6.49911">
        <ele>154.4</ele>
        <time>2024-02-04T13:26:47Z</time>
      </trkpt>
      <trkpt lat="43.16816" lon="6.4991">
        <ele>154.3</ele>
        <time>2024-02-04T13:26:48Z</time>
      </trkpt>
      <trkpt lat="43.16816" lon="6.49909">
        <ele>154.1</ele>
        <time>2024-02-04T13:26:49Z</time>
      </trkpt>
      <trkpt lat="43.16816" lon="6.49908">
        <ele>154</ele>
        <time>2024-02-04T13:26:50Z</time>
      </trkpt>
      <trkpt lat="43.16815" lon="6.49907">
        <ele>153.8</ele>
        <time>2024-02-04T13:26:51Z</time>
      </trkpt>
      <trkpt lat="43.16815" lon="6.49906">
        <ele>153.7</ele>
        <time>2024-02-04T13:26:52Z</time>
      </trkpt>
      <trkpt lat="43.16814" lon="6.49906">
        <ele>153.6</ele>
        <time>2024-02-04T13:26:53Z</time>
      </trkpt>
      <trkpt lat="43.16813" lon="6.49905">
        <ele>153.3</ele>
        <time>2024-02-04T13:26:54Z</time>
      </trkpt>
      <trkpt lat="43.16813" lon="6.49904">
        <ele>153.1</ele>
        <time>2024-02-04T13:26:55Z</time>
      </trkpt>
      <trkpt lat="43.16813" lon="6.49903">
        <ele>152.9</ele>
        <time>2024-02-04T13:26:56Z</time>
      </trkpt>
      <trkpt lat="43.16812" lon="6.49902">
        <ele>152.7</ele>
        <time>2024-02-04T13:26:57Z</time>
      </trkpt>
      <trkpt lat="43.16812" lon="6.49901">
        <ele>152.6</ele>
        <time>2024-02-04T13:26:58Z</time>
      </trkpt>
      <trkpt lat="43.16811" lon="6.49901">
        <ele>152.4</ele>
        <time>2024-02-04T13:26:59Z</time>
      </trkpt>
      <trkpt lat="43.16811" lon="6.499">
        <ele>152.2</ele>
        <time>2024-02-04T13:27:00Z</time>
      </trkpt>
      <trkpt lat="43.1681" lon="6.499">
        <ele>152.1</ele>
        <time>2024-02-04T13:27:01Z</time>
      </trkpt>
      <trkpt lat="43.1681" lon="6.49899">
        <ele>151.8</ele>
        <time>2024-02-04T13:27:02Z</time>
      </trkpt>
      <trkpt lat="43.16809" lon="6.49899">
        <ele>151.6</ele>
        <time>2024-02-04T13:27:03Z</time>
      </trkpt>
      <trkpt lat="43.16809" lon="6.49898">
        <ele>151.5</ele>
        <time>2024-02-04T13:27:04Z</time>
      </trkpt>
      <trkpt lat="43.16808" lon="6.49897">
        <ele>151.3</ele>
        <time>2024-02-04T13:27:05Z</time>
      </trkpt>
      <trkpt lat="43.16808" lon="6.49896">
        <ele>151.1</ele>
        <time>2024-02-04T13:27:06Z</time>
      </trkpt>
      <trkpt lat="43.16807" lon="6.49896">
        <ele>150.9</ele>
        <time>2024-02-04T13:27:07Z</time>
      </trkpt>
      <trkpt lat="43.16806" lon="6.49896">
        <ele>150.6</ele>
        <time>2024-02-04T13:27:08Z</time>
      </trkpt>
      <trkpt lat="43.16805" lon="6.49895">
        <ele>150.4</ele>
        <time>2024-02-04T13:27:09Z</time>
      </trkpt>
      <trkpt lat="43.16805" lon="6.49894">
        <ele>150.1</ele>
        <time>2024-02-04T13:27:10Z</time>
      </trkpt>
      <trkpt lat="43.16804" lon="6.49893">
        <ele>149.9</ele>
        <time>2024-02-04T13:27:11Z</time>
      </trkpt>
      <trkpt lat="43.16803" lon="6.49892">
        <ele>149.7</ele>
        <time>2024-02-04T13:27:12Z</time>
      </trkpt>
      <trkpt lat="43.16802" lon="6.49891">
        <ele>149.6</ele>
        <time>2024-02-04T13:27:13Z</time>
      </trkpt>
      <trkpt lat="43.16802" lon="6.49891">
        <ele>149.3</ele>
        <time>2024-02-04T13:27:14Z</time>
      </trkpt>
      <trkpt lat="43.16801" lon="6.4989">
        <ele>149.1</ele>
        <time>2024-02-04T13:27:15Z</time>
      </trkpt>
      <trkpt lat="43.16801" lon="6.49889">
        <ele>148.9</ele>
        <time>2024-02-04T13:27:16Z</time>
      </trkpt>
      <trkpt lat="43.168" lon="6.49888">
        <ele>148.7</ele>
        <time>2024-02-04T13:27:17Z</time>
      </trkpt>
      <trkpt lat="43.16799" lon="6.49887">
        <ele>148.4</ele>
        <time>2024-02-04T13:27:18Z</time>
      </trkpt>
      <trkpt lat="43.16799" lon="6.49887">
        <ele>148.2</ele>
        <time>2024-02-04T13:27:19Z</time>
      </trkpt>
      <trkpt lat="43.16798" lon="6.49886">
        <ele>147.9</ele>
        <time>2024-02-04T13:27:20Z</time>
      </trkpt>
      <trkpt lat="43.16798" lon="6.49885">
        <ele>147.7</ele>
        <time>2024-02-04T13:27:21Z</time>
      </trkpt>
      <trkpt lat="43.16797" lon="6.49884">
        <ele>147.5</ele>
        <time>2024-02-04T13:27:22Z</time>
      </trkpt>
      <trkpt lat="43.16796" lon="6.49884">
        <ele>147.3</ele>
        <time>2024-02-04T13:27:23Z</time>
      </trkpt>
      <trkpt lat="43.16796" lon="6.49883">
        <ele>147.1</ele>
        <time>2024-02-04T13:27:24Z</time>
      </trkpt>
      <trkpt lat="43.16795" lon="6.49882">
        <ele>146.9</ele>
        <time>2024-02-04T13:27:25Z</time>
      </trkpt>
      <trkpt lat="43.16795" lon="6.49881">
        <ele>146.6</ele>
        <time>2024-02-04T13:27:26Z</time>
      </trkpt>
      <trkpt lat="43.16794" lon="6.4988">
        <ele>146.3</ele>
        <time>2024-02-04T13:27:27Z</time>
      </trkpt>
      <trkpt lat="43.16794" lon="6.4988">
        <ele>146.1</ele>
        <time>2024-02-04T13:27:28Z</time>
      </trkpt>
      <trkpt lat="43.16793" lon="6.49879">
        <ele>145.9</ele>
        <time>2024-02-04T13:27:29Z</time>
      </trkpt>
      <trkpt lat="43.16793" lon="6.49878">
        <ele>145.7</ele>
        <time>2024-02-04T13:27:30Z</time>
      </trkpt>
      <trkpt lat="43.16792" lon="6.49877">
        <ele>145.5</ele>
        <time>2024-02-04T13:27:31Z</time>
      </trkpt>
      <trkpt lat="43.16791" lon="6.49876">
        <ele>145.2</ele>
        <time>2024-02-04T13:27:32Z</time>
      </trkpt>
      <trkpt lat="43.16791" lon="6.49875">
        <ele>145</ele>
        <time>2024-02-04T13:27:33Z</time>
      </trkpt>
      <trkpt lat="43.1679" lon="6.49874">
        <ele>144.7</ele>
        <time>2024-02-04T13:27:34Z</time>
      </trkpt>
      <trkpt lat="43.16789" lon="6.49873">
        <ele>144.4</ele>
        <time>2024-02-04T13:27:35Z</time>
      </trkpt>
      <trkpt lat="43.16788" lon="6.49872">
        <ele>144.2</ele>
        <time>2024-02-04T13:27:36Z</time>
      </trkpt>
      <trkpt lat="43.16787" lon="6.4987">
        <ele>144</ele>
        <time>2024-02-04T13:27:37Z</time>
      </trkpt>
      <trkpt lat="43.16786" lon="6.49869">
        <ele>143.9</ele>
        <time>2024-02-04T13:27:38Z</time>
      </trkpt>
      <trkpt lat="43.16785" lon="6.49868">
        <ele>143.6</ele>
        <time>2024-02-04T13:27:39Z</time>
      </trkpt>
      <trkpt lat="43.16784" lon="6.49868">
        <ele>143.3</ele>
        <time>2024-02-04T13:27:40Z</time>
      </trkpt>
      <trkpt lat="43.16783" lon="6.49867">
        <ele>143.1</ele>
        <time>2024-02-04T13:27:41Z</time>
      </trkpt>
      <trkpt lat="43.16782" lon="6.49866">
        <ele>143</ele>
        <time>2024-02-04T13:27:42Z</time>
      </trkpt>
      <trkpt lat="43.16782" lon="6.49866">
        <ele>142.8</ele>
        <time>2024-02-04T13:27:43Z</time>
      </trkpt>
      <trkpt lat="43.16781" lon="6.49865">
        <ele>142.6</ele>
        <time>2024-02-04T13:27:44Z</time>
      </trkpt>
      <trkpt lat="43.1678" lon="6.49864">
        <ele>142.4</ele>
        <time>2024-02-04T13:27:45Z</time>
      </trkpt>
      <trkpt lat="43.1678" lon="6.49864">
        <ele>142.2</ele>
        <time>2024-02-04T13:27:46Z</time>
      </trkpt>
      <trkpt lat="43.16779" lon="6.49863">
        <ele>142</ele>
        <time>2024-02-04T13:27:47Z</time>
      </trkpt>
      <trkpt lat="43.16778" lon="6.49863">
        <ele>141.8</ele>
        <time>2024-02-04T13:27:48Z</time>
      </trkpt>
      <trkpt lat="43.16777" lon="6.49862">
        <ele>141.6</ele>
        <time>2024-02-04T13:27:49Z</time>
      </trkpt>
      <trkpt lat="43.16776" lon="6.49862">
        <ele>141.3</ele>
        <time>2024-02-04T13:27:50Z</time>
      </trkpt>
      <trkpt lat="43.16776" lon="6.49862">
        <ele>141</ele>
        <time>2024-02-04T13:27:51Z</time>
      </trkpt>
      <trkpt lat="43.16775" lon="6.49862">
        <ele>140.7</ele>
        <time>2024-02-04T13:27:52Z</time>
      </trkpt>
      <trkpt lat="43.16774" lon="6.49862">
        <ele>140.4</ele>
        <time>2024-02-04T13:27:53Z</time>
      </trkpt>
      <trkpt lat="43.16773" lon="6.49861">
        <ele>140.1</ele>
        <time>2024-02-04T13:27:54Z</time>
      </trkpt>
      <trkpt lat="43.16772" lon="6.49861">
        <ele>139.9</ele>
        <time>2024-02-04T13:27:55Z</time>
      </trkpt>
      <trkpt lat="43.16771" lon="6.4986">
        <ele>139.7</ele>
        <time>2024-02-04T13:27:56Z</time>
      </trkpt>
      <trkpt lat="43.1677" lon="6.49859">
        <ele>139.5</ele>
        <time>2024-02-04T13:27:57Z</time>
      </trkpt>
      <trkpt lat="43.1677" lon="6.49859">
        <ele>139.4</ele>
        <time>2024-02-04T13:27:58Z</time>
      </trkpt>
      <trkpt lat="43.16769" lon="6.49859">
        <ele>139.2</ele>
        <time>2024-02-04T13:27:59Z</time>
      </trkpt>
      <trkpt lat="43.16768" lon="6.49858">
        <ele>139</ele>
        <time>2024-02-04T13:28:00Z</time>
      </trkpt>
      <trkpt lat="43.16767" lon="6.49858">
        <ele>138.9</ele>
        <time>2024-02-04T13:28:01Z</time>
      </trkpt>
      <trkpt lat="43.16766" lon="6.49858">
        <ele>138.8</ele>
        <time>2024-02-04T13:28:02Z</time>
      </trkpt>
      <trkpt lat="43.16766" lon="6.49857">
        <ele>138.5</ele>
        <time>2024-02-04T13:28:03Z</time>
      </trkpt>
      <trkpt lat="43.16765" lon="6.49856">
        <ele>138.4</ele>
        <time>2024-02-04T13:28:04Z</time>
      </trkpt>
      <trkpt lat="43.16764" lon="6.49855">
        <ele>138.2</ele>
        <time>2024-02-04T13:28:05Z</time>
      </trkpt>
      <trkpt lat="43.16763" lon="6.49855">
        <ele>138</ele>
        <time>2024-02-04T13:28:06Z</time>
      </trkpt>
      <trkpt lat="43.16762" lon="6.49855">
        <ele>137.9</ele>
        <time>2024-02-04T13:28:07Z</time>
      </trkpt>
      <trkpt lat="43.16761" lon="6.49856">
        <ele>137.6</ele>
        <time>2024-02-04T13:28:08Z</time>
      </trkpt>
      <trkpt lat="43.1676" lon="6.49856">
        <ele>137.3</ele>
        <time>2024-02-04T13:28:09Z</time>
      </trkpt>
      <trkpt lat="43.1676" lon="6.49855">
        <ele>137</ele>
        <time>2024-02-04T13:28:10Z</time>
      </trkpt>
      <trkpt lat="43.16759" lon="6.49855">
        <ele>136.8</ele>
        <time>2024-02-04T13:28:11Z</time>
      </trkpt>
      <trkpt lat="43.16758" lon="6.49854">
        <ele>136.6</ele>
        <time>2024-02-04T13:28:12Z</time>
      </trkpt>
      <trkpt lat="43.16757" lon="6.49854">
        <ele>136.3</ele>
        <time>2024-02-04T13:28:13Z</time>
      </trkpt>
      <trkpt lat="43.16756" lon="6.49853">
        <ele>136.2</ele>
        <time>2024-02-04T13:28:14Z</time>
      </trkpt>
      <trkpt lat="43.16755" lon="6.49852">
        <ele>135.9</ele>
        <time>2024-02-04T13:28:15Z</time>
      </trkpt>
      <trkpt lat="43.16755" lon="6.49851">
        <ele>135.6</ele>
        <time>2024-02-04T13:28:16Z</time>
      </trkpt>
      <trkpt lat="43.16754" lon="6.4985">
        <ele>135.4</ele>
        <time>2024-02-04T13:28:17Z</time>
      </trkpt>
      <trkpt lat="43.16753" lon="6.4985">
        <ele>135.3</ele>
        <time>2024-02-04T13:28:18Z</time>
      </trkpt>
      <trkpt lat="43.16752" lon="6.49848">
        <ele>135.2</ele>
        <time>2024-02-04T13:28:19Z</time>
      </trkpt>
      <trkpt lat="43.16752" lon="6.49847">
        <ele>135.1</ele>
        <time>2024-02-04T13:28:20Z</time>
      </trkpt>
      <trkpt lat="43.16751" lon="6.49846">
        <ele>135</ele>
        <time>2024-02-04T13:28:21Z</time>
      </trkpt>
      <trkpt lat="43.16751" lon="6.49845">
        <ele>134.9</ele>
        <time>2024-02-04T13:28:22Z</time>
      </trkpt>
      <trkpt lat="43.1675" lon="6.49845">
        <ele>134.8</ele>
        <time>2024-02-04T13:28:23Z</time>
      </trkpt>
      <trkpt lat="43.1675" lon="6.49844">
        <ele>134.8</ele>
        <time>2024-02-04T13:28:24Z</time>
      </trkpt>
      <trkpt lat="43.1675" lon="6.49844">
        <ele>134.8</ele>
        <time>2024-02-04T13:28:25Z</time>
      </trkpt>
      <trkpt lat="43.1675" lon="6.49844">
        <ele>134.7</ele>
        <time>2024-02-04T13:28:26Z</time>
      </trkpt>
      <trkpt lat="43.1675" lon="6.49843">
        <ele>134.7</ele>
        <time>2024-02-04T13:28:27Z</time>
      </trkpt>
      <trkpt lat="43.1675" lon="6.49843">
        <ele>134.7</ele>
        <time>2024-02-04T13:28:28Z</time>
      </trkpt>
      <trkpt lat="43.1675" lon="6.49843">
        <ele>134.6</ele>
        <time>2024-02-04T13:28:29Z</time>
      </trkpt>
      <trkpt lat="43.16749" lon="6.49842">
        <ele>134.6</ele>
        <time>2024-02-04T13:28:30Z</time>
      </trkpt>
      <trkpt lat="43.16749" lon="6.49842">
        <ele>134.6</ele>
        <time>2024-02-04T13:28:31Z</time>
      </trkpt>
      <trkpt lat="43.16749" lon="6.49842">
        <ele>134.5</ele>
        <time>2024-02-04T13:28:32Z</time>
      </trkpt>
      <trkpt lat="43.16749" lon="6.49842">
        <ele>134.5</ele>
        <time>2024-02-04T13:28:33Z</time>
      </trkpt>
      <trkpt lat="43.1675" lon="6.49842">
        <ele>134.5</ele>
        <time>2024-02-04T13:28:34Z</time>
      </trkpt>
      <trkpt lat="43.1675" lon="6.49842">
        <ele>134.4</ele>
        <time>2024-02-04T13:28:35Z</time>
      </trkpt>
      <trkpt lat="43.1675" lon="6.49842">
        <ele>134.4</ele>
        <time>2024-02-04T13:28:36Z</time>
      </trkpt>
      <trkpt lat="43.1675" lon="6.49842">
        <ele>134.3</ele>
        <time>2024-02-04T13:28:37Z</time>
      </trkpt>
      <trkpt lat="43.1675" lon="6.49842">
        <ele>134.3</ele>
        <time>2024-02-04T13:28:38Z</time>
      </trkpt>
      <trkpt lat="43.1675" lon="6.49842">
        <ele>134.2</ele>
        <time>2024-02-04T13:28:39Z</time>
      </trkpt>
      <trkpt lat="43.1675" lon="6.49842">
        <ele>134.2</ele>
        <time>2024-02-04T13:28:40Z</time>
      </trkpt>
      <trkpt lat="43.1675" lon="6.49842">
        <ele>134.2</ele>
        <time>2024-02-04T13:28:41Z</time>
      </trkpt>
      <trkpt lat="43.1675" lon="6.49842">
        <ele>134.2</ele>
        <time>2024-02-04T13:28:42Z</time>
      </trkpt>
      <trkpt lat="43.1675" lon="6.49842">
        <ele>134.2</ele>
        <time>2024-02-04T13:28:43Z</time>
      </trkpt>
      <trkpt lat="43.1675" lon="6.49842">
        <ele>134.1</ele>
        <time>2024-02-04T13:28:44Z</time>
      </trkpt>
      <trkpt lat="43.1675" lon="6.49842">
        <ele>134.1</ele>
        <time>2024-02-04T13:28:45Z</time>
      </trkpt>
      <trkpt lat="43.1675" lon="6.49842">
        <ele>134.1</ele>
        <time>2024-02-04T13:28:46Z</time>
      </trkpt>
      <trkpt lat="43.1675" lon="6.49842">
        <ele>134</ele>
        <time>2024-02-04T13:28:47Z</time>
      </trkpt>
      <trkpt lat="43.1675" lon="6.49842">
        <ele>133.9</ele>
        <time>2024-02-04T13:28:48Z</time>
      </trkpt>
      <trkpt lat="43.1675" lon="6.49842">
        <ele>134</ele>
        <time>2024-02-04T13:28:49Z</time>
      </trkpt>
      <trkpt lat="43.1675" lon="6.49842">
        <ele>134</ele>
        <time>2024-02-04T13:28:50Z</time>
      </trkpt>
      <trkpt lat="43.1675" lon="6.49842">
        <ele>134.1</ele>
        <time>2024-02-04T13:28:51Z</time>
      </trkpt>
      <trkpt lat="43.1675" lon="6.49842">
        <ele>134.1</ele>
        <time>2024-02-04T13:28:52Z</time>
      </trkpt>
      <trkpt lat="43.1675" lon="6.49842">
        <ele>134</ele>
        <time>2024-02-04T13:28:53Z</time>
      </trkpt>
      <trkpt lat="43.1675" lon="6.49842">
        <ele>134</ele>
        <time>2024-02-04T13:28:54Z</time>
      </trkpt>
      <trkpt lat="43.1675" lon="6.49841">
        <ele>134.1</ele>
        <time>2024-02-04T13:28:55Z</time>
      </trkpt>
      <trkpt lat="43.1675" lon="6.49841">
        <ele>134.2</ele>
        <time>2024-02-04T13:28:56Z</time>
      </trkpt>
      <trkpt lat="43.1675" lon="6.49841">
        <ele>134.3</ele>
        <time>2024-02-04T13:28:57Z</time>
      </trkpt>
      <trkpt lat="43.1675" lon="6.49841">
        <ele>134.3</ele>
        <time>2024-02-04T13:28:58Z</time>
      </trkpt>
      <trkpt lat="43.1675" lon="6.49841">
        <ele>134.3</ele>
        <time>2024-02-04T13:28:59Z</time>
      </trkpt>
      <trkpt lat="43.1675" lon="6.49841">
        <ele>134.3</ele>
        <time>2024-02-04T13:29:00Z</time>
      </trkpt>
      <trkpt lat="43.1675" lon="6.49842">
        <ele>134.5</ele>
        <time>2024-02-04T13:29:01Z</time>
      </trkpt>
      <trkpt lat="43.1675" lon="6.49842">
        <ele>134.6</ele>
        <time>2024-02-04T13:29:02Z</time>
      </trkpt>
      <trkpt lat="43.16751" lon="6.49842">
        <ele>134.7</ele>
        <time>2024-02-04T13:29:03Z</time>
      </trkpt>
      <trkpt lat="43.16751" lon="6.49842">
        <ele>134.6</ele>
        <time>2024-02-04T13:29:04Z</time>
      </trkpt>
      <trkpt lat="43.16751" lon="6.49842">
        <ele>134.5</ele>
        <time>2024-02-04T13:29:05Z</time>
      </trkpt>
      <trkpt lat="43.16751" lon="6.49842">
        <ele>134.5</ele>
        <time>2024-02-04T13:29:06Z</time>
      </trkpt>
      <trkpt lat="43.16751" lon="6.49842">
        <ele>134.4</ele>
        <time>2024-02-04T13:29:07Z</time>
      </trkpt>
      <trkpt lat="43.16751" lon="6.49842">
        <ele>134.4</ele>
        <time>2024-02-04T13:29:08Z</time>
      </trkpt>
      <trkpt lat="43.16751" lon="6.49842">
        <ele>134.4</ele>
        <time>2024-02-04T13:29:09Z</time>
      </trkpt>
      <trkpt lat="43.16751" lon="6.49842">
        <ele>134.5</ele>
        <time>2024-02-04T13:29:10Z</time>
      </trkpt>
      <trkpt lat="43.16751" lon="6.49843">
        <ele>134.6</ele>
        <time>2024-02-04T13:29:11Z</time>
      </trkpt>
      <trkpt lat="43.16752" lon="6.49843">
        <ele>134.6</ele>
        <time>2024-02-04T13:29:12Z</time>
      </trkpt>
      <trkpt lat="43.16752" lon="6.49843">
        <ele>134.5</ele>
        <time>2024-02-04T13:29:13Z</time>
      </trkpt>
      <trkpt lat="43.16752" lon="6.49843">
        <ele>134.5</ele>
        <time>2024-02-04T13:29:14Z</time>
      </trkpt>
      <trkpt lat="43.16752" lon="6.49843">
        <ele>134.5</ele>
        <time>2024-02-04T13:29:15Z</time>
      </trkpt>
      <trkpt lat="43.16752" lon="6.49843">
        <ele>134.5</ele>
        <time>2024-02-04T13:29:16Z</time>
      </trkpt>
      <trkpt lat="43.16752" lon="6.49843">
        <ele>134.5</ele>
        <time>2024-02-04T13:29:17Z</time>
      </trkpt>
      <trkpt lat="43.16752" lon="6.49843">
        <ele>134.5</ele>
        <time>2024-02-04T13:29:18Z</time>
      </trkpt>
      <trkpt lat="43.16752" lon="6.49843">
        <ele>134.4</ele>
        <time>2024-02-04T13:29:19Z</time>
      </trkpt>
      <trkpt lat="43.16752" lon="6.49843">
        <ele>134.4</ele>
        <time>2024-02-04T13:29:20Z</time>
      </trkpt>
      <trkpt lat="43.16752" lon="6.49843">
        <ele>134.4</ele>
        <time>2024-02-04T13:29:21Z</time>
      </trkpt>
      <trkpt lat="43.16752" lon="6.49843">
        <ele>134.4</ele>
        <time>2024-02-04T13:29:22Z</time>
      </trkpt>
      <trkpt lat="43.16752" lon="6.49843">
        <ele>134.4</ele>
        <time>2024-02-04T13:29:23Z</time>
      </trkpt>
      <trkpt lat="43.16752" lon="6.49842">
        <ele>134.5</ele>
        <time>2024-02-04T13:29:24Z</time>
      </trkpt>
      <trkpt lat="43.16752" lon="6.4984">
        <ele>134.5</ele>
        <time>2024-02-04T13:29:25Z</time>
      </trkpt>
      <trkpt lat="43.16751" lon="6.49839">
        <ele>134.4</ele>
        <time>2024-02-04T13:29:26Z</time>
      </trkpt>
      <trkpt lat="43.1675" lon="6.49837">
        <ele>134.3</ele>
        <time>2024-02-04T13:29:27Z</time>
      </trkpt>
      <trkpt lat="43.16749" lon="6.49836">
        <ele>133.9</ele>
        <time>2024-02-04T13:29:28Z</time>
      </trkpt>
      <trkpt lat="43.16748" lon="6.49834">
        <ele>133.7</ele>
        <time>2024-02-04T13:29:29Z</time>
      </trkpt>
      <trkpt lat="43.16747" lon="6.49833">
        <ele>133.4</ele>
        <time>2024-02-04T13:29:30Z</time>
      </trkpt>
      <trkpt lat="43.16746" lon="6.49831">
        <ele>132.9</ele>
        <time>2024-02-04T13:29:31Z</time>
      </trkpt>
      <trkpt lat="43.16745" lon="6.49829">
        <ele>132.3</ele>
        <time>2024-02-04T13:29:32Z</time>
      </trkpt>
      <trkpt lat="43.16745" lon="6.49826">
        <ele>131.5</ele>
        <time>2024-02-04T13:29:33Z</time>
      </trkpt>
      <trkpt lat="43.16744" lon="6.49824">
        <ele>131</ele>
        <time>2024-02-04T13:29:34Z</time>
      </trkpt>
      <trkpt lat="43.16743" lon="6.49823">
        <ele>130.5</ele>
        <time>2024-02-04T13:29:35Z</time>
      </trkpt>
      <trkpt lat="43.16742" lon="6.49821">
        <ele>130.1</ele>
        <time>2024-02-04T13:29:36Z</time>
      </trkpt>
      <trkpt lat="43.16741" lon="6.4982">
        <ele>129.6</ele>
        <time>2024-02-04T13:29:37Z</time>
      </trkpt>
      <trkpt lat="43.16741" lon="6.49817">
        <ele>129.1</ele>
        <time>2024-02-04T13:29:38Z</time>
      </trkpt>
      <trkpt lat="43.1674" lon="6.49816">
        <ele>128.6</ele>
        <time>2024-02-04T13:29:39Z</time>
      </trkpt>
      <trkpt lat="43.16739" lon="6.49814">
        <ele>128.2</ele>
        <time>2024-02-04T13:29:40Z</time>
      </trkpt>
      <trkpt lat="43.16738" lon="6.49812">
        <ele>127.7</ele>
        <time>2024-02-04T13:29:41Z</time>
      </trkpt>
      <trkpt lat="43.16737" lon="6.49809">
        <ele>127.1</ele>
        <time>2024-02-04T13:29:42Z</time>
      </trkpt>
      <trkpt lat="43.16736" lon="6.49806">
        <ele>126.6</ele>
        <time>2024-02-04T13:29:43Z</time>
      </trkpt>
      <trkpt lat="43.16735" lon="6.49805">
        <ele>126.3</ele>
        <time>2024-02-04T13:29:44Z</time>
      </trkpt>
      <trkpt lat="43.16735" lon="6.49803">
        <ele>125.8</ele>
        <time>2024-02-04T13:29:45Z</time>
      </trkpt>
      <trkpt lat="43.16734" lon="6.49801">
        <ele>125.4</ele>
        <time>2024-02-04T13:29:46Z</time>
      </trkpt>
      <trkpt lat="43.16734" lon="6.49799">
        <ele>125</ele>
        <time>2024-02-04T13:29:47Z</time>
      </trkpt>
      <trkpt lat="43.16734" lon="6.49798">
        <ele>124.6</ele>
        <time>2024-02-04T13:29:48Z</time>
      </trkpt>
      <trkpt lat="43.16734" lon="6.49796">
        <ele>124.3</ele>
        <time>2024-02-04T13:29:49Z</time>
      </trkpt>
      <trkpt lat="43.16733" lon="6.49795">
        <ele>123.8</ele>
        <time>2024-02-04T13:29:50Z</time>
      </trkpt>
      <trkpt lat="43.16733" lon="6.49793">
        <ele>123.4</ele>
        <time>2024-02-04T13:29:51Z</time>
      </trkpt>
      <trkpt lat="43.16732" lon="6.49792">
        <ele>123</ele>
        <time>2024-02-04T13:29:52Z</time>
      </trkpt>
      <trkpt lat="43.16731" lon="6.4979">
        <ele>122.4</ele>
        <time>2024-02-04T13:29:53Z</time>
      </trkpt>
      <trkpt lat="43.1673" lon="6.49788">
        <ele>122</ele>
        <time>2024-02-04T13:29:54Z</time>
      </trkpt>
      <trkpt lat="43.16729" lon="6.49787">
        <ele>121.5</ele>
        <time>2024-02-04T13:29:55Z</time>
      </trkpt>
      <trkpt lat="43.16728" lon="6.49786">
        <ele>121.2</ele>
        <time>2024-02-04T13:29:56Z</time>
      </trkpt>
      <trkpt lat="43.16728" lon="6.49785">
        <ele>120.6</ele>
        <time>2024-02-04T13:29:57Z</time>
      </trkpt>
      <trkpt lat="43.16727" lon="6.49784">
        <ele>120.2</ele>
        <time>2024-02-04T13:29:58Z</time>
      </trkpt>
      <trkpt lat="43.16726" lon="6.49783">
        <ele>119.9</ele>
        <time>2024-02-04T13:29:59Z</time>
      </trkpt>
      <trkpt lat="43.16726" lon="6.49781">
        <ele>119.5</ele>
        <time>2024-02-04T13:30:00Z</time>
      </trkpt>
      <trkpt lat="43.16725" lon="6.4978">
        <ele>119.1</ele>
        <time>2024-02-04T13:30:01Z</time>
      </trkpt>
      <trkpt lat="43.16724" lon="6.49778">
        <ele>118.9</ele>
        <time>2024-02-04T13:30:02Z</time>
      </trkpt>
      <trkpt lat="43.16724" lon="6.49777">
        <ele>118.6</ele>
        <time>2024-02-04T13:30:03Z</time>
      </trkpt>
      <trkpt lat="43.16723" lon="6.49776">
        <ele>118.4</ele>
        <time>2024-02-04T13:30:04Z</time>
      </trkpt>
      <trkpt lat="43.16723" lon="6.49775">
        <ele>118.2</ele>
        <time>2024-02-04T13:30:05Z</time>
      </trkpt>
      <trkpt lat="43.16722" lon="6.49773">
        <ele>117.9</ele>
        <time>2024-02-04T13:30:06Z</time>
      </trkpt>
      <trkpt lat="43.16722" lon="6.49773">
        <ele>117.5</ele>
        <time>2024-02-04T13:30:07Z</time>
      </trkpt>
      <trkpt lat="43.16721" lon="6.49771">
        <ele>117.2</ele>
        <time>2024-02-04T13:30:08Z</time>
      </trkpt>
      <trkpt lat="43.16721" lon="6.4977">
        <ele>116.8</ele>
        <time>2024-02-04T13:30:09Z</time>
      </trkpt>
      <trkpt lat="43.1672" lon="6.49769">
        <ele>116.5</ele>
        <time>2024-02-04T13:30:10Z</time>
      </trkpt>
      <trkpt lat="43.1672" lon="6.49768">
        <ele>116.2</ele>
        <time>2024-02-04T13:30:11Z</time>
      </trkpt>
      <trkpt lat="43.16719" lon="6.49767">
        <ele>116</ele>
        <time>2024-02-04T13:30:12Z</time>
      </trkpt>
      <trkpt lat="43.16719" lon="6.49766">
        <ele>115.7</ele>
        <time>2024-02-04T13:30:13Z</time>
      </trkpt>
      <trkpt lat="43.16719" lon="6.49765">
        <ele>115.5</ele>
        <time>2024-02-04T13:30:14Z</time>
      </trkpt>
      <trkpt lat="43.16718" lon="6.49764">
        <ele>115.3</ele>
        <time>2024-02-04T13:30:15Z</time>
      </trkpt>
      <trkpt lat="43.16717" lon="6.49764">
        <ele>115.1</ele>
        <time>2024-02-04T13:30:16Z</time>
      </trkpt>
      <trkpt lat="43.16716" lon="6.49763">
        <ele>114.9</ele>
        <time>2024-02-04T13:30:17Z</time>
      </trkpt>
      <trkpt lat="43.16715" lon="6.49763">
        <ele>114.6</ele>
        <time>2024-02-04T13:30:18Z</time>
      </trkpt>
      <trkpt lat="43.16714" lon="6.49763">
        <ele>114.4</ele>
        <time>2024-02-04T13:30:19Z</time>
      </trkpt>
      <trkpt lat="43.16712" lon="6.49761">
        <ele>114</ele>
        <time>2024-02-04T13:30:20Z</time>
      </trkpt>
      <trkpt lat="43.1671" lon="6.49761">
        <ele>113.7</ele>
        <time>2024-02-04T13:30:21Z</time>
      </trkpt>
      <trkpt lat="43.16709" lon="6.49761">
        <ele>113.4</ele>
        <time>2024-02-04T13:30:22Z</time>
      </trkpt>
      <trkpt lat="43.16708" lon="6.49761">
        <ele>113.2</ele>
        <time>2024-02-04T13:30:23Z</time>
      </trkpt>
      <trkpt lat="43.16707" lon="6.49762">
        <ele>112.9</ele>
        <time>2024-02-04T13:30:24Z</time>
      </trkpt>
      <trkpt lat="43.16706" lon="6.49763">
        <ele>112.8</ele>
        <time>2024-02-04T13:30:25Z</time>
      </trkpt>
      <trkpt lat="43.16706" lon="6.49764">
        <ele>112.6</ele>
        <time>2024-02-04T13:30:26Z</time>
      </trkpt>
      <trkpt lat="43.16706" lon="6.49765">
        <ele>112.4</ele>
        <time>2024-02-04T13:30:27Z</time>
      </trkpt>
      <trkpt lat="43.16705" lon="6.49766">
        <ele>112.3</ele>
        <time>2024-02-04T13:30:28Z</time>
      </trkpt>
      <trkpt lat="43.16703" lon="6.49767">
        <ele>112.2</ele>
        <time>2024-02-04T13:30:29Z</time>
      </trkpt>
      <trkpt lat="43.16703" lon="6.49768">
        <ele>112.1</ele>
        <time>2024-02-04T13:30:30Z</time>
      </trkpt>
      <trkpt lat="43.16702" lon="6.49769">
        <ele>112</ele>
        <time>2024-02-04T13:30:31Z</time>
      </trkpt>
      <trkpt lat="43.16701" lon="6.4977">
        <ele>112</ele>
        <time>2024-02-04T13:30:32Z</time>
      </trkpt>
      <trkpt lat="43.16701" lon="6.4977">
        <ele>111.9</ele>
        <time>2024-02-04T13:30:33Z</time>
      </trkpt>
      <trkpt lat="43.167" lon="6.49772">
        <ele>111.8</ele>
        <time>2024-02-04T13:30:34Z</time>
      </trkpt>
      <trkpt lat="43.16699" lon="6.49773">
        <ele>111.7</ele>
        <time>2024-02-04T13:30:35Z</time>
      </trkpt>
      <trkpt lat="43.16698" lon="6.49774">
        <ele>111.7</ele>
        <time>2024-02-04T13:30:36Z</time>
      </trkpt>
      <trkpt lat="43.16698" lon="6.49775">
        <ele>111.7</ele>
        <time>2024-02-04T13:30:37Z</time>
      </trkpt>
      <trkpt lat="43.16697" lon="6.49776">
        <ele>111.7</ele>
        <time>2024-02-04T13:30:38Z</time>
      </trkpt>
      <trkpt lat="43.16696" lon="6.49777">
        <ele>111.6</ele>
        <time>2024-02-04T13:30:39Z</time>
      </trkpt>
      <trkpt lat="43.16696" lon="6.49779">
        <ele>111.7</ele>
        <time>2024-02-04T13:30:40Z</time>
      </trkpt>
      <trkpt lat="43.16695" lon="6.4978">
        <ele>111.7</ele>
        <time>2024-02-04T13:30:41Z</time>
      </trkpt>
      <trkpt lat="43.16695" lon="6.49781">
        <ele>111.7</ele>
        <time>2024-02-04T13:30:42Z</time>
      </trkpt>
      <trkpt lat="43.16694" lon="6.49783">
        <ele>111.7</ele>
        <time>2024-02-04T13:30:43Z</time>
      </trkpt>
      <trkpt lat="43.16694" lon="6.49785">
        <ele>111.7</ele>
        <time>2024-02-04T13:30:44Z</time>
      </trkpt>
      <trkpt lat="43.16693" lon="6.49787">
        <ele>111.7</ele>
        <time>2024-02-04T13:30:45Z</time>
      </trkpt>
      <trkpt lat="43.16693" lon="6.49787">
        <ele>111.7</ele>
        <time>2024-02-04T13:30:46Z</time>
      </trkpt>
      <trkpt lat="43.16692" lon="6.49789">
        <ele>111.7</ele>
        <time>2024-02-04T13:30:47Z</time>
      </trkpt>
      <trkpt lat="43.16693" lon="6.49789">
        <ele>111.7</ele>
        <time>2024-02-04T13:30:48Z</time>
      </trkpt>
      <trkpt lat="43.16693" lon="6.4979">
        <ele>111.6</ele>
        <time>2024-02-04T13:30:49Z</time>
      </trkpt>
      <trkpt lat="43.16692" lon="6.49791">
        <ele>111.5</ele>
        <time>2024-02-04T13:30:50Z</time>
      </trkpt>
      <trkpt lat="43.16692" lon="6.49792">
        <ele>111.5</ele>
        <time>2024-02-04T13:30:51Z</time>
      </trkpt>
      <trkpt lat="43.16691" lon="6.49793">
        <ele>111.5</ele>
        <time>2024-02-04T13:30:52Z</time>
      </trkpt>
      <trkpt lat="43.16691" lon="6.49794">
        <ele>111.5</ele>
        <time>2024-02-04T13:30:53Z</time>
      </trkpt>
      <trkpt lat="43.16691" lon="6.49795">
        <ele>111.5</ele>
        <time>2024-02-04T13:30:54Z</time>
      </trkpt>
      <trkpt lat="43.1669" lon="6.49796">
        <ele>111.4</ele>
        <time>2024-02-04T13:30:55Z</time>
      </trkpt>
      <trkpt lat="43.1669" lon="6.49798">
        <ele>111.4</ele>
        <time>2024-02-04T13:30:56Z</time>
      </trkpt>
      <trkpt lat="43.1669" lon="6.49799">
        <ele>111.3</ele>
        <time>2024-02-04T13:30:57Z</time>
      </trkpt>
      <trkpt lat="43.16689" lon="6.49799">
        <ele>111.3</ele>
        <time>2024-02-04T13:30:58Z</time>
      </trkpt>
      <trkpt lat="43.16689" lon="6.498">
        <ele>111.2</ele>
        <time>2024-02-04T13:30:59Z</time>
      </trkpt>
      <trkpt lat="43.16688" lon="6.49801">
        <ele>111.1</ele>
        <time>2024-02-04T13:31:00Z</time>
      </trkpt>
      <trkpt lat="43.16688" lon="6.49801">
        <ele>111.1</ele>
        <time>2024-02-04T13:31:01Z</time>
      </trkpt>
      <trkpt lat="43.16688" lon="6.49803">
        <ele>111</ele>
        <time>2024-02-04T13:31:02Z</time>
      </trkpt>
      <trkpt lat="43.16687" lon="6.49804">
        <ele>110.9</ele>
        <time>2024-02-04T13:31:03Z</time>
      </trkpt>
      <trkpt lat="43.16687" lon="6.49804">
        <ele>110.9</ele>
        <time>2024-02-04T13:31:04Z</time>
      </trkpt>
      <trkpt lat="43.16687" lon="6.49805">
        <ele>110.9</ele>
        <time>2024-02-04T13:31:05Z</time>
      </trkpt>
      <trkpt lat="43.16687" lon="6.49806">
        <ele>110.9</ele>
        <time>2024-02-04T13:31:06Z</time>
      </trkpt>
      <trkpt lat="43.16687" lon="6.49807">
        <ele>110.9</ele>
        <time>2024-02-04T13:31:07Z</time>
      </trkpt>
      <trkpt lat="43.16686" lon="6.49809">
        <ele>110.9</ele>
        <time>2024-02-04T13:31:08Z</time>
      </trkpt>
      <trkpt lat="43.16686" lon="6.4981">
        <ele>111</ele>
        <time>2024-02-04T13:31:09Z</time>
      </trkpt>
      <trkpt lat="43.16686" lon="6.49811">
        <ele>110.9</ele>
        <time>2024-02-04T13:31:10Z</time>
      </trkpt>
      <trkpt lat="43.16685" lon="6.49812">
        <ele>110.8</ele>
        <time>2024-02-04T13:31:11Z</time>
      </trkpt>
      <trkpt lat="43.16685" lon="6.49813">
        <ele>110.8</ele>
        <time>2024-02-04T13:31:12Z</time>
      </trkpt>
      <trkpt lat="43.16684" lon="6.49815">
        <ele>110.8</ele>
        <time>2024-02-04T13:31:13Z</time>
      </trkpt>
      <trkpt lat="43.16684" lon="6.49816">
        <ele>110.8</ele>
        <time>2024-02-04T13:31:14Z</time>
      </trkpt>
      <trkpt lat="43.16684" lon="6.49818">
        <ele>110.7</ele>
        <time>2024-02-04T13:31:15Z</time>
      </trkpt>
      <trkpt lat="43.16683" lon="6.49818">
        <ele>110.7</ele>
        <time>2024-02-04T13:31:16Z</time>
      </trkpt>
      <trkpt lat="43.16682" lon="6.49819">
        <ele>110.7</ele>
        <time>2024-02-04T13:31:17Z</time>
      </trkpt>
      <trkpt lat="43.16682" lon="6.49821">
        <ele>110.7</ele>
        <time>2024-02-04T13:31:18Z</time>
      </trkpt>
      <trkpt lat="43.16681" lon="6.49822">
        <ele>110.6</ele>
        <time>2024-02-04T13:31:19Z</time>
      </trkpt>
      <trkpt lat="43.1668" lon="6.49823">
        <ele>110.6</ele>
        <time>2024-02-04T13:31:20Z</time>
      </trkpt>
      <trkpt lat="43.1668" lon="6.49825">
        <ele>110.5</ele>
        <time>2024-02-04T13:31:21Z</time>
      </trkpt>
      <trkpt lat="43.1668" lon="6.49826">
        <ele>110.5</ele>
        <time>2024-02-04T13:31:22Z</time>
      </trkpt>
      <trkpt lat="43.16679" lon="6.49828">
        <ele>110.4</ele>
        <time>2024-02-04T13:31:23Z</time>
      </trkpt>
      <trkpt lat="43.16678" lon="6.49829">
        <ele>110.4</ele>
        <time>2024-02-04T13:31:24Z</time>
      </trkpt>
      <trkpt lat="43.16678" lon="6.49831">
        <ele>110.4</ele>
        <time>2024-02-04T13:31:25Z</time>
      </trkpt>
      <trkpt lat="43.16678" lon="6.49833">
        <ele>110.4</ele>
        <time>2024-02-04T13:31:26Z</time>
      </trkpt>
      <trkpt lat="43.16678" lon="6.49835">
        <ele>110.4</ele>
        <time>2024-02-04T13:31:27Z</time>
      </trkpt>
      <trkpt lat="43.16677" lon="6.49837">
        <ele>110.3</ele>
        <time>2024-02-04T13:31:28Z</time>
      </trkpt>
      <trkpt lat="43.16677" lon="6.49839">
        <ele>110.2</ele>
        <time>2024-02-04T13:31:29Z</time>
      </trkpt>
      <trkpt lat="43.16677" lon="6.4984">
        <ele>110.2</ele>
        <time>2024-02-04T13:31:30Z</time>
      </trkpt>
      <trkpt lat="43.16677" lon="6.49841">
        <ele>110.1</ele>
        <time>2024-02-04T13:31:31Z</time>
      </trkpt>
      <trkpt lat="43.16676" lon="6.49843">
        <ele>110</ele>
        <time>2024-02-04T13:31:32Z</time>
      </trkpt>
      <trkpt lat="43.16676" lon="6.49846">
        <ele>109.9</ele>
        <time>2024-02-04T13:31:33Z</time>
      </trkpt>
      <trkpt lat="43.16675" lon="6.49847">
        <ele>109.8</ele>
        <time>2024-02-04T13:31:34Z</time>
      </trkpt>
      <trkpt lat="43.16676" lon="6.49848">
        <ele>109.8</ele>
        <time>2024-02-04T13:31:35Z</time>
      </trkpt>
      <trkpt lat="43.16676" lon="6.4985">
        <ele>109.8</ele>
        <time>2024-02-04T13:31:36Z</time>
      </trkpt>
      <trkpt lat="43.16676" lon="6.49851">
        <ele>109.8</ele>
        <time>2024-02-04T13:31:37Z</time>
      </trkpt>
      <trkpt lat="43.16676" lon="6.49853">
        <ele>109.7</ele>
        <time>2024-02-04T13:31:38Z</time>
      </trkpt>
      <trkpt lat="43.16677" lon="6.49855">
        <ele>109.7</ele>
        <time>2024-02-04T13:31:39Z</time>
      </trkpt>
      <trkpt lat="43.16677" lon="6.49856">
        <ele>109.7</ele>
        <time>2024-02-04T13:31:40Z</time>
      </trkpt>
      <trkpt lat="43.16678" lon="6.49857">
        <ele>109.8</ele>
        <time>2024-02-04T13:31:41Z</time>
      </trkpt>
      <trkpt lat="43.16678" lon="6.49859">
        <ele>109.9</ele>
        <time>2024-02-04T13:31:42Z</time>
      </trkpt>
      <trkpt lat="43.16677" lon="6.49861">
        <ele>109.9</ele>
        <time>2024-02-04T13:31:43Z</time>
      </trkpt>
      <trkpt lat="43.16678" lon="6.49862">
        <ele>109.8</ele>
        <time>2024-02-04T13:31:44Z</time>
      </trkpt>
      <trkpt lat="43.16678" lon="6.49865">
        <ele>109.8</ele>
        <time>2024-02-04T13:31:45Z</time>
      </trkpt>
      <trkpt lat="43.16678" lon="6.49866">
        <ele>109.7</ele>
        <time>2024-02-04T13:31:46Z</time>
      </trkpt>
      <trkpt lat="43.16678" lon="6.49867">
        <ele>109.7</ele>
        <time>2024-02-04T13:31:47Z</time>
      </trkpt>
      <trkpt lat="43.16678" lon="6.49867">
        <ele>109.6</ele>
        <time>2024-02-04T13:31:48Z</time>
      </trkpt>
      <trkpt lat="43.16678" lon="6.49868">
        <ele>109.6</ele>
        <time>2024-02-04T13:31:49Z</time>
      </trkpt>
      <trkpt lat="43.16678" lon="6.49868">
        <ele>109.6</ele>
        <time>2024-02-04T13:31:50Z</time>
      </trkpt>
      <trkpt lat="43.16679" lon="6.49868">
        <ele>109.5</ele>
        <time>2024-02-04T13:31:51Z</time>
      </trkpt>
      <trkpt lat="43.16679" lon="6.49869">
        <ele>109.5</ele>
        <time>2024-02-04T13:31:52Z</time>
      </trkpt>
      <trkpt lat="43.16679" lon="6.49869">
        <ele>109.5</ele>
        <time>2024-02-04T13:31:53Z</time>
      </trkpt>
      <trkpt lat="43.16679" lon="6.49869">
        <ele>109.5</ele>
        <time>2024-02-04T13:31:54Z</time>
      </trkpt>
      <trkpt lat="43.16679" lon="6.4987">
        <ele>109.5</ele>
        <time>2024-02-04T13:31:55Z</time>
      </trkpt>
      <trkpt lat="43.16679" lon="6.49871">
        <ele>109.5</ele>
        <time>2024-02-04T13:31:56Z</time>
      </trkpt>
      <trkpt lat="43.16679" lon="6.49872">
        <ele>109.4</ele>
        <time>2024-02-04T13:31:57Z</time>
      </trkpt>
      <trkpt lat="43.16679" lon="6.49872">
        <ele>109.4</ele>
        <time>2024-02-04T13:31:58Z</time>
      </trkpt>
      <trkpt lat="43.16679" lon="6.49873">
        <ele>109.3</ele>
        <time>2024-02-04T13:31:59Z</time>
      </trkpt>
      <trkpt lat="43.16679" lon="6.49873">
        <ele>109.4</ele>
        <time>2024-02-04T13:32:00Z</time>
      </trkpt>
      <trkpt lat="43.16679" lon="6.49873">
        <ele>109.3</ele>
        <time>2024-02-04T13:32:01Z</time>
      </trkpt>
      <trkpt lat="43.16679" lon="6.49873">
        <ele>109.2</ele>
        <time>2024-02-04T13:32:02Z</time>
      </trkpt>
      <trkpt lat="43.16679" lon="6.49873">
        <ele>109.3</ele>
        <time>2024-02-04T13:32:03Z</time>
      </trkpt>
      <trkpt lat="43.16679" lon="6.49873">
        <ele>109.4</ele>
        <time>2024-02-04T13:32:04Z</time>
      </trkpt>
      <trkpt lat="43.16679" lon="6.49874">
        <ele>109.4</ele>
        <time>2024-02-04T13:32:05Z</time>
      </trkpt>
      <trkpt lat="43.1668" lon="6.49874">
        <ele>109.4</ele>
        <time>2024-02-04T13:32:06Z</time>
      </trkpt>
      <trkpt lat="43.1668" lon="6.49874">
        <ele>109.4</ele>
        <time>2024-02-04T13:32:07Z</time>
      </trkpt>
      <trkpt lat="43.1668" lon="6.49875">
        <ele>109.4</ele>
        <time>2024-02-04T13:32:08Z</time>
      </trkpt>
      <trkpt lat="43.1668" lon="6.49875">
        <ele>109.5</ele>
        <time>2024-02-04T13:32:09Z</time>
      </trkpt>
      <trkpt lat="43.1668" lon="6.49876">
        <ele>109.5</ele>
        <time>2024-02-04T13:32:10Z</time>
      </trkpt>
      <trkpt lat="43.16681" lon="6.49877">
        <ele>109.5</ele>
        <time>2024-02-04T13:32:11Z</time>
      </trkpt>
      <trkpt lat="43.16681" lon="6.49878">
        <ele>109.5</ele>
        <time>2024-02-04T13:32:12Z</time>
      </trkpt>
      <trkpt lat="43.16682" lon="6.49879">
        <ele>109.5</ele>
        <time>2024-02-04T13:32:13Z</time>
      </trkpt>
      <trkpt lat="43.16682" lon="6.49881">
        <ele>109.5</ele>
        <time>2024-02-04T13:32:14Z</time>
      </trkpt>
      <trkpt lat="43.16682" lon="6.49882">
        <ele>109.5</ele>
        <time>2024-02-04T13:32:15Z</time>
      </trkpt>
      <trkpt lat="43.16682" lon="6.49883">
        <ele>109.5</ele>
        <time>2024-02-04T13:32:16Z</time>
      </trkpt>
      <trkpt lat="43.16683" lon="6.49884">
        <ele>109.5</ele>
        <time>2024-02-04T13:32:17Z</time>
      </trkpt>
      <trkpt lat="43.16684" lon="6.49885">
        <ele>109.5</ele>
        <time>2024-02-04T13:32:18Z</time>
      </trkpt>
      <trkpt lat="43.16684" lon="6.49886">
        <ele>109.5</ele>
        <time>2024-02-04T13:32:19Z</time>
      </trkpt>
      <trkpt lat="43.16684" lon="6.49888">
        <ele>109.5</ele>
        <time>2024-02-04T13:32:20Z</time>
      </trkpt>
      <trkpt lat="43.16684" lon="6.49889">
        <ele>109.4</ele>
        <time>2024-02-04T13:32:21Z</time>
      </trkpt>
      <trkpt lat="43.16685" lon="6.49891">
        <ele>109.4</ele>
        <time>2024-02-04T13:32:22Z</time>
      </trkpt>
      <trkpt lat="43.16685" lon="6.49892">
        <ele>109.3</ele>
        <time>2024-02-04T13:32:23Z</time>
      </trkpt>
      <trkpt lat="43.16686" lon="6.49893">
        <ele>109.3</ele>
        <time>2024-02-04T13:32:24Z</time>
      </trkpt>
      <trkpt lat="43.16685" lon="6.49895">
        <ele>109.3</ele>
        <time>2024-02-04T13:32:25Z</time>
      </trkpt>
      <trkpt lat="43.16685" lon="6.49897">
        <ele>109.3</ele>
        <time>2024-02-04T13:32:26Z</time>
      </trkpt>
      <trkpt lat="43.16685" lon="6.49898">
        <ele>109.2</ele>
        <time>2024-02-04T13:32:27Z</time>
      </trkpt>
      <trkpt lat="43.16685" lon="6.49899">
        <ele>109.2</ele>
        <time>2024-02-04T13:32:28Z</time>
      </trkpt>
      <trkpt lat="43.16685" lon="6.49901">
        <ele>109.1</ele>
        <time>2024-02-04T13:32:29Z</time>
      </trkpt>
      <trkpt lat="43.16685" lon="6.49903">
        <ele>109.1</ele>
        <time>2024-02-04T13:32:30Z</time>
      </trkpt>
      <trkpt lat="43.16685" lon="6.49904">
        <ele>109.1</ele>
        <time>2024-02-04T13:32:31Z</time>
      </trkpt>
      <trkpt lat="43.16685" lon="6.49905">
        <ele>109.1</ele>
        <time>2024-02-04T13:32:32Z</time>
      </trkpt>
      <trkpt lat="43.16685" lon="6.49906">
        <ele>109.1</ele>
        <time>2024-02-04T13:32:33Z</time>
      </trkpt>
      <trkpt lat="43.16685" lon="6.49908">
        <ele>109.1</ele>
        <time>2024-02-04T13:32:34Z</time>
      </trkpt>
      <trkpt lat="43.16685" lon="6.49909">
        <ele>109.2</ele>
        <time>2024-02-04T13:32:35Z</time>
      </trkpt>
      <trkpt lat="43.16685" lon="6.49911">
        <ele>109.2</ele>
        <time>2024-02-04T13:32:36Z</time>
      </trkpt>
      <trkpt lat="43.16685" lon="6.49912">
        <ele>109.3</ele>
        <time>2024-02-04T13:32:37Z</time>
      </trkpt>
      <trkpt lat="43.16685" lon="6.49913">
        <ele>109.3</ele>
        <time>2024-02-04T13:32:38Z</time>
      </trkpt>
      <trkpt lat="43.16685" lon="6.49915">
        <ele>109.3</ele>
        <time>2024-02-04T13:32:39Z</time>
      </trkpt>
      <trkpt lat="43.16686" lon="6.49916">
        <ele>109.3</ele>
        <time>2024-02-04T13:32:40Z</time>
      </trkpt>
      <trkpt lat="43.16686" lon="6.49917">
        <ele>109.3</ele>
        <time>2024-02-04T13:32:41Z</time>
      </trkpt>
      <trkpt lat="43.16686" lon="6.49918">
        <ele>109.3</ele>
        <time>2024-02-04T13:32:42Z</time>
      </trkpt>
      <trkpt lat="43.16687" lon="6.49918">
        <ele>109.3</ele>
        <time>2024-02-04T13:32:43Z</time>
      </trkpt>
      <trkpt lat="43.16687" lon="6.49919">
        <ele>109.4</ele>
        <time>2024-02-04T13:32:44Z</time>
      </trkpt>
      <trkpt lat="43.16688" lon="6.49919">
        <ele>109.4</ele>
        <time>2024-02-04T13:32:45Z</time>
      </trkpt>
      <trkpt lat="43.16688" lon="6.49918">
        <ele>109.6</ele>
        <time>2024-02-04T13:32:46Z</time>
      </trkpt>
      <trkpt lat="43.16688" lon="6.49918">
        <ele>109.6</ele>
        <time>2024-02-04T13:32:47Z</time>
      </trkpt>
      <trkpt lat="43.16688" lon="6.49918">
        <ele>109.7</ele>
        <time>2024-02-04T13:32:48Z</time>
      </trkpt>
      <trkpt lat="43.16688" lon="6.49918">
        <ele>109.7</ele>
        <time>2024-02-04T13:32:49Z</time>
      </trkpt>
      <trkpt lat="43.16688" lon="6.49918">
        <ele>109.7</ele>
        <time>2024-02-04T13:32:50Z</time>
      </trkpt>
      <trkpt lat="43.16688" lon="6.49918">
        <ele>109.6</ele>
        <time>2024-02-04T13:32:51Z</time>
      </trkpt>
      <trkpt lat="43.16688" lon="6.49918">
        <ele>109.5</ele>
        <time>2024-02-04T13:32:52Z</time>
      </trkpt>
      <trkpt lat="43.16688" lon="6.49918">
        <ele>109.5</ele>
        <time>2024-02-04T13:32:53Z</time>
      </trkpt>
      <trkpt lat="43.16688" lon="6.49918">
        <ele>109.5</ele>
        <time>2024-02-04T13:32:54Z</time>
      </trkpt>
      <trkpt lat="43.16688" lon="6.49919">
        <ele>109.6</ele>
        <time>2024-02-04T13:32:55Z</time>
      </trkpt>
      <trkpt lat="43.16688" lon="6.49919">
        <ele>109.6</ele>
        <time>2024-02-04T13:32:56Z</time>
      </trkpt>
      <trkpt lat="43.16687" lon="6.4992">
        <ele>109.7</ele>
        <time>2024-02-04T13:32:57Z</time>
      </trkpt>
      <trkpt lat="43.16687" lon="6.4992">
        <ele>109.7</ele>
        <time>2024-02-04T13:32:58Z</time>
      </trkpt>
      <trkpt lat="43.16687" lon="6.49921">
        <ele>109.7</ele>
        <time>2024-02-04T13:32:59Z</time>
      </trkpt>
      <trkpt lat="43.16687" lon="6.49922">
        <ele>109.7</ele>
        <time>2024-02-04T13:33:00Z</time>
      </trkpt>
      <trkpt lat="43.16687" lon="6.49922">
        <ele>109.7</ele>
        <time>2024-02-04T13:33:01Z</time>
      </trkpt>
      <trkpt lat="43.16687" lon="6.49923">
        <ele>109.7</ele>
        <time>2024-02-04T13:33:02Z</time>
      </trkpt>
      <trkpt lat="43.16687" lon="6.49924">
        <ele>109.7</ele>
        <time>2024-02-04T13:33:03Z</time>
      </trkpt>
      <trkpt lat="43.16687" lon="6.49925">
        <ele>109.8</ele>
        <time>2024-02-04T13:33:04Z</time>
      </trkpt>
      <trkpt lat="43.16686" lon="6.49926">
        <ele>109.8</ele>
        <time>2024-02-04T13:33:05Z</time>
      </trkpt>
      <trkpt lat="43.16686" lon="6.49927">
        <ele>109.8</ele>
        <time>2024-02-04T13:33:06Z</time>
      </trkpt>
      <trkpt lat="43.16685" lon="6.49929">
        <ele>109.7</ele>
        <time>2024-02-04T13:33:07Z</time>
      </trkpt>
      <trkpt lat="43.16685" lon="6.4993">
        <ele>109.6</ele>
        <time>2024-02-04T13:33:08Z</time>
      </trkpt>
      <trkpt lat="43.16685" lon="6.49931">
        <ele>109.6</ele>
        <time>2024-02-04T13:33:09Z</time>
      </trkpt>
      <trkpt lat="43.16684" lon="6.49932">
        <ele>109.7</ele>
        <time>2024-02-04T13:33:10Z</time>
      </trkpt>
      <trkpt lat="43.16684" lon="6.49933">
        <ele>109.8</ele>
        <time>2024-02-04T13:33:11Z</time>
      </trkpt>
      <trkpt lat="43.16684" lon="6.49934">
        <ele>109.8</ele>
        <time>2024-02-04T13:33:12Z</time>
      </trkpt>
      <trkpt lat="43.16684" lon="6.49935">
        <ele>109.7</ele>
        <time>2024-02-04T13:33:13Z</time>
      </trkpt>
      <trkpt lat="43.16684" lon="6.49935">
        <ele>109.7</ele>
        <time>2024-02-04T13:33:14Z</time>
      </trkpt>
      <trkpt lat="43.16684" lon="6.49936">
        <ele>109.7</ele>
        <time>2024-02-04T13:33:15Z</time>
      </trkpt>
      <trkpt lat="43.16684" lon="6.49937">
        <ele>109.7</ele>
        <time>2024-02-04T13:33:16Z</time>
      </trkpt>
      <trkpt lat="43.16683" lon="6.49938">
        <ele>109.6</ele>
        <time>2024-02-04T13:33:17Z</time>
      </trkpt>
      <trkpt lat="43.16683" lon="6.49938">
        <ele>109.6</ele>
        <time>2024-02-04T13:33:18Z</time>
      </trkpt>
      <trkpt lat="43.16683" lon="6.49938">
        <ele>109.6</ele>
        <time>2024-02-04T13:33:19Z</time>
      </trkpt>
      <trkpt lat="43.16683" lon="6.49938">
        <ele>109.6</ele>
        <time>2024-02-04T13:33:20Z</time>
      </trkpt>
      <trkpt lat="43.16683" lon="6.49938">
        <ele>109.6</ele>
        <time>2024-02-04T13:33:21Z</time>
      </trkpt>
      <trkpt lat="43.16683" lon="6.49938">
        <ele>109.6</ele>
        <time>2024-02-04T13:33:22Z</time>
      </trkpt>
      <trkpt lat="43.16683" lon="6.49938">
        <ele>109.6</ele>
        <time>2024-02-04T13:33:23Z</time>
      </trkpt>
      <trkpt lat="43.16683" lon="6.49938">
        <ele>109.6</ele>
        <time>2024-02-04T13:33:24Z</time>
      </trkpt>
      <trkpt lat="43.16683" lon="6.49938">
        <ele>109.5</ele>
        <time>2024-02-04T13:33:25Z</time>
      </trkpt>
      <trkpt lat="43.16683" lon="6.49938">
        <ele>109.5</ele>
        <time>2024-02-04T13:33:26Z</time>
      </trkpt>
      <trkpt lat="43.16683" lon="6.49938">
        <ele>109.5</ele>
        <time>2024-02-04T13:33:27Z</time>
      </trkpt>
      <trkpt lat="43.16683" lon="6.49938">
        <ele>109.5</ele>
        <time>2024-02-04T13:33:28Z</time>
      </trkpt>
      <trkpt lat="43.16683" lon="6.49938">
        <ele>109.5</ele>
        <time>2024-02-04T13:33:29Z</time>
      </trkpt>
      <trkpt lat="43.16683" lon="6.49938">
        <ele>109.5</ele>
        <time>2024-02-04T13:33:30Z</time>
      </trkpt>
      <trkpt lat="43.16683" lon="6.49938">
        <ele>109.5</ele>
        <time>2024-02-04T13:33:31Z</time>
      </trkpt>
      <trkpt lat="43.16683" lon="6.49938">
        <ele>109.5</ele>
        <time>2024-02-04T13:33:32Z</time>
      </trkpt>
      <trkpt lat="43.16683" lon="6.49938">
        <ele>109.5</ele>
        <time>2024-02-04T13:33:33Z</time>
      </trkpt>
      <trkpt lat="43.16683" lon="6.49938">
        <ele>109.5</ele>
        <time>2024-02-04T13:33:34Z</time>
      </trkpt>
      <trkpt lat="43.16683" lon="6.49938">
        <ele>109.5</ele>
        <time>2024-02-04T13:33:35Z</time>
      </trkpt>
      <trkpt lat="43.16683" lon="6.49938">
        <ele>109.4</ele>
        <time>2024-02-04T13:33:36Z</time>
      </trkpt>
      <trkpt lat="43.16682" lon="6.49939">
        <ele>109.4</ele>
        <time>2024-02-04T13:33:37Z</time>
      </trkpt>
      <trkpt lat="43.16682" lon="6.4994">
        <ele>109.4</ele>
        <time>2024-02-04T13:33:38Z</time>
      </trkpt>
      <trkpt lat="43.16682" lon="6.49941">
        <ele>109.3</ele>
        <time>2024-02-04T13:33:39Z</time>
      </trkpt>
      <trkpt lat="43.16682" lon="6.49942">
        <ele>109.4</ele>
        <time>2024-02-04T13:33:40Z</time>
      </trkpt>
      <trkpt lat="43.16682" lon="6.49943">
        <ele>109.4</ele>
        <time>2024-02-04T13:33:41Z</time>
      </trkpt>
      <trkpt lat="43.16682" lon="6.49943">
        <ele>109.4</ele>
        <time>2024-02-04T13:33:42Z</time>
      </trkpt>
      <trkpt lat="43.16682" lon="6.49943">
        <ele>109.3</ele>
        <time>2024-02-04T13:33:43Z</time>
      </trkpt>
      <trkpt lat="43.16682" lon="6.49943">
        <ele>109.3</ele>
        <time>2024-02-04T13:33:44Z</time>
      </trkpt>
      <trkpt lat="43.16682" lon="6.49943">
        <ele>109.3</ele>
        <time>2024-02-04T13:33:45Z</time>
      </trkpt>
      <trkpt lat="43.16682" lon="6.49943">
        <ele>109.2</ele>
        <time>2024-02-04T13:33:46Z</time>
      </trkpt>
      <trkpt lat="43.16682" lon="6.49944">
        <ele>109.3</ele>
        <time>2024-02-04T13:33:47Z</time>
      </trkpt>
      <trkpt lat="43.16681" lon="6.49944">
        <ele>109.3</ele>
        <time>2024-02-04T13:33:48Z</time>
      </trkpt>
      <trkpt lat="43.16681" lon="6.49945">
        <ele>109.2</ele>
        <time>2024-02-04T13:33:49Z</time>
      </trkpt>
      <trkpt lat="43.16681" lon="6.49946">
        <ele>109.3</ele>
        <time>2024-02-04T13:33:50Z</time>
      </trkpt>
      <trkpt lat="43.16681" lon="6.49947">
        <ele>109.3</ele>
        <time>2024-02-04T13:33:51Z</time>
      </trkpt>
      <trkpt lat="43.16681" lon="6.49948">
        <ele>109.3</ele>
        <time>2024-02-04T13:33:52Z</time>
      </trkpt>
      <trkpt lat="43.16681" lon="6.49948">
        <ele>109.3</ele>
        <time>2024-02-04T13:33:53Z</time>
      </trkpt>
      <trkpt lat="43.16681" lon="6.49949">
        <ele>109.2</ele>
        <time>2024-02-04T13:33:54Z</time>
      </trkpt>
      <trkpt lat="43.16681" lon="6.49949">
        <ele>109.2</ele>
        <time>2024-02-04T13:33:55Z</time>
      </trkpt>
      <trkpt lat="43.16681" lon="6.49949">
        <ele>109.1</ele>
        <time>2024-02-04T13:33:56Z</time>
      </trkpt>
      <trkpt lat="43.16681" lon="6.4995">
        <ele>109</ele>
        <time>2024-02-04T13:33:57Z</time>
      </trkpt>
      <trkpt lat="43.16681" lon="6.4995">
        <ele>109</ele>
        <time>2024-02-04T13:33:58Z</time>
      </trkpt>
      <trkpt lat="43.16681" lon="6.4995">
        <ele>109</ele>
        <time>2024-02-04T13:33:59Z</time>
      </trkpt>
      <trkpt lat="43.16682" lon="6.4995">
        <ele>109</ele>
        <time>2024-02-04T13:34:00Z</time>
      </trkpt>
      <trkpt lat="43.16681" lon="6.4995">
        <ele>109</ele>
        <time>2024-02-04T13:34:01Z</time>
      </trkpt>
      <trkpt lat="43.16681" lon="6.4995">
        <ele>109</ele>
        <time>2024-02-04T13:34:02Z</time>
      </trkpt>
      <trkpt lat="43.16681" lon="6.4995">
        <ele>109</ele>
        <time>2024-02-04T13:34:03Z</time>
      </trkpt>
      <trkpt lat="43.16681" lon="6.4995">
        <ele>108.9</ele>
        <time>2024-02-04T13:34:04Z</time>
      </trkpt>
      <trkpt lat="43.16681" lon="6.4995">
        <ele>108.9</ele>
        <time>2024-02-04T13:34:05Z</time>
      </trkpt>
      <trkpt lat="43.16681" lon="6.4995">
        <ele>109</ele>
        <time>2024-02-04T13:34:06Z</time>
      </trkpt>
      <trkpt lat="43.16681" lon="6.4995">
        <ele>109</ele>
        <time>2024-02-04T13:34:07Z</time>
      </trkpt>
      <trkpt lat="43.16681" lon="6.4995">
        <ele>109</ele>
        <time>2024-02-04T13:34:08Z</time>
      </trkpt>
      <trkpt lat="43.16681" lon="6.4995">
        <ele>109</ele>
        <time>2024-02-04T13:34:09Z</time>
      </trkpt>
      <trkpt lat="43.16681" lon="6.4995">
        <ele>109.1</ele>
        <time>2024-02-04T13:34:10Z</time>
      </trkpt>
      <trkpt lat="43.16681" lon="6.49951">
        <ele>109.1</ele>
        <time>2024-02-04T13:34:11Z</time>
      </trkpt>
      <trkpt lat="43.16681" lon="6.4995">
        <ele>109.1</ele>
        <time>2024-02-04T13:34:12Z</time>
      </trkpt>
      <trkpt lat="43.16681" lon="6.49951">
        <ele>109.1</ele>
        <time>2024-02-04T13:34:13Z</time>
      </trkpt>
      <trkpt lat="43.16681" lon="6.49952">
        <ele>109.2</ele>
        <time>2024-02-04T13:34:14Z</time>
      </trkpt>
      <trkpt lat="43.16681" lon="6.49952">
        <ele>109.3</ele>
        <time>2024-02-04T13:34:15Z</time>
      </trkpt>
      <trkpt lat="43.1668" lon="6.49953">
        <ele>109.3</ele>
        <time>2024-02-04T13:34:16Z</time>
      </trkpt>
      <trkpt lat="43.1668" lon="6.49954">
        <ele>109.3</ele>
        <time>2024-02-04T13:34:17Z</time>
      </trkpt>
      <trkpt lat="43.1668" lon="6.49956">
        <ele>109.2</ele>
        <time>2024-02-04T13:34:18Z</time>
      </trkpt>
      <trkpt lat="43.1668" lon="6.49956">
        <ele>109.2</ele>
        <time>2024-02-04T13:34:19Z</time>
      </trkpt>
      <trkpt lat="43.1668" lon="6.49958">
        <ele>109.1</ele>
        <time>2024-02-04T13:34:20Z</time>
      </trkpt>
      <trkpt lat="43.1668" lon="6.49959">
        <ele>109.1</ele>
        <time>2024-02-04T13:34:21Z</time>
      </trkpt>
      <trkpt lat="43.1668" lon="6.49959">
        <ele>109.1</ele>
        <time>2024-02-04T13:34:22Z</time>
      </trkpt>
      <trkpt lat="43.1668" lon="6.49959">
        <ele>109</ele>
        <time>2024-02-04T13:34:23Z</time>
      </trkpt>
      <trkpt lat="43.16679" lon="6.4996">
        <ele>109</ele>
        <time>2024-02-04T13:34:24Z</time>
      </trkpt>
      <trkpt lat="43.16679" lon="6.49961">
        <ele>108.9</ele>
        <time>2024-02-04T13:34:25Z</time>
      </trkpt>
      <trkpt lat="43.16679" lon="6.49962">
        <ele>108.9</ele>
        <time>2024-02-04T13:34:26Z</time>
      </trkpt>
      <trkpt lat="43.1668" lon="6.49962">
        <ele>108.8</ele>
        <time>2024-02-04T13:34:27Z</time>
      </trkpt>
      <trkpt lat="43.16679" lon="6.49963">
        <ele>108.9</ele>
        <time>2024-02-04T13:34:28Z</time>
      </trkpt>
      <trkpt lat="43.16679" lon="6.49963">
        <ele>108.8</ele>
        <time>2024-02-04T13:34:29Z</time>
      </trkpt>
      <trkpt lat="43.16679" lon="6.49963">
        <ele>108.8</ele>
        <time>2024-02-04T13:34:30Z</time>
      </trkpt>
      <trkpt lat="43.16679" lon="6.49963">
        <ele>108.8</ele>
        <time>2024-02-04T13:34:31Z</time>
      </trkpt>
      <trkpt lat="43.16679" lon="6.49963">
        <ele>108.8</ele>
        <time>2024-02-04T13:34:32Z</time>
      </trkpt>
      <trkpt lat="43.16678" lon="6.49964">
        <ele>108.8</ele>
        <time>2024-02-04T13:34:33Z</time>
      </trkpt>
      <trkpt lat="43.16678" lon="6.49965">
        <ele>108.8</ele>
        <time>2024-02-04T13:34:34Z</time>
      </trkpt>
      <trkpt lat="43.16678" lon="6.49965">
        <ele>108.9</ele>
        <time>2024-02-04T13:34:35Z</time>
      </trkpt>
      <trkpt lat="43.16678" lon="6.49966">
        <ele>108.9</ele>
        <time>2024-02-04T13:34:36Z</time>
      </trkpt>
      <trkpt lat="43.16678" lon="6.49967">
        <ele>108.9</ele>
        <time>2024-02-04T13:34:37Z</time>
      </trkpt>
      <trkpt lat="43.16678" lon="6.49967">
        <ele>108.8</ele>
        <time>2024-02-04T13:34:38Z</time>
      </trkpt>
      <trkpt lat="43.16678" lon="6.49968">
        <ele>108.8</ele>
        <time>2024-02-04T13:34:39Z</time>
      </trkpt>
      <trkpt lat="43.16678" lon="6.49968">
        <ele>108.8</ele>
        <time>2024-02-04T13:34:40Z</time>
      </trkpt>
      <trkpt lat="43.16678" lon="6.49968">
        <ele>108.7</ele>
        <time>2024-02-04T13:34:41Z</time>
      </trkpt>
      <trkpt lat="43.16678" lon="6.49969">
        <ele>108.7</ele>
        <time>2024-02-04T13:34:42Z</time>
      </trkpt>
      <trkpt lat="43.16678" lon="6.49969">
        <ele>108.7</ele>
        <time>2024-02-04T13:34:43Z</time>
      </trkpt>
      <trkpt lat="43.16678" lon="6.49969">
        <ele>108.7</ele>
        <time>2024-02-04T13:34:44Z</time>
      </trkpt>
      <trkpt lat="43.16678" lon="6.49969">
        <ele>108.7</ele>
        <time>2024-02-04T13:34:45Z</time>
      </trkpt>
      <trkpt lat="43.16678" lon="6.49969">
        <ele>108.8</ele>
        <time>2024-02-04T13:34:46Z</time>
      </trkpt>
      <trkpt lat="43.16678" lon="6.49969">
        <ele>108.8</ele>
        <time>2024-02-04T13:34:47Z</time>
      </trkpt>
      <trkpt lat="43.16679" lon="6.49969">
        <ele>108.9</ele>
        <time>2024-02-04T13:34:48Z</time>
      </trkpt>
      <trkpt lat="43.16679" lon="6.49969">
        <ele>108.8</ele>
        <time>2024-02-04T13:34:49Z</time>
      </trkpt>
      <trkpt lat="43.16679" lon="6.49968">
        <ele>108.8</ele>
        <time>2024-02-04T13:34:50Z</time>
      </trkpt>
      <trkpt lat="43.1668" lon="6.49968">
        <ele>108.8</ele>
        <time>2024-02-04T13:34:51Z</time>
      </trkpt>
      <trkpt lat="43.1668" lon="6.49968">
        <ele>108.8</ele>
        <time>2024-02-04T13:34:52Z</time>
      </trkpt>
      <trkpt lat="43.16681" lon="6.49968">
        <ele>108.7</ele>
        <time>2024-02-04T13:34:53Z</time>
      </trkpt>
      <trkpt lat="43.16681" lon="6.49967">
        <ele>108.8</ele>
        <time>2024-02-04T13:34:54Z</time>
      </trkpt>
      <trkpt lat="43.16682" lon="6.49967">
        <ele>108.8</ele>
        <time>2024-02-04T13:34:55Z</time>
      </trkpt>
      <trkpt lat="43.16682" lon="6.49967">
        <ele>108.8</ele>
        <time>2024-02-04T13:34:56Z</time>
      </trkpt>
      <trkpt lat="43.16682" lon="6.49967">
        <ele>108.8</ele>
        <time>2024-02-04T13:34:57Z</time>
      </trkpt>
      <trkpt lat="43.16682" lon="6.49967">
        <ele>108.9</ele>
        <time>2024-02-04T13:34:58Z</time>
      </trkpt>
      <trkpt lat="43.16682" lon="6.49967">
        <ele>108.9</ele>
        <time>2024-02-04T13:34:59Z</time>
      </trkpt>
      <trkpt lat="43.16682" lon="6.49967">
        <ele>108.9</ele>
        <time>2024-02-04T13:35:00Z</time>
      </trkpt>
      <trkpt lat="43.16682" lon="6.49967">
        <ele>108.9</ele>
        <time>2024-02-04T13:35:01Z</time>
      </trkpt>
      <trkpt lat="43.16682" lon="6.49967">
        <ele>108.8</ele>
        <time>2024-02-04T13:35:02Z</time>
      </trkpt>
      <trkpt lat="43.16682" lon="6.49967">
        <ele>108.8</ele>
        <time>2024-02-04T13:35:03Z</time>
      </trkpt>
      <trkpt lat="43.16682" lon="6.49966">
        <ele>108.8</ele>
        <time>2024-02-04T13:35:04Z</time>
      </trkpt>
      <trkpt lat="43.16682" lon="6.49966">
        <ele>108.8</ele>
        <time>2024-02-04T13:35:05Z</time>
      </trkpt>
      <trkpt lat="43.16682" lon="6.49966">
        <ele>108.8</ele>
        <time>2024-02-04T13:35:06Z</time>
      </trkpt>
      <trkpt lat="43.16682" lon="6.49966">
        <ele>108.8</ele>
        <time>2024-02-04T13:35:07Z</time>
      </trkpt>
      <trkpt lat="43.16682" lon="6.49966">
        <ele>108.8</ele>
        <time>2024-02-04T13:35:08Z</time>
      </trkpt>
      <trkpt lat="43.16683" lon="6.49966">
        <ele>108.7</ele>
        <time>2024-02-04T13:35:09Z</time>
      </trkpt>
      <trkpt lat="43.16683" lon="6.49966">
        <ele>108.7</ele>
        <time>2024-02-04T13:35:10Z</time>
      </trkpt>
      <trkpt lat="43.16683" lon="6.49966">
        <ele>108.7</ele>
        <time>2024-02-04T13:35:11Z</time>
      </trkpt>
      <trkpt lat="43.16683" lon="6.49966">
        <ele>108.8</ele>
        <time>2024-02-04T13:35:12Z</time>
      </trkpt>
      <trkpt lat="43.16683" lon="6.49966">
        <ele>108.8</ele>
        <time>2024-02-04T13:35:13Z</time>
      </trkpt>
      <trkpt lat="43.16683" lon="6.49965">
        <ele>108.9</ele>
        <time>2024-02-04T13:35:14Z</time>
      </trkpt>
      <trkpt lat="43.16683" lon="6.49966">
        <ele>108.9</ele>
        <time>2024-02-04T13:35:15Z</time>
      </trkpt>
      <trkpt lat="43.16683" lon="6.49966">
        <ele>108.9</ele>
        <time>2024-02-04T13:35:16Z</time>
      </trkpt>
      <trkpt lat="43.16682" lon="6.49967">
        <ele>108.8</ele>
        <time>2024-02-04T13:35:17Z</time>
      </trkpt>
      <trkpt lat="43.16682" lon="6.49968">
        <ele>108.8</ele>
        <time>2024-02-04T13:35:18Z</time>
      </trkpt>
      <trkpt lat="43.16682" lon="6.49969">
        <ele>108.7</ele>
        <time>2024-02-04T13:35:19Z</time>
      </trkpt>
      <trkpt lat="43.16681" lon="6.4997">
        <ele>108.7</ele>
        <time>2024-02-04T13:35:20Z</time>
      </trkpt>
      <trkpt lat="43.16681" lon="6.49971">
        <ele>108.7</ele>
        <time>2024-02-04T13:35:21Z</time>
      </trkpt>
      <trkpt lat="43.1668" lon="6.49972">
        <ele>108.7</ele>
        <time>2024-02-04T13:35:22Z</time>
      </trkpt>
      <trkpt lat="43.16679" lon="6.49973">
        <ele>108.7</ele>
        <time>2024-02-04T13:35:23Z</time>
      </trkpt>
      <trkpt lat="43.16679" lon="6.49974">
        <ele>108.6</ele>
        <time>2024-02-04T13:35:24Z</time>
      </trkpt>
      <trkpt lat="43.16679" lon="6.49975">
        <ele>108.6</ele>
        <time>2024-02-04T13:35:25Z</time>
      </trkpt>
      <trkpt lat="43.16679" lon="6.49976">
        <ele>108.7</ele>
        <time>2024-02-04T13:35:26Z</time>
      </trkpt>
      <trkpt lat="43.16679" lon="6.49978">
        <ele>108.8</ele>
        <time>2024-02-04T13:35:27Z</time>
      </trkpt>
      <trkpt lat="43.16679" lon="6.49979">
        <ele>108.7</ele>
        <time>2024-02-04T13:35:28Z</time>
      </trkpt>
      <trkpt lat="43.16678" lon="6.49981">
        <ele>108.7</ele>
        <time>2024-02-04T13:35:29Z</time>
      </trkpt>
      <trkpt lat="43.16678" lon="6.49982">
        <ele>108.7</ele>
        <time>2024-02-04T13:35:30Z</time>
      </trkpt>
      <trkpt lat="43.16678" lon="6.49984">
        <ele>108.6</ele>
        <time>2024-02-04T13:35:31Z</time>
      </trkpt>
      <trkpt lat="43.16678" lon="6.49985">
        <ele>108.6</ele>
        <time>2024-02-04T13:35:32Z</time>
      </trkpt>
      <trkpt lat="43.16678" lon="6.49986">
        <ele>108.6</ele>
        <time>2024-02-04T13:35:33Z</time>
      </trkpt>
      <trkpt lat="43.16679" lon="6.49987">
        <ele>108.6</ele>
        <time>2024-02-04T13:35:34Z</time>
      </trkpt>
      <trkpt lat="43.16679" lon="6.49989">
        <ele>108.6</ele>
        <time>2024-02-04T13:35:35Z</time>
      </trkpt>
      <trkpt lat="43.16679" lon="6.4999">
        <ele>108.6</ele>
        <time>2024-02-04T13:35:36Z</time>
      </trkpt>
      <trkpt lat="43.16679" lon="6.49991">
        <ele>108.5</ele>
        <time>2024-02-04T13:35:37Z</time>
      </trkpt>
      <trkpt lat="43.16679" lon="6.49993">
        <ele>108.6</ele>
        <time>2024-02-04T13:35:38Z</time>
      </trkpt>
      <trkpt lat="43.16679" lon="6.49994">
        <ele>108.5</ele>
        <time>2024-02-04T13:35:39Z</time>
      </trkpt>
      <trkpt lat="43.1668" lon="6.49995">
        <ele>108.5</ele>
        <time>2024-02-04T13:35:40Z</time>
      </trkpt>
      <trkpt lat="43.16679" lon="6.49996">
        <ele>108.3</ele>
        <time>2024-02-04T13:35:41Z</time>
      </trkpt>
      <trkpt lat="43.16679" lon="6.49997">
        <ele>108.4</ele>
        <time>2024-02-04T13:35:42Z</time>
      </trkpt>
      <trkpt lat="43.16678" lon="6.49999">
        <ele>108.4</ele>
        <time>2024-02-04T13:35:43Z</time>
      </trkpt>
      <trkpt lat="43.16678" lon="6.50002">
        <ele>108.4</ele>
        <time>2024-02-04T13:35:44Z</time>
      </trkpt>
      <trkpt lat="43.16679" lon="6.50004">
        <ele>108.5</ele>
        <time>2024-02-04T13:35:45Z</time>
      </trkpt>
      <trkpt lat="43.16679" lon="6.50005">
        <ele>108.4</ele>
        <time>2024-02-04T13:35:46Z</time>
      </trkpt>
      <trkpt lat="43.16679" lon="6.50006">
        <ele>108.4</ele>
        <time>2024-02-04T13:35:47Z</time>
      </trkpt>
      <trkpt lat="43.16679" lon="6.50008">
        <ele>108.4</ele>
        <time>2024-02-04T13:35:48Z</time>
      </trkpt>
      <trkpt lat="43.16679" lon="6.50009">
        <ele>108.4</ele>
        <time>2024-02-04T13:35:49Z</time>
      </trkpt>
      <trkpt lat="43.16678" lon="6.5001">
        <ele>108.4</ele>
        <time>2024-02-04T13:35:50Z</time>
      </trkpt>
      <trkpt lat="43.16679" lon="6.50011">
        <ele>108.4</ele>
        <time>2024-02-04T13:35:51Z</time>
      </trkpt>
      <trkpt lat="43.16679" lon="6.50013">
        <ele>108.4</ele>
        <time>2024-02-04T13:35:52Z</time>
      </trkpt>
      <trkpt lat="43.16679" lon="6.50015">
        <ele>108.2</ele>
        <time>2024-02-04T13:35:53Z</time>
      </trkpt>
      <trkpt lat="43.16678" lon="6.50017">
        <ele>108.1</ele>
        <time>2024-02-04T13:35:54Z</time>
      </trkpt>
      <trkpt lat="43.16678" lon="6.50019">
        <ele>108.1</ele>
        <time>2024-02-04T13:35:55Z</time>
      </trkpt>
      <trkpt lat="43.16677" lon="6.50021">
        <ele>108.1</ele>
        <time>2024-02-04T13:35:56Z</time>
      </trkpt>
      <trkpt lat="43.16677" lon="6.50023">
        <ele>108.1</ele>
        <time>2024-02-04T13:35:57Z</time>
      </trkpt>
      <trkpt lat="43.16676" lon="6.50024">
        <ele>108.1</ele>
        <time>2024-02-04T13:35:58Z</time>
      </trkpt>
      <trkpt lat="43.16676" lon="6.50025">
        <ele>108.1</ele>
        <time>2024-02-04T13:35:59Z</time>
      </trkpt>
      <trkpt lat="43.16676" lon="6.50027">
        <ele>108.2</ele>
        <time>2024-02-04T13:36:00Z</time>
      </trkpt>
      <trkpt lat="43.16676" lon="6.50028">
        <ele>108.2</ele>
        <time>2024-02-04T13:36:01Z</time>
      </trkpt>
      <trkpt lat="43.16675" lon="6.50029">
        <ele>108.2</ele>
        <time>2024-02-04T13:36:02Z</time>
      </trkpt>
      <trkpt lat="43.16675" lon="6.50031">
        <ele>108.2</ele>
        <time>2024-02-04T13:36:03Z</time>
      </trkpt>
      <trkpt lat="43.16674" lon="6.50033">
        <ele>108.2</ele>
        <time>2024-02-04T13:36:04Z</time>
      </trkpt>
      <trkpt lat="43.16674" lon="6.50035">
        <ele>108.3</ele>
        <time>2024-02-04T13:36:05Z</time>
      </trkpt>
      <trkpt lat="43.16673" lon="6.50038">
        <ele>108.3</ele>
        <time>2024-02-04T13:36:06Z</time>
      </trkpt>
      <trkpt lat="43.16673" lon="6.5004">
        <ele>108.3</ele>
        <time>2024-02-04T13:36:07Z</time>
      </trkpt>
      <trkpt lat="43.16673" lon="6.50042">
        <ele>108.3</ele>
        <time>2024-02-04T13:36:08Z</time>
      </trkpt>
      <trkpt lat="43.16673" lon="6.50043">
        <ele>108.3</ele>
        <time>2024-02-04T13:36:09Z</time>
      </trkpt>
      <trkpt lat="43.16673" lon="6.50045">
        <ele>108.3</ele>
        <time>2024-02-04T13:36:10Z</time>
      </trkpt>
      <trkpt lat="43.16673" lon="6.50046">
        <ele>108.2</ele>
        <time>2024-02-04T13:36:11Z</time>
      </trkpt>
      <trkpt lat="43.16674" lon="6.50048">
        <ele>108.1</ele>
        <time>2024-02-04T13:36:12Z</time>
      </trkpt>
      <trkpt lat="43.16674" lon="6.50049">
        <ele>108.1</ele>
        <time>2024-02-04T13:36:13Z</time>
      </trkpt>
      <trkpt lat="43.16674" lon="6.5005">
        <ele>108.2</ele>
        <time>2024-02-04T13:36:14Z</time>
      </trkpt>
      <trkpt lat="43.16675" lon="6.50051">
        <ele>108.2</ele>
        <time>2024-02-04T13:36:15Z</time>
      </trkpt>
      <trkpt lat="43.16675" lon="6.50053">
        <ele>108.1</ele>
        <time>2024-02-04T13:36:16Z</time>
      </trkpt>
      <trkpt lat="43.16675" lon="6.50055">
        <ele>108</ele>
        <time>2024-02-04T13:36:17Z</time>
      </trkpt>
      <trkpt lat="43.16675" lon="6.50057">
        <ele>108</ele>
        <time>2024-02-04T13:36:18Z</time>
      </trkpt>
      <trkpt lat="43.16675" lon="6.50059">
        <ele>107.9</ele>
        <time>2024-02-04T13:36:19Z</time>
      </trkpt>
      <trkpt lat="43.16675" lon="6.5006">
        <ele>107.9</ele>
        <time>2024-02-04T13:36:20Z</time>
      </trkpt>
      <trkpt lat="43.16676" lon="6.50062">
        <ele>107.9</ele>
        <time>2024-02-04T13:36:21Z</time>
      </trkpt>
      <trkpt lat="43.16676" lon="6.50064">
        <ele>107.8</ele>
        <time>2024-02-04T13:36:22Z</time>
      </trkpt>
      <trkpt lat="43.16676" lon="6.50065">
        <ele>107.8</ele>
        <time>2024-02-04T13:36:23Z</time>
      </trkpt>
      <trkpt lat="43.16676" lon="6.50067">
        <ele>107.8</ele>
        <time>2024-02-04T13:36:24Z</time>
      </trkpt>
      <trkpt lat="43.16676" lon="6.50068">
        <ele>107.7</ele>
        <time>2024-02-04T13:36:25Z</time>
      </trkpt>
      <trkpt lat="43.16677" lon="6.5007">
        <ele>107.6</ele>
        <time>2024-02-04T13:36:26Z</time>
      </trkpt>
      <trkpt lat="43.16677" lon="6.50071">
        <ele>107.6</ele>
        <time>2024-02-04T13:36:27Z</time>
      </trkpt>
      <trkpt lat="43.16677" lon="6.50072">
        <ele>107.5</ele>
        <time>2024-02-04T13:36:28Z</time>
      </trkpt>
      <trkpt lat="43.16677" lon="6.50074">
        <ele>107.5</ele>
        <time>2024-02-04T13:36:29Z</time>
      </trkpt>
      <trkpt lat="43.16677" lon="6.50076">
        <ele>107.4</ele>
        <time>2024-02-04T13:36:30Z</time>
      </trkpt>
      <trkpt lat="43.16677" lon="6.50078">
        <ele>107.4</ele>
        <time>2024-02-04T13:36:31Z</time>
      </trkpt>
      <trkpt lat="43.16676" lon="6.5008">
        <ele>107.4</ele>
        <time>2024-02-04T13:36:32Z</time>
      </trkpt>
      <trkpt lat="43.16677" lon="6.50082">
        <ele>107.4</ele>
        <time>2024-02-04T13:36:33Z</time>
      </trkpt>
      <trkpt lat="43.16677" lon="6.50084">
        <ele>107.4</ele>
        <time>2024-02-04T13:36:34Z</time>
      </trkpt>
      <trkpt lat="43.16677" lon="6.50085">
        <ele>107.3</ele>
        <time>2024-02-04T13:36:35Z</time>
      </trkpt>
      <trkpt lat="43.16677" lon="6.50087">
        <ele>107.3</ele>
        <time>2024-02-04T13:36:36Z</time>
      </trkpt>
      <trkpt lat="43.16677" lon="6.50089">
        <ele>107.2</ele>
        <time>2024-02-04T13:36:37Z</time>
      </trkpt>
      <trkpt lat="43.16677" lon="6.5009">
        <ele>107.2</ele>
        <time>2024-02-04T13:36:38Z</time>
      </trkpt>
      <trkpt lat="43.16677" lon="6.50092">
        <ele>107.1</ele>
        <time>2024-02-04T13:36:39Z</time>
      </trkpt>
      <trkpt lat="43.16678" lon="6.50094">
        <ele>107.1</ele>
        <time>2024-02-04T13:36:40Z</time>
      </trkpt>
      <trkpt lat="43.16678" lon="6.50095">
        <ele>107</ele>
        <time>2024-02-04T13:36:41Z</time>
      </trkpt>
      <trkpt lat="43.16678" lon="6.50097">
        <ele>107</ele>
        <time>2024-02-04T13:36:42Z</time>
      </trkpt>
      <trkpt lat="43.16679" lon="6.50098">
        <ele>106.9</ele>
        <time>2024-02-04T13:36:43Z</time>
      </trkpt>
      <trkpt lat="43.16679" lon="6.501">
        <ele>106.9</ele>
        <time>2024-02-04T13:36:44Z</time>
      </trkpt>
      <trkpt lat="43.16679" lon="6.50101">
        <ele>106.9</ele>
        <time>2024-02-04T13:36:45Z</time>
      </trkpt>
      <trkpt lat="43.16679" lon="6.50103">
        <ele>106.9</ele>
        <time>2024-02-04T13:36:46Z</time>
      </trkpt>
      <trkpt lat="43.1668" lon="6.50105">
        <ele>106.8</ele>
        <time>2024-02-04T13:36:47Z</time>
      </trkpt>
      <trkpt lat="43.1668" lon="6.50107">
        <ele>106.8</ele>
        <time>2024-02-04T13:36:48Z</time>
      </trkpt>
      <trkpt lat="43.1668" lon="6.50109">
        <ele>106.7</ele>
        <time>2024-02-04T13:36:49Z</time>
      </trkpt>
      <trkpt lat="43.16681" lon="6.5011">
        <ele>106.7</ele>
        <time>2024-02-04T13:36:50Z</time>
      </trkpt>
      <trkpt lat="43.16681" lon="6.50111">
        <ele>106.7</ele>
        <time>2024-02-04T13:36:51Z</time>
      </trkpt>
      <trkpt lat="43.16681" lon="6.50113">
        <ele>106.7</ele>
        <time>2024-02-04T13:36:52Z</time>
      </trkpt>
      <trkpt lat="43.16682" lon="6.50114">
        <ele>106.7</ele>
        <time>2024-02-04T13:36:53Z</time>
      </trkpt>
      <trkpt lat="43.16682" lon="6.50115">
        <ele>106.7</ele>
        <time>2024-02-04T13:36:54Z</time>
      </trkpt>
      <trkpt lat="43.16682" lon="6.50117">
        <ele>106.8</ele>
        <time>2024-02-04T13:36:55Z</time>
      </trkpt>
      <trkpt lat="43.16682" lon="6.50118">
        <ele>106.9</ele>
        <time>2024-02-04T13:36:56Z</time>
      </trkpt>
      <trkpt lat="43.16682" lon="6.50119">
        <ele>106.8</ele>
        <time>2024-02-04T13:36:57Z</time>
      </trkpt>
      <trkpt lat="43.16682" lon="6.50121">
        <ele>106.8</ele>
        <time>2024-02-04T13:36:58Z</time>
      </trkpt>
      <trkpt lat="43.16682" lon="6.50122">
        <ele>106.8</ele>
        <time>2024-02-04T13:36:59Z</time>
      </trkpt>
      <trkpt lat="43.16681" lon="6.50123">
        <ele>106.8</ele>
        <time>2024-02-04T13:37:00Z</time>
      </trkpt>
      <trkpt lat="43.16681" lon="6.50124">
        <ele>106.8</ele>
        <time>2024-02-04T13:37:01Z</time>
      </trkpt>
      <trkpt lat="43.1668" lon="6.50126">
        <ele>106.8</ele>
        <time>2024-02-04T13:37:02Z</time>
      </trkpt>
      <trkpt lat="43.1668" lon="6.50127">
        <ele>106.8</ele>
        <time>2024-02-04T13:37:03Z</time>
      </trkpt>
      <trkpt lat="43.16679" lon="6.50129">
        <ele>106.8</ele>
        <time>2024-02-04T13:37:04Z</time>
      </trkpt>
      <trkpt lat="43.16679" lon="6.5013">
        <ele>106.7</ele>
        <time>2024-02-04T13:37:05Z</time>
      </trkpt>
      <trkpt lat="43.16679" lon="6.50131">
        <ele>106.7</ele>
        <time>2024-02-04T13:37:06Z</time>
      </trkpt>
      <trkpt lat="43.16679" lon="6.50132">
        <ele>106.7</ele>
        <time>2024-02-04T13:37:07Z</time>
      </trkpt>
      <trkpt lat="43.16678" lon="6.50133">
        <ele>106.7</ele>
        <time>2024-02-04T13:37:08Z</time>
      </trkpt>
      <trkpt lat="43.16678" lon="6.50135">
        <ele>106.7</ele>
        <time>2024-02-04T13:37:09Z</time>
      </trkpt>
      <trkpt lat="43.16678" lon="6.50136">
        <ele>106.6</ele>
        <time>2024-02-04T13:37:10Z</time>
      </trkpt>
      <trkpt lat="43.16678" lon="6.50138">
        <ele>106.7</ele>
        <time>2024-02-04T13:37:11Z</time>
      </trkpt>
      <trkpt lat="43.16677" lon="6.5014">
        <ele>106.7</ele>
        <time>2024-02-04T13:37:12Z</time>
      </trkpt>
      <trkpt lat="43.16677" lon="6.50142">
        <ele>106.7</ele>
        <time>2024-02-04T13:37:13Z</time>
      </trkpt>
      <trkpt lat="43.16677" lon="6.50143">
        <ele>106.6</ele>
        <time>2024-02-04T13:37:14Z</time>
      </trkpt>
      <trkpt lat="43.16677" lon="6.50145">
        <ele>106.6</ele>
        <time>2024-02-04T13:37:15Z</time>
      </trkpt>
      <trkpt lat="43.16677" lon="6.50146">
        <ele>106.5</ele>
        <time>2024-02-04T13:37:16Z</time>
      </trkpt>
      <trkpt lat="43.16677" lon="6.50148">
        <ele>106.5</ele>
        <time>2024-02-04T13:37:17Z</time>
      </trkpt>
      <trkpt lat="43.16677" lon="6.50149">
        <ele>106.5</ele>
        <time>2024-02-04T13:37:18Z</time>
      </trkpt>
      <trkpt lat="43.16678" lon="6.50151">
        <ele>106.5</ele>
        <time>2024-02-04T13:37:19Z</time>
      </trkpt>
      <trkpt lat="43.16678" lon="6.50152">
        <ele>106.6</ele>
        <time>2024-02-04T13:37:20Z</time>
      </trkpt>
      <trkpt lat="43.16678" lon="6.50152">
        <ele>106.5</ele>
        <time>2024-02-04T13:37:21Z</time>
      </trkpt>
      <trkpt lat="43.16679" lon="6.50153">
        <ele>106.5</ele>
        <time>2024-02-04T13:37:22Z</time>
      </trkpt>
      <trkpt lat="43.16679" lon="6.50153">
        <ele>106.3</ele>
        <time>2024-02-04T13:37:23Z</time>
      </trkpt>
      <trkpt lat="43.16679" lon="6.50154">
        <ele>106.3</ele>
        <time>2024-02-04T13:37:24Z</time>
      </trkpt>
      <trkpt lat="43.1668" lon="6.50155">
        <ele>106.4</ele>
        <time>2024-02-04T13:37:25Z</time>
      </trkpt>
      <trkpt lat="43.1668" lon="6.50155">
        <ele>106.4</ele>
        <time>2024-02-04T13:37:26Z</time>
      </trkpt>
      <trkpt lat="43.16681" lon="6.50157">
        <ele>106.5</ele>
        <time>2024-02-04T13:37:27Z</time>
      </trkpt>
      <trkpt lat="43.16681" lon="6.50158">
        <ele>106.5</ele>
        <time>2024-02-04T13:37:28Z</time>
      </trkpt>
      <trkpt lat="43.16681" lon="6.50159">
        <ele>106.6</ele>
        <time>2024-02-04T13:37:29Z</time>
      </trkpt>
      <trkpt lat="43.16681" lon="6.50161">
        <ele>106.6</ele>
        <time>2024-02-04T13:37:30Z</time>
      </trkpt>
      <trkpt lat="43.16682" lon="6.50162">
        <ele>106.6</ele>
        <time>2024-02-04T13:37:31Z</time>
      </trkpt>
      <trkpt lat="43.16683" lon="6.50162">
        <ele>106.6</ele>
        <time>2024-02-04T13:37:32Z</time>
      </trkpt>
      <trkpt lat="43.16683" lon="6.50163">
        <ele>106.7</ele>
        <time>2024-02-04T13:37:33Z</time>
      </trkpt>
      <trkpt lat="43.16684" lon="6.50164">
        <ele>106.6</ele>
        <time>2024-02-04T13:37:34Z</time>
      </trkpt>
      <trkpt lat="43.16685" lon="6.50165">
        <ele>106.5</ele>
        <time>2024-02-04T13:37:35Z</time>
      </trkpt>
      <trkpt lat="43.16686" lon="6.50166">
        <ele>106.5</ele>
        <time>2024-02-04T13:37:36Z</time>
      </trkpt>
      <trkpt lat="43.16686" lon="6.50166">
        <ele>106.5</ele>
        <time>2024-02-04T13:37:37Z</time>
      </trkpt>
      <trkpt lat="43.16686" lon="6.50167">
        <ele>106.5</ele>
        <time>2024-02-04T13:37:38Z</time>
      </trkpt>
      <trkpt lat="43.16687" lon="6.50169">
        <ele>106.5</ele>
        <time>2024-02-04T13:37:39Z</time>
      </trkpt>
      <trkpt lat="43.16687" lon="6.5017">
        <ele>106.5</ele>
        <time>2024-02-04T13:37:40Z</time>
      </trkpt>
      <trkpt lat="43.16687" lon="6.50171">
        <ele>106.5</ele>
        <time>2024-02-04T13:37:41Z</time>
      </trkpt>
      <trkpt lat="43.16688" lon="6.50173">
        <ele>106.5</ele>
        <time>2024-02-04T13:37:42Z</time>
      </trkpt>
      <trkpt lat="43.16689" lon="6.50174">
        <ele>106.5</ele>
        <time>2024-02-04T13:37:43Z</time>
      </trkpt>
      <trkpt lat="43.1669" lon="6.50175">
        <ele>106.5</ele>
        <time>2024-02-04T13:37:44Z</time>
      </trkpt>
      <trkpt lat="43.1669" lon="6.50176">
        <ele>106.5</ele>
        <time>2024-02-04T13:37:45Z</time>
      </trkpt>
      <trkpt lat="43.16691" lon="6.50178">
        <ele>106.5</ele>
        <time>2024-02-04T13:37:46Z</time>
      </trkpt>
      <trkpt lat="43.16692" lon="6.5018">
        <ele>106.5</ele>
        <time>2024-02-04T13:37:47Z</time>
      </trkpt>
      <trkpt lat="43.16692" lon="6.50181">
        <ele>106.4</ele>
        <time>2024-02-04T13:37:48Z</time>
      </trkpt>
      <trkpt lat="43.16693" lon="6.50182">
        <ele>106.4</ele>
        <time>2024-02-04T13:37:49Z</time>
      </trkpt>
      <trkpt lat="43.16694" lon="6.50183">
        <ele>106.5</ele>
        <time>2024-02-04T13:37:50Z</time>
      </trkpt>
      <trkpt lat="43.16695" lon="6.50184">
        <ele>106.5</ele>
        <time>2024-02-04T13:37:51Z</time>
      </trkpt>
      <trkpt lat="43.16695" lon="6.50185">
        <ele>106.5</ele>
        <time>2024-02-04T13:37:52Z</time>
      </trkpt>
      <trkpt lat="43.16696" lon="6.50187">
        <ele>106.4</ele>
        <time>2024-02-04T13:37:53Z</time>
      </trkpt>
      <trkpt lat="43.16697" lon="6.50188">
        <ele>106.5</ele>
        <time>2024-02-04T13:37:54Z</time>
      </trkpt>
      <trkpt lat="43.16697" lon="6.50189">
        <ele>106.5</ele>
        <time>2024-02-04T13:37:55Z</time>
      </trkpt>
      <trkpt lat="43.16698" lon="6.5019">
        <ele>106.6</ele>
        <time>2024-02-04T13:37:56Z</time>
      </trkpt>
      <trkpt lat="43.16699" lon="6.50191">
        <ele>106.6</ele>
        <time>2024-02-04T13:37:57Z</time>
      </trkpt>
      <trkpt lat="43.16699" lon="6.50192">
        <ele>106.7</ele>
        <time>2024-02-04T13:37:58Z</time>
      </trkpt>
      <trkpt lat="43.167" lon="6.50193">
        <ele>106.7</ele>
        <time>2024-02-04T13:37:59Z</time>
      </trkpt>
      <trkpt lat="43.16701" lon="6.50194">
        <ele>106.7</ele>
        <time>2024-02-04T13:38:00Z</time>
      </trkpt>
      <trkpt lat="43.16702" lon="6.50195">
        <ele>106.7</ele>
        <time>2024-02-04T13:38:01Z</time>
      </trkpt>
      <trkpt lat="43.16702" lon="6.50196">
        <ele>106.8</ele>
        <time>2024-02-04T13:38:02Z</time>
      </trkpt>
      <trkpt lat="43.16703" lon="6.50197">
        <ele>106.8</ele>
        <time>2024-02-04T13:38:03Z</time>
      </trkpt>
      <trkpt lat="43.16703" lon="6.50198">
        <ele>106.9</ele>
        <time>2024-02-04T13:38:04Z</time>
      </trkpt>
      <trkpt lat="43.16704" lon="6.50199">
        <ele>106.8</ele>
        <time>2024-02-04T13:38:05Z</time>
      </trkpt>
      <trkpt lat="43.16705" lon="6.502">
        <ele>106.8</ele>
        <time>2024-02-04T13:38:06Z</time>
      </trkpt>
      <trkpt lat="43.16705" lon="6.50201">
        <ele>106.7</ele>
        <time>2024-02-04T13:38:07Z</time>
      </trkpt>
      <trkpt lat="43.16706" lon="6.50202">
        <ele>106.9</ele>
        <time>2024-02-04T13:38:08Z</time>
      </trkpt>
      <trkpt lat="43.16706" lon="6.50203">
        <ele>106.9</ele>
        <time>2024-02-04T13:38:09Z</time>
      </trkpt>
      <trkpt lat="43.16707" lon="6.50204">
        <ele>106.9</ele>
        <time>2024-02-04T13:38:10Z</time>
      </trkpt>
      <trkpt lat="43.16707" lon="6.50205">
        <ele>106.9</ele>
        <time>2024-02-04T13:38:11Z</time>
      </trkpt>
      <trkpt lat="43.16708" lon="6.50206">
        <ele>106.9</ele>
        <time>2024-02-04T13:38:12Z</time>
      </trkpt>
      <trkpt lat="43.16708" lon="6.50207">
        <ele>106.9</ele>
        <time>2024-02-04T13:38:13Z</time>
      </trkpt>
      <trkpt lat="43.16708" lon="6.50207">
        <ele>106.9</ele>
        <time>2024-02-04T13:38:14Z</time>
      </trkpt>
      <trkpt lat="43.16708" lon="6.50209">
        <ele>106.9</ele>
        <time>2024-02-04T13:38:15Z</time>
      </trkpt>
      <trkpt lat="43.16708" lon="6.5021">
        <ele>106.9</ele>
        <time>2024-02-04T13:38:16Z</time>
      </trkpt>
      <trkpt lat="43.16708" lon="6.50211">
        <ele>106.9</ele>
        <time>2024-02-04T13:38:17Z</time>
      </trkpt>
      <trkpt lat="43.16708" lon="6.50212">
        <ele>106.8</ele>
        <time>2024-02-04T13:38:18Z</time>
      </trkpt>
      <trkpt lat="43.16709" lon="6.50213">
        <ele>106.8</ele>
        <time>2024-02-04T13:38:19Z</time>
      </trkpt>
      <trkpt lat="43.16709" lon="6.50214">
        <ele>106.8</ele>
        <time>2024-02-04T13:38:20Z</time>
      </trkpt>
      <trkpt lat="43.16708" lon="6.50215">
        <ele>106.9</ele>
        <time>2024-02-04T13:38:21Z</time>
      </trkpt>
      <trkpt lat="43.16708" lon="6.50216">
        <ele>106.9</ele>
        <time>2024-02-04T13:38:22Z</time>
      </trkpt>
      <trkpt lat="43.16707" lon="6.50217">
        <ele>106.9</ele>
        <time>2024-02-04T13:38:23Z</time>
      </trkpt>
      <trkpt lat="43.16707" lon="6.50218">
        <ele>106.8</ele>
        <time>2024-02-04T13:38:24Z</time>
      </trkpt>
      <trkpt lat="43.16707" lon="6.5022">
        <ele>106.8</ele>
        <time>2024-02-04T13:38:25Z</time>
      </trkpt>
      <trkpt lat="43.16706" lon="6.50221">
        <ele>106.8</ele>
        <time>2024-02-04T13:38:26Z</time>
      </trkpt>
      <trkpt lat="43.16706" lon="6.50222">
        <ele>106.8</ele>
        <time>2024-02-04T13:38:27Z</time>
      </trkpt>
      <trkpt lat="43.16705" lon="6.50223">
        <ele>106.9</ele>
        <time>2024-02-04T13:38:28Z</time>
      </trkpt>
      <trkpt lat="43.16704" lon="6.50224">
        <ele>106.9</ele>
        <time>2024-02-04T13:38:29Z</time>
      </trkpt>
      <trkpt lat="43.16704" lon="6.50225">
        <ele>107</ele>
        <time>2024-02-04T13:38:30Z</time>
      </trkpt>
      <trkpt lat="43.16704" lon="6.50227">
        <ele>107.1</ele>
        <time>2024-02-04T13:38:31Z</time>
      </trkpt>
      <trkpt lat="43.16703" lon="6.50228">
        <ele>107.1</ele>
        <time>2024-02-04T13:38:32Z</time>
      </trkpt>
      <trkpt lat="43.16703" lon="6.50229">
        <ele>107</ele>
        <time>2024-02-04T13:38:33Z</time>
      </trkpt>
      <trkpt lat="43.16703" lon="6.50231">
        <ele>107</ele>
        <time>2024-02-04T13:38:34Z</time>
      </trkpt>
      <trkpt lat="43.16702" lon="6.50232">
        <ele>107.1</ele>
        <time>2024-02-04T13:38:35Z</time>
      </trkpt>
      <trkpt lat="43.16702" lon="6.50233">
        <ele>107.1</ele>
        <time>2024-02-04T13:38:36Z</time>
      </trkpt>
      <trkpt lat="43.16701" lon="6.50234">
        <ele>107.2</ele>
        <time>2024-02-04T13:38:37Z</time>
      </trkpt>
      <trkpt lat="43.16701" lon="6.50235">
        <ele>107.2</ele>
        <time>2024-02-04T13:38:38Z</time>
      </trkpt>
      <trkpt lat="43.16701" lon="6.50236">
        <ele>107.2</ele>
        <time>2024-02-04T13:38:39Z</time>
      </trkpt>
      <trkpt lat="43.16701" lon="6.50238">
        <ele>107.3</ele>
        <time>2024-02-04T13:38:40Z</time>
      </trkpt>
      <trkpt lat="43.167" lon="6.50239">
        <ele>107.4</ele>
        <time>2024-02-04T13:38:41Z</time>
      </trkpt>
      <trkpt lat="43.167" lon="6.50241">
        <ele>107.5</ele>
        <time>2024-02-04T13:38:42Z</time>
      </trkpt>
      <trkpt lat="43.167" lon="6.50242">
        <ele>107.6</ele>
        <time>2024-02-04T13:38:43Z</time>
      </trkpt>
      <trkpt lat="43.167" lon="6.50243">
        <ele>107.7</ele>
        <time>2024-02-04T13:38:44Z</time>
      </trkpt>
      <trkpt lat="43.167" lon="6.50244">
        <ele>107.8</ele>
        <time>2024-02-04T13:38:45Z</time>
      </trkpt>
      <trkpt lat="43.167" lon="6.50246">
        <ele>107.8</ele>
        <time>2024-02-04T13:38:46Z</time>
      </trkpt>
      <trkpt lat="43.167" lon="6.50247">
        <ele>107.8</ele>
        <time>2024-02-04T13:38:47Z</time>
      </trkpt>
      <trkpt lat="43.167" lon="6.50248">
        <ele>107.9</ele>
        <time>2024-02-04T13:38:48Z</time>
      </trkpt>
      <trkpt lat="43.16699" lon="6.50249">
        <ele>107.9</ele>
        <time>2024-02-04T13:38:49Z</time>
      </trkpt>
      <trkpt lat="43.16699" lon="6.50251">
        <ele>107.9</ele>
        <time>2024-02-04T13:38:50Z</time>
      </trkpt>
      <trkpt lat="43.167" lon="6.50252">
        <ele>107.9</ele>
        <time>2024-02-04T13:38:51Z</time>
      </trkpt>
      <trkpt lat="43.16699" lon="6.50253">
        <ele>107.9</ele>
        <time>2024-02-04T13:38:52Z</time>
      </trkpt>
      <trkpt lat="43.16699" lon="6.50254">
        <ele>107.9</ele>
        <time>2024-02-04T13:38:53Z</time>
      </trkpt>
      <trkpt lat="43.16699" lon="6.50254">
        <ele>107.9</ele>
        <time>2024-02-04T13:38:54Z</time>
      </trkpt>
      <trkpt lat="43.16699" lon="6.50254">
        <ele>108</ele>
        <time>2024-02-04T13:38:55Z</time>
      </trkpt>
      <trkpt lat="43.16699" lon="6.50255">
        <ele>108</ele>
        <time>2024-02-04T13:38:56Z</time>
      </trkpt>
      <trkpt lat="43.16699" lon="6.50255">
        <ele>107.9</ele>
        <time>2024-02-04T13:38:57Z</time>
      </trkpt>
      <trkpt lat="43.16699" lon="6.50255">
        <ele>107.9</ele>
        <time>2024-02-04T13:38:58Z</time>
      </trkpt>
      <trkpt lat="43.16698" lon="6.50255">
        <ele>108</ele>
        <time>2024-02-04T13:38:59Z</time>
      </trkpt>
      <trkpt lat="43.16698" lon="6.50255">
        <ele>108.1</ele>
        <time>2024-02-04T13:39:00Z</time>
      </trkpt>
      <trkpt lat="43.16698" lon="6.50256">
        <ele>108.2</ele>
        <time>2024-02-04T13:39:01Z</time>
      </trkpt>
      <trkpt lat="43.16697" lon="6.50256">
        <ele>108.1</ele>
        <time>2024-02-04T13:39:02Z</time>
      </trkpt>
      <trkpt lat="43.16697" lon="6.50256">
        <ele>108.1</ele>
        <time>2024-02-04T13:39:03Z</time>
      </trkpt>
      <trkpt lat="43.16696" lon="6.50257">
        <ele>107.9</ele>
        <time>2024-02-04T13:39:04Z</time>
      </trkpt>
      <trkpt lat="43.16695" lon="6.50257">
        <ele>107.8</ele>
        <time>2024-02-04T13:39:05Z</time>
      </trkpt>
      <trkpt lat="43.16695" lon="6.50258">
        <ele>107.7</ele>
        <time>2024-02-04T13:39:06Z</time>
      </trkpt>
      <trkpt lat="43.16694" lon="6.50258">
        <ele>107.5</ele>
        <time>2024-02-04T13:39:07Z</time>
      </trkpt>
      <trkpt lat="43.16694" lon="6.50259">
        <ele>107.3</ele>
        <time>2024-02-04T13:39:08Z</time>
      </trkpt>
      <trkpt lat="43.16694" lon="6.5026">
        <ele>107.1</ele>
        <time>2024-02-04T13:39:09Z</time>
      </trkpt>
      <trkpt lat="43.16694" lon="6.5026">
        <ele>107.1</ele>
        <time>2024-02-04T13:39:10Z</time>
      </trkpt>
      <trkpt lat="43.16694" lon="6.5026">
        <ele>107.1</ele>
        <time>2024-02-04T13:39:11Z</time>
      </trkpt>
      <trkpt lat="43.16694" lon="6.5026">
        <ele>107</ele>
        <time>2024-02-04T13:39:12Z</time>
      </trkpt>
      <trkpt lat="43.16694" lon="6.5026">
        <ele>107</ele>
        <time>2024-02-04T13:39:13Z</time>
      </trkpt>
      <trkpt lat="43.16694" lon="6.5026">
        <ele>106.9</ele>
        <time>2024-02-04T13:39:14Z</time>
      </trkpt>
      <trkpt lat="43.16694" lon="6.5026">
        <ele>106.9</ele>
        <time>2024-02-04T13:39:15Z</time>
      </trkpt>
      <trkpt lat="43.16694" lon="6.5026">
        <ele>106.8</ele>
        <time>2024-02-04T13:39:16Z</time>
      </trkpt>
      <trkpt lat="43.16694" lon="6.5026">
        <ele>106.8</ele>
        <time>2024-02-04T13:39:17Z</time>
      </trkpt>
      <trkpt lat="43.16694" lon="6.5026">
        <ele>106.7</ele>
        <time>2024-02-04T13:39:18Z</time>
      </trkpt>
      <trkpt lat="43.16694" lon="6.5026">
        <ele>106.7</ele>
        <time>2024-02-04T13:39:19Z</time>
      </trkpt>
      <trkpt lat="43.16694" lon="6.5026">
        <ele>106.7</ele>
        <time>2024-02-04T13:39:20Z</time>
      </trkpt>
      <trkpt lat="43.16694" lon="6.5026">
        <ele>106.7</ele>
        <time>2024-02-04T13:39:21Z</time>
      </trkpt>
      <trkpt lat="43.16694" lon="6.5026">
        <ele>106.7</ele>
        <time>2024-02-04T13:39:22Z</time>
      </trkpt>
      <trkpt lat="43.16694" lon="6.5026">
        <ele>106.7</ele>
        <time>2024-02-04T13:39:23Z</time>
      </trkpt>
      <trkpt lat="43.16694" lon="6.5026">
        <ele>106.7</ele>
        <time>2024-02-04T13:39:24Z</time>
      </trkpt>
      <trkpt lat="43.16694" lon="6.5026">
        <ele>106.7</ele>
        <time>2024-02-04T13:39:25Z</time>
      </trkpt>
      <trkpt lat="43.16694" lon="6.5026">
        <ele>106.7</ele>
        <time>2024-02-04T13:39:26Z</time>
      </trkpt>
      <trkpt lat="43.16694" lon="6.5026">
        <ele>106.7</ele>
        <time>2024-02-04T13:39:27Z</time>
      </trkpt>
      <trkpt lat="43.16694" lon="6.5026">
        <ele>106.7</ele>
        <time>2024-02-04T13:39:28Z</time>
      </trkpt>
      <trkpt lat="43.16693" lon="6.5026">
        <ele>106.7</ele>
        <time>2024-02-04T13:39:29Z</time>
      </trkpt>
      <trkpt lat="43.16693" lon="6.5026">
        <ele>106.6</ele>
        <time>2024-02-04T13:39:30Z</time>
      </trkpt>
      <trkpt lat="43.16693" lon="6.5026">
        <ele>106.6</ele>
        <time>2024-02-04T13:39:31Z</time>
      </trkpt>
      <trkpt lat="43.16693" lon="6.5026">
        <ele>106.5</ele>
        <time>2024-02-04T13:39:32Z</time>
      </trkpt>
      <trkpt lat="43.16693" lon="6.5026">
        <ele>106.5</ele>
        <time>2024-02-04T13:39:33Z</time>
      </trkpt>
      <trkpt lat="43.16694" lon="6.5026">
        <ele>106.5</ele>
        <time>2024-02-04T13:39:34Z</time>
      </trkpt>
      <trkpt lat="43.16694" lon="6.5026">
        <ele>106.4</ele>
        <time>2024-02-04T13:39:35Z</time>
      </trkpt>
      <trkpt lat="43.16694" lon="6.5026">
        <ele>106.3</ele>
        <time>2024-02-04T13:39:36Z</time>
      </trkpt>
      <trkpt lat="43.16694" lon="6.5026">
        <ele>106.3</ele>
        <time>2024-02-04T13:39:37Z</time>
      </trkpt>
      <trkpt lat="43.16694" lon="6.5026">
        <ele>106.4</ele>
        <time>2024-02-04T13:39:38Z</time>
      </trkpt>
      <trkpt lat="43.16694" lon="6.5026">
        <ele>106.4</ele>
        <time>2024-02-04T13:39:39Z</time>
      </trkpt>
      <trkpt lat="43.16694" lon="6.5026">
        <ele>106.4</ele>
        <time>2024-02-04T13:39:40Z</time>
      </trkpt>
      <trkpt lat="43.16694" lon="6.5026">
        <ele>106.4</ele>
        <time>2024-02-04T13:39:41Z</time>
      </trkpt>
      <trkpt lat="43.16695" lon="6.50259">
        <ele>106.5</ele>
        <time>2024-02-04T13:39:42Z</time>
      </trkpt>
      <trkpt lat="43.16695" lon="6.50259">
        <ele>106.5</ele>
        <time>2024-02-04T13:39:43Z</time>
      </trkpt>
      <trkpt lat="43.16696" lon="6.50258">
        <ele>106.5</ele>
        <time>2024-02-04T13:39:44Z</time>
      </trkpt>
      <trkpt lat="43.16697" lon="6.50258">
        <ele>106.6</ele>
        <time>2024-02-04T13:39:45Z</time>
      </trkpt>
      <trkpt lat="43.16698" lon="6.50258">
        <ele>106.7</ele>
        <time>2024-02-04T13:39:46Z</time>
      </trkpt>
      <trkpt lat="43.16699" lon="6.50258">
        <ele>106.8</ele>
        <time>2024-02-04T13:39:47Z</time>
      </trkpt>
      <trkpt lat="43.167" lon="6.50259">
        <ele>107</ele>
        <time>2024-02-04T13:39:48Z</time>
      </trkpt>
      <trkpt lat="43.16701" lon="6.50259">
        <ele>107.1</ele>
        <time>2024-02-04T13:39:49Z</time>
      </trkpt>
      <trkpt lat="43.16702" lon="6.5026">
        <ele>107.3</ele>
        <time>2024-02-04T13:39:50Z</time>
      </trkpt>
      <trkpt lat="43.16703" lon="6.5026">
        <ele>107.5</ele>
        <time>2024-02-04T13:39:51Z</time>
      </trkpt>
      <trkpt lat="43.16704" lon="6.50261">
        <ele>107.7</ele>
        <time>2024-02-04T13:39:52Z</time>
      </trkpt>
      <trkpt lat="43.16705" lon="6.50262">
        <ele>107.7</ele>
        <time>2024-02-04T13:39:53Z</time>
      </trkpt>
      <trkpt lat="43.16706" lon="6.50263">
        <ele>107.8</ele>
        <time>2024-02-04T13:39:54Z</time>
      </trkpt>
      <trkpt lat="43.16707" lon="6.50264">
        <ele>107.8</ele>
        <time>2024-02-04T13:39:55Z</time>
      </trkpt>
      <trkpt lat="43.16708" lon="6.50265">
        <ele>107.9</ele>
        <time>2024-02-04T13:39:56Z</time>
      </trkpt>
      <trkpt lat="43.16709" lon="6.50266">
        <ele>108</ele>
        <time>2024-02-04T13:39:57Z</time>
      </trkpt>
      <trkpt lat="43.1671" lon="6.50267">
        <ele>108</ele>
        <time>2024-02-04T13:39:58Z</time>
      </trkpt>
      <trkpt lat="43.16712" lon="6.50268">
        <ele>108.1</ele>
        <time>2024-02-04T13:39:59Z</time>
      </trkpt>
      <trkpt lat="43.16713" lon="6.50269">
        <ele>108.1</ele>
        <time>2024-02-04T13:40:00Z</time>
      </trkpt>
      <trkpt lat="43.16714" lon="6.5027">
        <ele>108</ele>
        <time>2024-02-04T13:40:01Z</time>
      </trkpt>
      <trkpt lat="43.16715" lon="6.5027">
        <ele>108.1</ele>
        <time>2024-02-04T13:40:02Z</time>
      </trkpt>
      <trkpt lat="43.16716" lon="6.50271">
        <ele>108.1</ele>
        <time>2024-02-04T13:40:03Z</time>
      </trkpt>
      <trkpt lat="43.16717" lon="6.50272">
        <ele>108.1</ele>
        <time>2024-02-04T13:40:04Z</time>
      </trkpt>
      <trkpt lat="43.16718" lon="6.50273">
        <ele>108.2</ele>
        <time>2024-02-04T13:40:05Z</time>
      </trkpt>
      <trkpt lat="43.16719" lon="6.50274">
        <ele>108.2</ele>
        <time>2024-02-04T13:40:06Z</time>
      </trkpt>
      <trkpt lat="43.1672" lon="6.50275">
        <ele>108.3</ele>
        <time>2024-02-04T13:40:07Z</time>
      </trkpt>
      <trkpt lat="43.16721" lon="6.50275">
        <ele>108.3</ele>
        <time>2024-02-04T13:40:08Z</time>
      </trkpt>
      <trkpt lat="43.16722" lon="6.50276">
        <ele>108.4</ele>
        <time>2024-02-04T13:40:09Z</time>
      </trkpt>
      <trkpt lat="43.16723" lon="6.50277">
        <ele>108.5</ele>
        <time>2024-02-04T13:40:10Z</time>
      </trkpt>
      <trkpt lat="43.16724" lon="6.50278">
        <ele>108.5</ele>
        <time>2024-02-04T13:40:11Z</time>
      </trkpt>
      <trkpt lat="43.16725" lon="6.50279">
        <ele>108.5</ele>
        <time>2024-02-04T13:40:12Z</time>
      </trkpt>
      <trkpt lat="43.16727" lon="6.50279">
        <ele>108.4</ele>
        <time>2024-02-04T13:40:13Z</time>
      </trkpt>
      <trkpt lat="43.16728" lon="6.5028">
        <ele>108.5</ele>
        <time>2024-02-04T13:40:14Z</time>
      </trkpt>
      <trkpt lat="43.16729" lon="6.50281">
        <ele>108.4</ele>
        <time>2024-02-04T13:40:15Z</time>
      </trkpt>
      <trkpt lat="43.1673" lon="6.50281">
        <ele>108.4</ele>
        <time>2024-02-04T13:40:16Z</time>
      </trkpt>
      <trkpt lat="43.16731" lon="6.50282">
        <ele>108.4</ele>
        <time>2024-02-04T13:40:17Z</time>
      </trkpt>
      <trkpt lat="43.16732" lon="6.50283">
        <ele>108.5</ele>
        <time>2024-02-04T13:40:18Z</time>
      </trkpt>
      <trkpt lat="43.16733" lon="6.50283">
        <ele>108.5</ele>
        <time>2024-02-04T13:40:19Z</time>
      </trkpt>
      <trkpt lat="43.16734" lon="6.50284">
        <ele>108.5</ele>
        <time>2024-02-04T13:40:20Z</time>
      </trkpt>
      <trkpt lat="43.16735" lon="6.50285">
        <ele>108.5</ele>
        <time>2024-02-04T13:40:21Z</time>
      </trkpt>
      <trkpt lat="43.16737" lon="6.50285">
        <ele>108.5</ele>
        <time>2024-02-04T13:40:22Z</time>
      </trkpt>
      <trkpt lat="43.16738" lon="6.50286">
        <ele>108.6</ele>
        <time>2024-02-04T13:40:23Z</time>
      </trkpt>
      <trkpt lat="43.16739" lon="6.50287">
        <ele>108.5</ele>
        <time>2024-02-04T13:40:24Z</time>
      </trkpt>
      <trkpt lat="43.1674" lon="6.50287">
        <ele>108.5</ele>
        <time>2024-02-04T13:40:25Z</time>
      </trkpt>
      <trkpt lat="43.16741" lon="6.50287">
        <ele>108.5</ele>
        <time>2024-02-04T13:40:26Z</time>
      </trkpt>
      <trkpt lat="43.16742" lon="6.50287">
        <ele>108.6</ele>
        <time>2024-02-04T13:40:27Z</time>
      </trkpt>
      <trkpt lat="43.16744" lon="6.50287">
        <ele>108.6</ele>
        <time>2024-02-04T13:40:28Z</time>
      </trkpt>
      <trkpt lat="43.16745" lon="6.50286">
        <ele>108.6</ele>
        <time>2024-02-04T13:40:29Z</time>
      </trkpt>
      <trkpt lat="43.16746" lon="6.50286">
        <ele>108.6</ele>
        <time>2024-02-04T13:40:30Z</time>
      </trkpt>
      <trkpt lat="43.16747" lon="6.50285">
        <ele>108.6</ele>
        <time>2024-02-04T13:40:31Z</time>
      </trkpt>
      <trkpt lat="43.16748" lon="6.50285">
        <ele>108.5</ele>
        <time>2024-02-04T13:40:32Z</time>
      </trkpt>
      <trkpt lat="43.16749" lon="6.50284">
        <ele>108.6</ele>
        <time>2024-02-04T13:40:33Z</time>
      </trkpt>
      <trkpt lat="43.1675" lon="6.50284">
        <ele>108.6</ele>
        <time>2024-02-04T13:40:34Z</time>
      </trkpt>
      <trkpt lat="43.16751" lon="6.50283">
        <ele>108.6</ele>
        <time>2024-02-04T13:40:35Z</time>
      </trkpt>
      <trkpt lat="43.16752" lon="6.50282">
        <ele>108.6</ele>
        <time>2024-02-04T13:40:36Z</time>
      </trkpt>
      <trkpt lat="43.16753" lon="6.50281">
        <ele>108.7</ele>
        <time>2024-02-04T13:40:37Z</time>
      </trkpt>
      <trkpt lat="43.16754" lon="6.50281">
        <ele>108.7</ele>
        <time>2024-02-04T13:40:38Z</time>
      </trkpt>
      <trkpt lat="43.16755" lon="6.5028">
        <ele>108.6</ele>
        <time>2024-02-04T13:40:39Z</time>
      </trkpt>
      <trkpt lat="43.16756" lon="6.50279">
        <ele>108.6</ele>
        <time>2024-02-04T13:40:40Z</time>
      </trkpt>
      <trkpt lat="43.16757" lon="6.50278">
        <ele>108.6</ele>
        <time>2024-02-04T13:40:41Z</time>
      </trkpt>
      <trkpt lat="43.16758" lon="6.50278">
        <ele>108.6</ele>
        <time>2024-02-04T13:40:42Z</time>
      </trkpt>
      <trkpt lat="43.16759" lon="6.50277">
        <ele>108.7</ele>
        <time>2024-02-04T13:40:43Z</time>
      </trkpt>
      <trkpt lat="43.1676" lon="6.50277">
        <ele>108.8</ele>
        <time>2024-02-04T13:40:44Z</time>
      </trkpt>
      <trkpt lat="43.16762" lon="6.50277">
        <ele>108.8</ele>
        <time>2024-02-04T13:40:45Z</time>
      </trkpt>
      <trkpt lat="43.16763" lon="6.50277">
        <ele>108.8</ele>
        <time>2024-02-04T13:40:46Z</time>
      </trkpt>
      <trkpt lat="43.16764" lon="6.50277">
        <ele>108.8</ele>
        <time>2024-02-04T13:40:47Z</time>
      </trkpt>
      <trkpt lat="43.16765" lon="6.50277">
        <ele>108.8</ele>
        <time>2024-02-04T13:40:48Z</time>
      </trkpt>
      <trkpt lat="43.16766" lon="6.50278">
        <ele>108.8</ele>
        <time>2024-02-04T13:40:49Z</time>
      </trkpt>
      <trkpt lat="43.16767" lon="6.50278">
        <ele>108.7</ele>
        <time>2024-02-04T13:40:50Z</time>
      </trkpt>
      <trkpt lat="43.16767" lon="6.5028">
        <ele>108.6</ele>
        <time>2024-02-04T13:40:51Z</time>
      </trkpt>
      <trkpt lat="43.16768" lon="6.50281">
        <ele>108.6</ele>
        <time>2024-02-04T13:40:52Z</time>
      </trkpt>
      <trkpt lat="43.16768" lon="6.50282">
        <ele>108.5</ele>
        <time>2024-02-04T13:40:53Z</time>
      </trkpt>
      <trkpt lat="43.16769" lon="6.50283">
        <ele>108.5</ele>
        <time>2024-02-04T13:40:54Z</time>
      </trkpt>
      <trkpt lat="43.16769" lon="6.50284">
        <ele>108.4</ele>
        <time>2024-02-04T13:40:55Z</time>
      </trkpt>
      <trkpt lat="43.1677" lon="6.50285">
        <ele>108.4</ele>
        <time>2024-02-04T13:40:56Z</time>
      </trkpt>
      <trkpt lat="43.1677" lon="6.50286">
        <ele>108.4</ele>
        <time>2024-02-04T13:40:57Z</time>
      </trkpt>
      <trkpt lat="43.16771" lon="6.50287">
        <ele>108.3</ele>
        <time>2024-02-04T13:40:58Z</time>
      </trkpt>
      <trkpt lat="43.16771" lon="6.50288">
        <ele>108.2</ele>
        <time>2024-02-04T13:40:59Z</time>
      </trkpt>
      <trkpt lat="43.16771" lon="6.5029">
        <ele>108.2</ele>
        <time>2024-02-04T13:41:00Z</time>
      </trkpt>
      <trkpt lat="43.16772" lon="6.50291">
        <ele>108.1</ele>
        <time>2024-02-04T13:41:01Z</time>
      </trkpt>
      <trkpt lat="43.16773" lon="6.50291">
        <ele>108.1</ele>
        <time>2024-02-04T13:41:02Z</time>
      </trkpt>
      <trkpt lat="43.16774" lon="6.50292">
        <ele>108.1</ele>
        <time>2024-02-04T13:41:03Z</time>
      </trkpt>
      <trkpt lat="43.16774" lon="6.50293">
        <ele>108.1</ele>
        <time>2024-02-04T13:41:04Z</time>
      </trkpt>
      <trkpt lat="43.16774" lon="6.50294">
        <ele>108.1</ele>
        <time>2024-02-04T13:41:05Z</time>
      </trkpt>
      <trkpt lat="43.16774" lon="6.50294">
        <ele>108.1</ele>
        <time>2024-02-04T13:41:06Z</time>
      </trkpt>
      <trkpt lat="43.16774" lon="6.50294">
        <ele>108</ele>
        <time>2024-02-04T13:41:07Z</time>
      </trkpt>
      <trkpt lat="43.16773" lon="6.50293">
        <ele>107.9</ele>
        <time>2024-02-04T13:41:08Z</time>
      </trkpt>
      <trkpt lat="43.16773" lon="6.50294">
        <ele>107.9</ele>
        <time>2024-02-04T13:41:09Z</time>
      </trkpt>
      <trkpt lat="43.16773" lon="6.50293">
        <ele>107.9</ele>
        <time>2024-02-04T13:41:10Z</time>
      </trkpt>
      <trkpt lat="43.16773" lon="6.50293">
        <ele>107.9</ele>
        <time>2024-02-04T13:41:11Z</time>
      </trkpt>
      <trkpt lat="43.16773" lon="6.50293">
        <ele>107.9</ele>
        <time>2024-02-04T13:41:12Z</time>
      </trkpt>
      <trkpt lat="43.16773" lon="6.50293">
        <ele>107.8</ele>
        <time>2024-02-04T13:41:13Z</time>
      </trkpt>
      <trkpt lat="43.16773" lon="6.50293">
        <ele>107.8</ele>
        <time>2024-02-04T13:41:14Z</time>
      </trkpt>
      <trkpt lat="43.16773" lon="6.50293">
        <ele>107.8</ele>
        <time>2024-02-04T13:41:15Z</time>
      </trkpt>
      <trkpt lat="43.16774" lon="6.50293">
        <ele>107.8</ele>
        <time>2024-02-04T13:41:16Z</time>
      </trkpt>
      <trkpt lat="43.16774" lon="6.50294">
        <ele>107.9</ele>
        <time>2024-02-04T13:41:17Z</time>
      </trkpt>
      <trkpt lat="43.16774" lon="6.50295">
        <ele>107.9</ele>
        <time>2024-02-04T13:41:18Z</time>
      </trkpt>
      <trkpt lat="43.16774" lon="6.50296">
        <ele>107.9</ele>
        <time>2024-02-04T13:41:19Z</time>
      </trkpt>
      <trkpt lat="43.16774" lon="6.50298">
        <ele>107.9</ele>
        <time>2024-02-04T13:41:20Z</time>
      </trkpt>
      <trkpt lat="43.16774" lon="6.50299">
        <ele>107.9</ele>
        <time>2024-02-04T13:41:21Z</time>
      </trkpt>
      <trkpt lat="43.16774" lon="6.50301">
        <ele>107.9</ele>
        <time>2024-02-04T13:41:22Z</time>
      </trkpt>
      <trkpt lat="43.16774" lon="6.50303">
        <ele>107.9</ele>
        <time>2024-02-04T13:41:23Z</time>
      </trkpt>
      <trkpt lat="43.16774" lon="6.50304">
        <ele>107.8</ele>
        <time>2024-02-04T13:41:24Z</time>
      </trkpt>
      <trkpt lat="43.16774" lon="6.50306">
        <ele>107.8</ele>
        <time>2024-02-04T13:41:25Z</time>
      </trkpt>
      <trkpt lat="43.16774" lon="6.50307">
        <ele>107.8</ele>
        <time>2024-02-04T13:41:26Z</time>
      </trkpt>
      <trkpt lat="43.16773" lon="6.50308">
        <ele>107.8</ele>
        <time>2024-02-04T13:41:27Z</time>
      </trkpt>
      <trkpt lat="43.16773" lon="6.50309">
        <ele>107.7</ele>
        <time>2024-02-04T13:41:28Z</time>
      </trkpt>
      <trkpt lat="43.16773" lon="6.50311">
        <ele>107.7</ele>
        <time>2024-02-04T13:41:29Z</time>
      </trkpt>
      <trkpt lat="43.16773" lon="6.50312">
        <ele>107.7</ele>
        <time>2024-02-04T13:41:30Z</time>
      </trkpt>
      <trkpt lat="43.16772" lon="6.50314">
        <ele>107.6</ele>
        <time>2024-02-04T13:41:31Z</time>
      </trkpt>
      <trkpt lat="43.16772" lon="6.50315">
        <ele>107.6</ele>
        <time>2024-02-04T13:41:32Z</time>
      </trkpt>
      <trkpt lat="43.16772" lon="6.50317">
        <ele>107.5</ele>
        <time>2024-02-04T13:41:33Z</time>
      </trkpt>
      <trkpt lat="43.16772" lon="6.50319">
        <ele>107.5</ele>
        <time>2024-02-04T13:41:34Z</time>
      </trkpt>
      <trkpt lat="43.16772" lon="6.50321">
        <ele>107.5</ele>
        <time>2024-02-04T13:41:35Z</time>
      </trkpt>
      <trkpt lat="43.16772" lon="6.50322">
        <ele>107.5</ele>
        <time>2024-02-04T13:41:36Z</time>
      </trkpt>
      <trkpt lat="43.16773" lon="6.50324">
        <ele>107.4</ele>
        <time>2024-02-04T13:41:37Z</time>
      </trkpt>
      <trkpt lat="43.16773" lon="6.50326">
        <ele>107.5</ele>
        <time>2024-02-04T13:41:38Z</time>
      </trkpt>
      <trkpt lat="43.16773" lon="6.50328">
        <ele>107.5</ele>
        <time>2024-02-04T13:41:39Z</time>
      </trkpt>
      <trkpt lat="43.16773" lon="6.50329">
        <ele>107.5</ele>
        <time>2024-02-04T13:41:40Z</time>
      </trkpt>
      <trkpt lat="43.16773" lon="6.50331">
        <ele>107.5</ele>
        <time>2024-02-04T13:41:41Z</time>
      </trkpt>
      <trkpt lat="43.16774" lon="6.50333">
        <ele>107.4</ele>
        <time>2024-02-04T13:41:42Z</time>
      </trkpt>
      <trkpt lat="43.16775" lon="6.50336">
        <ele>107.4</ele>
        <time>2024-02-04T13:41:43Z</time>
      </trkpt>
      <trkpt lat="43.16775" lon="6.50338">
        <ele>107.4</ele>
        <time>2024-02-04T13:41:44Z</time>
      </trkpt>
      <trkpt lat="43.16776" lon="6.50339">
        <ele>107.3</ele>
        <time>2024-02-04T13:41:45Z</time>
      </trkpt>
      <trkpt lat="43.16776" lon="6.50341">
        <ele>107.3</ele>
        <time>2024-02-04T13:41:46Z</time>
      </trkpt>
      <trkpt lat="43.16776" lon="6.50343">
        <ele>107.3</ele>
        <time>2024-02-04T13:41:47Z</time>
      </trkpt>
      <trkpt lat="43.16777" lon="6.50345">
        <ele>107.3</ele>
        <time>2024-02-04T13:41:48Z</time>
      </trkpt>
      <trkpt lat="43.16778" lon="6.50346">
        <ele>107.3</ele>
        <time>2024-02-04T13:41:49Z</time>
      </trkpt>
      <trkpt lat="43.16778" lon="6.50348">
        <ele>107.4</ele>
        <time>2024-02-04T13:41:50Z</time>
      </trkpt>
      <trkpt lat="43.16778" lon="6.5035">
        <ele>107.3</ele>
        <time>2024-02-04T13:41:51Z</time>
      </trkpt>
      <trkpt lat="43.16779" lon="6.50352">
        <ele>107.3</ele>
        <time>2024-02-04T13:41:52Z</time>
      </trkpt>
      <trkpt lat="43.16779" lon="6.50353">
        <ele>107.2</ele>
        <time>2024-02-04T13:41:53Z</time>
      </trkpt>
      <trkpt lat="43.1678" lon="6.50355">
        <ele>107.2</ele>
        <time>2024-02-04T13:41:54Z</time>
      </trkpt>
      <trkpt lat="43.1678" lon="6.50356">
        <ele>107.2</ele>
        <time>2024-02-04T13:41:55Z</time>
      </trkpt>
      <trkpt lat="43.16781" lon="6.50358">
        <ele>107.3</ele>
        <time>2024-02-04T13:41:56Z</time>
      </trkpt>
      <trkpt lat="43.16782" lon="6.5036">
        <ele>107.2</ele>
        <time>2024-02-04T13:41:57Z</time>
      </trkpt>
      <trkpt lat="43.16783" lon="6.50362">
        <ele>107.2</ele>
        <time>2024-02-04T13:41:58Z</time>
      </trkpt>
      <trkpt lat="43.16783" lon="6.50363">
        <ele>107.1</ele>
        <time>2024-02-04T13:41:59Z</time>
      </trkpt>
      <trkpt lat="43.16784" lon="6.50365">
        <ele>107.1</ele>
        <time>2024-02-04T13:42:00Z</time>
      </trkpt>
      <trkpt lat="43.16785" lon="6.50367">
        <ele>107.3</ele>
        <time>2024-02-04T13:42:01Z</time>
      </trkpt>
      <trkpt lat="43.16785" lon="6.50369">
        <ele>107.3</ele>
        <time>2024-02-04T13:42:02Z</time>
      </trkpt>
      <trkpt lat="43.16786" lon="6.50371">
        <ele>107.3</ele>
        <time>2024-02-04T13:42:03Z</time>
      </trkpt>
      <trkpt lat="43.16787" lon="6.50372">
        <ele>107.3</ele>
        <time>2024-02-04T13:42:04Z</time>
      </trkpt>
      <trkpt lat="43.16788" lon="6.50374">
        <ele>107.3</ele>
        <time>2024-02-04T13:42:05Z</time>
      </trkpt>
      <trkpt lat="43.16788" lon="6.50376">
        <ele>107.3</ele>
        <time>2024-02-04T13:42:06Z</time>
      </trkpt>
      <trkpt lat="43.16789" lon="6.50378">
        <ele>107.3</ele>
        <time>2024-02-04T13:42:07Z</time>
      </trkpt>
      <trkpt lat="43.1679" lon="6.50379">
        <ele>107.2</ele>
        <time>2024-02-04T13:42:08Z</time>
      </trkpt>
      <trkpt lat="43.16791" lon="6.50381">
        <ele>107.2</ele>
        <time>2024-02-04T13:42:09Z</time>
      </trkpt>
      <trkpt lat="43.16792" lon="6.50383">
        <ele>107.3</ele>
        <time>2024-02-04T13:42:10Z</time>
      </trkpt>
      <trkpt lat="43.16793" lon="6.50384">
        <ele>107.3</ele>
        <time>2024-02-04T13:42:11Z</time>
      </trkpt>
      <trkpt lat="43.16793" lon="6.50387">
        <ele>107.2</ele>
        <time>2024-02-04T13:42:12Z</time>
      </trkpt>
      <trkpt lat="43.16794" lon="6.50388">
        <ele>107.3</ele>
        <time>2024-02-04T13:42:13Z</time>
      </trkpt>
      <trkpt lat="43.16794" lon="6.5039">
        <ele>107.4</ele>
        <time>2024-02-04T13:42:14Z</time>
      </trkpt>
      <trkpt lat="43.16795" lon="6.50392">
        <ele>107.4</ele>
        <time>2024-02-04T13:42:15Z</time>
      </trkpt>
      <trkpt lat="43.16796" lon="6.50394">
        <ele>107.4</ele>
        <time>2024-02-04T13:42:16Z</time>
      </trkpt>
      <trkpt lat="43.16796" lon="6.50395">
        <ele>107.3</ele>
        <time>2024-02-04T13:42:17Z</time>
      </trkpt>
      <trkpt lat="43.16797" lon="6.50397">
        <ele>107.3</ele>
        <time>2024-02-04T13:42:18Z</time>
      </trkpt>
      <trkpt lat="43.16798" lon="6.50398">
        <ele>107.3</ele>
        <time>2024-02-04T13:42:19Z</time>
      </trkpt>
      <trkpt lat="43.16798" lon="6.504">
        <ele>107.3</ele>
        <time>2024-02-04T13:42:20Z</time>
      </trkpt>
      <trkpt lat="43.168" lon="6.50401">
        <ele>107.2</ele>
        <time>2024-02-04T13:42:21Z</time>
      </trkpt>
      <trkpt lat="43.16801" lon="6.50402">
        <ele>107.2</ele>
        <time>2024-02-04T13:42:22Z</time>
      </trkpt>
      <trkpt lat="43.16801" lon="6.50404">
        <ele>107.2</ele>
        <time>2024-02-04T13:42:23Z</time>
      </trkpt>
      <trkpt lat="43.16802" lon="6.50405">
        <ele>107.2</ele>
        <time>2024-02-04T13:42:24Z</time>
      </trkpt>
      <trkpt lat="43.16803" lon="6.50407">
        <ele>107.2</ele>
        <time>2024-02-04T13:42:25Z</time>
      </trkpt>
      <trkpt lat="43.16804" lon="6.50409">
        <ele>107.2</ele>
        <time>2024-02-04T13:42:26Z</time>
      </trkpt>
      <trkpt lat="43.16804" lon="6.5041">
        <ele>107.3</ele>
        <time>2024-02-04T13:42:27Z</time>
      </trkpt>
      <trkpt lat="43.16805" lon="6.50412">
        <ele>107.3</ele>
        <time>2024-02-04T13:42:28Z</time>
      </trkpt>
      <trkpt lat="43.16806" lon="6.50413">
        <ele>107.4</ele>
        <time>2024-02-04T13:42:29Z</time>
      </trkpt>
      <trkpt lat="43.16807" lon="6.50414">
        <ele>107.4</ele>
        <time>2024-02-04T13:42:30Z</time>
      </trkpt>
      <trkpt lat="43.16808" lon="6.50415">
        <ele>107.4</ele>
        <time>2024-02-04T13:42:31Z</time>
      </trkpt>
      <trkpt lat="43.16809" lon="6.50417">
        <ele>107.4</ele>
        <time>2024-02-04T13:42:32Z</time>
      </trkpt>
      <trkpt lat="43.16809" lon="6.50418">
        <ele>107.4</ele>
        <time>2024-02-04T13:42:33Z</time>
      </trkpt>
      <trkpt lat="43.1681" lon="6.50419">
        <ele>107.5</ele>
        <time>2024-02-04T13:42:34Z</time>
      </trkpt>
      <trkpt lat="43.1681" lon="6.50421">
        <ele>107.5</ele>
        <time>2024-02-04T13:42:35Z</time>
      </trkpt>
      <trkpt lat="43.16811" lon="6.50422">
        <ele>107.5</ele>
        <time>2024-02-04T13:42:36Z</time>
      </trkpt>
      <trkpt lat="43.16811" lon="6.50424">
        <ele>107.6</ele>
        <time>2024-02-04T13:42:37Z</time>
      </trkpt>
      <trkpt lat="43.16811" lon="6.50425">
        <ele>107.7</ele>
        <time>2024-02-04T13:42:38Z</time>
      </trkpt>
      <trkpt lat="43.16811" lon="6.50426">
        <ele>107.8</ele>
        <time>2024-02-04T13:42:39Z</time>
      </trkpt>
      <trkpt lat="43.16811" lon="6.50427">
        <ele>107.9</ele>
        <time>2024-02-04T13:42:40Z</time>
      </trkpt>
      <trkpt lat="43.1681" lon="6.50427">
        <ele>107.9</ele>
        <time>2024-02-04T13:42:41Z</time>
      </trkpt>
      <trkpt lat="43.1681" lon="6.50428">
        <ele>107.9</ele>
        <time>2024-02-04T13:42:42Z</time>
      </trkpt>
      <trkpt lat="43.1681" lon="6.50428">
        <ele>107.8</ele>
        <time>2024-02-04T13:42:43Z</time>
      </trkpt>
      <trkpt lat="43.16809" lon="6.50428">
        <ele>107.7</ele>
        <time>2024-02-04T13:42:44Z</time>
      </trkpt>
      <trkpt lat="43.16808" lon="6.50429">
        <ele>107.5</ele>
        <time>2024-02-04T13:42:45Z</time>
      </trkpt>
      <trkpt lat="43.16808" lon="6.5043">
        <ele>107.2</ele>
        <time>2024-02-04T13:42:46Z</time>
      </trkpt>
      <trkpt lat="43.16807" lon="6.5043">
        <ele>107.1</ele>
        <time>2024-02-04T13:42:47Z</time>
      </trkpt>
      <trkpt lat="43.16807" lon="6.5043">
        <ele>106.9</ele>
        <time>2024-02-04T13:42:48Z</time>
      </trkpt>
      <trkpt lat="43.16806" lon="6.50431">
        <ele>106.7</ele>
        <time>2024-02-04T13:42:49Z</time>
      </trkpt>
      <trkpt lat="43.16805" lon="6.50431">
        <ele>106.3</ele>
        <time>2024-02-04T13:42:50Z</time>
      </trkpt>
      <trkpt lat="43.16804" lon="6.50432">
        <ele>106.1</ele>
        <time>2024-02-04T13:42:51Z</time>
      </trkpt>
      <trkpt lat="43.16803" lon="6.50431">
        <ele>105.8</ele>
        <time>2024-02-04T13:42:52Z</time>
      </trkpt>
      <trkpt lat="43.16802" lon="6.50432">
        <ele>105.6</ele>
        <time>2024-02-04T13:42:53Z</time>
      </trkpt>
      <trkpt lat="43.16801" lon="6.50432">
        <ele>105.3</ele>
        <time>2024-02-04T13:42:54Z</time>
      </trkpt>
      <trkpt lat="43.168" lon="6.50432">
        <ele>105.1</ele>
        <time>2024-02-04T13:42:55Z</time>
      </trkpt>
      <trkpt lat="43.168" lon="6.50432">
        <ele>104.7</ele>
        <time>2024-02-04T13:42:56Z</time>
      </trkpt>
      <trkpt lat="43.16799" lon="6.50432">
        <ele>104.3</ele>
        <time>2024-02-04T13:42:57Z</time>
      </trkpt>
      <trkpt lat="43.16798" lon="6.50432">
        <ele>104.1</ele>
        <time>2024-02-04T13:42:58Z</time>
      </trkpt>
      <trkpt lat="43.16797" lon="6.50432">
        <ele>103.8</ele>
        <time>2024-02-04T13:42:59Z</time>
      </trkpt>
      <trkpt lat="43.16796" lon="6.50433">
        <ele>103.5</ele>
        <time>2024-02-04T13:43:00Z</time>
      </trkpt>
      <trkpt lat="43.16795" lon="6.50433">
        <ele>103.3</ele>
        <time>2024-02-04T13:43:01Z</time>
      </trkpt>
      <trkpt lat="43.16795" lon="6.50433">
        <ele>103.2</ele>
        <time>2024-02-04T13:43:02Z</time>
      </trkpt>
      <trkpt lat="43.16794" lon="6.50433">
        <ele>103</ele>
        <time>2024-02-04T13:43:03Z</time>
      </trkpt>
      <trkpt lat="43.16793" lon="6.50434">
        <ele>102.8</ele>
        <time>2024-02-04T13:43:04Z</time>
      </trkpt>
      <trkpt lat="43.16792" lon="6.50434">
        <ele>102.5</ele>
        <time>2024-02-04T13:43:05Z</time>
      </trkpt>
      <trkpt lat="43.16791" lon="6.50435">
        <ele>102.2</ele>
        <time>2024-02-04T13:43:06Z</time>
      </trkpt>
      <trkpt lat="43.1679" lon="6.50436">
        <ele>102</ele>
        <time>2024-02-04T13:43:07Z</time>
      </trkpt>
      <trkpt lat="43.16789" lon="6.50436">
        <ele>101.7</ele>
        <time>2024-02-04T13:43:08Z</time>
      </trkpt>
      <trkpt lat="43.16789" lon="6.50437">
        <ele>101.5</ele>
        <time>2024-02-04T13:43:09Z</time>
      </trkpt>
      <trkpt lat="43.16788" lon="6.50438">
        <ele>101.2</ele>
        <time>2024-02-04T13:43:10Z</time>
      </trkpt>
      <trkpt lat="43.16787" lon="6.50439">
        <ele>100.9</ele>
        <time>2024-02-04T13:43:11Z</time>
      </trkpt>
      <trkpt lat="43.16787" lon="6.5044">
        <ele>100.7</ele>
        <time>2024-02-04T13:43:12Z</time>
      </trkpt>
      <trkpt lat="43.16786" lon="6.50441">
        <ele>100.6</ele>
        <time>2024-02-04T13:43:13Z</time>
      </trkpt>
      <trkpt lat="43.16785" lon="6.50442">
        <ele>100.3</ele>
        <time>2024-02-04T13:43:14Z</time>
      </trkpt>
      <trkpt lat="43.16784" lon="6.50443">
        <ele>100</ele>
        <time>2024-02-04T13:43:15Z</time>
      </trkpt>
      <trkpt lat="43.16783" lon="6.50443">
        <ele>99.7</ele>
        <time>2024-02-04T13:43:16Z</time>
      </trkpt>
      <trkpt lat="43.16783" lon="6.50444">
        <ele>99.5</ele>
        <time>2024-02-04T13:43:17Z</time>
      </trkpt>
      <trkpt lat="43.16782" lon="6.50445">
        <ele>99.2</ele>
        <time>2024-02-04T13:43:18Z</time>
      </trkpt>
      <trkpt lat="43.16782" lon="6.50446">
        <ele>98.7</ele>
        <time>2024-02-04T13:43:19Z</time>
      </trkpt>
      <trkpt lat="43.16781" lon="6.50447">
        <ele>98.4</ele>
        <time>2024-02-04T13:43:20Z</time>
      </trkpt>
      <trkpt lat="43.16781" lon="6.50448">
        <ele>98.1</ele>
        <time>2024-02-04T13:43:21Z</time>
      </trkpt>
      <trkpt lat="43.1678" lon="6.50449">
        <ele>97.8</ele>
        <time>2024-02-04T13:43:22Z</time>
      </trkpt>
      <trkpt lat="43.16779" lon="6.5045">
        <ele>97.5</ele>
        <time>2024-02-04T13:43:23Z</time>
      </trkpt>
      <trkpt lat="43.16778" lon="6.50451">
        <ele>97.2</ele>
        <time>2024-02-04T13:43:24Z</time>
      </trkpt>
      <trkpt lat="43.16778" lon="6.50451">
        <ele>96.9</ele>
        <time>2024-02-04T13:43:25Z</time>
      </trkpt>
      <trkpt lat="43.16776" lon="6.50452">
        <ele>96.5</ele>
        <time>2024-02-04T13:43:26Z</time>
      </trkpt>
      <trkpt lat="43.16776" lon="6.50453">
        <ele>96.2</ele>
        <time>2024-02-04T13:43:27Z</time>
      </trkpt>
      <trkpt lat="43.16775" lon="6.50454">
        <ele>95.9</ele>
        <time>2024-02-04T13:43:28Z</time>
      </trkpt>
      <trkpt lat="43.16774" lon="6.50455">
        <ele>95.6</ele>
        <time>2024-02-04T13:43:29Z</time>
      </trkpt>
      <trkpt lat="43.16773" lon="6.50457">
        <ele>95.2</ele>
        <time>2024-02-04T13:43:30Z</time>
      </trkpt>
      <trkpt lat="43.16773" lon="6.50458">
        <ele>95</ele>
        <time>2024-02-04T13:43:31Z</time>
      </trkpt>
      <trkpt lat="43.16772" lon="6.50459">
        <ele>94.7</ele>
        <time>2024-02-04T13:43:32Z</time>
      </trkpt>
      <trkpt lat="43.16771" lon="6.5046">
        <ele>94.4</ele>
        <time>2024-02-04T13:43:33Z</time>
      </trkpt>
      <trkpt lat="43.1677" lon="6.50461">
        <ele>94.2</ele>
        <time>2024-02-04T13:43:34Z</time>
      </trkpt>
      <trkpt lat="43.1677" lon="6.50463">
        <ele>94</ele>
        <time>2024-02-04T13:43:35Z</time>
      </trkpt>
      <trkpt lat="43.16769" lon="6.50464">
        <ele>93.8</ele>
        <time>2024-02-04T13:43:36Z</time>
      </trkpt>
      <trkpt lat="43.16769" lon="6.50466">
        <ele>93.6</ele>
        <time>2024-02-04T13:43:37Z</time>
      </trkpt>
      <trkpt lat="43.16769" lon="6.50466">
        <ele>93.4</ele>
        <time>2024-02-04T13:43:38Z</time>
      </trkpt>
      <trkpt lat="43.16768" lon="6.50468">
        <ele>93.2</ele>
        <time>2024-02-04T13:43:39Z</time>
      </trkpt>
      <trkpt lat="43.16767" lon="6.5047">
        <ele>93</ele>
        <time>2024-02-04T13:43:40Z</time>
      </trkpt>
      <trkpt lat="43.16767" lon="6.50471">
        <ele>92.9</ele>
        <time>2024-02-04T13:43:41Z</time>
      </trkpt>
      <trkpt lat="43.16767" lon="6.50472">
        <ele>92.7</ele>
        <time>2024-02-04T13:43:42Z</time>
      </trkpt>
      <trkpt lat="43.16766" lon="6.50474">
        <ele>92.4</ele>
        <time>2024-02-04T13:43:43Z</time>
      </trkpt>
      <trkpt lat="43.16766" lon="6.50475">
        <ele>92.2</ele>
        <time>2024-02-04T13:43:44Z</time>
      </trkpt>
      <trkpt lat="43.16766" lon="6.50477">
        <ele>91.9</ele>
        <time>2024-02-04T13:43:45Z</time>
      </trkpt>
      <trkpt lat="43.16766" lon="6.50478">
        <ele>91.8</ele>
        <time>2024-02-04T13:43:46Z</time>
      </trkpt>
      <trkpt lat="43.16765" lon="6.5048">
        <ele>91.6</ele>
        <time>2024-02-04T13:43:47Z</time>
      </trkpt>
      <trkpt lat="43.16765" lon="6.50481">
        <ele>91.5</ele>
        <time>2024-02-04T13:43:48Z</time>
      </trkpt>
      <trkpt lat="43.16765" lon="6.50482">
        <ele>91.3</ele>
        <time>2024-02-04T13:43:49Z</time>
      </trkpt>
      <trkpt lat="43.16764" lon="6.50483">
        <ele>91.1</ele>
        <time>2024-02-04T13:43:50Z</time>
      </trkpt>
      <trkpt lat="43.16763" lon="6.50484">
        <ele>90.9</ele>
        <time>2024-02-04T13:43:51Z</time>
      </trkpt>
      <trkpt lat="43.16763" lon="6.50485">
        <ele>90.8</ele>
        <time>2024-02-04T13:43:52Z</time>
      </trkpt>
      <trkpt lat="43.16762" lon="6.50486">
        <ele>90.6</ele>
        <time>2024-02-04T13:43:53Z</time>
      </trkpt>
      <trkpt lat="43.16762" lon="6.50487">
        <ele>90.4</ele>
        <time>2024-02-04T13:43:54Z</time>
      </trkpt>
      <trkpt lat="43.16762" lon="6.50488">
        <ele>90.2</ele>
        <time>2024-02-04T13:43:55Z</time>
      </trkpt>
      <trkpt lat="43.16761" lon="6.5049">
        <ele>90.1</ele>
        <time>2024-02-04T13:43:56Z</time>
      </trkpt>
      <trkpt lat="43.16761" lon="6.50491">
        <ele>89.8</ele>
        <time>2024-02-04T13:43:57Z</time>
      </trkpt>
      <trkpt lat="43.16761" lon="6.50492">
        <ele>89.6</ele>
        <time>2024-02-04T13:43:58Z</time>
      </trkpt>
      <trkpt lat="43.16761" lon="6.50493">
        <ele>89.4</ele>
        <time>2024-02-04T13:43:59Z</time>
      </trkpt>
      <trkpt lat="43.1676" lon="6.50494">
        <ele>89.1</ele>
        <time>2024-02-04T13:44:00Z</time>
      </trkpt>
      <trkpt lat="43.1676" lon="6.50495">
        <ele>88.9</ele>
        <time>2024-02-04T13:44:01Z</time>
      </trkpt>
      <trkpt lat="43.1676" lon="6.50497">
        <ele>88.6</ele>
        <time>2024-02-04T13:44:02Z</time>
      </trkpt>
      <trkpt lat="43.1676" lon="6.50498">
        <ele>88.4</ele>
        <time>2024-02-04T13:44:03Z</time>
      </trkpt>
      <trkpt lat="43.16759" lon="6.50499">
        <ele>88.3</ele>
        <time>2024-02-04T13:44:04Z</time>
      </trkpt>
      <trkpt lat="43.16759" lon="6.50501">
        <ele>88</ele>
        <time>2024-02-04T13:44:05Z</time>
      </trkpt>
      <trkpt lat="43.16758" lon="6.50502">
        <ele>87.8</ele>
        <time>2024-02-04T13:44:06Z</time>
      </trkpt>
      <trkpt lat="43.16758" lon="6.50504">
        <ele>87.6</ele>
        <time>2024-02-04T13:44:07Z</time>
      </trkpt>
      <trkpt lat="43.16757" lon="6.50505">
        <ele>87.4</ele>
        <time>2024-02-04T13:44:08Z</time>
      </trkpt>
      <trkpt lat="43.16756" lon="6.50506">
        <ele>87.2</ele>
        <time>2024-02-04T13:44:09Z</time>
      </trkpt>
      <trkpt lat="43.16756" lon="6.50508">
        <ele>87</ele>
        <time>2024-02-04T13:44:10Z</time>
      </trkpt>
      <trkpt lat="43.16755" lon="6.5051">
        <ele>86.8</ele>
        <time>2024-02-04T13:44:11Z</time>
      </trkpt>
      <trkpt lat="43.16755" lon="6.50511">
        <ele>86.6</ele>
        <time>2024-02-04T13:44:12Z</time>
      </trkpt>
      <trkpt lat="43.16755" lon="6.50512">
        <ele>86.3</ele>
        <time>2024-02-04T13:44:13Z</time>
      </trkpt>
      <trkpt lat="43.16754" lon="6.50514">
        <ele>86.1</ele>
        <time>2024-02-04T13:44:14Z</time>
      </trkpt>
      <trkpt lat="43.16754" lon="6.50515">
        <ele>85.9</ele>
        <time>2024-02-04T13:44:15Z</time>
      </trkpt>
      <trkpt lat="43.16753" lon="6.50516">
        <ele>85.6</ele>
        <time>2024-02-04T13:44:16Z</time>
      </trkpt>
      <trkpt lat="43.16752" lon="6.50517">
        <ele>85.4</ele>
        <time>2024-02-04T13:44:17Z</time>
      </trkpt>
      <trkpt lat="43.16751" lon="6.50518">
        <ele>85.3</ele>
        <time>2024-02-04T13:44:18Z</time>
      </trkpt>
      <trkpt lat="43.1675" lon="6.50519">
        <ele>85.2</ele>
        <time>2024-02-04T13:44:19Z</time>
      </trkpt>
      <trkpt lat="43.16749" lon="6.5052">
        <ele>85.1</ele>
        <time>2024-02-04T13:44:20Z</time>
      </trkpt>
      <trkpt lat="43.16748" lon="6.5052">
        <ele>85</ele>
        <time>2024-02-04T13:44:21Z</time>
      </trkpt>
      <trkpt lat="43.16748" lon="6.50521">
        <ele>84.7</ele>
        <time>2024-02-04T13:44:22Z</time>
      </trkpt>
      <trkpt lat="43.16747" lon="6.50522">
        <ele>84.6</ele>
        <time>2024-02-04T13:44:23Z</time>
      </trkpt>
      <trkpt lat="43.16746" lon="6.50523">
        <ele>84.4</ele>
        <time>2024-02-04T13:44:24Z</time>
      </trkpt>
      <trkpt lat="43.16746" lon="6.50523">
        <ele>84.2</ele>
        <time>2024-02-04T13:44:25Z</time>
      </trkpt>
      <trkpt lat="43.16745" lon="6.50524">
        <ele>84</ele>
        <time>2024-02-04T13:44:26Z</time>
      </trkpt>
      <trkpt lat="43.16745" lon="6.50524">
        <ele>83.9</ele>
        <time>2024-02-04T13:44:27Z</time>
      </trkpt>
      <trkpt lat="43.16744" lon="6.50525">
        <ele>83.7</ele>
        <time>2024-02-04T13:44:28Z</time>
      </trkpt>
      <trkpt lat="43.16744" lon="6.50526">
        <ele>83.6</ele>
        <time>2024-02-04T13:44:29Z</time>
      </trkpt>
      <trkpt lat="43.16743" lon="6.50526">
        <ele>83.5</ele>
        <time>2024-02-04T13:44:30Z</time>
      </trkpt>
      <trkpt lat="43.16743" lon="6.50527">
        <ele>83.4</ele>
        <time>2024-02-04T13:44:31Z</time>
      </trkpt>
      <trkpt lat="43.16742" lon="6.50528">
        <ele>83.2</ele>
        <time>2024-02-04T13:44:32Z</time>
      </trkpt>
      <trkpt lat="43.16742" lon="6.50529">
        <ele>83.1</ele>
        <time>2024-02-04T13:44:33Z</time>
      </trkpt>
      <trkpt lat="43.16742" lon="6.50529">
        <ele>82.9</ele>
        <time>2024-02-04T13:44:34Z</time>
      </trkpt>
      <trkpt lat="43.16741" lon="6.5053">
        <ele>82.7</ele>
        <time>2024-02-04T13:44:35Z</time>
      </trkpt>
      <trkpt lat="43.1674" lon="6.5053">
        <ele>82.4</ele>
        <time>2024-02-04T13:44:36Z</time>
      </trkpt>
      <trkpt lat="43.16739" lon="6.50531">
        <ele>82.1</ele>
        <time>2024-02-04T13:44:37Z</time>
      </trkpt>
      <trkpt lat="43.16738" lon="6.50531">
        <ele>81.9</ele>
        <time>2024-02-04T13:44:38Z</time>
      </trkpt>
      <trkpt lat="43.16737" lon="6.50531">
        <ele>81.7</ele>
        <time>2024-02-04T13:44:39Z</time>
      </trkpt>
      <trkpt lat="43.16736" lon="6.50532">
        <ele>81.5</ele>
        <time>2024-02-04T13:44:40Z</time>
      </trkpt>
      <trkpt lat="43.16735" lon="6.50531">
        <ele>81.3</ele>
        <time>2024-02-04T13:44:41Z</time>
      </trkpt>
      <trkpt lat="43.16734" lon="6.50532">
        <ele>81</ele>
        <time>2024-02-04T13:44:42Z</time>
      </trkpt>
      <trkpt lat="43.16733" lon="6.50531">
        <ele>80.7</ele>
        <time>2024-02-04T13:44:43Z</time>
      </trkpt>
      <trkpt lat="43.16732" lon="6.50531">
        <ele>80.5</ele>
        <time>2024-02-04T13:44:44Z</time>
      </trkpt>
      <trkpt lat="43.16731" lon="6.50532">
        <ele>80.3</ele>
        <time>2024-02-04T13:44:45Z</time>
      </trkpt>
      <trkpt lat="43.1673" lon="6.50533">
        <ele>80.1</ele>
        <time>2024-02-04T13:44:46Z</time>
      </trkpt>
      <trkpt lat="43.16729" lon="6.50534">
        <ele>79.9</ele>
        <time>2024-02-04T13:44:47Z</time>
      </trkpt>
      <trkpt lat="43.16729" lon="6.50534">
        <ele>79.7</ele>
        <time>2024-02-04T13:44:48Z</time>
      </trkpt>
      <trkpt lat="43.16728" lon="6.50535">
        <ele>79.5</ele>
        <time>2024-02-04T13:44:49Z</time>
      </trkpt>
      <trkpt lat="43.16728" lon="6.50536">
        <ele>79.2</ele>
        <time>2024-02-04T13:44:50Z</time>
      </trkpt>
      <trkpt lat="43.16727" lon="6.50536">
        <ele>79</ele>
        <time>2024-02-04T13:44:51Z</time>
      </trkpt>
      <trkpt lat="43.16726" lon="6.50537">
        <ele>78.7</ele>
        <time>2024-02-04T13:44:52Z</time>
      </trkpt>
      <trkpt lat="43.16726" lon="6.50537">
        <ele>78.5</ele>
        <time>2024-02-04T13:44:53Z</time>
      </trkpt>
      <trkpt lat="43.16725" lon="6.50537">
        <ele>78.2</ele>
        <time>2024-02-04T13:44:54Z</time>
      </trkpt>
      <trkpt lat="43.16724" lon="6.50538">
        <ele>77.8</ele>
        <time>2024-02-04T13:44:55Z</time>
      </trkpt>
      <trkpt lat="43.16723" lon="6.50538">
        <ele>77.6</ele>
        <time>2024-02-04T13:44:56Z</time>
      </trkpt>
      <trkpt lat="43.16722" lon="6.50538">
        <ele>77.3</ele>
        <time>2024-02-04T13:44:57Z</time>
      </trkpt>
      <trkpt lat="43.16721" lon="6.50539">
        <ele>77</ele>
        <time>2024-02-04T13:44:58Z</time>
      </trkpt>
      <trkpt lat="43.1672" lon="6.50539">
        <ele>76.7</ele>
        <time>2024-02-04T13:44:59Z</time>
      </trkpt>
      <trkpt lat="43.1672" lon="6.50539">
        <ele>76.3</ele>
        <time>2024-02-04T13:45:00Z</time>
      </trkpt>
      <trkpt lat="43.16719" lon="6.50539">
        <ele>76</ele>
        <time>2024-02-04T13:45:01Z</time>
      </trkpt>
      <trkpt lat="43.16718" lon="6.50539">
        <ele>75.7</ele>
        <time>2024-02-04T13:45:02Z</time>
      </trkpt>
      <trkpt lat="43.16717" lon="6.5054">
        <ele>75.4</ele>
        <time>2024-02-04T13:45:03Z</time>
      </trkpt>
      <trkpt lat="43.16717" lon="6.50541">
        <ele>75.2</ele>
        <time>2024-02-04T13:45:04Z</time>
      </trkpt>
      <trkpt lat="43.16716" lon="6.50541">
        <ele>75</ele>
        <time>2024-02-04T13:45:05Z</time>
      </trkpt>
      <trkpt lat="43.16715" lon="6.50541">
        <ele>74.8</ele>
        <time>2024-02-04T13:45:06Z</time>
      </trkpt>
      <trkpt lat="43.16715" lon="6.50541">
        <ele>74.6</ele>
        <time>2024-02-04T13:45:07Z</time>
      </trkpt>
      <trkpt lat="43.16714" lon="6.50541">
        <ele>74.4</ele>
        <time>2024-02-04T13:45:08Z</time>
      </trkpt>
      <trkpt lat="43.16714" lon="6.50541">
        <ele>74.1</ele>
        <time>2024-02-04T13:45:09Z</time>
      </trkpt>
      <trkpt lat="43.16713" lon="6.50542">
        <ele>73.9</ele>
        <time>2024-02-04T13:45:10Z</time>
      </trkpt>
      <trkpt lat="43.16712" lon="6.50542">
        <ele>73.7</ele>
        <time>2024-02-04T13:45:11Z</time>
      </trkpt>
      <trkpt lat="43.16711" lon="6.50542">
        <ele>73.5</ele>
        <time>2024-02-04T13:45:12Z</time>
      </trkpt>
      <trkpt lat="43.1671" lon="6.50542">
        <ele>73.3</ele>
        <time>2024-02-04T13:45:13Z</time>
      </trkpt>
      <trkpt lat="43.1671" lon="6.50543">
        <ele>73.1</ele>
        <time>2024-02-04T13:45:14Z</time>
      </trkpt>
      <trkpt lat="43.16709" lon="6.50543">
        <ele>72.9</ele>
        <time>2024-02-04T13:45:15Z</time>
      </trkpt>
      <trkpt lat="43.16708" lon="6.50543">
        <ele>72.7</ele>
        <time>2024-02-04T13:45:16Z</time>
      </trkpt>
      <trkpt lat="43.16708" lon="6.50544">
        <ele>72.5</ele>
        <time>2024-02-04T13:45:17Z</time>
      </trkpt>
      <trkpt lat="43.16707" lon="6.50544">
        <ele>72.3</ele>
        <time>2024-02-04T13:45:18Z</time>
      </trkpt>
      <trkpt lat="43.16706" lon="6.50545">
        <ele>72</ele>
        <time>2024-02-04T13:45:19Z</time>
      </trkpt>
      <trkpt lat="43.16705" lon="6.50545">
        <ele>71.8</ele>
        <time>2024-02-04T13:45:20Z</time>
      </trkpt>
      <trkpt lat="43.16705" lon="6.50546">
        <ele>71.6</ele>
        <time>2024-02-04T13:45:21Z</time>
      </trkpt>
      <trkpt lat="43.16704" lon="6.50546">
        <ele>71.4</ele>
        <time>2024-02-04T13:45:22Z</time>
      </trkpt>
      <trkpt lat="43.16704" lon="6.50547">
        <ele>71.3</ele>
        <time>2024-02-04T13:45:23Z</time>
      </trkpt>
      <trkpt lat="43.16703" lon="6.50548">
        <ele>71.1</ele>
        <time>2024-02-04T13:45:24Z</time>
      </trkpt>
      <trkpt lat="43.16703" lon="6.50548">
        <ele>70.9</ele>
        <time>2024-02-04T13:45:25Z</time>
      </trkpt>
      <trkpt lat="43.16702" lon="6.50548">
        <ele>70.7</ele>
        <time>2024-02-04T13:45:26Z</time>
      </trkpt>
      <trkpt lat="43.16701" lon="6.50549">
        <ele>70.5</ele>
        <time>2024-02-04T13:45:27Z</time>
      </trkpt>
      <trkpt lat="43.167" lon="6.50549">
        <ele>70.3</ele>
        <time>2024-02-04T13:45:28Z</time>
      </trkpt>
      <trkpt lat="43.167" lon="6.50549">
        <ele>70.2</ele>
        <time>2024-02-04T13:45:29Z</time>
      </trkpt>
      <trkpt lat="43.16699" lon="6.50549">
        <ele>70</ele>
        <time>2024-02-04T13:45:30Z</time>
      </trkpt>
      <trkpt lat="43.16698" lon="6.50549">
        <ele>69.9</ele>
        <time>2024-02-04T13:45:31Z</time>
      </trkpt>
      <trkpt lat="43.16697" lon="6.5055">
        <ele>69.7</ele>
        <time>2024-02-04T13:45:32Z</time>
      </trkpt>
      <trkpt lat="43.16696" lon="6.5055">
        <ele>69.4</ele>
        <time>2024-02-04T13:45:33Z</time>
      </trkpt>
      <trkpt lat="43.16696" lon="6.50549">
        <ele>69.2</ele>
        <time>2024-02-04T13:45:34Z</time>
      </trkpt>
      <trkpt lat="43.16695" lon="6.50548">
        <ele>69</ele>
        <time>2024-02-04T13:45:35Z</time>
      </trkpt>
      <trkpt lat="43.16694" lon="6.50548">
        <ele>68.7</ele>
        <time>2024-02-04T13:45:36Z</time>
      </trkpt>
      <trkpt lat="43.16694" lon="6.50547">
        <ele>68.6</ele>
        <time>2024-02-04T13:45:37Z</time>
      </trkpt>
      <trkpt lat="43.16693" lon="6.50547">
        <ele>68.4</ele>
        <time>2024-02-04T13:45:38Z</time>
      </trkpt>
      <trkpt lat="43.16692" lon="6.50546">
        <ele>68.1</ele>
        <time>2024-02-04T13:45:39Z</time>
      </trkpt>
      <trkpt lat="43.16692" lon="6.50546">
        <ele>67.9</ele>
        <time>2024-02-04T13:45:40Z</time>
      </trkpt>
      <trkpt lat="43.16691" lon="6.50546">
        <ele>67.8</ele>
        <time>2024-02-04T13:45:41Z</time>
      </trkpt>
      <trkpt lat="43.16691" lon="6.50545">
        <ele>67.7</ele>
        <time>2024-02-04T13:45:42Z</time>
      </trkpt>
      <trkpt lat="43.16691" lon="6.50545">
        <ele>67.6</ele>
        <time>2024-02-04T13:45:43Z</time>
      </trkpt>
      <trkpt lat="43.16691" lon="6.50545">
        <ele>67.5</ele>
        <time>2024-02-04T13:45:44Z</time>
      </trkpt>
      <trkpt lat="43.16691" lon="6.50545">
        <ele>67.3</ele>
        <time>2024-02-04T13:45:45Z</time>
      </trkpt>
      <trkpt lat="43.1669" lon="6.50545">
        <ele>67.2</ele>
        <time>2024-02-04T13:45:46Z</time>
      </trkpt>
      <trkpt lat="43.16689" lon="6.50545">
        <ele>67.1</ele>
        <time>2024-02-04T13:45:47Z</time>
      </trkpt>
      <trkpt lat="43.16689" lon="6.50544">
        <ele>67.1</ele>
        <time>2024-02-04T13:45:48Z</time>
      </trkpt>
      <trkpt lat="43.16689" lon="6.50544">
        <ele>67</ele>
        <time>2024-02-04T13:45:49Z</time>
      </trkpt>
      <trkpt lat="43.16688" lon="6.50544">
        <ele>66.8</ele>
        <time>2024-02-04T13:45:50Z</time>
      </trkpt>
      <trkpt lat="43.16688" lon="6.50544">
        <ele>66.6</ele>
        <time>2024-02-04T13:45:51Z</time>
      </trkpt>
      <trkpt lat="43.16687" lon="6.50543">
        <ele>66.5</ele>
        <time>2024-02-04T13:45:52Z</time>
      </trkpt>
      <trkpt lat="43.16685" lon="6.50543">
        <ele>66.2</ele>
        <time>2024-02-04T13:45:53Z</time>
      </trkpt>
      <trkpt lat="43.16685" lon="6.50543">
        <ele>65.9</ele>
        <time>2024-02-04T13:45:54Z</time>
      </trkpt>
      <trkpt lat="43.16683" lon="6.50543">
        <ele>65.7</ele>
        <time>2024-02-04T13:45:55Z</time>
      </trkpt>
      <trkpt lat="43.16683" lon="6.50544">
        <ele>65.5</ele>
        <time>2024-02-04T13:45:56Z</time>
      </trkpt>
      <trkpt lat="43.16682" lon="6.50545">
        <ele>65.3</ele>
        <time>2024-02-04T13:45:57Z</time>
      </trkpt>
      <trkpt lat="43.16682" lon="6.50546">
        <ele>65.2</ele>
        <time>2024-02-04T13:45:58Z</time>
      </trkpt>
      <trkpt lat="43.16681" lon="6.50547">
        <ele>65.1</ele>
        <time>2024-02-04T13:45:59Z</time>
      </trkpt>
      <trkpt lat="43.16681" lon="6.50547">
        <ele>65</ele>
        <time>2024-02-04T13:46:00Z</time>
      </trkpt>
      <trkpt lat="43.1668" lon="6.50548">
        <ele>64.9</ele>
        <time>2024-02-04T13:46:01Z</time>
      </trkpt>
      <trkpt lat="43.1668" lon="6.50549">
        <ele>64.8</ele>
        <time>2024-02-04T13:46:02Z</time>
      </trkpt>
      <trkpt lat="43.16679" lon="6.5055">
        <ele>64.7</ele>
        <time>2024-02-04T13:46:03Z</time>
      </trkpt>
      <trkpt lat="43.16679" lon="6.50551">
        <ele>64.6</ele>
        <time>2024-02-04T13:46:04Z</time>
      </trkpt>
      <trkpt lat="43.16679" lon="6.50552">
        <ele>64.5</ele>
        <time>2024-02-04T13:46:05Z</time>
      </trkpt>
      <trkpt lat="43.16678" lon="6.50552">
        <ele>64.4</ele>
        <time>2024-02-04T13:46:06Z</time>
      </trkpt>
      <trkpt lat="43.16678" lon="6.50553">
        <ele>64.3</ele>
        <time>2024-02-04T13:46:07Z</time>
      </trkpt>
      <trkpt lat="43.16677" lon="6.50554">
        <ele>64.1</ele>
        <time>2024-02-04T13:46:08Z</time>
      </trkpt>
      <trkpt lat="43.16677" lon="6.50555">
        <ele>64</ele>
        <time>2024-02-04T13:46:09Z</time>
      </trkpt>
      <trkpt lat="43.16677" lon="6.50555">
        <ele>63.9</ele>
        <time>2024-02-04T13:46:10Z</time>
      </trkpt>
      <trkpt lat="43.16677" lon="6.50554">
        <ele>63.9</ele>
        <time>2024-02-04T13:46:11Z</time>
      </trkpt>
      <trkpt lat="43.16677" lon="6.50554">
        <ele>63.8</ele>
        <time>2024-02-04T13:46:12Z</time>
      </trkpt>
      <trkpt lat="43.16677" lon="6.50554">
        <ele>63.7</ele>
        <time>2024-02-04T13:46:13Z</time>
      </trkpt>
      <trkpt lat="43.16677" lon="6.50554">
        <ele>63.7</ele>
        <time>2024-02-04T13:46:14Z</time>
      </trkpt>
      <trkpt lat="43.16677" lon="6.50554">
        <ele>63.7</ele>
        <time>2024-02-04T13:46:15Z</time>
      </trkpt>
      <trkpt lat="43.16677" lon="6.50554">
        <ele>63.7</ele>
        <time>2024-02-04T13:46:16Z</time>
      </trkpt>
      <trkpt lat="43.16677" lon="6.50554">
        <ele>63.7</ele>
        <time>2024-02-04T13:46:17Z</time>
      </trkpt>
      <trkpt lat="43.16677" lon="6.50554">
        <ele>63.6</ele>
        <time>2024-02-04T13:46:18Z</time>
      </trkpt>
      <trkpt lat="43.16678" lon="6.50553">
        <ele>63.6</ele>
        <time>2024-02-04T13:46:19Z</time>
      </trkpt>
      <trkpt lat="43.16677" lon="6.50553">
        <ele>63.6</ele>
        <time>2024-02-04T13:46:20Z</time>
      </trkpt>
      <trkpt lat="43.16677" lon="6.50553">
        <ele>63.6</ele>
        <time>2024-02-04T13:46:21Z</time>
      </trkpt>
      <trkpt lat="43.16677" lon="6.50552">
        <ele>63.6</ele>
        <time>2024-02-04T13:46:22Z</time>
      </trkpt>
      <trkpt lat="43.16676" lon="6.50551">
        <ele>63.6</ele>
        <time>2024-02-04T13:46:23Z</time>
      </trkpt>
      <trkpt lat="43.16676" lon="6.5055">
        <ele>63.6</ele>
        <time>2024-02-04T13:46:24Z</time>
      </trkpt>
      <trkpt lat="43.16676" lon="6.5055">
        <ele>63.5</ele>
        <time>2024-02-04T13:46:25Z</time>
      </trkpt>
      <trkpt lat="43.16676" lon="6.50549">
        <ele>63.5</ele>
        <time>2024-02-04T13:46:26Z</time>
      </trkpt>
      <trkpt lat="43.16675" lon="6.50548">
        <ele>63.5</ele>
        <time>2024-02-04T13:46:27Z</time>
      </trkpt>
      <trkpt lat="43.16675" lon="6.50548">
        <ele>63.4</ele>
        <time>2024-02-04T13:46:28Z</time>
      </trkpt>
      <trkpt lat="43.16675" lon="6.50548">
        <ele>63.4</ele>
        <time>2024-02-04T13:46:29Z</time>
      </trkpt>
      <trkpt lat="43.16675" lon="6.50548">
        <ele>63.3</ele>
        <time>2024-02-04T13:46:30Z</time>
      </trkpt>
      <trkpt lat="43.16675" lon="6.50548">
        <ele>63.3</ele>
        <time>2024-02-04T13:46:31Z</time>
      </trkpt>
      <trkpt lat="43.16675" lon="6.50547">
        <ele>63.2</ele>
        <time>2024-02-04T13:46:32Z</time>
      </trkpt>
      <trkpt lat="43.16675" lon="6.50547">
        <ele>63.3</ele>
        <time>2024-02-04T13:46:33Z</time>
      </trkpt>
      <trkpt lat="43.16674" lon="6.50547">
        <ele>63.3</ele>
        <time>2024-02-04T13:46:34Z</time>
      </trkpt>
      <trkpt lat="43.16674" lon="6.50547">
        <ele>63.3</ele>
        <time>2024-02-04T13:46:35Z</time>
      </trkpt>
      <trkpt lat="43.16674" lon="6.50547">
        <ele>63.3</ele>
        <time>2024-02-04T13:46:36Z</time>
      </trkpt>
      <trkpt lat="43.16674" lon="6.50547">
        <ele>63.4</ele>
        <time>2024-02-04T13:46:37Z</time>
      </trkpt>
      <trkpt lat="43.16674" lon="6.50547">
        <ele>63.5</ele>
        <time>2024-02-04T13:46:38Z</time>
      </trkpt>
      <trkpt lat="43.16674" lon="6.50547">
        <ele>63.5</ele>
        <time>2024-02-04T13:46:39Z</time>
      </trkpt>
      <trkpt lat="43.16674" lon="6.50547">
        <ele>63.6</ele>
        <time>2024-02-04T13:46:40Z</time>
      </trkpt>
      <trkpt lat="43.16674" lon="6.50547">
        <ele>63.6</ele>
        <time>2024-02-04T13:46:41Z</time>
      </trkpt>
      <trkpt lat="43.16674" lon="6.50547">
        <ele>63.6</ele>
        <time>2024-02-04T13:46:42Z</time>
      </trkpt>
      <trkpt lat="43.16674" lon="6.50547">
        <ele>63.6</ele>
        <time>2024-02-04T13:46:43Z</time>
      </trkpt>
      <trkpt lat="43.16674" lon="6.50547">
        <ele>63.6</ele>
        <time>2024-02-04T13:46:44Z</time>
      </trkpt>
      <trkpt lat="43.16674" lon="6.50547">
        <ele>63.6</ele>
        <time>2024-02-04T13:46:45Z</time>
      </trkpt>
      <trkpt lat="43.16674" lon="6.50548">
        <ele>63.6</ele>
        <time>2024-02-04T13:46:46Z</time>
      </trkpt>
      <trkpt lat="43.16674" lon="6.50548">
        <ele>63.6</ele>
        <time>2024-02-04T13:46:47Z</time>
      </trkpt>
      <trkpt lat="43.16674" lon="6.50548">
        <ele>63.7</ele>
        <time>2024-02-04T13:46:48Z</time>
      </trkpt>
      <trkpt lat="43.16674" lon="6.50548">
        <ele>63.7</ele>
        <time>2024-02-04T13:46:49Z</time>
      </trkpt>
      <trkpt lat="43.16674" lon="6.50548">
        <ele>63.7</ele>
        <time>2024-02-04T13:46:50Z</time>
      </trkpt>
      <trkpt lat="43.16674" lon="6.50548">
        <ele>63.7</ele>
        <time>2024-02-04T13:46:51Z</time>
      </trkpt>
      <trkpt lat="43.16674" lon="6.50548">
        <ele>63.6</ele>
        <time>2024-02-04T13:46:52Z</time>
      </trkpt>
      <trkpt lat="43.16674" lon="6.50548">
        <ele>63.6</ele>
        <time>2024-02-04T13:46:53Z</time>
      </trkpt>
      <trkpt lat="43.16674" lon="6.50549">
        <ele>63.6</ele>
        <time>2024-02-04T13:46:54Z</time>
      </trkpt>
      <trkpt lat="43.16674" lon="6.50549">
        <ele>63.5</ele>
        <time>2024-02-04T13:46:55Z</time>
      </trkpt>
      <trkpt lat="43.16674" lon="6.50549">
        <ele>63.5</ele>
        <time>2024-02-04T13:46:56Z</time>
      </trkpt>
      <trkpt lat="43.16674" lon="6.50549">
        <ele>63.5</ele>
        <time>2024-02-04T13:46:57Z</time>
      </trkpt>
      <trkpt lat="43.16674" lon="6.50549">
        <ele>63.6</ele>
        <time>2024-02-04T13:46:58Z</time>
      </trkpt>
      <trkpt lat="43.16674" lon="6.5055">
        <ele>63.5</ele>
        <time>2024-02-04T13:46:59Z</time>
      </trkpt>
      <trkpt lat="43.16674" lon="6.5055">
        <ele>63.4</ele>
        <time>2024-02-04T13:47:00Z</time>
      </trkpt>
      <trkpt lat="43.16674" lon="6.5055">
        <ele>63.5</ele>
        <time>2024-02-04T13:47:01Z</time>
      </trkpt>
      <trkpt lat="43.16674" lon="6.5055">
        <ele>63.5</ele>
        <time>2024-02-04T13:47:02Z</time>
      </trkpt>
      <trkpt lat="43.16674" lon="6.50549">
        <ele>63.5</ele>
        <time>2024-02-04T13:47:03Z</time>
      </trkpt>
      <trkpt lat="43.16674" lon="6.50549">
        <ele>63.5</ele>
        <time>2024-02-04T13:47:04Z</time>
      </trkpt>
      <trkpt lat="43.16674" lon="6.50549">
        <ele>63.5</ele>
        <time>2024-02-04T13:47:05Z</time>
      </trkpt>
      <trkpt lat="43.16673" lon="6.50549">
        <ele>63.5</ele>
        <time>2024-02-04T13:47:06Z</time>
      </trkpt>
      <trkpt lat="43.16673" lon="6.50549">
        <ele>63.5</ele>
        <time>2024-02-04T13:47:07Z</time>
      </trkpt>
      <trkpt lat="43.16673" lon="6.5055">
        <ele>63.5</ele>
        <time>2024-02-04T13:47:08Z</time>
      </trkpt>
      <trkpt lat="43.16673" lon="6.5055">
        <ele>63.5</ele>
        <time>2024-02-04T13:47:09Z</time>
      </trkpt>
      <trkpt lat="43.16673" lon="6.5055">
        <ele>63.4</ele>
        <time>2024-02-04T13:47:10Z</time>
      </trkpt>
      <trkpt lat="43.16673" lon="6.5055">
        <ele>63.4</ele>
        <time>2024-02-04T13:47:11Z</time>
      </trkpt>
      <trkpt lat="43.16672" lon="6.5055">
        <ele>63.4</ele>
        <time>2024-02-04T13:47:12Z</time>
      </trkpt>
      <trkpt lat="43.16672" lon="6.50549">
        <ele>63.3</ele>
        <time>2024-02-04T13:47:13Z</time>
      </trkpt>
      <trkpt lat="43.16672" lon="6.50549">
        <ele>63.3</ele>
        <time>2024-02-04T13:47:14Z</time>
      </trkpt>
      <trkpt lat="43.16672" lon="6.50549">
        <ele>63.4</ele>
        <time>2024-02-04T13:47:15Z</time>
      </trkpt>
      <trkpt lat="43.16672" lon="6.5055">
        <ele>63.3</ele>
        <time>2024-02-04T13:47:16Z</time>
      </trkpt>
      <trkpt lat="43.16672" lon="6.5055">
        <ele>63.2</ele>
        <time>2024-02-04T13:47:17Z</time>
      </trkpt>
      <trkpt lat="43.16672" lon="6.5055">
        <ele>63.1</ele>
        <time>2024-02-04T13:47:18Z</time>
      </trkpt>
      <trkpt lat="43.16671" lon="6.5055">
        <ele>63.2</ele>
        <time>2024-02-04T13:47:19Z</time>
      </trkpt>
      <trkpt lat="43.16671" lon="6.50551">
        <ele>63.2</ele>
        <time>2024-02-04T13:47:20Z</time>
      </trkpt>
      <trkpt lat="43.16671" lon="6.50551">
        <ele>63.1</ele>
        <time>2024-02-04T13:47:21Z</time>
      </trkpt>
      <trkpt lat="43.1667" lon="6.50551">
        <ele>63</ele>
        <time>2024-02-04T13:47:22Z</time>
      </trkpt>
      <trkpt lat="43.16669" lon="6.50552">
        <ele>63</ele>
        <time>2024-02-04T13:47:23Z</time>
      </trkpt>
      <trkpt lat="43.16669" lon="6.50552">
        <ele>63</ele>
        <time>2024-02-04T13:47:24Z</time>
      </trkpt>
      <trkpt lat="43.16668" lon="6.50553">
        <ele>62.9</ele>
        <time>2024-02-04T13:47:25Z</time>
      </trkpt>
      <trkpt lat="43.16668" lon="6.50553">
        <ele>62.9</ele>
        <time>2024-02-04T13:47:26Z</time>
      </trkpt>
      <trkpt lat="43.16668" lon="6.50553">
        <ele>62.8</ele>
        <time>2024-02-04T13:47:27Z</time>
      </trkpt>
      <trkpt lat="43.16668" lon="6.50554">
        <ele>62.7</ele>
        <time>2024-02-04T13:47:28Z</time>
      </trkpt>
      <trkpt lat="43.16668" lon="6.50554">
        <ele>62.6</ele>
        <time>2024-02-04T13:47:29Z</time>
      </trkpt>
      <trkpt lat="43.16667" lon="6.50555">
        <ele>62.5</ele>
        <time>2024-02-04T13:47:30Z</time>
      </trkpt>
      <trkpt lat="43.16667" lon="6.50556">
        <ele>62.5</ele>
        <time>2024-02-04T13:47:31Z</time>
      </trkpt>
      <trkpt lat="43.16666" lon="6.50556">
        <ele>62.4</ele>
        <time>2024-02-04T13:47:32Z</time>
      </trkpt>
      <trkpt lat="43.16666" lon="6.50557">
        <ele>62.4</ele>
        <time>2024-02-04T13:47:33Z</time>
      </trkpt>
      <trkpt lat="43.16665" lon="6.50556">
        <ele>62.3</ele>
        <time>2024-02-04T13:47:34Z</time>
      </trkpt>
      <trkpt lat="43.16664" lon="6.50557">
        <ele>62.2</ele>
        <time>2024-02-04T13:47:35Z</time>
      </trkpt>
      <trkpt lat="43.16664" lon="6.50557">
        <ele>62</ele>
        <time>2024-02-04T13:47:36Z</time>
      </trkpt>
      <trkpt lat="43.16663" lon="6.50557">
        <ele>61.9</ele>
        <time>2024-02-04T13:47:37Z</time>
      </trkpt>
      <trkpt lat="43.16663" lon="6.50558">
        <ele>61.8</ele>
        <time>2024-02-04T13:47:38Z</time>
      </trkpt>
      <trkpt lat="43.16662" lon="6.50559">
        <ele>61.7</ele>
        <time>2024-02-04T13:47:39Z</time>
      </trkpt>
      <trkpt lat="43.16662" lon="6.50559">
        <ele>61.6</ele>
        <time>2024-02-04T13:47:40Z</time>
      </trkpt>
      <trkpt lat="43.16661" lon="6.5056">
        <ele>61.4</ele>
        <time>2024-02-04T13:47:41Z</time>
      </trkpt>
      <trkpt lat="43.16661" lon="6.50561">
        <ele>61.2</ele>
        <time>2024-02-04T13:47:42Z</time>
      </trkpt>
      <trkpt lat="43.1666" lon="6.50561">
        <ele>61.1</ele>
        <time>2024-02-04T13:47:43Z</time>
      </trkpt>
      <trkpt lat="43.16659" lon="6.50562">
        <ele>61</ele>
        <time>2024-02-04T13:47:44Z</time>
      </trkpt>
      <trkpt lat="43.16659" lon="6.50563">
        <ele>60.9</ele>
        <time>2024-02-04T13:47:45Z</time>
      </trkpt>
      <trkpt lat="43.16659" lon="6.50563">
        <ele>60.8</ele>
        <time>2024-02-04T13:47:46Z</time>
      </trkpt>
      <trkpt lat="43.16658" lon="6.50564">
        <ele>60.6</ele>
        <time>2024-02-04T13:47:47Z</time>
      </trkpt>
      <trkpt lat="43.16658" lon="6.50565">
        <ele>60.5</ele>
        <time>2024-02-04T13:47:48Z</time>
      </trkpt>
      <trkpt lat="43.16659" lon="6.50566">
        <ele>60.3</ele>
        <time>2024-02-04T13:47:49Z</time>
      </trkpt>
      <trkpt lat="43.16659" lon="6.50567">
        <ele>60.3</ele>
        <time>2024-02-04T13:47:50Z</time>
      </trkpt>
      <trkpt lat="43.1666" lon="6.50567">
        <ele>60.3</ele>
        <time>2024-02-04T13:47:51Z</time>
      </trkpt>
      <trkpt lat="43.16661" lon="6.50567">
        <ele>60.2</ele>
        <time>2024-02-04T13:47:52Z</time>
      </trkpt>
      <trkpt lat="43.16661" lon="6.50568">
        <ele>60.1</ele>
        <time>2024-02-04T13:47:53Z</time>
      </trkpt>
      <trkpt lat="43.16661" lon="6.50568">
        <ele>60</ele>
        <time>2024-02-04T13:47:54Z</time>
      </trkpt>
      <trkpt lat="43.16661" lon="6.50568">
        <ele>60</ele>
        <time>2024-02-04T13:47:55Z</time>
      </trkpt>
      <trkpt lat="43.16661" lon="6.50568">
        <ele>60</ele>
        <time>2024-02-04T13:47:56Z</time>
      </trkpt>
      <trkpt lat="43.16661" lon="6.50568">
        <ele>60</ele>
        <time>2024-02-04T13:47:57Z</time>
      </trkpt>
      <trkpt lat="43.16661" lon="6.50568">
        <ele>60</ele>
        <time>2024-02-04T13:47:58Z</time>
      </trkpt>
      <trkpt lat="43.16661" lon="6.50568">
        <ele>60.1</ele>
        <time>2024-02-04T13:47:59Z</time>
      </trkpt>
      <trkpt lat="43.16661" lon="6.50568">
        <ele>60.1</ele>
        <time>2024-02-04T13:48:00Z</time>
      </trkpt>
      <trkpt lat="43.16661" lon="6.50567">
        <ele>60.2</ele>
        <time>2024-02-04T13:48:01Z</time>
      </trkpt>
      <trkpt lat="43.16661" lon="6.50567">
        <ele>60.3</ele>
        <time>2024-02-04T13:48:02Z</time>
      </trkpt>
      <trkpt lat="43.16661" lon="6.50567">
        <ele>60.3</ele>
        <time>2024-02-04T13:48:03Z</time>
      </trkpt>
      <trkpt lat="43.16661" lon="6.50567">
        <ele>60.3</ele>
        <time>2024-02-04T13:48:04Z</time>
      </trkpt>
      <trkpt lat="43.16661" lon="6.50567">
        <ele>60.3</ele>
        <time>2024-02-04T13:48:05Z</time>
      </trkpt>
      <trkpt lat="43.16661" lon="6.50567">
        <ele>60.2</ele>
        <time>2024-02-04T13:48:06Z</time>
      </trkpt>
      <trkpt lat="43.16661" lon="6.50567">
        <ele>60.2</ele>
        <time>2024-02-04T13:48:07Z</time>
      </trkpt>
      <trkpt lat="43.16661" lon="6.50567">
        <ele>60.2</ele>
        <time>2024-02-04T13:48:08Z</time>
      </trkpt>
      <trkpt lat="43.16661" lon="6.50566">
        <ele>60.2</ele>
        <time>2024-02-04T13:48:09Z</time>
      </trkpt>
      <trkpt lat="43.16661" lon="6.50566">
        <ele>60.3</ele>
        <time>2024-02-04T13:48:10Z</time>
      </trkpt>
      <trkpt lat="43.16661" lon="6.50566">
        <ele>60.2</ele>
        <time>2024-02-04T13:48:11Z</time>
      </trkpt>
      <trkpt lat="43.16661" lon="6.50566">
        <ele>60.3</ele>
        <time>2024-02-04T13:48:12Z</time>
      </trkpt>
      <trkpt lat="43.1666" lon="6.50567">
        <ele>60.2</ele>
        <time>2024-02-04T13:48:13Z</time>
      </trkpt>
      <trkpt lat="43.1666" lon="6.50568">
        <ele>60.2</ele>
        <time>2024-02-04T13:48:14Z</time>
      </trkpt>
      <trkpt lat="43.1666" lon="6.50569">
        <ele>60.2</ele>
        <time>2024-02-04T13:48:15Z</time>
      </trkpt>
      <trkpt lat="43.1666" lon="6.5057">
        <ele>60.1</ele>
        <time>2024-02-04T13:48:16Z</time>
      </trkpt>
      <trkpt lat="43.16659" lon="6.50571">
        <ele>59.9</ele>
        <time>2024-02-04T13:48:17Z</time>
      </trkpt>
      <trkpt lat="43.16658" lon="6.50571">
        <ele>59.9</ele>
        <time>2024-02-04T13:48:18Z</time>
      </trkpt>
      <trkpt lat="43.16657" lon="6.50573">
        <ele>59.8</ele>
        <time>2024-02-04T13:48:19Z</time>
      </trkpt>
      <trkpt lat="43.16656" lon="6.50573">
        <ele>59.6</ele>
        <time>2024-02-04T13:48:20Z</time>
      </trkpt>
      <trkpt lat="43.16655" lon="6.50575">
        <ele>59.4</ele>
        <time>2024-02-04T13:48:21Z</time>
      </trkpt>
      <trkpt lat="43.16654" lon="6.50576">
        <ele>59.3</ele>
        <time>2024-02-04T13:48:22Z</time>
      </trkpt>
      <trkpt lat="43.16653" lon="6.50577">
        <ele>59.2</ele>
        <time>2024-02-04T13:48:23Z</time>
      </trkpt>
      <trkpt lat="43.16653" lon="6.50578">
        <ele>58.9</ele>
        <time>2024-02-04T13:48:24Z</time>
      </trkpt>
      <trkpt lat="43.16652" lon="6.5058">
        <ele>58.7</ele>
        <time>2024-02-04T13:48:25Z</time>
      </trkpt>
      <trkpt lat="43.16651" lon="6.5058">
        <ele>58.6</ele>
        <time>2024-02-04T13:48:26Z</time>
      </trkpt>
      <trkpt lat="43.16651" lon="6.50582">
        <ele>58.5</ele>
        <time>2024-02-04T13:48:27Z</time>
      </trkpt>
      <trkpt lat="43.1665" lon="6.50583">
        <ele>58.3</ele>
        <time>2024-02-04T13:48:28Z</time>
      </trkpt>
      <trkpt lat="43.16649" lon="6.50585">
        <ele>58.2</ele>
        <time>2024-02-04T13:48:29Z</time>
      </trkpt>
      <trkpt lat="43.16648" lon="6.50586">
        <ele>58</ele>
        <time>2024-02-04T13:48:30Z</time>
      </trkpt>
      <trkpt lat="43.16648" lon="6.50587">
        <ele>57.8</ele>
        <time>2024-02-04T13:48:31Z</time>
      </trkpt>
      <trkpt lat="43.16648" lon="6.50589">
        <ele>57.7</ele>
        <time>2024-02-04T13:48:32Z</time>
      </trkpt>
      <trkpt lat="43.16648" lon="6.5059">
        <ele>57.6</ele>
        <time>2024-02-04T13:48:33Z</time>
      </trkpt>
      <trkpt lat="43.16647" lon="6.50592">
        <ele>57.3</ele>
        <time>2024-02-04T13:48:34Z</time>
      </trkpt>
      <trkpt lat="43.16647" lon="6.50593">
        <ele>57.1</ele>
        <time>2024-02-04T13:48:35Z</time>
      </trkpt>
      <trkpt lat="43.16647" lon="6.50595">
        <ele>56.9</ele>
        <time>2024-02-04T13:48:36Z</time>
      </trkpt>
      <trkpt lat="43.16647" lon="6.50596">
        <ele>56.6</ele>
        <time>2024-02-04T13:48:37Z</time>
      </trkpt>
      <trkpt lat="43.16647" lon="6.50598">
        <ele>56.3</ele>
        <time>2024-02-04T13:48:38Z</time>
      </trkpt>
      <trkpt lat="43.16646" lon="6.50599">
        <ele>56.1</ele>
        <time>2024-02-04T13:48:39Z</time>
      </trkpt>
      <trkpt lat="43.16646" lon="6.50601">
        <ele>55.9</ele>
        <time>2024-02-04T13:48:40Z</time>
      </trkpt>
      <trkpt lat="43.16646" lon="6.50602">
        <ele>55.6</ele>
        <time>2024-02-04T13:48:41Z</time>
      </trkpt>
      <trkpt lat="43.16646" lon="6.50603">
        <ele>55.3</ele>
        <time>2024-02-04T13:48:42Z</time>
      </trkpt>
      <trkpt lat="43.16645" lon="6.50604">
        <ele>55</ele>
        <time>2024-02-04T13:48:43Z</time>
      </trkpt>
      <trkpt lat="43.16645" lon="6.50605">
        <ele>54.7</ele>
        <time>2024-02-04T13:48:44Z</time>
      </trkpt>
      <trkpt lat="43.16645" lon="6.50606">
        <ele>54.5</ele>
        <time>2024-02-04T13:48:45Z</time>
      </trkpt>
      <trkpt lat="43.16645" lon="6.50606">
        <ele>54.3</ele>
        <time>2024-02-04T13:48:46Z</time>
      </trkpt>
      <trkpt lat="43.16645" lon="6.50608">
        <ele>54.2</ele>
        <time>2024-02-04T13:48:47Z</time>
      </trkpt>
      <trkpt lat="43.16645" lon="6.50609">
        <ele>53.9</ele>
        <time>2024-02-04T13:48:48Z</time>
      </trkpt>
      <trkpt lat="43.16645" lon="6.50611">
        <ele>53.8</ele>
        <time>2024-02-04T13:48:49Z</time>
      </trkpt>
      <trkpt lat="43.16645" lon="6.50612">
        <ele>53.6</ele>
        <time>2024-02-04T13:48:50Z</time>
      </trkpt>
      <trkpt lat="43.16644" lon="6.50613">
        <ele>53.4</ele>
        <time>2024-02-04T13:48:51Z</time>
      </trkpt>
      <trkpt lat="43.16644" lon="6.50614">
        <ele>53.3</ele>
        <time>2024-02-04T13:48:52Z</time>
      </trkpt>
      <trkpt lat="43.16644" lon="6.50615">
        <ele>53</ele>
        <time>2024-02-04T13:48:53Z</time>
      </trkpt>
      <trkpt lat="43.16644" lon="6.50617">
        <ele>52.9</ele>
        <time>2024-02-04T13:48:54Z</time>
      </trkpt>
      <trkpt lat="43.16643" lon="6.50618">
        <ele>52.8</ele>
        <time>2024-02-04T13:48:55Z</time>
      </trkpt>
      <trkpt lat="43.16643" lon="6.50619">
        <ele>52.6</ele>
        <time>2024-02-04T13:48:56Z</time>
      </trkpt>
      <trkpt lat="43.16643" lon="6.50621">
        <ele>52.5</ele>
        <time>2024-02-04T13:48:57Z</time>
      </trkpt>
      <trkpt lat="43.16642" lon="6.50623">
        <ele>52.3</ele>
        <time>2024-02-04T13:48:58Z</time>
      </trkpt>
      <trkpt lat="43.16641" lon="6.50625">
        <ele>52.1</ele>
        <time>2024-02-04T13:48:59Z</time>
      </trkpt>
      <trkpt lat="43.16641" lon="6.50628">
        <ele>51.9</ele>
        <time>2024-02-04T13:49:00Z</time>
      </trkpt>
      <trkpt lat="43.1664" lon="6.5063">
        <ele>51.8</ele>
        <time>2024-02-04T13:49:01Z</time>
      </trkpt>
      <trkpt lat="43.16639" lon="6.50631">
        <ele>51.6</ele>
        <time>2024-02-04T13:49:02Z</time>
      </trkpt>
      <trkpt lat="43.16639" lon="6.50633">
        <ele>51.5</ele>
        <time>2024-02-04T13:49:03Z</time>
      </trkpt>
      <trkpt lat="43.16638" lon="6.50634">
        <ele>51.3</ele>
        <time>2024-02-04T13:49:04Z</time>
      </trkpt>
      <trkpt lat="43.16638" lon="6.50635">
        <ele>51.1</ele>
        <time>2024-02-04T13:49:05Z</time>
      </trkpt>
      <trkpt lat="43.16637" lon="6.50636">
        <ele>50.9</ele>
        <time>2024-02-04T13:49:06Z</time>
      </trkpt>
      <trkpt lat="43.16637" lon="6.50638">
        <ele>50.9</ele>
        <time>2024-02-04T13:49:07Z</time>
      </trkpt>
      <trkpt lat="43.16636" lon="6.50639">
        <ele>50.8</ele>
        <time>2024-02-04T13:49:08Z</time>
      </trkpt>
      <trkpt lat="43.16635" lon="6.5064">
        <ele>50.7</ele>
        <time>2024-02-04T13:49:09Z</time>
      </trkpt>
      <trkpt lat="43.16634" lon="6.50641">
        <ele>50.7</ele>
        <time>2024-02-04T13:49:10Z</time>
      </trkpt>
      <trkpt lat="43.16633" lon="6.50641">
        <ele>50.6</ele>
        <time>2024-02-04T13:49:11Z</time>
      </trkpt>
      <trkpt lat="43.16632" lon="6.50642">
        <ele>50.6</ele>
        <time>2024-02-04T13:49:12Z</time>
      </trkpt>
      <trkpt lat="43.16632" lon="6.50643">
        <ele>50.6</ele>
        <time>2024-02-04T13:49:13Z</time>
      </trkpt>
      <trkpt lat="43.16631" lon="6.50645">
        <ele>50.4</ele>
        <time>2024-02-04T13:49:14Z</time>
      </trkpt>
      <trkpt lat="43.16631" lon="6.50646">
        <ele>50.3</ele>
        <time>2024-02-04T13:49:15Z</time>
      </trkpt>
      <trkpt lat="43.1663" lon="6.50648">
        <ele>50.2</ele>
        <time>2024-02-04T13:49:16Z</time>
      </trkpt>
      <trkpt lat="43.1663" lon="6.5065">
        <ele>50.1</ele>
        <time>2024-02-04T13:49:17Z</time>
      </trkpt>
      <trkpt lat="43.16629" lon="6.50651">
        <ele>50.1</ele>
        <time>2024-02-04T13:49:18Z</time>
      </trkpt>
      <trkpt lat="43.16629" lon="6.50653">
        <ele>50</ele>
        <time>2024-02-04T13:49:19Z</time>
      </trkpt>
      <trkpt lat="43.16628" lon="6.50654">
        <ele>50</ele>
        <time>2024-02-04T13:49:20Z</time>
      </trkpt>
      <trkpt lat="43.16627" lon="6.50655">
        <ele>50</ele>
        <time>2024-02-04T13:49:21Z</time>
      </trkpt>
      <trkpt lat="43.16627" lon="6.50656">
        <ele>50</ele>
        <time>2024-02-04T13:49:22Z</time>
      </trkpt>
      <trkpt lat="43.16627" lon="6.50657">
        <ele>49.9</ele>
        <time>2024-02-04T13:49:23Z</time>
      </trkpt>
      <trkpt lat="43.16626" lon="6.50658">
        <ele>50</ele>
        <time>2024-02-04T13:49:24Z</time>
      </trkpt>
      <trkpt lat="43.16626" lon="6.5066">
        <ele>50</ele>
        <time>2024-02-04T13:49:25Z</time>
      </trkpt>
      <trkpt lat="43.16626" lon="6.50661">
        <ele>50</ele>
        <time>2024-02-04T13:49:26Z</time>
      </trkpt>
      <trkpt lat="43.16625" lon="6.50663">
        <ele>50.1</ele>
        <time>2024-02-04T13:49:27Z</time>
      </trkpt>
      <trkpt lat="43.16625" lon="6.50664">
        <ele>50.8</ele>
        <time>2024-02-04T13:49:28Z</time>
      </trkpt>
      <trkpt lat="43.16625" lon="6.50665">
        <ele>50.5</ele>
        <time>2024-02-04T13:49:29Z</time>
      </trkpt>
      <trkpt lat="43.16625" lon="6.50667">
        <ele>50.2</ele>
        <time>2024-02-04T13:49:30Z</time>
      </trkpt>
      <trkpt lat="43.16625" lon="6.50668">
        <ele>50.2</ele>
        <time>2024-02-04T13:49:31Z</time>
      </trkpt>
      <trkpt lat="43.16625" lon="6.50669">
        <ele>50.1</ele>
        <time>2024-02-04T13:49:32Z</time>
      </trkpt>
      <trkpt lat="43.16624" lon="6.50671">
        <ele>50.1</ele>
        <time>2024-02-04T13:49:33Z</time>
      </trkpt>
      <trkpt lat="43.16623" lon="6.50672">
        <ele>49.9</ele>
        <time>2024-02-04T13:49:34Z</time>
      </trkpt>
      <trkpt lat="43.16623" lon="6.50673">
        <ele>49.9</ele>
        <time>2024-02-04T13:49:35Z</time>
      </trkpt>
      <trkpt lat="43.16623" lon="6.50675">
        <ele>49.8</ele>
        <time>2024-02-04T13:49:36Z</time>
      </trkpt>
      <trkpt lat="43.16623" lon="6.50676">
        <ele>49.8</ele>
        <time>2024-02-04T13:49:37Z</time>
      </trkpt>
      <trkpt lat="43.16623" lon="6.50677">
        <ele>49.9</ele>
        <time>2024-02-04T13:49:38Z</time>
      </trkpt>
      <trkpt lat="43.16623" lon="6.50679">
        <ele>49.9</ele>
        <time>2024-02-04T13:49:39Z</time>
      </trkpt>
      <trkpt lat="43.16623" lon="6.50682">
        <ele>49.8</ele>
        <time>2024-02-04T13:49:40Z</time>
      </trkpt>
      <trkpt lat="43.16623" lon="6.50683">
        <ele>49.8</ele>
        <time>2024-02-04T13:49:41Z</time>
      </trkpt>
      <trkpt lat="43.16622" lon="6.50685">
        <ele>49.7</ele>
        <time>2024-02-04T13:49:42Z</time>
      </trkpt>
      <trkpt lat="43.16622" lon="6.50686">
        <ele>49.7</ele>
        <time>2024-02-04T13:49:43Z</time>
      </trkpt>
      <trkpt lat="43.16622" lon="6.50687">
        <ele>49.6</ele>
        <time>2024-02-04T13:49:44Z</time>
      </trkpt>
      <trkpt lat="43.16621" lon="6.50688">
        <ele>49.5</ele>
        <time>2024-02-04T13:49:45Z</time>
      </trkpt>
      <trkpt lat="43.16621" lon="6.50689">
        <ele>49.5</ele>
        <time>2024-02-04T13:49:46Z</time>
      </trkpt>
      <trkpt lat="43.16621" lon="6.5069">
        <ele>49.4</ele>
        <time>2024-02-04T13:49:47Z</time>
      </trkpt>
      <trkpt lat="43.16621" lon="6.50691">
        <ele>49.4</ele>
        <time>2024-02-04T13:49:48Z</time>
      </trkpt>
      <trkpt lat="43.16621" lon="6.50693">
        <ele>49.3</ele>
        <time>2024-02-04T13:49:49Z</time>
      </trkpt>
      <trkpt lat="43.16621" lon="6.50695">
        <ele>49.3</ele>
        <time>2024-02-04T13:49:50Z</time>
      </trkpt>
      <trkpt lat="43.1662" lon="6.50696">
        <ele>49.3</ele>
        <time>2024-02-04T13:49:51Z</time>
      </trkpt>
      <trkpt lat="43.1662" lon="6.50698">
        <ele>49.2</ele>
        <time>2024-02-04T13:49:52Z</time>
      </trkpt>
      <trkpt lat="43.16619" lon="6.50699">
        <ele>49.2</ele>
        <time>2024-02-04T13:49:53Z</time>
      </trkpt>
      <trkpt lat="43.16619" lon="6.50701">
        <ele>49.2</ele>
        <time>2024-02-04T13:49:54Z</time>
      </trkpt>
      <trkpt lat="43.16619" lon="6.50702">
        <ele>49.2</ele>
        <time>2024-02-04T13:49:55Z</time>
      </trkpt>
      <trkpt lat="43.16619" lon="6.50704">
        <ele>49.2</ele>
        <time>2024-02-04T13:49:56Z</time>
      </trkpt>
      <trkpt lat="43.16618" lon="6.50706">
        <ele>49.2</ele>
        <time>2024-02-04T13:49:57Z</time>
      </trkpt>
      <trkpt lat="43.16617" lon="6.50707">
        <ele>49.2</ele>
        <time>2024-02-04T13:49:58Z</time>
      </trkpt>
      <trkpt lat="43.16618" lon="6.50709">
        <ele>49.1</ele>
        <time>2024-02-04T13:49:59Z</time>
      </trkpt>
      <trkpt lat="43.16617" lon="6.5071">
        <ele>49.1</ele>
        <time>2024-02-04T13:50:00Z</time>
      </trkpt>
      <trkpt lat="43.16617" lon="6.50711">
        <ele>49.1</ele>
        <time>2024-02-04T13:50:01Z</time>
      </trkpt>
      <trkpt lat="43.16617" lon="6.50712">
        <ele>49</ele>
        <time>2024-02-04T13:50:02Z</time>
      </trkpt>
      <trkpt lat="43.16617" lon="6.50712">
        <ele>49</ele>
        <time>2024-02-04T13:50:03Z</time>
      </trkpt>
      <trkpt lat="43.16617" lon="6.50712">
        <ele>49</ele>
        <time>2024-02-04T13:50:04Z</time>
      </trkpt>
      <trkpt lat="43.16617" lon="6.50713">
        <ele>48.9</ele>
        <time>2024-02-04T13:50:05Z</time>
      </trkpt>
      <trkpt lat="43.16617" lon="6.50713">
        <ele>48.9</ele>
        <time>2024-02-04T13:50:06Z</time>
      </trkpt>
      <trkpt lat="43.16617" lon="6.50714">
        <ele>48.9</ele>
        <time>2024-02-04T13:50:07Z</time>
      </trkpt>
      <trkpt lat="43.16616" lon="6.50716">
        <ele>48.9</ele>
        <time>2024-02-04T13:50:08Z</time>
      </trkpt>
      <trkpt lat="43.16616" lon="6.50717">
        <ele>48.8</ele>
        <time>2024-02-04T13:50:09Z</time>
      </trkpt>
      <trkpt lat="43.16616" lon="6.50719">
        <ele>48.8</ele>
        <time>2024-02-04T13:50:10Z</time>
      </trkpt>
      <trkpt lat="43.16616" lon="6.50721">
        <ele>48.8</ele>
        <time>2024-02-04T13:50:11Z</time>
      </trkpt>
      <trkpt lat="43.16616" lon="6.50722">
        <ele>48.7</ele>
        <time>2024-02-04T13:50:12Z</time>
      </trkpt>
      <trkpt lat="43.16616" lon="6.50724">
        <ele>48.7</ele>
        <time>2024-02-04T13:50:13Z</time>
      </trkpt>
      <trkpt lat="43.16616" lon="6.50726">
        <ele>48.6</ele>
        <time>2024-02-04T13:50:14Z</time>
      </trkpt>
      <trkpt lat="43.16616" lon="6.50728">
        <ele>48.6</ele>
        <time>2024-02-04T13:50:15Z</time>
      </trkpt>
      <trkpt lat="43.16616" lon="6.50729">
        <ele>48.5</ele>
        <time>2024-02-04T13:50:16Z</time>
      </trkpt>
      <trkpt lat="43.16616" lon="6.50731">
        <ele>48.5</ele>
        <time>2024-02-04T13:50:17Z</time>
      </trkpt>
      <trkpt lat="43.16615" lon="6.50732">
        <ele>48.5</ele>
        <time>2024-02-04T13:50:18Z</time>
      </trkpt>
      <trkpt lat="43.16616" lon="6.50734">
        <ele>48.5</ele>
        <time>2024-02-04T13:50:19Z</time>
      </trkpt>
      <trkpt lat="43.16616" lon="6.50736">
        <ele>48.5</ele>
        <time>2024-02-04T13:50:20Z</time>
      </trkpt>
      <trkpt lat="43.16616" lon="6.50738">
        <ele>48.5</ele>
        <time>2024-02-04T13:50:21Z</time>
      </trkpt>
      <trkpt lat="43.16616" lon="6.5074">
        <ele>48.5</ele>
        <time>2024-02-04T13:50:22Z</time>
      </trkpt>
      <trkpt lat="43.16616" lon="6.50742">
        <ele>48.4</ele>
        <time>2024-02-04T13:50:23Z</time>
      </trkpt>
      <trkpt lat="43.16616" lon="6.50744">
        <ele>48.4</ele>
        <time>2024-02-04T13:50:24Z</time>
      </trkpt>
      <trkpt lat="43.16616" lon="6.50746">
        <ele>48.4</ele>
        <time>2024-02-04T13:50:25Z</time>
      </trkpt>
      <trkpt lat="43.16616" lon="6.50748">
        <ele>48.2</ele>
        <time>2024-02-04T13:50:26Z</time>
      </trkpt>
      <trkpt lat="43.16616" lon="6.5075">
        <ele>48.1</ele>
        <time>2024-02-04T13:50:27Z</time>
      </trkpt>
      <trkpt lat="43.16616" lon="6.50751">
        <ele>48.1</ele>
        <time>2024-02-04T13:50:28Z</time>
      </trkpt>
      <trkpt lat="43.16617" lon="6.50753">
        <ele>48</ele>
        <time>2024-02-04T13:50:29Z</time>
      </trkpt>
      <trkpt lat="43.16617" lon="6.50754">
        <ele>48</ele>
        <time>2024-02-04T13:50:30Z</time>
      </trkpt>
      <trkpt lat="43.16617" lon="6.50756">
        <ele>47.8</ele>
        <time>2024-02-04T13:50:31Z</time>
      </trkpt>
      <trkpt lat="43.16618" lon="6.50758">
        <ele>47.8</ele>
        <time>2024-02-04T13:50:32Z</time>
      </trkpt>
      <trkpt lat="43.16619" lon="6.50759">
        <ele>47.8</ele>
        <time>2024-02-04T13:50:33Z</time>
      </trkpt>
      <trkpt lat="43.16619" lon="6.50761">
        <ele>47.8</ele>
        <time>2024-02-04T13:50:34Z</time>
      </trkpt>
      <trkpt lat="43.1662" lon="6.50763">
        <ele>47.7</ele>
        <time>2024-02-04T13:50:35Z</time>
      </trkpt>
      <trkpt lat="43.1662" lon="6.50765">
        <ele>47.6</ele>
        <time>2024-02-04T13:50:36Z</time>
      </trkpt>
      <trkpt lat="43.16621" lon="6.50767">
        <ele>47.5</ele>
        <time>2024-02-04T13:50:37Z</time>
      </trkpt>
      <trkpt lat="43.16622" lon="6.50768">
        <ele>47.5</ele>
        <time>2024-02-04T13:50:38Z</time>
      </trkpt>
      <trkpt lat="43.16623" lon="6.5077">
        <ele>47.3</ele>
        <time>2024-02-04T13:50:39Z</time>
      </trkpt>
      <trkpt lat="43.16623" lon="6.50771">
        <ele>47.2</ele>
        <time>2024-02-04T13:50:40Z</time>
      </trkpt>
      <trkpt lat="43.16623" lon="6.50773">
        <ele>47.2</ele>
        <time>2024-02-04T13:50:41Z</time>
      </trkpt>
      <trkpt lat="43.16623" lon="6.50774">
        <ele>47.1</ele>
        <time>2024-02-04T13:50:42Z</time>
      </trkpt>
      <trkpt lat="43.16624" lon="6.50776">
        <ele>47</ele>
        <time>2024-02-04T13:50:43Z</time>
      </trkpt>
      <trkpt lat="43.16625" lon="6.50777">
        <ele>47</ele>
        <time>2024-02-04T13:50:44Z</time>
      </trkpt>
      <trkpt lat="43.16626" lon="6.50778">
        <ele>47</ele>
        <time>2024-02-04T13:50:45Z</time>
      </trkpt>
      <trkpt lat="43.16627" lon="6.50779">
        <ele>47</ele>
        <time>2024-02-04T13:50:46Z</time>
      </trkpt>
      <trkpt lat="43.16628" lon="6.5078">
        <ele>47</ele>
        <time>2024-02-04T13:50:47Z</time>
      </trkpt>
      <trkpt lat="43.1663" lon="6.50782">
        <ele>47.1</ele>
        <time>2024-02-04T13:50:48Z</time>
      </trkpt>
      <trkpt lat="43.16631" lon="6.50783">
        <ele>47.1</ele>
        <time>2024-02-04T13:50:49Z</time>
      </trkpt>
      <trkpt lat="43.16632" lon="6.50784">
        <ele>47.1</ele>
        <time>2024-02-04T13:50:50Z</time>
      </trkpt>
      <trkpt lat="43.16633" lon="6.50785">
        <ele>47.1</ele>
        <time>2024-02-04T13:50:51Z</time>
      </trkpt>
      <trkpt lat="43.16634" lon="6.50786">
        <ele>47.1</ele>
        <time>2024-02-04T13:50:52Z</time>
      </trkpt>
      <trkpt lat="43.16634" lon="6.50787">
        <ele>47.1</ele>
        <time>2024-02-04T13:50:53Z</time>
      </trkpt>
      <trkpt lat="43.16636" lon="6.50787">
        <ele>47.2</ele>
        <time>2024-02-04T13:50:54Z</time>
      </trkpt>
      <trkpt lat="43.16637" lon="6.50789">
        <ele>47.2</ele>
        <time>2024-02-04T13:50:55Z</time>
      </trkpt>
      <trkpt lat="43.16638" lon="6.5079">
        <ele>47.2</ele>
        <time>2024-02-04T13:50:56Z</time>
      </trkpt>
      <trkpt lat="43.16639" lon="6.50792">
        <ele>47.2</ele>
        <time>2024-02-04T13:50:57Z</time>
      </trkpt>
      <trkpt lat="43.1664" lon="6.50793">
        <ele>47.2</ele>
        <time>2024-02-04T13:50:58Z</time>
      </trkpt>
      <trkpt lat="43.16641" lon="6.50794">
        <ele>47.3</ele>
        <time>2024-02-04T13:50:59Z</time>
      </trkpt>
      <trkpt lat="43.16642" lon="6.50795">
        <ele>47.2</ele>
        <time>2024-02-04T13:51:00Z</time>
      </trkpt>
      <trkpt lat="43.16644" lon="6.50796">
        <ele>47.1</ele>
        <time>2024-02-04T13:51:01Z</time>
      </trkpt>
      <trkpt lat="43.16644" lon="6.50798">
        <ele>47</ele>
        <time>2024-02-04T13:51:02Z</time>
      </trkpt>
      <trkpt lat="43.16645" lon="6.50799">
        <ele>47</ele>
        <time>2024-02-04T13:51:03Z</time>
      </trkpt>
      <trkpt lat="43.16646" lon="6.508">
        <ele>47</ele>
        <time>2024-02-04T13:51:04Z</time>
      </trkpt>
      <trkpt lat="43.16647" lon="6.50801">
        <ele>47</ele>
        <time>2024-02-04T13:51:05Z</time>
      </trkpt>
      <trkpt lat="43.16648" lon="6.50802">
        <ele>46.9</ele>
        <time>2024-02-04T13:51:06Z</time>
      </trkpt>
      <trkpt lat="43.16649" lon="6.50803">
        <ele>47.1</ele>
        <time>2024-02-04T13:51:07Z</time>
      </trkpt>
      <trkpt lat="43.16649" lon="6.50804">
        <ele>47.2</ele>
        <time>2024-02-04T13:51:08Z</time>
      </trkpt>
      <trkpt lat="43.1665" lon="6.50805">
        <ele>47.2</ele>
        <time>2024-02-04T13:51:09Z</time>
      </trkpt>
      <trkpt lat="43.1665" lon="6.50807">
        <ele>47.2</ele>
        <time>2024-02-04T13:51:10Z</time>
      </trkpt>
      <trkpt lat="43.1665" lon="6.5081">
        <ele>47.1</ele>
        <time>2024-02-04T13:51:11Z</time>
      </trkpt>
      <trkpt lat="43.16651" lon="6.50811">
        <ele>47.1</ele>
        <time>2024-02-04T13:51:12Z</time>
      </trkpt>
      <trkpt lat="43.16652" lon="6.50812">
        <ele>47</ele>
        <time>2024-02-04T13:51:13Z</time>
      </trkpt>
      <trkpt lat="43.16652" lon="6.50814">
        <ele>46.9</ele>
        <time>2024-02-04T13:51:14Z</time>
      </trkpt>
      <trkpt lat="43.16653" lon="6.50815">
        <ele>46.8</ele>
        <time>2024-02-04T13:51:15Z</time>
      </trkpt>
      <trkpt lat="43.16653" lon="6.50816">
        <ele>46.8</ele>
        <time>2024-02-04T13:51:16Z</time>
      </trkpt>
      <trkpt lat="43.16654" lon="6.50818">
        <ele>46.8</ele>
        <time>2024-02-04T13:51:17Z</time>
      </trkpt>
      <trkpt lat="43.16654" lon="6.50819">
        <ele>46.7</ele>
        <time>2024-02-04T13:51:18Z</time>
      </trkpt>
      <trkpt lat="43.16655" lon="6.50821">
        <ele>46.7</ele>
        <time>2024-02-04T13:51:19Z</time>
      </trkpt>
      <trkpt lat="43.16656" lon="6.50821">
        <ele>46.7</ele>
        <time>2024-02-04T13:51:20Z</time>
      </trkpt>
      <trkpt lat="43.16657" lon="6.50823">
        <ele>46.6</ele>
        <time>2024-02-04T13:51:21Z</time>
      </trkpt>
      <trkpt lat="43.16657" lon="6.50824">
        <ele>46.6</ele>
        <time>2024-02-04T13:51:22Z</time>
      </trkpt>
      <trkpt lat="43.16658" lon="6.50825">
        <ele>46.6</ele>
        <time>2024-02-04T13:51:23Z</time>
      </trkpt>
      <trkpt lat="43.16658" lon="6.50827">
        <ele>46.4</ele>
        <time>2024-02-04T13:51:24Z</time>
      </trkpt>
      <trkpt lat="43.16658" lon="6.50828">
        <ele>46.3</ele>
        <time>2024-02-04T13:51:25Z</time>
      </trkpt>
      <trkpt lat="43.16658" lon="6.50829">
        <ele>46.2</ele>
        <time>2024-02-04T13:51:26Z</time>
      </trkpt>
      <trkpt lat="43.16658" lon="6.5083">
        <ele>46.2</ele>
        <time>2024-02-04T13:51:27Z</time>
      </trkpt>
      <trkpt lat="43.16657" lon="6.50831">
        <ele>46.2</ele>
        <time>2024-02-04T13:51:28Z</time>
      </trkpt>
      <trkpt lat="43.16657" lon="6.50831">
        <ele>46.2</ele>
        <time>2024-02-04T13:51:29Z</time>
      </trkpt>
      <trkpt lat="43.16657" lon="6.50831">
        <ele>46.2</ele>
        <time>2024-02-04T13:51:30Z</time>
      </trkpt>
      <trkpt lat="43.16657" lon="6.50832">
        <ele>46.2</ele>
        <time>2024-02-04T13:51:31Z</time>
      </trkpt>
      <trkpt lat="43.16657" lon="6.50833">
        <ele>46.2</ele>
        <time>2024-02-04T13:51:32Z</time>
      </trkpt>
      <trkpt lat="43.16656" lon="6.50834">
        <ele>46.3</ele>
        <time>2024-02-04T13:51:33Z</time>
      </trkpt>
      <trkpt lat="43.16656" lon="6.50836">
        <ele>46.2</ele>
        <time>2024-02-04T13:51:34Z</time>
      </trkpt>
      <trkpt lat="43.16656" lon="6.50837">
        <ele>46.3</ele>
        <time>2024-02-04T13:51:35Z</time>
      </trkpt>
      <trkpt lat="43.16656" lon="6.50839">
        <ele>46.3</ele>
        <time>2024-02-04T13:51:36Z</time>
      </trkpt>
      <trkpt lat="43.16656" lon="6.5084">
        <ele>46.3</ele>
        <time>2024-02-04T13:51:37Z</time>
      </trkpt>
      <trkpt lat="43.16655" lon="6.50842">
        <ele>46.2</ele>
        <time>2024-02-04T13:51:38Z</time>
      </trkpt>
      <trkpt lat="43.16655" lon="6.50843">
        <ele>46.1</ele>
        <time>2024-02-04T13:51:39Z</time>
      </trkpt>
      <trkpt lat="43.16654" lon="6.50844">
        <ele>46.1</ele>
        <time>2024-02-04T13:51:40Z</time>
      </trkpt>
      <trkpt lat="43.16653" lon="6.50845">
        <ele>46.1</ele>
        <time>2024-02-04T13:51:41Z</time>
      </trkpt>
      <trkpt lat="43.16652" lon="6.50846">
        <ele>46.2</ele>
        <time>2024-02-04T13:51:42Z</time>
      </trkpt>
      <trkpt lat="43.16652" lon="6.50847">
        <ele>46.2</ele>
        <time>2024-02-04T13:51:43Z</time>
      </trkpt>
      <trkpt lat="43.1665" lon="6.50847">
        <ele>46.3</ele>
        <time>2024-02-04T13:51:44Z</time>
      </trkpt>
      <trkpt lat="43.16649" lon="6.50848">
        <ele>46.2</ele>
        <time>2024-02-04T13:51:45Z</time>
      </trkpt>
      <trkpt lat="43.16649" lon="6.50849">
        <ele>46.1</ele>
        <time>2024-02-04T13:51:46Z</time>
      </trkpt>
      <trkpt lat="43.16648" lon="6.5085">
        <ele>46.1</ele>
        <time>2024-02-04T13:51:47Z</time>
      </trkpt>
      <trkpt lat="43.16648" lon="6.50851">
        <ele>46.1</ele>
        <time>2024-02-04T13:51:48Z</time>
      </trkpt>
      <trkpt lat="43.16647" lon="6.50852">
        <ele>46</ele>
        <time>2024-02-04T13:51:49Z</time>
      </trkpt>
      <trkpt lat="43.16646" lon="6.50853">
        <ele>46</ele>
        <time>2024-02-04T13:51:50Z</time>
      </trkpt>
      <trkpt lat="43.16646" lon="6.50854">
        <ele>46</ele>
        <time>2024-02-04T13:51:51Z</time>
      </trkpt>
      <trkpt lat="43.16645" lon="6.50855">
        <ele>45.9</ele>
        <time>2024-02-04T13:51:52Z</time>
      </trkpt>
      <trkpt lat="43.16644" lon="6.50856">
        <ele>45.9</ele>
        <time>2024-02-04T13:51:53Z</time>
      </trkpt>
      <trkpt lat="43.16643" lon="6.50857">
        <ele>45.9</ele>
        <time>2024-02-04T13:51:54Z</time>
      </trkpt>
      <trkpt lat="43.16643" lon="6.50858">
        <ele>45.8</ele>
        <time>2024-02-04T13:51:55Z</time>
      </trkpt>
      <trkpt lat="43.16642" lon="6.50859">
        <ele>45.8</ele>
        <time>2024-02-04T13:51:56Z</time>
      </trkpt>
      <trkpt lat="43.16641" lon="6.50861">
        <ele>45.7</ele>
        <time>2024-02-04T13:51:57Z</time>
      </trkpt>
      <trkpt lat="43.1664" lon="6.50862">
        <ele>45.5</ele>
        <time>2024-02-04T13:51:58Z</time>
      </trkpt>
      <trkpt lat="43.16639" lon="6.50863">
        <ele>45.5</ele>
        <time>2024-02-04T13:51:59Z</time>
      </trkpt>
      <trkpt lat="43.16638" lon="6.50864">
        <ele>45.3</ele>
        <time>2024-02-04T13:52:00Z</time>
      </trkpt>
      <trkpt lat="43.16638" lon="6.50864">
        <ele>45.2</ele>
        <time>2024-02-04T13:52:01Z</time>
      </trkpt>
      <trkpt lat="43.16638" lon="6.50864">
        <ele>45.3</ele>
        <time>2024-02-04T13:52:02Z</time>
      </trkpt>
      <trkpt lat="43.16638" lon="6.50865">
        <ele>45.1</ele>
        <time>2024-02-04T13:52:03Z</time>
      </trkpt>
      <trkpt lat="43.16638" lon="6.50865">
        <ele>45</ele>
        <time>2024-02-04T13:52:04Z</time>
      </trkpt>
      <trkpt lat="43.16638" lon="6.50867">
        <ele>44.9</ele>
        <time>2024-02-04T13:52:05Z</time>
      </trkpt>
      <trkpt lat="43.16638" lon="6.50868">
        <ele>44.8</ele>
        <time>2024-02-04T13:52:06Z</time>
      </trkpt>
      <trkpt lat="43.16638" lon="6.50868">
        <ele>44.8</ele>
        <time>2024-02-04T13:52:07Z</time>
      </trkpt>
      <trkpt lat="43.16638" lon="6.50868">
        <ele>44.7</ele>
        <time>2024-02-04T13:52:08Z</time>
      </trkpt>
      <trkpt lat="43.16637" lon="6.50868">
        <ele>44.7</ele>
        <time>2024-02-04T13:52:09Z</time>
      </trkpt>
      <trkpt lat="43.16637" lon="6.50868">
        <ele>44.7</ele>
        <time>2024-02-04T13:52:10Z</time>
      </trkpt>
      <trkpt lat="43.16636" lon="6.50868">
        <ele>44.7</ele>
        <time>2024-02-04T13:52:11Z</time>
      </trkpt>
      <trkpt lat="43.16636" lon="6.50868">
        <ele>44.5</ele>
        <time>2024-02-04T13:52:12Z</time>
      </trkpt>
      <trkpt lat="43.16636" lon="6.50868">
        <ele>44.5</ele>
        <time>2024-02-04T13:52:13Z</time>
      </trkpt>
      <trkpt lat="43.16635" lon="6.50868">
        <ele>44.4</ele>
        <time>2024-02-04T13:52:14Z</time>
      </trkpt>
      <trkpt lat="43.16634" lon="6.5087">
        <ele>44.3</ele>
        <time>2024-02-04T13:52:15Z</time>
      </trkpt>
      <trkpt lat="43.16633" lon="6.50871">
        <ele>44.3</ele>
        <time>2024-02-04T13:52:16Z</time>
      </trkpt>
      <trkpt lat="43.16633" lon="6.50872">
        <ele>44.2</ele>
        <time>2024-02-04T13:52:17Z</time>
      </trkpt>
      <trkpt lat="43.16632" lon="6.50873">
        <ele>44.1</ele>
        <time>2024-02-04T13:52:18Z</time>
      </trkpt>
      <trkpt lat="43.16631" lon="6.50875">
        <ele>44.2</ele>
        <time>2024-02-04T13:52:19Z</time>
      </trkpt>
      <trkpt lat="43.16631" lon="6.50876">
        <ele>44.1</ele>
        <time>2024-02-04T13:52:20Z</time>
      </trkpt>
      <trkpt lat="43.1663" lon="6.50878">
        <ele>44</ele>
        <time>2024-02-04T13:52:21Z</time>
      </trkpt>
      <trkpt lat="43.16629" lon="6.50879">
        <ele>43.9</ele>
        <time>2024-02-04T13:52:22Z</time>
      </trkpt>
      <trkpt lat="43.16628" lon="6.5088">
        <ele>43.9</ele>
        <time>2024-02-04T13:52:23Z</time>
      </trkpt>
      <trkpt lat="43.16627" lon="6.50882">
        <ele>43.9</ele>
        <time>2024-02-04T13:52:24Z</time>
      </trkpt>
      <trkpt lat="43.16626" lon="6.50883">
        <ele>43.9</ele>
        <time>2024-02-04T13:52:25Z</time>
      </trkpt>
      <trkpt lat="43.16626" lon="6.50884">
        <ele>43.9</ele>
        <time>2024-02-04T13:52:26Z</time>
      </trkpt>
      <trkpt lat="43.16625" lon="6.50886">
        <ele>43.9</ele>
        <time>2024-02-04T13:52:27Z</time>
      </trkpt>
      <trkpt lat="43.16624" lon="6.50888">
        <ele>43.9</ele>
        <time>2024-02-04T13:52:28Z</time>
      </trkpt>
      <trkpt lat="43.16624" lon="6.50889">
        <ele>43.9</ele>
        <time>2024-02-04T13:52:29Z</time>
      </trkpt>
      <trkpt lat="43.16623" lon="6.5089">
        <ele>43.8</ele>
        <time>2024-02-04T13:52:30Z</time>
      </trkpt>
      <trkpt lat="43.16623" lon="6.50892">
        <ele>43.8</ele>
        <time>2024-02-04T13:52:31Z</time>
      </trkpt>
      <trkpt lat="43.16623" lon="6.50894">
        <ele>43.6</ele>
        <time>2024-02-04T13:52:32Z</time>
      </trkpt>
      <trkpt lat="43.16623" lon="6.50896">
        <ele>43.6</ele>
        <time>2024-02-04T13:52:33Z</time>
      </trkpt>
      <trkpt lat="43.16623" lon="6.50898">
        <ele>43.6</ele>
        <time>2024-02-04T13:52:34Z</time>
      </trkpt>
      <trkpt lat="43.16622" lon="6.50899">
        <ele>43.5</ele>
        <time>2024-02-04T13:52:35Z</time>
      </trkpt>
      <trkpt lat="43.16621" lon="6.50901">
        <ele>43.4</ele>
        <time>2024-02-04T13:52:36Z</time>
      </trkpt>
      <trkpt lat="43.1662" lon="6.50903">
        <ele>43.4</ele>
        <time>2024-02-04T13:52:37Z</time>
      </trkpt>
      <trkpt lat="43.16619" lon="6.50904">
        <ele>43.3</ele>
        <time>2024-02-04T13:52:38Z</time>
      </trkpt>
      <trkpt lat="43.16618" lon="6.50905">
        <ele>43.4</ele>
        <time>2024-02-04T13:52:39Z</time>
      </trkpt>
      <trkpt lat="43.16617" lon="6.50907">
        <ele>43.4</ele>
        <time>2024-02-04T13:52:40Z</time>
      </trkpt>
      <trkpt lat="43.16616" lon="6.50908">
        <ele>43.4</ele>
        <time>2024-02-04T13:52:41Z</time>
      </trkpt>
      <trkpt lat="43.16615" lon="6.50909">
        <ele>43.4</ele>
        <time>2024-02-04T13:52:42Z</time>
      </trkpt>
      <trkpt lat="43.16614" lon="6.50911">
        <ele>43.3</ele>
        <time>2024-02-04T13:52:43Z</time>
      </trkpt>
      <trkpt lat="43.16613" lon="6.50912">
        <ele>43.3</ele>
        <time>2024-02-04T13:52:44Z</time>
      </trkpt>
      <trkpt lat="43.16612" lon="6.50913">
        <ele>43.4</ele>
        <time>2024-02-04T13:52:45Z</time>
      </trkpt>
      <trkpt lat="43.16611" lon="6.50913">
        <ele>43.3</ele>
        <time>2024-02-04T13:52:46Z</time>
      </trkpt>
      <trkpt lat="43.16611" lon="6.50914">
        <ele>43.3</ele>
        <time>2024-02-04T13:52:47Z</time>
      </trkpt>
      <trkpt lat="43.1661" lon="6.50915">
        <ele>43.4</ele>
        <time>2024-02-04T13:52:48Z</time>
      </trkpt>
      <trkpt lat="43.16609" lon="6.50915">
        <ele>43.4</ele>
        <time>2024-02-04T13:52:49Z</time>
      </trkpt>
      <trkpt lat="43.16608" lon="6.50915">
        <ele>43.5</ele>
        <time>2024-02-04T13:52:50Z</time>
      </trkpt>
      <trkpt lat="43.16607" lon="6.50915">
        <ele>43.5</ele>
        <time>2024-02-04T13:52:51Z</time>
      </trkpt>
      <trkpt lat="43.16605" lon="6.50915">
        <ele>43.6</ele>
        <time>2024-02-04T13:52:52Z</time>
      </trkpt>
      <trkpt lat="43.16605" lon="6.50915">
        <ele>43.7</ele>
        <time>2024-02-04T13:52:53Z</time>
      </trkpt>
      <trkpt lat="43.16604" lon="6.50914">
        <ele>43.8</ele>
        <time>2024-02-04T13:52:54Z</time>
      </trkpt>
      <trkpt lat="43.16603" lon="6.50914">
        <ele>43.9</ele>
        <time>2024-02-04T13:52:55Z</time>
      </trkpt>
      <trkpt lat="43.16602" lon="6.50913">
        <ele>44</ele>
        <time>2024-02-04T13:52:56Z</time>
      </trkpt>
      <trkpt lat="43.16602" lon="6.50913">
        <ele>44.1</ele>
        <time>2024-02-04T13:52:57Z</time>
      </trkpt>
      <trkpt lat="43.166" lon="6.50912">
        <ele>44.2</ele>
        <time>2024-02-04T13:52:58Z</time>
      </trkpt>
      <trkpt lat="43.16598" lon="6.50911">
        <ele>44.3</ele>
        <time>2024-02-04T13:52:59Z</time>
      </trkpt>
      <trkpt lat="43.16597" lon="6.50911">
        <ele>44.3</ele>
        <time>2024-02-04T13:53:00Z</time>
      </trkpt>
      <trkpt lat="43.16596" lon="6.50911">
        <ele>44.4</ele>
        <time>2024-02-04T13:53:01Z</time>
      </trkpt>
      <trkpt lat="43.16595" lon="6.50911">
        <ele>44.5</ele>
        <time>2024-02-04T13:53:02Z</time>
      </trkpt>
      <trkpt lat="43.16594" lon="6.5091">
        <ele>44.7</ele>
        <time>2024-02-04T13:53:03Z</time>
      </trkpt>
      <trkpt lat="43.16592" lon="6.5091">
        <ele>44.8</ele>
        <time>2024-02-04T13:53:04Z</time>
      </trkpt>
      <trkpt lat="43.16591" lon="6.50909">
        <ele>44.8</ele>
        <time>2024-02-04T13:53:05Z</time>
      </trkpt>
      <trkpt lat="43.1659" lon="6.50909">
        <ele>44.8</ele>
        <time>2024-02-04T13:53:06Z</time>
      </trkpt>
      <trkpt lat="43.16589" lon="6.5091">
        <ele>44.7</ele>
        <time>2024-02-04T13:53:07Z</time>
      </trkpt>
      <trkpt lat="43.16588" lon="6.5091">
        <ele>44.8</ele>
        <time>2024-02-04T13:53:08Z</time>
      </trkpt>
      <trkpt lat="43.16587" lon="6.5091">
        <ele>45</ele>
        <time>2024-02-04T13:53:09Z</time>
      </trkpt>
      <trkpt lat="43.16586" lon="6.5091">
        <ele>45</ele>
        <time>2024-02-04T13:53:10Z</time>
      </trkpt>
      <trkpt lat="43.16585" lon="6.5091">
        <ele>45.1</ele>
        <time>2024-02-04T13:53:11Z</time>
      </trkpt>
      <trkpt lat="43.16584" lon="6.5091">
        <ele>45.1</ele>
        <time>2024-02-04T13:53:12Z</time>
      </trkpt>
      <trkpt lat="43.16583" lon="6.5091">
        <ele>45.1</ele>
        <time>2024-02-04T13:53:13Z</time>
      </trkpt>
      <trkpt lat="43.16582" lon="6.5091">
        <ele>45.1</ele>
        <time>2024-02-04T13:53:14Z</time>
      </trkpt>
      <trkpt lat="43.16581" lon="6.5091">
        <ele>45.1</ele>
        <time>2024-02-04T13:53:15Z</time>
      </trkpt>
      <trkpt lat="43.1658" lon="6.5091">
        <ele>45.3</ele>
        <time>2024-02-04T13:53:16Z</time>
      </trkpt>
      <trkpt lat="43.16579" lon="6.50909">
        <ele>45.4</ele>
        <time>2024-02-04T13:53:17Z</time>
      </trkpt>
      <trkpt lat="43.16577" lon="6.50909">
        <ele>45.5</ele>
        <time>2024-02-04T13:53:18Z</time>
      </trkpt>
      <trkpt lat="43.16577" lon="6.50908">
        <ele>45.5</ele>
        <time>2024-02-04T13:53:19Z</time>
      </trkpt>
      <trkpt lat="43.16576" lon="6.50908">
        <ele>45.5</ele>
        <time>2024-02-04T13:53:20Z</time>
      </trkpt>
      <trkpt lat="43.16575" lon="6.50907">
        <ele>45.7</ele>
        <time>2024-02-04T13:53:21Z</time>
      </trkpt>
      <trkpt lat="43.16573" lon="6.50907">
        <ele>45.8</ele>
        <time>2024-02-04T13:53:22Z</time>
      </trkpt>
      <trkpt lat="43.16572" lon="6.50906">
        <ele>45.9</ele>
        <time>2024-02-04T13:53:23Z</time>
      </trkpt>
      <trkpt lat="43.16571" lon="6.50906">
        <ele>46</ele>
        <time>2024-02-04T13:53:24Z</time>
      </trkpt>
      <trkpt lat="43.1657" lon="6.50906">
        <ele>46.1</ele>
        <time>2024-02-04T13:53:25Z</time>
      </trkpt>
      <trkpt lat="43.16569" lon="6.50905">
        <ele>46.1</ele>
        <time>2024-02-04T13:53:26Z</time>
      </trkpt>
      <trkpt lat="43.16568" lon="6.50905">
        <ele>46.2</ele>
        <time>2024-02-04T13:53:27Z</time>
      </trkpt>
      <trkpt lat="43.16567" lon="6.50904">
        <ele>46.1</ele>
        <time>2024-02-04T13:53:28Z</time>
      </trkpt>
      <trkpt lat="43.16566" lon="6.50904">
        <ele>46.1</ele>
        <time>2024-02-04T13:53:29Z</time>
      </trkpt>
      <trkpt lat="43.16565" lon="6.50903">
        <ele>46.2</ele>
        <time>2024-02-04T13:53:30Z</time>
      </trkpt>
      <trkpt lat="43.16564" lon="6.50902">
        <ele>46.2</ele>
        <time>2024-02-04T13:53:31Z</time>
      </trkpt>
      <trkpt lat="43.16563" lon="6.50902">
        <ele>46.4</ele>
        <time>2024-02-04T13:53:32Z</time>
      </trkpt>
      <trkpt lat="43.16561" lon="6.50901">
        <ele>46.5</ele>
        <time>2024-02-04T13:53:33Z</time>
      </trkpt>
      <trkpt lat="43.1656" lon="6.50901">
        <ele>46.6</ele>
        <time>2024-02-04T13:53:34Z</time>
      </trkpt>
      <trkpt lat="43.16559" lon="6.509">
        <ele>46.7</ele>
        <time>2024-02-04T13:53:35Z</time>
      </trkpt>
      <trkpt lat="43.16558" lon="6.509">
        <ele>46.8</ele>
        <time>2024-02-04T13:53:36Z</time>
      </trkpt>
      <trkpt lat="43.16557" lon="6.509">
        <ele>46.8</ele>
        <time>2024-02-04T13:53:37Z</time>
      </trkpt>
      <trkpt lat="43.16555" lon="6.509">
        <ele>46.8</ele>
        <time>2024-02-04T13:53:38Z</time>
      </trkpt>
      <trkpt lat="43.16554" lon="6.509">
        <ele>46.9</ele>
        <time>2024-02-04T13:53:39Z</time>
      </trkpt>
      <trkpt lat="43.16553" lon="6.50898">
        <ele>47</ele>
        <time>2024-02-04T13:53:40Z</time>
      </trkpt>
      <trkpt lat="43.16552" lon="6.50898">
        <ele>47.1</ele>
        <time>2024-02-04T13:53:41Z</time>
      </trkpt>
      <trkpt lat="43.16551" lon="6.50897">
        <ele>47.3</ele>
        <time>2024-02-04T13:53:42Z</time>
      </trkpt>
      <trkpt lat="43.1655" lon="6.50897">
        <ele>47.4</ele>
        <time>2024-02-04T13:53:43Z</time>
      </trkpt>
      <trkpt lat="43.16549" lon="6.50896">
        <ele>47.5</ele>
        <time>2024-02-04T13:53:44Z</time>
      </trkpt>
      <trkpt lat="43.16548" lon="6.50895">
        <ele>47.6</ele>
        <time>2024-02-04T13:53:45Z</time>
      </trkpt>
      <trkpt lat="43.16547" lon="6.50895">
        <ele>47.7</ele>
        <time>2024-02-04T13:53:46Z</time>
      </trkpt>
      <trkpt lat="43.16546" lon="6.50894">
        <ele>47.8</ele>
        <time>2024-02-04T13:53:47Z</time>
      </trkpt>
      <trkpt lat="43.16545" lon="6.50894">
        <ele>47.8</ele>
        <time>2024-02-04T13:53:48Z</time>
      </trkpt>
      <trkpt lat="43.16544" lon="6.50894">
        <ele>47.9</ele>
        <time>2024-02-04T13:53:49Z</time>
      </trkpt>
      <trkpt lat="43.16543" lon="6.50893">
        <ele>48.1</ele>
        <time>2024-02-04T13:53:50Z</time>
      </trkpt>
      <trkpt lat="43.16541" lon="6.50892">
        <ele>48.1</ele>
        <time>2024-02-04T13:53:51Z</time>
      </trkpt>
      <trkpt lat="43.1654" lon="6.50891">
        <ele>48.2</ele>
        <time>2024-02-04T13:53:52Z</time>
      </trkpt>
      <trkpt lat="43.16539" lon="6.5089">
        <ele>48.2</ele>
        <time>2024-02-04T13:53:53Z</time>
      </trkpt>
      <trkpt lat="43.16538" lon="6.5089">
        <ele>48.3</ele>
        <time>2024-02-04T13:53:54Z</time>
      </trkpt>
      <trkpt lat="43.16537" lon="6.50889">
        <ele>48.3</ele>
        <time>2024-02-04T13:53:55Z</time>
      </trkpt>
      <trkpt lat="43.16536" lon="6.50889">
        <ele>48.3</ele>
        <time>2024-02-04T13:53:56Z</time>
      </trkpt>
      <trkpt lat="43.16535" lon="6.50888">
        <ele>48.4</ele>
        <time>2024-02-04T13:53:57Z</time>
      </trkpt>
      <trkpt lat="43.16534" lon="6.50888">
        <ele>48.5</ele>
        <time>2024-02-04T13:53:58Z</time>
      </trkpt>
      <trkpt lat="43.16533" lon="6.50888">
        <ele>48.5</ele>
        <time>2024-02-04T13:53:59Z</time>
      </trkpt>
      <trkpt lat="43.16532" lon="6.50887">
        <ele>48.5</ele>
        <time>2024-02-04T13:54:00Z</time>
      </trkpt>
      <trkpt lat="43.16531" lon="6.50887">
        <ele>48.5</ele>
        <time>2024-02-04T13:54:01Z</time>
      </trkpt>
      <trkpt lat="43.1653" lon="6.50886">
        <ele>48.6</ele>
        <time>2024-02-04T13:54:02Z</time>
      </trkpt>
      <trkpt lat="43.16529" lon="6.50886">
        <ele>48.7</ele>
        <time>2024-02-04T13:54:03Z</time>
      </trkpt>
      <trkpt lat="43.16528" lon="6.50886">
        <ele>48.8</ele>
        <time>2024-02-04T13:54:04Z</time>
      </trkpt>
      <trkpt lat="43.16527" lon="6.50886">
        <ele>48.9</ele>
        <time>2024-02-04T13:54:05Z</time>
      </trkpt>
      <trkpt lat="43.16526" lon="6.50885">
        <ele>49</ele>
        <time>2024-02-04T13:54:06Z</time>
      </trkpt>
      <trkpt lat="43.16525" lon="6.50885">
        <ele>49.1</ele>
        <time>2024-02-04T13:54:07Z</time>
      </trkpt>
      <trkpt lat="43.16524" lon="6.50884">
        <ele>49.1</ele>
        <time>2024-02-04T13:54:08Z</time>
      </trkpt>
      <trkpt lat="43.16524" lon="6.50884">
        <ele>49.2</ele>
        <time>2024-02-04T13:54:09Z</time>
      </trkpt>
      <trkpt lat="43.16523" lon="6.50884">
        <ele>49.3</ele>
        <time>2024-02-04T13:54:10Z</time>
      </trkpt>
      <trkpt lat="43.16522" lon="6.50884">
        <ele>49.5</ele>
        <time>2024-02-04T13:54:11Z</time>
      </trkpt>
      <trkpt lat="43.16521" lon="6.50883">
        <ele>49.6</ele>
        <time>2024-02-04T13:54:12Z</time>
      </trkpt>
      <trkpt lat="43.1652" lon="6.50883">
        <ele>49.6</ele>
        <time>2024-02-04T13:54:13Z</time>
      </trkpt>
      <trkpt lat="43.16519" lon="6.50882">
        <ele>49.7</ele>
        <time>2024-02-04T13:54:14Z</time>
      </trkpt>
      <trkpt lat="43.16518" lon="6.50883">
        <ele>49.8</ele>
        <time>2024-02-04T13:54:15Z</time>
      </trkpt>
      <trkpt lat="43.16517" lon="6.50882">
        <ele>49.8</ele>
        <time>2024-02-04T13:54:16Z</time>
      </trkpt>
      <trkpt lat="43.16516" lon="6.50881">
        <ele>49.8</ele>
        <time>2024-02-04T13:54:17Z</time>
      </trkpt>
      <trkpt lat="43.16515" lon="6.50881">
        <ele>49.8</ele>
        <time>2024-02-04T13:54:18Z</time>
      </trkpt>
      <trkpt lat="43.16513" lon="6.5088">
        <ele>49.8</ele>
        <time>2024-02-04T13:54:19Z</time>
      </trkpt>
      <trkpt lat="43.16512" lon="6.5088">
        <ele>49.8</ele>
        <time>2024-02-04T13:54:20Z</time>
      </trkpt>
      <trkpt lat="43.16511" lon="6.5088">
        <ele>49.8</ele>
        <time>2024-02-04T13:54:21Z</time>
      </trkpt>
      <trkpt lat="43.1651" lon="6.50879">
        <ele>49.9</ele>
        <time>2024-02-04T13:54:22Z</time>
      </trkpt>
      <trkpt lat="43.16509" lon="6.50879">
        <ele>49.9</ele>
        <time>2024-02-04T13:54:23Z</time>
      </trkpt>
      <trkpt lat="43.16507" lon="6.50879">
        <ele>50</ele>
        <time>2024-02-04T13:54:24Z</time>
      </trkpt>
      <trkpt lat="43.16506" lon="6.50878">
        <ele>50</ele>
        <time>2024-02-04T13:54:25Z</time>
      </trkpt>
      <trkpt lat="43.16505" lon="6.50878">
        <ele>50.1</ele>
        <time>2024-02-04T13:54:26Z</time>
      </trkpt>
      <trkpt lat="43.16504" lon="6.50878">
        <ele>50.2</ele>
        <time>2024-02-04T13:54:27Z</time>
      </trkpt>
      <trkpt lat="43.16503" lon="6.50877">
        <ele>50.3</ele>
        <time>2024-02-04T13:54:28Z</time>
      </trkpt>
      <trkpt lat="43.16502" lon="6.50877">
        <ele>50.4</ele>
        <time>2024-02-04T13:54:29Z</time>
      </trkpt>
      <trkpt lat="43.16501" lon="6.50877">
        <ele>50.5</ele>
        <time>2024-02-04T13:54:30Z</time>
      </trkpt>
      <trkpt lat="43.165" lon="6.50877">
        <ele>50.5</ele>
        <time>2024-02-04T13:54:31Z</time>
      </trkpt>
      <trkpt lat="43.16499" lon="6.50876">
        <ele>50.6</ele>
        <time>2024-02-04T13:54:32Z</time>
      </trkpt>
      <trkpt lat="43.16498" lon="6.50876">
        <ele>50.6</ele>
        <time>2024-02-04T13:54:33Z</time>
      </trkpt>
      <trkpt lat="43.16497" lon="6.50876">
        <ele>50.7</ele>
        <time>2024-02-04T13:54:34Z</time>
      </trkpt>
      <trkpt lat="43.16496" lon="6.50876">
        <ele>50.7</ele>
        <time>2024-02-04T13:54:35Z</time>
      </trkpt>
      <trkpt lat="43.16494" lon="6.50876">
        <ele>50.8</ele>
        <time>2024-02-04T13:54:36Z</time>
      </trkpt>
      <trkpt lat="43.16493" lon="6.50876">
        <ele>50.8</ele>
        <time>2024-02-04T13:54:37Z</time>
      </trkpt>
      <trkpt lat="43.16492" lon="6.50876">
        <ele>50.9</ele>
        <time>2024-02-04T13:54:38Z</time>
      </trkpt>
      <trkpt lat="43.16491" lon="6.50875">
        <ele>51</ele>
        <time>2024-02-04T13:54:39Z</time>
      </trkpt>
      <trkpt lat="43.16489" lon="6.50875">
        <ele>51</ele>
        <time>2024-02-04T13:54:40Z</time>
      </trkpt>
      <trkpt lat="43.16488" lon="6.50874">
        <ele>51.1</ele>
        <time>2024-02-04T13:54:41Z</time>
      </trkpt>
      <trkpt lat="43.16487" lon="6.50874">
        <ele>51.1</ele>
        <time>2024-02-04T13:54:42Z</time>
      </trkpt>
      <trkpt lat="43.16486" lon="6.50874">
        <ele>51.1</ele>
        <time>2024-02-04T13:54:43Z</time>
      </trkpt>
      <trkpt lat="43.16484" lon="6.50874">
        <ele>51.1</ele>
        <time>2024-02-04T13:54:44Z</time>
      </trkpt>
      <trkpt lat="43.16483" lon="6.50875">
        <ele>51.1</ele>
        <time>2024-02-04T13:54:45Z</time>
      </trkpt>
      <trkpt lat="43.16483" lon="6.50877">
        <ele>51.1</ele>
        <time>2024-02-04T13:54:46Z</time>
      </trkpt>
      <trkpt lat="43.16482" lon="6.50878">
        <ele>51.1</ele>
        <time>2024-02-04T13:54:47Z</time>
      </trkpt>
      <trkpt lat="43.16482" lon="6.5088">
        <ele>51.1</ele>
        <time>2024-02-04T13:54:48Z</time>
      </trkpt>
      <trkpt lat="43.16481" lon="6.5088">
        <ele>51.1</ele>
        <time>2024-02-04T13:54:49Z</time>
      </trkpt>
      <trkpt lat="43.1648" lon="6.50881">
        <ele>51.2</ele>
        <time>2024-02-04T13:54:50Z</time>
      </trkpt>
      <trkpt lat="43.1648" lon="6.50881">
        <ele>51.1</ele>
        <time>2024-02-04T13:54:51Z</time>
      </trkpt>
      <trkpt lat="43.16479" lon="6.50881">
        <ele>51.2</ele>
        <time>2024-02-04T13:54:52Z</time>
      </trkpt>
      <trkpt lat="43.16478" lon="6.50881">
        <ele>51.2</ele>
        <time>2024-02-04T13:54:53Z</time>
      </trkpt>
      <trkpt lat="43.16477" lon="6.50881">
        <ele>51.3</ele>
        <time>2024-02-04T13:54:54Z</time>
      </trkpt>
      <trkpt lat="43.16476" lon="6.50881">
        <ele>51.3</ele>
        <time>2024-02-04T13:54:55Z</time>
      </trkpt>
      <trkpt lat="43.16475" lon="6.50881">
        <ele>51.4</ele>
        <time>2024-02-04T13:54:56Z</time>
      </trkpt>
      <trkpt lat="43.16475" lon="6.50882">
        <ele>51.4</ele>
        <time>2024-02-04T13:54:57Z</time>
      </trkpt>
      <trkpt lat="43.16475" lon="6.50882">
        <ele>51.5</ele>
        <time>2024-02-04T13:54:58Z</time>
      </trkpt>
      <trkpt lat="43.16474" lon="6.50883">
        <ele>51.6</ele>
        <time>2024-02-04T13:54:59Z</time>
      </trkpt>
      <trkpt lat="43.16474" lon="6.50884">
        <ele>51.6</ele>
        <time>2024-02-04T13:55:00Z</time>
      </trkpt>
      <trkpt lat="43.16473" lon="6.50885">
        <ele>51.7</ele>
        <time>2024-02-04T13:55:01Z</time>
      </trkpt>
      <trkpt lat="43.16472" lon="6.50887">
        <ele>51.6</ele>
        <time>2024-02-04T13:55:02Z</time>
      </trkpt>
      <trkpt lat="43.16472" lon="6.50889">
        <ele>51.6</ele>
        <time>2024-02-04T13:55:03Z</time>
      </trkpt>
      <trkpt lat="43.16472" lon="6.5089">
        <ele>51.5</ele>
        <time>2024-02-04T13:55:04Z</time>
      </trkpt>
      <trkpt lat="43.16472" lon="6.50892">
        <ele>51.4</ele>
        <time>2024-02-04T13:55:05Z</time>
      </trkpt>
      <trkpt lat="43.16472" lon="6.50893">
        <ele>51.4</ele>
        <time>2024-02-04T13:55:06Z</time>
      </trkpt>
      <trkpt lat="43.16473" lon="6.50894">
        <ele>51.3</ele>
        <time>2024-02-04T13:55:07Z</time>
      </trkpt>
      <trkpt lat="43.16473" lon="6.50895">
        <ele>51.4</ele>
        <time>2024-02-04T13:55:08Z</time>
      </trkpt>
      <trkpt lat="43.16473" lon="6.50896">
        <ele>51.4</ele>
        <time>2024-02-04T13:55:09Z</time>
      </trkpt>
      <trkpt lat="43.16474" lon="6.50898">
        <ele>51.4</ele>
        <time>2024-02-04T13:55:10Z</time>
      </trkpt>
      <trkpt lat="43.16474" lon="6.50899">
        <ele>51.5</ele>
        <time>2024-02-04T13:55:11Z</time>
      </trkpt>
      <trkpt lat="43.16474" lon="6.509">
        <ele>51.5</ele>
        <time>2024-02-04T13:55:12Z</time>
      </trkpt>
      <trkpt lat="43.16474" lon="6.509">
        <ele>51.5</ele>
        <time>2024-02-04T13:55:13Z</time>
      </trkpt>
      <trkpt lat="43.16474" lon="6.509">
        <ele>51.4</ele>
        <time>2024-02-04T13:55:14Z</time>
      </trkpt>
      <trkpt lat="43.16474" lon="6.509">
        <ele>51.5</ele>
        <time>2024-02-04T13:55:15Z</time>
      </trkpt>
      <trkpt lat="43.16474" lon="6.509">
        <ele>51.5</ele>
        <time>2024-02-04T13:55:16Z</time>
      </trkpt>
      <trkpt lat="43.16474" lon="6.50901">
        <ele>51.6</ele>
        <time>2024-02-04T13:55:17Z</time>
      </trkpt>
      <trkpt lat="43.16474" lon="6.50901">
        <ele>51.6</ele>
        <time>2024-02-04T13:55:18Z</time>
      </trkpt>
      <trkpt lat="43.16474" lon="6.50902">
        <ele>51.6</ele>
        <time>2024-02-04T13:55:19Z</time>
      </trkpt>
      <trkpt lat="43.16474" lon="6.50903">
        <ele>51.6</ele>
        <time>2024-02-04T13:55:20Z</time>
      </trkpt>
      <trkpt lat="43.16474" lon="6.50903">
        <ele>51.6</ele>
        <time>2024-02-04T13:55:21Z</time>
      </trkpt>
      <trkpt lat="43.16474" lon="6.50904">
        <ele>51.6</ele>
        <time>2024-02-04T13:55:22Z</time>
      </trkpt>
      <trkpt lat="43.16474" lon="6.50905">
        <ele>51.6</ele>
        <time>2024-02-04T13:55:23Z</time>
      </trkpt>
      <trkpt lat="43.16474" lon="6.50906">
        <ele>51.6</ele>
        <time>2024-02-04T13:55:24Z</time>
      </trkpt>
      <trkpt lat="43.16475" lon="6.50907">
        <ele>51.6</ele>
        <time>2024-02-04T13:55:25Z</time>
      </trkpt>
      <trkpt lat="43.16475" lon="6.50908">
        <ele>51.5</ele>
        <time>2024-02-04T13:55:26Z</time>
      </trkpt>
      <trkpt lat="43.16476" lon="6.50909">
        <ele>51.5</ele>
        <time>2024-02-04T13:55:27Z</time>
      </trkpt>
      <trkpt lat="43.16476" lon="6.5091">
        <ele>51.5</ele>
        <time>2024-02-04T13:55:28Z</time>
      </trkpt>
      <trkpt lat="43.16477" lon="6.50911">
        <ele>51.5</ele>
        <time>2024-02-04T13:55:29Z</time>
      </trkpt>
      <trkpt lat="43.16477" lon="6.50911">
        <ele>51.5</ele>
        <time>2024-02-04T13:55:30Z</time>
      </trkpt>
      <trkpt lat="43.16478" lon="6.50912">
        <ele>51.5</ele>
        <time>2024-02-04T13:55:31Z</time>
      </trkpt>
      <trkpt lat="43.16479" lon="6.50913">
        <ele>51.5</ele>
        <time>2024-02-04T13:55:32Z</time>
      </trkpt>
      <trkpt lat="43.16479" lon="6.50914">
        <ele>51.4</ele>
        <time>2024-02-04T13:55:33Z</time>
      </trkpt>
      <trkpt lat="43.1648" lon="6.50916">
        <ele>51.3</ele>
        <time>2024-02-04T13:55:34Z</time>
      </trkpt>
      <trkpt lat="43.16481" lon="6.50918">
        <ele>51.2</ele>
        <time>2024-02-04T13:55:35Z</time>
      </trkpt>
      <trkpt lat="43.16481" lon="6.50919">
        <ele>51.2</ele>
        <time>2024-02-04T13:55:36Z</time>
      </trkpt>
      <trkpt lat="43.16482" lon="6.50921">
        <ele>51.2</ele>
        <time>2024-02-04T13:55:37Z</time>
      </trkpt>
      <trkpt lat="43.16483" lon="6.50922">
        <ele>51.2</ele>
        <time>2024-02-04T13:55:38Z</time>
      </trkpt>
      <trkpt lat="43.16483" lon="6.50923">
        <ele>51.2</ele>
        <time>2024-02-04T13:55:39Z</time>
      </trkpt>
      <trkpt lat="43.16484" lon="6.50925">
        <ele>51.2</ele>
        <time>2024-02-04T13:55:40Z</time>
      </trkpt>
      <trkpt lat="43.16484" lon="6.50926">
        <ele>51.2</ele>
        <time>2024-02-04T13:55:41Z</time>
      </trkpt>
      <trkpt lat="43.16485" lon="6.50927">
        <ele>51.1</ele>
        <time>2024-02-04T13:55:42Z</time>
      </trkpt>
      <trkpt lat="43.16486" lon="6.50929">
        <ele>51.2</ele>
        <time>2024-02-04T13:55:43Z</time>
      </trkpt>
      <trkpt lat="43.16487" lon="6.5093">
        <ele>51.2</ele>
        <time>2024-02-04T13:55:44Z</time>
      </trkpt>
      <trkpt lat="43.16487" lon="6.50932">
        <ele>51.1</ele>
        <time>2024-02-04T13:55:45Z</time>
      </trkpt>
      <trkpt lat="43.16488" lon="6.50933">
        <ele>51.2</ele>
        <time>2024-02-04T13:55:46Z</time>
      </trkpt>
      <trkpt lat="43.16489" lon="6.50934">
        <ele>51.2</ele>
        <time>2024-02-04T13:55:47Z</time>
      </trkpt>
      <trkpt lat="43.16489" lon="6.50936">
        <ele>51.2</ele>
        <time>2024-02-04T13:55:48Z</time>
      </trkpt>
      <trkpt lat="43.1649" lon="6.50937">
        <ele>51.2</ele>
        <time>2024-02-04T13:55:49Z</time>
      </trkpt>
      <trkpt lat="43.16491" lon="6.50938">
        <ele>51.3</ele>
        <time>2024-02-04T13:55:50Z</time>
      </trkpt>
      <trkpt lat="43.16492" lon="6.50939">
        <ele>51.3</ele>
        <time>2024-02-04T13:55:51Z</time>
      </trkpt>
      <trkpt lat="43.16492" lon="6.5094">
        <ele>51.2</ele>
        <time>2024-02-04T13:55:52Z</time>
      </trkpt>
      <trkpt lat="43.16493" lon="6.50941">
        <ele>51.2</ele>
        <time>2024-02-04T13:55:53Z</time>
      </trkpt>
      <trkpt lat="43.16494" lon="6.50942">
        <ele>51.2</ele>
        <time>2024-02-04T13:55:54Z</time>
      </trkpt>
      <trkpt lat="43.16495" lon="6.50943">
        <ele>51.1</ele>
        <time>2024-02-04T13:55:55Z</time>
      </trkpt>
      <trkpt lat="43.16495" lon="6.50945">
        <ele>51</ele>
        <time>2024-02-04T13:55:56Z</time>
      </trkpt>
      <trkpt lat="43.16496" lon="6.50946">
        <ele>51</ele>
        <time>2024-02-04T13:55:57Z</time>
      </trkpt>
      <trkpt lat="43.16496" lon="6.50947">
        <ele>51.1</ele>
        <time>2024-02-04T13:55:58Z</time>
      </trkpt>
      <trkpt lat="43.16497" lon="6.50949">
        <ele>51.1</ele>
        <time>2024-02-04T13:55:59Z</time>
      </trkpt>
      <trkpt lat="43.16498" lon="6.5095">
        <ele>51.1</ele>
        <time>2024-02-04T13:56:00Z</time>
      </trkpt>
      <trkpt lat="43.16499" lon="6.50951">
        <ele>51.1</ele>
        <time>2024-02-04T13:56:01Z</time>
      </trkpt>
      <trkpt lat="43.165" lon="6.50952">
        <ele>51.1</ele>
        <time>2024-02-04T13:56:02Z</time>
      </trkpt>
      <trkpt lat="43.165" lon="6.50953">
        <ele>51</ele>
        <time>2024-02-04T13:56:03Z</time>
      </trkpt>
      <trkpt lat="43.16501" lon="6.50954">
        <ele>51.1</ele>
        <time>2024-02-04T13:56:04Z</time>
      </trkpt>
      <trkpt lat="43.16502" lon="6.50955">
        <ele>51.1</ele>
        <time>2024-02-04T13:56:05Z</time>
      </trkpt>
      <trkpt lat="43.16502" lon="6.50956">
        <ele>51.1</ele>
        <time>2024-02-04T13:56:06Z</time>
      </trkpt>
      <trkpt lat="43.16503" lon="6.50958">
        <ele>51.1</ele>
        <time>2024-02-04T13:56:07Z</time>
      </trkpt>
      <trkpt lat="43.16504" lon="6.50959">
        <ele>51</ele>
        <time>2024-02-04T13:56:08Z</time>
      </trkpt>
      <trkpt lat="43.16504" lon="6.50961">
        <ele>51</ele>
        <time>2024-02-04T13:56:09Z</time>
      </trkpt>
      <trkpt lat="43.16505" lon="6.50962">
        <ele>51</ele>
        <time>2024-02-04T13:56:10Z</time>
      </trkpt>
      <trkpt lat="43.16506" lon="6.50964">
        <ele>51</ele>
        <time>2024-02-04T13:56:11Z</time>
      </trkpt>
      <trkpt lat="43.16507" lon="6.50965">
        <ele>50.8</ele>
        <time>2024-02-04T13:56:12Z</time>
      </trkpt>
      <trkpt lat="43.16507" lon="6.50966">
        <ele>50.8</ele>
        <time>2024-02-04T13:56:13Z</time>
      </trkpt>
      <trkpt lat="43.16508" lon="6.50967">
        <ele>50.9</ele>
        <time>2024-02-04T13:56:14Z</time>
      </trkpt>
      <trkpt lat="43.16508" lon="6.50968">
        <ele>50.8</ele>
        <time>2024-02-04T13:56:15Z</time>
      </trkpt>
      <trkpt lat="43.16509" lon="6.50969">
        <ele>50.7</ele>
        <time>2024-02-04T13:56:16Z</time>
      </trkpt>
      <trkpt lat="43.16509" lon="6.50971">
        <ele>50.7</ele>
        <time>2024-02-04T13:56:17Z</time>
      </trkpt>
      <trkpt lat="43.1651" lon="6.50972">
        <ele>50.7</ele>
        <time>2024-02-04T13:56:18Z</time>
      </trkpt>
      <trkpt lat="43.16511" lon="6.50973">
        <ele>50.7</ele>
        <time>2024-02-04T13:56:19Z</time>
      </trkpt>
      <trkpt lat="43.16511" lon="6.50974">
        <ele>50.7</ele>
        <time>2024-02-04T13:56:20Z</time>
      </trkpt>
      <trkpt lat="43.16512" lon="6.50975">
        <ele>50.8</ele>
        <time>2024-02-04T13:56:21Z</time>
      </trkpt>
      <trkpt lat="43.16513" lon="6.50976">
        <ele>50.8</ele>
        <time>2024-02-04T13:56:22Z</time>
      </trkpt>
      <trkpt lat="43.16513" lon="6.50977">
        <ele>50.7</ele>
        <time>2024-02-04T13:56:23Z</time>
      </trkpt>
      <trkpt lat="43.16514" lon="6.50978">
        <ele>50.7</ele>
        <time>2024-02-04T13:56:24Z</time>
      </trkpt>
      <trkpt lat="43.16514" lon="6.5098">
        <ele>50.7</ele>
        <time>2024-02-04T13:56:25Z</time>
      </trkpt>
      <trkpt lat="43.16515" lon="6.50981">
        <ele>50.6</ele>
        <time>2024-02-04T13:56:26Z</time>
      </trkpt>
      <trkpt lat="43.16516" lon="6.50982">
        <ele>50.6</ele>
        <time>2024-02-04T13:56:27Z</time>
      </trkpt>
      <trkpt lat="43.16517" lon="6.50983">
        <ele>50.6</ele>
        <time>2024-02-04T13:56:28Z</time>
      </trkpt>
      <trkpt lat="43.16517" lon="6.50984">
        <ele>50.6</ele>
        <time>2024-02-04T13:56:29Z</time>
      </trkpt>
      <trkpt lat="43.16518" lon="6.50985">
        <ele>50.6</ele>
        <time>2024-02-04T13:56:30Z</time>
      </trkpt>
      <trkpt lat="43.16518" lon="6.50986">
        <ele>50.6</ele>
        <time>2024-02-04T13:56:31Z</time>
      </trkpt>
      <trkpt lat="43.16519" lon="6.50987">
        <ele>50.6</ele>
        <time>2024-02-04T13:56:32Z</time>
      </trkpt>
      <trkpt lat="43.16519" lon="6.50989">
        <ele>50.6</ele>
        <time>2024-02-04T13:56:33Z</time>
      </trkpt>
      <trkpt lat="43.16519" lon="6.5099">
        <ele>50.5</ele>
        <time>2024-02-04T13:56:34Z</time>
      </trkpt>
      <trkpt lat="43.1652" lon="6.50992">
        <ele>50.4</ele>
        <time>2024-02-04T13:56:35Z</time>
      </trkpt>
      <trkpt lat="43.1652" lon="6.50994">
        <ele>50.4</ele>
        <time>2024-02-04T13:56:36Z</time>
      </trkpt>
      <trkpt lat="43.1652" lon="6.50995">
        <ele>50.4</ele>
        <time>2024-02-04T13:56:37Z</time>
      </trkpt>
      <trkpt lat="43.16521" lon="6.50996">
        <ele>50.3</ele>
        <time>2024-02-04T13:56:38Z</time>
      </trkpt>
      <trkpt lat="43.16521" lon="6.50998">
        <ele>50.3</ele>
        <time>2024-02-04T13:56:39Z</time>
      </trkpt>
      <trkpt lat="43.16522" lon="6.51">
        <ele>50.3</ele>
        <time>2024-02-04T13:56:40Z</time>
      </trkpt>
      <trkpt lat="43.16522" lon="6.51001">
        <ele>50.3</ele>
        <time>2024-02-04T13:56:41Z</time>
      </trkpt>
      <trkpt lat="43.16523" lon="6.51002">
        <ele>50.2</ele>
        <time>2024-02-04T13:56:42Z</time>
      </trkpt>
      <trkpt lat="43.16522" lon="6.51004">
        <ele>50.2</ele>
        <time>2024-02-04T13:56:43Z</time>
      </trkpt>
      <trkpt lat="43.16522" lon="6.51005">
        <ele>50.1</ele>
        <time>2024-02-04T13:56:44Z</time>
      </trkpt>
      <trkpt lat="43.16523" lon="6.51007">
        <ele>50.1</ele>
        <time>2024-02-04T13:56:45Z</time>
      </trkpt>
      <trkpt lat="43.16523" lon="6.51009">
        <ele>50.1</ele>
        <time>2024-02-04T13:56:46Z</time>
      </trkpt>
      <trkpt lat="43.16523" lon="6.5101">
        <ele>50.1</ele>
        <time>2024-02-04T13:56:47Z</time>
      </trkpt>
      <trkpt lat="43.16523" lon="6.51011">
        <ele>50.1</ele>
        <time>2024-02-04T13:56:48Z</time>
      </trkpt>
      <trkpt lat="43.16524" lon="6.51012">
        <ele>50.1</ele>
        <time>2024-02-04T13:56:49Z</time>
      </trkpt>
      <trkpt lat="43.16524" lon="6.51014">
        <ele>50.2</ele>
        <time>2024-02-04T13:56:50Z</time>
      </trkpt>
      <trkpt lat="43.16524" lon="6.51015">
        <ele>50.2</ele>
        <time>2024-02-04T13:56:51Z</time>
      </trkpt>
      <trkpt lat="43.16524" lon="6.51016">
        <ele>50.2</ele>
        <time>2024-02-04T13:56:52Z</time>
      </trkpt>
      <trkpt lat="43.16524" lon="6.51018">
        <ele>50.2</ele>
        <time>2024-02-04T13:56:53Z</time>
      </trkpt>
      <trkpt lat="43.16524" lon="6.51019">
        <ele>50.1</ele>
        <time>2024-02-04T13:56:54Z</time>
      </trkpt>
      <trkpt lat="43.16523" lon="6.51021">
        <ele>50.1</ele>
        <time>2024-02-04T13:56:55Z</time>
      </trkpt>
      <trkpt lat="43.16523" lon="6.51022">
        <ele>50.1</ele>
        <time>2024-02-04T13:56:56Z</time>
      </trkpt>
      <trkpt lat="43.16523" lon="6.51023">
        <ele>50</ele>
        <time>2024-02-04T13:56:57Z</time>
      </trkpt>
      <trkpt lat="43.16522" lon="6.51025">
        <ele>50</ele>
        <time>2024-02-04T13:56:58Z</time>
      </trkpt>
      <trkpt lat="43.16522" lon="6.51027">
        <ele>50.1</ele>
        <time>2024-02-04T13:56:59Z</time>
      </trkpt>
      <trkpt lat="43.16522" lon="6.51028">
        <ele>50</ele>
        <time>2024-02-04T13:57:00Z</time>
      </trkpt>
      <trkpt lat="43.16521" lon="6.51029">
        <ele>49.9</ele>
        <time>2024-02-04T13:57:01Z</time>
      </trkpt>
      <trkpt lat="43.16521" lon="6.51031">
        <ele>49.8</ele>
        <time>2024-02-04T13:57:02Z</time>
      </trkpt>
      <trkpt lat="43.16521" lon="6.51033">
        <ele>49.8</ele>
        <time>2024-02-04T13:57:03Z</time>
      </trkpt>
      <trkpt lat="43.16521" lon="6.51034">
        <ele>49.8</ele>
        <time>2024-02-04T13:57:04Z</time>
      </trkpt>
      <trkpt lat="43.16522" lon="6.51036">
        <ele>49.8</ele>
        <time>2024-02-04T13:57:05Z</time>
      </trkpt>
      <trkpt lat="43.16522" lon="6.51037">
        <ele>49.8</ele>
        <time>2024-02-04T13:57:06Z</time>
      </trkpt>
      <trkpt lat="43.16523" lon="6.51038">
        <ele>49.8</ele>
        <time>2024-02-04T13:57:07Z</time>
      </trkpt>
      <trkpt lat="43.16522" lon="6.51039">
        <ele>49.8</ele>
        <time>2024-02-04T13:57:08Z</time>
      </trkpt>
      <trkpt lat="43.16522" lon="6.5104">
        <ele>49.8</ele>
        <time>2024-02-04T13:57:09Z</time>
      </trkpt>
      <trkpt lat="43.16522" lon="6.51042">
        <ele>49.8</ele>
        <time>2024-02-04T13:57:10Z</time>
      </trkpt>
      <trkpt lat="43.16522" lon="6.51044">
        <ele>49.7</ele>
        <time>2024-02-04T13:57:11Z</time>
      </trkpt>
      <trkpt lat="43.16522" lon="6.51045">
        <ele>49.6</ele>
        <time>2024-02-04T13:57:12Z</time>
      </trkpt>
      <trkpt lat="43.16521" lon="6.51046">
        <ele>49.5</ele>
        <time>2024-02-04T13:57:13Z</time>
      </trkpt>
      <trkpt lat="43.16521" lon="6.51047">
        <ele>49.4</ele>
        <time>2024-02-04T13:57:14Z</time>
      </trkpt>
      <trkpt lat="43.1652" lon="6.51048">
        <ele>49.3</ele>
        <time>2024-02-04T13:57:15Z</time>
      </trkpt>
      <trkpt lat="43.1652" lon="6.51048">
        <ele>49.2</ele>
        <time>2024-02-04T13:57:16Z</time>
      </trkpt>
      <trkpt lat="43.16519" lon="6.51049">
        <ele>49.1</ele>
        <time>2024-02-04T13:57:17Z</time>
      </trkpt>
      <trkpt lat="43.16518" lon="6.5105">
        <ele>49</ele>
        <time>2024-02-04T13:57:18Z</time>
      </trkpt>
      <trkpt lat="43.16517" lon="6.5105">
        <ele>48.8</ele>
        <time>2024-02-04T13:57:19Z</time>
      </trkpt>
      <trkpt lat="43.16516" lon="6.51051">
        <ele>48.7</ele>
        <time>2024-02-04T13:57:20Z</time>
      </trkpt>
      <trkpt lat="43.16516" lon="6.51051">
        <ele>48.6</ele>
        <time>2024-02-04T13:57:21Z</time>
      </trkpt>
      <trkpt lat="43.16515" lon="6.51052">
        <ele>48.4</ele>
        <time>2024-02-04T13:57:22Z</time>
      </trkpt>
      <trkpt lat="43.16514" lon="6.51052">
        <ele>48.3</ele>
        <time>2024-02-04T13:57:23Z</time>
      </trkpt>
      <trkpt lat="43.16513" lon="6.51052">
        <ele>48.2</ele>
        <time>2024-02-04T13:57:24Z</time>
      </trkpt>
      <trkpt lat="43.16513" lon="6.51052">
        <ele>48.1</ele>
        <time>2024-02-04T13:57:25Z</time>
      </trkpt>
      <trkpt lat="43.16512" lon="6.51052">
        <ele>48</ele>
        <time>2024-02-04T13:57:26Z</time>
      </trkpt>
      <trkpt lat="43.16511" lon="6.51053">
        <ele>47.9</ele>
        <time>2024-02-04T13:57:27Z</time>
      </trkpt>
      <trkpt lat="43.1651" lon="6.51053">
        <ele>47.9</ele>
        <time>2024-02-04T13:57:28Z</time>
      </trkpt>
      <trkpt lat="43.16509" lon="6.51053">
        <ele>47.8</ele>
        <time>2024-02-04T13:57:29Z</time>
      </trkpt>
      <trkpt lat="43.16509" lon="6.51053">
        <ele>47.6</ele>
        <time>2024-02-04T13:57:30Z</time>
      </trkpt>
      <trkpt lat="43.16508" lon="6.51052">
        <ele>47.5</ele>
        <time>2024-02-04T13:57:31Z</time>
      </trkpt>
      <trkpt lat="43.16508" lon="6.51052">
        <ele>47.4</ele>
        <time>2024-02-04T13:57:32Z</time>
      </trkpt>
      <trkpt lat="43.16508" lon="6.51052">
        <ele>47.3</ele>
        <time>2024-02-04T13:57:33Z</time>
      </trkpt>
      <trkpt lat="43.16508" lon="6.51051">
        <ele>47.3</ele>
        <time>2024-02-04T13:57:34Z</time>
      </trkpt>
      <trkpt lat="43.16508" lon="6.51051">
        <ele>47.2</ele>
        <time>2024-02-04T13:57:35Z</time>
      </trkpt>
      <trkpt lat="43.16508" lon="6.51051">
        <ele>47.2</ele>
        <time>2024-02-04T13:57:36Z</time>
      </trkpt>
      <trkpt lat="43.16508" lon="6.51051">
        <ele>47.1</ele>
        <time>2024-02-04T13:57:37Z</time>
      </trkpt>
      <trkpt lat="43.16508" lon="6.51051">
        <ele>47</ele>
        <time>2024-02-04T13:57:38Z</time>
      </trkpt>
      <trkpt lat="43.16508" lon="6.51051">
        <ele>47</ele>
        <time>2024-02-04T13:57:39Z</time>
      </trkpt>
      <trkpt lat="43.16508" lon="6.51051">
        <ele>46.9</ele>
        <time>2024-02-04T13:57:40Z</time>
      </trkpt>
      <trkpt lat="43.16508" lon="6.51051">
        <ele>46.9</ele>
        <time>2024-02-04T13:57:41Z</time>
      </trkpt>
      <trkpt lat="43.16508" lon="6.51051">
        <ele>46.8</ele>
        <time>2024-02-04T13:57:42Z</time>
      </trkpt>
      <trkpt lat="43.16507" lon="6.5105">
        <ele>46.8</ele>
        <time>2024-02-04T13:57:43Z</time>
      </trkpt>
      <trkpt lat="43.16507" lon="6.5105">
        <ele>46.8</ele>
        <time>2024-02-04T13:57:44Z</time>
      </trkpt>
      <trkpt lat="43.16507" lon="6.5105">
        <ele>46.8</ele>
        <time>2024-02-04T13:57:45Z</time>
      </trkpt>
      <trkpt lat="43.16507" lon="6.5105">
        <ele>46.8</ele>
        <time>2024-02-04T13:57:46Z</time>
      </trkpt>
      <trkpt lat="43.16507" lon="6.5105">
        <ele>46.8</ele>
        <time>2024-02-04T13:57:47Z</time>
      </trkpt>
      <trkpt lat="43.16507" lon="6.5105">
        <ele>46.8</ele>
        <time>2024-02-04T13:57:48Z</time>
      </trkpt>
      <trkpt lat="43.16507" lon="6.51051">
        <ele>46.9</ele>
        <time>2024-02-04T13:57:49Z</time>
      </trkpt>
      <trkpt lat="43.16507" lon="6.5105">
        <ele>47</ele>
        <time>2024-02-04T13:57:50Z</time>
      </trkpt>
      <trkpt lat="43.16507" lon="6.5105">
        <ele>47</ele>
        <time>2024-02-04T13:57:51Z</time>
      </trkpt>
      <trkpt lat="43.16507" lon="6.5105">
        <ele>46.9</ele>
        <time>2024-02-04T13:57:52Z</time>
      </trkpt>
      <trkpt lat="43.16507" lon="6.51051">
        <ele>46.8</ele>
        <time>2024-02-04T13:57:53Z</time>
      </trkpt>
      <trkpt lat="43.16507" lon="6.51051">
        <ele>46.8</ele>
        <time>2024-02-04T13:57:54Z</time>
      </trkpt>
      <trkpt lat="43.16507" lon="6.51051">
        <ele>46.8</ele>
        <time>2024-02-04T13:57:55Z</time>
      </trkpt>
      <trkpt lat="43.16507" lon="6.51051">
        <ele>46.7</ele>
        <time>2024-02-04T13:57:56Z</time>
      </trkpt>
      <trkpt lat="43.16506" lon="6.51052">
        <ele>46.6</ele>
        <time>2024-02-04T13:57:57Z</time>
      </trkpt>
      <trkpt lat="43.16506" lon="6.51052">
        <ele>46.6</ele>
        <time>2024-02-04T13:57:58Z</time>
      </trkpt>
      <trkpt lat="43.16506" lon="6.51052">
        <ele>46.5</ele>
        <time>2024-02-04T13:57:59Z</time>
      </trkpt>
      <trkpt lat="43.16506" lon="6.51052">
        <ele>46.4</ele>
        <time>2024-02-04T13:58:00Z</time>
      </trkpt>
      <trkpt lat="43.16506" lon="6.51052">
        <ele>46.4</ele>
        <time>2024-02-04T13:58:01Z</time>
      </trkpt>
      <trkpt lat="43.16506" lon="6.51052">
        <ele>46.3</ele>
        <time>2024-02-04T13:58:02Z</time>
      </trkpt>
      <trkpt lat="43.16506" lon="6.51052">
        <ele>46.3</ele>
        <time>2024-02-04T13:58:03Z</time>
      </trkpt>
      <trkpt lat="43.16506" lon="6.51052">
        <ele>46.4</ele>
        <time>2024-02-04T13:58:04Z</time>
      </trkpt>
      <trkpt lat="43.16506" lon="6.51052">
        <ele>46.4</ele>
        <time>2024-02-04T13:58:05Z</time>
      </trkpt>
      <trkpt lat="43.16506" lon="6.51052">
        <ele>46.4</ele>
        <time>2024-02-04T13:58:06Z</time>
      </trkpt>
      <trkpt lat="43.16506" lon="6.51052">
        <ele>46.3</ele>
        <time>2024-02-04T13:58:07Z</time>
      </trkpt>
      <trkpt lat="43.16506" lon="6.51052">
        <ele>46.2</ele>
        <time>2024-02-04T13:58:08Z</time>
      </trkpt>
      <trkpt lat="43.16506" lon="6.51052">
        <ele>46.2</ele>
        <time>2024-02-04T13:58:09Z</time>
      </trkpt>
      <trkpt lat="43.16505" lon="6.51052">
        <ele>46.2</ele>
        <time>2024-02-04T13:58:10Z</time>
      </trkpt>
      <trkpt lat="43.16505" lon="6.51052">
        <ele>46</ele>
        <time>2024-02-04T13:58:11Z</time>
      </trkpt>
      <trkpt lat="43.16504" lon="6.51052">
        <ele>45.9</ele>
        <time>2024-02-04T13:58:12Z</time>
      </trkpt>
      <trkpt lat="43.16503" lon="6.51052">
        <ele>45.8</ele>
        <time>2024-02-04T13:58:13Z</time>
      </trkpt>
      <trkpt lat="43.16502" lon="6.51052">
        <ele>45.7</ele>
        <time>2024-02-04T13:58:14Z</time>
      </trkpt>
      <trkpt lat="43.16502" lon="6.51052">
        <ele>45.6</ele>
        <time>2024-02-04T13:58:15Z</time>
      </trkpt>
      <trkpt lat="43.16501" lon="6.51052">
        <ele>45.5</ele>
        <time>2024-02-04T13:58:16Z</time>
      </trkpt>
      <trkpt lat="43.16501" lon="6.51052">
        <ele>45.4</ele>
        <time>2024-02-04T13:58:17Z</time>
      </trkpt>
      <trkpt lat="43.165" lon="6.51052">
        <ele>45.2</ele>
        <time>2024-02-04T13:58:18Z</time>
      </trkpt>
      <trkpt lat="43.16499" lon="6.51052">
        <ele>45.1</ele>
        <time>2024-02-04T13:58:19Z</time>
      </trkpt>
      <trkpt lat="43.16498" lon="6.51052">
        <ele>44.9</ele>
        <time>2024-02-04T13:58:20Z</time>
      </trkpt>
      <trkpt lat="43.16497" lon="6.51052">
        <ele>44.7</ele>
        <time>2024-02-04T13:58:21Z</time>
      </trkpt>
      <trkpt lat="43.16497" lon="6.51052">
        <ele>44.5</ele>
        <time>2024-02-04T13:58:22Z</time>
      </trkpt>
      <trkpt lat="43.16497" lon="6.51052">
        <ele>44.3</ele>
        <time>2024-02-04T13:58:23Z</time>
      </trkpt>
      <trkpt lat="43.16497" lon="6.51053">
        <ele>44.1</ele>
        <time>2024-02-04T13:58:24Z</time>
      </trkpt>
      <trkpt lat="43.16497" lon="6.51053">
        <ele>44</ele>
        <time>2024-02-04T13:58:25Z</time>
      </trkpt>
      <trkpt lat="43.16496" lon="6.51053">
        <ele>43.9</ele>
        <time>2024-02-04T13:58:26Z</time>
      </trkpt>
      <trkpt lat="43.16496" lon="6.51053">
        <ele>43.8</ele>
        <time>2024-02-04T13:58:27Z</time>
      </trkpt>
      <trkpt lat="43.16496" lon="6.51053">
        <ele>43.6</ele>
        <time>2024-02-04T13:58:28Z</time>
      </trkpt>
      <trkpt lat="43.16496" lon="6.51053">
        <ele>43.4</ele>
        <time>2024-02-04T13:58:29Z</time>
      </trkpt>
      <trkpt lat="43.16496" lon="6.51053">
        <ele>43.4</ele>
        <time>2024-02-04T13:58:30Z</time>
      </trkpt>
      <trkpt lat="43.16496" lon="6.51053">
        <ele>43.3</ele>
        <time>2024-02-04T13:58:31Z</time>
      </trkpt>
      <trkpt lat="43.16496" lon="6.51054">
        <ele>43.3</ele>
        <time>2024-02-04T13:58:32Z</time>
      </trkpt>
      <trkpt lat="43.16496" lon="6.51053">
        <ele>43.3</ele>
        <time>2024-02-04T13:58:33Z</time>
      </trkpt>
      <trkpt lat="43.16496" lon="6.51053">
        <ele>43.4</ele>
        <time>2024-02-04T13:58:34Z</time>
      </trkpt>
      <trkpt lat="43.16496" lon="6.51053">
        <ele>43.4</ele>
        <time>2024-02-04T13:58:35Z</time>
      </trkpt>
      <trkpt lat="43.16496" lon="6.51053">
        <ele>43.4</ele>
        <time>2024-02-04T13:58:36Z</time>
      </trkpt>
      <trkpt lat="43.16496" lon="6.51053">
        <ele>43.5</ele>
        <time>2024-02-04T13:58:37Z</time>
      </trkpt>
      <trkpt lat="43.16496" lon="6.51053">
        <ele>43.5</ele>
        <time>2024-02-04T13:58:38Z</time>
      </trkpt>
      <trkpt lat="43.16496" lon="6.51053">
        <ele>43.4</ele>
        <time>2024-02-04T13:58:39Z</time>
      </trkpt>
      <trkpt lat="43.16496" lon="6.51053">
        <ele>43.3</ele>
        <time>2024-02-04T13:58:40Z</time>
      </trkpt>
      <trkpt lat="43.16497" lon="6.51053">
        <ele>43.3</ele>
        <time>2024-02-04T13:58:41Z</time>
      </trkpt>
      <trkpt lat="43.16497" lon="6.51053">
        <ele>43.2</ele>
        <time>2024-02-04T13:58:42Z</time>
      </trkpt>
      <trkpt lat="43.16497" lon="6.51053">
        <ele>43.2</ele>
        <time>2024-02-04T13:58:43Z</time>
      </trkpt>
      <trkpt lat="43.16497" lon="6.51053">
        <ele>43.3</ele>
        <time>2024-02-04T13:58:44Z</time>
      </trkpt>
      <trkpt lat="43.16497" lon="6.51053">
        <ele>43.3</ele>
        <time>2024-02-04T13:58:45Z</time>
      </trkpt>
      <trkpt lat="43.16497" lon="6.51053">
        <ele>43.3</ele>
        <time>2024-02-04T13:58:46Z</time>
      </trkpt>
      <trkpt lat="43.16497" lon="6.51053">
        <ele>43.3</ele>
        <time>2024-02-04T13:58:47Z</time>
      </trkpt>
      <trkpt lat="43.16497" lon="6.51053">
        <ele>43.3</ele>
        <time>2024-02-04T13:58:48Z</time>
      </trkpt>
      <trkpt lat="43.16496" lon="6.51054">
        <ele>43.3</ele>
        <time>2024-02-04T13:58:49Z</time>
      </trkpt>
      <trkpt lat="43.16496" lon="6.51054">
        <ele>43.3</ele>
        <time>2024-02-04T13:58:50Z</time>
      </trkpt>
      <trkpt lat="43.16495" lon="6.51054">
        <ele>43.1</ele>
        <time>2024-02-04T13:58:51Z</time>
      </trkpt>
      <trkpt lat="43.16494" lon="6.51055">
        <ele>42.9</ele>
        <time>2024-02-04T13:58:52Z</time>
      </trkpt>
      <trkpt lat="43.16493" lon="6.51055">
        <ele>42.7</ele>
        <time>2024-02-04T13:58:53Z</time>
      </trkpt>
      <trkpt lat="43.16492" lon="6.51056">
        <ele>42.6</ele>
        <time>2024-02-04T13:58:54Z</time>
      </trkpt>
      <trkpt lat="43.16492" lon="6.51056">
        <ele>42.4</ele>
        <time>2024-02-04T13:58:55Z</time>
      </trkpt>
      <trkpt lat="43.16492" lon="6.51056">
        <ele>42.2</ele>
        <time>2024-02-04T13:58:56Z</time>
      </trkpt>
      <trkpt lat="43.16491" lon="6.51055">
        <ele>41.8</ele>
        <time>2024-02-04T13:58:57Z</time>
      </trkpt>
      <trkpt lat="43.16491" lon="6.51055">
        <ele>41.6</ele>
        <time>2024-02-04T13:58:58Z</time>
      </trkpt>
      <trkpt lat="43.1649" lon="6.51055">
        <ele>41.4</ele>
        <time>2024-02-04T13:58:59Z</time>
      </trkpt>
      <trkpt lat="43.16489" lon="6.51056">
        <ele>41.1</ele>
        <time>2024-02-04T13:59:00Z</time>
      </trkpt>
      <trkpt lat="43.16488" lon="6.51056">
        <ele>40.8</ele>
        <time>2024-02-04T13:59:01Z</time>
      </trkpt>
      <trkpt lat="43.16487" lon="6.51057">
        <ele>40.5</ele>
        <time>2024-02-04T13:59:02Z</time>
      </trkpt>
      <trkpt lat="43.16487" lon="6.51059">
        <ele>40.2</ele>
        <time>2024-02-04T13:59:03Z</time>
      </trkpt>
      <trkpt lat="43.16485" lon="6.5106">
        <ele>40.1</ele>
        <time>2024-02-04T13:59:04Z</time>
      </trkpt>
      <trkpt lat="43.16484" lon="6.51062">
        <ele>39.9</ele>
        <time>2024-02-04T13:59:05Z</time>
      </trkpt>
      <trkpt lat="43.16483" lon="6.51064">
        <ele>39.8</ele>
        <time>2024-02-04T13:59:06Z</time>
      </trkpt>
      <trkpt lat="43.16483" lon="6.51065">
        <ele>39.7</ele>
        <time>2024-02-04T13:59:07Z</time>
      </trkpt>
      <trkpt lat="43.16483" lon="6.51066">
        <ele>39.7</ele>
        <time>2024-02-04T13:59:08Z</time>
      </trkpt>
      <trkpt lat="43.16483" lon="6.51068">
        <ele>39.6</ele>
        <time>2024-02-04T13:59:09Z</time>
      </trkpt>
      <trkpt lat="43.16483" lon="6.51069">
        <ele>39.6</ele>
        <time>2024-02-04T13:59:10Z</time>
      </trkpt>
      <trkpt lat="43.16484" lon="6.51071">
        <ele>39.6</ele>
        <time>2024-02-04T13:59:11Z</time>
      </trkpt>
      <trkpt lat="43.16484" lon="6.51072">
        <ele>39.6</ele>
        <time>2024-02-04T13:59:12Z</time>
      </trkpt>
      <trkpt lat="43.16486" lon="6.51073">
        <ele>39.5</ele>
        <time>2024-02-04T13:59:13Z</time>
      </trkpt>
      <trkpt lat="43.16486" lon="6.51074">
        <ele>39.5</ele>
        <time>2024-02-04T13:59:14Z</time>
      </trkpt>
      <trkpt lat="43.16486" lon="6.51075">
        <ele>39.4</ele>
        <time>2024-02-04T13:59:15Z</time>
      </trkpt>
      <trkpt lat="43.16486" lon="6.51076">
        <ele>39.4</ele>
        <time>2024-02-04T13:59:16Z</time>
      </trkpt>
      <trkpt lat="43.16487" lon="6.51077">
        <ele>39.4</ele>
        <time>2024-02-04T13:59:17Z</time>
      </trkpt>
      <trkpt lat="43.16487" lon="6.51078">
        <ele>39.4</ele>
        <time>2024-02-04T13:59:18Z</time>
      </trkpt>
      <trkpt lat="43.16488" lon="6.51079">
        <ele>39.5</ele>
        <time>2024-02-04T13:59:19Z</time>
      </trkpt>
      <trkpt lat="43.16489" lon="6.5108">
        <ele>39.6</ele>
        <time>2024-02-04T13:59:20Z</time>
      </trkpt>
      <trkpt lat="43.16489" lon="6.5108">
        <ele>39.7</ele>
        <time>2024-02-04T13:59:21Z</time>
      </trkpt>
      <trkpt lat="43.16489" lon="6.51081">
        <ele>39.9</ele>
        <time>2024-02-04T13:59:22Z</time>
      </trkpt>
      <trkpt lat="43.1649" lon="6.51082">
        <ele>40.2</ele>
        <time>2024-02-04T13:59:23Z</time>
      </trkpt>
      <trkpt lat="43.1649" lon="6.51083">
        <ele>40.3</ele>
        <time>2024-02-04T13:59:24Z</time>
      </trkpt>
      <trkpt lat="43.16491" lon="6.51085">
        <ele>40.4</ele>
        <time>2024-02-04T13:59:25Z</time>
      </trkpt>
      <trkpt lat="43.16492" lon="6.51086">
        <ele>40.5</ele>
        <time>2024-02-04T13:59:26Z</time>
      </trkpt>
      <trkpt lat="43.16494" lon="6.51088">
        <ele>40.5</ele>
        <time>2024-02-04T13:59:27Z</time>
      </trkpt>
      <trkpt lat="43.16496" lon="6.51089">
        <ele>40.5</ele>
        <time>2024-02-04T13:59:28Z</time>
      </trkpt>
      <trkpt lat="43.16496" lon="6.5109">
        <ele>40.4</ele>
        <time>2024-02-04T13:59:29Z</time>
      </trkpt>
      <trkpt lat="43.16497" lon="6.51091">
        <ele>40.4</ele>
        <time>2024-02-04T13:59:30Z</time>
      </trkpt>
      <trkpt lat="43.16498" lon="6.51092">
        <ele>40.2</ele>
        <time>2024-02-04T13:59:31Z</time>
      </trkpt>
      <trkpt lat="43.16498" lon="6.51093">
        <ele>40.2</ele>
        <time>2024-02-04T13:59:32Z</time>
      </trkpt>
      <trkpt lat="43.16499" lon="6.51095">
        <ele>40.4</ele>
        <time>2024-02-04T13:59:33Z</time>
      </trkpt>
      <trkpt lat="43.16499" lon="6.51097">
        <ele>40.5</ele>
        <time>2024-02-04T13:59:34Z</time>
      </trkpt>
      <trkpt lat="43.165" lon="6.51098">
        <ele>40.5</ele>
        <time>2024-02-04T13:59:35Z</time>
      </trkpt>
      <trkpt lat="43.16501" lon="6.51099">
        <ele>40.5</ele>
        <time>2024-02-04T13:59:36Z</time>
      </trkpt>
      <trkpt lat="43.16503" lon="6.51099">
        <ele>40.6</ele>
        <time>2024-02-04T13:59:37Z</time>
      </trkpt>
      <trkpt lat="43.16504" lon="6.511">
        <ele>40.6</ele>
        <time>2024-02-04T13:59:38Z</time>
      </trkpt>
      <trkpt lat="43.16505" lon="6.51101">
        <ele>40.5</ele>
        <time>2024-02-04T13:59:39Z</time>
      </trkpt>
      <trkpt lat="43.16506" lon="6.51102">
        <ele>40.4</ele>
        <time>2024-02-04T13:59:40Z</time>
      </trkpt>
      <trkpt lat="43.16507" lon="6.51101">
        <ele>40.3</ele>
        <time>2024-02-04T13:59:41Z</time>
      </trkpt>
      <trkpt lat="43.16508" lon="6.51102">
        <ele>40.2</ele>
        <time>2024-02-04T13:59:42Z</time>
      </trkpt>
      <trkpt lat="43.16509" lon="6.51103">
        <ele>40.1</ele>
        <time>2024-02-04T13:59:43Z</time>
      </trkpt>
      <trkpt lat="43.1651" lon="6.51104">
        <ele>40</ele>
        <time>2024-02-04T13:59:44Z</time>
      </trkpt>
      <trkpt lat="43.1651" lon="6.51104">
        <ele>39.9</ele>
        <time>2024-02-04T13:59:45Z</time>
      </trkpt>
      <trkpt lat="43.16511" lon="6.51104">
        <ele>39.7</ele>
        <time>2024-02-04T13:59:46Z</time>
      </trkpt>
      <trkpt lat="43.16513" lon="6.51105">
        <ele>39.5</ele>
        <time>2024-02-04T13:59:47Z</time>
      </trkpt>
      <trkpt lat="43.16514" lon="6.51106">
        <ele>39.3</ele>
        <time>2024-02-04T13:59:48Z</time>
      </trkpt>
      <trkpt lat="43.16516" lon="6.51105">
        <ele>39.2</ele>
        <time>2024-02-04T13:59:49Z</time>
      </trkpt>
      <trkpt lat="43.16517" lon="6.51106">
        <ele>39.1</ele>
        <time>2024-02-04T13:59:50Z</time>
      </trkpt>
      <trkpt lat="43.16518" lon="6.51106">
        <ele>38.9</ele>
        <time>2024-02-04T13:59:51Z</time>
      </trkpt>
      <trkpt lat="43.16519" lon="6.51107">
        <ele>38.8</ele>
        <time>2024-02-04T13:59:52Z</time>
      </trkpt>
      <trkpt lat="43.1652" lon="6.51108">
        <ele>38.7</ele>
        <time>2024-02-04T13:59:53Z</time>
      </trkpt>
      <trkpt lat="43.16521" lon="6.51108">
        <ele>38.6</ele>
        <time>2024-02-04T13:59:54Z</time>
      </trkpt>
      <trkpt lat="43.16523" lon="6.51108">
        <ele>38.5</ele>
        <time>2024-02-04T13:59:55Z</time>
      </trkpt>
      <trkpt lat="43.16524" lon="6.51108">
        <ele>38.2</ele>
        <time>2024-02-04T13:59:56Z</time>
      </trkpt>
      <trkpt lat="43.16525" lon="6.51109">
        <ele>38.1</ele>
        <time>2024-02-04T13:59:57Z</time>
      </trkpt>
      <trkpt lat="43.16526" lon="6.5111">
        <ele>38</ele>
        <time>2024-02-04T13:59:58Z</time>
      </trkpt>
      <trkpt lat="43.16527" lon="6.5111">
        <ele>37.9</ele>
        <time>2024-02-04T13:59:59Z</time>
      </trkpt>
      <trkpt lat="43.16528" lon="6.51111">
        <ele>37.7</ele>
        <time>2024-02-04T14:00:00Z</time>
      </trkpt>
      <trkpt lat="43.16529" lon="6.51112">
        <ele>37.6</ele>
        <time>2024-02-04T14:00:01Z</time>
      </trkpt>
      <trkpt lat="43.1653" lon="6.51114">
        <ele>37.4</ele>
        <time>2024-02-04T14:00:02Z</time>
      </trkpt>
      <trkpt lat="43.16531" lon="6.51115">
        <ele>37.4</ele>
        <time>2024-02-04T14:00:03Z</time>
      </trkpt>
      <trkpt lat="43.16532" lon="6.51116">
        <ele>37.3</ele>
        <time>2024-02-04T14:00:04Z</time>
      </trkpt>
      <trkpt lat="43.16532" lon="6.51117">
        <ele>37</ele>
        <time>2024-02-04T14:00:05Z</time>
      </trkpt>
      <trkpt lat="43.16533" lon="6.51118">
        <ele>36.9</ele>
        <time>2024-02-04T14:00:06Z</time>
      </trkpt>
      <trkpt lat="43.16534" lon="6.51119">
        <ele>36.9</ele>
        <time>2024-02-04T14:00:07Z</time>
      </trkpt>
      <trkpt lat="43.16535" lon="6.5112">
        <ele>36.8</ele>
        <time>2024-02-04T14:00:08Z</time>
      </trkpt>
      <trkpt lat="43.16536" lon="6.5112">
        <ele>36.8</ele>
        <time>2024-02-04T14:00:09Z</time>
      </trkpt>
      <trkpt lat="43.16537" lon="6.51121">
        <ele>36.7</ele>
        <time>2024-02-04T14:00:10Z</time>
      </trkpt>
      <trkpt lat="43.16538" lon="6.51122">
        <ele>36.6</ele>
        <time>2024-02-04T14:00:11Z</time>
      </trkpt>
      <trkpt lat="43.16539" lon="6.51123">
        <ele>36.6</ele>
        <time>2024-02-04T14:00:12Z</time>
      </trkpt>
      <trkpt lat="43.1654" lon="6.51124">
        <ele>36.5</ele>
        <time>2024-02-04T14:00:13Z</time>
      </trkpt>
      <trkpt lat="43.1654" lon="6.51125">
        <ele>36.5</ele>
        <time>2024-02-04T14:00:14Z</time>
      </trkpt>
      <trkpt lat="43.16541" lon="6.51126">
        <ele>36.3</ele>
        <time>2024-02-04T14:00:15Z</time>
      </trkpt>
      <trkpt lat="43.16542" lon="6.51127">
        <ele>36.2</ele>
        <time>2024-02-04T14:00:16Z</time>
      </trkpt>
      <trkpt lat="43.16543" lon="6.51128">
        <ele>36.2</ele>
        <time>2024-02-04T14:00:17Z</time>
      </trkpt>
      <trkpt lat="43.16544" lon="6.51128">
        <ele>36</ele>
        <time>2024-02-04T14:00:18Z</time>
      </trkpt>
      <trkpt lat="43.16545" lon="6.51129">
        <ele>35.8</ele>
        <time>2024-02-04T14:00:19Z</time>
      </trkpt>
      <trkpt lat="43.16546" lon="6.51131">
        <ele>35.7</ele>
        <time>2024-02-04T14:00:20Z</time>
      </trkpt>
      <trkpt lat="43.16547" lon="6.51132">
        <ele>35.6</ele>
        <time>2024-02-04T14:00:21Z</time>
      </trkpt>
      <trkpt lat="43.16548" lon="6.51133">
        <ele>35.4</ele>
        <time>2024-02-04T14:00:22Z</time>
      </trkpt>
      <trkpt lat="43.16549" lon="6.51134">
        <ele>35.3</ele>
        <time>2024-02-04T14:00:23Z</time>
      </trkpt>
      <trkpt lat="43.16549" lon="6.51136">
        <ele>35.1</ele>
        <time>2024-02-04T14:00:24Z</time>
      </trkpt>
      <trkpt lat="43.1655" lon="6.51137">
        <ele>35.1</ele>
        <time>2024-02-04T14:00:25Z</time>
      </trkpt>
      <trkpt lat="43.16551" lon="6.51137">
        <ele>34.9</ele>
        <time>2024-02-04T14:00:26Z</time>
      </trkpt>
      <trkpt lat="43.16551" lon="6.51139">
        <ele>34.8</ele>
        <time>2024-02-04T14:00:27Z</time>
      </trkpt>
      <trkpt lat="43.16552" lon="6.5114">
        <ele>34.7</ele>
        <time>2024-02-04T14:00:28Z</time>
      </trkpt>
      <trkpt lat="43.16552" lon="6.51141">
        <ele>34.6</ele>
        <time>2024-02-04T14:00:29Z</time>
      </trkpt>
      <trkpt lat="43.16553" lon="6.51142">
        <ele>34.4</ele>
        <time>2024-02-04T14:00:30Z</time>
      </trkpt>
      <trkpt lat="43.16553" lon="6.51143">
        <ele>34.3</ele>
        <time>2024-02-04T14:00:31Z</time>
      </trkpt>
      <trkpt lat="43.16554" lon="6.51144">
        <ele>34.2</ele>
        <time>2024-02-04T14:00:32Z</time>
      </trkpt>
      <trkpt lat="43.16555" lon="6.51145">
        <ele>34</ele>
        <time>2024-02-04T14:00:33Z</time>
      </trkpt>
      <trkpt lat="43.16555" lon="6.51146">
        <ele>33.8</ele>
        <time>2024-02-04T14:00:34Z</time>
      </trkpt>
      <trkpt lat="43.16556" lon="6.51147">
        <ele>33.6</ele>
        <time>2024-02-04T14:00:35Z</time>
      </trkpt>
      <trkpt lat="43.16557" lon="6.51148">
        <ele>33.5</ele>
        <time>2024-02-04T14:00:36Z</time>
      </trkpt>
      <trkpt lat="43.16557" lon="6.51149">
        <ele>33.4</ele>
        <time>2024-02-04T14:00:37Z</time>
      </trkpt>
      <trkpt lat="43.16558" lon="6.5115">
        <ele>33.2</ele>
        <time>2024-02-04T14:00:38Z</time>
      </trkpt>
      <trkpt lat="43.16559" lon="6.5115">
        <ele>33</ele>
        <time>2024-02-04T14:00:39Z</time>
      </trkpt>
      <trkpt lat="43.16559" lon="6.5115">
        <ele>32.8</ele>
        <time>2024-02-04T14:00:40Z</time>
      </trkpt>
      <trkpt lat="43.1656" lon="6.5115">
        <ele>32.6</ele>
        <time>2024-02-04T14:00:41Z</time>
      </trkpt>
      <trkpt lat="43.1656" lon="6.5115">
        <ele>32.4</ele>
        <time>2024-02-04T14:00:42Z</time>
      </trkpt>
      <trkpt lat="43.16561" lon="6.51149">
        <ele>32.2</ele>
        <time>2024-02-04T14:00:43Z</time>
      </trkpt>
      <trkpt lat="43.16561" lon="6.51148">
        <ele>31.9</ele>
        <time>2024-02-04T14:00:44Z</time>
      </trkpt>
      <trkpt lat="43.16562" lon="6.51147">
        <ele>31.6</ele>
        <time>2024-02-04T14:00:45Z</time>
      </trkpt>
      <trkpt lat="43.16563" lon="6.51146">
        <ele>31.4</ele>
        <time>2024-02-04T14:00:46Z</time>
      </trkpt>
      <trkpt lat="43.16563" lon="6.51145">
        <ele>31.2</ele>
        <time>2024-02-04T14:00:47Z</time>
      </trkpt>
      <trkpt lat="43.16563" lon="6.51145">
        <ele>30.9</ele>
        <time>2024-02-04T14:00:48Z</time>
      </trkpt>
      <trkpt lat="43.16563" lon="6.51145">
        <ele>30.7</ele>
        <time>2024-02-04T14:00:49Z</time>
      </trkpt>
      <trkpt lat="43.16563" lon="6.51144">
        <ele>30.5</ele>
        <time>2024-02-04T14:00:50Z</time>
      </trkpt>
      <trkpt lat="43.16563" lon="6.51144">
        <ele>30.3</ele>
        <time>2024-02-04T14:00:51Z</time>
      </trkpt>
      <trkpt lat="43.16563" lon="6.51143">
        <ele>30.1</ele>
        <time>2024-02-04T14:00:52Z</time>
      </trkpt>
      <trkpt lat="43.16564" lon="6.51141">
        <ele>29.8</ele>
        <time>2024-02-04T14:00:53Z</time>
      </trkpt>
      <trkpt lat="43.16565" lon="6.51141">
        <ele>29.6</ele>
        <time>2024-02-04T14:00:54Z</time>
      </trkpt>
      <trkpt lat="43.16565" lon="6.5114">
        <ele>29.4</ele>
        <time>2024-02-04T14:00:55Z</time>
      </trkpt>
      <trkpt lat="43.16566" lon="6.51139">
        <ele>29.1</ele>
        <time>2024-02-04T14:00:56Z</time>
      </trkpt>
      <trkpt lat="43.16566" lon="6.51138">
        <ele>28.7</ele>
        <time>2024-02-04T14:00:57Z</time>
      </trkpt>
      <trkpt lat="43.16566" lon="6.51137">
        <ele>28.4</ele>
        <time>2024-02-04T14:00:58Z</time>
      </trkpt>
      <trkpt lat="43.16567" lon="6.51137">
        <ele>28</ele>
        <time>2024-02-04T14:00:59Z</time>
      </trkpt>
      <trkpt lat="43.16567" lon="6.51136">
        <ele>27.8</ele>
        <time>2024-02-04T14:01:00Z</time>
      </trkpt>
      <trkpt lat="43.16568" lon="6.51135">
        <ele>27.6</ele>
        <time>2024-02-04T14:01:01Z</time>
      </trkpt>
      <trkpt lat="43.16569" lon="6.51135">
        <ele>27.3</ele>
        <time>2024-02-04T14:01:02Z</time>
      </trkpt>
      <trkpt lat="43.16571" lon="6.51134">
        <ele>27</ele>
        <time>2024-02-04T14:01:03Z</time>
      </trkpt>
      <trkpt lat="43.16571" lon="6.51133">
        <ele>26.8</ele>
        <time>2024-02-04T14:01:04Z</time>
      </trkpt>
      <trkpt lat="43.16571" lon="6.51132">
        <ele>26.6</ele>
        <time>2024-02-04T14:01:05Z</time>
      </trkpt>
      <trkpt lat="43.16572" lon="6.51131">
        <ele>26.3</ele>
        <time>2024-02-04T14:01:06Z</time>
      </trkpt>
      <trkpt lat="43.16572" lon="6.51131">
        <ele>26.1</ele>
        <time>2024-02-04T14:01:07Z</time>
      </trkpt>
      <trkpt lat="43.16572" lon="6.51131">
        <ele>25.9</ele>
        <time>2024-02-04T14:01:08Z</time>
      </trkpt>
      <trkpt lat="43.16573" lon="6.5113">
        <ele>25.8</ele>
        <time>2024-02-04T14:01:09Z</time>
      </trkpt>
      <trkpt lat="43.16574" lon="6.51131">
        <ele>25.7</ele>
        <time>2024-02-04T14:01:10Z</time>
      </trkpt>
      <trkpt lat="43.16574" lon="6.51131">
        <ele>25.6</ele>
        <time>2024-02-04T14:01:11Z</time>
      </trkpt>
      <trkpt lat="43.16574" lon="6.51132">
        <ele>25.5</ele>
        <time>2024-02-04T14:01:12Z</time>
      </trkpt>
      <trkpt lat="43.16575" lon="6.51132">
        <ele>25.4</ele>
        <time>2024-02-04T14:01:13Z</time>
      </trkpt>
      <trkpt lat="43.16575" lon="6.51132">
        <ele>25.2</ele>
        <time>2024-02-04T14:01:14Z</time>
      </trkpt>
      <trkpt lat="43.16575" lon="6.51133">
        <ele>25.2</ele>
        <time>2024-02-04T14:01:15Z</time>
      </trkpt>
      <trkpt lat="43.16575" lon="6.51133">
        <ele>25.1</ele>
        <time>2024-02-04T14:01:16Z</time>
      </trkpt>
      <trkpt lat="43.16575" lon="6.51133">
        <ele>24.9</ele>
        <time>2024-02-04T14:01:17Z</time>
      </trkpt>
      <trkpt lat="43.16575" lon="6.51133">
        <ele>24.8</ele>
        <time>2024-02-04T14:01:18Z</time>
      </trkpt>
      <trkpt lat="43.16575" lon="6.51133">
        <ele>24.7</ele>
        <time>2024-02-04T14:01:19Z</time>
      </trkpt>
      <trkpt lat="43.16575" lon="6.51132">
        <ele>24.6</ele>
        <time>2024-02-04T14:01:20Z</time>
      </trkpt>
      <trkpt lat="43.16576" lon="6.51132">
        <ele>24.5</ele>
        <time>2024-02-04T14:01:21Z</time>
      </trkpt>
      <trkpt lat="43.16575" lon="6.51132">
        <ele>24.4</ele>
        <time>2024-02-04T14:01:22Z</time>
      </trkpt>
      <trkpt lat="43.16576" lon="6.51132">
        <ele>24.4</ele>
        <time>2024-02-04T14:01:23Z</time>
      </trkpt>
      <trkpt lat="43.16575" lon="6.51132">
        <ele>24.3</ele>
        <time>2024-02-04T14:01:24Z</time>
      </trkpt>
      <trkpt lat="43.16575" lon="6.51133">
        <ele>24.3</ele>
        <time>2024-02-04T14:01:25Z</time>
      </trkpt>
      <trkpt lat="43.16576" lon="6.51133">
        <ele>24.2</ele>
        <time>2024-02-04T14:01:26Z</time>
      </trkpt>
      <trkpt lat="43.16576" lon="6.51134">
        <ele>24.2</ele>
        <time>2024-02-04T14:01:27Z</time>
      </trkpt>
      <trkpt lat="43.16576" lon="6.51134">
        <ele>24</ele>
        <time>2024-02-04T14:01:28Z</time>
      </trkpt>
      <trkpt lat="43.16576" lon="6.51135">
        <ele>24</ele>
        <time>2024-02-04T14:01:29Z</time>
      </trkpt>
      <trkpt lat="43.16576" lon="6.51136">
        <ele>23.8</ele>
        <time>2024-02-04T14:01:30Z</time>
      </trkpt>
      <trkpt lat="43.16576" lon="6.51137">
        <ele>23.7</ele>
        <time>2024-02-04T14:01:31Z</time>
      </trkpt>
      <trkpt lat="43.16576" lon="6.51138">
        <ele>23.6</ele>
        <time>2024-02-04T14:01:32Z</time>
      </trkpt>
      <trkpt lat="43.16576" lon="6.51139">
        <ele>23.5</ele>
        <time>2024-02-04T14:01:33Z</time>
      </trkpt>
      <trkpt lat="43.16576" lon="6.5114">
        <ele>23.3</ele>
        <time>2024-02-04T14:01:34Z</time>
      </trkpt>
      <trkpt lat="43.16576" lon="6.51141">
        <ele>23.2</ele>
        <time>2024-02-04T14:01:35Z</time>
      </trkpt>
      <trkpt lat="43.16576" lon="6.51142">
        <ele>23.1</ele>
        <time>2024-02-04T14:01:36Z</time>
      </trkpt>
      <trkpt lat="43.16576" lon="6.51142">
        <ele>23</ele>
        <time>2024-02-04T14:01:37Z</time>
      </trkpt>
      <trkpt lat="43.16575" lon="6.51143">
        <ele>23</ele>
        <time>2024-02-04T14:01:38Z</time>
      </trkpt>
      <trkpt lat="43.16576" lon="6.51144">
        <ele>22.9</ele>
        <time>2024-02-04T14:01:39Z</time>
      </trkpt>
      <trkpt lat="43.16576" lon="6.51145">
        <ele>22.8</ele>
        <time>2024-02-04T14:01:40Z</time>
      </trkpt>
      <trkpt lat="43.16576" lon="6.51146">
        <ele>22.6</ele>
        <time>2024-02-04T14:01:41Z</time>
      </trkpt>
      <trkpt lat="43.16576" lon="6.51147">
        <ele>22.6</ele>
        <time>2024-02-04T14:01:42Z</time>
      </trkpt>
      <trkpt lat="43.16577" lon="6.51148">
        <ele>22.5</ele>
        <time>2024-02-04T14:01:43Z</time>
      </trkpt>
      <trkpt lat="43.16577" lon="6.51148">
        <ele>22.4</ele>
        <time>2024-02-04T14:01:44Z</time>
      </trkpt>
      <trkpt lat="43.16578" lon="6.51149">
        <ele>22.4</ele>
        <time>2024-02-04T14:01:45Z</time>
      </trkpt>
      <trkpt lat="43.16578" lon="6.51151">
        <ele>22.3</ele>
        <time>2024-02-04T14:01:46Z</time>
      </trkpt>
      <trkpt lat="43.16578" lon="6.51152">
        <ele>22.3</ele>
        <time>2024-02-04T14:01:47Z</time>
      </trkpt>
      <trkpt lat="43.16578" lon="6.51154">
        <ele>22.3</ele>
        <time>2024-02-04T14:01:48Z</time>
      </trkpt>
      <trkpt lat="43.16578" lon="6.51155">
        <ele>22.3</ele>
        <time>2024-02-04T14:01:49Z</time>
      </trkpt>
      <trkpt lat="43.16578" lon="6.51157">
        <ele>22.3</ele>
        <time>2024-02-04T14:01:50Z</time>
      </trkpt>
      <trkpt lat="43.16578" lon="6.51158">
        <ele>22.3</ele>
        <time>2024-02-04T14:01:51Z</time>
      </trkpt>
      <trkpt lat="43.16578" lon="6.51159">
        <ele>22.2</ele>
        <time>2024-02-04T14:01:52Z</time>
      </trkpt>
      <trkpt lat="43.16578" lon="6.5116">
        <ele>22.2</ele>
        <time>2024-02-04T14:01:53Z</time>
      </trkpt>
      <trkpt lat="43.16578" lon="6.51162">
        <ele>22.2</ele>
        <time>2024-02-04T14:01:54Z</time>
      </trkpt>
      <trkpt lat="43.16578" lon="6.51163">
        <ele>22.2</ele>
        <time>2024-02-04T14:01:55Z</time>
      </trkpt>
      <trkpt lat="43.16578" lon="6.51164">
        <ele>22.1</ele>
        <time>2024-02-04T14:01:56Z</time>
      </trkpt>
      <trkpt lat="43.16578" lon="6.51166">
        <ele>22.1</ele>
        <time>2024-02-04T14:01:57Z</time>
      </trkpt>
      <trkpt lat="43.16578" lon="6.51167">
        <ele>22.2</ele>
        <time>2024-02-04T14:01:58Z</time>
      </trkpt>
      <trkpt lat="43.16578" lon="6.51169">
        <ele>22.2</ele>
        <time>2024-02-04T14:01:59Z</time>
      </trkpt>
      <trkpt lat="43.16577" lon="6.5117">
        <ele>22.2</ele>
        <time>2024-02-04T14:02:00Z</time>
      </trkpt>
      <trkpt lat="43.16578" lon="6.51171">
        <ele>22.2</ele>
        <time>2024-02-04T14:02:01Z</time>
      </trkpt>
      <trkpt lat="43.16578" lon="6.51173">
        <ele>22.3</ele>
        <time>2024-02-04T14:02:02Z</time>
      </trkpt>
      <trkpt lat="43.16579" lon="6.51174">
        <ele>22.3</ele>
        <time>2024-02-04T14:02:03Z</time>
      </trkpt>
      <trkpt lat="43.1658" lon="6.51174">
        <ele>22.3</ele>
        <time>2024-02-04T14:02:04Z</time>
      </trkpt>
      <trkpt lat="43.16581" lon="6.51175">
        <ele>22.3</ele>
        <time>2024-02-04T14:02:05Z</time>
      </trkpt>
      <trkpt lat="43.16581" lon="6.51175">
        <ele>22.2</ele>
        <time>2024-02-04T14:02:06Z</time>
      </trkpt>
      <trkpt lat="43.16581" lon="6.51176">
        <ele>22.2</ele>
        <time>2024-02-04T14:02:07Z</time>
      </trkpt>
      <trkpt lat="43.16581" lon="6.51177">
        <ele>22.2</ele>
        <time>2024-02-04T14:02:08Z</time>
      </trkpt>
      <trkpt lat="43.16581" lon="6.51178">
        <ele>22.2</ele>
        <time>2024-02-04T14:02:09Z</time>
      </trkpt>
      <trkpt lat="43.16581" lon="6.51179">
        <ele>22.3</ele>
        <time>2024-02-04T14:02:10Z</time>
      </trkpt>
      <trkpt lat="43.16581" lon="6.5118">
        <ele>22.3</ele>
        <time>2024-02-04T14:02:11Z</time>
      </trkpt>
      <trkpt lat="43.16581" lon="6.51181">
        <ele>22.5</ele>
        <time>2024-02-04T14:02:12Z</time>
      </trkpt>
      <trkpt lat="43.16581" lon="6.51182">
        <ele>22.6</ele>
        <time>2024-02-04T14:02:13Z</time>
      </trkpt>
      <trkpt lat="43.16581" lon="6.51183">
        <ele>22.7</ele>
        <time>2024-02-04T14:02:14Z</time>
      </trkpt>
      <trkpt lat="43.16582" lon="6.51184">
        <ele>22.8</ele>
        <time>2024-02-04T14:02:15Z</time>
      </trkpt>
      <trkpt lat="43.16582" lon="6.51185">
        <ele>22.9</ele>
        <time>2024-02-04T14:02:16Z</time>
      </trkpt>
      <trkpt lat="43.16582" lon="6.51186">
        <ele>22.9</ele>
        <time>2024-02-04T14:02:17Z</time>
      </trkpt>
      <trkpt lat="43.16582" lon="6.51188">
        <ele>23.1</ele>
        <time>2024-02-04T14:02:18Z</time>
      </trkpt>
      <trkpt lat="43.16582" lon="6.51189">
        <ele>23.2</ele>
        <time>2024-02-04T14:02:19Z</time>
      </trkpt>
      <trkpt lat="43.16582" lon="6.5119">
        <ele>23.3</ele>
        <time>2024-02-04T14:02:20Z</time>
      </trkpt>
      <trkpt lat="43.16583" lon="6.51191">
        <ele>23.5</ele>
        <time>2024-02-04T14:02:21Z</time>
      </trkpt>
      <trkpt lat="43.16583" lon="6.51192">
        <ele>23.5</ele>
        <time>2024-02-04T14:02:22Z</time>
      </trkpt>
      <trkpt lat="43.16583" lon="6.51193">
        <ele>23.6</ele>
        <time>2024-02-04T14:02:23Z</time>
      </trkpt>
      <trkpt lat="43.16584" lon="6.51194">
        <ele>23.7</ele>
        <time>2024-02-04T14:02:24Z</time>
      </trkpt>
      <trkpt lat="43.16584" lon="6.51195">
        <ele>23.8</ele>
        <time>2024-02-04T14:02:25Z</time>
      </trkpt>
      <trkpt lat="43.16584" lon="6.51196">
        <ele>23.9</ele>
        <time>2024-02-04T14:02:26Z</time>
      </trkpt>
      <trkpt lat="43.16584" lon="6.51198">
        <ele>24.1</ele>
        <time>2024-02-04T14:02:27Z</time>
      </trkpt>
      <trkpt lat="43.16585" lon="6.51199">
        <ele>24</ele>
        <time>2024-02-04T14:02:28Z</time>
      </trkpt>
      <trkpt lat="43.16586" lon="6.51201">
        <ele>24</ele>
        <time>2024-02-04T14:02:29Z</time>
      </trkpt>
      <trkpt lat="43.16586" lon="6.51202">
        <ele>23.9</ele>
        <time>2024-02-04T14:02:30Z</time>
      </trkpt>
      <trkpt lat="43.16586" lon="6.51203">
        <ele>23.8</ele>
        <time>2024-02-04T14:02:31Z</time>
      </trkpt>
      <trkpt lat="43.16586" lon="6.51205">
        <ele>23.7</ele>
        <time>2024-02-04T14:02:32Z</time>
      </trkpt>
      <trkpt lat="43.16586" lon="6.51206">
        <ele>23.5</ele>
        <time>2024-02-04T14:02:33Z</time>
      </trkpt>
      <trkpt lat="43.16586" lon="6.51207">
        <ele>23.4</ele>
        <time>2024-02-04T14:02:34Z</time>
      </trkpt>
      <trkpt lat="43.16586" lon="6.51208">
        <ele>23.3</ele>
        <time>2024-02-04T14:02:35Z</time>
      </trkpt>
      <trkpt lat="43.16586" lon="6.51208">
        <ele>23.2</ele>
        <time>2024-02-04T14:02:36Z</time>
      </trkpt>
      <trkpt lat="43.16586" lon="6.51208">
        <ele>23.1</ele>
        <time>2024-02-04T14:02:37Z</time>
      </trkpt>
      <trkpt lat="43.16586" lon="6.51208">
        <ele>23</ele>
        <time>2024-02-04T14:02:38Z</time>
      </trkpt>
      <trkpt lat="43.16586" lon="6.51208">
        <ele>23</ele>
        <time>2024-02-04T14:02:39Z</time>
      </trkpt>
      <trkpt lat="43.16586" lon="6.51207">
        <ele>23</ele>
        <time>2024-02-04T14:02:40Z</time>
      </trkpt>
      <trkpt lat="43.16587" lon="6.51207">
        <ele>23</ele>
        <time>2024-02-04T14:02:41Z</time>
      </trkpt>
      <trkpt lat="43.16587" lon="6.51207">
        <ele>23.1</ele>
        <time>2024-02-04T14:02:42Z</time>
      </trkpt>
      <trkpt lat="43.16587" lon="6.51207">
        <ele>23</ele>
        <time>2024-02-04T14:02:43Z</time>
      </trkpt>
      <trkpt lat="43.16586" lon="6.51208">
        <ele>23</ele>
        <time>2024-02-04T14:02:44Z</time>
      </trkpt>
      <trkpt lat="43.16587" lon="6.51209">
        <ele>23</ele>
        <time>2024-02-04T14:02:45Z</time>
      </trkpt>
      <trkpt lat="43.16587" lon="6.51211">
        <ele>23</ele>
        <time>2024-02-04T14:02:46Z</time>
      </trkpt>
      <trkpt lat="43.16587" lon="6.51213">
        <ele>23</ele>
        <time>2024-02-04T14:02:47Z</time>
      </trkpt>
      <trkpt lat="43.16588" lon="6.51215">
        <ele>22.9</ele>
        <time>2024-02-04T14:02:48Z</time>
      </trkpt>
      <trkpt lat="43.16587" lon="6.51218">
        <ele>22.9</ele>
        <time>2024-02-04T14:02:49Z</time>
      </trkpt>
      <trkpt lat="43.16587" lon="6.51219">
        <ele>22.8</ele>
        <time>2024-02-04T14:02:50Z</time>
      </trkpt>
      <trkpt lat="43.16587" lon="6.51221">
        <ele>22.7</ele>
        <time>2024-02-04T14:02:51Z</time>
      </trkpt>
      <trkpt lat="43.16586" lon="6.51222">
        <ele>22.7</ele>
        <time>2024-02-04T14:02:52Z</time>
      </trkpt>
      <trkpt lat="43.16587" lon="6.51224">
        <ele>22.8</ele>
        <time>2024-02-04T14:02:53Z</time>
      </trkpt>
      <trkpt lat="43.16587" lon="6.51226">
        <ele>22.8</ele>
        <time>2024-02-04T14:02:54Z</time>
      </trkpt>
      <trkpt lat="43.16587" lon="6.51227">
        <ele>22.9</ele>
        <time>2024-02-04T14:02:55Z</time>
      </trkpt>
      <trkpt lat="43.16587" lon="6.51229">
        <ele>22.9</ele>
        <time>2024-02-04T14:02:56Z</time>
      </trkpt>
      <trkpt lat="43.16587" lon="6.5123">
        <ele>22.9</ele>
        <time>2024-02-04T14:02:57Z</time>
      </trkpt>
      <trkpt lat="43.16587" lon="6.51232">
        <ele>23</ele>
        <time>2024-02-04T14:02:58Z</time>
      </trkpt>
      <trkpt lat="43.16587" lon="6.51233">
        <ele>23</ele>
        <time>2024-02-04T14:02:59Z</time>
      </trkpt>
      <trkpt lat="43.16587" lon="6.51234">
        <ele>23</ele>
        <time>2024-02-04T14:03:00Z</time>
      </trkpt>
      <trkpt lat="43.16586" lon="6.51235">
        <ele>23</ele>
        <time>2024-02-04T14:03:01Z</time>
      </trkpt>
      <trkpt lat="43.16586" lon="6.51236">
        <ele>22.9</ele>
        <time>2024-02-04T14:03:02Z</time>
      </trkpt>
      <trkpt lat="43.16586" lon="6.51237">
        <ele>22.9</ele>
        <time>2024-02-04T14:03:03Z</time>
      </trkpt>
      <trkpt lat="43.16586" lon="6.51238">
        <ele>22.7</ele>
        <time>2024-02-04T14:03:04Z</time>
      </trkpt>
      <trkpt lat="43.16585" lon="6.51238">
        <ele>22.7</ele>
        <time>2024-02-04T14:03:05Z</time>
      </trkpt>
      <trkpt lat="43.16584" lon="6.5124">
        <ele>22.7</ele>
        <time>2024-02-04T14:03:06Z</time>
      </trkpt>
      <trkpt lat="43.16584" lon="6.51241">
        <ele>22.6</ele>
        <time>2024-02-04T14:03:07Z</time>
      </trkpt>
      <trkpt lat="43.16584" lon="6.51241">
        <ele>22.5</ele>
        <time>2024-02-04T14:03:08Z</time>
      </trkpt>
      <trkpt lat="43.16584" lon="6.51242">
        <ele>22.4</ele>
        <time>2024-02-04T14:03:09Z</time>
      </trkpt>
      <trkpt lat="43.16583" lon="6.51242">
        <ele>22.3</ele>
        <time>2024-02-04T14:03:10Z</time>
      </trkpt>
      <trkpt lat="43.16583" lon="6.51243">
        <ele>22.2</ele>
        <time>2024-02-04T14:03:11Z</time>
      </trkpt>
      <trkpt lat="43.16582" lon="6.51244">
        <ele>22</ele>
        <time>2024-02-04T14:03:12Z</time>
      </trkpt>
      <trkpt lat="43.16582" lon="6.51245">
        <ele>21.9</ele>
        <time>2024-02-04T14:03:13Z</time>
      </trkpt>
      <trkpt lat="43.16582" lon="6.51246">
        <ele>21.7</ele>
        <time>2024-02-04T14:03:14Z</time>
      </trkpt>
      <trkpt lat="43.16582" lon="6.51246">
        <ele>21.7</ele>
        <time>2024-02-04T14:03:15Z</time>
      </trkpt>
      <trkpt lat="43.16582" lon="6.51247">
        <ele>21.5</ele>
        <time>2024-02-04T14:03:16Z</time>
      </trkpt>
      <trkpt lat="43.16581" lon="6.51248">
        <ele>21.4</ele>
        <time>2024-02-04T14:03:17Z</time>
      </trkpt>
      <trkpt lat="43.16582" lon="6.51249">
        <ele>21.3</ele>
        <time>2024-02-04T14:03:18Z</time>
      </trkpt>
      <trkpt lat="43.16581" lon="6.51249">
        <ele>21.1</ele>
        <time>2024-02-04T14:03:19Z</time>
      </trkpt>
      <trkpt lat="43.16581" lon="6.51251">
        <ele>21</ele>
        <time>2024-02-04T14:03:20Z</time>
      </trkpt>
      <trkpt lat="43.1658" lon="6.51252">
        <ele>20.9</ele>
        <time>2024-02-04T14:03:21Z</time>
      </trkpt>
      <trkpt lat="43.16581" lon="6.51253">
        <ele>20.8</ele>
        <time>2024-02-04T14:03:22Z</time>
      </trkpt>
      <trkpt lat="43.16581" lon="6.51253">
        <ele>20.6</ele>
        <time>2024-02-04T14:03:23Z</time>
      </trkpt>
      <trkpt lat="43.1658" lon="6.51254">
        <ele>20.4</ele>
        <time>2024-02-04T14:03:24Z</time>
      </trkpt>
      <trkpt lat="43.1658" lon="6.51256">
        <ele>20.2</ele>
        <time>2024-02-04T14:03:25Z</time>
      </trkpt>
      <trkpt lat="43.16579" lon="6.51258">
        <ele>20</ele>
        <time>2024-02-04T14:03:26Z</time>
      </trkpt>
      <trkpt lat="43.1658" lon="6.51259">
        <ele>19.8</ele>
        <time>2024-02-04T14:03:27Z</time>
      </trkpt>
      <trkpt lat="43.16579" lon="6.5126">
        <ele>19.4</ele>
        <time>2024-02-04T14:03:28Z</time>
      </trkpt>
      <trkpt lat="43.1658" lon="6.51261">
        <ele>19.2</ele>
        <time>2024-02-04T14:03:29Z</time>
      </trkpt>
      <trkpt lat="43.1658" lon="6.51263">
        <ele>19.1</ele>
        <time>2024-02-04T14:03:30Z</time>
      </trkpt>
      <trkpt lat="43.16579" lon="6.51265">
        <ele>19</ele>
        <time>2024-02-04T14:03:31Z</time>
      </trkpt>
      <trkpt lat="43.16579" lon="6.51267">
        <ele>18.8</ele>
        <time>2024-02-04T14:03:32Z</time>
      </trkpt>
      <trkpt lat="43.16578" lon="6.51269">
        <ele>18.6</ele>
        <time>2024-02-04T14:03:33Z</time>
      </trkpt>
      <trkpt lat="43.16578" lon="6.51272">
        <ele>18.5</ele>
        <time>2024-02-04T14:03:34Z</time>
      </trkpt>
      <trkpt lat="43.16578" lon="6.51273">
        <ele>18.3</ele>
        <time>2024-02-04T14:03:35Z</time>
      </trkpt>
      <trkpt lat="43.16578" lon="6.51275">
        <ele>18.2</ele>
        <time>2024-02-04T14:03:36Z</time>
      </trkpt>
      <trkpt lat="43.16578" lon="6.51276">
        <ele>18</ele>
        <time>2024-02-04T14:03:37Z</time>
      </trkpt>
      <trkpt lat="43.16578" lon="6.51278">
        <ele>17.9</ele>
        <time>2024-02-04T14:03:38Z</time>
      </trkpt>
      <trkpt lat="43.16578" lon="6.51279">
        <ele>17.7</ele>
        <time>2024-02-04T14:03:39Z</time>
      </trkpt>
      <trkpt lat="43.16577" lon="6.51281">
        <ele>17.6</ele>
        <time>2024-02-04T14:03:40Z</time>
      </trkpt>
      <trkpt lat="43.16577" lon="6.51283">
        <ele>17.6</ele>
        <time>2024-02-04T14:03:41Z</time>
      </trkpt>
      <trkpt lat="43.16577" lon="6.51284">
        <ele>17.5</ele>
        <time>2024-02-04T14:03:42Z</time>
      </trkpt>
      <trkpt lat="43.16578" lon="6.51285">
        <ele>17.4</ele>
        <time>2024-02-04T14:03:43Z</time>
      </trkpt>
      <trkpt lat="43.16577" lon="6.51287">
        <ele>17.3</ele>
        <time>2024-02-04T14:03:44Z</time>
      </trkpt>
      <trkpt lat="43.16577" lon="6.51288">
        <ele>17.3</ele>
        <time>2024-02-04T14:03:45Z</time>
      </trkpt>
      <trkpt lat="43.16578" lon="6.5129">
        <ele>17.2</ele>
        <time>2024-02-04T14:03:46Z</time>
      </trkpt>
      <trkpt lat="43.16578" lon="6.51291">
        <ele>17.2</ele>
        <time>2024-02-04T14:03:47Z</time>
      </trkpt>
      <trkpt lat="43.16577" lon="6.51293">
        <ele>17.2</ele>
        <time>2024-02-04T14:03:48Z</time>
      </trkpt>
      <trkpt lat="43.16577" lon="6.51293">
        <ele>17.1</ele>
        <time>2024-02-04T14:03:49Z</time>
      </trkpt>
      <trkpt lat="43.16577" lon="6.51294">
        <ele>17.2</ele>
        <time>2024-02-04T14:03:50Z</time>
      </trkpt>
      <trkpt lat="43.16576" lon="6.51294">
        <ele>17.1</ele>
        <time>2024-02-04T14:03:51Z</time>
      </trkpt>
      <trkpt lat="43.16576" lon="6.51295">
        <ele>17.1</ele>
        <time>2024-02-04T14:03:52Z</time>
      </trkpt>
      <trkpt lat="43.16576" lon="6.51296">
        <ele>17.1</ele>
        <time>2024-02-04T14:03:53Z</time>
      </trkpt>
      <trkpt lat="43.16576" lon="6.51297">
        <ele>16.9</ele>
        <time>2024-02-04T14:03:54Z</time>
      </trkpt>
      <trkpt lat="43.16576" lon="6.51298">
        <ele>16.8</ele>
        <time>2024-02-04T14:03:55Z</time>
      </trkpt>
      <trkpt lat="43.16575" lon="6.51299">
        <ele>16.7</ele>
        <time>2024-02-04T14:03:56Z</time>
      </trkpt>
      <trkpt lat="43.16574" lon="6.51301">
        <ele>16.6</ele>
        <time>2024-02-04T14:03:57Z</time>
      </trkpt>
      <trkpt lat="43.16574" lon="6.51301">
        <ele>16.4</ele>
        <time>2024-02-04T14:03:58Z</time>
      </trkpt>
      <trkpt lat="43.16574" lon="6.51302">
        <ele>16.2</ele>
        <time>2024-02-04T14:03:59Z</time>
      </trkpt>
      <trkpt lat="43.16573" lon="6.51303">
        <ele>16.2</ele>
        <time>2024-02-04T14:04:00Z</time>
      </trkpt>
      <trkpt lat="43.16573" lon="6.51304">
        <ele>16</ele>
        <time>2024-02-04T14:04:01Z</time>
      </trkpt>
      <trkpt lat="43.16573" lon="6.51305">
        <ele>16</ele>
        <time>2024-02-04T14:04:02Z</time>
      </trkpt>
      <trkpt lat="43.16574" lon="6.51306">
        <ele>16</ele>
        <time>2024-02-04T14:04:03Z</time>
      </trkpt>
      <trkpt lat="43.16573" lon="6.51307">
        <ele>16</ele>
        <time>2024-02-04T14:04:04Z</time>
      </trkpt>
      <trkpt lat="43.16572" lon="6.51307">
        <ele>15.9</ele>
        <time>2024-02-04T14:04:05Z</time>
      </trkpt>
      <trkpt lat="43.16573" lon="6.51308">
        <ele>15.9</ele>
        <time>2024-02-04T14:04:06Z</time>
      </trkpt>
      <trkpt lat="43.16573" lon="6.51308">
        <ele>15.9</ele>
        <time>2024-02-04T14:04:07Z</time>
      </trkpt>
      <trkpt lat="43.16574" lon="6.51308">
        <ele>15.9</ele>
        <time>2024-02-04T14:04:08Z</time>
      </trkpt>
      <trkpt lat="43.16572" lon="6.51309">
        <ele>15.9</ele>
        <time>2024-02-04T14:04:09Z</time>
      </trkpt>
      <trkpt lat="43.16572" lon="6.5131">
        <ele>15.9</ele>
        <time>2024-02-04T14:04:10Z</time>
      </trkpt>
      <trkpt lat="43.16572" lon="6.51311">
        <ele>15.9</ele>
        <time>2024-02-04T14:04:11Z</time>
      </trkpt>
      <trkpt lat="43.16571" lon="6.51312">
        <ele>15.9</ele>
        <time>2024-02-04T14:04:12Z</time>
      </trkpt>
      <trkpt lat="43.1657" lon="6.51313">
        <ele>15.9</ele>
        <time>2024-02-04T14:04:13Z</time>
      </trkpt>
      <trkpt lat="43.1657" lon="6.51314">
        <ele>15.9</ele>
        <time>2024-02-04T14:04:14Z</time>
      </trkpt>
      <trkpt lat="43.1657" lon="6.51316">
        <ele>15.9</ele>
        <time>2024-02-04T14:04:15Z</time>
      </trkpt>
      <trkpt lat="43.16571" lon="6.51317">
        <ele>16</ele>
        <time>2024-02-04T14:04:16Z</time>
      </trkpt>
      <trkpt lat="43.1657" lon="6.51318">
        <ele>16.1</ele>
        <time>2024-02-04T14:04:17Z</time>
      </trkpt>
      <trkpt lat="43.16571" lon="6.51319">
        <ele>16.2</ele>
        <time>2024-02-04T14:04:18Z</time>
      </trkpt>
      <trkpt lat="43.16573" lon="6.51319">
        <ele>16.2</ele>
        <time>2024-02-04T14:04:19Z</time>
      </trkpt>
      <trkpt lat="43.16572" lon="6.5132">
        <ele>16.3</ele>
        <time>2024-02-04T14:04:20Z</time>
      </trkpt>
      <trkpt lat="43.16572" lon="6.5132">
        <ele>16.3</ele>
        <time>2024-02-04T14:04:21Z</time>
      </trkpt>
      <trkpt lat="43.16571" lon="6.51321">
        <ele>16.3</ele>
        <time>2024-02-04T14:04:22Z</time>
      </trkpt>
      <trkpt lat="43.1657" lon="6.51322">
        <ele>16.2</ele>
        <time>2024-02-04T14:04:23Z</time>
      </trkpt>
      <trkpt lat="43.1657" lon="6.51323">
        <ele>16.2</ele>
        <time>2024-02-04T14:04:24Z</time>
      </trkpt>
      <trkpt lat="43.16569" lon="6.51324">
        <ele>16.1</ele>
        <time>2024-02-04T14:04:25Z</time>
      </trkpt>
      <trkpt lat="43.1657" lon="6.51325">
        <ele>16</ele>
        <time>2024-02-04T14:04:26Z</time>
      </trkpt>
      <trkpt lat="43.1657" lon="6.51326">
        <ele>15.9</ele>
        <time>2024-02-04T14:04:27Z</time>
      </trkpt>
      <trkpt lat="43.16569" lon="6.51326">
        <ele>15.8</ele>
        <time>2024-02-04T14:04:28Z</time>
      </trkpt>
      <trkpt lat="43.16569" lon="6.51327">
        <ele>15.8</ele>
        <time>2024-02-04T14:04:29Z</time>
      </trkpt>
      <trkpt lat="43.16568" lon="6.51327">
        <ele>15.8</ele>
        <time>2024-02-04T14:04:30Z</time>
      </trkpt>
      <trkpt lat="43.16568" lon="6.51328">
        <ele>15.7</ele>
        <time>2024-02-04T14:04:31Z</time>
      </trkpt>
      <trkpt lat="43.16568" lon="6.51328">
        <ele>15.8</ele>
        <time>2024-02-04T14:04:32Z</time>
      </trkpt>
      <trkpt lat="43.16567" lon="6.51329">
        <ele>15.8</ele>
        <time>2024-02-04T14:04:33Z</time>
      </trkpt>
      <trkpt lat="43.16566" lon="6.51329">
        <ele>15.9</ele>
        <time>2024-02-04T14:04:34Z</time>
      </trkpt>
      <trkpt lat="43.16565" lon="6.51331">
        <ele>15.9</ele>
        <time>2024-02-04T14:04:35Z</time>
      </trkpt>
      <trkpt lat="43.16565" lon="6.51331">
        <ele>15.9</ele>
        <time>2024-02-04T14:04:36Z</time>
      </trkpt>
      <trkpt lat="43.16565" lon="6.51333">
        <ele>15.9</ele>
        <time>2024-02-04T14:04:37Z</time>
      </trkpt>
      <trkpt lat="43.16564" lon="6.51334">
        <ele>15.9</ele>
        <time>2024-02-04T14:04:38Z</time>
      </trkpt>
      <trkpt lat="43.16563" lon="6.51334">
        <ele>15.8</ele>
        <time>2024-02-04T14:04:39Z</time>
      </trkpt>
      <trkpt lat="43.16563" lon="6.51335">
        <ele>15.8</ele>
        <time>2024-02-04T14:04:40Z</time>
      </trkpt>
      <trkpt lat="43.16562" lon="6.51336">
        <ele>15.8</ele>
        <time>2024-02-04T14:04:41Z</time>
      </trkpt>
      <trkpt lat="43.16562" lon="6.51338">
        <ele>15.7</ele>
        <time>2024-02-04T14:04:42Z</time>
      </trkpt>
      <trkpt lat="43.16562" lon="6.51338">
        <ele>15.6</ele>
        <time>2024-02-04T14:04:43Z</time>
      </trkpt>
      <trkpt lat="43.16562" lon="6.51339">
        <ele>15.6</ele>
        <time>2024-02-04T14:04:44Z</time>
      </trkpt>
      <trkpt lat="43.16563" lon="6.5134">
        <ele>15.5</ele>
        <time>2024-02-04T14:04:45Z</time>
      </trkpt>
      <trkpt lat="43.16563" lon="6.51341">
        <ele>15.4</ele>
        <time>2024-02-04T14:04:46Z</time>
      </trkpt>
      <trkpt lat="43.16563" lon="6.51342">
        <ele>15.2</ele>
        <time>2024-02-04T14:04:47Z</time>
      </trkpt>
      <trkpt lat="43.16563" lon="6.51343">
        <ele>15.1</ele>
        <time>2024-02-04T14:04:48Z</time>
      </trkpt>
      <trkpt lat="43.16563" lon="6.51344">
        <ele>14.9</ele>
        <time>2024-02-04T14:04:49Z</time>
      </trkpt>
      <trkpt lat="43.16562" lon="6.51344">
        <ele>14.7</ele>
        <time>2024-02-04T14:04:50Z</time>
      </trkpt>
      <trkpt lat="43.16562" lon="6.51346">
        <ele>14.5</ele>
        <time>2024-02-04T14:04:51Z</time>
      </trkpt>
      <trkpt lat="43.16562" lon="6.51347">
        <ele>14.4</ele>
        <time>2024-02-04T14:04:52Z</time>
      </trkpt>
      <trkpt lat="43.16562" lon="6.51349">
        <ele>14.3</ele>
        <time>2024-02-04T14:04:53Z</time>
      </trkpt>
      <trkpt lat="43.16561" lon="6.5135">
        <ele>14.2</ele>
        <time>2024-02-04T14:04:54Z</time>
      </trkpt>
      <trkpt lat="43.16562" lon="6.51352">
        <ele>14.2</ele>
        <time>2024-02-04T14:04:55Z</time>
      </trkpt>
      <trkpt lat="43.16562" lon="6.51354">
        <ele>14.2</ele>
        <time>2024-02-04T14:04:56Z</time>
      </trkpt>
      <trkpt lat="43.16562" lon="6.51355">
        <ele>14.3</ele>
        <time>2024-02-04T14:04:57Z</time>
      </trkpt>
      <trkpt lat="43.16563" lon="6.51358">
        <ele>14.3</ele>
        <time>2024-02-04T14:04:58Z</time>
      </trkpt>
      <trkpt lat="43.16564" lon="6.5136">
        <ele>14.3</ele>
        <time>2024-02-04T14:04:59Z</time>
      </trkpt>
      <trkpt lat="43.16564" lon="6.51361">
        <ele>14.2</ele>
        <time>2024-02-04T14:05:00Z</time>
      </trkpt>
      <trkpt lat="43.16564" lon="6.51362">
        <ele>14.1</ele>
        <time>2024-02-04T14:05:01Z</time>
      </trkpt>
      <trkpt lat="43.16564" lon="6.51363">
        <ele>14.1</ele>
        <time>2024-02-04T14:05:02Z</time>
      </trkpt>
      <trkpt lat="43.16564" lon="6.51366">
        <ele>14</ele>
        <time>2024-02-04T14:05:03Z</time>
      </trkpt>
      <trkpt lat="43.16566" lon="6.51368">
        <ele>13.9</ele>
        <time>2024-02-04T14:05:04Z</time>
      </trkpt>
      <trkpt lat="43.16566" lon="6.5137">
        <ele>13.8</ele>
        <time>2024-02-04T14:05:05Z</time>
      </trkpt>
      <trkpt lat="43.16566" lon="6.51372">
        <ele>13.8</ele>
        <time>2024-02-04T14:05:06Z</time>
      </trkpt>
      <trkpt lat="43.16567" lon="6.51372">
        <ele>13.8</ele>
        <time>2024-02-04T14:05:07Z</time>
      </trkpt>
      <trkpt lat="43.16567" lon="6.51373">
        <ele>13.7</ele>
        <time>2024-02-04T14:05:08Z</time>
      </trkpt>
      <trkpt lat="43.16567" lon="6.51375">
        <ele>13.8</ele>
        <time>2024-02-04T14:05:09Z</time>
      </trkpt>
      <trkpt lat="43.16568" lon="6.51375">
        <ele>13.8</ele>
        <time>2024-02-04T14:05:10Z</time>
      </trkpt>
      <trkpt lat="43.16568" lon="6.51377">
        <ele>13.8</ele>
        <time>2024-02-04T14:05:11Z</time>
      </trkpt>
      <trkpt lat="43.16567" lon="6.51379">
        <ele>13.8</ele>
        <time>2024-02-04T14:05:12Z</time>
      </trkpt>
      <trkpt lat="43.16565" lon="6.5138">
        <ele>13.7</ele>
        <time>2024-02-04T14:05:13Z</time>
      </trkpt>
      <trkpt lat="43.16565" lon="6.51382">
        <ele>13.6</ele>
        <time>2024-02-04T14:05:14Z</time>
      </trkpt>
      <trkpt lat="43.16565" lon="6.51384">
        <ele>13.6</ele>
        <time>2024-02-04T14:05:15Z</time>
      </trkpt>
      <trkpt lat="43.16565" lon="6.51385">
        <ele>13.7</ele>
        <time>2024-02-04T14:05:16Z</time>
      </trkpt>
      <trkpt lat="43.16566" lon="6.51387">
        <ele>13.7</ele>
        <time>2024-02-04T14:05:17Z</time>
      </trkpt>
      <trkpt lat="43.16567" lon="6.51387">
        <ele>13.6</ele>
        <time>2024-02-04T14:05:18Z</time>
      </trkpt>
      <trkpt lat="43.16567" lon="6.51388">
        <ele>13.7</ele>
        <time>2024-02-04T14:05:19Z</time>
      </trkpt>
      <trkpt lat="43.16567" lon="6.51391">
        <ele>13.6</ele>
        <time>2024-02-04T14:05:20Z</time>
      </trkpt>
      <trkpt lat="43.16568" lon="6.51393">
        <ele>13.6</ele>
        <time>2024-02-04T14:05:21Z</time>
      </trkpt>
      <trkpt lat="43.16567" lon="6.51393">
        <ele>13.5</ele>
        <time>2024-02-04T14:05:22Z</time>
      </trkpt>
      <trkpt lat="43.16567" lon="6.51395">
        <ele>13.6</ele>
        <time>2024-02-04T14:05:23Z</time>
      </trkpt>
      <trkpt lat="43.16567" lon="6.51396">
        <ele>13.7</ele>
        <time>2024-02-04T14:05:24Z</time>
      </trkpt>
      <trkpt lat="43.16566" lon="6.51399">
        <ele>13.8</ele>
        <time>2024-02-04T14:05:25Z</time>
      </trkpt>
      <trkpt lat="43.16566" lon="6.51401">
        <ele>13.8</ele>
        <time>2024-02-04T14:05:26Z</time>
      </trkpt>
      <trkpt lat="43.16567" lon="6.51404">
        <ele>13.7</ele>
        <time>2024-02-04T14:05:27Z</time>
      </trkpt>
      <trkpt lat="43.16568" lon="6.51405">
        <ele>13.7</ele>
        <time>2024-02-04T14:05:28Z</time>
      </trkpt>
      <trkpt lat="43.16567" lon="6.51406">
        <ele>13.7</ele>
        <time>2024-02-04T14:05:29Z</time>
      </trkpt>
      <trkpt lat="43.16567" lon="6.51407">
        <ele>13.6</ele>
        <time>2024-02-04T14:05:30Z</time>
      </trkpt>
      <trkpt lat="43.16567" lon="6.51408">
        <ele>13.6</ele>
        <time>2024-02-04T14:05:31Z</time>
      </trkpt>
      <trkpt lat="43.16568" lon="6.5141">
        <ele>13.6</ele>
        <time>2024-02-04T14:05:32Z</time>
      </trkpt>
      <trkpt lat="43.16567" lon="6.51411">
        <ele>13.6</ele>
        <time>2024-02-04T14:05:33Z</time>
      </trkpt>
      <trkpt lat="43.16567" lon="6.51413">
        <ele>13.6</ele>
        <time>2024-02-04T14:05:34Z</time>
      </trkpt>
      <trkpt lat="43.16567" lon="6.51415">
        <ele>13.6</ele>
        <time>2024-02-04T14:05:35Z</time>
      </trkpt>
      <trkpt lat="43.16567" lon="6.51416">
        <ele>13.6</ele>
        <time>2024-02-04T14:05:36Z</time>
      </trkpt>
      <trkpt lat="43.16566" lon="6.51417">
        <ele>13.6</ele>
        <time>2024-02-04T14:05:37Z</time>
      </trkpt>
      <trkpt lat="43.16566" lon="6.51419">
        <ele>13.6</ele>
        <time>2024-02-04T14:05:38Z</time>
      </trkpt>
      <trkpt lat="43.16565" lon="6.51422">
        <ele>13.6</ele>
        <time>2024-02-04T14:05:39Z</time>
      </trkpt>
      <trkpt lat="43.16565" lon="6.51424">
        <ele>13.6</ele>
        <time>2024-02-04T14:05:40Z</time>
      </trkpt>
      <trkpt lat="43.16566" lon="6.51425">
        <ele>13.6</ele>
        <time>2024-02-04T14:05:41Z</time>
      </trkpt>
      <trkpt lat="43.16567" lon="6.51426">
        <ele>13.5</ele>
        <time>2024-02-04T14:05:42Z</time>
      </trkpt>
      <trkpt lat="43.16568" lon="6.51427">
        <ele>13.5</ele>
        <time>2024-02-04T14:05:43Z</time>
      </trkpt>
      <trkpt lat="43.16569" lon="6.51428">
        <ele>13.4</ele>
        <time>2024-02-04T14:05:44Z</time>
      </trkpt>
      <trkpt lat="43.1657" lon="6.51429">
        <ele>13.3</ele>
        <time>2024-02-04T14:05:45Z</time>
      </trkpt>
      <trkpt lat="43.1657" lon="6.51431">
        <ele>13.2</ele>
        <time>2024-02-04T14:05:46Z</time>
      </trkpt>
      <trkpt lat="43.1657" lon="6.51433">
        <ele>13.3</ele>
        <time>2024-02-04T14:05:47Z</time>
      </trkpt>
      <trkpt lat="43.16571" lon="6.51434">
        <ele>13.2</ele>
        <time>2024-02-04T14:05:48Z</time>
      </trkpt>
      <trkpt lat="43.16571" lon="6.51435">
        <ele>13.2</ele>
        <time>2024-02-04T14:05:49Z</time>
      </trkpt>
      <trkpt lat="43.1657" lon="6.51437">
        <ele>13.2</ele>
        <time>2024-02-04T14:05:50Z</time>
      </trkpt>
      <trkpt lat="43.1657" lon="6.51439">
        <ele>13.1</ele>
        <time>2024-02-04T14:05:51Z</time>
      </trkpt>
      <trkpt lat="43.16569" lon="6.5144">
        <ele>13.1</ele>
        <time>2024-02-04T14:05:52Z</time>
      </trkpt>
      <trkpt lat="43.16569" lon="6.51441">
        <ele>13.1</ele>
        <time>2024-02-04T14:05:53Z</time>
      </trkpt>
      <trkpt lat="43.16568" lon="6.51442">
        <ele>13.1</ele>
        <time>2024-02-04T14:05:54Z</time>
      </trkpt>
      <trkpt lat="43.16568" lon="6.51444">
        <ele>13.2</ele>
        <time>2024-02-04T14:05:55Z</time>
      </trkpt>
      <trkpt lat="43.16569" lon="6.51445">
        <ele>13.3</ele>
        <time>2024-02-04T14:05:56Z</time>
      </trkpt>
      <trkpt lat="43.16568" lon="6.51447">
        <ele>13.4</ele>
        <time>2024-02-04T14:05:57Z</time>
      </trkpt>
      <trkpt lat="43.16568" lon="6.51449">
        <ele>13.5</ele>
        <time>2024-02-04T14:05:58Z</time>
      </trkpt>
      <trkpt lat="43.16568" lon="6.51451">
        <ele>13.6</ele>
        <time>2024-02-04T14:05:59Z</time>
      </trkpt>
      <trkpt lat="43.1657" lon="6.51453">
        <ele>13.7</ele>
        <time>2024-02-04T14:06:00Z</time>
      </trkpt>
      <trkpt lat="43.16571" lon="6.51454">
        <ele>13.7</ele>
        <time>2024-02-04T14:06:01Z</time>
      </trkpt>
      <trkpt lat="43.16571" lon="6.51455">
        <ele>13.7</ele>
        <time>2024-02-04T14:06:02Z</time>
      </trkpt>
      <trkpt lat="43.16572" lon="6.51457">
        <ele>13.7</ele>
        <time>2024-02-04T14:06:03Z</time>
      </trkpt>
      <trkpt lat="43.16573" lon="6.51459">
        <ele>13.7</ele>
        <time>2024-02-04T14:06:04Z</time>
      </trkpt>
      <trkpt lat="43.16572" lon="6.51462">
        <ele>13.7</ele>
        <time>2024-02-04T14:06:05Z</time>
      </trkpt>
      <trkpt lat="43.16573" lon="6.51463">
        <ele>13.8</ele>
        <time>2024-02-04T14:06:06Z</time>
      </trkpt>
      <trkpt lat="43.16574" lon="6.51465">
        <ele>13.8</ele>
        <time>2024-02-04T14:06:07Z</time>
      </trkpt>
      <trkpt lat="43.16573" lon="6.51467">
        <ele>13.8</ele>
        <time>2024-02-04T14:06:08Z</time>
      </trkpt>
      <trkpt lat="43.16573" lon="6.51468">
        <ele>13.8</ele>
        <time>2024-02-04T14:06:09Z</time>
      </trkpt>
      <trkpt lat="43.16573" lon="6.5147">
        <ele>13.8</ele>
        <time>2024-02-04T14:06:10Z</time>
      </trkpt>
      <trkpt lat="43.16573" lon="6.51472">
        <ele>13.8</ele>
        <time>2024-02-04T14:06:11Z</time>
      </trkpt>
      <trkpt lat="43.16573" lon="6.51473">
        <ele>13.8</ele>
        <time>2024-02-04T14:06:12Z</time>
      </trkpt>
      <trkpt lat="43.16574" lon="6.51474">
        <ele>13.9</ele>
        <time>2024-02-04T14:06:13Z</time>
      </trkpt>
      <trkpt lat="43.16574" lon="6.51475">
        <ele>13.9</ele>
        <time>2024-02-04T14:06:14Z</time>
      </trkpt>
      <trkpt lat="43.16575" lon="6.51476">
        <ele>13.8</ele>
        <time>2024-02-04T14:06:15Z</time>
      </trkpt>
      <trkpt lat="43.16573" lon="6.51478">
        <ele>13.8</ele>
        <time>2024-02-04T14:06:16Z</time>
      </trkpt>
      <trkpt lat="43.16573" lon="6.51479">
        <ele>13.7</ele>
        <time>2024-02-04T14:06:17Z</time>
      </trkpt>
      <trkpt lat="43.16573" lon="6.5148">
        <ele>13.7</ele>
        <time>2024-02-04T14:06:18Z</time>
      </trkpt>
      <trkpt lat="43.16572" lon="6.5148">
        <ele>13.6</ele>
        <time>2024-02-04T14:06:19Z</time>
      </trkpt>
      <trkpt lat="43.16573" lon="6.51482">
        <ele>13.6</ele>
        <time>2024-02-04T14:06:20Z</time>
      </trkpt>
      <trkpt lat="43.1657" lon="6.51484">
        <ele>13.5</ele>
        <time>2024-02-04T14:06:21Z</time>
      </trkpt>
      <trkpt lat="43.1657" lon="6.51486">
        <ele>13.5</ele>
        <time>2024-02-04T14:06:22Z</time>
      </trkpt>
      <trkpt lat="43.16569" lon="6.51487">
        <ele>13.4</ele>
        <time>2024-02-04T14:06:23Z</time>
      </trkpt>
      <trkpt lat="43.16569" lon="6.51489">
        <ele>13.4</ele>
        <time>2024-02-04T14:06:24Z</time>
      </trkpt>
      <trkpt lat="43.16568" lon="6.51491">
        <ele>13.5</ele>
        <time>2024-02-04T14:06:25Z</time>
      </trkpt>
      <trkpt lat="43.16567" lon="6.51493">
        <ele>13.5</ele>
        <time>2024-02-04T14:06:26Z</time>
      </trkpt>
      <trkpt lat="43.16566" lon="6.51494">
        <ele>13.5</ele>
        <time>2024-02-04T14:06:27Z</time>
      </trkpt>
      <trkpt lat="43.16565" lon="6.51494">
        <ele>13.4</ele>
        <time>2024-02-04T14:06:28Z</time>
      </trkpt>
      <trkpt lat="43.16565" lon="6.51496">
        <ele>13.4</ele>
        <time>2024-02-04T14:06:29Z</time>
      </trkpt>
      <trkpt lat="43.16564" lon="6.51498">
        <ele>13.4</ele>
        <time>2024-02-04T14:06:30Z</time>
      </trkpt>
      <trkpt lat="43.16564" lon="6.515">
        <ele>13.4</ele>
        <time>2024-02-04T14:06:31Z</time>
      </trkpt>
      <trkpt lat="43.16564" lon="6.51502">
        <ele>13.3</ele>
        <time>2024-02-04T14:06:32Z</time>
      </trkpt>
      <trkpt lat="43.16564" lon="6.51504">
        <ele>13.2</ele>
        <time>2024-02-04T14:06:33Z</time>
      </trkpt>
      <trkpt lat="43.16562" lon="6.51504">
        <ele>13.1</ele>
        <time>2024-02-04T14:06:34Z</time>
      </trkpt>
      <trkpt lat="43.16561" lon="6.51505">
        <ele>13</ele>
        <time>2024-02-04T14:06:35Z</time>
      </trkpt>
      <trkpt lat="43.16562" lon="6.51506">
        <ele>12.8</ele>
        <time>2024-02-04T14:06:36Z</time>
      </trkpt>
      <trkpt lat="43.16561" lon="6.51507">
        <ele>12.6</ele>
        <time>2024-02-04T14:06:37Z</time>
      </trkpt>
      <trkpt lat="43.16561" lon="6.5151">
        <ele>12.6</ele>
        <time>2024-02-04T14:06:38Z</time>
      </trkpt>
      <trkpt lat="43.16559" lon="6.5151">
        <ele>12.6</ele>
        <time>2024-02-04T14:06:39Z</time>
      </trkpt>
      <trkpt lat="43.16559" lon="6.51513">
        <ele>12.5</ele>
        <time>2024-02-04T14:06:40Z</time>
      </trkpt>
      <trkpt lat="43.16559" lon="6.51515">
        <ele>12.4</ele>
        <time>2024-02-04T14:06:41Z</time>
      </trkpt>
      <trkpt lat="43.1656" lon="6.51517">
        <ele>12.3</ele>
        <time>2024-02-04T14:06:42Z</time>
      </trkpt>
      <trkpt lat="43.1656" lon="6.51519">
        <ele>12.3</ele>
        <time>2024-02-04T14:06:43Z</time>
      </trkpt>
      <trkpt lat="43.16561" lon="6.51521">
        <ele>12.3</ele>
        <time>2024-02-04T14:06:44Z</time>
      </trkpt>
      <trkpt lat="43.16561" lon="6.51523">
        <ele>12.4</ele>
        <time>2024-02-04T14:06:45Z</time>
      </trkpt>
      <trkpt lat="43.16562" lon="6.51524">
        <ele>12.4</ele>
        <time>2024-02-04T14:06:46Z</time>
      </trkpt>
      <trkpt lat="43.16562" lon="6.51526">
        <ele>12.4</ele>
        <time>2024-02-04T14:06:47Z</time>
      </trkpt>
      <trkpt lat="43.1656" lon="6.51527">
        <ele>12.4</ele>
        <time>2024-02-04T14:06:48Z</time>
      </trkpt>
      <trkpt lat="43.1656" lon="6.51529">
        <ele>12.4</ele>
        <time>2024-02-04T14:06:49Z</time>
      </trkpt>
      <trkpt lat="43.16554" lon="6.51529">
        <ele>12.4</ele>
        <time>2024-02-04T14:06:50Z</time>
      </trkpt>
      <trkpt lat="43.16553" lon="6.5153">
        <ele>12.4</ele>
        <time>2024-02-04T14:06:51Z</time>
      </trkpt>
      <trkpt lat="43.16552" lon="6.51531">
        <ele>12.4</ele>
        <time>2024-02-04T14:06:52Z</time>
      </trkpt>
      <trkpt lat="43.16552" lon="6.51532">
        <ele>12.4</ele>
        <time>2024-02-04T14:06:53Z</time>
      </trkpt>
      <trkpt lat="43.16551" lon="6.51533">
        <ele>12.4</ele>
        <time>2024-02-04T14:06:54Z</time>
      </trkpt>
      <trkpt lat="43.1655" lon="6.51534">
        <ele>12.4</ele>
        <time>2024-02-04T14:06:55Z</time>
      </trkpt>
      <trkpt lat="43.1655" lon="6.51535">
        <ele>12.4</ele>
        <time>2024-02-04T14:06:56Z</time>
      </trkpt>
      <trkpt lat="43.1655" lon="6.51537">
        <ele>12.2</ele>
        <time>2024-02-04T14:06:57Z</time>
      </trkpt>
      <trkpt lat="43.16552" lon="6.51539">
        <ele>12.1</ele>
        <time>2024-02-04T14:06:58Z</time>
      </trkpt>
      <trkpt lat="43.16553" lon="6.5154">
        <ele>12</ele>
        <time>2024-02-04T14:06:59Z</time>
      </trkpt>
      <trkpt lat="43.16553" lon="6.51542">
        <ele>11.9</ele>
        <time>2024-02-04T14:07:00Z</time>
      </trkpt>
      <trkpt lat="43.16551" lon="6.51544">
        <ele>11.9</ele>
        <time>2024-02-04T14:07:01Z</time>
      </trkpt>
      <trkpt lat="43.16552" lon="6.51547">
        <ele>11.8</ele>
        <time>2024-02-04T14:07:02Z</time>
      </trkpt>
      <trkpt lat="43.16555" lon="6.5155">
        <ele>11.8</ele>
        <time>2024-02-04T14:07:03Z</time>
      </trkpt>
      <trkpt lat="43.16552" lon="6.51552">
        <ele>11.7</ele>
        <time>2024-02-04T14:07:04Z</time>
      </trkpt>
      <trkpt lat="43.16552" lon="6.51553">
        <ele>11.5</ele>
        <time>2024-02-04T14:07:05Z</time>
      </trkpt>
      <trkpt lat="43.16552" lon="6.51554">
        <ele>11.5</ele>
        <time>2024-02-04T14:07:06Z</time>
      </trkpt>
      <trkpt lat="43.1655" lon="6.51556">
        <ele>11.4</ele>
        <time>2024-02-04T14:07:07Z</time>
      </trkpt>
      <trkpt lat="43.16551" lon="6.51558">
        <ele>11.2</ele>
        <time>2024-02-04T14:07:08Z</time>
      </trkpt>
      <trkpt lat="43.1655" lon="6.51559">
        <ele>11.1</ele>
        <time>2024-02-04T14:07:09Z</time>
      </trkpt>
      <trkpt lat="43.16551" lon="6.51561">
        <ele>11</ele>
        <time>2024-02-04T14:07:10Z</time>
      </trkpt>
      <trkpt lat="43.16551" lon="6.51563">
        <ele>11.1</ele>
        <time>2024-02-04T14:07:11Z</time>
      </trkpt>
      <trkpt lat="43.16551" lon="6.51565">
        <ele>11.1</ele>
        <time>2024-02-04T14:07:12Z</time>
      </trkpt>
      <trkpt lat="43.16552" lon="6.51567">
        <ele>11.3</ele>
        <time>2024-02-04T14:07:13Z</time>
      </trkpt>
      <trkpt lat="43.16553" lon="6.51569">
        <ele>11.4</ele>
        <time>2024-02-04T14:07:14Z</time>
      </trkpt>
      <trkpt lat="43.16554" lon="6.5157">
        <ele>11.5</ele>
        <time>2024-02-04T14:07:15Z</time>
      </trkpt>
      <trkpt lat="43.16554" lon="6.51572">
        <ele>11.5</ele>
        <time>2024-02-04T14:07:16Z</time>
      </trkpt>
      <trkpt lat="43.16554" lon="6.51574">
        <ele>11.6</ele>
        <time>2024-02-04T14:07:17Z</time>
      </trkpt>
      <trkpt lat="43.16555" lon="6.51575">
        <ele>11.7</ele>
        <time>2024-02-04T14:07:18Z</time>
      </trkpt>
      <trkpt lat="43.16555" lon="6.51577">
        <ele>11.9</ele>
        <time>2024-02-04T14:07:19Z</time>
      </trkpt>
      <trkpt lat="43.16555" lon="6.51578">
        <ele>12</ele>
        <time>2024-02-04T14:07:20Z</time>
      </trkpt>
      <trkpt lat="43.16557" lon="6.51579">
        <ele>12.1</ele>
        <time>2024-02-04T14:07:21Z</time>
      </trkpt>
      <trkpt lat="43.16558" lon="6.51581">
        <ele>12.2</ele>
        <time>2024-02-04T14:07:22Z</time>
      </trkpt>
      <trkpt lat="43.1656" lon="6.51582">
        <ele>12.3</ele>
        <time>2024-02-04T14:07:23Z</time>
      </trkpt>
      <trkpt lat="43.16562" lon="6.51584">
        <ele>12.3</ele>
        <time>2024-02-04T14:07:24Z</time>
      </trkpt>
      <trkpt lat="43.16563" lon="6.51586">
        <ele>12.4</ele>
        <time>2024-02-04T14:07:25Z</time>
      </trkpt>
      <trkpt lat="43.16564" lon="6.51587">
        <ele>12.4</ele>
        <time>2024-02-04T14:07:26Z</time>
      </trkpt>
      <trkpt lat="43.16565" lon="6.51589">
        <ele>12.4</ele>
        <time>2024-02-04T14:07:27Z</time>
      </trkpt>
      <trkpt lat="43.16567" lon="6.51591">
        <ele>12.3</ele>
        <time>2024-02-04T14:07:28Z</time>
      </trkpt>
      <trkpt lat="43.16568" lon="6.51593">
        <ele>12.3</ele>
        <time>2024-02-04T14:07:29Z</time>
      </trkpt>
      <trkpt lat="43.1657" lon="6.51595">
        <ele>12.3</ele>
        <time>2024-02-04T14:07:30Z</time>
      </trkpt>
      <trkpt lat="43.16571" lon="6.51596">
        <ele>12.3</ele>
        <time>2024-02-04T14:07:31Z</time>
      </trkpt>
      <trkpt lat="43.16572" lon="6.51597">
        <ele>12.3</ele>
        <time>2024-02-04T14:07:32Z</time>
      </trkpt>
      <trkpt lat="43.16573" lon="6.51597">
        <ele>12.4</ele>
        <time>2024-02-04T14:07:33Z</time>
      </trkpt>
      <trkpt lat="43.16573" lon="6.51597">
        <ele>12.5</ele>
        <time>2024-02-04T14:07:34Z</time>
      </trkpt>
      <trkpt lat="43.16574" lon="6.51597">
        <ele>12.5</ele>
        <time>2024-02-04T14:07:35Z</time>
      </trkpt>
      <trkpt lat="43.16574" lon="6.51596">
        <ele>12.5</ele>
        <time>2024-02-04T14:07:36Z</time>
      </trkpt>
      <trkpt lat="43.16575" lon="6.51596">
        <ele>12.5</ele>
        <time>2024-02-04T14:07:37Z</time>
      </trkpt>
      <trkpt lat="43.16574" lon="6.51597">
        <ele>12.4</ele>
        <time>2024-02-04T14:07:38Z</time>
      </trkpt>
      <trkpt lat="43.16574" lon="6.51598">
        <ele>12.4</ele>
        <time>2024-02-04T14:07:39Z</time>
      </trkpt>
      <trkpt lat="43.16574" lon="6.51598">
        <ele>12.4</ele>
        <time>2024-02-04T14:07:40Z</time>
      </trkpt>
      <trkpt lat="43.16574" lon="6.51599">
        <ele>12.3</ele>
        <time>2024-02-04T14:07:41Z</time>
      </trkpt>
      <trkpt lat="43.16574" lon="6.51599">
        <ele>12.3</ele>
        <time>2024-02-04T14:07:42Z</time>
      </trkpt>
      <trkpt lat="43.16574" lon="6.51601">
        <ele>12.4</ele>
        <time>2024-02-04T14:07:43Z</time>
      </trkpt>
      <trkpt lat="43.16573" lon="6.51602">
        <ele>12.4</ele>
        <time>2024-02-04T14:07:44Z</time>
      </trkpt>
      <trkpt lat="43.16573" lon="6.51603">
        <ele>12.4</ele>
        <time>2024-02-04T14:07:45Z</time>
      </trkpt>
      <trkpt lat="43.16573" lon="6.51604">
        <ele>12.3</ele>
        <time>2024-02-04T14:07:46Z</time>
      </trkpt>
      <trkpt lat="43.16573" lon="6.51605">
        <ele>12.2</ele>
        <time>2024-02-04T14:07:47Z</time>
      </trkpt>
      <trkpt lat="43.16574" lon="6.51606">
        <ele>12.1</ele>
        <time>2024-02-04T14:07:48Z</time>
      </trkpt>
      <trkpt lat="43.16574" lon="6.51607">
        <ele>12.1</ele>
        <time>2024-02-04T14:07:49Z</time>
      </trkpt>
      <trkpt lat="43.16574" lon="6.51608">
        <ele>12</ele>
        <time>2024-02-04T14:07:50Z</time>
      </trkpt>
      <trkpt lat="43.16574" lon="6.51609">
        <ele>11.8</ele>
        <time>2024-02-04T14:07:51Z</time>
      </trkpt>
      <trkpt lat="43.16576" lon="6.51611">
        <ele>11.6</ele>
        <time>2024-02-04T14:07:52Z</time>
      </trkpt>
      <trkpt lat="43.16576" lon="6.51613">
        <ele>11.3</ele>
        <time>2024-02-04T14:07:53Z</time>
      </trkpt>
      <trkpt lat="43.16577" lon="6.51614">
        <ele>11.1</ele>
        <time>2024-02-04T14:07:54Z</time>
      </trkpt>
      <trkpt lat="43.16578" lon="6.51615">
        <ele>11</ele>
        <time>2024-02-04T14:07:55Z</time>
      </trkpt>
      <trkpt lat="43.16578" lon="6.51616">
        <ele>10.9</ele>
        <time>2024-02-04T14:07:56Z</time>
      </trkpt>
      <trkpt lat="43.16579" lon="6.51618">
        <ele>10.7</ele>
        <time>2024-02-04T14:07:57Z</time>
      </trkpt>
      <trkpt lat="43.16578" lon="6.51618">
        <ele>10.6</ele>
        <time>2024-02-04T14:07:58Z</time>
      </trkpt>
      <trkpt lat="43.16577" lon="6.5162">
        <ele>10.4</ele>
        <time>2024-02-04T14:07:59Z</time>
      </trkpt>
      <trkpt lat="43.16577" lon="6.51622">
        <ele>10.2</ele>
        <time>2024-02-04T14:08:00Z</time>
      </trkpt>
      <trkpt lat="43.16578" lon="6.51623">
        <ele>10.2</ele>
        <time>2024-02-04T14:08:01Z</time>
      </trkpt>
      <trkpt lat="43.16577" lon="6.51624">
        <ele>10.3</ele>
        <time>2024-02-04T14:08:02Z</time>
      </trkpt>
      <trkpt lat="43.16577" lon="6.51625">
        <ele>10.3</ele>
        <time>2024-02-04T14:08:03Z</time>
      </trkpt>
      <trkpt lat="43.16577" lon="6.51627">
        <ele>10.3</ele>
        <time>2024-02-04T14:08:04Z</time>
      </trkpt>
      <trkpt lat="43.16578" lon="6.51629">
        <ele>10.3</ele>
        <time>2024-02-04T14:08:05Z</time>
      </trkpt>
      <trkpt lat="43.16579" lon="6.51632">
        <ele>10.3</ele>
        <time>2024-02-04T14:08:06Z</time>
      </trkpt>
      <trkpt lat="43.16579" lon="6.51633">
        <ele>10.4</ele>
        <time>2024-02-04T14:08:07Z</time>
      </trkpt>
      <trkpt lat="43.1658" lon="6.51634">
        <ele>10.4</ele>
        <time>2024-02-04T14:08:08Z</time>
      </trkpt>
      <trkpt lat="43.16582" lon="6.51636">
        <ele>10.4</ele>
        <time>2024-02-04T14:08:09Z</time>
      </trkpt>
      <trkpt lat="43.16582" lon="6.51637">
        <ele>10.4</ele>
        <time>2024-02-04T14:08:10Z</time>
      </trkpt>
      <trkpt lat="43.1658" lon="6.51638">
        <ele>10.3</ele>
        <time>2024-02-04T14:08:11Z</time>
      </trkpt>
      <trkpt lat="43.16581" lon="6.5164">
        <ele>10.3</ele>
        <time>2024-02-04T14:08:12Z</time>
      </trkpt>
      <trkpt lat="43.16582" lon="6.51641">
        <ele>10.3</ele>
        <time>2024-02-04T14:08:13Z</time>
      </trkpt>
      <trkpt lat="43.16583" lon="6.51643">
        <ele>10.4</ele>
        <time>2024-02-04T14:08:14Z</time>
      </trkpt>
      <trkpt lat="43.16583" lon="6.51644">
        <ele>10.5</ele>
        <time>2024-02-04T14:08:15Z</time>
      </trkpt>
      <trkpt lat="43.16583" lon="6.51646">
        <ele>10.6</ele>
        <time>2024-02-04T14:08:16Z</time>
      </trkpt>
      <trkpt lat="43.16584" lon="6.51647">
        <ele>10.6</ele>
        <time>2024-02-04T14:08:17Z</time>
      </trkpt>
      <trkpt lat="43.16584" lon="6.51648">
        <ele>10.7</ele>
        <time>2024-02-04T14:08:18Z</time>
      </trkpt>
      <trkpt lat="43.16584" lon="6.5165">
        <ele>10.7</ele>
        <time>2024-02-04T14:08:19Z</time>
      </trkpt>
      <trkpt lat="43.16584" lon="6.51654">
        <ele>10.7</ele>
        <time>2024-02-04T14:08:20Z</time>
      </trkpt>
      <trkpt lat="43.16582" lon="6.51655">
        <ele>10.8</ele>
        <time>2024-02-04T14:08:21Z</time>
      </trkpt>
      <trkpt lat="43.16582" lon="6.51657">
        <ele>10.8</ele>
        <time>2024-02-04T14:08:22Z</time>
      </trkpt>
      <trkpt lat="43.16582" lon="6.51658">
        <ele>10.9</ele>
        <time>2024-02-04T14:08:23Z</time>
      </trkpt>
      <trkpt lat="43.16584" lon="6.5166">
        <ele>10.9</ele>
        <time>2024-02-04T14:08:24Z</time>
      </trkpt>
      <trkpt lat="43.16584" lon="6.51661">
        <ele>11</ele>
        <time>2024-02-04T14:08:25Z</time>
      </trkpt>
      <trkpt lat="43.16585" lon="6.51663">
        <ele>11</ele>
        <time>2024-02-04T14:08:26Z</time>
      </trkpt>
      <trkpt lat="43.16584" lon="6.51664">
        <ele>11</ele>
        <time>2024-02-04T14:08:27Z</time>
      </trkpt>
      <trkpt lat="43.16583" lon="6.51665">
        <ele>11</ele>
        <time>2024-02-04T14:08:28Z</time>
      </trkpt>
      <trkpt lat="43.16582" lon="6.51666">
        <ele>10.9</ele>
        <time>2024-02-04T14:08:29Z</time>
      </trkpt>
      <trkpt lat="43.1658" lon="6.51667">
        <ele>10.9</ele>
        <time>2024-02-04T14:08:30Z</time>
      </trkpt>
      <trkpt lat="43.16579" lon="6.51668">
        <ele>10.9</ele>
        <time>2024-02-04T14:08:31Z</time>
      </trkpt>
      <trkpt lat="43.1658" lon="6.5167">
        <ele>10.9</ele>
        <time>2024-02-04T14:08:32Z</time>
      </trkpt>
      <trkpt lat="43.16581" lon="6.5167">
        <ele>10.9</ele>
        <time>2024-02-04T14:08:33Z</time>
      </trkpt>
      <trkpt lat="43.16581" lon="6.51671">
        <ele>10.9</ele>
        <time>2024-02-04T14:08:34Z</time>
      </trkpt>
      <trkpt lat="43.1658" lon="6.51672">
        <ele>10.9</ele>
        <time>2024-02-04T14:08:35Z</time>
      </trkpt>
      <trkpt lat="43.16579" lon="6.51673">
        <ele>10.9</ele>
        <time>2024-02-04T14:08:36Z</time>
      </trkpt>
      <trkpt lat="43.16578" lon="6.51675">
        <ele>10.9</ele>
        <time>2024-02-04T14:08:37Z</time>
      </trkpt>
      <trkpt lat="43.16578" lon="6.51676">
        <ele>10.9</ele>
        <time>2024-02-04T14:08:38Z</time>
      </trkpt>
      <trkpt lat="43.16577" lon="6.51677">
        <ele>10.9</ele>
        <time>2024-02-04T14:08:39Z</time>
      </trkpt>
      <trkpt lat="43.16578" lon="6.51678">
        <ele>10.9</ele>
        <time>2024-02-04T14:08:40Z</time>
      </trkpt>
      <trkpt lat="43.16578" lon="6.51679">
        <ele>10.9</ele>
        <time>2024-02-04T14:08:41Z</time>
      </trkpt>
      <trkpt lat="43.16578" lon="6.51679">
        <ele>10.9</ele>
        <time>2024-02-04T14:08:42Z</time>
      </trkpt>
      <trkpt lat="43.1658" lon="6.51681">
        <ele>10.9</ele>
        <time>2024-02-04T14:08:43Z</time>
      </trkpt>
      <trkpt lat="43.1658" lon="6.51682">
        <ele>10.8</ele>
        <time>2024-02-04T14:08:44Z</time>
      </trkpt>
      <trkpt lat="43.16579" lon="6.51685">
        <ele>10.7</ele>
        <time>2024-02-04T14:08:45Z</time>
      </trkpt>
      <trkpt lat="43.1658" lon="6.51686">
        <ele>10.6</ele>
        <time>2024-02-04T14:08:46Z</time>
      </trkpt>
      <trkpt lat="43.1658" lon="6.51687">
        <ele>10.7</ele>
        <time>2024-02-04T14:08:47Z</time>
      </trkpt>
      <trkpt lat="43.1658" lon="6.51687">
        <ele>10.7</ele>
        <time>2024-02-04T14:08:48Z</time>
      </trkpt>
      <trkpt lat="43.16579" lon="6.51688">
        <ele>10.6</ele>
        <time>2024-02-04T14:08:49Z</time>
      </trkpt>
      <trkpt lat="43.16578" lon="6.5169">
        <ele>10.6</ele>
        <time>2024-02-04T14:08:50Z</time>
      </trkpt>
      <trkpt lat="43.16578" lon="6.51691">
        <ele>10.7</ele>
        <time>2024-02-04T14:08:51Z</time>
      </trkpt>
      <trkpt lat="43.16578" lon="6.51692">
        <ele>10.7</ele>
        <time>2024-02-04T14:08:52Z</time>
      </trkpt>
      <trkpt lat="43.16577" lon="6.51693">
        <ele>10.7</ele>
        <time>2024-02-04T14:08:53Z</time>
      </trkpt>
      <trkpt lat="43.16578" lon="6.51695">
        <ele>10.7</ele>
        <time>2024-02-04T14:08:54Z</time>
      </trkpt>
      <trkpt lat="43.16578" lon="6.51697">
        <ele>10.7</ele>
        <time>2024-02-04T14:08:55Z</time>
      </trkpt>
      <trkpt lat="43.16578" lon="6.51698">
        <ele>10.7</ele>
        <time>2024-02-04T14:08:56Z</time>
      </trkpt>
      <trkpt lat="43.16579" lon="6.517">
        <ele>10.5</ele>
        <time>2024-02-04T14:08:57Z</time>
      </trkpt>
      <trkpt lat="43.16578" lon="6.51702">
        <ele>10.5</ele>
        <time>2024-02-04T14:08:58Z</time>
      </trkpt>
      <trkpt lat="43.16577" lon="6.51703">
        <ele>10.5</ele>
        <time>2024-02-04T14:08:59Z</time>
      </trkpt>
      <trkpt lat="43.16576" lon="6.51704">
        <ele>10.5</ele>
        <time>2024-02-04T14:09:00Z</time>
      </trkpt>
      <trkpt lat="43.1657" lon="6.51704">
        <ele>10.5</ele>
        <time>2024-02-04T14:09:01Z</time>
      </trkpt>
      <trkpt lat="43.16566" lon="6.51704">
        <ele>10.5</ele>
        <time>2024-02-04T14:09:02Z</time>
      </trkpt>
      <trkpt lat="43.16565" lon="6.51705">
        <ele>10.5</ele>
        <time>2024-02-04T14:09:03Z</time>
      </trkpt>
      <trkpt lat="43.16564" lon="6.51708">
        <ele>10.4</ele>
        <time>2024-02-04T14:09:04Z</time>
      </trkpt>
      <trkpt lat="43.16562" lon="6.5171">
        <ele>10.4</ele>
        <time>2024-02-04T14:09:05Z</time>
      </trkpt>
      <trkpt lat="43.16561" lon="6.5171">
        <ele>10.4</ele>
        <time>2024-02-04T14:09:06Z</time>
      </trkpt>
      <trkpt lat="43.16558" lon="6.51711">
        <ele>10.4</ele>
        <time>2024-02-04T14:09:07Z</time>
      </trkpt>
      <trkpt lat="43.16557" lon="6.51712">
        <ele>10.4</ele>
        <time>2024-02-04T14:09:08Z</time>
      </trkpt>
      <trkpt lat="43.16557" lon="6.51714">
        <ele>10.4</ele>
        <time>2024-02-04T14:09:09Z</time>
      </trkpt>
      <trkpt lat="43.16556" lon="6.51716">
        <ele>10.3</ele>
        <time>2024-02-04T14:09:10Z</time>
      </trkpt>
      <trkpt lat="43.16554" lon="6.51717">
        <ele>10.2</ele>
        <time>2024-02-04T14:09:11Z</time>
      </trkpt>
      <trkpt lat="43.16554" lon="6.51718">
        <ele>10.1</ele>
        <time>2024-02-04T14:09:12Z</time>
      </trkpt>
      <trkpt lat="43.16553" lon="6.51719">
        <ele>10.1</ele>
        <time>2024-02-04T14:09:13Z</time>
      </trkpt>
      <trkpt lat="43.16552" lon="6.51721">
        <ele>10</ele>
        <time>2024-02-04T14:09:14Z</time>
      </trkpt>
      <trkpt lat="43.16552" lon="6.51722">
        <ele>10</ele>
        <time>2024-02-04T14:09:15Z</time>
      </trkpt>
      <trkpt lat="43.16551" lon="6.51723">
        <ele>10</ele>
        <time>2024-02-04T14:09:16Z</time>
      </trkpt>
      <trkpt lat="43.16551" lon="6.51725">
        <ele>10.1</ele>
        <time>2024-02-04T14:09:17Z</time>
      </trkpt>
      <trkpt lat="43.1655" lon="6.51726">
        <ele>10.1</ele>
        <time>2024-02-04T14:09:18Z</time>
      </trkpt>
      <trkpt lat="43.16549" lon="6.51728">
        <ele>10.1</ele>
        <time>2024-02-04T14:09:19Z</time>
      </trkpt>
      <trkpt lat="43.16548" lon="6.51729">
        <ele>10.1</ele>
        <time>2024-02-04T14:09:20Z</time>
      </trkpt>
      <trkpt lat="43.16548" lon="6.51731">
        <ele>10.2</ele>
        <time>2024-02-04T14:09:21Z</time>
      </trkpt>
      <trkpt lat="43.16548" lon="6.51732">
        <ele>10.2</ele>
        <time>2024-02-04T14:09:22Z</time>
      </trkpt>
      <trkpt lat="43.16547" lon="6.51733">
        <ele>10.4</ele>
        <time>2024-02-04T14:09:23Z</time>
      </trkpt>
      <trkpt lat="43.16547" lon="6.51735">
        <ele>10.5</ele>
        <time>2024-02-04T14:09:24Z</time>
      </trkpt>
      <trkpt lat="43.16547" lon="6.51737">
        <ele>10.5</ele>
        <time>2024-02-04T14:09:25Z</time>
      </trkpt>
      <trkpt lat="43.16547" lon="6.51738">
        <ele>10.4</ele>
        <time>2024-02-04T14:09:26Z</time>
      </trkpt>
      <trkpt lat="43.16546" lon="6.51739">
        <ele>10.4</ele>
        <time>2024-02-04T14:09:27Z</time>
      </trkpt>
      <trkpt lat="43.16545" lon="6.51741">
        <ele>10.4</ele>
        <time>2024-02-04T14:09:28Z</time>
      </trkpt>
      <trkpt lat="43.16544" lon="6.51743">
        <ele>10.3</ele>
        <time>2024-02-04T14:09:29Z</time>
      </trkpt>
      <trkpt lat="43.16544" lon="6.51745">
        <ele>10.1</ele>
        <time>2024-02-04T14:09:30Z</time>
      </trkpt>
      <trkpt lat="43.16544" lon="6.51747">
        <ele>10.1</ele>
        <time>2024-02-04T14:09:31Z</time>
      </trkpt>
      <trkpt lat="43.16543" lon="6.5175">
        <ele>10</ele>
        <time>2024-02-04T14:09:32Z</time>
      </trkpt>
      <trkpt lat="43.16543" lon="6.51752">
        <ele>9.9</ele>
        <time>2024-02-04T14:09:33Z</time>
      </trkpt>
      <trkpt lat="43.16543" lon="6.51754">
        <ele>9.8</ele>
        <time>2024-02-04T14:09:34Z</time>
      </trkpt>
      <trkpt lat="43.16543" lon="6.51755">
        <ele>9.8</ele>
        <time>2024-02-04T14:09:35Z</time>
      </trkpt>
      <trkpt lat="43.16543" lon="6.51757">
        <ele>9.7</ele>
        <time>2024-02-04T14:09:36Z</time>
      </trkpt>
      <trkpt lat="43.16543" lon="6.5176">
        <ele>9.6</ele>
        <time>2024-02-04T14:09:37Z</time>
      </trkpt>
      <trkpt lat="43.16542" lon="6.51761">
        <ele>9.5</ele>
        <time>2024-02-04T14:09:38Z</time>
      </trkpt>
      <trkpt lat="43.16541" lon="6.51762">
        <ele>9.4</ele>
        <time>2024-02-04T14:09:39Z</time>
      </trkpt>
      <trkpt lat="43.16541" lon="6.51763">
        <ele>9.3</ele>
        <time>2024-02-04T14:09:40Z</time>
      </trkpt>
      <trkpt lat="43.16542" lon="6.51765">
        <ele>9.3</ele>
        <time>2024-02-04T14:09:41Z</time>
      </trkpt>
      <trkpt lat="43.16542" lon="6.51767">
        <ele>9.3</ele>
        <time>2024-02-04T14:09:42Z</time>
      </trkpt>
      <trkpt lat="43.16541" lon="6.51769">
        <ele>9.2</ele>
        <time>2024-02-04T14:09:43Z</time>
      </trkpt>
      <trkpt lat="43.16541" lon="6.5177">
        <ele>9.2</ele>
        <time>2024-02-04T14:09:44Z</time>
      </trkpt>
      <trkpt lat="43.16542" lon="6.51772">
        <ele>9.1</ele>
        <time>2024-02-04T14:09:45Z</time>
      </trkpt>
      <trkpt lat="43.16541" lon="6.51773">
        <ele>9.1</ele>
        <time>2024-02-04T14:09:46Z</time>
      </trkpt>
      <trkpt lat="43.16541" lon="6.51775">
        <ele>9.1</ele>
        <time>2024-02-04T14:09:47Z</time>
      </trkpt>
      <trkpt lat="43.16541" lon="6.51776">
        <ele>9</ele>
        <time>2024-02-04T14:09:48Z</time>
      </trkpt>
      <trkpt lat="43.16542" lon="6.51778">
        <ele>9</ele>
        <time>2024-02-04T14:09:49Z</time>
      </trkpt>
      <trkpt lat="43.16541" lon="6.51779">
        <ele>8.9</ele>
        <time>2024-02-04T14:09:50Z</time>
      </trkpt>
      <trkpt lat="43.16541" lon="6.5178">
        <ele>9</ele>
        <time>2024-02-04T14:09:51Z</time>
      </trkpt>
      <trkpt lat="43.16541" lon="6.51782">
        <ele>9.1</ele>
        <time>2024-02-04T14:09:52Z</time>
      </trkpt>
      <trkpt lat="43.16543" lon="6.51783">
        <ele>9.2</ele>
        <time>2024-02-04T14:09:53Z</time>
      </trkpt>
      <trkpt lat="43.16545" lon="6.51784">
        <ele>9.2</ele>
        <time>2024-02-04T14:09:54Z</time>
      </trkpt>
      <trkpt lat="43.16545" lon="6.51786">
        <ele>9.2</ele>
        <time>2024-02-04T14:09:55Z</time>
      </trkpt>
      <trkpt lat="43.16545" lon="6.51788">
        <ele>9.2</ele>
        <time>2024-02-04T14:09:56Z</time>
      </trkpt>
      <trkpt lat="43.16546" lon="6.5179">
        <ele>9.3</ele>
        <time>2024-02-04T14:09:57Z</time>
      </trkpt>
      <trkpt lat="43.16546" lon="6.51793">
        <ele>9.2</ele>
        <time>2024-02-04T14:09:58Z</time>
      </trkpt>
      <trkpt lat="43.16546" lon="6.51795">
        <ele>9.3</ele>
        <time>2024-02-04T14:09:59Z</time>
      </trkpt>
      <trkpt lat="43.16546" lon="6.51797">
        <ele>9.3</ele>
        <time>2024-02-04T14:10:00Z</time>
      </trkpt>
      <trkpt lat="43.16546" lon="6.51799">
        <ele>9.4</ele>
        <time>2024-02-04T14:10:01Z</time>
      </trkpt>
      <trkpt lat="43.16545" lon="6.518">
        <ele>9.4</ele>
        <time>2024-02-04T14:10:02Z</time>
      </trkpt>
      <trkpt lat="43.16545" lon="6.51802">
        <ele>9.5</ele>
        <time>2024-02-04T14:10:03Z</time>
      </trkpt>
      <trkpt lat="43.16545" lon="6.51804">
        <ele>9.6</ele>
        <time>2024-02-04T14:10:04Z</time>
      </trkpt>
      <trkpt lat="43.16545" lon="6.51805">
        <ele>9.7</ele>
        <time>2024-02-04T14:10:05Z</time>
      </trkpt>
      <trkpt lat="43.16545" lon="6.51807">
        <ele>9.8</ele>
        <time>2024-02-04T14:10:06Z</time>
      </trkpt>
      <trkpt lat="43.16545" lon="6.51808">
        <ele>9.8</ele>
        <time>2024-02-04T14:10:07Z</time>
      </trkpt>
      <trkpt lat="43.16544" lon="6.5181">
        <ele>9.9</ele>
        <time>2024-02-04T14:10:08Z</time>
      </trkpt>
      <trkpt lat="43.16544" lon="6.51811">
        <ele>10</ele>
        <time>2024-02-04T14:10:09Z</time>
      </trkpt>
      <trkpt lat="43.16545" lon="6.51813">
        <ele>9.9</ele>
        <time>2024-02-04T14:10:10Z</time>
      </trkpt>
      <trkpt lat="43.16545" lon="6.51815">
        <ele>9.9</ele>
        <time>2024-02-04T14:10:11Z</time>
      </trkpt>
      <trkpt lat="43.16545" lon="6.51816">
        <ele>9.9</ele>
        <time>2024-02-04T14:10:12Z</time>
      </trkpt>
      <trkpt lat="43.16545" lon="6.51817">
        <ele>9.9</ele>
        <time>2024-02-04T14:10:13Z</time>
      </trkpt>
      <trkpt lat="43.16544" lon="6.51819">
        <ele>9.8</ele>
        <time>2024-02-04T14:10:14Z</time>
      </trkpt>
      <trkpt lat="43.16543" lon="6.5182">
        <ele>9.9</ele>
        <time>2024-02-04T14:10:15Z</time>
      </trkpt>
      <trkpt lat="43.16543" lon="6.51822">
        <ele>9.8</ele>
        <time>2024-02-04T14:10:16Z</time>
      </trkpt>
      <trkpt lat="43.16544" lon="6.51823">
        <ele>9.8</ele>
        <time>2024-02-04T14:10:17Z</time>
      </trkpt>
      <trkpt lat="43.16544" lon="6.51825">
        <ele>9.7</ele>
        <time>2024-02-04T14:10:18Z</time>
      </trkpt>
      <trkpt lat="43.16544" lon="6.51827">
        <ele>9.7</ele>
        <time>2024-02-04T14:10:19Z</time>
      </trkpt>
      <trkpt lat="43.16546" lon="6.51829">
        <ele>9.6</ele>
        <time>2024-02-04T14:10:20Z</time>
      </trkpt>
      <trkpt lat="43.16546" lon="6.51831">
        <ele>9.5</ele>
        <time>2024-02-04T14:10:21Z</time>
      </trkpt>
      <trkpt lat="43.16545" lon="6.51833">
        <ele>9.4</ele>
        <time>2024-02-04T14:10:22Z</time>
      </trkpt>
      <trkpt lat="43.16545" lon="6.51834">
        <ele>9.3</ele>
        <time>2024-02-04T14:10:23Z</time>
      </trkpt>
      <trkpt lat="43.16545" lon="6.51835">
        <ele>9.1</ele>
        <time>2024-02-04T14:10:24Z</time>
      </trkpt>
      <trkpt lat="43.16545" lon="6.51838">
        <ele>9.1</ele>
        <time>2024-02-04T14:10:25Z</time>
      </trkpt>
      <trkpt lat="43.16544" lon="6.51839">
        <ele>9</ele>
        <time>2024-02-04T14:10:26Z</time>
      </trkpt>
      <trkpt lat="43.16544" lon="6.51841">
        <ele>8.9</ele>
        <time>2024-02-04T14:10:27Z</time>
      </trkpt>
      <trkpt lat="43.16544" lon="6.51843">
        <ele>9</ele>
        <time>2024-02-04T14:10:28Z</time>
      </trkpt>
      <trkpt lat="43.16544" lon="6.51845">
        <ele>9</ele>
        <time>2024-02-04T14:10:29Z</time>
      </trkpt>
      <trkpt lat="43.16544" lon="6.51846">
        <ele>9</ele>
        <time>2024-02-04T14:10:30Z</time>
      </trkpt>
      <trkpt lat="43.16543" lon="6.51847">
        <ele>9.1</ele>
        <time>2024-02-04T14:10:31Z</time>
      </trkpt>
      <trkpt lat="43.16543" lon="6.51849">
        <ele>9.1</ele>
        <time>2024-02-04T14:10:32Z</time>
      </trkpt>
      <trkpt lat="43.16543" lon="6.51851">
        <ele>9.1</ele>
        <time>2024-02-04T14:10:33Z</time>
      </trkpt>
      <trkpt lat="43.16543" lon="6.51852">
        <ele>9.1</ele>
        <time>2024-02-04T14:10:34Z</time>
      </trkpt>
      <trkpt lat="43.16545" lon="6.51853">
        <ele>9.1</ele>
        <time>2024-02-04T14:10:35Z</time>
      </trkpt>
      <trkpt lat="43.16546" lon="6.51855">
        <ele>9.2</ele>
        <time>2024-02-04T14:10:36Z</time>
      </trkpt>
      <trkpt lat="43.16547" lon="6.51857">
        <ele>9.1</ele>
        <time>2024-02-04T14:10:37Z</time>
      </trkpt>
      <trkpt lat="43.16547" lon="6.51859">
        <ele>9</ele>
        <time>2024-02-04T14:10:38Z</time>
      </trkpt>
      <trkpt lat="43.16549" lon="6.51861">
        <ele>9</ele>
        <time>2024-02-04T14:10:39Z</time>
      </trkpt>
      <trkpt lat="43.1655" lon="6.51863">
        <ele>9</ele>
        <time>2024-02-04T14:10:40Z</time>
      </trkpt>
      <trkpt lat="43.16552" lon="6.51864">
        <ele>9</ele>
        <time>2024-02-04T14:10:41Z</time>
      </trkpt>
      <trkpt lat="43.16553" lon="6.51865">
        <ele>9</ele>
        <time>2024-02-04T14:10:42Z</time>
      </trkpt>
      <trkpt lat="43.16554" lon="6.51867">
        <ele>8.9</ele>
        <time>2024-02-04T14:10:43Z</time>
      </trkpt>
      <trkpt lat="43.16555" lon="6.51869">
        <ele>8.9</ele>
        <time>2024-02-04T14:10:44Z</time>
      </trkpt>
      <trkpt lat="43.16555" lon="6.51871">
        <ele>8.9</ele>
        <time>2024-02-04T14:10:45Z</time>
      </trkpt>
      <trkpt lat="43.16555" lon="6.51872">
        <ele>9</ele>
        <time>2024-02-04T14:10:46Z</time>
      </trkpt>
      <trkpt lat="43.16555" lon="6.51874">
        <ele>9</ele>
        <time>2024-02-04T14:10:47Z</time>
      </trkpt>
      <trkpt lat="43.16555" lon="6.51875">
        <ele>9</ele>
        <time>2024-02-04T14:10:48Z</time>
      </trkpt>
      <trkpt lat="43.16555" lon="6.51876">
        <ele>9.1</ele>
        <time>2024-02-04T14:10:49Z</time>
      </trkpt>
      <trkpt lat="43.16555" lon="6.51877">
        <ele>9.1</ele>
        <time>2024-02-04T14:10:50Z</time>
      </trkpt>
      <trkpt lat="43.16555" lon="6.51879">
        <ele>9.1</ele>
        <time>2024-02-04T14:10:51Z</time>
      </trkpt>
      <trkpt lat="43.16555" lon="6.51881">
        <ele>9</ele>
        <time>2024-02-04T14:10:52Z</time>
      </trkpt>
      <trkpt lat="43.16555" lon="6.51882">
        <ele>9</ele>
        <time>2024-02-04T14:10:53Z</time>
      </trkpt>
      <trkpt lat="43.16555" lon="6.51883">
        <ele>9</ele>
        <time>2024-02-04T14:10:54Z</time>
      </trkpt>
      <trkpt lat="43.16556" lon="6.51884">
        <ele>9.1</ele>
        <time>2024-02-04T14:10:55Z</time>
      </trkpt>
      <trkpt lat="43.16555" lon="6.51886">
        <ele>9.1</ele>
        <time>2024-02-04T14:10:56Z</time>
      </trkpt>
      <trkpt lat="43.16555" lon="6.51887">
        <ele>9.1</ele>
        <time>2024-02-04T14:10:57Z</time>
      </trkpt>
      <trkpt lat="43.16556" lon="6.51888">
        <ele>9.1</ele>
        <time>2024-02-04T14:10:58Z</time>
      </trkpt>
      <trkpt lat="43.16556" lon="6.51889">
        <ele>9</ele>
        <time>2024-02-04T14:10:59Z</time>
      </trkpt>
      <trkpt lat="43.16557" lon="6.5189">
        <ele>9</ele>
        <time>2024-02-04T14:11:00Z</time>
      </trkpt>
      <trkpt lat="43.16557" lon="6.51892">
        <ele>8.9</ele>
        <time>2024-02-04T14:11:01Z</time>
      </trkpt>
      <trkpt lat="43.16557" lon="6.51894">
        <ele>8.9</ele>
        <time>2024-02-04T14:11:02Z</time>
      </trkpt>
      <trkpt lat="43.16557" lon="6.51895">
        <ele>8.9</ele>
        <time>2024-02-04T14:11:03Z</time>
      </trkpt>
      <trkpt lat="43.16558" lon="6.51897">
        <ele>8.9</ele>
        <time>2024-02-04T14:11:04Z</time>
      </trkpt>
      <trkpt lat="43.16558" lon="6.51898">
        <ele>8.9</ele>
        <time>2024-02-04T14:11:05Z</time>
      </trkpt>
      <trkpt lat="43.16558" lon="6.519">
        <ele>8.9</ele>
        <time>2024-02-04T14:11:06Z</time>
      </trkpt>
      <trkpt lat="43.16557" lon="6.51901">
        <ele>8.9</ele>
        <time>2024-02-04T14:11:07Z</time>
      </trkpt>
      <trkpt lat="43.16558" lon="6.51903">
        <ele>9</ele>
        <time>2024-02-04T14:11:08Z</time>
      </trkpt>
      <trkpt lat="43.16559" lon="6.51904">
        <ele>9</ele>
        <time>2024-02-04T14:11:09Z</time>
      </trkpt>
      <trkpt lat="43.16559" lon="6.51906">
        <ele>9.1</ele>
        <time>2024-02-04T14:11:10Z</time>
      </trkpt>
      <trkpt lat="43.1656" lon="6.51907">
        <ele>9.2</ele>
        <time>2024-02-04T14:11:11Z</time>
      </trkpt>
      <trkpt lat="43.1656" lon="6.51909">
        <ele>9.2</ele>
        <time>2024-02-04T14:11:12Z</time>
      </trkpt>
      <trkpt lat="43.1656" lon="6.51911">
        <ele>9.2</ele>
        <time>2024-02-04T14:11:13Z</time>
      </trkpt>
      <trkpt lat="43.16559" lon="6.51913">
        <ele>9.2</ele>
        <time>2024-02-04T14:11:14Z</time>
      </trkpt>
      <trkpt lat="43.1656" lon="6.51915">
        <ele>9.3</ele>
        <time>2024-02-04T14:11:15Z</time>
      </trkpt>
      <trkpt lat="43.1656" lon="6.51916">
        <ele>9.3</ele>
        <time>2024-02-04T14:11:16Z</time>
      </trkpt>
      <trkpt lat="43.1656" lon="6.51918">
        <ele>9.4</ele>
        <time>2024-02-04T14:11:17Z</time>
      </trkpt>
      <trkpt lat="43.16561" lon="6.5192">
        <ele>9.3</ele>
        <time>2024-02-04T14:11:18Z</time>
      </trkpt>
      <trkpt lat="43.16561" lon="6.51922">
        <ele>9.3</ele>
        <time>2024-02-04T14:11:19Z</time>
      </trkpt>
      <trkpt lat="43.1656" lon="6.51923">
        <ele>9.3</ele>
        <time>2024-02-04T14:11:20Z</time>
      </trkpt>
      <trkpt lat="43.16561" lon="6.51925">
        <ele>9.3</ele>
        <time>2024-02-04T14:11:21Z</time>
      </trkpt>
      <trkpt lat="43.16561" lon="6.51926">
        <ele>9.3</ele>
        <time>2024-02-04T14:11:22Z</time>
      </trkpt>
      <trkpt lat="43.16561" lon="6.51928">
        <ele>9.3</ele>
        <time>2024-02-04T14:11:23Z</time>
      </trkpt>
      <trkpt lat="43.16561" lon="6.51929">
        <ele>9.4</ele>
        <time>2024-02-04T14:11:24Z</time>
      </trkpt>
      <trkpt lat="43.16562" lon="6.51931">
        <ele>9.4</ele>
        <time>2024-02-04T14:11:25Z</time>
      </trkpt>
      <trkpt lat="43.16562" lon="6.51932">
        <ele>9.4</ele>
        <time>2024-02-04T14:11:26Z</time>
      </trkpt>
      <trkpt lat="43.16562" lon="6.51933">
        <ele>9.4</ele>
        <time>2024-02-04T14:11:27Z</time>
      </trkpt>
      <trkpt lat="43.16562" lon="6.51935">
        <ele>9.4</ele>
        <time>2024-02-04T14:11:28Z</time>
      </trkpt>
      <trkpt lat="43.16562" lon="6.51937">
        <ele>9.3</ele>
        <time>2024-02-04T14:11:29Z</time>
      </trkpt>
      <trkpt lat="43.16562" lon="6.51939">
        <ele>9.3</ele>
        <time>2024-02-04T14:11:30Z</time>
      </trkpt>
      <trkpt lat="43.16562" lon="6.5194">
        <ele>9.2</ele>
        <time>2024-02-04T14:11:31Z</time>
      </trkpt>
      <trkpt lat="43.16562" lon="6.51942">
        <ele>9.2</ele>
        <time>2024-02-04T14:11:32Z</time>
      </trkpt>
      <trkpt lat="43.16562" lon="6.51943">
        <ele>9.2</ele>
        <time>2024-02-04T14:11:33Z</time>
      </trkpt>
      <trkpt lat="43.16562" lon="6.51945">
        <ele>9.2</ele>
        <time>2024-02-04T14:11:34Z</time>
      </trkpt>
      <trkpt lat="43.16563" lon="6.51947">
        <ele>9.2</ele>
        <time>2024-02-04T14:11:35Z</time>
      </trkpt>
      <trkpt lat="43.16563" lon="6.51948">
        <ele>9.1</ele>
        <time>2024-02-04T14:11:36Z</time>
      </trkpt>
      <trkpt lat="43.16563" lon="6.51949">
        <ele>9</ele>
        <time>2024-02-04T14:11:37Z</time>
      </trkpt>
      <trkpt lat="43.16563" lon="6.51951">
        <ele>9</ele>
        <time>2024-02-04T14:11:38Z</time>
      </trkpt>
      <trkpt lat="43.16563" lon="6.51951">
        <ele>9</ele>
        <time>2024-02-04T14:11:39Z</time>
      </trkpt>
      <trkpt lat="43.16563" lon="6.51953">
        <ele>9</ele>
        <time>2024-02-04T14:11:40Z</time>
      </trkpt>
      <trkpt lat="43.16564" lon="6.51953">
        <ele>9</ele>
        <time>2024-02-04T14:11:41Z</time>
      </trkpt>
      <trkpt lat="43.16564" lon="6.51953">
        <ele>9</ele>
        <time>2024-02-04T14:11:42Z</time>
      </trkpt>
      <trkpt lat="43.16564" lon="6.51952">
        <ele>9</ele>
        <time>2024-02-04T14:11:43Z</time>
      </trkpt>
      <trkpt lat="43.16564" lon="6.51951">
        <ele>8.9</ele>
        <time>2024-02-04T14:11:44Z</time>
      </trkpt>
      <trkpt lat="43.16564" lon="6.5195">
        <ele>9</ele>
        <time>2024-02-04T14:11:45Z</time>
      </trkpt>
      <trkpt lat="43.16565" lon="6.5195">
        <ele>9</ele>
        <time>2024-02-04T14:11:46Z</time>
      </trkpt>
      <trkpt lat="43.16565" lon="6.51951">
        <ele>9</ele>
        <time>2024-02-04T14:11:47Z</time>
      </trkpt>
      <trkpt lat="43.16565" lon="6.51952">
        <ele>9</ele>
        <time>2024-02-04T14:11:48Z</time>
      </trkpt>
      <trkpt lat="43.16566" lon="6.51952">
        <ele>9.1</ele>
        <time>2024-02-04T14:11:49Z</time>
      </trkpt>
      <trkpt lat="43.16567" lon="6.51953">
        <ele>9</ele>
        <time>2024-02-04T14:11:50Z</time>
      </trkpt>
      <trkpt lat="43.16568" lon="6.51954">
        <ele>9</ele>
        <time>2024-02-04T14:11:51Z</time>
      </trkpt>
      <trkpt lat="43.16569" lon="6.51954">
        <ele>9</ele>
        <time>2024-02-04T14:11:52Z</time>
      </trkpt>
      <trkpt lat="43.1657" lon="6.51953">
        <ele>9.1</ele>
        <time>2024-02-04T14:11:53Z</time>
      </trkpt>
      <trkpt lat="43.1657" lon="6.51953">
        <ele>9.1</ele>
        <time>2024-02-04T14:11:54Z</time>
      </trkpt>
      <trkpt lat="43.16571" lon="6.51954">
        <ele>9.1</ele>
        <time>2024-02-04T14:11:55Z</time>
      </trkpt>
      <trkpt lat="43.16571" lon="6.51954">
        <ele>9.1</ele>
        <time>2024-02-04T14:11:56Z</time>
      </trkpt>
      <trkpt lat="43.16572" lon="6.51954">
        <ele>9.1</ele>
        <time>2024-02-04T14:11:57Z</time>
      </trkpt>
      <trkpt lat="43.16573" lon="6.51954">
        <ele>9.1</ele>
        <time>2024-02-04T14:11:58Z</time>
      </trkpt>
      <trkpt lat="43.16574" lon="6.51954">
        <ele>9.1</ele>
        <time>2024-02-04T14:11:59Z</time>
      </trkpt>
      <trkpt lat="43.16575" lon="6.51955">
        <ele>9.2</ele>
        <time>2024-02-04T14:12:00Z</time>
      </trkpt>
      <trkpt lat="43.16577" lon="6.51955">
        <ele>9.3</ele>
        <time>2024-02-04T14:12:01Z</time>
      </trkpt>
      <trkpt lat="43.16578" lon="6.51956">
        <ele>9.2</ele>
        <time>2024-02-04T14:12:02Z</time>
      </trkpt>
      <trkpt lat="43.16578" lon="6.51956">
        <ele>9.1</ele>
        <time>2024-02-04T14:12:03Z</time>
      </trkpt>
      <trkpt lat="43.16579" lon="6.51957">
        <ele>9.1</ele>
        <time>2024-02-04T14:12:04Z</time>
      </trkpt>
      <trkpt lat="43.16579" lon="6.51957">
        <ele>9.1</ele>
        <time>2024-02-04T14:12:05Z</time>
      </trkpt>
      <trkpt lat="43.1658" lon="6.51957">
        <ele>9.1</ele>
        <time>2024-02-04T14:12:06Z</time>
      </trkpt>
      <trkpt lat="43.16581" lon="6.51957">
        <ele>9.1</ele>
        <time>2024-02-04T14:12:07Z</time>
      </trkpt>
      <trkpt lat="43.16582" lon="6.51958">
        <ele>9.2</ele>
        <time>2024-02-04T14:12:08Z</time>
      </trkpt>
      <trkpt lat="43.16584" lon="6.5196">
        <ele>9.2</ele>
        <time>2024-02-04T14:12:09Z</time>
      </trkpt>
      <trkpt lat="43.16585" lon="6.5196">
        <ele>9.3</ele>
        <time>2024-02-04T14:12:10Z</time>
      </trkpt>
      <trkpt lat="43.16586" lon="6.51961">
        <ele>9.3</ele>
        <time>2024-02-04T14:12:11Z</time>
      </trkpt>
      <trkpt lat="43.16587" lon="6.51962">
        <ele>9.4</ele>
        <time>2024-02-04T14:12:12Z</time>
      </trkpt>
      <trkpt lat="43.16587" lon="6.51963">
        <ele>9.5</ele>
        <time>2024-02-04T14:12:13Z</time>
      </trkpt>
      <trkpt lat="43.16587" lon="6.51965">
        <ele>9.5</ele>
        <time>2024-02-04T14:12:14Z</time>
      </trkpt>
      <trkpt lat="43.16588" lon="6.51966">
        <ele>9.6</ele>
        <time>2024-02-04T14:12:15Z</time>
      </trkpt>
      <trkpt lat="43.16589" lon="6.51966">
        <ele>9.7</ele>
        <time>2024-02-04T14:12:16Z</time>
      </trkpt>
      <trkpt lat="43.1659" lon="6.51966">
        <ele>9.9</ele>
        <time>2024-02-04T14:12:17Z</time>
      </trkpt>
      <trkpt lat="43.1659" lon="6.51967">
        <ele>10.1</ele>
        <time>2024-02-04T14:12:18Z</time>
      </trkpt>
      <trkpt lat="43.1659" lon="6.51967">
        <ele>10.2</ele>
        <time>2024-02-04T14:12:19Z</time>
      </trkpt>
      <trkpt lat="43.1659" lon="6.51968">
        <ele>10.4</ele>
        <time>2024-02-04T14:12:20Z</time>
      </trkpt>
      <trkpt lat="43.1659" lon="6.51968">
        <ele>10.6</ele>
        <time>2024-02-04T14:12:21Z</time>
      </trkpt>
      <trkpt lat="43.16589" lon="6.51969">
        <ele>10.7</ele>
        <time>2024-02-04T14:12:22Z</time>
      </trkpt>
      <trkpt lat="43.1659" lon="6.5197">
        <ele>10.9</ele>
        <time>2024-02-04T14:12:23Z</time>
      </trkpt>
      <trkpt lat="43.1659" lon="6.51972">
        <ele>11</ele>
        <time>2024-02-04T14:12:24Z</time>
      </trkpt>
      <trkpt lat="43.1659" lon="6.51973">
        <ele>11.1</ele>
        <time>2024-02-04T14:12:25Z</time>
      </trkpt>
      <trkpt lat="43.16591" lon="6.51974">
        <ele>11.4</ele>
        <time>2024-02-04T14:12:26Z</time>
      </trkpt>
      <trkpt lat="43.16591" lon="6.51975">
        <ele>11.6</ele>
        <time>2024-02-04T14:12:27Z</time>
      </trkpt>
      <trkpt lat="43.16591" lon="6.51976">
        <ele>11.9</ele>
        <time>2024-02-04T14:12:28Z</time>
      </trkpt>
      <trkpt lat="43.16591" lon="6.51977">
        <ele>12.1</ele>
        <time>2024-02-04T14:12:29Z</time>
      </trkpt>
      <trkpt lat="43.16591" lon="6.51977">
        <ele>12.3</ele>
        <time>2024-02-04T14:12:30Z</time>
      </trkpt>
      <trkpt lat="43.16592" lon="6.51978">
        <ele>12.5</ele>
        <time>2024-02-04T14:12:31Z</time>
      </trkpt>
      <trkpt lat="43.16593" lon="6.51979">
        <ele>12.7</ele>
        <time>2024-02-04T14:12:32Z</time>
      </trkpt>
      <trkpt lat="43.16593" lon="6.5198">
        <ele>12.9</ele>
        <time>2024-02-04T14:12:33Z</time>
      </trkpt>
      <trkpt lat="43.16593" lon="6.5198">
        <ele>13</ele>
        <time>2024-02-04T14:12:34Z</time>
      </trkpt>
      <trkpt lat="43.16594" lon="6.51982">
        <ele>13.2</ele>
        <time>2024-02-04T14:12:35Z</time>
      </trkpt>
      <trkpt lat="43.16595" lon="6.51982">
        <ele>13.3</ele>
        <time>2024-02-04T14:12:36Z</time>
      </trkpt>
      <trkpt lat="43.16594" lon="6.51983">
        <ele>13.5</ele>
        <time>2024-02-04T14:12:37Z</time>
      </trkpt>
      <trkpt lat="43.16594" lon="6.51984">
        <ele>13.7</ele>
        <time>2024-02-04T14:12:38Z</time>
      </trkpt>
      <trkpt lat="43.16594" lon="6.51986">
        <ele>13.9</ele>
        <time>2024-02-04T14:12:39Z</time>
      </trkpt>
      <trkpt lat="43.16595" lon="6.51987">
        <ele>14.1</ele>
        <time>2024-02-04T14:12:40Z</time>
      </trkpt>
      <trkpt lat="43.16594" lon="6.51988">
        <ele>14.4</ele>
        <time>2024-02-04T14:12:41Z</time>
      </trkpt>
      <trkpt lat="43.16594" lon="6.5199">
        <ele>14.7</ele>
        <time>2024-02-04T14:12:42Z</time>
      </trkpt>
      <trkpt lat="43.16595" lon="6.5199">
        <ele>15</ele>
        <time>2024-02-04T14:12:43Z</time>
      </trkpt>
      <trkpt lat="43.16596" lon="6.51992">
        <ele>15.2</ele>
        <time>2024-02-04T14:12:44Z</time>
      </trkpt>
      <trkpt lat="43.16597" lon="6.51993">
        <ele>15.4</ele>
        <time>2024-02-04T14:12:45Z</time>
      </trkpt>
      <trkpt lat="43.16599" lon="6.51994">
        <ele>15.7</ele>
        <time>2024-02-04T14:12:46Z</time>
      </trkpt>
      <trkpt lat="43.16599" lon="6.51995">
        <ele>15.9</ele>
        <time>2024-02-04T14:12:47Z</time>
      </trkpt>
      <trkpt lat="43.16599" lon="6.51996">
        <ele>16.1</ele>
        <time>2024-02-04T14:12:48Z</time>
      </trkpt>
      <trkpt lat="43.166" lon="6.51997">
        <ele>16.3</ele>
        <time>2024-02-04T14:12:49Z</time>
      </trkpt>
      <trkpt lat="43.166" lon="6.51999">
        <ele>16.5</ele>
        <time>2024-02-04T14:12:50Z</time>
      </trkpt>
      <trkpt lat="43.16601" lon="6.51999">
        <ele>16.6</ele>
        <time>2024-02-04T14:12:51Z</time>
      </trkpt>
      <trkpt lat="43.16601" lon="6.52">
        <ele>16.8</ele>
        <time>2024-02-04T14:12:52Z</time>
      </trkpt>
      <trkpt lat="43.16602" lon="6.52001">
        <ele>17.1</ele>
        <time>2024-02-04T14:12:53Z</time>
      </trkpt>
      <trkpt lat="43.16602" lon="6.52002">
        <ele>17.3</ele>
        <time>2024-02-04T14:12:54Z</time>
      </trkpt>
      <trkpt lat="43.16603" lon="6.52003">
        <ele>17.6</ele>
        <time>2024-02-04T14:12:55Z</time>
      </trkpt>
      <trkpt lat="43.16603" lon="6.52004">
        <ele>17.8</ele>
        <time>2024-02-04T14:12:56Z</time>
      </trkpt>
      <trkpt lat="43.16604" lon="6.52007">
        <ele>18</ele>
        <time>2024-02-04T14:12:57Z</time>
      </trkpt>
      <trkpt lat="43.16606" lon="6.52008">
        <ele>18.3</ele>
        <time>2024-02-04T14:12:58Z</time>
      </trkpt>
      <trkpt lat="43.16606" lon="6.52009">
        <ele>18.6</ele>
        <time>2024-02-04T14:12:59Z</time>
      </trkpt>
      <trkpt lat="43.16607" lon="6.5201">
        <ele>18.8</ele>
        <time>2024-02-04T14:13:00Z</time>
      </trkpt>
      <trkpt lat="43.16609" lon="6.52011">
        <ele>19</ele>
        <time>2024-02-04T14:13:01Z</time>
      </trkpt>
      <trkpt lat="43.1661" lon="6.52012">
        <ele>19.2</ele>
        <time>2024-02-04T14:13:02Z</time>
      </trkpt>
      <trkpt lat="43.16612" lon="6.52012">
        <ele>19.3</ele>
        <time>2024-02-04T14:13:03Z</time>
      </trkpt>
      <trkpt lat="43.16612" lon="6.52014">
        <ele>19.4</ele>
        <time>2024-02-04T14:13:04Z</time>
      </trkpt>
      <trkpt lat="43.16614" lon="6.52015">
        <ele>19.5</ele>
        <time>2024-02-04T14:13:05Z</time>
      </trkpt>
      <trkpt lat="43.16615" lon="6.52016">
        <ele>19.8</ele>
        <time>2024-02-04T14:13:06Z</time>
      </trkpt>
      <trkpt lat="43.16615" lon="6.52017">
        <ele>20.1</ele>
        <time>2024-02-04T14:13:07Z</time>
      </trkpt>
      <trkpt lat="43.16616" lon="6.52018">
        <ele>20.4</ele>
        <time>2024-02-04T14:13:08Z</time>
      </trkpt>
      <trkpt lat="43.16617" lon="6.5202">
        <ele>20.5</ele>
        <time>2024-02-04T14:13:09Z</time>
      </trkpt>
      <trkpt lat="43.16617" lon="6.52021">
        <ele>20.8</ele>
        <time>2024-02-04T14:13:10Z</time>
      </trkpt>
      <trkpt lat="43.16618" lon="6.52022">
        <ele>21.1</ele>
        <time>2024-02-04T14:13:11Z</time>
      </trkpt>
      <trkpt lat="43.16618" lon="6.52024">
        <ele>21.4</ele>
        <time>2024-02-04T14:13:12Z</time>
      </trkpt>
      <trkpt lat="43.16618" lon="6.52025">
        <ele>21.5</ele>
        <time>2024-02-04T14:13:13Z</time>
      </trkpt>
      <trkpt lat="43.16619" lon="6.52027">
        <ele>21.7</ele>
        <time>2024-02-04T14:13:14Z</time>
      </trkpt>
      <trkpt lat="43.16619" lon="6.52028">
        <ele>21.8</ele>
        <time>2024-02-04T14:13:15Z</time>
      </trkpt>
      <trkpt lat="43.16619" lon="6.52028">
        <ele>22</ele>
        <time>2024-02-04T14:13:16Z</time>
      </trkpt>
      <trkpt lat="43.16619" lon="6.52029">
        <ele>22.1</ele>
        <time>2024-02-04T14:13:17Z</time>
      </trkpt>
      <trkpt lat="43.16619" lon="6.5203">
        <ele>22.2</ele>
        <time>2024-02-04T14:13:18Z</time>
      </trkpt>
      <trkpt lat="43.16619" lon="6.52031">
        <ele>22.4</ele>
        <time>2024-02-04T14:13:19Z</time>
      </trkpt>
      <trkpt lat="43.1662" lon="6.52032">
        <ele>22.5</ele>
        <time>2024-02-04T14:13:20Z</time>
      </trkpt>
      <trkpt lat="43.1662" lon="6.52033">
        <ele>22.8</ele>
        <time>2024-02-04T14:13:21Z</time>
      </trkpt>
      <trkpt lat="43.1662" lon="6.52035">
        <ele>22.9</ele>
        <time>2024-02-04T14:13:22Z</time>
      </trkpt>
      <trkpt lat="43.1662" lon="6.52036">
        <ele>23.1</ele>
        <time>2024-02-04T14:13:23Z</time>
      </trkpt>
      <trkpt lat="43.1662" lon="6.52037">
        <ele>23.3</ele>
        <time>2024-02-04T14:13:24Z</time>
      </trkpt>
      <trkpt lat="43.1662" lon="6.52039">
        <ele>23.5</ele>
        <time>2024-02-04T14:13:25Z</time>
      </trkpt>
      <trkpt lat="43.16621" lon="6.5204">
        <ele>23.7</ele>
        <time>2024-02-04T14:13:26Z</time>
      </trkpt>
      <trkpt lat="43.16621" lon="6.52042">
        <ele>24</ele>
        <time>2024-02-04T14:13:27Z</time>
      </trkpt>
      <trkpt lat="43.16622" lon="6.52043">
        <ele>24.1</ele>
        <time>2024-02-04T14:13:28Z</time>
      </trkpt>
      <trkpt lat="43.16622" lon="6.52045">
        <ele>24.3</ele>
        <time>2024-02-04T14:13:29Z</time>
      </trkpt>
      <trkpt lat="43.16622" lon="6.52047">
        <ele>24.5</ele>
        <time>2024-02-04T14:13:30Z</time>
      </trkpt>
      <trkpt lat="43.16621" lon="6.52049">
        <ele>24.7</ele>
        <time>2024-02-04T14:13:31Z</time>
      </trkpt>
      <trkpt lat="43.16622" lon="6.52049">
        <ele>24.9</ele>
        <time>2024-02-04T14:13:32Z</time>
      </trkpt>
      <trkpt lat="43.16622" lon="6.5205">
        <ele>25</ele>
        <time>2024-02-04T14:13:33Z</time>
      </trkpt>
      <trkpt lat="43.16623" lon="6.52052">
        <ele>25.3</ele>
        <time>2024-02-04T14:13:34Z</time>
      </trkpt>
      <trkpt lat="43.16624" lon="6.52053">
        <ele>25.5</ele>
        <time>2024-02-04T14:13:35Z</time>
      </trkpt>
      <trkpt lat="43.16625" lon="6.52054">
        <ele>25.6</ele>
        <time>2024-02-04T14:13:36Z</time>
      </trkpt>
      <trkpt lat="43.16626" lon="6.52054">
        <ele>25.8</ele>
        <time>2024-02-04T14:13:37Z</time>
      </trkpt>
      <trkpt lat="43.16626" lon="6.52055">
        <ele>25.9</ele>
        <time>2024-02-04T14:13:38Z</time>
      </trkpt>
      <trkpt lat="43.16628" lon="6.52056">
        <ele>26</ele>
        <time>2024-02-04T14:13:39Z</time>
      </trkpt>
      <trkpt lat="43.16629" lon="6.52056">
        <ele>26.2</ele>
        <time>2024-02-04T14:13:40Z</time>
      </trkpt>
      <trkpt lat="43.16632" lon="6.52057">
        <ele>26.3</ele>
        <time>2024-02-04T14:13:41Z</time>
      </trkpt>
      <trkpt lat="43.16634" lon="6.52057">
        <ele>26.3</ele>
        <time>2024-02-04T14:13:42Z</time>
      </trkpt>
      <trkpt lat="43.16637" lon="6.52056">
        <ele>26.3</ele>
        <time>2024-02-04T14:13:43Z</time>
      </trkpt>
      <trkpt lat="43.16639" lon="6.52056">
        <ele>26.3</ele>
        <time>2024-02-04T14:13:44Z</time>
      </trkpt>
      <trkpt lat="43.16641" lon="6.52056">
        <ele>26.3</ele>
        <time>2024-02-04T14:13:45Z</time>
      </trkpt>
      <trkpt lat="43.16642" lon="6.52057">
        <ele>26.2</ele>
        <time>2024-02-04T14:13:46Z</time>
      </trkpt>
      <trkpt lat="43.16644" lon="6.52057">
        <ele>26.2</ele>
        <time>2024-02-04T14:13:47Z</time>
      </trkpt>
      <trkpt lat="43.16645" lon="6.52058">
        <ele>26.2</ele>
        <time>2024-02-04T14:13:48Z</time>
      </trkpt>
      <trkpt lat="43.16646" lon="6.52059">
        <ele>26.3</ele>
        <time>2024-02-04T14:13:49Z</time>
      </trkpt>
      <trkpt lat="43.16648" lon="6.52059">
        <ele>26.3</ele>
        <time>2024-02-04T14:13:50Z</time>
      </trkpt>
      <trkpt lat="43.1665" lon="6.52059">
        <ele>26.2</ele>
        <time>2024-02-04T14:13:51Z</time>
      </trkpt>
      <trkpt lat="43.16651" lon="6.52059">
        <ele>26.1</ele>
        <time>2024-02-04T14:13:52Z</time>
      </trkpt>
      <trkpt lat="43.16653" lon="6.52059">
        <ele>26.1</ele>
        <time>2024-02-04T14:13:53Z</time>
      </trkpt>
      <trkpt lat="43.16654" lon="6.52059">
        <ele>26</ele>
        <time>2024-02-04T14:13:54Z</time>
      </trkpt>
      <trkpt lat="43.16656" lon="6.52059">
        <ele>26</ele>
        <time>2024-02-04T14:13:55Z</time>
      </trkpt>
      <trkpt lat="43.16658" lon="6.5206">
        <ele>26</ele>
        <time>2024-02-04T14:13:56Z</time>
      </trkpt>
      <trkpt lat="43.16659" lon="6.5206">
        <ele>26</ele>
        <time>2024-02-04T14:13:57Z</time>
      </trkpt>
      <trkpt lat="43.1666" lon="6.52062">
        <ele>26</ele>
        <time>2024-02-04T14:13:58Z</time>
      </trkpt>
      <trkpt lat="43.16662" lon="6.52061">
        <ele>26.1</ele>
        <time>2024-02-04T14:13:59Z</time>
      </trkpt>
      <trkpt lat="43.16663" lon="6.52062">
        <ele>26</ele>
        <time>2024-02-04T14:14:00Z</time>
      </trkpt>
      <trkpt lat="43.16663" lon="6.52062">
        <ele>26</ele>
        <time>2024-02-04T14:14:01Z</time>
      </trkpt>
      <trkpt lat="43.16664" lon="6.52062">
        <ele>26</ele>
        <time>2024-02-04T14:14:02Z</time>
      </trkpt>
      <trkpt lat="43.16664" lon="6.52062">
        <ele>26</ele>
        <time>2024-02-04T14:14:03Z</time>
      </trkpt>
      <trkpt lat="43.16664" lon="6.52063">
        <ele>26</ele>
        <time>2024-02-04T14:14:04Z</time>
      </trkpt>
      <trkpt lat="43.16665" lon="6.52063">
        <ele>26</ele>
        <time>2024-02-04T14:14:05Z</time>
      </trkpt>
      <trkpt lat="43.16666" lon="6.52064">
        <ele>26</ele>
        <time>2024-02-04T14:14:06Z</time>
      </trkpt>
      <trkpt lat="43.16666" lon="6.52064">
        <ele>26.1</ele>
        <time>2024-02-04T14:14:07Z</time>
      </trkpt>
      <trkpt lat="43.16667" lon="6.52065">
        <ele>26.1</ele>
        <time>2024-02-04T14:14:08Z</time>
      </trkpt>
      <trkpt lat="43.16667" lon="6.52065">
        <ele>26.1</ele>
        <time>2024-02-04T14:14:09Z</time>
      </trkpt>
      <trkpt lat="43.16667" lon="6.52066">
        <ele>26.1</ele>
        <time>2024-02-04T14:14:10Z</time>
      </trkpt>
      <trkpt lat="43.16667" lon="6.52066">
        <ele>26.1</ele>
        <time>2024-02-04T14:14:11Z</time>
      </trkpt>
      <trkpt lat="43.16669" lon="6.52066">
        <ele>26.2</ele>
        <time>2024-02-04T14:14:12Z</time>
      </trkpt>
      <trkpt lat="43.16671" lon="6.52066">
        <ele>26.3</ele>
        <time>2024-02-04T14:14:13Z</time>
      </trkpt>
      <trkpt lat="43.16673" lon="6.52067">
        <ele>26.3</ele>
        <time>2024-02-04T14:14:14Z</time>
      </trkpt>
      <trkpt lat="43.16674" lon="6.52067">
        <ele>26.4</ele>
        <time>2024-02-04T14:14:15Z</time>
      </trkpt>
      <trkpt lat="43.16675" lon="6.52068">
        <ele>26.5</ele>
        <time>2024-02-04T14:14:16Z</time>
      </trkpt>
      <trkpt lat="43.16678" lon="6.52068">
        <ele>26.6</ele>
        <time>2024-02-04T14:14:17Z</time>
      </trkpt>
      <trkpt lat="43.16681" lon="6.52068">
        <ele>26.7</ele>
        <time>2024-02-04T14:14:18Z</time>
      </trkpt>
      <trkpt lat="43.16683" lon="6.52068">
        <ele>26.8</ele>
        <time>2024-02-04T14:14:19Z</time>
      </trkpt>
      <trkpt lat="43.16685" lon="6.52069">
        <ele>26.8</ele>
        <time>2024-02-04T14:14:20Z</time>
      </trkpt>
      <trkpt lat="43.16687" lon="6.52069">
        <ele>26.8</ele>
        <time>2024-02-04T14:14:21Z</time>
      </trkpt>
      <trkpt lat="43.16689" lon="6.52069">
        <ele>26.8</ele>
        <time>2024-02-04T14:14:22Z</time>
      </trkpt>
      <trkpt lat="43.1669" lon="6.5207">
        <ele>26.9</ele>
        <time>2024-02-04T14:14:23Z</time>
      </trkpt>
      <trkpt lat="43.16691" lon="6.5207">
        <ele>27</ele>
        <time>2024-02-04T14:14:24Z</time>
      </trkpt>
      <trkpt lat="43.16692" lon="6.5207">
        <ele>27.1</ele>
        <time>2024-02-04T14:14:25Z</time>
      </trkpt>
      <trkpt lat="43.16694" lon="6.5207">
        <ele>27.2</ele>
        <time>2024-02-04T14:14:26Z</time>
      </trkpt>
      <trkpt lat="43.16695" lon="6.52071">
        <ele>27.2</ele>
        <time>2024-02-04T14:14:27Z</time>
      </trkpt>
      <trkpt lat="43.16698" lon="6.52068">
        <ele>27.3</ele>
        <time>2024-02-04T14:14:28Z</time>
      </trkpt>
      <trkpt lat="43.167" lon="6.52065">
        <ele>27.3</ele>
        <time>2024-02-04T14:14:29Z</time>
      </trkpt>
      <trkpt lat="43.16702" lon="6.52063">
        <ele>27.6</ele>
        <time>2024-02-04T14:14:30Z</time>
      </trkpt>
      <trkpt lat="43.16704" lon="6.52062">
        <ele>27.7</ele>
        <time>2024-02-04T14:14:31Z</time>
      </trkpt>
      <trkpt lat="43.16705" lon="6.5206">
        <ele>27.9</ele>
        <time>2024-02-04T14:14:32Z</time>
      </trkpt>
      <trkpt lat="43.16705" lon="6.52059">
        <ele>28</ele>
        <time>2024-02-04T14:14:33Z</time>
      </trkpt>
      <trkpt lat="43.16706" lon="6.52058">
        <ele>28.1</ele>
        <time>2024-02-04T14:14:34Z</time>
      </trkpt>
      <trkpt lat="43.16707" lon="6.52056">
        <ele>28.2</ele>
        <time>2024-02-04T14:14:35Z</time>
      </trkpt>
      <trkpt lat="43.16709" lon="6.52055">
        <ele>28.3</ele>
        <time>2024-02-04T14:14:36Z</time>
      </trkpt>
      <trkpt lat="43.16708" lon="6.52052">
        <ele>28.3</ele>
        <time>2024-02-04T14:14:37Z</time>
      </trkpt>
      <trkpt lat="43.16708" lon="6.52049">
        <ele>28.4</ele>
        <time>2024-02-04T14:14:38Z</time>
      </trkpt>
      <trkpt lat="43.16708" lon="6.52047">
        <ele>28.3</ele>
        <time>2024-02-04T14:14:39Z</time>
      </trkpt>
      <trkpt lat="43.16707" lon="6.52045">
        <ele>28.3</ele>
        <time>2024-02-04T14:14:40Z</time>
      </trkpt>
      <trkpt lat="43.16706" lon="6.52044">
        <ele>28.3</ele>
        <time>2024-02-04T14:14:41Z</time>
      </trkpt>
      <trkpt lat="43.16706" lon="6.52042">
        <ele>28.2</ele>
        <time>2024-02-04T14:14:42Z</time>
      </trkpt>
      <trkpt lat="43.16705" lon="6.52041">
        <ele>28.2</ele>
        <time>2024-02-04T14:14:43Z</time>
      </trkpt>
      <trkpt lat="43.16704" lon="6.52039">
        <ele>28.3</ele>
        <time>2024-02-04T14:14:44Z</time>
      </trkpt>
      <trkpt lat="43.16703" lon="6.52038">
        <ele>28.4</ele>
        <time>2024-02-04T14:14:45Z</time>
      </trkpt>
      <trkpt lat="43.16703" lon="6.52037">
        <ele>28.4</ele>
        <time>2024-02-04T14:14:46Z</time>
      </trkpt>
      <trkpt lat="43.16703" lon="6.52036">
        <ele>28.5</ele>
        <time>2024-02-04T14:14:47Z</time>
      </trkpt>
      <trkpt lat="43.16703" lon="6.52035">
        <ele>28.5</ele>
        <time>2024-02-04T14:14:48Z</time>
      </trkpt>
      <trkpt lat="43.16702" lon="6.52034">
        <ele>28.6</ele>
        <time>2024-02-04T14:14:49Z</time>
      </trkpt>
      <trkpt lat="43.16701" lon="6.52033">
        <ele>28.5</ele>
        <time>2024-02-04T14:14:50Z</time>
      </trkpt>
      <trkpt lat="43.167" lon="6.52032">
        <ele>28.5</ele>
        <time>2024-02-04T14:14:51Z</time>
      </trkpt>
      <trkpt lat="43.16699" lon="6.5203">
        <ele>28.5</ele>
        <time>2024-02-04T14:14:52Z</time>
      </trkpt>
      <trkpt lat="43.16698" lon="6.5203">
        <ele>28.5</ele>
        <time>2024-02-04T14:14:53Z</time>
      </trkpt>
      <trkpt lat="43.16698" lon="6.52029">
        <ele>28.5</ele>
        <time>2024-02-04T14:14:54Z</time>
      </trkpt>
      <trkpt lat="43.16698" lon="6.52028">
        <ele>28.5</ele>
        <time>2024-02-04T14:14:55Z</time>
      </trkpt>
      <trkpt lat="43.16697" lon="6.52026">
        <ele>28.6</ele>
        <time>2024-02-04T14:14:56Z</time>
      </trkpt>
      <trkpt lat="43.16696" lon="6.52025">
        <ele>28.6</ele>
        <time>2024-02-04T14:14:57Z</time>
      </trkpt>
      <trkpt lat="43.16696" lon="6.52024">
        <ele>28.6</ele>
        <time>2024-02-04T14:14:58Z</time>
      </trkpt>
      <trkpt lat="43.16695" lon="6.52023">
        <ele>28.6</ele>
        <time>2024-02-04T14:14:59Z</time>
      </trkpt>
      <trkpt lat="43.16695" lon="6.52022">
        <ele>28.5</ele>
        <time>2024-02-04T14:15:00Z</time>
      </trkpt>
      <trkpt lat="43.16694" lon="6.5202">
        <ele>28.5</ele>
        <time>2024-02-04T14:15:01Z</time>
      </trkpt>
      <trkpt lat="43.16694" lon="6.52018">
        <ele>28.5</ele>
        <time>2024-02-04T14:15:02Z</time>
      </trkpt>
      <trkpt lat="43.16694" lon="6.52017">
        <ele>28.5</ele>
        <time>2024-02-04T14:15:03Z</time>
      </trkpt>
      <trkpt lat="43.16693" lon="6.52016">
        <ele>28.5</ele>
        <time>2024-02-04T14:15:04Z</time>
      </trkpt>
      <trkpt lat="43.16692" lon="6.52015">
        <ele>28.5</ele>
        <time>2024-02-04T14:15:05Z</time>
      </trkpt>
      <trkpt lat="43.16691" lon="6.52014">
        <ele>28.5</ele>
        <time>2024-02-04T14:15:06Z</time>
      </trkpt>
      <trkpt lat="43.1669" lon="6.52012">
        <ele>28.5</ele>
        <time>2024-02-04T14:15:07Z</time>
      </trkpt>
      <trkpt lat="43.1669" lon="6.5201">
        <ele>28.5</ele>
        <time>2024-02-04T14:15:08Z</time>
      </trkpt>
      <trkpt lat="43.16689" lon="6.52008">
        <ele>28.6</ele>
        <time>2024-02-04T14:15:09Z</time>
      </trkpt>
      <trkpt lat="43.16689" lon="6.52007">
        <ele>28.6</ele>
        <time>2024-02-04T14:15:10Z</time>
      </trkpt>
      <trkpt lat="43.16689" lon="6.52005">
        <ele>28.7</ele>
        <time>2024-02-04T14:15:11Z</time>
      </trkpt>
      <trkpt lat="43.16688" lon="6.52004">
        <ele>28.6</ele>
        <time>2024-02-04T14:15:12Z</time>
      </trkpt>
      <trkpt lat="43.16687" lon="6.52002">
        <ele>28.6</ele>
        <time>2024-02-04T14:15:13Z</time>
      </trkpt>
      <trkpt lat="43.16687" lon="6.52001">
        <ele>28.7</ele>
        <time>2024-02-04T14:15:14Z</time>
      </trkpt>
      <trkpt lat="43.16686" lon="6.51999">
        <ele>28.7</ele>
        <time>2024-02-04T14:15:15Z</time>
      </trkpt>
      <trkpt lat="43.16685" lon="6.51998">
        <ele>28.8</ele>
        <time>2024-02-04T14:15:16Z</time>
      </trkpt>
      <trkpt lat="43.16685" lon="6.51996">
        <ele>28.7</ele>
        <time>2024-02-04T14:15:17Z</time>
      </trkpt>
      <trkpt lat="43.16684" lon="6.51995">
        <ele>28.7</ele>
        <time>2024-02-04T14:15:18Z</time>
      </trkpt>
      <trkpt lat="43.16683" lon="6.51994">
        <ele>28.7</ele>
        <time>2024-02-04T14:15:19Z</time>
      </trkpt>
      <trkpt lat="43.16682" lon="6.51992">
        <ele>28.7</ele>
        <time>2024-02-04T14:15:20Z</time>
      </trkpt>
      <trkpt lat="43.16682" lon="6.51991">
        <ele>28.7</ele>
        <time>2024-02-04T14:15:21Z</time>
      </trkpt>
      <trkpt lat="43.16681" lon="6.51989">
        <ele>28.7</ele>
        <time>2024-02-04T14:15:22Z</time>
      </trkpt>
      <trkpt lat="43.16681" lon="6.51987">
        <ele>28.8</ele>
        <time>2024-02-04T14:15:23Z</time>
      </trkpt>
      <trkpt lat="43.1668" lon="6.51986">
        <ele>28.8</ele>
        <time>2024-02-04T14:15:24Z</time>
      </trkpt>
      <trkpt lat="43.16678" lon="6.51985">
        <ele>28.8</ele>
        <time>2024-02-04T14:15:25Z</time>
      </trkpt>
      <trkpt lat="43.16678" lon="6.51983">
        <ele>28.8</ele>
        <time>2024-02-04T14:15:26Z</time>
      </trkpt>
      <trkpt lat="43.16677" lon="6.51981">
        <ele>28.8</ele>
        <time>2024-02-04T14:15:27Z</time>
      </trkpt>
      <trkpt lat="43.16676" lon="6.51979">
        <ele>28.7</ele>
        <time>2024-02-04T14:15:28Z</time>
      </trkpt>
      <trkpt lat="43.16675" lon="6.51977">
        <ele>28.6</ele>
        <time>2024-02-04T14:15:29Z</time>
      </trkpt>
      <trkpt lat="43.16675" lon="6.51976">
        <ele>28.6</ele>
        <time>2024-02-04T14:15:30Z</time>
      </trkpt>
      <trkpt lat="43.16673" lon="6.51974">
        <ele>28.6</ele>
        <time>2024-02-04T14:15:31Z</time>
      </trkpt>
      <trkpt lat="43.16673" lon="6.51973">
        <ele>28.6</ele>
        <time>2024-02-04T14:15:32Z</time>
      </trkpt>
      <trkpt lat="43.16672" lon="6.51972">
        <ele>28.6</ele>
        <time>2024-02-04T14:15:33Z</time>
      </trkpt>
      <trkpt lat="43.16671" lon="6.51971">
        <ele>28.6</ele>
        <time>2024-02-04T14:15:34Z</time>
      </trkpt>
      <trkpt lat="43.16671" lon="6.51969">
        <ele>28.6</ele>
        <time>2024-02-04T14:15:35Z</time>
      </trkpt>
      <trkpt lat="43.16671" lon="6.51968">
        <ele>28.7</ele>
        <time>2024-02-04T14:15:36Z</time>
      </trkpt>
      <trkpt lat="43.16671" lon="6.51967">
        <ele>28.7</ele>
        <time>2024-02-04T14:15:37Z</time>
      </trkpt>
      <trkpt lat="43.16671" lon="6.51967">
        <ele>28.8</ele>
        <time>2024-02-04T14:15:38Z</time>
      </trkpt>
      <trkpt lat="43.16671" lon="6.51967">
        <ele>28.7</ele>
        <time>2024-02-04T14:15:39Z</time>
      </trkpt>
      <trkpt lat="43.16671" lon="6.51967">
        <ele>28.7</ele>
        <time>2024-02-04T14:15:40Z</time>
      </trkpt>
      <trkpt lat="43.16671" lon="6.51966">
        <ele>28.7</ele>
        <time>2024-02-04T14:15:41Z</time>
      </trkpt>
      <trkpt lat="43.1667" lon="6.51966">
        <ele>28.6</ele>
        <time>2024-02-04T14:15:42Z</time>
      </trkpt>
      <trkpt lat="43.16669" lon="6.51966">
        <ele>28.6</ele>
        <time>2024-02-04T14:15:43Z</time>
      </trkpt>
      <trkpt lat="43.16669" lon="6.51966">
        <ele>28.7</ele>
        <time>2024-02-04T14:15:44Z</time>
      </trkpt>
      <trkpt lat="43.16669" lon="6.51966">
        <ele>28.7</ele>
        <time>2024-02-04T14:15:45Z</time>
      </trkpt>
      <trkpt lat="43.16669" lon="6.51966">
        <ele>28.6</ele>
        <time>2024-02-04T14:15:46Z</time>
      </trkpt>
      <trkpt lat="43.16669" lon="6.51965">
        <ele>28.6</ele>
        <time>2024-02-04T14:15:47Z</time>
      </trkpt>
      <trkpt lat="43.16669" lon="6.51965">
        <ele>28.6</ele>
        <time>2024-02-04T14:15:48Z</time>
      </trkpt>
      <trkpt lat="43.16668" lon="6.51965">
        <ele>28.6</ele>
        <time>2024-02-04T14:15:49Z</time>
      </trkpt>
      <trkpt lat="43.16668" lon="6.51965">
        <ele>28.6</ele>
        <time>2024-02-04T14:15:50Z</time>
      </trkpt>
      <trkpt lat="43.16668" lon="6.51965">
        <ele>28.6</ele>
        <time>2024-02-04T14:15:51Z</time>
      </trkpt>
      <trkpt lat="43.16668" lon="6.51965">
        <ele>28.5</ele>
        <time>2024-02-04T14:15:52Z</time>
      </trkpt>
      <trkpt lat="43.16668" lon="6.51965">
        <ele>28.5</ele>
        <time>2024-02-04T14:15:53Z</time>
      </trkpt>
      <trkpt lat="43.16668" lon="6.51965">
        <ele>28.5</ele>
        <time>2024-02-04T14:15:54Z</time>
      </trkpt>
      <trkpt lat="43.16667" lon="6.51965">
        <ele>28.5</ele>
        <time>2024-02-04T14:15:55Z</time>
      </trkpt>
      <trkpt lat="43.16667" lon="6.51965">
        <ele>28.5</ele>
        <time>2024-02-04T14:15:56Z</time>
      </trkpt>
      <trkpt lat="43.16667" lon="6.51965">
        <ele>28.5</ele>
        <time>2024-02-04T14:15:57Z</time>
      </trkpt>
      <trkpt lat="43.16667" lon="6.51965">
        <ele>28.4</ele>
        <time>2024-02-04T14:15:58Z</time>
      </trkpt>
      <trkpt lat="43.16667" lon="6.51965">
        <ele>28.4</ele>
        <time>2024-02-04T14:15:59Z</time>
      </trkpt>
      <trkpt lat="43.16667" lon="6.51965">
        <ele>28.4</ele>
        <time>2024-02-04T14:16:00Z</time>
      </trkpt>
      <trkpt lat="43.16667" lon="6.51965">
        <ele>28.4</ele>
        <time>2024-02-04T14:16:01Z</time>
      </trkpt>
      <trkpt lat="43.16667" lon="6.51965">
        <ele>28.4</ele>
        <time>2024-02-04T14:16:02Z</time>
      </trkpt>
      <trkpt lat="43.16667" lon="6.51965">
        <ele>28.4</ele>
        <time>2024-02-04T14:16:03Z</time>
      </trkpt>
      <trkpt lat="43.16667" lon="6.51965">
        <ele>28.4</ele>
        <time>2024-02-04T14:16:04Z</time>
      </trkpt>
      <trkpt lat="43.16667" lon="6.51965">
        <ele>28.4</ele>
        <time>2024-02-04T14:16:05Z</time>
      </trkpt>
      <trkpt lat="43.16667" lon="6.51965">
        <ele>28.4</ele>
        <time>2024-02-04T14:16:06Z</time>
      </trkpt>
      <trkpt lat="43.16667" lon="6.51964">
        <ele>28.4</ele>
        <time>2024-02-04T14:16:07Z</time>
      </trkpt>
      <trkpt lat="43.16666" lon="6.51964">
        <ele>28.4</ele>
        <time>2024-02-04T14:16:08Z</time>
      </trkpt>
      <trkpt lat="43.16666" lon="6.51964">
        <ele>28.3</ele>
        <time>2024-02-04T14:16:09Z</time>
      </trkpt>
      <trkpt lat="43.16667" lon="6.51964">
        <ele>28.3</ele>
        <time>2024-02-04T14:16:10Z</time>
      </trkpt>
      <trkpt lat="43.16666" lon="6.51964">
        <ele>28.3</ele>
        <time>2024-02-04T14:16:11Z</time>
      </trkpt>
      <trkpt lat="43.16666" lon="6.51963">
        <ele>28.3</ele>
        <time>2024-02-04T14:16:12Z</time>
      </trkpt>
      <trkpt lat="43.16666" lon="6.51964">
        <ele>28.4</ele>
        <time>2024-02-04T14:16:13Z</time>
      </trkpt>
      <trkpt lat="43.16666" lon="6.51963">
        <ele>28.5</ele>
        <time>2024-02-04T14:16:14Z</time>
      </trkpt>
      <trkpt lat="43.16665" lon="6.51962">
        <ele>28.5</ele>
        <time>2024-02-04T14:16:15Z</time>
      </trkpt>
      <trkpt lat="43.16665" lon="6.51962">
        <ele>27.7</ele>
        <time>2024-02-04T14:16:16Z</time>
      </trkpt>
      <trkpt lat="43.16665" lon="6.51962">
        <ele>27.2</ele>
        <time>2024-02-04T14:16:17Z</time>
      </trkpt>
      <trkpt lat="43.16664" lon="6.51962">
        <ele>27.6</ele>
        <time>2024-02-04T14:16:18Z</time>
      </trkpt>
      <trkpt lat="43.16664" lon="6.51962">
        <ele>27.8</ele>
        <time>2024-02-04T14:16:19Z</time>
      </trkpt>
      <trkpt lat="43.16664" lon="6.51962">
        <ele>28</ele>
        <time>2024-02-04T14:16:20Z</time>
      </trkpt>
      <trkpt lat="43.16665" lon="6.51962">
        <ele>28.2</ele>
        <time>2024-02-04T14:16:21Z</time>
      </trkpt>
      <trkpt lat="43.16664" lon="6.51961">
        <ele>28.5</ele>
        <time>2024-02-04T14:16:22Z</time>
      </trkpt>
      <trkpt lat="43.16664" lon="6.51961">
        <ele>28.5</ele>
        <time>2024-02-04T14:16:23Z</time>
      </trkpt>
      <trkpt lat="43.16664" lon="6.5196">
        <ele>28.5</ele>
        <time>2024-02-04T14:16:24Z</time>
      </trkpt>
      <trkpt lat="43.16664" lon="6.5196">
        <ele>28.4</ele>
        <time>2024-02-04T14:16:25Z</time>
      </trkpt>
      <trkpt lat="43.16664" lon="6.51959">
        <ele>28.3</ele>
        <time>2024-02-04T14:16:26Z</time>
      </trkpt>
      <trkpt lat="43.16664" lon="6.51959">
        <ele>28.4</ele>
        <time>2024-02-04T14:16:27Z</time>
      </trkpt>
      <trkpt lat="43.16664" lon="6.5196">
        <ele>27.7</ele>
        <time>2024-02-04T14:16:28Z</time>
      </trkpt>
      <trkpt lat="43.16663" lon="6.5196">
        <ele>27.7</ele>
        <time>2024-02-04T14:16:29Z</time>
      </trkpt>
      <trkpt lat="43.16663" lon="6.5196">
        <ele>27.8</ele>
        <time>2024-02-04T14:16:30Z</time>
      </trkpt>
      <trkpt lat="43.16663" lon="6.5196">
        <ele>27.9</ele>
        <time>2024-02-04T14:16:31Z</time>
      </trkpt>
      <trkpt lat="43.16662" lon="6.5196">
        <ele>28</ele>
        <time>2024-02-04T14:16:32Z</time>
      </trkpt>
      <trkpt lat="43.16662" lon="6.5196">
        <ele>28</ele>
        <time>2024-02-04T14:16:33Z</time>
      </trkpt>
      <trkpt lat="43.16662" lon="6.51961">
        <ele>28</ele>
        <time>2024-02-04T14:16:34Z</time>
      </trkpt>
      <trkpt lat="43.16661" lon="6.51961">
        <ele>28</ele>
        <time>2024-02-04T14:16:35Z</time>
      </trkpt>
      <trkpt lat="43.16661" lon="6.51962">
        <ele>28.1</ele>
        <time>2024-02-04T14:16:36Z</time>
      </trkpt>
      <trkpt lat="43.1666" lon="6.51962">
        <ele>28.2</ele>
        <time>2024-02-04T14:16:37Z</time>
      </trkpt>
      <trkpt lat="43.1666" lon="6.51962">
        <ele>28.3</ele>
        <time>2024-02-04T14:16:38Z</time>
      </trkpt>
      <trkpt lat="43.1666" lon="6.51962">
        <ele>28.3</ele>
        <time>2024-02-04T14:16:39Z</time>
      </trkpt>
      <trkpt lat="43.1666" lon="6.51964">
        <ele>28.4</ele>
        <time>2024-02-04T14:16:40Z</time>
      </trkpt>
      <trkpt lat="43.1666" lon="6.51963">
        <ele>28.3</ele>
        <time>2024-02-04T14:16:41Z</time>
      </trkpt>
      <trkpt lat="43.16659" lon="6.51963">
        <ele>15.2</ele>
        <time>2024-02-04T14:16:42Z</time>
      </trkpt>
      <trkpt lat="43.16659" lon="6.51963">
        <ele>19.3</ele>
        <time>2024-02-04T14:16:43Z</time>
      </trkpt>
      <trkpt lat="43.16659" lon="6.51964">
        <ele>20.5</ele>
        <time>2024-02-04T14:16:44Z</time>
      </trkpt>
      <trkpt lat="43.16658" lon="6.51964">
        <ele>21.9</ele>
        <time>2024-02-04T14:16:45Z</time>
      </trkpt>
      <trkpt lat="43.16658" lon="6.51964">
        <ele>23</ele>
        <time>2024-02-04T14:16:46Z</time>
      </trkpt>
      <trkpt lat="43.16659" lon="6.51964">
        <ele>24</ele>
        <time>2024-02-04T14:16:47Z</time>
      </trkpt>
      <trkpt lat="43.16659" lon="6.51963">
        <ele>24.9</ele>
        <time>2024-02-04T14:16:48Z</time>
      </trkpt>
      <trkpt lat="43.16658" lon="6.51962">
        <ele>25.5</ele>
        <time>2024-02-04T14:16:49Z</time>
      </trkpt>
      <trkpt lat="43.16658" lon="6.51962">
        <ele>26</ele>
        <time>2024-02-04T14:16:50Z</time>
      </trkpt>
      <trkpt lat="43.16658" lon="6.51962">
        <ele>26.7</ele>
        <time>2024-02-04T14:16:51Z</time>
      </trkpt>
      <trkpt lat="43.16658" lon="6.51962">
        <ele>27.1</ele>
        <time>2024-02-04T14:16:52Z</time>
      </trkpt>
      <trkpt lat="43.16658" lon="6.51962">
        <ele>27.4</ele>
        <time>2024-02-04T14:16:53Z</time>
      </trkpt>
      <trkpt lat="43.16659" lon="6.51961">
        <ele>27.6</ele>
        <time>2024-02-04T14:16:54Z</time>
      </trkpt>
      <trkpt lat="43.16659" lon="6.51961">
        <ele>27.7</ele>
        <time>2024-02-04T14:16:55Z</time>
      </trkpt>
      <trkpt lat="43.1666" lon="6.5196">
        <ele>27.9</ele>
        <time>2024-02-04T14:16:56Z</time>
      </trkpt>
      <trkpt lat="43.1666" lon="6.5196">
        <ele>28</ele>
        <time>2024-02-04T14:16:57Z</time>
      </trkpt>
      <trkpt lat="43.1666" lon="6.5196">
        <ele>28.1</ele>
        <time>2024-02-04T14:16:58Z</time>
      </trkpt>
      <trkpt lat="43.1666" lon="6.5196">
        <ele>28.2</ele>
        <time>2024-02-04T14:16:59Z</time>
      </trkpt>
      <trkpt lat="43.1666" lon="6.5196">
        <ele>28.2</ele>
        <time>2024-02-04T14:17:00Z</time>
      </trkpt>
      <trkpt lat="43.1666" lon="6.5196">
        <ele>28.2</ele>
        <time>2024-02-04T14:17:01Z</time>
      </trkpt>
      <trkpt lat="43.1666" lon="6.5196">
        <ele>28.2</ele>
        <time>2024-02-04T14:17:02Z</time>
      </trkpt>
      <trkpt lat="43.1666" lon="6.5196">
        <ele>28.2</ele>
        <time>2024-02-04T14:17:03Z</time>
      </trkpt>
      <trkpt lat="43.16659" lon="6.5196">
        <ele>28.2</ele>
        <time>2024-02-04T14:17:04Z</time>
      </trkpt>
      <trkpt lat="43.16659" lon="6.5196">
        <ele>28.2</ele>
        <time>2024-02-04T14:17:05Z</time>
      </trkpt>
      <trkpt lat="43.16659" lon="6.5196">
        <ele>28.2</ele>
        <time>2024-02-04T14:17:06Z</time>
      </trkpt>
      <trkpt lat="43.16659" lon="6.5196">
        <ele>28.3</ele>
        <time>2024-02-04T14:17:07Z</time>
      </trkpt>
      <trkpt lat="43.16659" lon="6.5196">
        <ele>28.2</ele>
        <time>2024-02-04T14:17:08Z</time>
      </trkpt>
      <trkpt lat="43.16659" lon="6.51959">
        <ele>28.2</ele>
        <time>2024-02-04T14:17:09Z</time>
      </trkpt>
      <trkpt lat="43.16659" lon="6.51959">
        <ele>28.2</ele>
        <time>2024-02-04T14:17:10Z</time>
      </trkpt>
      <trkpt lat="43.16659" lon="6.51959">
        <ele>28.2</ele>
        <time>2024-02-04T14:17:11Z</time>
      </trkpt>
      <trkpt lat="43.16659" lon="6.51959">
        <ele>28.1</ele>
        <time>2024-02-04T14:17:12Z</time>
      </trkpt>
      <trkpt lat="43.16659" lon="6.51959">
        <ele>28.1</ele>
        <time>2024-02-04T14:17:13Z</time>
      </trkpt>
      <trkpt lat="43.16659" lon="6.51959">
        <ele>28.1</ele>
        <time>2024-02-04T14:17:14Z</time>
      </trkpt>
      <trkpt lat="43.16659" lon="6.5196">
        <ele>28</ele>
        <time>2024-02-04T14:17:15Z</time>
      </trkpt>
      <trkpt lat="43.16659" lon="6.5196">
        <ele>27.9</ele>
        <time>2024-02-04T14:17:16Z</time>
      </trkpt>
      <trkpt lat="43.16659" lon="6.5196">
        <ele>27.9</ele>
        <time>2024-02-04T14:17:17Z</time>
      </trkpt>
      <trkpt lat="43.16659" lon="6.5196">
        <ele>27.9</ele>
        <time>2024-02-04T14:17:18Z</time>
      </trkpt>
      <trkpt lat="43.16659" lon="6.5196">
        <ele>27.9</ele>
        <time>2024-02-04T14:17:19Z</time>
      </trkpt>
      <trkpt lat="43.16659" lon="6.5196">
        <ele>28</ele>
        <time>2024-02-04T14:17:20Z</time>
      </trkpt>
      <trkpt lat="43.16659" lon="6.5196">
        <ele>28</ele>
        <time>2024-02-04T14:17:21Z</time>
      </trkpt>
      <trkpt lat="43.16659" lon="6.51961">
        <ele>28.1</ele>
        <time>2024-02-04T14:17:22Z</time>
      </trkpt>
      <trkpt lat="43.16659" lon="6.51961">
        <ele>28.2</ele>
        <time>2024-02-04T14:17:23Z</time>
      </trkpt>
      <trkpt lat="43.16659" lon="6.51961">
        <ele>28.2</ele>
        <time>2024-02-04T14:17:24Z</time>
      </trkpt>
      <trkpt lat="43.16659" lon="6.51961">
        <ele>28.3</ele>
        <time>2024-02-04T14:17:25Z</time>
      </trkpt>
      <trkpt lat="43.16659" lon="6.51961">
        <ele>28.3</ele>
        <time>2024-02-04T14:17:26Z</time>
      </trkpt>
      <trkpt lat="43.16659" lon="6.51961">
        <ele>28.3</ele>
        <time>2024-02-04T14:17:27Z</time>
      </trkpt>
      <trkpt lat="43.16659" lon="6.51961">
        <ele>28.4</ele>
        <time>2024-02-04T14:17:28Z</time>
      </trkpt>
      <trkpt lat="43.16659" lon="6.51961">
        <ele>28.4</ele>
        <time>2024-02-04T14:17:29Z</time>
      </trkpt>
      <trkpt lat="43.16659" lon="6.5196">
        <ele>28.4</ele>
        <time>2024-02-04T14:17:30Z</time>
      </trkpt>
      <trkpt lat="43.16659" lon="6.5196">
        <ele>28.3</ele>
        <time>2024-02-04T14:17:31Z</time>
      </trkpt>
      <trkpt lat="43.16659" lon="6.51961">
        <ele>28.2</ele>
        <time>2024-02-04T14:17:32Z</time>
      </trkpt>
      <trkpt lat="43.16659" lon="6.5196">
        <ele>28.2</ele>
        <time>2024-02-04T14:17:33Z</time>
      </trkpt>
      <trkpt lat="43.16659" lon="6.5196">
        <ele>28.3</ele>
        <time>2024-02-04T14:17:34Z</time>
      </trkpt>
      <trkpt lat="43.16659" lon="6.51961">
        <ele>28.3</ele>
        <time>2024-02-04T14:17:35Z</time>
      </trkpt>
      <trkpt lat="43.16659" lon="6.51961">
        <ele>28.3</ele>
        <time>2024-02-04T14:17:36Z</time>
      </trkpt>
      <trkpt lat="43.16659" lon="6.51961">
        <ele>28.3</ele>
        <time>2024-02-04T14:17:37Z</time>
      </trkpt>
      <trkpt lat="43.16659" lon="6.51961">
        <ele>28.3</ele>
        <time>2024-02-04T14:17:38Z</time>
      </trkpt>
      <trkpt lat="43.16659" lon="6.51962">
        <ele>28.2</ele>
        <time>2024-02-04T14:17:39Z</time>
      </trkpt>
      <trkpt lat="43.16659" lon="6.51962">
        <ele>28.3</ele>
        <time>2024-02-04T14:17:40Z</time>
      </trkpt>
      <trkpt lat="43.16659" lon="6.51962">
        <ele>28.3</ele>
        <time>2024-02-04T14:17:41Z</time>
      </trkpt>
      <trkpt lat="43.1666" lon="6.51962">
        <ele>28.4</ele>
        <time>2024-02-04T14:17:42Z</time>
      </trkpt>
      <trkpt lat="43.1666" lon="6.51962">
        <ele>27.6</ele>
        <time>2024-02-04T14:17:43Z</time>
      </trkpt>
      <trkpt lat="43.1666" lon="6.51961">
        <ele>27.8</ele>
        <time>2024-02-04T14:17:44Z</time>
      </trkpt>
      <trkpt lat="43.1666" lon="6.51962">
        <ele>28</ele>
        <time>2024-02-04T14:17:45Z</time>
      </trkpt>
      <trkpt lat="43.1666" lon="6.51962">
        <ele>28.1</ele>
        <time>2024-02-04T14:17:46Z</time>
      </trkpt>
      <trkpt lat="43.1666" lon="6.51962">
        <ele>28.2</ele>
        <time>2024-02-04T14:17:46Z</time>
      </trkpt>
      <trkpt lat="43.1666" lon="6.51962">
        <ele>28.2</ele>
        <time>2024-02-04T14:17:46Z</time>
      </trkpt>
    </trkseg>
  </trk>
</gpx>